<?xml version='1.0' encoding='UTF-8'?><gpx version="1.1" creator="JPX - https://github.com/jenetics/jpx" xmlns="http://www.topografix.com/GPX/1/1"><trk><trkseg><trkpt lat="40.8938741" lon="14.2877964"><ele>80.0</ele><time>2026-04-25T07:46:23.207Z</time></trkpt><trkpt lat="40.8937773" lon="14.2872979"><ele>80.0</ele><time>2026-04-25T07:46:30.382Z</time></trkpt><trkpt lat="40.8937519" lon="14.2871947"><ele>80.0</ele><time>2026-04-25T07:46:31.381Z</time></trkpt><trkpt lat="40.8937294" lon="14.2871137"><ele>80.0</ele><time>2026-04-25T07:46:32.382Z</time></trkpt><trkpt lat="40.8936875" lon="14.286976"><ele>80.0</ele><time>2026-04-25T07:46:34.381Z</time></trkpt><trkpt lat="40.8936492" lon="14.2868257"><ele>80.0</ele><time>2026-04-25T07:46:36.382Z</time></trkpt><trkpt lat="40.89361" lon="14.286665"><ele>80.0</ele><time>2026-04-25T07:46:38.381Z</time></trkpt><trkpt lat="40.893565" lon="14.2865233"><ele>80.2</ele><time>2026-04-25T07:46:40.381Z</time></trkpt><trkpt lat="40.8935283" lon="14.28638"><ele>80.4</ele><time>2026-04-25T07:46:42.38Z</time></trkpt><trkpt lat="40.8934833" lon="14.2862317"><ele>80.6</ele><time>2026-04-25T07:46:44.381Z</time></trkpt><trkpt lat="40.89345" lon="14.2860983"><ele>80.8</ele><time>2026-04-25T07:46:46.381Z</time></trkpt><trkpt lat="40.893455" lon="14.2859817"><ele>81.0</ele><time>2026-04-25T07:46:48.382Z</time></trkpt><trkpt lat="40.8935417" lon="14.2859833"><ele>81.0</ele><time>2026-04-25T07:46:50.381Z</time></trkpt><trkpt lat="40.8936267" lon="14.28597"><ele>81.0</ele><time>2026-04-25T07:46:52.382Z</time></trkpt><trkpt lat="40.8937333" lon="14.2859767"><ele>81.0</ele><time>2026-04-25T07:46:54.381Z</time></trkpt><trkpt lat="40.8938583" lon="14.2859883"><ele>81.0</ele><time>2026-04-25T07:46:56.382Z</time></trkpt><trkpt lat="40.8939233" lon="14.28599"><ele>81.0</ele><time>2026-04-25T07:46:57.381Z</time></trkpt><trkpt lat="40.89399" lon="14.2859933"><ele>81.0</ele><time>2026-04-25T07:46:58.382Z</time></trkpt><trkpt lat="40.89406" lon="14.2860067"><ele>81.0</ele><time>2026-04-25T07:46:59.381Z</time></trkpt><trkpt lat="40.8941483" lon="14.2860217"><ele>81.0</ele><time>2026-04-25T07:47:00.382Z</time></trkpt><trkpt lat="40.8942233" lon="14.2860333"><ele>81.0</ele><time>2026-04-25T07:47:01.385Z</time></trkpt><trkpt lat="40.8942967" lon="14.28604"><ele>81.0</ele><time>2026-04-25T07:47:02.381Z</time></trkpt><trkpt lat="40.8943633" lon="14.28605"><ele>81.0</ele><time>2026-04-25T07:47:03.384Z</time></trkpt><trkpt lat="40.8944383" lon="14.2860683"><ele>81.0</ele><time>2026-04-25T07:47:04.381Z</time></trkpt><trkpt lat="40.894505" lon="14.2860833"><ele>81.0</ele><time>2026-04-25T07:47:05.381Z</time></trkpt><trkpt lat="40.8945717" lon="14.286105"><ele>80.85714285714286</ele><time>2026-04-25T07:47:06.382Z</time></trkpt><trkpt lat="40.8946467" lon="14.286135"><ele>80.71428571428571</ele><time>2026-04-25T07:47:07.381Z</time></trkpt><trkpt lat="40.8947133" lon="14.2861467"><ele>80.57142857142857</ele><time>2026-04-25T07:47:08.383Z</time></trkpt><trkpt lat="40.89478" lon="14.28616"><ele>80.42857142857143</ele><time>2026-04-25T07:47:09.382Z</time></trkpt><trkpt lat="40.8948517" lon="14.2861733"><ele>80.28571428571429</ele><time>2026-04-25T07:47:10.381Z</time></trkpt><trkpt lat="40.89493" lon="14.2861733"><ele>80.14285714285714</ele><time>2026-04-25T07:47:11.38Z</time></trkpt><trkpt lat="40.8950117" lon="14.2861783"><ele>80.0</ele><time>2026-04-25T07:47:12.382Z</time></trkpt><trkpt lat="40.8950817" lon="14.2861917"><ele>79.66666666666667</ele><time>2026-04-25T07:47:13.381Z</time></trkpt><trkpt lat="40.895165" lon="14.286215"><ele>79.33333333333334</ele><time>2026-04-25T07:47:14.381Z</time></trkpt><trkpt lat="40.8952367" lon="14.2862317"><ele>79.0</ele><time>2026-04-25T07:47:15.382Z</time></trkpt><trkpt lat="40.89531" lon="14.2862333"><ele>78.66666666666667</ele><time>2026-04-25T07:47:16.382Z</time></trkpt><trkpt lat="40.8953783" lon="14.2862383"><ele>78.33333333333333</ele><time>2026-04-25T07:47:17.382Z</time></trkpt><trkpt lat="40.8954433" lon="14.2862417"><ele>78.0</ele><time>2026-04-25T07:47:18.383Z</time></trkpt><trkpt lat="40.8955683" lon="14.28625"><ele>78.0</ele><time>2026-04-25T07:47:20.381Z</time></trkpt><trkpt lat="40.8956317" lon="14.2862533"><ele>78.0</ele><time>2026-04-25T07:47:21.383Z</time></trkpt><trkpt lat="40.8957517" lon="14.2862533"><ele>78.0</ele><time>2026-04-25T07:47:23.383Z</time></trkpt><trkpt lat="40.8958667" lon="14.2862583"><ele>78.0</ele><time>2026-04-25T07:47:25.382Z</time></trkpt><trkpt lat="40.8959883" lon="14.28627"><ele>78.0</ele><time>2026-04-25T07:47:27.382Z</time></trkpt><trkpt lat="40.8960517" lon="14.286285"><ele>78.5</ele><time>2026-04-25T07:47:28.384Z</time></trkpt><trkpt lat="40.896175" lon="14.2863067"><ele>79.0</ele><time>2026-04-25T07:47:30.383Z</time></trkpt><trkpt lat="40.8962983" lon="14.2863233"><ele>79.5</ele><time>2026-04-25T07:47:32.383Z</time></trkpt><trkpt lat="40.8964117" lon="14.28635"><ele>80.0</ele><time>2026-04-25T07:47:34.382Z</time></trkpt><trkpt lat="40.8965217" lon="14.2863983"><ele>80.0</ele><time>2026-04-25T07:47:36.382Z</time></trkpt><trkpt lat="40.8966317" lon="14.286435"><ele>80.0</ele><time>2026-04-25T07:47:38.382Z</time></trkpt><trkpt lat="40.8967317" lon="14.286395"><ele>80.0</ele><time>2026-04-25T07:47:40.384Z</time></trkpt><trkpt lat="40.896835" lon="14.286335"><ele>80.0</ele><time>2026-04-25T07:47:42.383Z</time></trkpt><trkpt lat="40.89691" lon="14.28623"><ele>80.0</ele><time>2026-04-25T07:47:44.388Z</time></trkpt><trkpt lat="40.8969817" lon="14.2861083"><ele>80.5</ele><time>2026-04-25T07:47:46.384Z</time></trkpt><trkpt lat="40.8970567" lon="14.2859917"><ele>81.0</ele><time>2026-04-25T07:47:48.381Z</time></trkpt><trkpt lat="40.897125" lon="14.28586"><ele>81.5</ele><time>2026-04-25T07:47:50.387Z</time></trkpt><trkpt lat="40.8972" lon="14.2857317"><ele>82.0</ele><time>2026-04-25T07:47:52.381Z</time></trkpt><trkpt lat="40.8972733" lon="14.2856017"><ele>81.8</ele><time>2026-04-25T07:47:54.381Z</time></trkpt><trkpt lat="40.89732" lon="14.2855383"><ele>81.6</ele><time>2026-04-25T07:47:55.386Z</time></trkpt><trkpt lat="40.8973533" lon="14.2854667"><ele>81.39999999999999</ele><time>2026-04-25T07:47:56.383Z</time></trkpt><trkpt lat="40.8974183" lon="14.2853383"><ele>81.19999999999999</ele><time>2026-04-25T07:47:58.384Z</time></trkpt><trkpt lat="40.8975" lon="14.2852233"><ele>81.0</ele><time>2026-04-25T07:48:00.381Z</time></trkpt><trkpt lat="40.8975733" lon="14.285095"><ele>80.8</ele><time>2026-04-25T07:48:02.382Z</time></trkpt><trkpt lat="40.89765" lon="14.2849717"><ele>80.6</ele><time>2026-04-25T07:48:04.385Z</time></trkpt><trkpt lat="40.8977317" lon="14.284845"><ele>80.4</ele><time>2026-04-25T07:48:06.383Z</time></trkpt><trkpt lat="40.8977767" lon="14.284785"><ele>80.2</ele><time>2026-04-25T07:48:07.381Z</time></trkpt><trkpt lat="40.89787" lon="14.2846783"><ele>80.0</ele><time>2026-04-25T07:48:09.381Z</time></trkpt><trkpt lat="40.8979567" lon="14.28457"><ele>80.0</ele><time>2026-04-25T07:48:11.381Z</time></trkpt><trkpt lat="40.8980233" lon="14.2844783"><ele>80.0</ele><time>2026-04-25T07:48:13.382Z</time></trkpt><trkpt lat="40.8980783" lon="14.2844283"><ele>80.0</ele><time>2026-04-25T07:48:15.382Z</time></trkpt><trkpt lat="40.898155" lon="14.2844583"><ele>80.0</ele><time>2026-04-25T07:48:18.381Z</time></trkpt><trkpt lat="40.8982117" lon="14.28453"><ele>80.0</ele><time>2026-04-25T07:48:20.38Z</time></trkpt><trkpt lat="40.898285" lon="14.284635"><ele>80.0</ele><time>2026-04-25T07:48:22.381Z</time></trkpt><trkpt lat="40.8983633" lon="14.2847667"><ele>80.75</ele><time>2026-04-25T07:48:24.381Z</time></trkpt><trkpt lat="40.8984483" lon="14.2848883"><ele>81.5</ele><time>2026-04-25T07:48:26.381Z</time></trkpt><trkpt lat="40.8985367" lon="14.2849867"><ele>82.25</ele><time>2026-04-25T07:48:28.381Z</time></trkpt><trkpt lat="40.898615" lon="14.285075"><ele>83.0</ele><time>2026-04-25T07:48:30.382Z</time></trkpt><trkpt lat="40.8987033" lon="14.2851883"><ele>83.0</ele><time>2026-04-25T07:48:32.382Z</time></trkpt><trkpt lat="40.8987517" lon="14.28525"><ele>83.0</ele><time>2026-04-25T07:48:33.381Z</time></trkpt><trkpt lat="40.8988067" lon="14.285305"><ele>83.0</ele><time>2026-04-25T07:48:34.381Z</time></trkpt><trkpt lat="40.898875" lon="14.285345"><ele>83.0</ele><time>2026-04-25T07:48:35.38Z</time></trkpt><trkpt lat="40.8989483" lon="14.28539"><ele>83.0</ele><time>2026-04-25T07:48:36.381Z</time></trkpt><trkpt lat="40.89902" lon="14.2854367"><ele>83.0</ele><time>2026-04-25T07:48:37.381Z</time></trkpt><trkpt lat="40.8990917" lon="14.2854733"><ele>83.0</ele><time>2026-04-25T07:48:38.38Z</time></trkpt><trkpt lat="40.8991583" lon="14.2855117"><ele>83.0</ele><time>2026-04-25T07:48:39.381Z</time></trkpt><trkpt lat="40.899225" lon="14.2855517"><ele>83.0</ele><time>2026-04-25T07:48:40.382Z</time></trkpt><trkpt lat="40.8992967" lon="14.2855817"><ele>83.0</ele><time>2026-04-25T07:48:41.381Z</time></trkpt><trkpt lat="40.89937" lon="14.2856133"><ele>83.0</ele><time>2026-04-25T07:48:42.381Z</time></trkpt><trkpt lat="40.8994367" lon="14.28565"><ele>83.0</ele><time>2026-04-25T07:48:43.38Z</time></trkpt><trkpt lat="40.89951" lon="14.2856933"><ele>83.0</ele><time>2026-04-25T07:48:44.381Z</time></trkpt><trkpt lat="40.8995817" lon="14.28574"><ele>83.16666666666667</ele><time>2026-04-25T07:48:45.381Z</time></trkpt><trkpt lat="40.8996567" lon="14.2857733"><ele>83.33333333333334</ele><time>2026-04-25T07:48:46.381Z</time></trkpt><trkpt lat="40.8997283" lon="14.2858033"><ele>83.5</ele><time>2026-04-25T07:48:47.381Z</time></trkpt><trkpt lat="40.89981" lon="14.2858267"><ele>83.66666666666667</ele><time>2026-04-25T07:48:48.382Z</time></trkpt><trkpt lat="40.89988" lon="14.2858467"><ele>83.83333333333333</ele><time>2026-04-25T07:48:49.382Z</time></trkpt><trkpt lat="40.8999567" lon="14.2858683"><ele>84.0</ele><time>2026-04-25T07:48:50.383Z</time></trkpt><trkpt lat="40.9000233" lon="14.2859"><ele>84.28571428571429</ele><time>2026-04-25T07:48:51.38Z</time></trkpt><trkpt lat="40.900095" lon="14.2859167"><ele>84.57142857142857</ele><time>2026-04-25T07:48:52.382Z</time></trkpt><trkpt lat="40.9001617" lon="14.2859433"><ele>84.85714285714286</ele><time>2026-04-25T07:48:53.382Z</time></trkpt><trkpt lat="40.9002283" lon="14.2859717"><ele>85.14285714285714</ele><time>2026-04-25T07:48:54.382Z</time></trkpt><trkpt lat="40.9002967" lon="14.2859917"><ele>85.42857142857143</ele><time>2026-04-25T07:48:55.381Z</time></trkpt><trkpt lat="40.9003683" lon="14.2860033"><ele>85.71428571428572</ele><time>2026-04-25T07:48:56.381Z</time></trkpt><trkpt lat="40.900435" lon="14.2860167"><ele>86.0</ele><time>2026-04-25T07:48:57.382Z</time></trkpt><trkpt lat="40.900505" lon="14.28603"><ele>86.00000000000001</ele><time>2026-04-25T07:48:58.381Z</time></trkpt><trkpt lat="40.900575" lon="14.28604"><ele>86.0</ele><time>2026-04-25T07:48:59.381Z</time></trkpt><trkpt lat="40.9006483" lon="14.28604"><ele>86.0</ele><time>2026-04-25T07:49:00.382Z</time></trkpt><trkpt lat="40.9007167" lon="14.2860433"><ele>86.0</ele><time>2026-04-25T07:49:01.381Z</time></trkpt><trkpt lat="40.900785" lon="14.28605"><ele>86.0</ele><time>2026-04-25T07:49:02.381Z</time></trkpt><trkpt lat="40.9008517" lon="14.2860517"><ele>86.00000000000001</ele><time>2026-04-25T07:49:03.381Z</time></trkpt><trkpt lat="40.90092" lon="14.286045"><ele>86.0</ele><time>2026-04-25T07:49:04.381Z</time></trkpt><trkpt lat="40.9009883" lon="14.286035"><ele>85.85714285714286</ele><time>2026-04-25T07:49:05.381Z</time></trkpt><trkpt lat="40.9010583" lon="14.28602"><ele>85.71428571428572</ele><time>2026-04-25T07:49:06.381Z</time></trkpt><trkpt lat="40.90113" lon="14.2860167"><ele>85.57142857142858</ele><time>2026-04-25T07:49:07.38Z</time></trkpt><trkpt lat="40.9012033" lon="14.2859983"><ele>85.42857142857143</ele><time>2026-04-25T07:49:08.381Z</time></trkpt><trkpt lat="40.9012717" lon="14.285975"><ele>85.28571428571428</ele><time>2026-04-25T07:49:09.381Z</time></trkpt><trkpt lat="40.901345" lon="14.2859517"><ele>85.14285714285715</ele><time>2026-04-25T07:49:10.381Z</time></trkpt><trkpt lat="40.90142" lon="14.2859233"><ele>85.0</ele><time>2026-04-25T07:49:11.382Z</time></trkpt><trkpt lat="40.9014967" lon="14.2858983"><ele>85.0</ele><time>2026-04-25T07:49:12.381Z</time></trkpt><trkpt lat="40.9015717" lon="14.2858767"><ele>85.0</ele><time>2026-04-25T07:49:13.382Z</time></trkpt><trkpt lat="40.9016467" lon="14.2858567"><ele>85.0</ele><time>2026-04-25T07:49:14.382Z</time></trkpt><trkpt lat="40.9017217" lon="14.2858283"><ele>85.0</ele><time>2026-04-25T07:49:15.382Z</time></trkpt><trkpt lat="40.9017983" lon="14.285825"><ele>85.0</ele><time>2026-04-25T07:49:16.39Z</time></trkpt><trkpt lat="40.9018733" lon="14.2857983"><ele>85.0</ele><time>2026-04-25T07:49:17.381Z</time></trkpt><trkpt lat="40.901955" lon="14.2857717"><ele>85.16666666666666</ele><time>2026-04-25T07:49:18.381Z</time></trkpt><trkpt lat="40.90204" lon="14.2857617"><ele>85.33333333333333</ele><time>2026-04-25T07:49:19.381Z</time></trkpt><trkpt lat="40.9021133" lon="14.2857383"><ele>85.5</ele><time>2026-04-25T07:49:20.381Z</time></trkpt><trkpt lat="40.9021833" lon="14.2857067"><ele>85.66666666666667</ele><time>2026-04-25T07:49:21.382Z</time></trkpt><trkpt lat="40.9022617" lon="14.28568"><ele>85.83333333333334</ele><time>2026-04-25T07:49:22.382Z</time></trkpt><trkpt lat="40.902335" lon="14.2856483"><ele>86.0</ele><time>2026-04-25T07:49:23.383Z</time></trkpt><trkpt lat="40.9024017" lon="14.285625"><ele>86.00000000000001</ele><time>2026-04-25T07:49:24.381Z</time></trkpt><trkpt lat="40.902465" lon="14.285605"><ele>86.0</ele><time>2026-04-25T07:49:25.381Z</time></trkpt><trkpt lat="40.9025317" lon="14.28558"><ele>86.0</ele><time>2026-04-25T07:49:26.382Z</time></trkpt><trkpt lat="40.9026033" lon="14.28556"><ele>86.0</ele><time>2026-04-25T07:49:27.381Z</time></trkpt><trkpt lat="40.9026767" lon="14.28554"><ele>86.0</ele><time>2026-04-25T07:49:28.38Z</time></trkpt><trkpt lat="40.90275" lon="14.2855233"><ele>86.00000000000001</ele><time>2026-04-25T07:49:29.381Z</time></trkpt><trkpt lat="40.90282" lon="14.2855033"><ele>86.0</ele><time>2026-04-25T07:49:30.382Z</time></trkpt><trkpt lat="40.9028867" lon="14.2854783"><ele>85.71428571428572</ele><time>2026-04-25T07:49:31.381Z</time></trkpt><trkpt lat="40.9029517" lon="14.2854583"><ele>85.42857142857143</ele><time>2026-04-25T07:49:32.384Z</time></trkpt><trkpt lat="40.903015" lon="14.2854367"><ele>85.14285714285714</ele><time>2026-04-25T07:49:33.381Z</time></trkpt><trkpt lat="40.9030817" lon="14.2854167"><ele>84.85714285714286</ele><time>2026-04-25T07:49:34.383Z</time></trkpt><trkpt lat="40.9031483" lon="14.2853917"><ele>84.57142857142857</ele><time>2026-04-25T07:49:35.38Z</time></trkpt><trkpt lat="40.9032167" lon="14.2853617"><ele>84.28571428571429</ele><time>2026-04-25T07:49:36.382Z</time></trkpt><trkpt lat="40.903295" lon="14.28534"><ele>84.0</ele><time>2026-04-25T07:49:37.381Z</time></trkpt><trkpt lat="40.9033683" lon="14.2853183"><ele>83.33333333333333</ele><time>2026-04-25T07:49:38.382Z</time></trkpt><trkpt lat="40.903445" lon="14.2852933"><ele>82.66666666666667</ele><time>2026-04-25T07:49:39.382Z</time></trkpt><trkpt lat="40.9035217" lon="14.2852717"><ele>82.0</ele><time>2026-04-25T07:49:40.381Z</time></trkpt><trkpt lat="40.9035983" lon="14.2852417"><ele>81.33333333333334</ele><time>2026-04-25T07:49:41.381Z</time></trkpt><trkpt lat="40.9036717" lon="14.2852167"><ele>80.66666666666667</ele><time>2026-04-25T07:49:42.381Z</time></trkpt><trkpt lat="40.903745" lon="14.285195"><ele>80.0</ele><time>2026-04-25T07:49:43.38Z</time></trkpt><trkpt lat="40.90382" lon="14.2851733"><ele>80.0</ele><time>2026-04-25T07:49:44.382Z</time></trkpt><trkpt lat="40.9038933" lon="14.2851517"><ele>80.0</ele><time>2026-04-25T07:49:45.38Z</time></trkpt><trkpt lat="40.9039667" lon="14.2851333"><ele>80.0</ele><time>2026-04-25T07:49:46.381Z</time></trkpt><trkpt lat="40.9040483" lon="14.28511"><ele>80.0</ele><time>2026-04-25T07:49:47.381Z</time></trkpt><trkpt lat="40.9041233" lon="14.28509"><ele>80.0</ele><time>2026-04-25T07:49:48.381Z</time></trkpt><trkpt lat="40.90422" lon="14.28506"><ele>80.0</ele><time>2026-04-25T07:49:49.381Z</time></trkpt><trkpt lat="40.9042933" lon="14.28503"><ele>79.85714285714286</ele><time>2026-04-25T07:49:50.381Z</time></trkpt><trkpt lat="40.9043717" lon="14.2850033"><ele>79.71428571428572</ele><time>2026-04-25T07:49:51.381Z</time></trkpt><trkpt lat="40.9044483" lon="14.2849783"><ele>79.57142857142858</ele><time>2026-04-25T07:49:52.381Z</time></trkpt><trkpt lat="40.90452" lon="14.2849683"><ele>79.42857142857143</ele><time>2026-04-25T07:49:53.381Z</time></trkpt><trkpt lat="40.9045867" lon="14.2849567"><ele>79.28571428571429</ele><time>2026-04-25T07:49:54.38Z</time></trkpt><trkpt lat="40.90466" lon="14.28494"><ele>79.14285714285715</ele><time>2026-04-25T07:49:55.381Z</time></trkpt><trkpt lat="40.9047267" lon="14.2849183"><ele>79.0</ele><time>2026-04-25T07:49:56.382Z</time></trkpt><trkpt lat="40.9047917" lon="14.2848967"><ele>79.00000000000001</ele><time>2026-04-25T07:49:57.382Z</time></trkpt><trkpt lat="40.904855" lon="14.2848733"><ele>79.0</ele><time>2026-04-25T07:49:58.382Z</time></trkpt><trkpt lat="40.90492" lon="14.2848517"><ele>79.0</ele><time>2026-04-25T07:49:59.382Z</time></trkpt><trkpt lat="40.9049883" lon="14.284825"><ele>79.0</ele><time>2026-04-25T07:50:00.382Z</time></trkpt><trkpt lat="40.90506" lon="14.2848067"><ele>79.0</ele><time>2026-04-25T07:50:01.381Z</time></trkpt><trkpt lat="40.9051283" lon="14.2847817"><ele>79.00000000000001</ele><time>2026-04-25T07:50:02.38Z</time></trkpt><trkpt lat="40.9052" lon="14.28476"><ele>79.0</ele><time>2026-04-25T07:50:03.382Z</time></trkpt><trkpt lat="40.90527" lon="14.2847383"><ele>79.0</ele><time>2026-04-25T07:50:04.381Z</time></trkpt><trkpt lat="40.9053417" lon="14.2847133"><ele>79.0</ele><time>2026-04-25T07:50:05.381Z</time></trkpt><trkpt lat="40.9054117" lon="14.2846883"><ele>79.0</ele><time>2026-04-25T07:50:06.382Z</time></trkpt><trkpt lat="40.9054917" lon="14.2846767"><ele>79.0</ele><time>2026-04-25T07:50:07.381Z</time></trkpt><trkpt lat="40.9055767" lon="14.2846633"><ele>79.0</ele><time>2026-04-25T07:50:08.38Z</time></trkpt><trkpt lat="40.9056567" lon="14.2846567"><ele>79.0</ele><time>2026-04-25T07:50:09.381Z</time></trkpt><trkpt lat="40.9057317" lon="14.2846567"><ele>79.0</ele><time>2026-04-25T07:50:10.382Z</time></trkpt><trkpt lat="40.9058133" lon="14.284665"><ele>79.0</ele><time>2026-04-25T07:50:11.382Z</time></trkpt><trkpt lat="40.90589" lon="14.2846667"><ele>79.0</ele><time>2026-04-25T07:50:12.382Z</time></trkpt><trkpt lat="40.9059667" lon="14.2846667"><ele>79.0</ele><time>2026-04-25T07:50:13.381Z</time></trkpt><trkpt lat="40.9060383" lon="14.2846767"><ele>79.0</ele><time>2026-04-25T07:50:14.39Z</time></trkpt><trkpt lat="40.906115" lon="14.28469"><ele>79.0</ele><time>2026-04-25T07:50:15.382Z</time></trkpt><trkpt lat="40.90619" lon="14.2847083"><ele>78.83333333333333</ele><time>2026-04-25T07:50:16.381Z</time></trkpt><trkpt lat="40.9062633" lon="14.2847267"><ele>78.66666666666666</ele><time>2026-04-25T07:50:17.38Z</time></trkpt><trkpt lat="40.90634" lon="14.2847583"><ele>78.5</ele><time>2026-04-25T07:50:18.381Z</time></trkpt><trkpt lat="40.9064167" lon="14.2847867"><ele>78.33333333333333</ele><time>2026-04-25T07:50:19.381Z</time></trkpt><trkpt lat="40.9064917" lon="14.284815"><ele>78.16666666666667</ele><time>2026-04-25T07:50:20.382Z</time></trkpt><trkpt lat="40.9065683" lon="14.2848517"><ele>78.0</ele><time>2026-04-25T07:50:21.383Z</time></trkpt><trkpt lat="40.90664" lon="14.2848967"><ele>78.0</ele><time>2026-04-25T07:50:22.381Z</time></trkpt><trkpt lat="40.9067183" lon="14.2849417"><ele>78.0</ele><time>2026-04-25T07:50:23.381Z</time></trkpt><trkpt lat="40.9067883" lon="14.285"><ele>78.0</ele><time>2026-04-25T07:50:24.381Z</time></trkpt><trkpt lat="40.906855" lon="14.2850583"><ele>78.0</ele><time>2026-04-25T07:50:25.38Z</time></trkpt><trkpt lat="40.90692" lon="14.2851167"><ele>78.0</ele><time>2026-04-25T07:50:26.384Z</time></trkpt><trkpt lat="40.90699" lon="14.2851733"><ele>78.0</ele><time>2026-04-25T07:50:27.382Z</time></trkpt><trkpt lat="40.9070583" lon="14.285235"><ele>77.33333333333333</ele><time>2026-04-25T07:50:28.381Z</time></trkpt><trkpt lat="40.9071267" lon="14.2853"><ele>76.66666666666667</ele><time>2026-04-25T07:50:29.381Z</time></trkpt><trkpt lat="40.9071967" lon="14.2853583"><ele>76.0</ele><time>2026-04-25T07:50:30.381Z</time></trkpt><trkpt lat="40.9072683" lon="14.2854133"><ele>75.33333333333334</ele><time>2026-04-25T07:50:31.383Z</time></trkpt><trkpt lat="40.9073383" lon="14.2854683"><ele>74.66666666666667</ele><time>2026-04-25T07:50:32.381Z</time></trkpt><trkpt lat="40.907405" lon="14.28553"><ele>74.0</ele><time>2026-04-25T07:50:33.384Z</time></trkpt><trkpt lat="40.9074733" lon="14.2855867"><ele>73.66666666666667</ele><time>2026-04-25T07:50:34.38Z</time></trkpt><trkpt lat="40.9075383" lon="14.28564"><ele>73.33333333333334</ele><time>2026-04-25T07:50:35.38Z</time></trkpt><trkpt lat="40.9076067" lon="14.2856917"><ele>73.0</ele><time>2026-04-25T07:50:36.382Z</time></trkpt><trkpt lat="40.9076783" lon="14.2857483"><ele>72.66666666666667</ele><time>2026-04-25T07:50:37.383Z</time></trkpt><trkpt lat="40.9077517" lon="14.2858067"><ele>72.33333333333333</ele><time>2026-04-25T07:50:38.382Z</time></trkpt><trkpt lat="40.907825" lon="14.2858667"><ele>72.0</ele><time>2026-04-25T07:50:39.381Z</time></trkpt><trkpt lat="40.9079017" lon="14.2859333"><ele>71.4</ele><time>2026-04-25T07:50:40.38Z</time></trkpt><trkpt lat="40.9079767" lon="14.2859983"><ele>70.80000000000001</ele><time>2026-04-25T07:50:41.381Z</time></trkpt><trkpt lat="40.90805" lon="14.2860617"><ele>70.2</ele><time>2026-04-25T07:50:42.382Z</time></trkpt><trkpt lat="40.9081267" lon="14.286125"><ele>69.60000000000001</ele><time>2026-04-25T07:50:43.385Z</time></trkpt><trkpt lat="40.9082067" lon="14.2861883"><ele>69.0</ele><time>2026-04-25T07:50:44.382Z</time></trkpt><trkpt lat="40.908285" lon="14.2862533"><ele>69.0</ele><time>2026-04-25T07:50:45.384Z</time></trkpt><trkpt lat="40.9083633" lon="14.2863167"><ele>69.0</ele><time>2026-04-25T07:50:46.385Z</time></trkpt><trkpt lat="40.9084417" lon="14.2863833"><ele>69.0</ele><time>2026-04-25T07:50:47.381Z</time></trkpt><trkpt lat="40.9085217" lon="14.2864533"><ele>69.0</ele><time>2026-04-25T07:50:48.381Z</time></trkpt><trkpt lat="40.9085983" lon="14.2865233"><ele>69.0</ele><time>2026-04-25T07:50:49.384Z</time></trkpt><trkpt lat="40.9086733" lon="14.286595"><ele>69.2</ele><time>2026-04-25T07:50:50.381Z</time></trkpt><trkpt lat="40.90875" lon="14.2866667"><ele>69.4</ele><time>2026-04-25T07:50:51.383Z</time></trkpt><trkpt lat="40.9088283" lon="14.2867333"><ele>69.6</ele><time>2026-04-25T07:50:52.38Z</time></trkpt><trkpt lat="40.9089083" lon="14.2867983"><ele>69.8</ele><time>2026-04-25T07:50:53.382Z</time></trkpt><trkpt lat="40.90899" lon="14.286865"><ele>70.0</ele><time>2026-04-25T07:50:54.381Z</time></trkpt><trkpt lat="40.90907" lon="14.2869333"><ele>70.0</ele><time>2026-04-25T07:50:55.382Z</time></trkpt><trkpt lat="40.9091533" lon="14.2870067"><ele>70.0</ele><time>2026-04-25T07:50:56.38Z</time></trkpt><trkpt lat="40.909235" lon="14.2870783"><ele>70.0</ele><time>2026-04-25T07:50:57.382Z</time></trkpt><trkpt lat="40.90932" lon="14.287145"><ele>70.0</ele><time>2026-04-25T07:50:58.382Z</time></trkpt><trkpt lat="40.9094033" lon="14.287205"><ele>70.0</ele><time>2026-04-25T07:50:59.383Z</time></trkpt><trkpt lat="40.9094867" lon="14.287265"><ele>69.6</ele><time>2026-04-25T07:51:00.382Z</time></trkpt><trkpt lat="40.9095683" lon="14.2873283"><ele>69.2</ele><time>2026-04-25T07:51:01.382Z</time></trkpt><trkpt lat="40.90965" lon="14.2873983"><ele>68.8</ele><time>2026-04-25T07:51:02.382Z</time></trkpt><trkpt lat="40.9097333" lon="14.2874683"><ele>68.4</ele><time>2026-04-25T07:51:03.381Z</time></trkpt><trkpt lat="40.909815" lon="14.2875367"><ele>68.0</ele><time>2026-04-25T07:51:04.382Z</time></trkpt><trkpt lat="40.9098967" lon="14.2876067"><ele>68.0</ele><time>2026-04-25T07:51:05.382Z</time></trkpt><trkpt lat="40.9099783" lon="14.2876717"><ele>68.0</ele><time>2026-04-25T07:51:06.383Z</time></trkpt><trkpt lat="40.9100583" lon="14.2877383"><ele>68.0</ele><time>2026-04-25T07:51:07.381Z</time></trkpt><trkpt lat="40.9101333" lon="14.287805"><ele>68.0</ele><time>2026-04-25T07:51:08.381Z</time></trkpt><trkpt lat="40.9102083" lon="14.2878717"><ele>68.0</ele><time>2026-04-25T07:51:09.382Z</time></trkpt><trkpt lat="40.9102833" lon="14.2879333"><ele>67.4</ele><time>2026-04-25T07:51:10.383Z</time></trkpt><trkpt lat="40.9103583" lon="14.2879983"><ele>66.8</ele><time>2026-04-25T07:51:11.382Z</time></trkpt><trkpt lat="40.910435" lon="14.28807"><ele>66.2</ele><time>2026-04-25T07:51:12.381Z</time></trkpt><trkpt lat="40.9105167" lon="14.2881383"><ele>65.6</ele><time>2026-04-25T07:51:13.381Z</time></trkpt><trkpt lat="40.910595" lon="14.2882117"><ele>65.0</ele><time>2026-04-25T07:51:14.381Z</time></trkpt><trkpt lat="40.910675" lon="14.2882767"><ele>65.0</ele><time>2026-04-25T07:51:15.381Z</time></trkpt><trkpt lat="40.9107583" lon="14.2883383"><ele>65.0</ele><time>2026-04-25T07:51:16.382Z</time></trkpt><trkpt lat="40.9108417" lon="14.2884033"><ele>65.0</ele><time>2026-04-25T07:51:17.383Z</time></trkpt><trkpt lat="40.9109233" lon="14.2884633"><ele>65.0</ele><time>2026-04-25T07:51:18.382Z</time></trkpt><trkpt lat="40.911005" lon="14.288525"><ele>65.0</ele><time>2026-04-25T07:51:19.381Z</time></trkpt><trkpt lat="40.9110833" lon="14.28859"><ele>65.2</ele><time>2026-04-25T07:51:20.382Z</time></trkpt><trkpt lat="40.9111667" lon="14.2886583"><ele>65.4</ele><time>2026-04-25T07:51:21.381Z</time></trkpt><trkpt lat="40.9112517" lon="14.2887267"><ele>65.6</ele><time>2026-04-25T07:51:22.381Z</time></trkpt><trkpt lat="40.9113367" lon="14.2887917"><ele>65.8</ele><time>2026-04-25T07:51:23.381Z</time></trkpt><trkpt lat="40.91142" lon="14.2888617"><ele>66.0</ele><time>2026-04-25T07:51:24.381Z</time></trkpt><trkpt lat="40.911505" lon="14.2889317"><ele>66.0</ele><time>2026-04-25T07:51:25.38Z</time></trkpt><trkpt lat="40.9115867" lon="14.289"><ele>66.0</ele><time>2026-04-25T07:51:26.382Z</time></trkpt><trkpt lat="40.91167" lon="14.2890683"><ele>66.0</ele><time>2026-04-25T07:51:27.382Z</time></trkpt><trkpt lat="40.9117533" lon="14.289135"><ele>66.0</ele><time>2026-04-25T07:51:28.381Z</time></trkpt><trkpt lat="40.9118367" lon="14.289205"><ele>66.0</ele><time>2026-04-25T07:51:29.382Z</time></trkpt><trkpt lat="40.9119183" lon="14.2892717"><ele>65.39999999999999</ele><time>2026-04-25T07:51:30.381Z</time></trkpt><trkpt lat="40.9119983" lon="14.2893433"><ele>64.8</ele><time>2026-04-25T07:51:31.382Z</time></trkpt><trkpt lat="40.91208" lon="14.2894117"><ele>64.19999999999999</ele><time>2026-04-25T07:51:32.382Z</time></trkpt><trkpt lat="40.9121567" lon="14.2894833"><ele>63.599999999999994</ele><time>2026-04-25T07:51:33.38Z</time></trkpt><trkpt lat="40.9122367" lon="14.2895483"><ele>63.0</ele><time>2026-04-25T07:51:34.381Z</time></trkpt><trkpt lat="40.91232" lon="14.2896067"><ele>63.0</ele><time>2026-04-25T07:51:35.381Z</time></trkpt><trkpt lat="40.9123967" lon="14.2896817"><ele>63.0</ele><time>2026-04-25T07:51:36.382Z</time></trkpt><trkpt lat="40.9124733" lon="14.289745"><ele>63.0</ele><time>2026-04-25T07:51:37.382Z</time></trkpt><trkpt lat="40.9125467" lon="14.2898067"><ele>63.0</ele><time>2026-04-25T07:51:38.381Z</time></trkpt><trkpt lat="40.9126217" lon="14.2898717"><ele>63.0</ele><time>2026-04-25T07:51:39.381Z</time></trkpt><trkpt lat="40.9127" lon="14.2899333"><ele>63.0</ele><time>2026-04-25T07:51:40.381Z</time></trkpt><trkpt lat="40.912775" lon="14.2900067"><ele>63.0</ele><time>2026-04-25T07:51:41.384Z</time></trkpt><trkpt lat="40.912855" lon="14.2900633"><ele>63.0</ele><time>2026-04-25T07:51:42.382Z</time></trkpt><trkpt lat="40.912935" lon="14.2901183"><ele>63.0</ele><time>2026-04-25T07:51:43.382Z</time></trkpt><trkpt lat="40.9130183" lon="14.2901717"><ele>63.0</ele><time>2026-04-25T07:51:44.382Z</time></trkpt><trkpt lat="40.913105" lon="14.29022"><ele>63.0</ele><time>2026-04-25T07:51:45.38Z</time></trkpt><trkpt lat="40.9131917" lon="14.2902683"><ele>63.0</ele><time>2026-04-25T07:51:46.381Z</time></trkpt><trkpt lat="40.913275" lon="14.2903133"><ele>63.0</ele><time>2026-04-25T07:51:47.391Z</time></trkpt><trkpt lat="40.9133567" lon="14.2903633"><ele>63.0</ele><time>2026-04-25T07:51:48.382Z</time></trkpt><trkpt lat="40.9134383" lon="14.2904067"><ele>63.0</ele><time>2026-04-25T07:51:49.381Z</time></trkpt><trkpt lat="40.9135233" lon="14.290445"><ele>62.833333333333336</ele><time>2026-04-25T07:51:50.383Z</time></trkpt><trkpt lat="40.91361" lon="14.290475"><ele>62.66666666666667</ele><time>2026-04-25T07:51:51.382Z</time></trkpt><trkpt lat="40.9136933" lon="14.2905067"><ele>62.5</ele><time>2026-04-25T07:51:52.381Z</time></trkpt><trkpt lat="40.9137767" lon="14.2905333"><ele>62.333333333333336</ele><time>2026-04-25T07:51:53.383Z</time></trkpt><trkpt lat="40.9138633" lon="14.2905617"><ele>62.16666666666667</ele><time>2026-04-25T07:51:54.382Z</time></trkpt><trkpt lat="40.9139483" lon="14.2905867"><ele>62.0</ele><time>2026-04-25T07:51:55.382Z</time></trkpt><trkpt lat="40.914035" lon="14.2906067"><ele>61.50000000000001</ele><time>2026-04-25T07:51:56.382Z</time></trkpt><trkpt lat="40.9141217" lon="14.2906267"><ele>61.0</ele><time>2026-04-25T07:51:57.382Z</time></trkpt><trkpt lat="40.9142067" lon="14.2906417"><ele>60.5</ele><time>2026-04-25T07:51:58.382Z</time></trkpt><trkpt lat="40.91429" lon="14.2906567"><ele>60.0</ele><time>2026-04-25T07:51:59.382Z</time></trkpt><trkpt lat="40.9143767" lon="14.2906683"><ele>59.50000000000001</ele><time>2026-04-25T07:52:00.383Z</time></trkpt><trkpt lat="40.9144667" lon="14.290675"><ele>59.0</ele><time>2026-04-25T07:52:01.381Z</time></trkpt><trkpt lat="40.914555" lon="14.29067"><ele>59.00000000000001</ele><time>2026-04-25T07:52:02.382Z</time></trkpt><trkpt lat="40.9146417" lon="14.2906667"><ele>59.0</ele><time>2026-04-25T07:52:03.381Z</time></trkpt><trkpt lat="40.9147267" lon="14.290665"><ele>59.0</ele><time>2026-04-25T07:52:04.381Z</time></trkpt><trkpt lat="40.9148133" lon="14.2906567"><ele>59.0</ele><time>2026-04-25T07:52:05.383Z</time></trkpt><trkpt lat="40.9149" lon="14.29065"><ele>59.00000000000001</ele><time>2026-04-25T07:52:06.382Z</time></trkpt><trkpt lat="40.9149883" lon="14.2906517"><ele>59.0</ele><time>2026-04-25T07:52:07.381Z</time></trkpt><trkpt lat="40.9150767" lon="14.2906467"><ele>59.00000000000001</ele><time>2026-04-25T07:52:08.381Z</time></trkpt><trkpt lat="40.9151667" lon="14.2906383"><ele>59.0</ele><time>2026-04-25T07:52:09.384Z</time></trkpt><trkpt lat="40.9152533" lon="14.2906267"><ele>59.0</ele><time>2026-04-25T07:52:10.38Z</time></trkpt><trkpt lat="40.9153417" lon="14.2906167"><ele>59.0</ele><time>2026-04-25T07:52:11.382Z</time></trkpt><trkpt lat="40.9154283" lon="14.2906117"><ele>59.00000000000001</ele><time>2026-04-25T07:52:12.381Z</time></trkpt><trkpt lat="40.9155167" lon="14.290605"><ele>59.0</ele><time>2026-04-25T07:52:13.382Z</time></trkpt><trkpt lat="40.915605" lon="14.2906017"><ele>59.00000000000001</ele><time>2026-04-25T07:52:14.382Z</time></trkpt><trkpt lat="40.9156917" lon="14.2906083"><ele>59.0</ele><time>2026-04-25T07:52:15.381Z</time></trkpt><trkpt lat="40.9157783" lon="14.2906183"><ele>59.0</ele><time>2026-04-25T07:52:16.382Z</time></trkpt><trkpt lat="40.915865" lon="14.2906283"><ele>59.0</ele><time>2026-04-25T07:52:17.382Z</time></trkpt><trkpt lat="40.91595" lon="14.2906417"><ele>59.00000000000001</ele><time>2026-04-25T07:52:18.382Z</time></trkpt><trkpt lat="40.916035" lon="14.2906583"><ele>59.0</ele><time>2026-04-25T07:52:19.382Z</time></trkpt><trkpt lat="40.9161183" lon="14.290685"><ele>58.66666666666667</ele><time>2026-04-25T07:52:20.381Z</time></trkpt><trkpt lat="40.9161983" lon="14.2907217"><ele>58.333333333333336</ele><time>2026-04-25T07:52:21.383Z</time></trkpt><trkpt lat="40.9162767" lon="14.2907617"><ele>58.0</ele><time>2026-04-25T07:52:22.382Z</time></trkpt><trkpt lat="40.9163533" lon="14.290805"><ele>57.66666666666667</ele><time>2026-04-25T07:52:23.385Z</time></trkpt><trkpt lat="40.9164267" lon="14.29085"><ele>57.333333333333336</ele><time>2026-04-25T07:52:24.381Z</time></trkpt><trkpt lat="40.9165017" lon="14.2908933"><ele>57.0</ele><time>2026-04-25T07:52:25.382Z</time></trkpt><trkpt lat="40.9165733" lon="14.2909317"><ele>57.0</ele><time>2026-04-25T07:52:26.38Z</time></trkpt><trkpt lat="40.91664" lon="14.2909733"><ele>56.99999999999999</ele><time>2026-04-25T07:52:27.381Z</time></trkpt><trkpt lat="40.91671" lon="14.291015"><ele>57.0</ele><time>2026-04-25T07:52:28.381Z</time></trkpt><trkpt lat="40.91678" lon="14.291055"><ele>57.0</ele><time>2026-04-25T07:52:29.381Z</time></trkpt><trkpt lat="40.9168483" lon="14.2910917"><ele>56.99999999999999</ele><time>2026-04-25T07:52:30.381Z</time></trkpt><trkpt lat="40.916915" lon="14.2911283"><ele>57.0</ele><time>2026-04-25T07:52:31.381Z</time></trkpt><trkpt lat="40.9169783" lon="14.291165"><ele>57.0</ele><time>2026-04-25T07:52:32.381Z</time></trkpt><trkpt lat="40.917045" lon="14.2912033"><ele>57.0</ele><time>2026-04-25T07:52:33.381Z</time></trkpt><trkpt lat="40.9171117" lon="14.2912417"><ele>57.0</ele><time>2026-04-25T07:52:34.381Z</time></trkpt><trkpt lat="40.917175" lon="14.2912833"><ele>57.0</ele><time>2026-04-25T07:52:35.381Z</time></trkpt><trkpt lat="40.9172383" lon="14.29132"><ele>57.0</ele><time>2026-04-25T07:52:36.382Z</time></trkpt><trkpt lat="40.9173433" lon="14.2914067"><ele>57.0</ele><time>2026-04-25T07:52:38.383Z</time></trkpt><trkpt lat="40.9174033" lon="14.2914467"><ele>57.0</ele><time>2026-04-25T07:52:39.382Z</time></trkpt><trkpt lat="40.9174633" lon="14.2914867"><ele>57.0</ele><time>2026-04-25T07:52:40.384Z</time></trkpt><trkpt lat="40.91752" lon="14.2915317"><ele>56.99999999999999</ele><time>2026-04-25T07:52:41.384Z</time></trkpt><trkpt lat="40.91758" lon="14.291575"><ele>57.0</ele><time>2026-04-25T07:52:42.382Z</time></trkpt><trkpt lat="40.9176433" lon="14.2916167"><ele>57.0</ele><time>2026-04-25T07:52:43.382Z</time></trkpt><trkpt lat="40.9177083" lon="14.2916517"><ele>56.99999999999999</ele><time>2026-04-25T07:52:44.386Z</time></trkpt><trkpt lat="40.9177767" lon="14.2916933"><ele>57.0</ele><time>2026-04-25T07:52:45.382Z</time></trkpt><trkpt lat="40.9178467" lon="14.2917333"><ele>57.0</ele><time>2026-04-25T07:52:46.382Z</time></trkpt><trkpt lat="40.9179167" lon="14.29178"><ele>56.666666666666664</ele><time>2026-04-25T07:52:47.382Z</time></trkpt><trkpt lat="40.9179883" lon="14.2918167"><ele>56.33333333333333</ele><time>2026-04-25T07:52:48.381Z</time></trkpt><trkpt lat="40.9180633" lon="14.2918533"><ele>56.0</ele><time>2026-04-25T07:52:49.38Z</time></trkpt><trkpt lat="40.91814" lon="14.2918867"><ele>55.666666666666664</ele><time>2026-04-25T07:52:50.381Z</time></trkpt><trkpt lat="40.9182133" lon="14.29192"><ele>55.33333333333333</ele><time>2026-04-25T07:52:51.38Z</time></trkpt><trkpt lat="40.9182867" lon="14.291955"><ele>55.0</ele><time>2026-04-25T07:52:52.381Z</time></trkpt><trkpt lat="40.9183583" lon="14.29199"><ele>54.99999999999999</ele><time>2026-04-25T07:52:53.382Z</time></trkpt><trkpt lat="40.91843" lon="14.2920183"><ele>55.0</ele><time>2026-04-25T07:52:54.382Z</time></trkpt><trkpt lat="40.918505" lon="14.2920483"><ele>55.0</ele><time>2026-04-25T07:52:55.382Z</time></trkpt><trkpt lat="40.9185783" lon="14.2920717"><ele>55.0</ele><time>2026-04-25T07:52:56.382Z</time></trkpt><trkpt lat="40.9186533" lon="14.2920817"><ele>54.99999999999999</ele><time>2026-04-25T07:52:57.381Z</time></trkpt><trkpt lat="40.9187283" lon="14.292095"><ele>55.0</ele><time>2026-04-25T07:52:58.38Z</time></trkpt><trkpt lat="40.9187967" lon="14.292115"><ele>54.99999999999999</ele><time>2026-04-25T07:52:59.381Z</time></trkpt><trkpt lat="40.918865" lon="14.2921383"><ele>55.0</ele><time>2026-04-25T07:53:00.382Z</time></trkpt><trkpt lat="40.9189317" lon="14.29217"><ele>55.0</ele><time>2026-04-25T07:53:01.381Z</time></trkpt><trkpt lat="40.9189967" lon="14.2922117"><ele>55.0</ele><time>2026-04-25T07:53:02.381Z</time></trkpt><trkpt lat="40.9190667" lon="14.2922583"><ele>55.0</ele><time>2026-04-25T07:53:03.382Z</time></trkpt><trkpt lat="40.9191367" lon="14.2922933"><ele>54.99999999999999</ele><time>2026-04-25T07:53:04.382Z</time></trkpt><trkpt lat="40.9192133" lon="14.2923233"><ele>55.0</ele><time>2026-04-25T07:53:05.381Z</time></trkpt><trkpt lat="40.9192917" lon="14.292365"><ele>54.666666666666664</ele><time>2026-04-25T07:53:06.382Z</time></trkpt><trkpt lat="40.9193717" lon="14.2924083"><ele>54.33333333333333</ele><time>2026-04-25T07:53:07.382Z</time></trkpt><trkpt lat="40.9194483" lon="14.292455"><ele>54.0</ele><time>2026-04-25T07:53:08.381Z</time></trkpt><trkpt lat="40.9195217" lon="14.2925133"><ele>53.66666666666667</ele><time>2026-04-25T07:53:09.383Z</time></trkpt><trkpt lat="40.919595" lon="14.2925767"><ele>53.333333333333336</ele><time>2026-04-25T07:53:10.383Z</time></trkpt><trkpt lat="40.9196633" lon="14.2926433"><ele>53.0</ele><time>2026-04-25T07:53:11.385Z</time></trkpt><trkpt lat="40.9197333" lon="14.292715"><ele>53.00000000000001</ele><time>2026-04-25T07:53:12.383Z</time></trkpt><trkpt lat="40.9198033" lon="14.2927817"><ele>53.0</ele><time>2026-04-25T07:53:13.384Z</time></trkpt><trkpt lat="40.9198683" lon="14.29286"><ele>53.0</ele><time>2026-04-25T07:53:14.384Z</time></trkpt><trkpt lat="40.9199283" lon="14.2929383"><ele>53.0</ele><time>2026-04-25T07:53:15.383Z</time></trkpt><trkpt lat="40.9199717" lon="14.2930267"><ele>53.00000000000001</ele><time>2026-04-25T07:53:16.382Z</time></trkpt><trkpt lat="40.9200017" lon="14.2931233"><ele>53.0</ele><time>2026-04-25T07:53:17.383Z</time></trkpt><trkpt lat="40.92003" lon="14.2932283"><ele>53.00000000000001</ele><time>2026-04-25T07:53:18.383Z</time></trkpt><trkpt lat="40.920065" lon="14.2933217"><ele>53.0</ele><time>2026-04-25T07:53:19.384Z</time></trkpt><trkpt lat="40.920115" lon="14.293395"><ele>53.0</ele><time>2026-04-25T07:53:20.384Z</time></trkpt><trkpt lat="40.920185" lon="14.2934283"><ele>53.0</ele><time>2026-04-25T07:53:21.384Z</time></trkpt><trkpt lat="40.9202633" lon="14.29344"><ele>53.00000000000001</ele><time>2026-04-25T07:53:22.383Z</time></trkpt><trkpt lat="40.9203417" lon="14.29345"><ele>53.0</ele><time>2026-04-25T07:53:23.386Z</time></trkpt><trkpt lat="40.92042" lon="14.293475"><ele>53.00000000000001</ele><time>2026-04-25T07:53:24.383Z</time></trkpt><trkpt lat="40.9204967" lon="14.2935133"><ele>53.0</ele><time>2026-04-25T07:53:25.383Z</time></trkpt><trkpt lat="40.92057" lon="14.293565"><ele>53.0</ele><time>2026-04-25T07:53:26.383Z</time></trkpt><trkpt lat="40.9206417" lon="14.293625"><ele>53.0</ele><time>2026-04-25T07:53:27.383Z</time></trkpt><trkpt lat="40.9207183" lon="14.2936883"><ele>53.00000000000001</ele><time>2026-04-25T07:53:28.383Z</time></trkpt><trkpt lat="40.9207983" lon="14.293745"><ele>53.0</ele><time>2026-04-25T07:53:29.383Z</time></trkpt><trkpt lat="40.9208817" lon="14.2937967"><ele>52.8</ele><time>2026-04-25T07:53:30.384Z</time></trkpt><trkpt lat="40.92097" lon="14.29384"><ele>52.599999999999994</ele><time>2026-04-25T07:53:31.389Z</time></trkpt><trkpt lat="40.9210583" lon="14.2938767"><ele>52.400000000000006</ele><time>2026-04-25T07:53:32.384Z</time></trkpt><trkpt lat="40.9211483" lon="14.2939133"><ele>52.2</ele><time>2026-04-25T07:53:33.382Z</time></trkpt><trkpt lat="40.921235" lon="14.293955"><ele>52.0</ele><time>2026-04-25T07:53:34.384Z</time></trkpt><trkpt lat="40.9213217" lon="14.2939917"><ele>52.0</ele><time>2026-04-25T07:53:35.384Z</time></trkpt><trkpt lat="40.9214083" lon="14.2940267"><ele>52.0</ele><time>2026-04-25T07:53:36.383Z</time></trkpt><trkpt lat="40.9214967" lon="14.2940633"><ele>52.0</ele><time>2026-04-25T07:53:37.383Z</time></trkpt><trkpt lat="40.9215867" lon="14.294105"><ele>52.0</ele><time>2026-04-25T07:53:38.383Z</time></trkpt><trkpt lat="40.9216767" lon="14.2941467"><ele>52.0</ele><time>2026-04-25T07:53:39.384Z</time></trkpt><trkpt lat="40.9217683" lon="14.2941917"><ele>51.8</ele><time>2026-04-25T07:53:40.381Z</time></trkpt><trkpt lat="40.9218583" lon="14.2942317"><ele>51.6</ele><time>2026-04-25T07:53:41.385Z</time></trkpt><trkpt lat="40.9219483" lon="14.294275"><ele>51.4</ele><time>2026-04-25T07:53:42.384Z</time></trkpt><trkpt lat="40.9220417" lon="14.2943183"><ele>51.199999999999996</ele><time>2026-04-25T07:53:43.384Z</time></trkpt><trkpt lat="40.9221367" lon="14.2943567"><ele>51.0</ele><time>2026-04-25T07:53:44.383Z</time></trkpt><trkpt lat="40.9222267" lon="14.2943917"><ele>51.0</ele><time>2026-04-25T07:53:45.384Z</time></trkpt><trkpt lat="40.92232" lon="14.2944283"><ele>51.0</ele><time>2026-04-25T07:53:46.384Z</time></trkpt><trkpt lat="40.92241" lon="14.294465"><ele>51.0</ele><time>2026-04-25T07:53:47.382Z</time></trkpt><trkpt lat="40.9225017" lon="14.2945083"><ele>51.0</ele><time>2026-04-25T07:53:48.383Z</time></trkpt><trkpt lat="40.92259" lon="14.2945617"><ele>51.0</ele><time>2026-04-25T07:53:49.385Z</time></trkpt><trkpt lat="40.92267" lon="14.2946283"><ele>51.0</ele><time>2026-04-25T07:53:50.381Z</time></trkpt><trkpt lat="40.9227433" lon="14.29471"><ele>51.0</ele><time>2026-04-25T07:53:51.383Z</time></trkpt><trkpt lat="40.92281" lon="14.2948033"><ele>51.0</ele><time>2026-04-25T07:53:52.382Z</time></trkpt><trkpt lat="40.9228733" lon="14.2949067"><ele>51.0</ele><time>2026-04-25T07:53:53.383Z</time></trkpt><trkpt lat="40.9229317" lon="14.2950117"><ele>51.0</ele><time>2026-04-25T07:53:54.383Z</time></trkpt><trkpt lat="40.9229917" lon="14.2951183"><ele>50.8</ele><time>2026-04-25T07:53:55.384Z</time></trkpt><trkpt lat="40.9230517" lon="14.29522"><ele>50.599999999999994</ele><time>2026-04-25T07:53:56.384Z</time></trkpt><trkpt lat="40.9231117" lon="14.2953183"><ele>50.4</ele><time>2026-04-25T07:53:57.382Z</time></trkpt><trkpt lat="40.9231733" lon="14.2954183"><ele>50.2</ele><time>2026-04-25T07:53:58.383Z</time></trkpt><trkpt lat="40.9232367" lon="14.2955233"><ele>50.0</ele><time>2026-04-25T07:53:59.384Z</time></trkpt><trkpt lat="40.9232983" lon="14.2956283"><ele>49.6</ele><time>2026-04-25T07:54:00.383Z</time></trkpt><trkpt lat="40.92336" lon="14.2957317"><ele>49.2</ele><time>2026-04-25T07:54:01.383Z</time></trkpt><trkpt lat="40.92342" lon="14.2958417"><ele>48.8</ele><time>2026-04-25T07:54:02.383Z</time></trkpt><trkpt lat="40.9234867" lon="14.2959517"><ele>48.4</ele><time>2026-04-25T07:54:03.384Z</time></trkpt><trkpt lat="40.9235517" lon="14.2960633"><ele>48.0</ele><time>2026-04-25T07:54:04.383Z</time></trkpt><trkpt lat="40.9236117" lon="14.2961683"><ele>47.8</ele><time>2026-04-25T07:54:05.384Z</time></trkpt><trkpt lat="40.92367" lon="14.2962683"><ele>47.599999999999994</ele><time>2026-04-25T07:54:06.384Z</time></trkpt><trkpt lat="40.923725" lon="14.296365"><ele>47.400000000000006</ele><time>2026-04-25T07:54:07.383Z</time></trkpt><trkpt lat="40.92378" lon="14.296465"><ele>47.2</ele><time>2026-04-25T07:54:08.384Z</time></trkpt><trkpt lat="40.9238383" lon="14.2965633"><ele>47.0</ele><time>2026-04-25T07:54:09.381Z</time></trkpt><trkpt lat="40.9238933" lon="14.29666"><ele>47.0</ele><time>2026-04-25T07:54:10.383Z</time></trkpt><trkpt lat="40.9239467" lon="14.2967567"><ele>47.0</ele><time>2026-04-25T07:54:11.384Z</time></trkpt><trkpt lat="40.924" lon="14.296855"><ele>47.0</ele><time>2026-04-25T07:54:12.384Z</time></trkpt><trkpt lat="40.9240567" lon="14.2969483"><ele>47.0</ele><time>2026-04-25T07:54:13.383Z</time></trkpt><trkpt lat="40.9241117" lon="14.2970433"><ele>47.0</ele><time>2026-04-25T07:54:14.383Z</time></trkpt><trkpt lat="40.924165" lon="14.2971383"><ele>47.0</ele><time>2026-04-25T07:54:15.384Z</time></trkpt><trkpt lat="40.92422" lon="14.297235"><ele>47.0</ele><time>2026-04-25T07:54:16.383Z</time></trkpt><trkpt lat="40.9242767" lon="14.29733"><ele>47.0</ele><time>2026-04-25T07:54:17.384Z</time></trkpt><trkpt lat="40.9243333" lon="14.2974283"><ele>47.0</ele><time>2026-04-25T07:54:18.383Z</time></trkpt><trkpt lat="40.9243867" lon="14.29753"><ele>47.0</ele><time>2026-04-25T07:54:19.383Z</time></trkpt><trkpt lat="40.924445" lon="14.297625"><ele>46.83333333333333</ele><time>2026-04-25T07:54:20.385Z</time></trkpt><trkpt lat="40.9245" lon="14.2977167"><ele>46.666666666666664</ele><time>2026-04-25T07:54:21.383Z</time></trkpt><trkpt lat="40.92456" lon="14.2978033"><ele>46.5</ele><time>2026-04-25T07:54:22.384Z</time></trkpt><trkpt lat="40.9246217" lon="14.297885"><ele>46.333333333333336</ele><time>2026-04-25T07:54:23.383Z</time></trkpt><trkpt lat="40.9246833" lon="14.297965"><ele>46.16666666666667</ele><time>2026-04-25T07:54:24.386Z</time></trkpt><trkpt lat="40.9247383" lon="14.2980467"><ele>46.0</ele><time>2026-04-25T07:54:25.384Z</time></trkpt><trkpt lat="40.9247967" lon="14.29813"><ele>46.0</ele><time>2026-04-25T07:54:26.384Z</time></trkpt><trkpt lat="40.9248617" lon="14.29821"><ele>46.0</ele><time>2026-04-25T07:54:27.384Z</time></trkpt><trkpt lat="40.9249283" lon="14.2982867"><ele>46.0</ele><time>2026-04-25T07:54:28.383Z</time></trkpt><trkpt lat="40.9249967" lon="14.29835"><ele>46.0</ele><time>2026-04-25T07:54:29.384Z</time></trkpt><trkpt lat="40.925065" lon="14.2984167"><ele>46.0</ele><time>2026-04-25T07:54:30.382Z</time></trkpt><trkpt lat="40.9251367" lon="14.2984717"><ele>46.0</ele><time>2026-04-25T07:54:31.384Z</time></trkpt><trkpt lat="40.9252167" lon="14.2985167"><ele>46.199999999999996</ele><time>2026-04-25T07:54:32.383Z</time></trkpt><trkpt lat="40.9253017" lon="14.2985583"><ele>46.4</ele><time>2026-04-25T07:54:33.385Z</time></trkpt><trkpt lat="40.9253883" lon="14.29859"><ele>46.6</ele><time>2026-04-25T07:54:34.383Z</time></trkpt><trkpt lat="40.9254767" lon="14.2986183"><ele>46.8</ele><time>2026-04-25T07:54:35.385Z</time></trkpt><trkpt lat="40.925565" lon="14.29864"><ele>47.0</ele><time>2026-04-25T07:54:36.384Z</time></trkpt><trkpt lat="40.9256533" lon="14.29866"><ele>47.0</ele><time>2026-04-25T07:54:37.382Z</time></trkpt><trkpt lat="40.92574" lon="14.2986783"><ele>47.0</ele><time>2026-04-25T07:54:38.384Z</time></trkpt><trkpt lat="40.925825" lon="14.298695"><ele>47.0</ele><time>2026-04-25T07:54:39.383Z</time></trkpt><trkpt lat="40.92591" lon="14.29871"><ele>47.0</ele><time>2026-04-25T07:54:40.383Z</time></trkpt><trkpt lat="40.9259933" lon="14.2987117"><ele>47.0</ele><time>2026-04-25T07:54:41.388Z</time></trkpt><trkpt lat="40.926075" lon="14.29871"><ele>47.0</ele><time>2026-04-25T07:54:42.385Z</time></trkpt><trkpt lat="40.92616" lon="14.2986983"><ele>46.666666666666664</ele><time>2026-04-25T07:54:43.386Z</time></trkpt><trkpt lat="40.9262433" lon="14.2986883"><ele>46.33333333333333</ele><time>2026-04-25T07:54:44.384Z</time></trkpt><trkpt lat="40.9263267" lon="14.2986733"><ele>46.0</ele><time>2026-04-25T07:54:45.384Z</time></trkpt><trkpt lat="40.9264083" lon="14.2986583"><ele>45.666666666666664</ele><time>2026-04-25T07:54:46.383Z</time></trkpt><trkpt lat="40.9264917" lon="14.2986467"><ele>45.333333333333336</ele><time>2026-04-25T07:54:47.384Z</time></trkpt><trkpt lat="40.9265783" lon="14.2986417"><ele>45.0</ele><time>2026-04-25T07:54:48.384Z</time></trkpt><trkpt lat="40.9266667" lon="14.2986367"><ele>44.666666666666664</ele><time>2026-04-25T07:54:49.384Z</time></trkpt><trkpt lat="40.9267567" lon="14.29864"><ele>44.333333333333336</ele><time>2026-04-25T07:54:50.383Z</time></trkpt><trkpt lat="40.9268467" lon="14.2986467"><ele>44.0</ele><time>2026-04-25T07:54:51.383Z</time></trkpt><trkpt lat="40.9269333" lon="14.2986467"><ele>43.66666666666667</ele><time>2026-04-25T07:54:52.384Z</time></trkpt><trkpt lat="40.927015" lon="14.2986483"><ele>43.333333333333336</ele><time>2026-04-25T07:54:53.384Z</time></trkpt><trkpt lat="40.9270933" lon="14.298655"><ele>43.0</ele><time>2026-04-25T07:54:54.384Z</time></trkpt><trkpt lat="40.92717" lon="14.298665"><ele>43.0</ele><time>2026-04-25T07:54:55.383Z</time></trkpt><trkpt lat="40.9272467" lon="14.2986717"><ele>43.0</ele><time>2026-04-25T07:54:56.39Z</time></trkpt><trkpt lat="40.9273267" lon="14.2986717"><ele>43.0</ele><time>2026-04-25T07:54:57.383Z</time></trkpt><trkpt lat="40.9274067" lon="14.2986583"><ele>43.0</ele><time>2026-04-25T07:54:58.386Z</time></trkpt><trkpt lat="40.927485" lon="14.2986367"><ele>43.0</ele><time>2026-04-25T07:54:59.384Z</time></trkpt><trkpt lat="40.927565" lon="14.298605"><ele>43.0</ele><time>2026-04-25T07:55:00.385Z</time></trkpt><trkpt lat="40.9276467" lon="14.29858"><ele>43.0</ele><time>2026-04-25T07:55:01.385Z</time></trkpt><trkpt lat="40.927725" lon="14.298555"><ele>43.0</ele><time>2026-04-25T07:55:02.384Z</time></trkpt><trkpt lat="40.927805" lon="14.2985317"><ele>43.0</ele><time>2026-04-25T07:55:03.384Z</time></trkpt><trkpt lat="40.9278767" lon="14.29851"><ele>43.0</ele><time>2026-04-25T07:55:04.384Z</time></trkpt><trkpt lat="40.9279767" lon="14.2984933"><ele>43.0</ele><time>2026-04-25T07:55:06.387Z</time></trkpt><trkpt lat="40.9280533" lon="14.2984917"><ele>43.0</ele><time>2026-04-25T07:55:08.384Z</time></trkpt><trkpt lat="40.92816" lon="14.2984867"><ele>43.0</ele><time>2026-04-25T07:55:10.381Z</time></trkpt><trkpt lat="40.928295" lon="14.2984783"><ele>43.0</ele><time>2026-04-25T07:55:12.383Z</time></trkpt><trkpt lat="40.92837" lon="14.29847"><ele>43.0</ele><time>2026-04-25T07:55:13.384Z</time></trkpt><trkpt lat="40.9284483" lon="14.29846"><ele>43.0</ele><time>2026-04-25T07:55:14.383Z</time></trkpt><trkpt lat="40.9285283" lon="14.2984533"><ele>43.0</ele><time>2026-04-25T07:55:15.385Z</time></trkpt><trkpt lat="40.9286083" lon="14.2984433"><ele>42.833333333333336</ele><time>2026-04-25T07:55:16.384Z</time></trkpt><trkpt lat="40.9286883" lon="14.2984333"><ele>42.66666666666667</ele><time>2026-04-25T07:55:17.388Z</time></trkpt><trkpt lat="40.9287683" lon="14.2984217"><ele>42.5</ele><time>2026-04-25T07:55:18.384Z</time></trkpt><trkpt lat="40.9288517" lon="14.2984083"><ele>42.333333333333336</ele><time>2026-04-25T07:55:19.384Z</time></trkpt><trkpt lat="40.928935" lon="14.2984017"><ele>42.166666666666664</ele><time>2026-04-25T07:55:20.384Z</time></trkpt><trkpt lat="40.9290183" lon="14.2983967"><ele>42.0</ele><time>2026-04-25T07:55:21.383Z</time></trkpt><trkpt lat="40.9291033" lon="14.2983867"><ele>42.0</ele><time>2026-04-25T07:55:22.383Z</time></trkpt><trkpt lat="40.9291867" lon="14.2983733"><ele>42.0</ele><time>2026-04-25T07:55:23.383Z</time></trkpt><trkpt lat="40.9292717" lon="14.2983583"><ele>42.0</ele><time>2026-04-25T07:55:24.385Z</time></trkpt><trkpt lat="40.9293583" lon="14.298345"><ele>42.0</ele><time>2026-04-25T07:55:25.383Z</time></trkpt><trkpt lat="40.9294467" lon="14.2983333"><ele>42.0</ele><time>2026-04-25T07:55:26.385Z</time></trkpt><trkpt lat="40.9295333" lon="14.2983217"><ele>42.0</ele><time>2026-04-25T07:55:27.384Z</time></trkpt><trkpt lat="40.92962" lon="14.2983133"><ele>42.0</ele><time>2026-04-25T07:55:28.384Z</time></trkpt><trkpt lat="40.9297067" lon="14.29831"><ele>42.0</ele><time>2026-04-25T07:55:29.384Z</time></trkpt><trkpt lat="40.92979" lon="14.2983217"><ele>42.0</ele><time>2026-04-25T07:55:30.384Z</time></trkpt><trkpt lat="40.9298717" lon="14.2983517"><ele>42.0</ele><time>2026-04-25T07:55:31.383Z</time></trkpt><trkpt lat="40.92995" lon="14.2984017"><ele>42.0</ele><time>2026-04-25T07:55:32.383Z</time></trkpt><trkpt lat="40.9300233" lon="14.2984717"><ele>42.0</ele><time>2026-04-25T07:55:33.384Z</time></trkpt><trkpt lat="40.9300917" lon="14.2985517"><ele>42.0</ele><time>2026-04-25T07:55:34.382Z</time></trkpt><trkpt lat="40.9301567" lon="14.2986417"><ele>42.0</ele><time>2026-04-25T07:55:35.383Z</time></trkpt><trkpt lat="40.9302217" lon="14.2987317"><ele>42.0</ele><time>2026-04-25T07:55:36.384Z</time></trkpt><trkpt lat="40.930285" lon="14.2988183"><ele>42.0</ele><time>2026-04-25T07:55:37.384Z</time></trkpt><trkpt lat="40.9303483" lon="14.2989033"><ele>42.0</ele><time>2026-04-25T07:55:38.385Z</time></trkpt><trkpt lat="40.9304083" lon="14.2989883"><ele>41.666666666666664</ele><time>2026-04-25T07:55:39.384Z</time></trkpt><trkpt lat="40.9304683" lon="14.2990667"><ele>41.333333333333336</ele><time>2026-04-25T07:55:40.383Z</time></trkpt><trkpt lat="40.93053" lon="14.2991517"><ele>41.0</ele><time>2026-04-25T07:55:41.384Z</time></trkpt><trkpt lat="40.93059" lon="14.2992283"><ele>40.66666666666667</ele><time>2026-04-25T07:55:42.383Z</time></trkpt><trkpt lat="40.9306467" lon="14.2993033"><ele>40.333333333333336</ele><time>2026-04-25T07:55:43.382Z</time></trkpt><trkpt lat="40.930705" lon="14.29938"><ele>40.0</ele><time>2026-04-25T07:55:44.383Z</time></trkpt><trkpt lat="40.9307633" lon="14.2994683"><ele>40.0</ele><time>2026-04-25T07:55:45.382Z</time></trkpt><trkpt lat="40.9308233" lon="14.2995633"><ele>40.0</ele><time>2026-04-25T07:55:46.382Z</time></trkpt><trkpt lat="40.9308867" lon="14.29966"><ele>40.0</ele><time>2026-04-25T07:55:47.383Z</time></trkpt><trkpt lat="40.9309483" lon="14.299755"><ele>40.0</ele><time>2026-04-25T07:55:48.384Z</time></trkpt><trkpt lat="40.93101" lon="14.2998417"><ele>40.0</ele><time>2026-04-25T07:55:49.383Z</time></trkpt><trkpt lat="40.931075" lon="14.2999367"><ele>40.0</ele><time>2026-04-25T07:55:50.383Z</time></trkpt><trkpt lat="40.9311433" lon="14.30003"><ele>40.0</ele><time>2026-04-25T07:55:51.382Z</time></trkpt><trkpt lat="40.9312083" lon="14.30012"><ele>40.0</ele><time>2026-04-25T07:55:52.381Z</time></trkpt><trkpt lat="40.931275" lon="14.300215"><ele>40.0</ele><time>2026-04-25T07:55:53.383Z</time></trkpt><trkpt lat="40.93134" lon="14.3003067"><ele>40.0</ele><time>2026-04-25T07:55:54.383Z</time></trkpt><trkpt lat="40.9314033" lon="14.3004017"><ele>40.0</ele><time>2026-04-25T07:55:55.382Z</time></trkpt><trkpt lat="40.931465" lon="14.3004883"><ele>40.0</ele><time>2026-04-25T07:55:56.382Z</time></trkpt><trkpt lat="40.9315283" lon="14.3005767"><ele>40.0</ele><time>2026-04-25T07:55:57.384Z</time></trkpt><trkpt lat="40.9315917" lon="14.3006633"><ele>40.0</ele><time>2026-04-25T07:55:58.383Z</time></trkpt><trkpt lat="40.9316517" lon="14.3007517"><ele>40.0</ele><time>2026-04-25T07:55:59.383Z</time></trkpt><trkpt lat="40.9317083" lon="14.3008383"><ele>40.0</ele><time>2026-04-25T07:56:00.383Z</time></trkpt><trkpt lat="40.9317667" lon="14.300915"><ele>40.0</ele><time>2026-04-25T07:56:01.384Z</time></trkpt><trkpt lat="40.9318267" lon="14.3009817"><ele>40.0</ele><time>2026-04-25T07:56:02.384Z</time></trkpt><trkpt lat="40.93189" lon="14.3010433"><ele>40.0</ele><time>2026-04-25T07:56:03.384Z</time></trkpt><trkpt lat="40.93196" lon="14.3010967"><ele>40.0</ele><time>2026-04-25T07:56:04.384Z</time></trkpt><trkpt lat="40.932035" lon="14.3011417"><ele>40.0</ele><time>2026-04-25T07:56:05.382Z</time></trkpt><trkpt lat="40.9321117" lon="14.3011733"><ele>40.0</ele><time>2026-04-25T07:56:06.383Z</time></trkpt><trkpt lat="40.9321933" lon="14.3011967"><ele>40.0</ele><time>2026-04-25T07:56:07.382Z</time></trkpt><trkpt lat="40.93228" lon="14.3012117"><ele>40.0</ele><time>2026-04-25T07:56:08.384Z</time></trkpt><trkpt lat="40.93237" lon="14.3012133"><ele>40.0</ele><time>2026-04-25T07:56:09.383Z</time></trkpt><trkpt lat="40.9324633" lon="14.301225"><ele>40.0</ele><time>2026-04-25T07:56:10.383Z</time></trkpt><trkpt lat="40.932555" lon="14.3012217"><ele>40.0</ele><time>2026-04-25T07:56:11.384Z</time></trkpt><trkpt lat="40.9326467" lon="14.301215"><ele>39.833333333333336</ele><time>2026-04-25T07:56:12.383Z</time></trkpt><trkpt lat="40.932735" lon="14.30121"><ele>39.66666666666667</ele><time>2026-04-25T07:56:13.383Z</time></trkpt><trkpt lat="40.93282" lon="14.3012083"><ele>39.5</ele><time>2026-04-25T07:56:14.383Z</time></trkpt><trkpt lat="40.9329017" lon="14.3012117"><ele>39.333333333333336</ele><time>2026-04-25T07:56:15.384Z</time></trkpt><trkpt lat="40.932985" lon="14.30122"><ele>39.166666666666664</ele><time>2026-04-25T07:56:16.384Z</time></trkpt><trkpt lat="40.9330667" lon="14.301225"><ele>39.0</ele><time>2026-04-25T07:56:17.383Z</time></trkpt><trkpt lat="40.9331433" lon="14.3012233"><ele>39.0</ele><time>2026-04-25T07:56:18.383Z</time></trkpt><trkpt lat="40.93322" lon="14.3012217"><ele>39.0</ele><time>2026-04-25T07:56:19.384Z</time></trkpt><trkpt lat="40.9332983" lon="14.301225"><ele>39.0</ele><time>2026-04-25T07:56:20.384Z</time></trkpt><trkpt lat="40.9333833" lon="14.3012383"><ele>39.0</ele><time>2026-04-25T07:56:21.384Z</time></trkpt><trkpt lat="40.933465" lon="14.30126"><ele>39.0</ele><time>2026-04-25T07:56:22.383Z</time></trkpt><trkpt lat="40.9335467" lon="14.3012917"><ele>39.0</ele><time>2026-04-25T07:56:23.384Z</time></trkpt><trkpt lat="40.9336217" lon="14.301335"><ele>38.833333333333336</ele><time>2026-04-25T07:56:24.384Z</time></trkpt><trkpt lat="40.9336917" lon="14.3013917"><ele>38.666666666666664</ele><time>2026-04-25T07:56:25.383Z</time></trkpt><trkpt lat="40.9337633" lon="14.3014483"><ele>38.5</ele><time>2026-04-25T07:56:26.383Z</time></trkpt><trkpt lat="40.933835" lon="14.30149"><ele>38.33333333333333</ele><time>2026-04-25T07:56:27.383Z</time></trkpt><trkpt lat="40.9339083" lon="14.3015083"><ele>38.166666666666664</ele><time>2026-04-25T07:56:28.383Z</time></trkpt><trkpt lat="40.9339767" lon="14.3015033"><ele>38.0</ele><time>2026-04-25T07:56:29.382Z</time></trkpt><trkpt lat="40.9340267" lon="14.3014417"><ele>38.166666666666664</ele><time>2026-04-25T07:56:30.383Z</time></trkpt><trkpt lat="40.93409" lon="14.3013583"><ele>38.33333333333333</ele><time>2026-04-25T07:56:31.385Z</time></trkpt><trkpt lat="40.934155" lon="14.3013117"><ele>38.5</ele><time>2026-04-25T07:56:32.383Z</time></trkpt><trkpt lat="40.9342217" lon="14.3012817"><ele>38.666666666666664</ele><time>2026-04-25T07:56:33.384Z</time></trkpt><trkpt lat="40.9342983" lon="14.3012733"><ele>38.833333333333336</ele><time>2026-04-25T07:56:34.384Z</time></trkpt><trkpt lat="40.9343767" lon="14.3012733"><ele>39.0</ele><time>2026-04-25T07:56:35.384Z</time></trkpt><trkpt lat="40.93446" lon="14.301285"><ele>39.0</ele><time>2026-04-25T07:56:36.385Z</time></trkpt><trkpt lat="40.9345417" lon="14.3012933"><ele>39.0</ele><time>2026-04-25T07:56:37.384Z</time></trkpt><trkpt lat="40.9346267" lon="14.3012867"><ele>39.0</ele><time>2026-04-25T07:56:38.384Z</time></trkpt><trkpt lat="40.934705" lon="14.3012733"><ele>39.0</ele><time>2026-04-25T07:56:39.383Z</time></trkpt><trkpt lat="40.9347883" lon="14.30126"><ele>39.0</ele><time>2026-04-25T07:56:40.384Z</time></trkpt><trkpt lat="40.9348733" lon="14.301255"><ele>39.0</ele><time>2026-04-25T07:56:41.384Z</time></trkpt><trkpt lat="40.9349633" lon="14.3012533"><ele>38.6</ele><time>2026-04-25T07:56:42.384Z</time></trkpt><trkpt lat="40.9350583" lon="14.3012517"><ele>38.2</ele><time>2026-04-25T07:56:43.384Z</time></trkpt><trkpt lat="40.9351533" lon="14.301255"><ele>37.800000000000004</ele><time>2026-04-25T07:56:44.383Z</time></trkpt><trkpt lat="40.9352483" lon="14.3012533"><ele>37.4</ele><time>2026-04-25T07:56:45.384Z</time></trkpt><trkpt lat="40.93534" lon="14.30126"><ele>37.0</ele><time>2026-04-25T07:56:46.384Z</time></trkpt><trkpt lat="40.93543" lon="14.3012633"><ele>37.0</ele><time>2026-04-25T07:56:47.383Z</time></trkpt><trkpt lat="40.9355217" lon="14.3012683"><ele>37.0</ele><time>2026-04-25T07:56:48.384Z</time></trkpt><trkpt lat="40.9356117" lon="14.3012683"><ele>37.0</ele><time>2026-04-25T07:56:49.383Z</time></trkpt><trkpt lat="40.9357017" lon="14.3012583"><ele>37.0</ele><time>2026-04-25T07:56:50.383Z</time></trkpt><trkpt lat="40.93579" lon="14.3012467"><ele>37.0</ele><time>2026-04-25T07:56:51.382Z</time></trkpt><trkpt lat="40.9358733" lon="14.3012383"><ele>37.0</ele><time>2026-04-25T07:56:52.384Z</time></trkpt><trkpt lat="40.9359533" lon="14.3012283"><ele>37.0</ele><time>2026-04-25T07:56:53.384Z</time></trkpt><trkpt lat="40.9360317" lon="14.301215"><ele>37.0</ele><time>2026-04-25T07:56:54.384Z</time></trkpt><trkpt lat="40.9361117" lon="14.3011967"><ele>37.0</ele><time>2026-04-25T07:56:55.383Z</time></trkpt><trkpt lat="40.9361933" lon="14.301185"><ele>37.0</ele><time>2026-04-25T07:56:56.383Z</time></trkpt><trkpt lat="40.936275" lon="14.30117"><ele>37.0</ele><time>2026-04-25T07:56:57.383Z</time></trkpt><trkpt lat="40.936355" lon="14.30115"><ele>37.0</ele><time>2026-04-25T07:56:58.383Z</time></trkpt><trkpt lat="40.9364367" lon="14.3011367"><ele>37.0</ele><time>2026-04-25T07:56:59.383Z</time></trkpt><trkpt lat="40.93652" lon="14.3011183"><ele>37.0</ele><time>2026-04-25T07:57:00.383Z</time></trkpt><trkpt lat="40.9366033" lon="14.301105"><ele>37.0</ele><time>2026-04-25T07:57:01.383Z</time></trkpt><trkpt lat="40.936685" lon="14.30109"><ele>37.0</ele><time>2026-04-25T07:57:02.383Z</time></trkpt><trkpt lat="40.9367683" lon="14.3010717"><ele>37.0</ele><time>2026-04-25T07:57:03.383Z</time></trkpt><trkpt lat="40.93685" lon="14.301055"><ele>37.0</ele><time>2026-04-25T07:57:04.383Z</time></trkpt><trkpt lat="40.9369283" lon="14.3010367"><ele>37.0</ele><time>2026-04-25T07:57:05.384Z</time></trkpt><trkpt lat="40.93701" lon="14.3010183"><ele>37.0</ele><time>2026-04-25T07:57:06.384Z</time></trkpt><trkpt lat="40.9370917" lon="14.301"><ele>37.0</ele><time>2026-04-25T07:57:07.385Z</time></trkpt><trkpt lat="40.9371717" lon="14.3009783"><ele>37.0</ele><time>2026-04-25T07:57:08.382Z</time></trkpt><trkpt lat="40.9372517" lon="14.3009533"><ele>37.0</ele><time>2026-04-25T07:57:09.384Z</time></trkpt><trkpt lat="40.93733" lon="14.300935"><ele>37.0</ele><time>2026-04-25T07:57:10.382Z</time></trkpt><trkpt lat="40.9374133" lon="14.30092"><ele>37.0</ele><time>2026-04-25T07:57:11.383Z</time></trkpt><trkpt lat="40.9374983" lon="14.3009083"><ele>37.0</ele><time>2026-04-25T07:57:12.382Z</time></trkpt><trkpt lat="40.9375833" lon="14.3008917"><ele>37.0</ele><time>2026-04-25T07:57:13.384Z</time></trkpt><trkpt lat="40.9376683" lon="14.3008733"><ele>37.0</ele><time>2026-04-25T07:57:14.385Z</time></trkpt><trkpt lat="40.9377567" lon="14.3008533"><ele>37.0</ele><time>2026-04-25T07:57:15.382Z</time></trkpt><trkpt lat="40.93785" lon="14.30083"><ele>37.0</ele><time>2026-04-25T07:57:16.383Z</time></trkpt><trkpt lat="40.9379433" lon="14.3008083"><ele>37.0</ele><time>2026-04-25T07:57:17.384Z</time></trkpt><trkpt lat="40.9380333" lon="14.3007783"><ele>37.0</ele><time>2026-04-25T07:57:18.382Z</time></trkpt><trkpt lat="40.9381233" lon="14.30074"><ele>37.0</ele><time>2026-04-25T07:57:19.384Z</time></trkpt><trkpt lat="40.9382117" lon="14.300695"><ele>37.0</ele><time>2026-04-25T07:57:20.382Z</time></trkpt><trkpt lat="40.9383" lon="14.3006467"><ele>37.0</ele><time>2026-04-25T07:57:21.383Z</time></trkpt><trkpt lat="40.9383867" lon="14.300595"><ele>37.0</ele><time>2026-04-25T07:57:22.383Z</time></trkpt><trkpt lat="40.9384717" lon="14.3005417"><ele>37.0</ele><time>2026-04-25T07:57:23.383Z</time></trkpt><trkpt lat="40.9385533" lon="14.3004883"><ele>37.0</ele><time>2026-04-25T07:57:24.383Z</time></trkpt><trkpt lat="40.938635" lon="14.3004417"><ele>37.0</ele><time>2026-04-25T07:57:25.385Z</time></trkpt><trkpt lat="40.9387183" lon="14.3003917"><ele>37.0</ele><time>2026-04-25T07:57:26.384Z</time></trkpt><trkpt lat="40.9388" lon="14.3003367"><ele>37.0</ele><time>2026-04-25T07:57:27.383Z</time></trkpt><trkpt lat="40.9388833" lon="14.3002883"><ele>37.0</ele><time>2026-04-25T07:57:28.382Z</time></trkpt><trkpt lat="40.93896" lon="14.3002333"><ele>37.0</ele><time>2026-04-25T07:57:29.383Z</time></trkpt><trkpt lat="40.93905" lon="14.300195"><ele>37.0</ele><time>2026-04-25T07:57:30.383Z</time></trkpt><trkpt lat="40.93913" lon="14.3001467"><ele>37.0</ele><time>2026-04-25T07:57:31.383Z</time></trkpt><trkpt lat="40.9392117" lon="14.300095"><ele>36.833333333333336</ele><time>2026-04-25T07:57:32.386Z</time></trkpt><trkpt lat="40.9392933" lon="14.3000467"><ele>36.66666666666667</ele><time>2026-04-25T07:57:33.383Z</time></trkpt><trkpt lat="40.93937" lon="14.299995"><ele>36.5</ele><time>2026-04-25T07:57:34.383Z</time></trkpt><trkpt lat="40.9394417" lon="14.299945"><ele>36.333333333333336</ele><time>2026-04-25T07:57:35.383Z</time></trkpt><trkpt lat="40.9395133" lon="14.2998933"><ele>36.166666666666664</ele><time>2026-04-25T07:57:36.383Z</time></trkpt><trkpt lat="40.9395933" lon="14.29985"><ele>36.0</ele><time>2026-04-25T07:57:37.384Z</time></trkpt><trkpt lat="40.9396733" lon="14.2998033"><ele>36.0</ele><time>2026-04-25T07:57:38.384Z</time></trkpt><trkpt lat="40.9397533" lon="14.2997583"><ele>36.0</ele><time>2026-04-25T07:57:39.384Z</time></trkpt><trkpt lat="40.9398333" lon="14.29971"><ele>36.0</ele><time>2026-04-25T07:57:40.384Z</time></trkpt><trkpt lat="40.9399133" lon="14.299665"><ele>36.0</ele><time>2026-04-25T07:57:41.384Z</time></trkpt><trkpt lat="40.9399933" lon="14.2996267"><ele>36.0</ele><time>2026-04-25T07:57:42.384Z</time></trkpt><trkpt lat="40.94007" lon="14.2995933"><ele>36.0</ele><time>2026-04-25T07:57:43.384Z</time></trkpt><trkpt lat="40.94015" lon="14.2995667"><ele>36.166666666666664</ele><time>2026-04-25T07:57:44.384Z</time></trkpt><trkpt lat="40.94023" lon="14.2995433"><ele>36.333333333333336</ele><time>2026-04-25T07:57:45.383Z</time></trkpt><trkpt lat="40.94031" lon="14.2995217"><ele>36.5</ele><time>2026-04-25T07:57:46.383Z</time></trkpt><trkpt lat="40.94039" lon="14.2994983"><ele>36.66666666666667</ele><time>2026-04-25T07:57:47.383Z</time></trkpt><trkpt lat="40.94047" lon="14.2994733"><ele>36.833333333333336</ele><time>2026-04-25T07:57:48.383Z</time></trkpt><trkpt lat="40.940545" lon="14.2994483"><ele>37.0</ele><time>2026-04-25T07:57:49.383Z</time></trkpt><trkpt lat="40.940615" lon="14.2994233"><ele>37.0</ele><time>2026-04-25T07:57:50.384Z</time></trkpt><trkpt lat="40.9406833" lon="14.2994"><ele>37.0</ele><time>2026-04-25T07:57:51.383Z</time></trkpt><trkpt lat="40.9407517" lon="14.299375"><ele>37.0</ele><time>2026-04-25T07:57:52.383Z</time></trkpt><trkpt lat="40.9408167" lon="14.2993483"><ele>37.0</ele><time>2026-04-25T07:57:53.383Z</time></trkpt><trkpt lat="40.94093" lon="14.2993033"><ele>37.0</ele><time>2026-04-25T07:57:55.382Z</time></trkpt><trkpt lat="40.9410383" lon="14.29927"><ele>37.0</ele><time>2026-04-25T07:57:57.383Z</time></trkpt><trkpt lat="40.9411683" lon="14.2992483"><ele>37.0</ele><time>2026-04-25T07:57:59.383Z</time></trkpt><trkpt lat="40.941235" lon="14.29924"><ele>37.0</ele><time>2026-04-25T07:58:00.383Z</time></trkpt><trkpt lat="40.9413" lon="14.2992283"><ele>37.0</ele><time>2026-04-25T07:58:01.383Z</time></trkpt><trkpt lat="40.9413633" lon="14.2992117"><ele>37.0</ele><time>2026-04-25T07:58:02.383Z</time></trkpt><trkpt lat="40.941485" lon="14.29918"><ele>37.0</ele><time>2026-04-25T07:58:04.383Z</time></trkpt><trkpt lat="40.94155" lon="14.2991667"><ele>37.0</ele><time>2026-04-25T07:58:05.383Z</time></trkpt><trkpt lat="40.9416167" lon="14.29915"><ele>37.0</ele><time>2026-04-25T07:58:06.384Z</time></trkpt><trkpt lat="40.9416867" lon="14.2991367"><ele>37.0</ele><time>2026-04-25T07:58:07.383Z</time></trkpt><trkpt lat="40.9417533" lon="14.2991183"><ele>37.0</ele><time>2026-04-25T07:58:08.385Z</time></trkpt><trkpt lat="40.9418217" lon="14.2991033"><ele>37.0</ele><time>2026-04-25T07:58:09.383Z</time></trkpt><trkpt lat="40.9418933" lon="14.2990917"><ele>37.0</ele><time>2026-04-25T07:58:10.384Z</time></trkpt><trkpt lat="40.94197" lon="14.299085"><ele>37.0</ele><time>2026-04-25T07:58:11.384Z</time></trkpt><trkpt lat="40.9420483" lon="14.2990817"><ele>37.0</ele><time>2026-04-25T07:58:12.389Z</time></trkpt><trkpt lat="40.942125" lon="14.2990783"><ele>36.833333333333336</ele><time>2026-04-25T07:58:13.383Z</time></trkpt><trkpt lat="40.942205" lon="14.2990683"><ele>36.66666666666667</ele><time>2026-04-25T07:58:14.381Z</time></trkpt><trkpt lat="40.9422833" lon="14.2990567"><ele>36.5</ele><time>2026-04-25T07:58:15.382Z</time></trkpt><trkpt lat="40.9423633" lon="14.299045"><ele>36.333333333333336</ele><time>2026-04-25T07:58:16.383Z</time></trkpt><trkpt lat="40.9424433" lon="14.2990367"><ele>36.166666666666664</ele><time>2026-04-25T07:58:17.382Z</time></trkpt><trkpt lat="40.9425283" lon="14.2990317"><ele>36.0</ele><time>2026-04-25T07:58:18.383Z</time></trkpt><trkpt lat="40.9426117" lon="14.2990217"><ele>35.666666666666664</ele><time>2026-04-25T07:58:19.381Z</time></trkpt><trkpt lat="40.9426967" lon="14.2990133"><ele>35.333333333333336</ele><time>2026-04-25T07:58:20.382Z</time></trkpt><trkpt lat="40.9427867" lon="14.299025"><ele>35.0</ele><time>2026-04-25T07:58:21.382Z</time></trkpt><trkpt lat="40.9428717" lon="14.2990283"><ele>34.66666666666667</ele><time>2026-04-25T07:58:22.382Z</time></trkpt><trkpt lat="40.9429567" lon="14.2990383"><ele>34.333333333333336</ele><time>2026-04-25T07:58:23.383Z</time></trkpt><trkpt lat="40.9430417" lon="14.2990433"><ele>34.0</ele><time>2026-04-25T07:58:24.387Z</time></trkpt><trkpt lat="40.9431267" lon="14.29905"><ele>34.0</ele><time>2026-04-25T07:58:25.383Z</time></trkpt><trkpt lat="40.9432117" lon="14.2990583"><ele>34.0</ele><time>2026-04-25T07:58:26.383Z</time></trkpt><trkpt lat="40.9433" lon="14.2990633"><ele>34.0</ele><time>2026-04-25T07:58:27.383Z</time></trkpt><trkpt lat="40.9433883" lon="14.2990667"><ele>34.0</ele><time>2026-04-25T07:58:28.383Z</time></trkpt><trkpt lat="40.9434767" lon="14.2990717"><ele>34.0</ele><time>2026-04-25T07:58:29.384Z</time></trkpt><trkpt lat="40.943565" lon="14.2990817"><ele>34.0</ele><time>2026-04-25T07:58:30.383Z</time></trkpt><trkpt lat="40.943655" lon="14.2990967"><ele>33.66666666666667</ele><time>2026-04-25T07:58:31.382Z</time></trkpt><trkpt lat="40.9437433" lon="14.2991067"><ele>33.333333333333336</ele><time>2026-04-25T07:58:32.383Z</time></trkpt><trkpt lat="40.94383" lon="14.2991167"><ele>33.0</ele><time>2026-04-25T07:58:33.384Z</time></trkpt><trkpt lat="40.9439117" lon="14.2991267"><ele>32.666666666666664</ele><time>2026-04-25T07:58:34.38Z</time></trkpt><trkpt lat="40.9439833" lon="14.2991317"><ele>32.33333333333333</ele><time>2026-04-25T07:58:35.38Z</time></trkpt><trkpt lat="40.94405" lon="14.29913"><ele>32.0</ele><time>2026-04-25T07:58:36.383Z</time></trkpt><trkpt lat="40.9441667" lon="14.2991533"><ele>32.166666666666664</ele><time>2026-04-25T07:58:38.38Z</time></trkpt><trkpt lat="40.94428" lon="14.2991967"><ele>32.33333333333333</ele><time>2026-04-25T07:58:40.381Z</time></trkpt><trkpt lat="40.9443367" lon="14.2992383"><ele>32.5</ele><time>2026-04-25T07:58:41.381Z</time></trkpt><trkpt lat="40.9443967" lon="14.29927"><ele>32.666666666666664</ele><time>2026-04-25T07:58:42.381Z</time></trkpt><trkpt lat="40.9444617" lon="14.29928"><ele>32.833333333333336</ele><time>2026-04-25T07:58:43.381Z</time></trkpt><trkpt lat="40.9445317" lon="14.29927"><ele>33.0</ele><time>2026-04-25T07:58:44.381Z</time></trkpt><trkpt lat="40.9446083" lon="14.2992567"><ele>33.0</ele><time>2026-04-25T07:58:45.381Z</time></trkpt><trkpt lat="40.9446883" lon="14.2992567"><ele>33.0</ele><time>2026-04-25T07:58:46.381Z</time></trkpt><trkpt lat="40.94477" lon="14.2992683"><ele>33.0</ele><time>2026-04-25T07:58:47.38Z</time></trkpt><trkpt lat="40.9448483" lon="14.2992883"><ele>33.0</ele><time>2026-04-25T07:58:48.384Z</time></trkpt><trkpt lat="40.944915" lon="14.2993067"><ele>33.0</ele><time>2026-04-25T07:58:49.381Z</time></trkpt><trkpt lat="40.94498" lon="14.2993183"><ele>33.0</ele><time>2026-04-25T07:58:50.382Z</time></trkpt><trkpt lat="40.9451" lon="14.2993383"><ele>33.0</ele><time>2026-04-25T07:58:52.381Z</time></trkpt><trkpt lat="40.9452283" lon="14.2993617"><ele>33.0</ele><time>2026-04-25T07:58:54.382Z</time></trkpt><trkpt lat="40.945295" lon="14.299375"><ele>33.0</ele><time>2026-04-25T07:58:55.381Z</time></trkpt><trkpt lat="40.9453617" lon="14.2993883"><ele>33.0</ele><time>2026-04-25T07:58:56.381Z</time></trkpt><trkpt lat="40.94543" lon="14.2993967"><ele>33.0</ele><time>2026-04-25T07:58:57.38Z</time></trkpt><trkpt lat="40.9454983" lon="14.299415"><ele>33.0</ele><time>2026-04-25T07:58:58.381Z</time></trkpt><trkpt lat="40.9455667" lon="14.29943"><ele>33.0</ele><time>2026-04-25T07:58:59.385Z</time></trkpt><trkpt lat="40.9456383" lon="14.2994417"><ele>33.0</ele><time>2026-04-25T07:59:00.382Z</time></trkpt><trkpt lat="40.9457133" lon="14.2994583"><ele>33.0</ele><time>2026-04-25T07:59:01.382Z</time></trkpt><trkpt lat="40.9457867" lon="14.2994733"><ele>33.0</ele><time>2026-04-25T07:59:02.381Z</time></trkpt><trkpt lat="40.94586" lon="14.29949"><ele>33.0</ele><time>2026-04-25T07:59:03.383Z</time></trkpt><trkpt lat="40.945935" lon="14.2995083"><ele>33.0</ele><time>2026-04-25T07:59:04.382Z</time></trkpt><trkpt lat="40.9460133" lon="14.29953"><ele>32.857142857142854</ele><time>2026-04-25T07:59:05.382Z</time></trkpt><trkpt lat="40.9460883" lon="14.29955"><ele>32.714285714285715</ele><time>2026-04-25T07:59:06.38Z</time></trkpt><trkpt lat="40.9461617" lon="14.2995633"><ele>32.57142857142857</ele><time>2026-04-25T07:59:07.381Z</time></trkpt><trkpt lat="40.94623" lon="14.29958"><ele>32.42857142857143</ele><time>2026-04-25T07:59:08.381Z</time></trkpt><trkpt lat="40.9462933" lon="14.2996017"><ele>32.285714285714285</ele><time>2026-04-25T07:59:09.387Z</time></trkpt><trkpt lat="40.946355" lon="14.2996217"><ele>32.14285714285714</ele><time>2026-04-25T07:59:10.381Z</time></trkpt><trkpt lat="40.946415" lon="14.2996533"><ele>32.0</ele><time>2026-04-25T07:59:11.383Z</time></trkpt><trkpt lat="40.9464683" lon="14.299705"><ele>31.999999999999996</ele><time>2026-04-25T07:59:12.38Z</time></trkpt><trkpt lat="40.9465117" lon="14.2997767"><ele>32.0</ele><time>2026-04-25T07:59:13.382Z</time></trkpt><trkpt lat="40.946545" lon="14.2998617"><ele>32.0</ele><time>2026-04-25T07:59:14.382Z</time></trkpt><trkpt lat="40.9465783" lon="14.2999533"><ele>32.0</ele><time>2026-04-25T07:59:15.382Z</time></trkpt><trkpt lat="40.9466117" lon="14.3000533"><ele>31.999999999999996</ele><time>2026-04-25T07:59:16.38Z</time></trkpt><trkpt lat="40.9466417" lon="14.30015"><ele>32.0</ele><time>2026-04-25T07:59:17.381Z</time></trkpt><trkpt lat="40.9466783" lon="14.3002433"><ele>31.833333333333332</ele><time>2026-04-25T07:59:18.381Z</time></trkpt><trkpt lat="40.946715" lon="14.3003383"><ele>31.666666666666664</ele><time>2026-04-25T07:59:19.382Z</time></trkpt><trkpt lat="40.9467533" lon="14.3004367"><ele>31.5</ele><time>2026-04-25T07:59:20.381Z</time></trkpt><trkpt lat="40.9467917" lon="14.300535"><ele>31.333333333333336</ele><time>2026-04-25T07:59:21.381Z</time></trkpt><trkpt lat="40.946825" lon="14.300645"><ele>31.166666666666668</ele><time>2026-04-25T07:59:22.38Z</time></trkpt><trkpt lat="40.94686" lon="14.300745"><ele>31.0</ele><time>2026-04-25T07:59:23.382Z</time></trkpt><trkpt lat="40.946895" lon="14.3008533"><ele>31.000000000000004</ele><time>2026-04-25T07:59:24.383Z</time></trkpt><trkpt lat="40.94693" lon="14.30096"><ele>31.0</ele><time>2026-04-25T07:59:25.381Z</time></trkpt><trkpt lat="40.946965" lon="14.3010633"><ele>31.0</ele><time>2026-04-25T07:59:26.381Z</time></trkpt><trkpt lat="40.9470033" lon="14.301165"><ele>31.0</ele><time>2026-04-25T07:59:27.38Z</time></trkpt><trkpt lat="40.9470417" lon="14.30127"><ele>31.000000000000004</ele><time>2026-04-25T07:59:28.381Z</time></trkpt><trkpt lat="40.9470817" lon="14.3013733"><ele>31.0</ele><time>2026-04-25T07:59:29.381Z</time></trkpt><trkpt lat="40.94712" lon="14.3014717"><ele>31.333333333333336</ele><time>2026-04-25T07:59:30.382Z</time></trkpt><trkpt lat="40.9471567" lon="14.3015683"><ele>31.666666666666668</ele><time>2026-04-25T07:59:31.38Z</time></trkpt><trkpt lat="40.9471933" lon="14.3016633"><ele>32.0</ele><time>2026-04-25T07:59:32.381Z</time></trkpt><trkpt lat="40.9472333" lon="14.3017517"><ele>32.333333333333336</ele><time>2026-04-25T07:59:33.382Z</time></trkpt><trkpt lat="40.9472783" lon="14.301835"><ele>32.666666666666664</ele><time>2026-04-25T07:59:34.382Z</time></trkpt><trkpt lat="40.9473283" lon="14.3019117"><ele>33.0</ele><time>2026-04-25T07:59:35.381Z</time></trkpt><trkpt lat="40.9473767" lon="14.3019783"><ele>33.0</ele><time>2026-04-25T07:59:36.384Z</time></trkpt><trkpt lat="40.9474417" lon="14.3020767"><ele>33.0</ele><time>2026-04-25T07:59:38.381Z</time></trkpt><trkpt lat="40.9474883" lon="14.302165"><ele>33.0</ele><time>2026-04-25T07:59:40.382Z</time></trkpt><trkpt lat="40.9475733" lon="14.3022033"><ele>33.0</ele><time>2026-04-25T07:59:42.383Z</time></trkpt><trkpt lat="40.94769" lon="14.3021983"><ele>33.0</ele><time>2026-04-25T07:59:44.382Z</time></trkpt><trkpt lat="40.9477567" lon="14.302195"><ele>32.833333333333336</ele><time>2026-04-25T07:59:45.381Z</time></trkpt><trkpt lat="40.947825" lon="14.3021967"><ele>32.666666666666664</ele><time>2026-04-25T07:59:46.384Z</time></trkpt><trkpt lat="40.9479" lon="14.3022033"><ele>32.5</ele><time>2026-04-25T07:59:47.382Z</time></trkpt><trkpt lat="40.9479717" lon="14.30221"><ele>32.33333333333333</ele><time>2026-04-25T07:59:48.38Z</time></trkpt><trkpt lat="40.9480417" lon="14.3022217"><ele>32.166666666666664</ele><time>2026-04-25T07:59:49.383Z</time></trkpt><trkpt lat="40.94811" lon="14.302235"><ele>32.0</ele><time>2026-04-25T07:59:50.382Z</time></trkpt><trkpt lat="40.9482083" lon="14.3022517"><ele>31.999999999999996</ele><time>2026-04-25T07:59:52.381Z</time></trkpt><trkpt lat="40.9482933" lon="14.3022783"><ele>32.0</ele><time>2026-04-25T07:59:54.38Z</time></trkpt><trkpt lat="40.9483817" lon="14.3022967"><ele>32.0</ele><time>2026-04-25T07:59:56.381Z</time></trkpt><trkpt lat="40.9484717" lon="14.3023133"><ele>32.0</ele><time>2026-04-25T07:59:58.381Z</time></trkpt><trkpt lat="40.94856" lon="14.3023333"><ele>31.999999999999996</ele><time>2026-04-25T08:00:00.381Z</time></trkpt><trkpt lat="40.94865" lon="14.30236"><ele>32.0</ele><time>2026-04-25T08:00:02.38Z</time></trkpt><trkpt lat="40.948745" lon="14.3024"><ele>31.833333333333332</ele><time>2026-04-25T08:00:04.38Z</time></trkpt><trkpt lat="40.94882" lon="14.30242"><ele>31.666666666666664</ele><time>2026-04-25T08:00:06.38Z</time></trkpt><trkpt lat="40.9488833" lon="14.3024317"><ele>31.5</ele><time>2026-04-25T08:00:08.381Z</time></trkpt><trkpt lat="40.94896" lon="14.30246"><ele>31.333333333333336</ele><time>2026-04-25T08:00:10.382Z</time></trkpt><trkpt lat="40.9490583" lon="14.3025"><ele>31.166666666666668</ele><time>2026-04-25T08:00:12.38Z</time></trkpt><trkpt lat="40.9491733" lon="14.30252"><ele>31.0</ele><time>2026-04-25T08:00:14.381Z</time></trkpt><trkpt lat="40.9493" lon="14.30253"><ele>31.28571428571429</ele><time>2026-04-25T08:00:16.38Z</time></trkpt><trkpt lat="40.9493667" lon="14.30254"><ele>31.571428571428577</ele><time>2026-04-25T08:00:17.382Z</time></trkpt><trkpt lat="40.9494317" lon="14.3025483"><ele>31.857142857142858</ele><time>2026-04-25T08:00:18.382Z</time></trkpt><trkpt lat="40.9494983" lon="14.3025583"><ele>32.142857142857146</ele><time>2026-04-25T08:00:19.38Z</time></trkpt><trkpt lat="40.9495667" lon="14.30257"><ele>32.42857142857143</ele><time>2026-04-25T08:00:20.381Z</time></trkpt><trkpt lat="40.9496367" lon="14.3025867"><ele>32.714285714285715</ele><time>2026-04-25T08:00:21.381Z</time></trkpt><trkpt lat="40.9497083" lon="14.3026033"><ele>33.0</ele><time>2026-04-25T08:00:22.382Z</time></trkpt><trkpt lat="40.9497783" lon="14.3026217"><ele>33.0</ele><time>2026-04-25T08:00:23.38Z</time></trkpt><trkpt lat="40.9498483" lon="14.30264"><ele>33.0</ele><time>2026-04-25T08:00:24.381Z</time></trkpt><trkpt lat="40.94992" lon="14.3026583"><ele>33.0</ele><time>2026-04-25T08:00:25.381Z</time></trkpt><trkpt lat="40.9499933" lon="14.3026783"><ele>33.0</ele><time>2026-04-25T08:00:26.382Z</time></trkpt><trkpt lat="40.9500683" lon="14.3027"><ele>33.0</ele><time>2026-04-25T08:00:27.38Z</time></trkpt><trkpt lat="40.9501417" lon="14.3027217"><ele>33.0</ele><time>2026-04-25T08:00:28.38Z</time></trkpt><trkpt lat="40.9502133" lon="14.3027333"><ele>33.0</ele><time>2026-04-25T08:00:29.381Z</time></trkpt><trkpt lat="40.9502883" lon="14.3027433"><ele>32.833333333333336</ele><time>2026-04-25T08:00:30.382Z</time></trkpt><trkpt lat="40.95036" lon="14.302755"><ele>32.666666666666664</ele><time>2026-04-25T08:00:31.381Z</time></trkpt><trkpt lat="40.95043" lon="14.3027783"><ele>32.5</ele><time>2026-04-25T08:00:32.381Z</time></trkpt><trkpt lat="40.9505083" lon="14.3028017"><ele>32.33333333333333</ele><time>2026-04-25T08:00:33.383Z</time></trkpt><trkpt lat="40.9505867" lon="14.30283"><ele>32.166666666666664</ele><time>2026-04-25T08:00:34.381Z</time></trkpt><trkpt lat="40.9506733" lon="14.3028517"><ele>32.0</ele><time>2026-04-25T08:00:35.382Z</time></trkpt><trkpt lat="40.950755" lon="14.3028767"><ele>31.999999999999996</ele><time>2026-04-25T08:00:36.38Z</time></trkpt><trkpt lat="40.950835" lon="14.3029"><ele>32.0</ele><time>2026-04-25T08:00:37.38Z</time></trkpt><trkpt lat="40.9509183" lon="14.30292"><ele>32.0</ele><time>2026-04-25T08:00:38.381Z</time></trkpt><trkpt lat="40.9510017" lon="14.30294"><ele>32.0</ele><time>2026-04-25T08:00:39.38Z</time></trkpt><trkpt lat="40.951085" lon="14.30296"><ele>31.999999999999996</ele><time>2026-04-25T08:00:40.381Z</time></trkpt><trkpt lat="40.951175" lon="14.30298"><ele>32.0</ele><time>2026-04-25T08:00:41.381Z</time></trkpt><trkpt lat="40.9512633" lon="14.303"><ele>31.666666666666664</ele><time>2026-04-25T08:00:42.381Z</time></trkpt><trkpt lat="40.95135" lon="14.30302"><ele>31.333333333333332</ele><time>2026-04-25T08:00:43.381Z</time></trkpt><trkpt lat="40.9514383" lon="14.30304"><ele>31.0</ele><time>2026-04-25T08:00:44.381Z</time></trkpt><trkpt lat="40.9515217" lon="14.303065"><ele>30.666666666666664</ele><time>2026-04-25T08:00:45.381Z</time></trkpt><trkpt lat="40.951605" lon="14.3030817"><ele>30.333333333333332</ele><time>2026-04-25T08:00:46.381Z</time></trkpt><trkpt lat="40.9516867" lon="14.3030967"><ele>30.0</ele><time>2026-04-25T08:00:47.381Z</time></trkpt><trkpt lat="40.9517667" lon="14.3031167"><ele>30.0</ele><time>2026-04-25T08:00:48.381Z</time></trkpt><trkpt lat="40.9518483" lon="14.3031433"><ele>30.0</ele><time>2026-04-25T08:00:49.381Z</time></trkpt><trkpt lat="40.9519283" lon="14.3031667"><ele>30.0</ele><time>2026-04-25T08:00:50.381Z</time></trkpt><trkpt lat="40.9520083" lon="14.3031917"><ele>30.0</ele><time>2026-04-25T08:00:51.381Z</time></trkpt><trkpt lat="40.9520883" lon="14.303215"><ele>30.0</ele><time>2026-04-25T08:00:52.381Z</time></trkpt><trkpt lat="40.95217" lon="14.30324"><ele>30.0</ele><time>2026-04-25T08:00:53.383Z</time></trkpt><trkpt lat="40.9522533" lon="14.30326"><ele>30.0</ele><time>2026-04-25T08:00:54.381Z</time></trkpt><trkpt lat="40.952335" lon="14.3032833"><ele>30.0</ele><time>2026-04-25T08:00:55.381Z</time></trkpt><trkpt lat="40.9524167" lon="14.3033067"><ele>30.0</ele><time>2026-04-25T08:00:56.381Z</time></trkpt><trkpt lat="40.9524983" lon="14.3033283"><ele>30.0</ele><time>2026-04-25T08:00:57.382Z</time></trkpt><trkpt lat="40.95258" lon="14.3033533"><ele>30.0</ele><time>2026-04-25T08:00:58.38Z</time></trkpt><trkpt lat="40.95266" lon="14.3033767"><ele>30.0</ele><time>2026-04-25T08:00:59.381Z</time></trkpt><trkpt lat="40.952735" lon="14.303405"><ele>29.714285714285715</ele><time>2026-04-25T08:01:00.38Z</time></trkpt><trkpt lat="40.95281" lon="14.303435"><ele>29.428571428571427</ele><time>2026-04-25T08:01:01.381Z</time></trkpt><trkpt lat="40.9528767" lon="14.30346"><ele>29.142857142857142</ele><time>2026-04-25T08:01:02.386Z</time></trkpt><trkpt lat="40.9529433" lon="14.3034867"><ele>28.857142857142858</ele><time>2026-04-25T08:01:03.383Z</time></trkpt><trkpt lat="40.9530167" lon="14.3035167"><ele>28.57142857142857</ele><time>2026-04-25T08:01:04.38Z</time></trkpt><trkpt lat="40.9530883" lon="14.3035517"><ele>28.285714285714285</ele><time>2026-04-25T08:01:05.381Z</time></trkpt><trkpt lat="40.9531633" lon="14.3035817"><ele>28.0</ele><time>2026-04-25T08:01:06.381Z</time></trkpt><trkpt lat="40.953245" lon="14.3035967"><ele>28.000000000000004</ele><time>2026-04-25T08:01:07.381Z</time></trkpt><trkpt lat="40.9533317" lon="14.3036117"><ele>28.0</ele><time>2026-04-25T08:01:08.382Z</time></trkpt><trkpt lat="40.9534133" lon="14.3036233"><ele>28.0</ele><time>2026-04-25T08:01:09.38Z</time></trkpt><trkpt lat="40.9534867" lon="14.30364"><ele>28.0</ele><time>2026-04-25T08:01:10.382Z</time></trkpt><trkpt lat="40.95357" lon="14.30366"><ele>28.000000000000004</ele><time>2026-04-25T08:01:11.381Z</time></trkpt><trkpt lat="40.953655" lon="14.3036867"><ele>28.0</ele><time>2026-04-25T08:01:12.383Z</time></trkpt><trkpt lat="40.95374" lon="14.30372"><ele>28.000000000000004</ele><time>2026-04-25T08:01:13.381Z</time></trkpt><trkpt lat="40.9538217" lon="14.30376"><ele>28.0</ele><time>2026-04-25T08:01:14.383Z</time></trkpt><trkpt lat="40.9539033" lon="14.303795"><ele>28.0</ele><time>2026-04-25T08:01:15.38Z</time></trkpt><trkpt lat="40.9539883" lon="14.30383"><ele>28.0</ele><time>2026-04-25T08:01:16.381Z</time></trkpt><trkpt lat="40.95407" lon="14.3038733"><ele>28.000000000000004</ele><time>2026-04-25T08:01:17.381Z</time></trkpt><trkpt lat="40.954155" lon="14.3039133"><ele>28.0</ele><time>2026-04-25T08:01:18.38Z</time></trkpt><trkpt lat="40.9542467" lon="14.3039467"><ele>28.0</ele><time>2026-04-25T08:01:19.38Z</time></trkpt><trkpt lat="40.95434" lon="14.3039683"><ele>27.999999999999996</ele><time>2026-04-25T08:01:20.384Z</time></trkpt><trkpt lat="40.95443" lon="14.304"><ele>27.999999999999996</ele><time>2026-04-25T08:01:21.381Z</time></trkpt><trkpt lat="40.9545233" lon="14.3040283"><ele>28.0</ele><time>2026-04-25T08:01:22.381Z</time></trkpt><trkpt lat="40.9546183" lon="14.304055"><ele>28.0</ele><time>2026-04-25T08:01:23.381Z</time></trkpt><trkpt lat="40.9547067" lon="14.304095"><ele>28.000000000000004</ele><time>2026-04-25T08:01:24.381Z</time></trkpt><trkpt lat="40.9547917" lon="14.3041367"><ele>28.0</ele><time>2026-04-25T08:01:25.389Z</time></trkpt><trkpt lat="40.9548817" lon="14.3041733"><ele>28.0</ele><time>2026-04-25T08:01:26.382Z</time></trkpt><trkpt lat="40.9549683" lon="14.304205"><ele>28.0</ele><time>2026-04-25T08:01:27.382Z</time></trkpt><trkpt lat="40.9550483" lon="14.304235"><ele>28.000000000000004</ele><time>2026-04-25T08:01:28.381Z</time></trkpt><trkpt lat="40.9551267" lon="14.3042667"><ele>28.0</ele><time>2026-04-25T08:01:29.381Z</time></trkpt><trkpt lat="40.9552017" lon="14.3042967"><ele>28.000000000000004</ele><time>2026-04-25T08:01:30.381Z</time></trkpt><trkpt lat="40.9552733" lon="14.3043267"><ele>28.0</ele><time>2026-04-25T08:01:31.38Z</time></trkpt><trkpt lat="40.9553433" lon="14.304355"><ele>28.0</ele><time>2026-04-25T08:01:32.381Z</time></trkpt><trkpt lat="40.9554033" lon="14.3043817"><ele>28.0</ele><time>2026-04-25T08:01:33.383Z</time></trkpt><trkpt lat="40.955505" lon="14.3044233"><ele>28.000000000000004</ele><time>2026-04-25T08:01:35.38Z</time></trkpt><trkpt lat="40.955625" lon="14.3044583"><ele>28.0</ele><time>2026-04-25T08:01:37.38Z</time></trkpt><trkpt lat="40.9557267" lon="14.30451"><ele>28.0</ele><time>2026-04-25T08:01:39.382Z</time></trkpt><trkpt lat="40.9558267" lon="14.304555"><ele>27.999999999999996</ele><time>2026-04-25T08:01:41.382Z</time></trkpt><trkpt lat="40.9559383" lon="14.304595"><ele>27.999999999999996</ele><time>2026-04-25T08:01:43.381Z</time></trkpt><trkpt lat="40.9560567" lon="14.3046283"><ele>28.0</ele><time>2026-04-25T08:01:45.381Z</time></trkpt><trkpt lat="40.95612" lon="14.3046433"><ele>28.0</ele><time>2026-04-25T08:01:46.381Z</time></trkpt><trkpt lat="40.9562417" lon="14.30468"><ele>28.25</ele><time>2026-04-25T08:01:48.381Z</time></trkpt><trkpt lat="40.95636" lon="14.304715"><ele>28.5</ele><time>2026-04-25T08:01:50.381Z</time></trkpt><trkpt lat="40.956465" lon="14.3047467"><ele>28.75</ele><time>2026-04-25T08:01:52.384Z</time></trkpt><trkpt lat="40.9565717" lon="14.3047933"><ele>29.0</ele><time>2026-04-25T08:01:54.382Z</time></trkpt><trkpt lat="40.9566917" lon="14.3048467"><ele>29.000000000000004</ele><time>2026-04-25T08:01:56.382Z</time></trkpt><trkpt lat="40.956755" lon="14.3048817"><ele>29.0</ele><time>2026-04-25T08:01:57.381Z</time></trkpt><trkpt lat="40.9568217" lon="14.3049167"><ele>29.000000000000004</ele><time>2026-04-25T08:01:58.38Z</time></trkpt><trkpt lat="40.956885" lon="14.3049617"><ele>29.000000000000004</ele><time>2026-04-25T08:01:59.381Z</time></trkpt><trkpt lat="40.9569483" lon="14.30501"><ele>29.0</ele><time>2026-04-25T08:02:00.382Z</time></trkpt><trkpt lat="40.9570117" lon="14.3050583"><ele>29.000000000000004</ele><time>2026-04-25T08:02:01.381Z</time></trkpt><trkpt lat="40.9570767" lon="14.3051067"><ele>29.000000000000004</ele><time>2026-04-25T08:02:02.381Z</time></trkpt><trkpt lat="40.957135" lon="14.3051633"><ele>28.999999999999996</ele><time>2026-04-25T08:02:03.381Z</time></trkpt><trkpt lat="40.9571883" lon="14.3052267"><ele>29.0</ele><time>2026-04-25T08:02:04.38Z</time></trkpt><trkpt lat="40.9572467" lon="14.30529"><ele>29.0</ele><time>2026-04-25T08:02:05.381Z</time></trkpt><trkpt lat="40.9573083" lon="14.3053483"><ele>29.0</ele><time>2026-04-25T08:02:06.38Z</time></trkpt><trkpt lat="40.9573683" lon="14.3054083"><ele>28.999999999999996</ele><time>2026-04-25T08:02:07.381Z</time></trkpt><trkpt lat="40.95743" lon="14.3054667"><ele>29.0</ele><time>2026-04-25T08:02:08.38Z</time></trkpt><trkpt lat="40.9574917" lon="14.3055267"><ele>28.999999999999996</ele><time>2026-04-25T08:02:09.381Z</time></trkpt><trkpt lat="40.9575483" lon="14.3055883"><ele>29.0</ele><time>2026-04-25T08:02:10.38Z</time></trkpt><trkpt lat="40.9576117" lon="14.30565"><ele>29.0</ele><time>2026-04-25T08:02:11.382Z</time></trkpt><trkpt lat="40.9576717" lon="14.30571"><ele>29.0</ele><time>2026-04-25T08:02:12.382Z</time></trkpt><trkpt lat="40.9577383" lon="14.30577"><ele>28.999999999999996</ele><time>2026-04-25T08:02:13.381Z</time></trkpt><trkpt lat="40.9578017" lon="14.3058333"><ele>29.0</ele><time>2026-04-25T08:02:14.381Z</time></trkpt><trkpt lat="40.957865" lon="14.3058983"><ele>29.0</ele><time>2026-04-25T08:02:15.383Z</time></trkpt><trkpt lat="40.9579267" lon="14.3059583"><ele>29.0</ele><time>2026-04-25T08:02:16.381Z</time></trkpt><trkpt lat="40.957985" lon="14.3060133"><ele>29.0</ele><time>2026-04-25T08:02:17.382Z</time></trkpt><trkpt lat="40.95804" lon="14.3060683"><ele>29.0</ele><time>2026-04-25T08:02:18.38Z</time></trkpt><trkpt lat="40.9581433" lon="14.3061533"><ele>29.0</ele><time>2026-04-25T08:02:20.381Z</time></trkpt><trkpt lat="40.9582433" lon="14.3062433"><ele>29.0</ele><time>2026-04-25T08:02:22.381Z</time></trkpt><trkpt lat="40.9583383" lon="14.306345"><ele>29.0</ele><time>2026-04-25T08:02:24.381Z</time></trkpt><trkpt lat="40.9584167" lon="14.306435"><ele>29.0</ele><time>2026-04-25T08:02:26.382Z</time></trkpt><trkpt lat="40.9584967" lon="14.3065"><ele>29.0</ele><time>2026-04-25T08:02:28.381Z</time></trkpt><trkpt lat="40.9585917" lon="14.3065767"><ele>29.0</ele><time>2026-04-25T08:02:30.382Z</time></trkpt><trkpt lat="40.9586983" lon="14.3066517"><ele>28.85714285714286</ele><time>2026-04-25T08:02:32.381Z</time></trkpt><trkpt lat="40.9587617" lon="14.306685"><ele>28.714285714285715</ele><time>2026-04-25T08:02:33.382Z</time></trkpt><trkpt lat="40.95883" lon="14.30671"><ele>28.571428571428573</ele><time>2026-04-25T08:02:34.381Z</time></trkpt><trkpt lat="40.9588967" lon="14.306735"><ele>28.42857142857143</ele><time>2026-04-25T08:02:35.381Z</time></trkpt><trkpt lat="40.95897" lon="14.3067533"><ele>28.285714285714285</ele><time>2026-04-25T08:02:36.384Z</time></trkpt><trkpt lat="40.9590467" lon="14.3067683"><ele>28.142857142857142</ele><time>2026-04-25T08:02:37.381Z</time></trkpt><trkpt lat="40.9591217" lon="14.3067817"><ele>28.0</ele><time>2026-04-25T08:02:38.382Z</time></trkpt><trkpt lat="40.9591967" lon="14.3067967"><ele>27.333333333333336</ele><time>2026-04-25T08:02:39.38Z</time></trkpt><trkpt lat="40.959275" lon="14.3068117"><ele>26.666666666666668</ele><time>2026-04-25T08:02:40.382Z</time></trkpt><trkpt lat="40.959355" lon="14.30683"><ele>26.0</ele><time>2026-04-25T08:02:41.381Z</time></trkpt><trkpt lat="40.9594333" lon="14.3068517"><ele>25.333333333333336</ele><time>2026-04-25T08:02:42.384Z</time></trkpt><trkpt lat="40.959505" lon="14.3068733"><ele>24.666666666666668</ele><time>2026-04-25T08:02:43.383Z</time></trkpt><trkpt lat="40.9595767" lon="14.306895"><ele>24.0</ele><time>2026-04-25T08:02:44.382Z</time></trkpt><trkpt lat="40.9596583" lon="14.3069183"><ele>24.0</ele><time>2026-04-25T08:02:45.381Z</time></trkpt><trkpt lat="40.9597383" lon="14.3069383"><ele>24.0</ele><time>2026-04-25T08:02:46.381Z</time></trkpt><trkpt lat="40.9598183" lon="14.3069567"><ele>24.0</ele><time>2026-04-25T08:02:47.38Z</time></trkpt><trkpt lat="40.9598983" lon="14.3069733"><ele>24.0</ele><time>2026-04-25T08:02:48.382Z</time></trkpt><trkpt lat="40.959975" lon="14.3069883"><ele>24.0</ele><time>2026-04-25T08:02:49.382Z</time></trkpt><trkpt lat="40.9600517" lon="14.3070033"><ele>24.0</ele><time>2026-04-25T08:02:50.381Z</time></trkpt><trkpt lat="40.960125" lon="14.3070233"><ele>24.4</ele><time>2026-04-25T08:02:51.38Z</time></trkpt><trkpt lat="40.960195" lon="14.3070367"><ele>24.799999999999997</ele><time>2026-04-25T08:02:52.383Z</time></trkpt><trkpt lat="40.960265" lon="14.30705"><ele>25.200000000000003</ele><time>2026-04-25T08:02:53.381Z</time></trkpt><trkpt lat="40.9603883" lon="14.3070783"><ele>25.6</ele><time>2026-04-25T08:02:55.382Z</time></trkpt><trkpt lat="40.9605083" lon="14.3071367"><ele>26.0</ele><time>2026-04-25T08:02:57.381Z</time></trkpt><trkpt lat="40.960615" lon="14.3072233"><ele>26.0</ele><time>2026-04-25T08:02:59.385Z</time></trkpt><trkpt lat="40.9607133" lon="14.3072967"><ele>26.0</ele><time>2026-04-25T08:03:01.381Z</time></trkpt><trkpt lat="40.9608" lon="14.3073"><ele>26.0</ele><time>2026-04-25T08:03:03.382Z</time></trkpt><trkpt lat="40.9608967" lon="14.3072833"><ele>26.0</ele><time>2026-04-25T08:03:05.381Z</time></trkpt><trkpt lat="40.9610133" lon="14.3072883"><ele>26.0</ele><time>2026-04-25T08:03:07.384Z</time></trkpt><trkpt lat="40.9610833" lon="14.3072933"><ele>26.166666666666664</ele><time>2026-04-25T08:03:08.381Z</time></trkpt><trkpt lat="40.9611567" lon="14.3073017"><ele>26.333333333333332</ele><time>2026-04-25T08:03:09.382Z</time></trkpt><trkpt lat="40.9612317" lon="14.3073133"><ele>26.5</ele><time>2026-04-25T08:03:10.381Z</time></trkpt><trkpt lat="40.9613083" lon="14.3073233"><ele>26.666666666666664</ele><time>2026-04-25T08:03:11.38Z</time></trkpt><trkpt lat="40.9613833" lon="14.3073367"><ele>26.833333333333332</ele><time>2026-04-25T08:03:12.382Z</time></trkpt><trkpt lat="40.96146" lon="14.3073483"><ele>27.0</ele><time>2026-04-25T08:03:13.381Z</time></trkpt><trkpt lat="40.96154" lon="14.307355"><ele>27.0</ele><time>2026-04-25T08:03:14.38Z</time></trkpt><trkpt lat="40.961615" lon="14.3073633"><ele>27.0</ele><time>2026-04-25T08:03:15.381Z</time></trkpt><trkpt lat="40.96169" lon="14.3073683"><ele>27.0</ele><time>2026-04-25T08:03:16.381Z</time></trkpt><trkpt lat="40.9617617" lon="14.3073667"><ele>27.0</ele><time>2026-04-25T08:03:17.381Z</time></trkpt><trkpt lat="40.9618317" lon="14.30737"><ele>27.0</ele><time>2026-04-25T08:03:18.382Z</time></trkpt><trkpt lat="40.9619017" lon="14.3073717"><ele>27.0</ele><time>2026-04-25T08:03:19.381Z</time></trkpt><trkpt lat="40.96197" lon="14.3073733"><ele>27.0</ele><time>2026-04-25T08:03:20.382Z</time></trkpt><trkpt lat="40.9620383" lon="14.307375"><ele>27.0</ele><time>2026-04-25T08:03:21.381Z</time></trkpt><trkpt lat="40.9621067" lon="14.3073733"><ele>27.0</ele><time>2026-04-25T08:03:22.382Z</time></trkpt><trkpt lat="40.962175" lon="14.30737"><ele>27.0</ele><time>2026-04-25T08:03:23.382Z</time></trkpt><trkpt lat="40.9622433" lon="14.3073633"><ele>27.0</ele><time>2026-04-25T08:03:24.384Z</time></trkpt><trkpt lat="40.9623133" lon="14.3073567"><ele>27.0</ele><time>2026-04-25T08:03:25.38Z</time></trkpt><trkpt lat="40.9623867" lon="14.3073483"><ele>27.0</ele><time>2026-04-25T08:03:26.381Z</time></trkpt><trkpt lat="40.9624567" lon="14.3073417"><ele>27.0</ele><time>2026-04-25T08:03:27.381Z</time></trkpt><trkpt lat="40.9625283" lon="14.3073333"><ele>26.857142857142858</ele><time>2026-04-25T08:03:28.382Z</time></trkpt><trkpt lat="40.9626033" lon="14.307325"><ele>26.714285714285715</ele><time>2026-04-25T08:03:29.38Z</time></trkpt><trkpt lat="40.962675" lon="14.3073233"><ele>26.57142857142857</ele><time>2026-04-25T08:03:30.382Z</time></trkpt><trkpt lat="40.9627483" lon="14.30731"><ele>26.42857142857143</ele><time>2026-04-25T08:03:31.381Z</time></trkpt><trkpt lat="40.9628183" lon="14.3072933"><ele>26.28571428571429</ele><time>2026-04-25T08:03:32.382Z</time></trkpt><trkpt lat="40.9628867" lon="14.3072883"><ele>26.142857142857142</ele><time>2026-04-25T08:03:33.382Z</time></trkpt><trkpt lat="40.9629517" lon="14.3072817"><ele>26.0</ele><time>2026-04-25T08:03:34.382Z</time></trkpt><trkpt lat="40.9630183" lon="14.3072783"><ele>25.999999999999996</ele><time>2026-04-25T08:03:35.381Z</time></trkpt><trkpt lat="40.9630833" lon="14.3072717"><ele>26.0</ele><time>2026-04-25T08:03:36.38Z</time></trkpt><trkpt lat="40.9632" lon="14.3072517"><ele>26.0</ele><time>2026-04-25T08:03:38.382Z</time></trkpt><trkpt lat="40.9632633" lon="14.307245"><ele>26.0</ele><time>2026-04-25T08:03:39.381Z</time></trkpt><trkpt lat="40.96333" lon="14.3072383"><ele>25.999999999999996</ele><time>2026-04-25T08:03:40.38Z</time></trkpt><trkpt lat="40.9633983" lon="14.30723"><ele>26.0</ele><time>2026-04-25T08:03:41.38Z</time></trkpt><trkpt lat="40.9634667" lon="14.307225"><ele>25.499999999999996</ele><time>2026-04-25T08:03:42.38Z</time></trkpt><trkpt lat="40.9635333" lon="14.307215"><ele>25.0</ele><time>2026-04-25T08:03:43.381Z</time></trkpt><trkpt lat="40.9635983" lon="14.30721"><ele>24.5</ele><time>2026-04-25T08:03:44.38Z</time></trkpt><trkpt lat="40.9637217" lon="14.3072033"><ele>24.0</ele><time>2026-04-25T08:03:46.382Z</time></trkpt><trkpt lat="40.963845" lon="14.3071883"><ele>23.5</ele><time>2026-04-25T08:03:48.381Z</time></trkpt><trkpt lat="40.9639117" lon="14.30717"><ele>23.0</ele><time>2026-04-25T08:03:49.381Z</time></trkpt><trkpt lat="40.9639817" lon="14.30716"><ele>23.0</ele><time>2026-04-25T08:03:50.382Z</time></trkpt><trkpt lat="40.9640533" lon="14.307155"><ele>23.0</ele><time>2026-04-25T08:03:51.385Z</time></trkpt><trkpt lat="40.9641317" lon="14.3071533"><ele>23.0</ele><time>2026-04-25T08:03:52.381Z</time></trkpt><trkpt lat="40.9642133" lon="14.307145"><ele>23.0</ele><time>2026-04-25T08:03:53.38Z</time></trkpt><trkpt lat="40.9642967" lon="14.30714"><ele>23.0</ele><time>2026-04-25T08:03:54.382Z</time></trkpt><trkpt lat="40.96438" lon="14.3071283"><ele>23.0</ele><time>2026-04-25T08:03:55.381Z</time></trkpt><trkpt lat="40.9644583" lon="14.3071167"><ele>23.28571428571429</ele><time>2026-04-25T08:03:56.382Z</time></trkpt><trkpt lat="40.9645333" lon="14.3070983"><ele>23.57142857142857</ele><time>2026-04-25T08:03:57.382Z</time></trkpt><trkpt lat="40.9646083" lon="14.3070867"><ele>23.857142857142858</ele><time>2026-04-25T08:03:58.38Z</time></trkpt><trkpt lat="40.9646833" lon="14.307075"><ele>24.142857142857146</ele><time>2026-04-25T08:03:59.381Z</time></trkpt><trkpt lat="40.9647517" lon="14.3070667"><ele>24.42857142857143</ele><time>2026-04-25T08:04:00.382Z</time></trkpt><trkpt lat="40.9648183" lon="14.3070617"><ele>24.714285714285715</ele><time>2026-04-25T08:04:01.383Z</time></trkpt><trkpt lat="40.9648867" lon="14.307055"><ele>25.0</ele><time>2026-04-25T08:04:02.382Z</time></trkpt><trkpt lat="40.964955" lon="14.3070433"><ele>25.000000000000004</ele><time>2026-04-25T08:04:03.382Z</time></trkpt><trkpt lat="40.9650267" lon="14.3070283"><ele>25.0</ele><time>2026-04-25T08:04:04.385Z</time></trkpt><trkpt lat="40.9651017" lon="14.3070133"><ele>25.0</ele><time>2026-04-25T08:04:05.382Z</time></trkpt><trkpt lat="40.9651767" lon="14.3070017"><ele>25.0</ele><time>2026-04-25T08:04:06.381Z</time></trkpt><trkpt lat="40.9652517" lon="14.3069867"><ele>25.0</ele><time>2026-04-25T08:04:07.383Z</time></trkpt><trkpt lat="40.9653217" lon="14.3069683"><ele>25.000000000000004</ele><time>2026-04-25T08:04:08.382Z</time></trkpt><trkpt lat="40.965395" lon="14.3069517"><ele>25.0</ele><time>2026-04-25T08:04:09.381Z</time></trkpt><trkpt lat="40.9654717" lon="14.306935"><ele>25.000000000000004</ele><time>2026-04-25T08:04:10.382Z</time></trkpt><trkpt lat="40.9655483" lon="14.3069183"><ele>25.0</ele><time>2026-04-25T08:04:11.381Z</time></trkpt><trkpt lat="40.9656283" lon="14.3069167"><ele>25.0</ele><time>2026-04-25T08:04:12.383Z</time></trkpt><trkpt lat="40.9657033" lon="14.30692"><ele>25.0</ele><time>2026-04-25T08:04:13.381Z</time></trkpt><trkpt lat="40.9657767" lon="14.3069267"><ele>25.000000000000004</ele><time>2026-04-25T08:04:14.382Z</time></trkpt><trkpt lat="40.9658517" lon="14.3069367"><ele>25.0</ele><time>2026-04-25T08:04:15.381Z</time></trkpt><trkpt lat="40.965925" lon="14.3069467"><ele>25.000000000000004</ele><time>2026-04-25T08:04:16.384Z</time></trkpt><trkpt lat="40.9660017" lon="14.306965"><ele>25.0</ele><time>2026-04-25T08:04:17.381Z</time></trkpt><trkpt lat="40.966075" lon="14.3069867"><ele>25.0</ele><time>2026-04-25T08:04:18.381Z</time></trkpt><trkpt lat="40.9661433" lon="14.3070117"><ele>25.0</ele><time>2026-04-25T08:04:19.382Z</time></trkpt><trkpt lat="40.9662083" lon="14.3070417"><ele>25.0</ele><time>2026-04-25T08:04:20.382Z</time></trkpt><trkpt lat="40.9662733" lon="14.30708"><ele>25.000000000000004</ele><time>2026-04-25T08:04:21.382Z</time></trkpt><trkpt lat="40.96634" lon="14.3071183"><ele>25.0</ele><time>2026-04-25T08:04:22.384Z</time></trkpt><trkpt lat="40.96641" lon="14.307155"><ele>25.000000000000004</ele><time>2026-04-25T08:04:23.381Z</time></trkpt><trkpt lat="40.9664767" lon="14.30719"><ele>25.0</ele><time>2026-04-25T08:04:24.381Z</time></trkpt><trkpt lat="40.9665467" lon="14.3072267"><ele>25.0</ele><time>2026-04-25T08:04:25.38Z</time></trkpt><trkpt lat="40.9666167" lon="14.307265"><ele>25.0</ele><time>2026-04-25T08:04:26.381Z</time></trkpt><trkpt lat="40.9666833" lon="14.3073017"><ele>25.0</ele><time>2026-04-25T08:04:27.382Z</time></trkpt><trkpt lat="40.96675" lon="14.3073367"><ele>25.000000000000004</ele><time>2026-04-25T08:04:28.38Z</time></trkpt><trkpt lat="40.9668183" lon="14.3073733"><ele>25.0</ele><time>2026-04-25T08:04:29.381Z</time></trkpt><trkpt lat="40.9668867" lon="14.30741"><ele>24.833333333333336</ele><time>2026-04-25T08:04:30.382Z</time></trkpt><trkpt lat="40.966955" lon="14.3074467"><ele>24.666666666666668</ele><time>2026-04-25T08:04:31.381Z</time></trkpt><trkpt lat="40.967025" lon="14.3074783"><ele>24.5</ele><time>2026-04-25T08:04:32.382Z</time></trkpt><trkpt lat="40.9670967" lon="14.3075133"><ele>24.333333333333336</ele><time>2026-04-25T08:04:33.382Z</time></trkpt><trkpt lat="40.9671683" lon="14.30755"><ele>24.166666666666668</ele><time>2026-04-25T08:04:34.381Z</time></trkpt><trkpt lat="40.9672383" lon="14.3075833"><ele>24.0</ele><time>2026-04-25T08:04:35.382Z</time></trkpt><trkpt lat="40.9673117" lon="14.3076117"><ele>24.0</ele><time>2026-04-25T08:04:36.381Z</time></trkpt><trkpt lat="40.9673883" lon="14.3076433"><ele>24.0</ele><time>2026-04-25T08:04:37.386Z</time></trkpt><trkpt lat="40.967465" lon="14.3076717"><ele>24.0</ele><time>2026-04-25T08:04:38.381Z</time></trkpt><trkpt lat="40.96754" lon="14.3077067"><ele>24.0</ele><time>2026-04-25T08:04:39.381Z</time></trkpt><trkpt lat="40.9676183" lon="14.3077367"><ele>24.0</ele><time>2026-04-25T08:04:40.38Z</time></trkpt><trkpt lat="40.967695" lon="14.3077667"><ele>24.0</ele><time>2026-04-25T08:04:41.382Z</time></trkpt><trkpt lat="40.96777" lon="14.3077967"><ele>24.333333333333332</ele><time>2026-04-25T08:04:42.381Z</time></trkpt><trkpt lat="40.967845" lon="14.3078317"><ele>24.666666666666664</ele><time>2026-04-25T08:04:43.39Z</time></trkpt><trkpt lat="40.9679183" lon="14.3078683"><ele>25.0</ele><time>2026-04-25T08:04:44.382Z</time></trkpt><trkpt lat="40.9679933" lon="14.307905"><ele>25.333333333333332</ele><time>2026-04-25T08:04:45.382Z</time></trkpt><trkpt lat="40.9680683" lon="14.30794"><ele>25.666666666666664</ele><time>2026-04-25T08:04:46.381Z</time></trkpt><trkpt lat="40.9681467" lon="14.307975"><ele>26.0</ele><time>2026-04-25T08:04:47.381Z</time></trkpt><trkpt lat="40.9682233" lon="14.30801"><ele>25.999999999999996</ele><time>2026-04-25T08:04:48.382Z</time></trkpt><trkpt lat="40.9682967" lon="14.3080433"><ele>26.0</ele><time>2026-04-25T08:04:49.38Z</time></trkpt><trkpt lat="40.968375" lon="14.3080733"><ele>26.0</ele><time>2026-04-25T08:04:50.381Z</time></trkpt><trkpt lat="40.9684533" lon="14.3081"><ele>26.0</ele><time>2026-04-25T08:04:51.381Z</time></trkpt><trkpt lat="40.9685333" lon="14.30813"><ele>25.999999999999996</ele><time>2026-04-25T08:04:52.381Z</time></trkpt><trkpt lat="40.9686133" lon="14.3081517"><ele>26.0</ele><time>2026-04-25T08:04:53.381Z</time></trkpt><trkpt lat="40.968695" lon="14.3081733"><ele>25.833333333333332</ele><time>2026-04-25T08:04:54.382Z</time></trkpt><trkpt lat="40.9687767" lon="14.308195"><ele>25.666666666666664</ele><time>2026-04-25T08:04:55.381Z</time></trkpt><trkpt lat="40.9688617" lon="14.30821"><ele>25.5</ele><time>2026-04-25T08:04:56.382Z</time></trkpt><trkpt lat="40.9689483" lon="14.3082217"><ele>25.333333333333336</ele><time>2026-04-25T08:04:57.381Z</time></trkpt><trkpt lat="40.969035" lon="14.3082283"><ele>25.166666666666668</ele><time>2026-04-25T08:04:58.382Z</time></trkpt><trkpt lat="40.9691233" lon="14.3082367"><ele>25.0</ele><time>2026-04-25T08:04:59.382Z</time></trkpt><trkpt lat="40.9692117" lon="14.3082417"><ele>24.8</ele><time>2026-04-25T08:05:00.384Z</time></trkpt><trkpt lat="40.9693017" lon="14.3082467"><ele>24.6</ele><time>2026-04-25T08:05:01.381Z</time></trkpt><trkpt lat="40.969395" lon="14.308255"><ele>24.4</ele><time>2026-04-25T08:05:02.382Z</time></trkpt><trkpt lat="40.96949" lon="14.30827"><ele>24.2</ele><time>2026-04-25T08:05:03.381Z</time></trkpt><trkpt lat="40.96959" lon="14.3082817"><ele>24.0</ele><time>2026-04-25T08:05:04.38Z</time></trkpt><trkpt lat="40.96969" lon="14.3082933"><ele>24.0</ele><time>2026-04-25T08:05:05.381Z</time></trkpt><trkpt lat="40.96979" lon="14.308305"><ele>24.0</ele><time>2026-04-25T08:05:06.38Z</time></trkpt><trkpt lat="40.96989" lon="14.308315"><ele>24.0</ele><time>2026-04-25T08:05:07.382Z</time></trkpt><trkpt lat="40.9699883" lon="14.3083233"><ele>24.0</ele><time>2026-04-25T08:05:08.382Z</time></trkpt><trkpt lat="40.970085" lon="14.30833"><ele>24.0</ele><time>2026-04-25T08:05:09.381Z</time></trkpt><trkpt lat="40.9701817" lon="14.3083417"><ele>23.799999999999997</ele><time>2026-04-25T08:05:10.381Z</time></trkpt><trkpt lat="40.970275" lon="14.3083483"><ele>23.599999999999998</ele><time>2026-04-25T08:05:11.381Z</time></trkpt><trkpt lat="40.9703683" lon="14.3083583"><ele>23.4</ele><time>2026-04-25T08:05:12.382Z</time></trkpt><trkpt lat="40.97046" lon="14.30837"><ele>23.2</ele><time>2026-04-25T08:05:13.38Z</time></trkpt><trkpt lat="40.9705533" lon="14.3083933"><ele>23.0</ele><time>2026-04-25T08:05:14.382Z</time></trkpt><trkpt lat="40.9706417" lon="14.308425"><ele>23.0</ele><time>2026-04-25T08:05:15.382Z</time></trkpt><trkpt lat="40.97073" lon="14.3084683"><ele>23.0</ele><time>2026-04-25T08:05:16.381Z</time></trkpt><trkpt lat="40.9708133" lon="14.3085117"><ele>23.0</ele><time>2026-04-25T08:05:17.382Z</time></trkpt><trkpt lat="40.9708967" lon="14.3085667"><ele>23.0</ele><time>2026-04-25T08:05:18.381Z</time></trkpt><trkpt lat="40.97098" lon="14.3086183"><ele>23.0</ele><time>2026-04-25T08:05:19.381Z</time></trkpt><trkpt lat="40.9710617" lon="14.30867"><ele>23.166666666666668</ele><time>2026-04-25T08:05:20.382Z</time></trkpt><trkpt lat="40.971145" lon="14.3087233"><ele>23.333333333333336</ele><time>2026-04-25T08:05:21.389Z</time></trkpt><trkpt lat="40.971225" lon="14.3087683"><ele>23.5</ele><time>2026-04-25T08:05:22.381Z</time></trkpt><trkpt lat="40.971305" lon="14.308815"><ele>23.666666666666668</ele><time>2026-04-25T08:05:23.384Z</time></trkpt><trkpt lat="40.9713867" lon="14.30886"><ele>23.833333333333332</ele><time>2026-04-25T08:05:24.382Z</time></trkpt><trkpt lat="40.971465" lon="14.3089083"><ele>24.0</ele><time>2026-04-25T08:05:25.381Z</time></trkpt><trkpt lat="40.9715417" lon="14.3089583"><ele>24.166666666666668</ele><time>2026-04-25T08:05:26.382Z</time></trkpt><trkpt lat="40.9716217" lon="14.3090067"><ele>24.333333333333336</ele><time>2026-04-25T08:05:27.384Z</time></trkpt><trkpt lat="40.9717017" lon="14.3090533"><ele>24.5</ele><time>2026-04-25T08:05:28.381Z</time></trkpt><trkpt lat="40.9717833" lon="14.3091"><ele>24.666666666666668</ele><time>2026-04-25T08:05:29.382Z</time></trkpt><trkpt lat="40.9718633" lon="14.3091467"><ele>24.833333333333336</ele><time>2026-04-25T08:05:30.381Z</time></trkpt><trkpt lat="40.971945" lon="14.3091933"><ele>25.0</ele><time>2026-04-25T08:05:31.382Z</time></trkpt><trkpt lat="40.972025" lon="14.309235"><ele>24.666666666666668</ele><time>2026-04-25T08:05:32.381Z</time></trkpt><trkpt lat="40.97211" lon="14.309275"><ele>24.333333333333336</ele><time>2026-04-25T08:05:33.383Z</time></trkpt><trkpt lat="40.972195" lon="14.3093133"><ele>24.0</ele><time>2026-04-25T08:05:34.383Z</time></trkpt><trkpt lat="40.97228" lon="14.3093467"><ele>23.666666666666668</ele><time>2026-04-25T08:05:35.382Z</time></trkpt><trkpt lat="40.972365" lon="14.30938"><ele>23.333333333333336</ele><time>2026-04-25T08:05:36.381Z</time></trkpt><trkpt lat="40.97245" lon="14.3094083"><ele>23.0</ele><time>2026-04-25T08:05:37.381Z</time></trkpt><trkpt lat="40.9725367" lon="14.309435"><ele>22.833333333333336</ele><time>2026-04-25T08:05:38.382Z</time></trkpt><trkpt lat="40.9726217" lon="14.30947"><ele>22.666666666666668</ele><time>2026-04-25T08:05:39.382Z</time></trkpt><trkpt lat="40.9727067" lon="14.3095117"><ele>22.5</ele><time>2026-04-25T08:05:40.381Z</time></trkpt><trkpt lat="40.9727933" lon="14.3095483"><ele>22.333333333333332</ele><time>2026-04-25T08:05:41.387Z</time></trkpt><trkpt lat="40.97288" lon="14.30958"><ele>22.166666666666664</ele><time>2026-04-25T08:05:42.382Z</time></trkpt><trkpt lat="40.972965" lon="14.3096133"><ele>22.0</ele><time>2026-04-25T08:05:43.382Z</time></trkpt><trkpt lat="40.97305" lon="14.3096467"><ele>22.0</ele><time>2026-04-25T08:05:44.384Z</time></trkpt><trkpt lat="40.9731367" lon="14.3096783"><ele>22.0</ele><time>2026-04-25T08:05:45.381Z</time></trkpt><trkpt lat="40.9732233" lon="14.30971"><ele>22.0</ele><time>2026-04-25T08:05:46.382Z</time></trkpt><trkpt lat="40.97331" lon="14.3097433"><ele>22.0</ele><time>2026-04-25T08:05:47.382Z</time></trkpt><trkpt lat="40.973395" lon="14.309775"><ele>22.0</ele><time>2026-04-25T08:05:48.382Z</time></trkpt><trkpt lat="40.9734783" lon="14.309805"><ele>22.0</ele><time>2026-04-25T08:05:49.382Z</time></trkpt><trkpt lat="40.9735683" lon="14.30983"><ele>22.0</ele><time>2026-04-25T08:05:50.383Z</time></trkpt><trkpt lat="40.9736433" lon="14.3098233"><ele>22.0</ele><time>2026-04-25T08:05:51.382Z</time></trkpt><trkpt lat="40.9737333" lon="14.30983"><ele>22.0</ele><time>2026-04-25T08:05:52.382Z</time></trkpt><trkpt lat="40.9738183" lon="14.3098483"><ele>22.0</ele><time>2026-04-25T08:05:53.381Z</time></trkpt><trkpt lat="40.9739067" lon="14.3098567"><ele>22.0</ele><time>2026-04-25T08:05:54.382Z</time></trkpt><trkpt lat="40.9739983" lon="14.3098617"><ele>22.0</ele><time>2026-04-25T08:05:55.383Z</time></trkpt><trkpt lat="40.97409" lon="14.3098617"><ele>22.0</ele><time>2026-04-25T08:05:56.383Z</time></trkpt><trkpt lat="40.97418" lon="14.3098583"><ele>22.0</ele><time>2026-04-25T08:05:57.382Z</time></trkpt><trkpt lat="40.9742717" lon="14.3098567"><ele>22.0</ele><time>2026-04-25T08:05:58.381Z</time></trkpt><trkpt lat="40.97438" lon="14.3098533"><ele>22.0</ele><time>2026-04-25T08:05:59.382Z</time></trkpt><trkpt lat="40.9744817" lon="14.3098433"><ele>22.0</ele><time>2026-04-25T08:06:00.381Z</time></trkpt><trkpt lat="40.9745817" lon="14.3098417"><ele>22.0</ele><time>2026-04-25T08:06:01.382Z</time></trkpt><trkpt lat="40.9746817" lon="14.3098417"><ele>22.0</ele><time>2026-04-25T08:06:02.382Z</time></trkpt><trkpt lat="40.9747767" lon="14.3098433"><ele>22.0</ele><time>2026-04-25T08:06:03.381Z</time></trkpt><trkpt lat="40.9748733" lon="14.3098433"><ele>22.0</ele><time>2026-04-25T08:06:04.382Z</time></trkpt><trkpt lat="40.97497" lon="14.3098433"><ele>22.0</ele><time>2026-04-25T08:06:05.382Z</time></trkpt><trkpt lat="40.975065" lon="14.3098433"><ele>22.0</ele><time>2026-04-25T08:06:06.384Z</time></trkpt><trkpt lat="40.9751633" lon="14.3098367"><ele>22.0</ele><time>2026-04-25T08:06:07.382Z</time></trkpt><trkpt lat="40.9752617" lon="14.3098283"><ele>22.0</ele><time>2026-04-25T08:06:08.381Z</time></trkpt><trkpt lat="40.9753583" lon="14.3098167"><ele>22.0</ele><time>2026-04-25T08:06:09.382Z</time></trkpt><trkpt lat="40.9754533" lon="14.3097983"><ele>22.0</ele><time>2026-04-25T08:06:10.381Z</time></trkpt><trkpt lat="40.9755467" lon="14.3097767"><ele>22.0</ele><time>2026-04-25T08:06:11.383Z</time></trkpt><trkpt lat="40.975635" lon="14.30975"><ele>22.0</ele><time>2026-04-25T08:06:12.382Z</time></trkpt><trkpt lat="40.97572" lon="14.3097117"><ele>22.0</ele><time>2026-04-25T08:06:13.382Z</time></trkpt><trkpt lat="40.9758033" lon="14.3096667"><ele>22.0</ele><time>2026-04-25T08:06:14.381Z</time></trkpt><trkpt lat="40.9758883" lon="14.30962"><ele>22.0</ele><time>2026-04-25T08:06:15.381Z</time></trkpt><trkpt lat="40.9759767" lon="14.3095817"><ele>22.0</ele><time>2026-04-25T08:06:16.382Z</time></trkpt><trkpt lat="40.976065" lon="14.3095417"><ele>22.0</ele><time>2026-04-25T08:06:17.381Z</time></trkpt><trkpt lat="40.97615" lon="14.309495"><ele>22.0</ele><time>2026-04-25T08:06:18.383Z</time></trkpt><trkpt lat="40.976235" lon="14.3094467"><ele>22.0</ele><time>2026-04-25T08:06:19.382Z</time></trkpt><trkpt lat="40.9763233" lon="14.3093933"><ele>22.0</ele><time>2026-04-25T08:06:20.382Z</time></trkpt><trkpt lat="40.9764067" lon="14.309345"><ele>22.0</ele><time>2026-04-25T08:06:21.381Z</time></trkpt><trkpt lat="40.97649" lon="14.3093017"><ele>22.0</ele><time>2026-04-25T08:06:22.381Z</time></trkpt><trkpt lat="40.9765733" lon="14.3092583"><ele>22.0</ele><time>2026-04-25T08:06:23.384Z</time></trkpt><trkpt lat="40.976655" lon="14.30921"><ele>22.0</ele><time>2026-04-25T08:06:24.382Z</time></trkpt><trkpt lat="40.976735" lon="14.309165"><ele>22.0</ele><time>2026-04-25T08:06:25.383Z</time></trkpt><trkpt lat="40.9768183" lon="14.3091183"><ele>22.0</ele><time>2026-04-25T08:06:26.382Z</time></trkpt><trkpt lat="40.9769067" lon="14.3090817"><ele>21.6</ele><time>2026-04-25T08:06:27.382Z</time></trkpt><trkpt lat="40.9769967" lon="14.30905"><ele>21.200000000000003</ele><time>2026-04-25T08:06:28.381Z</time></trkpt><trkpt lat="40.9770867" lon="14.309025"><ele>20.8</ele><time>2026-04-25T08:06:29.382Z</time></trkpt><trkpt lat="40.97718" lon="14.309015"><ele>20.4</ele><time>2026-04-25T08:06:30.383Z</time></trkpt><trkpt lat="40.9772733" lon="14.30902"><ele>20.0</ele><time>2026-04-25T08:06:31.382Z</time></trkpt><trkpt lat="40.9773667" lon="14.309045"><ele>20.0</ele><time>2026-04-25T08:06:32.384Z</time></trkpt><trkpt lat="40.977455" lon="14.309095"><ele>20.0</ele><time>2026-04-25T08:06:33.382Z</time></trkpt><trkpt lat="40.977535" lon="14.3091533"><ele>20.0</ele><time>2026-04-25T08:06:34.381Z</time></trkpt><trkpt lat="40.9776083" lon="14.3092233"><ele>20.0</ele><time>2026-04-25T08:06:35.382Z</time></trkpt><trkpt lat="40.97768" lon="14.3093033"><ele>20.0</ele><time>2026-04-25T08:06:36.382Z</time></trkpt><trkpt lat="40.977745" lon="14.30939"><ele>20.0</ele><time>2026-04-25T08:06:37.382Z</time></trkpt><trkpt lat="40.9778117" lon="14.30948"><ele>20.0</ele><time>2026-04-25T08:06:38.38Z</time></trkpt><trkpt lat="40.97788" lon="14.30956"><ele>20.0</ele><time>2026-04-25T08:06:39.382Z</time></trkpt><trkpt lat="40.977945" lon="14.3096417"><ele>20.0</ele><time>2026-04-25T08:06:40.382Z</time></trkpt><trkpt lat="40.9780117" lon="14.3097233"><ele>20.0</ele><time>2026-04-25T08:06:41.382Z</time></trkpt><trkpt lat="40.9780817" lon="14.3098067"><ele>20.0</ele><time>2026-04-25T08:06:42.382Z</time></trkpt><trkpt lat="40.97815" lon="14.309885"><ele>20.0</ele><time>2026-04-25T08:06:43.382Z</time></trkpt><trkpt lat="40.9782167" lon="14.3099717"><ele>20.0</ele><time>2026-04-25T08:06:44.382Z</time></trkpt><trkpt lat="40.9782883" lon="14.3100517"><ele>20.0</ele><time>2026-04-25T08:06:45.381Z</time></trkpt><trkpt lat="40.9783617" lon="14.3101317"><ele>20.0</ele><time>2026-04-25T08:06:46.382Z</time></trkpt><trkpt lat="40.9784367" lon="14.3102067"><ele>20.0</ele><time>2026-04-25T08:06:47.382Z</time></trkpt><trkpt lat="40.9785133" lon="14.310275"><ele>20.0</ele><time>2026-04-25T08:06:48.382Z</time></trkpt><trkpt lat="40.9785867" lon="14.310345"><ele>20.0</ele><time>2026-04-25T08:06:49.382Z</time></trkpt><trkpt lat="40.9786617" lon="14.3104133"><ele>20.0</ele><time>2026-04-25T08:06:50.382Z</time></trkpt><trkpt lat="40.978735" lon="14.31048"><ele>20.0</ele><time>2026-04-25T08:06:51.383Z</time></trkpt><trkpt lat="40.97881" lon="14.3105567"><ele>20.2</ele><time>2026-04-25T08:06:52.382Z</time></trkpt><trkpt lat="40.9788817" lon="14.3106283"><ele>20.4</ele><time>2026-04-25T08:06:53.381Z</time></trkpt><trkpt lat="40.978955" lon="14.3107"><ele>20.6</ele><time>2026-04-25T08:06:54.382Z</time></trkpt><trkpt lat="40.979025" lon="14.3107717"><ele>20.8</ele><time>2026-04-25T08:06:55.381Z</time></trkpt><trkpt lat="40.9791017" lon="14.3108383"><ele>21.0</ele><time>2026-04-25T08:06:56.382Z</time></trkpt><trkpt lat="40.9791767" lon="14.3109067"><ele>21.0</ele><time>2026-04-25T08:06:57.383Z</time></trkpt><trkpt lat="40.9792517" lon="14.3109717"><ele>21.0</ele><time>2026-04-25T08:06:58.381Z</time></trkpt><trkpt lat="40.979325" lon="14.3110367"><ele>21.0</ele><time>2026-04-25T08:06:59.382Z</time></trkpt><trkpt lat="40.9794" lon="14.3110967"><ele>21.0</ele><time>2026-04-25T08:07:00.382Z</time></trkpt><trkpt lat="40.9794733" lon="14.31116"><ele>21.0</ele><time>2026-04-25T08:07:01.382Z</time></trkpt><trkpt lat="40.97955" lon="14.31122"><ele>21.0</ele><time>2026-04-25T08:07:02.382Z</time></trkpt><trkpt lat="40.9796217" lon="14.3112833"><ele>21.0</ele><time>2026-04-25T08:07:03.383Z</time></trkpt><trkpt lat="40.9796917" lon="14.311345"><ele>21.0</ele><time>2026-04-25T08:07:04.382Z</time></trkpt><trkpt lat="40.9797633" lon="14.311405"><ele>21.0</ele><time>2026-04-25T08:07:05.382Z</time></trkpt><trkpt lat="40.9798417" lon="14.3114617"><ele>21.0</ele><time>2026-04-25T08:07:06.382Z</time></trkpt><trkpt lat="40.9799217" lon="14.3115233"><ele>21.0</ele><time>2026-04-25T08:07:07.382Z</time></trkpt><trkpt lat="40.98" lon="14.311585"><ele>21.0</ele><time>2026-04-25T08:07:08.384Z</time></trkpt><trkpt lat="40.98008" lon="14.3116483"><ele>21.4</ele><time>2026-04-25T08:07:09.382Z</time></trkpt><trkpt lat="40.98016" lon="14.3117083"><ele>21.8</ele><time>2026-04-25T08:07:10.382Z</time></trkpt><trkpt lat="40.98024" lon="14.3117667"><ele>22.2</ele><time>2026-04-25T08:07:11.382Z</time></trkpt><trkpt lat="40.9803233" lon="14.311825"><ele>22.599999999999998</ele><time>2026-04-25T08:07:12.382Z</time></trkpt><trkpt lat="40.980405" lon="14.3118767"><ele>23.0</ele><time>2026-04-25T08:07:13.381Z</time></trkpt><trkpt lat="40.98049" lon="14.3119267"><ele>23.0</ele><time>2026-04-25T08:07:14.383Z</time></trkpt><trkpt lat="40.9805733" lon="14.311975"><ele>23.0</ele><time>2026-04-25T08:07:15.381Z</time></trkpt><trkpt lat="40.9806567" lon="14.31202"><ele>23.0</ele><time>2026-04-25T08:07:16.383Z</time></trkpt><trkpt lat="40.9807383" lon="14.3120717"><ele>23.0</ele><time>2026-04-25T08:07:17.382Z</time></trkpt><trkpt lat="40.98082" lon="14.3121233"><ele>23.0</ele><time>2026-04-25T08:07:18.382Z</time></trkpt><trkpt lat="40.9809017" lon="14.3121717"><ele>22.599999999999998</ele><time>2026-04-25T08:07:19.382Z</time></trkpt><trkpt lat="40.9809833" lon="14.3122183"><ele>22.2</ele><time>2026-04-25T08:07:20.382Z</time></trkpt><trkpt lat="40.9810683" lon="14.3122633"><ele>21.8</ele><time>2026-04-25T08:07:21.383Z</time></trkpt><trkpt lat="40.9811533" lon="14.3123117"><ele>21.4</ele><time>2026-04-25T08:07:22.384Z</time></trkpt><trkpt lat="40.9812383" lon="14.3123583"><ele>21.0</ele><time>2026-04-25T08:07:23.382Z</time></trkpt><trkpt lat="40.9813233" lon="14.3123983"><ele>21.0</ele><time>2026-04-25T08:07:24.382Z</time></trkpt><trkpt lat="40.9814083" lon="14.3124333"><ele>21.0</ele><time>2026-04-25T08:07:25.382Z</time></trkpt><trkpt lat="40.9814933" lon="14.3124633"><ele>21.0</ele><time>2026-04-25T08:07:26.381Z</time></trkpt><trkpt lat="40.98158" lon="14.3124867"><ele>21.0</ele><time>2026-04-25T08:07:27.383Z</time></trkpt><trkpt lat="40.9816667" lon="14.3125017"><ele>21.0</ele><time>2026-04-25T08:07:28.387Z</time></trkpt><trkpt lat="40.9817567" lon="14.31251"><ele>21.0</ele><time>2026-04-25T08:07:29.381Z</time></trkpt><trkpt lat="40.9818483" lon="14.3125117"><ele>20.8</ele><time>2026-04-25T08:07:30.382Z</time></trkpt><trkpt lat="40.9819417" lon="14.3125117"><ele>20.6</ele><time>2026-04-25T08:07:31.382Z</time></trkpt><trkpt lat="40.9820383" lon="14.3125117"><ele>20.4</ele><time>2026-04-25T08:07:32.382Z</time></trkpt><trkpt lat="40.9821333" lon="14.312515"><ele>20.2</ele><time>2026-04-25T08:07:33.382Z</time></trkpt><trkpt lat="40.98223" lon="14.3125183"><ele>20.0</ele><time>2026-04-25T08:07:34.382Z</time></trkpt><trkpt lat="40.9823267" lon="14.3125217"><ele>20.0</ele><time>2026-04-25T08:07:35.381Z</time></trkpt><trkpt lat="40.9824233" lon="14.312525"><ele>20.0</ele><time>2026-04-25T08:07:36.382Z</time></trkpt><trkpt lat="40.982515" lon="14.31253"><ele>20.0</ele><time>2026-04-25T08:07:37.381Z</time></trkpt><trkpt lat="40.98261" lon="14.3125317"><ele>20.0</ele><time>2026-04-25T08:07:38.385Z</time></trkpt><trkpt lat="40.9827017" lon="14.312535"><ele>20.0</ele><time>2026-04-25T08:07:39.382Z</time></trkpt><trkpt lat="40.9827933" lon="14.3125367"><ele>20.0</ele><time>2026-04-25T08:07:40.381Z</time></trkpt><trkpt lat="40.9828867" lon="14.3125383"><ele>20.0</ele><time>2026-04-25T08:07:41.381Z</time></trkpt><trkpt lat="40.9829783" lon="14.312535"><ele>20.0</ele><time>2026-04-25T08:07:42.382Z</time></trkpt><trkpt lat="40.98307" lon="14.31253"><ele>20.0</ele><time>2026-04-25T08:07:43.383Z</time></trkpt><trkpt lat="40.98316" lon="14.31252"><ele>20.0</ele><time>2026-04-25T08:07:44.381Z</time></trkpt><trkpt lat="40.9832483" lon="14.312505"><ele>20.0</ele><time>2026-04-25T08:07:45.383Z</time></trkpt><trkpt lat="40.9833333" lon="14.3124767"><ele>20.0</ele><time>2026-04-25T08:07:46.382Z</time></trkpt><trkpt lat="40.9834217" lon="14.3124433"><ele>20.0</ele><time>2026-04-25T08:07:47.383Z</time></trkpt><trkpt lat="40.983505" lon="14.3124"><ele>20.0</ele><time>2026-04-25T08:07:48.382Z</time></trkpt><trkpt lat="40.98359" lon="14.3123533"><ele>20.0</ele><time>2026-04-25T08:07:49.381Z</time></trkpt><trkpt lat="40.9836767" lon="14.312305"><ele>20.0</ele><time>2026-04-25T08:07:50.382Z</time></trkpt><trkpt lat="40.9837617" lon="14.3122533"><ele>20.0</ele><time>2026-04-25T08:07:51.382Z</time></trkpt><trkpt lat="40.9838433" lon="14.3122033"><ele>20.0</ele><time>2026-04-25T08:07:52.381Z</time></trkpt><trkpt lat="40.98393" lon="14.3121533"><ele>20.0</ele><time>2026-04-25T08:07:53.382Z</time></trkpt><trkpt lat="40.9840183" lon="14.3121033"><ele>20.0</ele><time>2026-04-25T08:07:54.381Z</time></trkpt><trkpt lat="40.9841067" lon="14.31206"><ele>20.2</ele><time>2026-04-25T08:07:55.383Z</time></trkpt><trkpt lat="40.9841917" lon="14.3120167"><ele>20.4</ele><time>2026-04-25T08:07:56.382Z</time></trkpt><trkpt lat="40.9842783" lon="14.3119717"><ele>20.6</ele><time>2026-04-25T08:07:57.382Z</time></trkpt><trkpt lat="40.9843667" lon="14.3119267"><ele>20.8</ele><time>2026-04-25T08:07:58.383Z</time></trkpt><trkpt lat="40.984455" lon="14.3118817"><ele>21.0</ele><time>2026-04-25T08:07:59.382Z</time></trkpt><trkpt lat="40.9845433" lon="14.3118367"><ele>21.0</ele><time>2026-04-25T08:08:00.382Z</time></trkpt><trkpt lat="40.98463" lon="14.3117933"><ele>21.0</ele><time>2026-04-25T08:08:01.382Z</time></trkpt><trkpt lat="40.9847183" lon="14.3117467"><ele>21.0</ele><time>2026-04-25T08:08:02.382Z</time></trkpt><trkpt lat="40.9848067" lon="14.3117017"><ele>21.0</ele><time>2026-04-25T08:08:03.382Z</time></trkpt><trkpt lat="40.9848933" lon="14.311655"><ele>21.0</ele><time>2026-04-25T08:08:04.382Z</time></trkpt><trkpt lat="40.9849833" lon="14.3116117"><ele>20.8</ele><time>2026-04-25T08:08:05.383Z</time></trkpt><trkpt lat="40.985075" lon="14.3115783"><ele>20.6</ele><time>2026-04-25T08:08:06.383Z</time></trkpt><trkpt lat="40.9851683" lon="14.31155"><ele>20.4</ele><time>2026-04-25T08:08:07.382Z</time></trkpt><trkpt lat="40.985255" lon="14.3115333"><ele>20.2</ele><time>2026-04-25T08:08:08.384Z</time></trkpt><trkpt lat="40.9853483" lon="14.3115283"><ele>20.0</ele><time>2026-04-25T08:08:09.382Z</time></trkpt><trkpt lat="40.98544" lon="14.3115317"><ele>20.0</ele><time>2026-04-25T08:08:10.382Z</time></trkpt><trkpt lat="40.9855383" lon="14.311545"><ele>20.0</ele><time>2026-04-25T08:08:11.382Z</time></trkpt><trkpt lat="40.9856333" lon="14.3115683"><ele>20.0</ele><time>2026-04-25T08:08:12.382Z</time></trkpt><trkpt lat="40.9857283" lon="14.311585"><ele>20.0</ele><time>2026-04-25T08:08:13.381Z</time></trkpt><trkpt lat="40.98582" lon="14.3116"><ele>20.0</ele><time>2026-04-25T08:08:14.382Z</time></trkpt><trkpt lat="40.9859133" lon="14.3116183"><ele>20.0</ele><time>2026-04-25T08:08:15.382Z</time></trkpt><trkpt lat="40.986005" lon="14.31164"><ele>20.0</ele><time>2026-04-25T08:08:16.382Z</time></trkpt><trkpt lat="40.9860967" lon="14.3116583"><ele>20.0</ele><time>2026-04-25T08:08:17.382Z</time></trkpt><trkpt lat="40.98619" lon="14.3116767"><ele>20.0</ele><time>2026-04-25T08:08:18.381Z</time></trkpt><trkpt lat="40.986285" lon="14.31169"><ele>20.0</ele><time>2026-04-25T08:08:19.382Z</time></trkpt><trkpt lat="40.9863817" lon="14.311705"><ele>20.0</ele><time>2026-04-25T08:08:20.381Z</time></trkpt><trkpt lat="40.9864767" lon="14.31172"><ele>20.0</ele><time>2026-04-25T08:08:21.382Z</time></trkpt><trkpt lat="40.9865717" lon="14.311735"><ele>20.0</ele><time>2026-04-25T08:08:22.382Z</time></trkpt><trkpt lat="40.9866667" lon="14.3117533"><ele>20.0</ele><time>2026-04-25T08:08:23.382Z</time></trkpt><trkpt lat="40.98676" lon="14.3117717"><ele>20.0</ele><time>2026-04-25T08:08:24.382Z</time></trkpt><trkpt lat="40.9868533" lon="14.3117917"><ele>20.0</ele><time>2026-04-25T08:08:25.381Z</time></trkpt><trkpt lat="40.986945" lon="14.3118183"><ele>20.0</ele><time>2026-04-25T08:08:26.382Z</time></trkpt><trkpt lat="40.987035" lon="14.3118567"><ele>20.0</ele><time>2026-04-25T08:08:27.385Z</time></trkpt><trkpt lat="40.9871233" lon="14.3119067"><ele>20.0</ele><time>2026-04-25T08:08:28.381Z</time></trkpt><trkpt lat="40.9872083" lon="14.3119683"><ele>20.0</ele><time>2026-04-25T08:08:29.381Z</time></trkpt><trkpt lat="40.9872917" lon="14.3120467"><ele>20.0</ele><time>2026-04-25T08:08:30.381Z</time></trkpt><trkpt lat="40.98737" lon="14.3121267"><ele>20.0</ele><time>2026-04-25T08:08:31.384Z</time></trkpt><trkpt lat="40.9874483" lon="14.3122067"><ele>20.0</ele><time>2026-04-25T08:08:32.382Z</time></trkpt><trkpt lat="40.9875283" lon="14.31229"><ele>20.0</ele><time>2026-04-25T08:08:33.382Z</time></trkpt><trkpt lat="40.9876067" lon="14.3123733"><ele>20.0</ele><time>2026-04-25T08:08:34.382Z</time></trkpt><trkpt lat="40.9876867" lon="14.3124567"><ele>19.8</ele><time>2026-04-25T08:08:35.381Z</time></trkpt><trkpt lat="40.987765" lon="14.3125417"><ele>19.6</ele><time>2026-04-25T08:08:36.381Z</time></trkpt><trkpt lat="40.9878433" lon="14.3126267"><ele>19.4</ele><time>2026-04-25T08:08:37.381Z</time></trkpt><trkpt lat="40.9879233" lon="14.3127067"><ele>19.2</ele><time>2026-04-25T08:08:38.382Z</time></trkpt><trkpt lat="40.988005" lon="14.312785"><ele>19.0</ele><time>2026-04-25T08:08:39.382Z</time></trkpt><trkpt lat="40.9880917" lon="14.3128667"><ele>19.0</ele><time>2026-04-25T08:08:40.382Z</time></trkpt><trkpt lat="40.988175" lon="14.3129467"><ele>19.0</ele><time>2026-04-25T08:08:41.382Z</time></trkpt><trkpt lat="40.9882517" lon="14.31303"><ele>19.0</ele><time>2026-04-25T08:08:42.382Z</time></trkpt><trkpt lat="40.98833" lon="14.31311"><ele>19.0</ele><time>2026-04-25T08:08:43.382Z</time></trkpt><trkpt lat="40.9884117" lon="14.3131917"><ele>19.0</ele><time>2026-04-25T08:08:44.383Z</time></trkpt><trkpt lat="40.9884933" lon="14.31327"><ele>19.4</ele><time>2026-04-25T08:08:45.382Z</time></trkpt><trkpt lat="40.9885733" lon="14.3133533"><ele>19.799999999999997</ele><time>2026-04-25T08:08:46.383Z</time></trkpt><trkpt lat="40.9886517" lon="14.3134333"><ele>20.200000000000003</ele><time>2026-04-25T08:08:47.383Z</time></trkpt><trkpt lat="40.9887333" lon="14.3135117"><ele>20.6</ele><time>2026-04-25T08:08:48.382Z</time></trkpt><trkpt lat="40.9888117" lon="14.3135933"><ele>21.0</ele><time>2026-04-25T08:08:49.382Z</time></trkpt><trkpt lat="40.9888867" lon="14.31367"><ele>21.0</ele><time>2026-04-25T08:08:50.383Z</time></trkpt><trkpt lat="40.9889633" lon="14.31375"><ele>21.0</ele><time>2026-04-25T08:08:51.382Z</time></trkpt><trkpt lat="40.9890383" lon="14.31383"><ele>21.0</ele><time>2026-04-25T08:08:52.386Z</time></trkpt><trkpt lat="40.989115" lon="14.31391"><ele>21.0</ele><time>2026-04-25T08:08:53.382Z</time></trkpt><trkpt lat="40.9891967" lon="14.31399"><ele>21.0</ele><time>2026-04-25T08:08:54.382Z</time></trkpt><trkpt lat="40.989275" lon="14.31407"><ele>21.0</ele><time>2026-04-25T08:08:55.382Z</time></trkpt><trkpt lat="40.989355" lon="14.3141533"><ele>21.0</ele><time>2026-04-25T08:08:56.381Z</time></trkpt><trkpt lat="40.989435" lon="14.3142367"><ele>21.0</ele><time>2026-04-25T08:08:57.381Z</time></trkpt><trkpt lat="40.9895133" lon="14.3143233"><ele>21.0</ele><time>2026-04-25T08:08:58.38Z</time></trkpt><trkpt lat="40.9895933" lon="14.31441"><ele>21.0</ele><time>2026-04-25T08:08:59.382Z</time></trkpt><trkpt lat="40.9896717" lon="14.3144867"><ele>21.0</ele><time>2026-04-25T08:09:00.382Z</time></trkpt><trkpt lat="40.98975" lon="14.314565"><ele>21.0</ele><time>2026-04-25T08:09:01.383Z</time></trkpt><trkpt lat="40.9898267" lon="14.3146417"><ele>21.0</ele><time>2026-04-25T08:09:02.382Z</time></trkpt><trkpt lat="40.9899033" lon="14.3147183"><ele>21.0</ele><time>2026-04-25T08:09:03.381Z</time></trkpt><trkpt lat="40.98998" lon="14.3147983"><ele>21.0</ele><time>2026-04-25T08:09:04.382Z</time></trkpt><trkpt lat="40.99006" lon="14.3148767"><ele>20.8</ele><time>2026-04-25T08:09:05.382Z</time></trkpt><trkpt lat="40.9901417" lon="14.3149633"><ele>20.6</ele><time>2026-04-25T08:09:06.385Z</time></trkpt><trkpt lat="40.990225" lon="14.315045"><ele>20.4</ele><time>2026-04-25T08:09:07.382Z</time></trkpt><trkpt lat="40.99031" lon="14.315125"><ele>20.2</ele><time>2026-04-25T08:09:08.381Z</time></trkpt><trkpt lat="40.990395" lon="14.3152083"><ele>20.0</ele><time>2026-04-25T08:09:09.381Z</time></trkpt><trkpt lat="40.99048" lon="14.3152917"><ele>20.0</ele><time>2026-04-25T08:09:10.381Z</time></trkpt><trkpt lat="40.9905617" lon="14.3153667"><ele>20.0</ele><time>2026-04-25T08:09:11.384Z</time></trkpt><trkpt lat="40.9906367" lon="14.3154517"><ele>20.0</ele><time>2026-04-25T08:09:12.381Z</time></trkpt><trkpt lat="40.9907117" lon="14.31554"><ele>20.0</ele><time>2026-04-25T08:09:13.381Z</time></trkpt><trkpt lat="40.9907833" lon="14.3156283"><ele>20.0</ele><time>2026-04-25T08:09:14.381Z</time></trkpt><trkpt lat="40.990855" lon="14.3157183"><ele>19.8</ele><time>2026-04-25T08:09:15.38Z</time></trkpt><trkpt lat="40.9909317" lon="14.3158017"><ele>19.6</ele><time>2026-04-25T08:09:16.382Z</time></trkpt><trkpt lat="40.9910083" lon="14.31589"><ele>19.4</ele><time>2026-04-25T08:09:17.38Z</time></trkpt><trkpt lat="40.9910833" lon="14.3159783"><ele>19.2</ele><time>2026-04-25T08:09:18.38Z</time></trkpt><trkpt lat="40.9911617" lon="14.3160617"><ele>19.0</ele><time>2026-04-25T08:09:19.38Z</time></trkpt><trkpt lat="40.9912383" lon="14.31614"><ele>19.0</ele><time>2026-04-25T08:09:20.381Z</time></trkpt><trkpt lat="40.9913183" lon="14.316225"><ele>19.0</ele><time>2026-04-25T08:09:21.381Z</time></trkpt><trkpt lat="40.9913983" lon="14.3163133"><ele>19.0</ele><time>2026-04-25T08:09:22.381Z</time></trkpt><trkpt lat="40.9914783" lon="14.3163983"><ele>19.0</ele><time>2026-04-25T08:09:23.384Z</time></trkpt><trkpt lat="40.9915583" lon="14.31648"><ele>19.0</ele><time>2026-04-25T08:09:24.381Z</time></trkpt><trkpt lat="40.99164" lon="14.3165633"><ele>19.2</ele><time>2026-04-25T08:09:25.381Z</time></trkpt><trkpt lat="40.9917217" lon="14.3166467"><ele>19.4</ele><time>2026-04-25T08:09:26.382Z</time></trkpt><trkpt lat="40.991805" lon="14.31673"><ele>19.6</ele><time>2026-04-25T08:09:27.381Z</time></trkpt><trkpt lat="40.9918867" lon="14.3168133"><ele>19.8</ele><time>2026-04-25T08:09:28.382Z</time></trkpt><trkpt lat="40.9919683" lon="14.3168983"><ele>20.0</ele><time>2026-04-25T08:09:29.381Z</time></trkpt><trkpt lat="40.9920533" lon="14.3169833"><ele>20.0</ele><time>2026-04-25T08:09:30.381Z</time></trkpt><trkpt lat="40.9921383" lon="14.3170617"><ele>20.0</ele><time>2026-04-25T08:09:31.38Z</time></trkpt><trkpt lat="40.9922217" lon="14.31714"><ele>20.0</ele><time>2026-04-25T08:09:32.383Z</time></trkpt><trkpt lat="40.992305" lon="14.3172183"><ele>20.0</ele><time>2026-04-25T08:09:33.381Z</time></trkpt><trkpt lat="40.9923917" lon="14.3172967"><ele>20.0</ele><time>2026-04-25T08:09:34.383Z</time></trkpt><trkpt lat="40.99248" lon="14.317375"><ele>19.8</ele><time>2026-04-25T08:09:35.381Z</time></trkpt><trkpt lat="40.9925667" lon="14.31745"><ele>19.6</ele><time>2026-04-25T08:09:36.381Z</time></trkpt><trkpt lat="40.992655" lon="14.3175233"><ele>19.4</ele><time>2026-04-25T08:09:37.381Z</time></trkpt><trkpt lat="40.992745" lon="14.317585"><ele>19.2</ele><time>2026-04-25T08:09:38.381Z</time></trkpt><trkpt lat="40.99284" lon="14.3176417"><ele>19.0</ele><time>2026-04-25T08:09:39.382Z</time></trkpt><trkpt lat="40.9929383" lon="14.3176867"><ele>19.0</ele><time>2026-04-25T08:09:40.381Z</time></trkpt><trkpt lat="40.99304" lon="14.317725"><ele>19.0</ele><time>2026-04-25T08:09:41.38Z</time></trkpt><trkpt lat="40.9931417" lon="14.3177533"><ele>19.0</ele><time>2026-04-25T08:09:42.381Z</time></trkpt><trkpt lat="40.993245" lon="14.31777"><ele>19.0</ele><time>2026-04-25T08:09:43.38Z</time></trkpt><trkpt lat="40.9933467" lon="14.3177883"><ele>19.0</ele><time>2026-04-25T08:09:44.381Z</time></trkpt><trkpt lat="40.99345" lon="14.317805"><ele>19.0</ele><time>2026-04-25T08:09:45.381Z</time></trkpt><trkpt lat="40.993555" lon="14.31782"><ele>19.0</ele><time>2026-04-25T08:09:46.379Z</time></trkpt><trkpt lat="40.9936567" lon="14.3178317"><ele>19.0</ele><time>2026-04-25T08:09:47.381Z</time></trkpt><trkpt lat="40.99376" lon="14.317845"><ele>19.0</ele><time>2026-04-25T08:09:48.381Z</time></trkpt><trkpt lat="40.9938633" lon="14.3178517"><ele>19.0</ele><time>2026-04-25T08:09:49.381Z</time></trkpt><trkpt lat="40.993965" lon="14.31786"><ele>19.0</ele><time>2026-04-25T08:09:50.381Z</time></trkpt><trkpt lat="40.99407" lon="14.3178717"><ele>19.0</ele><time>2026-04-25T08:09:51.38Z</time></trkpt><trkpt lat="40.9941717" lon="14.3178783"><ele>19.0</ele><time>2026-04-25T08:09:52.38Z</time></trkpt><trkpt lat="40.9942733" lon="14.317885"><ele>19.0</ele><time>2026-04-25T08:09:53.381Z</time></trkpt><trkpt lat="40.9943767" lon="14.3178917"><ele>19.0</ele><time>2026-04-25T08:09:54.38Z</time></trkpt><trkpt lat="40.9944817" lon="14.3179017"><ele>19.0</ele><time>2026-04-25T08:09:55.381Z</time></trkpt><trkpt lat="40.994585" lon="14.3179133"><ele>19.0</ele><time>2026-04-25T08:09:56.382Z</time></trkpt><trkpt lat="40.9946883" lon="14.3179217"><ele>19.0</ele><time>2026-04-25T08:09:57.382Z</time></trkpt><trkpt lat="40.99479" lon="14.3179317"><ele>19.0</ele><time>2026-04-25T08:09:58.381Z</time></trkpt><trkpt lat="40.99489" lon="14.317945"><ele>19.0</ele><time>2026-04-25T08:09:59.381Z</time></trkpt><trkpt lat="40.99499" lon="14.3179583"><ele>19.0</ele><time>2026-04-25T08:10:00.382Z</time></trkpt><trkpt lat="40.99509" lon="14.3179667"><ele>19.0</ele><time>2026-04-25T08:10:01.381Z</time></trkpt><trkpt lat="40.99519" lon="14.3179767"><ele>19.0</ele><time>2026-04-25T08:10:02.381Z</time></trkpt><trkpt lat="40.995295" lon="14.317985"><ele>19.0</ele><time>2026-04-25T08:10:03.381Z</time></trkpt><trkpt lat="40.995395" lon="14.3179983"><ele>19.0</ele><time>2026-04-25T08:10:04.381Z</time></trkpt><trkpt lat="40.9954967" lon="14.3180067"><ele>19.0</ele><time>2026-04-25T08:10:05.381Z</time></trkpt><trkpt lat="40.9956" lon="14.3180167"><ele>19.0</ele><time>2026-04-25T08:10:06.381Z</time></trkpt><trkpt lat="40.9957017" lon="14.3180283"><ele>19.0</ele><time>2026-04-25T08:10:07.381Z</time></trkpt><trkpt lat="40.9958033" lon="14.3180383"><ele>19.0</ele><time>2026-04-25T08:10:08.383Z</time></trkpt><trkpt lat="40.995905" lon="14.3180467"><ele>19.0</ele><time>2026-04-25T08:10:09.384Z</time></trkpt><trkpt lat="40.996005" lon="14.3180567"><ele>19.2</ele><time>2026-04-25T08:10:10.381Z</time></trkpt><trkpt lat="40.9961083" lon="14.3180667"><ele>19.4</ele><time>2026-04-25T08:10:11.381Z</time></trkpt><trkpt lat="40.99621" lon="14.31808"><ele>19.6</ele><time>2026-04-25T08:10:12.381Z</time></trkpt><trkpt lat="40.9963133" lon="14.3180933"><ele>19.8</ele><time>2026-04-25T08:10:13.382Z</time></trkpt><trkpt lat="40.996415" lon="14.3181017"><ele>20.0</ele><time>2026-04-25T08:10:14.381Z</time></trkpt><trkpt lat="40.9965167" lon="14.3181133"><ele>20.0</ele><time>2026-04-25T08:10:15.381Z</time></trkpt><trkpt lat="40.99662" lon="14.318125"><ele>20.0</ele><time>2026-04-25T08:10:16.38Z</time></trkpt><trkpt lat="40.9967217" lon="14.3181333"><ele>20.0</ele><time>2026-04-25T08:10:17.381Z</time></trkpt><trkpt lat="40.9968233" lon="14.31814"><ele>20.0</ele><time>2026-04-25T08:10:18.383Z</time></trkpt><trkpt lat="40.9969283" lon="14.3181483"><ele>20.0</ele><time>2026-04-25T08:10:19.382Z</time></trkpt><trkpt lat="40.997035" lon="14.3181583"><ele>20.0</ele><time>2026-04-25T08:10:20.382Z</time></trkpt><trkpt lat="40.9971433" lon="14.31817"><ele>20.0</ele><time>2026-04-25T08:10:21.381Z</time></trkpt><trkpt lat="40.99725" lon="14.3181817"><ele>20.0</ele><time>2026-04-25T08:10:22.38Z</time></trkpt><trkpt lat="40.997355" lon="14.3181917"><ele>20.0</ele><time>2026-04-25T08:10:23.39Z</time></trkpt><trkpt lat="40.99746" lon="14.318195"><ele>20.0</ele><time>2026-04-25T08:10:24.381Z</time></trkpt><trkpt lat="40.9975617" lon="14.3182017"><ele>20.0</ele><time>2026-04-25T08:10:25.382Z</time></trkpt><trkpt lat="40.99766" lon="14.31821"><ele>20.0</ele><time>2026-04-25T08:10:26.382Z</time></trkpt><trkpt lat="40.99776" lon="14.3182167"><ele>20.0</ele><time>2026-04-25T08:10:27.381Z</time></trkpt><trkpt lat="40.99786" lon="14.3182283"><ele>20.0</ele><time>2026-04-25T08:10:28.381Z</time></trkpt><trkpt lat="40.9979617" lon="14.3182433"><ele>20.0</ele><time>2026-04-25T08:10:29.382Z</time></trkpt><trkpt lat="40.9980633" lon="14.3182583"><ele>20.0</ele><time>2026-04-25T08:10:30.381Z</time></trkpt><trkpt lat="40.9981633" lon="14.31827"><ele>20.0</ele><time>2026-04-25T08:10:31.381Z</time></trkpt><trkpt lat="40.9982633" lon="14.3182817"><ele>20.0</ele><time>2026-04-25T08:10:32.38Z</time></trkpt><trkpt lat="40.9983617" lon="14.3182917"><ele>20.0</ele><time>2026-04-25T08:10:33.381Z</time></trkpt><trkpt lat="40.99846" lon="14.3183"><ele>20.0</ele><time>2026-04-25T08:10:34.381Z</time></trkpt><trkpt lat="40.9985617" lon="14.3183083"><ele>20.2</ele><time>2026-04-25T08:10:35.381Z</time></trkpt><trkpt lat="40.9986633" lon="14.3183183"><ele>20.4</ele><time>2026-04-25T08:10:36.383Z</time></trkpt><trkpt lat="40.998765" lon="14.3183333"><ele>20.6</ele><time>2026-04-25T08:10:37.382Z</time></trkpt><trkpt lat="40.9988683" lon="14.3183483"><ele>20.8</ele><time>2026-04-25T08:10:38.38Z</time></trkpt><trkpt lat="40.9989733" lon="14.3183633"><ele>21.0</ele><time>2026-04-25T08:10:39.381Z</time></trkpt><trkpt lat="40.9990767" lon="14.3183783"><ele>21.0</ele><time>2026-04-25T08:10:40.381Z</time></trkpt><trkpt lat="40.99918" lon="14.3183883"><ele>21.0</ele><time>2026-04-25T08:10:41.381Z</time></trkpt><trkpt lat="40.999285" lon="14.3183983"><ele>21.0</ele><time>2026-04-25T08:10:42.381Z</time></trkpt><trkpt lat="40.99939" lon="14.31841"><ele>21.0</ele><time>2026-04-25T08:10:43.384Z</time></trkpt><trkpt lat="40.9994933" lon="14.3184233"><ele>21.0</ele><time>2026-04-25T08:10:44.381Z</time></trkpt><trkpt lat="40.9995983" lon="14.318435"><ele>21.0</ele><time>2026-04-25T08:10:45.383Z</time></trkpt><trkpt lat="40.9997033" lon="14.318445"><ele>21.0</ele><time>2026-04-25T08:10:46.383Z</time></trkpt><trkpt lat="40.9998067" lon="14.3184583"><ele>21.0</ele><time>2026-04-25T08:10:47.386Z</time></trkpt><trkpt lat="40.9999083" lon="14.3184733"><ele>21.0</ele><time>2026-04-25T08:10:48.383Z</time></trkpt><trkpt lat="41.0000083" lon="14.3184867"><ele>21.0</ele><time>2026-04-25T08:10:49.384Z</time></trkpt><trkpt lat="41.0001117" lon="14.3184983"><ele>21.0</ele><time>2026-04-25T08:10:50.383Z</time></trkpt><trkpt lat="41.000215" lon="14.3185083"><ele>21.0</ele><time>2026-04-25T08:10:51.382Z</time></trkpt><trkpt lat="41.00032" lon="14.31852"><ele>21.0</ele><time>2026-04-25T08:10:52.383Z</time></trkpt><trkpt lat="41.000425" lon="14.3185267"><ele>21.0</ele><time>2026-04-25T08:10:53.381Z</time></trkpt><trkpt lat="41.00053" lon="14.3185367"><ele>21.0</ele><time>2026-04-25T08:10:54.383Z</time></trkpt><trkpt lat="41.0006317" lon="14.318545"><ele>21.0</ele><time>2026-04-25T08:10:55.382Z</time></trkpt><trkpt lat="41.0007317" lon="14.3185517"><ele>21.0</ele><time>2026-04-25T08:10:56.382Z</time></trkpt><trkpt lat="41.0008317" lon="14.3185567"><ele>21.0</ele><time>2026-04-25T08:10:57.382Z</time></trkpt><trkpt lat="41.00093" lon="14.3185667"><ele>21.0</ele><time>2026-04-25T08:10:58.381Z</time></trkpt><trkpt lat="41.00103" lon="14.31858"><ele>21.0</ele><time>2026-04-25T08:10:59.382Z</time></trkpt><trkpt lat="41.0011283" lon="14.31859"><ele>21.0</ele><time>2026-04-25T08:11:00.382Z</time></trkpt><trkpt lat="41.001225" lon="14.31861"><ele>21.0</ele><time>2026-04-25T08:11:01.383Z</time></trkpt><trkpt lat="41.001315" lon="14.3186517"><ele>21.0</ele><time>2026-04-25T08:11:02.384Z</time></trkpt><trkpt lat="41.0014" lon="14.31871"><ele>21.0</ele><time>2026-04-25T08:11:03.383Z</time></trkpt><trkpt lat="41.0014783" lon="14.3187833"><ele>21.0</ele><time>2026-04-25T08:11:04.382Z</time></trkpt><trkpt lat="41.0015433" lon="14.3188717"><ele>21.0</ele><time>2026-04-25T08:11:05.382Z</time></trkpt><trkpt lat="41.0016" lon="14.31897"><ele>21.0</ele><time>2026-04-25T08:11:06.385Z</time></trkpt><trkpt lat="41.0016617" lon="14.3190617"><ele>21.0</ele><time>2026-04-25T08:11:07.383Z</time></trkpt><trkpt lat="41.00173" lon="14.3191267"><ele>21.0</ele><time>2026-04-25T08:11:08.382Z</time></trkpt><trkpt lat="41.0018033" lon="14.3191667"><ele>21.0</ele><time>2026-04-25T08:11:09.381Z</time></trkpt><trkpt lat="41.00188" lon="14.3191817"><ele>21.0</ele><time>2026-04-25T08:11:10.383Z</time></trkpt><trkpt lat="41.0019483" lon="14.3191533"><ele>21.0</ele><time>2026-04-25T08:11:11.382Z</time></trkpt><trkpt lat="41.0020167" lon="14.319085"><ele>21.0</ele><time>2026-04-25T08:11:12.382Z</time></trkpt><trkpt lat="41.00208" lon="14.3189717"><ele>21.0</ele><time>2026-04-25T08:11:13.383Z</time></trkpt><trkpt lat="41.0021533" lon="14.318895"><ele>21.0</ele><time>2026-04-25T08:11:14.382Z</time></trkpt><trkpt lat="41.002235" lon="14.318835"><ele>21.0</ele><time>2026-04-25T08:11:15.382Z</time></trkpt><trkpt lat="41.0023267" lon="14.3187933"><ele>21.0</ele><time>2026-04-25T08:11:16.381Z</time></trkpt><trkpt lat="41.00242" lon="14.3187733"><ele>21.0</ele><time>2026-04-25T08:11:17.383Z</time></trkpt><trkpt lat="41.0025167" lon="14.31876"><ele>21.0</ele><time>2026-04-25T08:11:18.382Z</time></trkpt><trkpt lat="41.002615" lon="14.3187583"><ele>21.0</ele><time>2026-04-25T08:11:19.383Z</time></trkpt><trkpt lat="41.0027117" lon="14.3187633"><ele>21.0</ele><time>2026-04-25T08:11:20.382Z</time></trkpt><trkpt lat="41.002805" lon="14.318775"><ele>21.200000000000003</ele><time>2026-04-25T08:11:21.382Z</time></trkpt><trkpt lat="41.0028983" lon="14.3187817"><ele>21.400000000000002</ele><time>2026-04-25T08:11:22.381Z</time></trkpt><trkpt lat="41.00299" lon="14.318795"><ele>21.6</ele><time>2026-04-25T08:11:23.382Z</time></trkpt><trkpt lat="41.0030817" lon="14.318805"><ele>21.8</ele><time>2026-04-25T08:11:24.382Z</time></trkpt><trkpt lat="41.0031733" lon="14.3188183"><ele>22.0</ele><time>2026-04-25T08:11:25.383Z</time></trkpt><trkpt lat="41.0032683" lon="14.3188317"><ele>21.400000000000002</ele><time>2026-04-25T08:11:26.382Z</time></trkpt><trkpt lat="41.0033617" lon="14.318845"><ele>20.8</ele><time>2026-04-25T08:11:27.383Z</time></trkpt><trkpt lat="41.0034567" lon="14.31886"><ele>20.2</ele><time>2026-04-25T08:11:28.381Z</time></trkpt><trkpt lat="41.0035517" lon="14.318875"><ele>19.6</ele><time>2026-04-25T08:11:29.382Z</time></trkpt><trkpt lat="41.0036483" lon="14.3188933"><ele>19.0</ele><time>2026-04-25T08:11:30.383Z</time></trkpt><trkpt lat="41.0037467" lon="14.3189083"><ele>19.0</ele><time>2026-04-25T08:11:31.386Z</time></trkpt><trkpt lat="41.003845" lon="14.318925"><ele>19.0</ele><time>2026-04-25T08:11:32.382Z</time></trkpt><trkpt lat="41.003945" lon="14.318945"><ele>19.0</ele><time>2026-04-25T08:11:33.382Z</time></trkpt><trkpt lat="41.0040417" lon="14.318965"><ele>19.0</ele><time>2026-04-25T08:11:34.383Z</time></trkpt><trkpt lat="41.0041383" lon="14.318985"><ele>19.0</ele><time>2026-04-25T08:11:35.387Z</time></trkpt><trkpt lat="41.0042367" lon="14.319005"><ele>19.799999999999997</ele><time>2026-04-25T08:11:36.383Z</time></trkpt><trkpt lat="41.0043333" lon="14.319025"><ele>20.599999999999998</ele><time>2026-04-25T08:11:37.383Z</time></trkpt><trkpt lat="41.0044267" lon="14.3190467"><ele>21.4</ele><time>2026-04-25T08:11:38.382Z</time></trkpt><trkpt lat="41.0045217" lon="14.3190717"><ele>22.2</ele><time>2026-04-25T08:11:39.383Z</time></trkpt><trkpt lat="41.0046167" lon="14.3190967"><ele>23.0</ele><time>2026-04-25T08:11:40.389Z</time></trkpt><trkpt lat="41.0047117" lon="14.3191233"><ele>23.0</ele><time>2026-04-25T08:11:41.382Z</time></trkpt><trkpt lat="41.004805" lon="14.3191517"><ele>23.0</ele><time>2026-04-25T08:11:42.384Z</time></trkpt><trkpt lat="41.0048983" lon="14.31918"><ele>23.0</ele><time>2026-04-25T08:11:43.388Z</time></trkpt><trkpt lat="41.0049917" lon="14.31921"><ele>23.0</ele><time>2026-04-25T08:11:44.384Z</time></trkpt><trkpt lat="41.00508" lon="14.3192417"><ele>23.0</ele><time>2026-04-25T08:11:45.382Z</time></trkpt><trkpt lat="41.00517" lon="14.3192783"><ele>22.799999999999997</ele><time>2026-04-25T08:11:46.382Z</time></trkpt><trkpt lat="41.00526" lon="14.319315"><ele>22.6</ele><time>2026-04-25T08:11:47.381Z</time></trkpt><trkpt lat="41.0053517" lon="14.3193567"><ele>22.4</ele><time>2026-04-25T08:11:48.383Z</time></trkpt><trkpt lat="41.0054383" lon="14.3194"><ele>22.200000000000003</ele><time>2026-04-25T08:11:49.382Z</time></trkpt><trkpt lat="41.0055267" lon="14.3194433"><ele>22.0</ele><time>2026-04-25T08:11:50.386Z</time></trkpt><trkpt lat="41.0056183" lon="14.3194833"><ele>22.0</ele><time>2026-04-25T08:11:51.382Z</time></trkpt><trkpt lat="41.0057117" lon="14.31952"><ele>22.0</ele><time>2026-04-25T08:11:52.383Z</time></trkpt><trkpt lat="41.0058033" lon="14.31955"><ele>22.0</ele><time>2026-04-25T08:11:53.384Z</time></trkpt><trkpt lat="41.0058917" lon="14.3195783"><ele>22.0</ele><time>2026-04-25T08:11:54.382Z</time></trkpt><trkpt lat="41.0059817" lon="14.3196083"><ele>22.0</ele><time>2026-04-25T08:11:55.382Z</time></trkpt><trkpt lat="41.0060733" lon="14.3196383"><ele>21.8</ele><time>2026-04-25T08:11:56.383Z</time></trkpt><trkpt lat="41.006165" lon="14.3196683"><ele>21.6</ele><time>2026-04-25T08:11:57.381Z</time></trkpt><trkpt lat="41.0062533" lon="14.3196967"><ele>21.400000000000002</ele><time>2026-04-25T08:11:58.383Z</time></trkpt><trkpt lat="41.006345" lon="14.3197333"><ele>21.200000000000003</ele><time>2026-04-25T08:11:59.384Z</time></trkpt><trkpt lat="41.006435" lon="14.3197683"><ele>21.0</ele><time>2026-04-25T08:12:00.382Z</time></trkpt><trkpt lat="41.0065233" lon="14.3198"><ele>21.200000000000003</ele><time>2026-04-25T08:12:01.384Z</time></trkpt><trkpt lat="41.0066117" lon="14.3198317"><ele>21.400000000000002</ele><time>2026-04-25T08:12:02.383Z</time></trkpt><trkpt lat="41.0066983" lon="14.3198617"><ele>21.6</ele><time>2026-04-25T08:12:03.383Z</time></trkpt><trkpt lat="41.00679" lon="14.3198933"><ele>21.8</ele><time>2026-04-25T08:12:04.381Z</time></trkpt><trkpt lat="41.0068767" lon="14.3199233"><ele>22.0</ele><time>2026-04-25T08:12:05.381Z</time></trkpt><trkpt lat="41.0069683" lon="14.319955"><ele>22.0</ele><time>2026-04-25T08:12:06.383Z</time></trkpt><trkpt lat="41.00706" lon="14.3199867"><ele>22.0</ele><time>2026-04-25T08:12:07.384Z</time></trkpt><trkpt lat="41.0071517" lon="14.3200167"><ele>22.0</ele><time>2026-04-25T08:12:08.383Z</time></trkpt><trkpt lat="41.007245" lon="14.32005"><ele>22.0</ele><time>2026-04-25T08:12:09.382Z</time></trkpt><trkpt lat="41.007335" lon="14.3200867"><ele>22.0</ele><time>2026-04-25T08:12:10.382Z</time></trkpt><trkpt lat="41.0074267" lon="14.3201217"><ele>21.8</ele><time>2026-04-25T08:12:11.383Z</time></trkpt><trkpt lat="41.0075183" lon="14.320155"><ele>21.6</ele><time>2026-04-25T08:12:12.383Z</time></trkpt><trkpt lat="41.0076067" lon="14.3201867"><ele>21.400000000000002</ele><time>2026-04-25T08:12:13.382Z</time></trkpt><trkpt lat="41.0076967" lon="14.320215"><ele>21.200000000000003</ele><time>2026-04-25T08:12:14.383Z</time></trkpt><trkpt lat="41.0077883" lon="14.3202417"><ele>21.0</ele><time>2026-04-25T08:12:15.384Z</time></trkpt><trkpt lat="41.0078817" lon="14.32027"><ele>21.0</ele><time>2026-04-25T08:12:16.388Z</time></trkpt><trkpt lat="41.0079683" lon="14.3203"><ele>21.0</ele><time>2026-04-25T08:12:17.384Z</time></trkpt><trkpt lat="41.008055" lon="14.3203367"><ele>21.0</ele><time>2026-04-25T08:12:18.382Z</time></trkpt><trkpt lat="41.008145" lon="14.3203683"><ele>21.0</ele><time>2026-04-25T08:12:19.381Z</time></trkpt><trkpt lat="41.0082317" lon="14.3203967"><ele>21.0</ele><time>2026-04-25T08:12:20.384Z</time></trkpt><trkpt lat="41.0083183" lon="14.3204367"><ele>20.8</ele><time>2026-04-25T08:12:21.383Z</time></trkpt><trkpt lat="41.008405" lon="14.320475"><ele>20.6</ele><time>2026-04-25T08:12:22.382Z</time></trkpt><trkpt lat="41.0084933" lon="14.3205083"><ele>20.4</ele><time>2026-04-25T08:12:23.382Z</time></trkpt><trkpt lat="41.00858" lon="14.3205417"><ele>20.2</ele><time>2026-04-25T08:12:24.382Z</time></trkpt><trkpt lat="41.0086683" lon="14.3205733"><ele>20.0</ele><time>2026-04-25T08:12:25.383Z</time></trkpt><trkpt lat="41.0087567" lon="14.3206033"><ele>20.4</ele><time>2026-04-25T08:12:26.382Z</time></trkpt><trkpt lat="41.0088467" lon="14.320635"><ele>20.8</ele><time>2026-04-25T08:12:27.382Z</time></trkpt><trkpt lat="41.0089367" lon="14.32067"><ele>21.200000000000003</ele><time>2026-04-25T08:12:28.382Z</time></trkpt><trkpt lat="41.0090267" lon="14.3207033"><ele>21.6</ele><time>2026-04-25T08:12:29.382Z</time></trkpt><trkpt lat="41.0091167" lon="14.3207383"><ele>22.0</ele><time>2026-04-25T08:12:30.385Z</time></trkpt><trkpt lat="41.0092083" lon="14.3207717"><ele>22.200000000000003</ele><time>2026-04-25T08:12:31.382Z</time></trkpt><trkpt lat="41.0093" lon="14.3208033"><ele>22.4</ele><time>2026-04-25T08:12:32.382Z</time></trkpt><trkpt lat="41.00939" lon="14.3208333"><ele>22.6</ele><time>2026-04-25T08:12:33.383Z</time></trkpt><trkpt lat="41.0094833" lon="14.320865"><ele>22.799999999999997</ele><time>2026-04-25T08:12:34.382Z</time></trkpt><trkpt lat="41.009575" lon="14.3208967"><ele>23.0</ele><time>2026-04-25T08:12:35.382Z</time></trkpt><trkpt lat="41.0096667" lon="14.320925"><ele>23.0</ele><time>2026-04-25T08:12:36.384Z</time></trkpt><trkpt lat="41.0097583" lon="14.3209567"><ele>23.0</ele><time>2026-04-25T08:12:37.382Z</time></trkpt><trkpt lat="41.0098483" lon="14.32099"><ele>23.0</ele><time>2026-04-25T08:12:38.383Z</time></trkpt><trkpt lat="41.00994" lon="14.3210233"><ele>23.0</ele><time>2026-04-25T08:12:39.381Z</time></trkpt><trkpt lat="41.01003" lon="14.3210567"><ele>23.0</ele><time>2026-04-25T08:12:40.382Z</time></trkpt><trkpt lat="41.0101183" lon="14.3210917"><ele>22.799999999999997</ele><time>2026-04-25T08:12:41.381Z</time></trkpt><trkpt lat="41.0102067" lon="14.3211233"><ele>22.6</ele><time>2026-04-25T08:12:42.381Z</time></trkpt><trkpt lat="41.0102967" lon="14.32116"><ele>22.4</ele><time>2026-04-25T08:12:43.383Z</time></trkpt><trkpt lat="41.0103867" lon="14.3211917"><ele>22.200000000000003</ele><time>2026-04-25T08:12:44.384Z</time></trkpt><trkpt lat="41.010475" lon="14.3212217"><ele>22.0</ele><time>2026-04-25T08:12:45.385Z</time></trkpt><trkpt lat="41.01056" lon="14.3212533"><ele>22.0</ele><time>2026-04-25T08:12:46.384Z</time></trkpt><trkpt lat="41.0106433" lon="14.3212917"><ele>22.0</ele><time>2026-04-25T08:12:47.382Z</time></trkpt><trkpt lat="41.0107233" lon="14.3213267"><ele>22.0</ele><time>2026-04-25T08:12:48.383Z</time></trkpt><trkpt lat="41.0108017" lon="14.3213617"><ele>22.0</ele><time>2026-04-25T08:12:49.381Z</time></trkpt><trkpt lat="41.0108833" lon="14.321395"><ele>22.0</ele><time>2026-04-25T08:12:50.382Z</time></trkpt><trkpt lat="41.0109667" lon="14.32143"><ele>22.0</ele><time>2026-04-25T08:12:51.382Z</time></trkpt><trkpt lat="41.01105" lon="14.3214733"><ele>22.200000000000003</ele><time>2026-04-25T08:12:52.382Z</time></trkpt><trkpt lat="41.01113" lon="14.3215317"><ele>22.4</ele><time>2026-04-25T08:12:53.381Z</time></trkpt><trkpt lat="41.0112117" lon="14.321605"><ele>22.6</ele><time>2026-04-25T08:12:54.383Z</time></trkpt><trkpt lat="41.0112917" lon="14.3216783"><ele>22.799999999999997</ele><time>2026-04-25T08:12:55.381Z</time></trkpt><trkpt lat="41.0113733" lon="14.3217533"><ele>23.0</ele><time>2026-04-25T08:12:56.383Z</time></trkpt><trkpt lat="41.011455" lon="14.3218317"><ele>23.0</ele><time>2026-04-25T08:12:57.382Z</time></trkpt><trkpt lat="41.01153" lon="14.3219167"><ele>23.0</ele><time>2026-04-25T08:12:58.384Z</time></trkpt><trkpt lat="41.0116033" lon="14.322"><ele>23.0</ele><time>2026-04-25T08:12:59.383Z</time></trkpt><trkpt lat="41.011675" lon="14.3220867"><ele>23.0</ele><time>2026-04-25T08:13:00.382Z</time></trkpt><trkpt lat="41.01175" lon="14.3221733"><ele>23.0</ele><time>2026-04-25T08:13:01.383Z</time></trkpt><trkpt lat="41.011825" lon="14.3222567"><ele>23.4</ele><time>2026-04-25T08:13:02.383Z</time></trkpt><trkpt lat="41.0118983" lon="14.3223383"><ele>23.799999999999997</ele><time>2026-04-25T08:13:03.383Z</time></trkpt><trkpt lat="41.011965" lon="14.32242"><ele>24.2</ele><time>2026-04-25T08:13:04.382Z</time></trkpt><trkpt lat="41.0120317" lon="14.3225067"><ele>24.6</ele><time>2026-04-25T08:13:05.383Z</time></trkpt><trkpt lat="41.0120983" lon="14.3225917"><ele>25.0</ele><time>2026-04-25T08:13:06.382Z</time></trkpt><trkpt lat="41.0121667" lon="14.3226733"><ele>25.000000000000004</ele><time>2026-04-25T08:13:07.382Z</time></trkpt><trkpt lat="41.0122367" lon="14.3227483"><ele>25.0</ele><time>2026-04-25T08:13:08.383Z</time></trkpt><trkpt lat="41.0123033" lon="14.3228233"><ele>25.0</ele><time>2026-04-25T08:13:09.382Z</time></trkpt><trkpt lat="41.01237" lon="14.3229033"><ele>25.0</ele><time>2026-04-25T08:13:10.383Z</time></trkpt><trkpt lat="41.0124367" lon="14.3229833"><ele>25.000000000000004</ele><time>2026-04-25T08:13:11.383Z</time></trkpt><trkpt lat="41.012505" lon="14.3230583"><ele>25.0</ele><time>2026-04-25T08:13:12.382Z</time></trkpt><trkpt lat="41.0125767" lon="14.3231317"><ele>25.2</ele><time>2026-04-25T08:13:13.383Z</time></trkpt><trkpt lat="41.012645" lon="14.3232083"><ele>25.4</ele><time>2026-04-25T08:13:14.384Z</time></trkpt><trkpt lat="41.0127167" lon="14.3232883"><ele>25.6</ele><time>2026-04-25T08:13:15.383Z</time></trkpt><trkpt lat="41.0127867" lon="14.3233667"><ele>25.8</ele><time>2026-04-25T08:13:16.382Z</time></trkpt><trkpt lat="41.0128567" lon="14.32344"><ele>26.0</ele><time>2026-04-25T08:13:17.383Z</time></trkpt><trkpt lat="41.01293" lon="14.3235133"><ele>26.0</ele><time>2026-04-25T08:13:18.383Z</time></trkpt><trkpt lat="41.0130017" lon="14.323595"><ele>26.0</ele><time>2026-04-25T08:13:19.383Z</time></trkpt><trkpt lat="41.0130717" lon="14.323675"><ele>26.0</ele><time>2026-04-25T08:13:20.382Z</time></trkpt><trkpt lat="41.01314" lon="14.3237567"><ele>26.0</ele><time>2026-04-25T08:13:21.382Z</time></trkpt><trkpt lat="41.013205" lon="14.32384"><ele>26.0</ele><time>2026-04-25T08:13:22.382Z</time></trkpt><trkpt lat="41.013265" lon="14.323935"><ele>25.8</ele><time>2026-04-25T08:13:23.383Z</time></trkpt><trkpt lat="41.0133267" lon="14.3240317"><ele>25.6</ele><time>2026-04-25T08:13:24.383Z</time></trkpt><trkpt lat="41.0133833" lon="14.3241317"><ele>25.4</ele><time>2026-04-25T08:13:25.383Z</time></trkpt><trkpt lat="41.0134333" lon="14.3242433"><ele>25.2</ele><time>2026-04-25T08:13:26.384Z</time></trkpt><trkpt lat="41.01348" lon="14.3243583"><ele>25.0</ele><time>2026-04-25T08:13:27.382Z</time></trkpt><trkpt lat="41.0135217" lon="14.32448"><ele>25.0</ele><time>2026-04-25T08:13:28.383Z</time></trkpt><trkpt lat="41.0135583" lon="14.3246"><ele>25.0</ele><time>2026-04-25T08:13:29.383Z</time></trkpt><trkpt lat="41.013595" lon="14.32472"><ele>25.0</ele><time>2026-04-25T08:13:30.383Z</time></trkpt><trkpt lat="41.01363" lon="14.3248383"><ele>25.0</ele><time>2026-04-25T08:13:31.383Z</time></trkpt><trkpt lat="41.0136667" lon="14.32495"><ele>25.0</ele><time>2026-04-25T08:13:32.383Z</time></trkpt><trkpt lat="41.013705" lon="14.3250617"><ele>24.6</ele><time>2026-04-25T08:13:33.384Z</time></trkpt><trkpt lat="41.0137433" lon="14.3251733"><ele>24.2</ele><time>2026-04-25T08:13:34.382Z</time></trkpt><trkpt lat="41.0137817" lon="14.32529"><ele>23.799999999999997</ele><time>2026-04-25T08:13:35.383Z</time></trkpt><trkpt lat="41.0138183" lon="14.325405"><ele>23.4</ele><time>2026-04-25T08:13:36.382Z</time></trkpt><trkpt lat="41.01386" lon="14.3255183"><ele>23.0</ele><time>2026-04-25T08:13:37.383Z</time></trkpt><trkpt lat="41.0139017" lon="14.3256317"><ele>23.0</ele><time>2026-04-25T08:13:38.384Z</time></trkpt><trkpt lat="41.0139517" lon="14.3257383"><ele>23.0</ele><time>2026-04-25T08:13:39.387Z</time></trkpt><trkpt lat="41.0140017" lon="14.3258467"><ele>23.0</ele><time>2026-04-25T08:13:40.383Z</time></trkpt><trkpt lat="41.0140533" lon="14.325955"><ele>23.0</ele><time>2026-04-25T08:13:41.384Z</time></trkpt><trkpt lat="41.0141017" lon="14.326065"><ele>23.0</ele><time>2026-04-25T08:13:42.382Z</time></trkpt><trkpt lat="41.0141667" lon="14.326175"><ele>23.0</ele><time>2026-04-25T08:13:43.385Z</time></trkpt><trkpt lat="41.0142283" lon="14.3262733"><ele>23.0</ele><time>2026-04-25T08:13:44.383Z</time></trkpt><trkpt lat="41.0142883" lon="14.3263767"><ele>23.0</ele><time>2026-04-25T08:13:45.382Z</time></trkpt><trkpt lat="41.0143583" lon="14.3264667"><ele>23.0</ele><time>2026-04-25T08:13:46.383Z</time></trkpt><trkpt lat="41.0144317" lon="14.3265567"><ele>23.0</ele><time>2026-04-25T08:13:47.381Z</time></trkpt><trkpt lat="41.014505" lon="14.3266433"><ele>23.0</ele><time>2026-04-25T08:13:48.381Z</time></trkpt><trkpt lat="41.0145733" lon="14.326735"><ele>23.0</ele><time>2026-04-25T08:13:49.38Z</time></trkpt><trkpt lat="41.0146467" lon="14.32681"><ele>23.0</ele><time>2026-04-25T08:13:50.381Z</time></trkpt><trkpt lat="41.0147217" lon="14.3268767"><ele>23.0</ele><time>2026-04-25T08:13:51.381Z</time></trkpt><trkpt lat="41.0148" lon="14.32694"><ele>23.0</ele><time>2026-04-25T08:13:52.38Z</time></trkpt><trkpt lat="41.0148833" lon="14.3270017"><ele>23.0</ele><time>2026-04-25T08:13:53.381Z</time></trkpt><trkpt lat="41.0149667" lon="14.3270617"><ele>23.0</ele><time>2026-04-25T08:13:54.381Z</time></trkpt><trkpt lat="41.0150483" lon="14.3271183"><ele>23.0</ele><time>2026-04-25T08:13:55.38Z</time></trkpt><trkpt lat="41.0151267" lon="14.3271733"><ele>23.0</ele><time>2026-04-25T08:13:56.381Z</time></trkpt><trkpt lat="41.0152033" lon="14.3272367"><ele>23.0</ele><time>2026-04-25T08:13:57.381Z</time></trkpt><trkpt lat="41.0152783" lon="14.3273017"><ele>23.0</ele><time>2026-04-25T08:13:58.384Z</time></trkpt><trkpt lat="41.0153483" lon="14.3273733"><ele>23.0</ele><time>2026-04-25T08:13:59.382Z</time></trkpt><trkpt lat="41.0154117" lon="14.327455"><ele>23.0</ele><time>2026-04-25T08:14:00.381Z</time></trkpt><trkpt lat="41.015465" lon="14.3275483"><ele>23.0</ele><time>2026-04-25T08:14:01.382Z</time></trkpt><trkpt lat="41.01551" lon="14.32765"><ele>23.0</ele><time>2026-04-25T08:14:02.381Z</time></trkpt><trkpt lat="41.015545" lon="14.3277583"><ele>23.0</ele><time>2026-04-25T08:14:03.381Z</time></trkpt><trkpt lat="41.0155717" lon="14.3278717"><ele>23.0</ele><time>2026-04-25T08:14:04.381Z</time></trkpt><trkpt lat="41.0155833" lon="14.32799"><ele>23.0</ele><time>2026-04-25T08:14:05.382Z</time></trkpt><trkpt lat="41.01559" lon="14.3281067"><ele>23.0</ele><time>2026-04-25T08:14:06.381Z</time></trkpt><trkpt lat="41.0155883" lon="14.3282233"><ele>23.0</ele><time>2026-04-25T08:14:07.382Z</time></trkpt><trkpt lat="41.0155867" lon="14.3283383"><ele>23.0</ele><time>2026-04-25T08:14:08.381Z</time></trkpt><trkpt lat="41.0155783" lon="14.3284567"><ele>23.0</ele><time>2026-04-25T08:14:09.38Z</time></trkpt><trkpt lat="41.0155717" lon="14.3285767"><ele>23.166666666666668</ele><time>2026-04-25T08:14:10.382Z</time></trkpt><trkpt lat="41.0155667" lon="14.32869"><ele>23.333333333333336</ele><time>2026-04-25T08:14:11.381Z</time></trkpt><trkpt lat="41.0155617" lon="14.3288033"><ele>23.5</ele><time>2026-04-25T08:14:12.381Z</time></trkpt><trkpt lat="41.0155567" lon="14.328915"><ele>23.666666666666668</ele><time>2026-04-25T08:14:13.381Z</time></trkpt><trkpt lat="41.01555" lon="14.3290283"><ele>23.833333333333332</ele><time>2026-04-25T08:14:14.381Z</time></trkpt><trkpt lat="41.015545" lon="14.32914"><ele>24.0</ele><time>2026-04-25T08:14:15.381Z</time></trkpt><trkpt lat="41.0155383" lon="14.3292517"><ele>23.666666666666668</ele><time>2026-04-25T08:14:16.381Z</time></trkpt><trkpt lat="41.0155333" lon="14.3293617"><ele>23.333333333333332</ele><time>2026-04-25T08:14:17.382Z</time></trkpt><trkpt lat="41.01553" lon="14.32947"><ele>23.0</ele><time>2026-04-25T08:14:18.381Z</time></trkpt><trkpt lat="41.0155233" lon="14.3295767"><ele>22.666666666666664</ele><time>2026-04-25T08:14:19.381Z</time></trkpt><trkpt lat="41.0155183" lon="14.3296867"><ele>22.333333333333332</ele><time>2026-04-25T08:14:20.381Z</time></trkpt><trkpt lat="41.0155117" lon="14.3297967"><ele>22.0</ele><time>2026-04-25T08:14:21.382Z</time></trkpt><trkpt lat="41.0155067" lon="14.329905"><ele>22.0</ele><time>2026-04-25T08:14:22.381Z</time></trkpt><trkpt lat="41.0155033" lon="14.3300133"><ele>22.0</ele><time>2026-04-25T08:14:23.381Z</time></trkpt><trkpt lat="41.0155" lon="14.3301217"><ele>22.0</ele><time>2026-04-25T08:14:24.381Z</time></trkpt><trkpt lat="41.0155" lon="14.33023"><ele>22.0</ele><time>2026-04-25T08:14:25.381Z</time></trkpt><trkpt lat="41.015505" lon="14.33034"><ele>22.0</ele><time>2026-04-25T08:14:26.381Z</time></trkpt><trkpt lat="41.01551" lon="14.3304483"><ele>22.0</ele><time>2026-04-25T08:14:27.382Z</time></trkpt><trkpt lat="41.01552" lon="14.3305567"><ele>22.333333333333332</ele><time>2026-04-25T08:14:28.381Z</time></trkpt><trkpt lat="41.01553" lon="14.330665"><ele>22.666666666666664</ele><time>2026-04-25T08:14:29.381Z</time></trkpt><trkpt lat="41.0155367" lon="14.3307767"><ele>23.0</ele><time>2026-04-25T08:14:30.381Z</time></trkpt><trkpt lat="41.0155367" lon="14.33089"><ele>23.333333333333332</ele><time>2026-04-25T08:14:31.38Z</time></trkpt><trkpt lat="41.0155333" lon="14.3310017"><ele>23.666666666666668</ele><time>2026-04-25T08:14:32.381Z</time></trkpt><trkpt lat="41.0155267" lon="14.3311167"><ele>24.0</ele><time>2026-04-25T08:14:33.382Z</time></trkpt><trkpt lat="41.015525" lon="14.3312333"><ele>24.0</ele><time>2026-04-25T08:14:34.381Z</time></trkpt><trkpt lat="41.01553" lon="14.3313467"><ele>24.0</ele><time>2026-04-25T08:14:35.382Z</time></trkpt><trkpt lat="41.0155317" lon="14.3314583"><ele>24.0</ele><time>2026-04-25T08:14:36.381Z</time></trkpt><trkpt lat="41.015535" lon="14.3315683"><ele>24.0</ele><time>2026-04-25T08:14:37.38Z</time></trkpt><trkpt lat="41.01554" lon="14.3316767"><ele>24.0</ele><time>2026-04-25T08:14:38.381Z</time></trkpt><trkpt lat="41.0155483" lon="14.3317833"><ele>24.0</ele><time>2026-04-25T08:14:39.381Z</time></trkpt><trkpt lat="41.0155583" lon="14.3318917"><ele>24.0</ele><time>2026-04-25T08:14:40.381Z</time></trkpt><trkpt lat="41.0155667" lon="14.332"><ele>24.0</ele><time>2026-04-25T08:14:41.38Z</time></trkpt><trkpt lat="41.0155767" lon="14.3321033"><ele>24.0</ele><time>2026-04-25T08:14:42.381Z</time></trkpt><trkpt lat="41.0155867" lon="14.33221"><ele>24.0</ele><time>2026-04-25T08:14:43.381Z</time></trkpt><trkpt lat="41.0155933" lon="14.3323217"><ele>24.0</ele><time>2026-04-25T08:14:44.382Z</time></trkpt><trkpt lat="41.0156" lon="14.3324283"><ele>24.0</ele><time>2026-04-25T08:14:45.381Z</time></trkpt><trkpt lat="41.01561" lon="14.3325317"><ele>23.5</ele><time>2026-04-25T08:14:46.381Z</time></trkpt><trkpt lat="41.0156217" lon="14.332635"><ele>23.0</ele><time>2026-04-25T08:14:47.381Z</time></trkpt><trkpt lat="41.0156333" lon="14.3327417"><ele>22.5</ele><time>2026-04-25T08:14:48.382Z</time></trkpt><trkpt lat="41.0156467" lon="14.3328517"><ele>22.0</ele><time>2026-04-25T08:14:49.38Z</time></trkpt><trkpt lat="41.01566" lon="14.3329567"><ele>21.5</ele><time>2026-04-25T08:14:50.381Z</time></trkpt><trkpt lat="41.0156733" lon="14.3330617"><ele>21.0</ele><time>2026-04-25T08:14:51.381Z</time></trkpt><trkpt lat="41.0156867" lon="14.333165"><ele>21.0</ele><time>2026-04-25T08:14:52.38Z</time></trkpt><trkpt lat="41.0157" lon="14.333265"><ele>21.0</ele><time>2026-04-25T08:14:53.382Z</time></trkpt><trkpt lat="41.0157133" lon="14.333365"><ele>21.0</ele><time>2026-04-25T08:14:54.38Z</time></trkpt><trkpt lat="41.0157283" lon="14.333465"><ele>21.0</ele><time>2026-04-25T08:14:55.38Z</time></trkpt><trkpt lat="41.01574" lon="14.3335667"><ele>21.0</ele><time>2026-04-25T08:14:56.381Z</time></trkpt><trkpt lat="41.01575" lon="14.3336683"><ele>21.0</ele><time>2026-04-25T08:14:57.383Z</time></trkpt><trkpt lat="41.0157667" lon="14.3337683"><ele>21.0</ele><time>2026-04-25T08:14:58.382Z</time></trkpt><trkpt lat="41.0157867" lon="14.3338667"><ele>21.0</ele><time>2026-04-25T08:14:59.381Z</time></trkpt><trkpt lat="41.015805" lon="14.33397"><ele>21.0</ele><time>2026-04-25T08:15:00.382Z</time></trkpt><trkpt lat="41.0158217" lon="14.3340767"><ele>21.0</ele><time>2026-04-25T08:15:01.382Z</time></trkpt><trkpt lat="41.0158367" lon="14.3341817"><ele>21.0</ele><time>2026-04-25T08:15:02.38Z</time></trkpt><trkpt lat="41.0158517" lon="14.334285"><ele>21.0</ele><time>2026-04-25T08:15:03.382Z</time></trkpt><trkpt lat="41.0158667" lon="14.3343883"><ele>21.5</ele><time>2026-04-25T08:15:04.381Z</time></trkpt><trkpt lat="41.01588" lon="14.334495"><ele>22.0</ele><time>2026-04-25T08:15:05.381Z</time></trkpt><trkpt lat="41.0158933" lon="14.334595"><ele>22.5</ele><time>2026-04-25T08:15:06.384Z</time></trkpt><trkpt lat="41.0159083" lon="14.3346933"><ele>23.0</ele><time>2026-04-25T08:15:07.383Z</time></trkpt><trkpt lat="41.015925" lon="14.33479"><ele>23.5</ele><time>2026-04-25T08:15:08.381Z</time></trkpt><trkpt lat="41.0159433" lon="14.334885"><ele>24.0</ele><time>2026-04-25T08:15:09.385Z</time></trkpt><trkpt lat="41.015965" lon="14.33498"><ele>24.142857142857142</ele><time>2026-04-25T08:15:10.38Z</time></trkpt><trkpt lat="41.0159883" lon="14.3350733"><ele>24.285714285714285</ele><time>2026-04-25T08:15:11.383Z</time></trkpt><trkpt lat="41.016015" lon="14.3351583"><ele>24.42857142857143</ele><time>2026-04-25T08:15:12.382Z</time></trkpt><trkpt lat="41.0160433" lon="14.33524"><ele>24.57142857142857</ele><time>2026-04-25T08:15:13.381Z</time></trkpt><trkpt lat="41.01607" lon="14.3353267"><ele>24.714285714285715</ele><time>2026-04-25T08:15:14.382Z</time></trkpt><trkpt lat="41.0160983" lon="14.3354133"><ele>24.857142857142858</ele><time>2026-04-25T08:15:15.381Z</time></trkpt><trkpt lat="41.016125" lon="14.3355033"><ele>25.0</ele><time>2026-04-25T08:15:16.381Z</time></trkpt><trkpt lat="41.0161517" lon="14.335595"><ele>24.714285714285715</ele><time>2026-04-25T08:15:17.381Z</time></trkpt><trkpt lat="41.0161783" lon="14.335685"><ele>24.42857142857143</ele><time>2026-04-25T08:15:18.381Z</time></trkpt><trkpt lat="41.0162083" lon="14.3357733"><ele>24.142857142857146</ele><time>2026-04-25T08:15:19.381Z</time></trkpt><trkpt lat="41.0162367" lon="14.3358617"><ele>23.857142857142858</ele><time>2026-04-25T08:15:20.382Z</time></trkpt><trkpt lat="41.0162667" lon="14.3359483"><ele>23.57142857142857</ele><time>2026-04-25T08:15:21.381Z</time></trkpt><trkpt lat="41.0163" lon="14.3360383"><ele>23.28571428571429</ele><time>2026-04-25T08:15:22.381Z</time></trkpt><trkpt lat="41.01633" lon="14.33613"><ele>23.0</ele><time>2026-04-25T08:15:23.381Z</time></trkpt><trkpt lat="41.0163567" lon="14.336225"><ele>23.0</ele><time>2026-04-25T08:15:24.381Z</time></trkpt><trkpt lat="41.0163867" lon="14.336315"><ele>23.0</ele><time>2026-04-25T08:15:25.385Z</time></trkpt><trkpt lat="41.0164167" lon="14.3364033"><ele>23.0</ele><time>2026-04-25T08:15:26.382Z</time></trkpt><trkpt lat="41.0164467" lon="14.3364917"><ele>23.0</ele><time>2026-04-25T08:15:27.38Z</time></trkpt><trkpt lat="41.0164767" lon="14.3365817"><ele>23.0</ele><time>2026-04-25T08:15:28.381Z</time></trkpt><trkpt lat="41.0165067" lon="14.3366667"><ele>23.0</ele><time>2026-04-25T08:15:29.382Z</time></trkpt><trkpt lat="41.016535" lon="14.3367533"><ele>23.0</ele><time>2026-04-25T08:15:30.382Z</time></trkpt><trkpt lat="41.0165617" lon="14.3368367"><ele>23.142857142857142</ele><time>2026-04-25T08:15:31.381Z</time></trkpt><trkpt lat="41.0165883" lon="14.3369183"><ele>23.285714285714285</ele><time>2026-04-25T08:15:32.382Z</time></trkpt><trkpt lat="41.0166133" lon="14.3370017"><ele>23.428571428571427</ele><time>2026-04-25T08:15:33.382Z</time></trkpt><trkpt lat="41.016635" lon="14.33709"><ele>23.57142857142857</ele><time>2026-04-25T08:15:34.381Z</time></trkpt><trkpt lat="41.0166583" lon="14.33718"><ele>23.714285714285715</ele><time>2026-04-25T08:15:35.381Z</time></trkpt><trkpt lat="41.01668" lon="14.3372683"><ele>23.857142857142854</ele><time>2026-04-25T08:15:36.38Z</time></trkpt><trkpt lat="41.01669" lon="14.3373617"><ele>24.0</ele><time>2026-04-25T08:15:37.384Z</time></trkpt><trkpt lat="41.0166933" lon="14.3374533"><ele>23.999999999999996</ele><time>2026-04-25T08:15:38.381Z</time></trkpt><trkpt lat="41.01669" lon="14.3375483"><ele>24.0</ele><time>2026-04-25T08:15:39.382Z</time></trkpt><trkpt lat="41.0166917" lon="14.3376383"><ele>24.0</ele><time>2026-04-25T08:15:40.381Z</time></trkpt><trkpt lat="41.016705" lon="14.3377283"><ele>24.0</ele><time>2026-04-25T08:15:41.381Z</time></trkpt><trkpt lat="41.01673" lon="14.3378133"><ele>24.0</ele><time>2026-04-25T08:15:42.382Z</time></trkpt><trkpt lat="41.01677" lon="14.3378833"><ele>23.999999999999996</ele><time>2026-04-25T08:15:43.38Z</time></trkpt><trkpt lat="41.0168183" lon="14.3379433"><ele>24.0</ele><time>2026-04-25T08:15:44.38Z</time></trkpt><trkpt lat="41.0168683" lon="14.338"><ele>24.285714285714285</ele><time>2026-04-25T08:15:45.381Z</time></trkpt><trkpt lat="41.016915" lon="14.3380667"><ele>24.57142857142857</ele><time>2026-04-25T08:15:46.381Z</time></trkpt><trkpt lat="41.0169533" lon="14.338135"><ele>24.857142857142854</ele><time>2026-04-25T08:15:47.381Z</time></trkpt><trkpt lat="41.0169917" lon="14.338205"><ele>25.142857142857142</ele><time>2026-04-25T08:15:48.382Z</time></trkpt><trkpt lat="41.0170283" lon="14.3382767"><ele>25.42857142857143</ele><time>2026-04-25T08:15:49.382Z</time></trkpt><trkpt lat="41.017065" lon="14.338355"><ele>25.71428571428571</ele><time>2026-04-25T08:15:50.382Z</time></trkpt><trkpt lat="41.017095" lon="14.3384317"><ele>26.0</ele><time>2026-04-25T08:15:51.381Z</time></trkpt><trkpt lat="41.0171217" lon="14.3385133"><ele>26.0</ele><time>2026-04-25T08:15:52.381Z</time></trkpt><trkpt lat="41.0171417" lon="14.3385967"><ele>26.0</ele><time>2026-04-25T08:15:53.38Z</time></trkpt><trkpt lat="41.017165" lon="14.3386767"><ele>26.0</ele><time>2026-04-25T08:15:54.382Z</time></trkpt><trkpt lat="41.0171867" lon="14.3387583"><ele>26.0</ele><time>2026-04-25T08:15:55.381Z</time></trkpt><trkpt lat="41.01721" lon="14.3388383"><ele>26.0</ele><time>2026-04-25T08:15:56.382Z</time></trkpt><trkpt lat="41.0172367" lon="14.3389183"><ele>26.0</ele><time>2026-04-25T08:15:57.382Z</time></trkpt><trkpt lat="41.0172617" lon="14.3389983"><ele>26.0</ele><time>2026-04-25T08:15:58.383Z</time></trkpt><trkpt lat="41.0172867" lon="14.3390767"><ele>26.0</ele><time>2026-04-25T08:15:59.381Z</time></trkpt><trkpt lat="41.0173117" lon="14.339155"><ele>26.0</ele><time>2026-04-25T08:16:00.382Z</time></trkpt><trkpt lat="41.0173383" lon="14.339235"><ele>26.0</ele><time>2026-04-25T08:16:01.382Z</time></trkpt><trkpt lat="41.017365" lon="14.3393117"><ele>26.0</ele><time>2026-04-25T08:16:02.381Z</time></trkpt><trkpt lat="41.0173933" lon="14.3393867"><ele>26.0</ele><time>2026-04-25T08:16:03.383Z</time></trkpt><trkpt lat="41.01742" lon="14.3394633"><ele>26.0</ele><time>2026-04-25T08:16:04.381Z</time></trkpt><trkpt lat="41.0174433" lon="14.3395433"><ele>26.0</ele><time>2026-04-25T08:16:05.38Z</time></trkpt><trkpt lat="41.0174683" lon="14.3396217"><ele>26.285714285714285</ele><time>2026-04-25T08:16:06.381Z</time></trkpt><trkpt lat="41.0174933" lon="14.3396983"><ele>26.571428571428573</ele><time>2026-04-25T08:16:07.383Z</time></trkpt><trkpt lat="41.01752" lon="14.339775"><ele>26.857142857142858</ele><time>2026-04-25T08:16:08.382Z</time></trkpt><trkpt lat="41.0175483" lon="14.3398517"><ele>27.142857142857142</ele><time>2026-04-25T08:16:09.381Z</time></trkpt><trkpt lat="41.0175783" lon="14.3399317"><ele>27.42857142857143</ele><time>2026-04-25T08:16:10.382Z</time></trkpt><trkpt lat="41.0176083" lon="14.3400133"><ele>27.714285714285715</ele><time>2026-04-25T08:16:11.381Z</time></trkpt><trkpt lat="41.017635" lon="14.3400967"><ele>28.0</ele><time>2026-04-25T08:16:12.382Z</time></trkpt><trkpt lat="41.0176633" lon="14.3401817"><ele>28.142857142857142</ele><time>2026-04-25T08:16:13.382Z</time></trkpt><trkpt lat="41.01769" lon="14.3402633"><ele>28.285714285714285</ele><time>2026-04-25T08:16:14.381Z</time></trkpt><trkpt lat="41.017715" lon="14.3403533"><ele>28.42857142857143</ele><time>2026-04-25T08:16:15.382Z</time></trkpt><trkpt lat="41.0177383" lon="14.34044"><ele>28.571428571428573</ele><time>2026-04-25T08:16:16.383Z</time></trkpt><trkpt lat="41.017765" lon="14.3405217"><ele>28.714285714285715</ele><time>2026-04-25T08:16:17.381Z</time></trkpt><trkpt lat="41.0177917" lon="14.3406033"><ele>28.85714285714286</ele><time>2026-04-25T08:16:18.381Z</time></trkpt><trkpt lat="41.0178183" lon="14.3406867"><ele>29.000000000000004</ele><time>2026-04-25T08:16:19.381Z</time></trkpt><trkpt lat="41.0178433" lon="14.3407717"><ele>28.71428571428572</ele><time>2026-04-25T08:16:20.381Z</time></trkpt><trkpt lat="41.0178683" lon="14.340855"><ele>28.42857142857143</ele><time>2026-04-25T08:16:21.382Z</time></trkpt><trkpt lat="41.0178933" lon="14.3409433"><ele>28.142857142857146</ele><time>2026-04-25T08:16:22.381Z</time></trkpt><trkpt lat="41.0179233" lon="14.3410267"><ele>27.85714285714286</ele><time>2026-04-25T08:16:23.38Z</time></trkpt><trkpt lat="41.01795" lon="14.34111"><ele>27.57142857142857</ele><time>2026-04-25T08:16:24.382Z</time></trkpt><trkpt lat="41.0179733" lon="14.3412"><ele>27.285714285714285</ele><time>2026-04-25T08:16:25.381Z</time></trkpt><trkpt lat="41.0179967" lon="14.34129"><ele>27.0</ele><time>2026-04-25T08:16:26.381Z</time></trkpt><trkpt lat="41.0180233" lon="14.3413817"><ele>27.0</ele><time>2026-04-25T08:16:27.382Z</time></trkpt><trkpt lat="41.0180433" lon="14.341475"><ele>27.0</ele><time>2026-04-25T08:16:28.385Z</time></trkpt><trkpt lat="41.018055" lon="14.34157"><ele>27.0</ele><time>2026-04-25T08:16:29.38Z</time></trkpt><trkpt lat="41.0180567" lon="14.34167"><ele>27.0</ele><time>2026-04-25T08:16:30.382Z</time></trkpt><trkpt lat="41.01806" lon="14.3417733"><ele>27.0</ele><time>2026-04-25T08:16:31.382Z</time></trkpt><trkpt lat="41.018075" lon="14.3418717"><ele>27.0</ele><time>2026-04-25T08:16:32.382Z</time></trkpt><trkpt lat="41.0181117" lon="14.34196"><ele>27.0</ele><time>2026-04-25T08:16:33.381Z</time></trkpt><trkpt lat="41.018165" lon="14.342035"><ele>27.0</ele><time>2026-04-25T08:16:34.383Z</time></trkpt><trkpt lat="41.0182267" lon="14.3421067"><ele>27.0</ele><time>2026-04-25T08:16:35.38Z</time></trkpt><trkpt lat="41.0182867" lon="14.3421783"><ele>27.0</ele><time>2026-04-25T08:16:36.381Z</time></trkpt><trkpt lat="41.0183383" lon="14.342255"><ele>27.0</ele><time>2026-04-25T08:16:37.381Z</time></trkpt><trkpt lat="41.01838" lon="14.3423383"><ele>27.0</ele><time>2026-04-25T08:16:38.381Z</time></trkpt><trkpt lat="41.0184083" lon="14.34243"><ele>27.285714285714285</ele><time>2026-04-25T08:16:39.382Z</time></trkpt><trkpt lat="41.0184383" lon="14.342525"><ele>27.57142857142857</ele><time>2026-04-25T08:16:40.381Z</time></trkpt><trkpt lat="41.0184633" lon="14.3426217"><ele>27.85714285714286</ele><time>2026-04-25T08:16:41.382Z</time></trkpt><trkpt lat="41.0184883" lon="14.3427133"><ele>28.142857142857146</ele><time>2026-04-25T08:16:42.381Z</time></trkpt><trkpt lat="41.0185167" lon="14.342805"><ele>28.42857142857143</ele><time>2026-04-25T08:16:43.382Z</time></trkpt><trkpt lat="41.018545" lon="14.3428917"><ele>28.71428571428572</ele><time>2026-04-25T08:16:44.382Z</time></trkpt><trkpt lat="41.0185767" lon="14.3429817"><ele>29.000000000000004</ele><time>2026-04-25T08:16:45.381Z</time></trkpt><trkpt lat="41.0186033" lon="14.343075"><ele>28.999999999999996</ele><time>2026-04-25T08:16:46.382Z</time></trkpt><trkpt lat="41.0186317" lon="14.3431667"><ele>29.0</ele><time>2026-04-25T08:16:47.382Z</time></trkpt><trkpt lat="41.01866" lon="14.3432617"><ele>29.0</ele><time>2026-04-25T08:16:48.382Z</time></trkpt><trkpt lat="41.0186883" lon="14.343355"><ele>29.0</ele><time>2026-04-25T08:16:49.381Z</time></trkpt><trkpt lat="41.01872" lon="14.34345"><ele>28.999999999999996</ele><time>2026-04-25T08:16:50.382Z</time></trkpt><trkpt lat="41.0187483" lon="14.3435433"><ele>29.0</ele><time>2026-04-25T08:16:51.383Z</time></trkpt><trkpt lat="41.0187767" lon="14.3436383"><ele>28.999999999999996</ele><time>2026-04-25T08:16:52.383Z</time></trkpt><trkpt lat="41.0188067" lon="14.343735"><ele>29.0</ele><time>2026-04-25T08:16:53.381Z</time></trkpt><trkpt lat="41.0188333" lon="14.3438333"><ele>29.0</ele><time>2026-04-25T08:16:54.382Z</time></trkpt><trkpt lat="41.0188617" lon="14.3439283"><ele>29.0</ele><time>2026-04-25T08:16:55.383Z</time></trkpt><trkpt lat="41.01889" lon="14.3440217"><ele>28.999999999999996</ele><time>2026-04-25T08:16:56.383Z</time></trkpt><trkpt lat="41.01892" lon="14.3441167"><ele>29.0</ele><time>2026-04-25T08:16:57.381Z</time></trkpt><trkpt lat="41.0189517" lon="14.3442083"><ele>28.999999999999996</ele><time>2026-04-25T08:16:58.38Z</time></trkpt><trkpt lat="41.0189817" lon="14.3443017"><ele>29.0</ele><time>2026-04-25T08:16:59.383Z</time></trkpt><trkpt lat="41.01901" lon="14.344395"><ele>29.0</ele><time>2026-04-25T08:17:00.382Z</time></trkpt><trkpt lat="41.0190367" lon="14.34449"><ele>29.0</ele><time>2026-04-25T08:17:01.381Z</time></trkpt><trkpt lat="41.0190667" lon="14.3445867"><ele>28.999999999999996</ele><time>2026-04-25T08:17:02.382Z</time></trkpt><trkpt lat="41.0190983" lon="14.3446733"><ele>29.0</ele><time>2026-04-25T08:17:03.382Z</time></trkpt><trkpt lat="41.0191283" lon="14.344765"><ele>29.499999999999996</ele><time>2026-04-25T08:17:04.384Z</time></trkpt><trkpt lat="41.0191567" lon="14.3448617"><ele>30.0</ele><time>2026-04-25T08:17:05.381Z</time></trkpt><trkpt lat="41.019185" lon="14.344955"><ele>30.5</ele><time>2026-04-25T08:17:06.384Z</time></trkpt><trkpt lat="41.0192167" lon="14.3450483"><ele>31.0</ele><time>2026-04-25T08:17:07.384Z</time></trkpt><trkpt lat="41.01925" lon="14.3451433"><ele>31.499999999999996</ele><time>2026-04-25T08:17:08.382Z</time></trkpt><trkpt lat="41.0192783" lon="14.34524"><ele>32.0</ele><time>2026-04-25T08:17:09.381Z</time></trkpt><trkpt lat="41.0193083" lon="14.345335"><ele>31.999999999999996</ele><time>2026-04-25T08:17:10.382Z</time></trkpt><trkpt lat="41.0193333" lon="14.3454317"><ele>32.0</ele><time>2026-04-25T08:17:11.382Z</time></trkpt><trkpt lat="41.0193617" lon="14.3455283"><ele>32.0</ele><time>2026-04-25T08:17:12.382Z</time></trkpt><trkpt lat="41.01939" lon="14.345625"><ele>32.0</ele><time>2026-04-25T08:17:13.384Z</time></trkpt><trkpt lat="41.01942" lon="14.3457167"><ele>31.999999999999996</ele><time>2026-04-25T08:17:14.382Z</time></trkpt><trkpt lat="41.0194483" lon="14.345815"><ele>32.0</ele><time>2026-04-25T08:17:15.384Z</time></trkpt><trkpt lat="41.019475" lon="14.3459117"><ele>31.999999999999996</ele><time>2026-04-25T08:17:16.383Z</time></trkpt><trkpt lat="41.0195017" lon="14.3460083"><ele>32.0</ele><time>2026-04-25T08:17:17.388Z</time></trkpt><trkpt lat="41.0195317" lon="14.3461067"><ele>32.0</ele><time>2026-04-25T08:17:18.382Z</time></trkpt><trkpt lat="41.0195633" lon="14.346205"><ele>32.0</ele><time>2026-04-25T08:17:19.382Z</time></trkpt><trkpt lat="41.0195933" lon="14.3463033"><ele>31.999999999999996</ele><time>2026-04-25T08:17:20.382Z</time></trkpt><trkpt lat="41.0196233" lon="14.3464"><ele>32.0</ele><time>2026-04-25T08:17:21.383Z</time></trkpt><trkpt lat="41.0196533" lon="14.346495"><ele>31.999999999999996</ele><time>2026-04-25T08:17:22.382Z</time></trkpt><trkpt lat="41.0196833" lon="14.3465883"><ele>32.0</ele><time>2026-04-25T08:17:23.382Z</time></trkpt><trkpt lat="41.0197117" lon="14.346685"><ele>32.0</ele><time>2026-04-25T08:17:24.384Z</time></trkpt><trkpt lat="41.01974" lon="14.3467833"><ele>32.0</ele><time>2026-04-25T08:17:25.382Z</time></trkpt><trkpt lat="41.0197683" lon="14.346885"><ele>31.999999999999996</ele><time>2026-04-25T08:17:26.382Z</time></trkpt><trkpt lat="41.0197983" lon="14.346985"><ele>32.0</ele><time>2026-04-25T08:17:27.38Z</time></trkpt><trkpt lat="41.0198283" lon="14.347085"><ele>31.999999999999996</ele><time>2026-04-25T08:17:28.382Z</time></trkpt><trkpt lat="41.0198617" lon="14.3471867"><ele>32.0</ele><time>2026-04-25T08:17:29.382Z</time></trkpt><trkpt lat="41.0198883" lon="14.34729"><ele>32.0</ele><time>2026-04-25T08:17:30.382Z</time></trkpt><trkpt lat="41.019915" lon="14.3473933"><ele>32.0</ele><time>2026-04-25T08:17:31.381Z</time></trkpt><trkpt lat="41.0199467" lon="14.347495"><ele>31.999999999999996</ele><time>2026-04-25T08:17:32.382Z</time></trkpt><trkpt lat="41.0199767" lon="14.3475967"><ele>32.0</ele><time>2026-04-25T08:17:33.382Z</time></trkpt><trkpt lat="41.0200083" lon="14.3476933"><ele>31.999999999999996</ele><time>2026-04-25T08:17:34.382Z</time></trkpt><trkpt lat="41.0200383" lon="14.3477917"><ele>32.0</ele><time>2026-04-25T08:17:35.382Z</time></trkpt><trkpt lat="41.02007" lon="14.34789"><ele>32.0</ele><time>2026-04-25T08:17:36.382Z</time></trkpt><trkpt lat="41.0201017" lon="14.3479917"><ele>32.0</ele><time>2026-04-25T08:17:37.385Z</time></trkpt><trkpt lat="41.0201317" lon="14.34809"><ele>31.999999999999996</ele><time>2026-04-25T08:17:38.381Z</time></trkpt><trkpt lat="41.0201633" lon="14.3481883"><ele>32.0</ele><time>2026-04-25T08:17:39.383Z</time></trkpt><trkpt lat="41.020195" lon="14.348285"><ele>31.999999999999996</ele><time>2026-04-25T08:17:40.383Z</time></trkpt><trkpt lat="41.0202267" lon="14.3483833"><ele>32.0</ele><time>2026-04-25T08:17:41.386Z</time></trkpt><trkpt lat="41.0202567" lon="14.3484833"><ele>32.0</ele><time>2026-04-25T08:17:42.384Z</time></trkpt><trkpt lat="41.0202867" lon="14.348585"><ele>32.0</ele><time>2026-04-25T08:17:43.385Z</time></trkpt><trkpt lat="41.0203183" lon="14.348685"><ele>31.999999999999996</ele><time>2026-04-25T08:17:44.382Z</time></trkpt><trkpt lat="41.0203517" lon="14.3487867"><ele>32.0</ele><time>2026-04-25T08:17:45.381Z</time></trkpt><trkpt lat="41.020385" lon="14.3488917"><ele>31.999999999999996</ele><time>2026-04-25T08:17:46.383Z</time></trkpt><trkpt lat="41.0204167" lon="14.3489933"><ele>32.0</ele><time>2026-04-25T08:17:47.382Z</time></trkpt><trkpt lat="41.02045" lon="14.3490917"><ele>32.0</ele><time>2026-04-25T08:17:48.382Z</time></trkpt><trkpt lat="41.02048" lon="14.3491967"><ele>32.0</ele><time>2026-04-25T08:17:49.381Z</time></trkpt><trkpt lat="41.02051" lon="14.3493"><ele>31.999999999999996</ele><time>2026-04-25T08:17:50.383Z</time></trkpt><trkpt lat="41.0205417" lon="14.3494"><ele>32.0</ele><time>2026-04-25T08:17:51.382Z</time></trkpt><trkpt lat="41.0205767" lon="14.3494983"><ele>31.999999999999996</ele><time>2026-04-25T08:17:52.382Z</time></trkpt><trkpt lat="41.0206117" lon="14.349595"><ele>32.0</ele><time>2026-04-25T08:17:53.383Z</time></trkpt><trkpt lat="41.020645" lon="14.349695"><ele>32.0</ele><time>2026-04-25T08:17:54.381Z</time></trkpt><trkpt lat="41.0206767" lon="14.3497983"><ele>32.0</ele><time>2026-04-25T08:17:55.382Z</time></trkpt><trkpt lat="41.02071" lon="14.3499"><ele>31.999999999999996</ele><time>2026-04-25T08:17:56.382Z</time></trkpt><trkpt lat="41.02074" lon="14.3500033"><ele>32.0</ele><time>2026-04-25T08:17:57.389Z</time></trkpt><trkpt lat="41.0207733" lon="14.3501083"><ele>32.166666666666664</ele><time>2026-04-25T08:17:58.382Z</time></trkpt><trkpt lat="41.0208033" lon="14.3502117"><ele>32.33333333333333</ele><time>2026-04-25T08:17:59.382Z</time></trkpt><trkpt lat="41.0208333" lon="14.3503167"><ele>32.5</ele><time>2026-04-25T08:18:00.383Z</time></trkpt><trkpt lat="41.020865" lon="14.350425"><ele>32.666666666666664</ele><time>2026-04-25T08:18:01.382Z</time></trkpt><trkpt lat="41.020895" lon="14.3505317"><ele>32.833333333333336</ele><time>2026-04-25T08:18:02.383Z</time></trkpt><trkpt lat="41.0209267" lon="14.3506317"><ele>33.0</ele><time>2026-04-25T08:18:03.382Z</time></trkpt><trkpt lat="41.020955" lon="14.3507383"><ele>33.0</ele><time>2026-04-25T08:18:04.382Z</time></trkpt><trkpt lat="41.020985" lon="14.3508433"><ele>33.0</ele><time>2026-04-25T08:18:05.382Z</time></trkpt><trkpt lat="41.02102" lon="14.35095"><ele>33.0</ele><time>2026-04-25T08:18:06.383Z</time></trkpt><trkpt lat="41.0210517" lon="14.3510617"><ele>33.0</ele><time>2026-04-25T08:18:07.382Z</time></trkpt><trkpt lat="41.021085" lon="14.35117"><ele>33.0</ele><time>2026-04-25T08:18:08.384Z</time></trkpt><trkpt lat="41.02112" lon="14.3512767"><ele>33.0</ele><time>2026-04-25T08:18:09.384Z</time></trkpt><trkpt lat="41.0211533" lon="14.3513833"><ele>33.166666666666664</ele><time>2026-04-25T08:18:10.381Z</time></trkpt><trkpt lat="41.0211833" lon="14.3514967"><ele>33.333333333333336</ele><time>2026-04-25T08:18:11.382Z</time></trkpt><trkpt lat="41.0212133" lon="14.351605"><ele>33.5</ele><time>2026-04-25T08:18:12.382Z</time></trkpt><trkpt lat="41.0212467" lon="14.3517117"><ele>33.66666666666667</ele><time>2026-04-25T08:18:13.382Z</time></trkpt><trkpt lat="41.02128" lon="14.3518167"><ele>33.833333333333336</ele><time>2026-04-25T08:18:14.382Z</time></trkpt><trkpt lat="41.0213133" lon="14.3519217"><ele>34.0</ele><time>2026-04-25T08:18:15.381Z</time></trkpt><trkpt lat="41.021345" lon="14.35203"><ele>34.0</ele><time>2026-04-25T08:18:16.382Z</time></trkpt><trkpt lat="41.0213817" lon="14.3521367"><ele>34.0</ele><time>2026-04-25T08:18:17.382Z</time></trkpt><trkpt lat="41.021415" lon="14.3522417"><ele>34.0</ele><time>2026-04-25T08:18:18.382Z</time></trkpt><trkpt lat="41.0214483" lon="14.3523417"><ele>34.0</ele><time>2026-04-25T08:18:19.382Z</time></trkpt><trkpt lat="41.0214867" lon="14.352445"><ele>34.0</ele><time>2026-04-25T08:18:20.382Z</time></trkpt><trkpt lat="41.0215217" lon="14.35255"><ele>34.0</ele><time>2026-04-25T08:18:21.381Z</time></trkpt><trkpt lat="41.021555" lon="14.3526583"><ele>34.0</ele><time>2026-04-25T08:18:22.381Z</time></trkpt><trkpt lat="41.0215883" lon="14.352765"><ele>34.0</ele><time>2026-04-25T08:18:23.383Z</time></trkpt><trkpt lat="41.0216183" lon="14.3528717"><ele>34.0</ele><time>2026-04-25T08:18:24.382Z</time></trkpt><trkpt lat="41.0216483" lon="14.3529817"><ele>34.0</ele><time>2026-04-25T08:18:25.383Z</time></trkpt><trkpt lat="41.02168" lon="14.3530883"><ele>34.0</ele><time>2026-04-25T08:18:26.382Z</time></trkpt><trkpt lat="41.02171" lon="14.3531967"><ele>34.0</ele><time>2026-04-25T08:18:27.381Z</time></trkpt><trkpt lat="41.0217417" lon="14.353305"><ele>34.0</ele><time>2026-04-25T08:18:28.381Z</time></trkpt><trkpt lat="41.02177" lon="14.3534133"><ele>34.0</ele><time>2026-04-25T08:18:29.382Z</time></trkpt><trkpt lat="41.0218" lon="14.35352"><ele>34.0</ele><time>2026-04-25T08:18:30.382Z</time></trkpt><trkpt lat="41.02183" lon="14.353625"><ele>34.0</ele><time>2026-04-25T08:18:31.384Z</time></trkpt><trkpt lat="41.02186" lon="14.353725"><ele>34.0</ele><time>2026-04-25T08:18:32.381Z</time></trkpt><trkpt lat="41.0218917" lon="14.353825"><ele>34.0</ele><time>2026-04-25T08:18:33.382Z</time></trkpt><trkpt lat="41.021925" lon="14.3539283"><ele>34.16666666666667</ele><time>2026-04-25T08:18:34.382Z</time></trkpt><trkpt lat="41.0219583" lon="14.354035"><ele>34.333333333333336</ele><time>2026-04-25T08:18:35.384Z</time></trkpt><trkpt lat="41.02199" lon="14.3541383"><ele>34.5</ele><time>2026-04-25T08:18:36.382Z</time></trkpt><trkpt lat="41.0220217" lon="14.3542417"><ele>34.666666666666664</ele><time>2026-04-25T08:18:37.382Z</time></trkpt><trkpt lat="41.0220533" lon="14.3543433"><ele>34.83333333333333</ele><time>2026-04-25T08:18:38.382Z</time></trkpt><trkpt lat="41.0220817" lon="14.35445"><ele>35.0</ele><time>2026-04-25T08:18:39.383Z</time></trkpt><trkpt lat="41.0221133" lon="14.3545583"><ele>35.0</ele><time>2026-04-25T08:18:40.382Z</time></trkpt><trkpt lat="41.0221433" lon="14.3546667"><ele>35.0</ele><time>2026-04-25T08:18:41.381Z</time></trkpt><trkpt lat="41.0221717" lon="14.3547783"><ele>35.0</ele><time>2026-04-25T08:18:42.382Z</time></trkpt><trkpt lat="41.0222033" lon="14.3548883"><ele>35.0</ele><time>2026-04-25T08:18:43.382Z</time></trkpt><trkpt lat="41.0222333" lon="14.3549967"><ele>35.0</ele><time>2026-04-25T08:18:44.382Z</time></trkpt><trkpt lat="41.022265" lon="14.355105"><ele>35.0</ele><time>2026-04-25T08:18:45.382Z</time></trkpt><trkpt lat="41.022295" lon="14.3552133"><ele>35.166666666666664</ele><time>2026-04-25T08:18:46.38Z</time></trkpt><trkpt lat="41.0223267" lon="14.3553233"><ele>35.33333333333333</ele><time>2026-04-25T08:18:47.381Z</time></trkpt><trkpt lat="41.0223583" lon="14.3554317"><ele>35.5</ele><time>2026-04-25T08:18:48.383Z</time></trkpt><trkpt lat="41.02239" lon="14.3555367"><ele>35.666666666666664</ele><time>2026-04-25T08:18:49.381Z</time></trkpt><trkpt lat="41.02242" lon="14.3556367"><ele>35.833333333333336</ele><time>2026-04-25T08:18:50.381Z</time></trkpt><trkpt lat="41.0224533" lon="14.3557433"><ele>36.0</ele><time>2026-04-25T08:18:51.381Z</time></trkpt><trkpt lat="41.0224833" lon="14.3558483"><ele>36.0</ele><time>2026-04-25T08:18:52.382Z</time></trkpt><trkpt lat="41.0225167" lon="14.3559517"><ele>36.0</ele><time>2026-04-25T08:18:53.381Z</time></trkpt><trkpt lat="41.02255" lon="14.3560583"><ele>36.0</ele><time>2026-04-25T08:18:54.381Z</time></trkpt><trkpt lat="41.022585" lon="14.3561633"><ele>36.0</ele><time>2026-04-25T08:18:55.38Z</time></trkpt><trkpt lat="41.0226167" lon="14.35627"><ele>36.0</ele><time>2026-04-25T08:18:56.39Z</time></trkpt><trkpt lat="41.02265" lon="14.3563733"><ele>36.0</ele><time>2026-04-25T08:18:57.381Z</time></trkpt><trkpt lat="41.0226817" lon="14.3564767"><ele>36.0</ele><time>2026-04-25T08:18:58.381Z</time></trkpt><trkpt lat="41.0227133" lon="14.35658"><ele>36.0</ele><time>2026-04-25T08:18:59.381Z</time></trkpt><trkpt lat="41.022745" lon="14.356685"><ele>36.0</ele><time>2026-04-25T08:19:00.381Z</time></trkpt><trkpt lat="41.0227733" lon="14.3567933"><ele>36.0</ele><time>2026-04-25T08:19:01.38Z</time></trkpt><trkpt lat="41.0228033" lon="14.3568967"><ele>36.0</ele><time>2026-04-25T08:19:02.381Z</time></trkpt><trkpt lat="41.02283" lon="14.3570017"><ele>36.0</ele><time>2026-04-25T08:19:03.381Z</time></trkpt><trkpt lat="41.02286" lon="14.3571017"><ele>36.0</ele><time>2026-04-25T08:19:04.379Z</time></trkpt><trkpt lat="41.02289" lon="14.3572"><ele>36.0</ele><time>2026-04-25T08:19:05.381Z</time></trkpt><trkpt lat="41.0229217" lon="14.3573017"><ele>36.0</ele><time>2026-04-25T08:19:06.381Z</time></trkpt><trkpt lat="41.0229517" lon="14.357405"><ele>36.0</ele><time>2026-04-25T08:19:07.381Z</time></trkpt><trkpt lat="41.02298" lon="14.35751"><ele>36.0</ele><time>2026-04-25T08:19:08.38Z</time></trkpt><trkpt lat="41.02301" lon="14.3576133"><ele>36.0</ele><time>2026-04-25T08:19:09.381Z</time></trkpt><trkpt lat="41.0230417" lon="14.35771"><ele>35.85714285714286</ele><time>2026-04-25T08:19:10.381Z</time></trkpt><trkpt lat="41.0230717" lon="14.3578033"><ele>35.714285714285715</ele><time>2026-04-25T08:19:11.381Z</time></trkpt><trkpt lat="41.0231017" lon="14.3578917"><ele>35.57142857142857</ele><time>2026-04-25T08:19:12.381Z</time></trkpt><trkpt lat="41.0231267" lon="14.35798"><ele>35.42857142857143</ele><time>2026-04-25T08:19:13.38Z</time></trkpt><trkpt lat="41.0231467" lon="14.3580683"><ele>35.285714285714285</ele><time>2026-04-25T08:19:14.381Z</time></trkpt><trkpt lat="41.02316" lon="14.358155"><ele>35.142857142857146</ele><time>2026-04-25T08:19:15.381Z</time></trkpt><trkpt lat="41.0231567" lon="14.3582417"><ele>35.0</ele><time>2026-04-25T08:19:16.38Z</time></trkpt><trkpt lat="41.023125" lon="14.3583883"><ele>35.0</ele><time>2026-04-25T08:19:18.381Z</time></trkpt><trkpt lat="41.0231117" lon="14.3585383"><ele>35.0</ele><time>2026-04-25T08:19:20.38Z</time></trkpt><trkpt lat="41.023155" lon="14.358695"><ele>35.0</ele><time>2026-04-25T08:19:22.383Z</time></trkpt><trkpt lat="41.0231933" lon="14.3587617"><ele>35.0</ele><time>2026-04-25T08:19:23.381Z</time></trkpt><trkpt lat="41.0232467" lon="14.35883"><ele>35.0</ele><time>2026-04-25T08:19:24.38Z</time></trkpt><trkpt lat="41.0233133" lon="14.3588917"><ele>35.666666666666664</ele><time>2026-04-25T08:19:25.381Z</time></trkpt><trkpt lat="41.0233767" lon="14.3589617"><ele>36.33333333333333</ele><time>2026-04-25T08:19:26.381Z</time></trkpt><trkpt lat="41.023435" lon="14.3590417"><ele>37.0</ele><time>2026-04-25T08:19:27.38Z</time></trkpt><trkpt lat="41.0234783" lon="14.3591317"><ele>37.666666666666664</ele><time>2026-04-25T08:19:28.381Z</time></trkpt><trkpt lat="41.023515" lon="14.3592317"><ele>38.333333333333336</ele><time>2026-04-25T08:19:29.381Z</time></trkpt><trkpt lat="41.023545" lon="14.3593333"><ele>39.0</ele><time>2026-04-25T08:19:30.383Z</time></trkpt><trkpt lat="41.023575" lon="14.35944"><ele>39.0</ele><time>2026-04-25T08:19:31.381Z</time></trkpt><trkpt lat="41.023605" lon="14.3595483"><ele>39.0</ele><time>2026-04-25T08:19:32.381Z</time></trkpt><trkpt lat="41.023635" lon="14.3596517"><ele>39.0</ele><time>2026-04-25T08:19:33.381Z</time></trkpt><trkpt lat="41.0236633" lon="14.3597617"><ele>39.0</ele><time>2026-04-25T08:19:34.381Z</time></trkpt><trkpt lat="41.0236917" lon="14.3598667"><ele>39.0</ele><time>2026-04-25T08:19:35.38Z</time></trkpt><trkpt lat="41.02372" lon="14.3599633"><ele>39.0</ele><time>2026-04-25T08:19:36.385Z</time></trkpt><trkpt lat="41.023765" lon="14.360075"><ele>39.166666666666664</ele><time>2026-04-25T08:19:37.381Z</time></trkpt><trkpt lat="41.023795" lon="14.3601783"><ele>39.333333333333336</ele><time>2026-04-25T08:19:38.381Z</time></trkpt><trkpt lat="41.0238333" lon="14.36029"><ele>39.5</ele><time>2026-04-25T08:19:39.38Z</time></trkpt><trkpt lat="41.02387" lon="14.360395"><ele>39.66666666666667</ele><time>2026-04-25T08:19:40.381Z</time></trkpt><trkpt lat="41.0239083" lon="14.3605017"><ele>39.833333333333336</ele><time>2026-04-25T08:19:41.381Z</time></trkpt><trkpt lat="41.023935" lon="14.3606183"><ele>40.0</ele><time>2026-04-25T08:19:42.381Z</time></trkpt><trkpt lat="41.023965" lon="14.360725"><ele>40.0</ele><time>2026-04-25T08:19:43.381Z</time></trkpt><trkpt lat="41.0239983" lon="14.360835"><ele>40.0</ele><time>2026-04-25T08:19:44.38Z</time></trkpt><trkpt lat="41.02403" lon="14.3609417"><ele>40.0</ele><time>2026-04-25T08:19:45.38Z</time></trkpt><trkpt lat="41.02406" lon="14.3610517"><ele>40.0</ele><time>2026-04-25T08:19:46.381Z</time></trkpt><trkpt lat="41.0240917" lon="14.3611617"><ele>40.0</ele><time>2026-04-25T08:19:47.381Z</time></trkpt><trkpt lat="41.0241217" lon="14.3612683"><ele>40.0</ele><time>2026-04-25T08:19:48.381Z</time></trkpt><trkpt lat="41.0241583" lon="14.361375"><ele>39.833333333333336</ele><time>2026-04-25T08:19:49.382Z</time></trkpt><trkpt lat="41.0241917" lon="14.361485"><ele>39.66666666666667</ele><time>2026-04-25T08:19:50.381Z</time></trkpt><trkpt lat="41.0242267" lon="14.3615967"><ele>39.5</ele><time>2026-04-25T08:19:51.381Z</time></trkpt><trkpt lat="41.0242633" lon="14.3617033"><ele>39.333333333333336</ele><time>2026-04-25T08:19:52.381Z</time></trkpt><trkpt lat="41.024295" lon="14.3618083"><ele>39.166666666666664</ele><time>2026-04-25T08:19:53.382Z</time></trkpt><trkpt lat="41.0243283" lon="14.361915"><ele>39.0</ele><time>2026-04-25T08:19:54.38Z</time></trkpt><trkpt lat="41.02436" lon="14.3620233"><ele>39.0</ele><time>2026-04-25T08:19:55.381Z</time></trkpt><trkpt lat="41.0243917" lon="14.3621317"><ele>39.0</ele><time>2026-04-25T08:19:56.381Z</time></trkpt><trkpt lat="41.0244217" lon="14.36224"><ele>39.0</ele><time>2026-04-25T08:19:57.381Z</time></trkpt><trkpt lat="41.0244483" lon="14.3623483"><ele>39.0</ele><time>2026-04-25T08:19:58.38Z</time></trkpt><trkpt lat="41.0244767" lon="14.36245"><ele>39.0</ele><time>2026-04-25T08:19:59.38Z</time></trkpt><trkpt lat="41.0245033" lon="14.3625517"><ele>39.0</ele><time>2026-04-25T08:20:00.38Z</time></trkpt><trkpt lat="41.02453" lon="14.3626517"><ele>39.0</ele><time>2026-04-25T08:20:01.38Z</time></trkpt><trkpt lat="41.0245583" lon="14.3627533"><ele>39.0</ele><time>2026-04-25T08:20:02.381Z</time></trkpt><trkpt lat="41.0245883" lon="14.3628533"><ele>39.0</ele><time>2026-04-25T08:20:03.38Z</time></trkpt><trkpt lat="41.02462" lon="14.3629533"><ele>39.0</ele><time>2026-04-25T08:20:04.38Z</time></trkpt><trkpt lat="41.02465" lon="14.3630567"><ele>39.0</ele><time>2026-04-25T08:20:05.381Z</time></trkpt><trkpt lat="41.0246817" lon="14.36316"><ele>39.0</ele><time>2026-04-25T08:20:06.381Z</time></trkpt><trkpt lat="41.0247083" lon="14.363265"><ele>39.166666666666664</ele><time>2026-04-25T08:20:07.381Z</time></trkpt><trkpt lat="41.0247333" lon="14.3633667"><ele>39.333333333333336</ele><time>2026-04-25T08:20:08.38Z</time></trkpt><trkpt lat="41.0247633" lon="14.3634667"><ele>39.5</ele><time>2026-04-25T08:20:09.381Z</time></trkpt><trkpt lat="41.0247967" lon="14.3635617"><ele>39.66666666666667</ele><time>2026-04-25T08:20:10.381Z</time></trkpt><trkpt lat="41.02483" lon="14.36366"><ele>39.833333333333336</ele><time>2026-04-25T08:20:11.381Z</time></trkpt><trkpt lat="41.0248633" lon="14.3637583"><ele>40.0</ele><time>2026-04-25T08:20:12.382Z</time></trkpt><trkpt lat="41.024895" lon="14.363855"><ele>40.0</ele><time>2026-04-25T08:20:13.38Z</time></trkpt><trkpt lat="41.024925" lon="14.3639467"><ele>40.0</ele><time>2026-04-25T08:20:14.381Z</time></trkpt><trkpt lat="41.02496" lon="14.3640367"><ele>40.0</ele><time>2026-04-25T08:20:15.381Z</time></trkpt><trkpt lat="41.024995" lon="14.3641267"><ele>40.0</ele><time>2026-04-25T08:20:16.381Z</time></trkpt><trkpt lat="41.0250317" lon="14.3642217"><ele>40.0</ele><time>2026-04-25T08:20:17.381Z</time></trkpt><trkpt lat="41.025065" lon="14.364315"><ele>40.0</ele><time>2026-04-25T08:20:18.381Z</time></trkpt><trkpt lat="41.025095" lon="14.364415"><ele>40.16666666666667</ele><time>2026-04-25T08:20:19.38Z</time></trkpt><trkpt lat="41.0251267" lon="14.36452"><ele>40.333333333333336</ele><time>2026-04-25T08:20:20.381Z</time></trkpt><trkpt lat="41.0251533" lon="14.36463"><ele>40.5</ele><time>2026-04-25T08:20:21.381Z</time></trkpt><trkpt lat="41.0251767" lon="14.36474"><ele>40.666666666666664</ele><time>2026-04-25T08:20:22.38Z</time></trkpt><trkpt lat="41.0252" lon="14.3648483"><ele>40.83333333333333</ele><time>2026-04-25T08:20:23.381Z</time></trkpt><trkpt lat="41.025225" lon="14.364955"><ele>41.0</ele><time>2026-04-25T08:20:24.381Z</time></trkpt><trkpt lat="41.025255" lon="14.3650633"><ele>41.0</ele><time>2026-04-25T08:20:25.381Z</time></trkpt><trkpt lat="41.025285" lon="14.36517"><ele>41.0</ele><time>2026-04-25T08:20:26.38Z</time></trkpt><trkpt lat="41.025315" lon="14.3652717"><ele>41.0</ele><time>2026-04-25T08:20:27.38Z</time></trkpt><trkpt lat="41.0253467" lon="14.36537"><ele>41.0</ele><time>2026-04-25T08:20:28.38Z</time></trkpt><trkpt lat="41.0253767" lon="14.3654717"><ele>41.0</ele><time>2026-04-25T08:20:29.381Z</time></trkpt><trkpt lat="41.02541" lon="14.365575"><ele>41.0</ele><time>2026-04-25T08:20:30.381Z</time></trkpt><trkpt lat="41.025445" lon="14.36568"><ele>41.0</ele><time>2026-04-25T08:20:31.382Z</time></trkpt><trkpt lat="41.0254817" lon="14.365785"><ele>41.0</ele><time>2026-04-25T08:20:32.381Z</time></trkpt><trkpt lat="41.025515" lon="14.36589"><ele>41.0</ele><time>2026-04-25T08:20:33.381Z</time></trkpt><trkpt lat="41.02555" lon="14.3659967"><ele>41.0</ele><time>2026-04-25T08:20:34.38Z</time></trkpt><trkpt lat="41.0255833" lon="14.3661"><ele>41.0</ele><time>2026-04-25T08:20:35.381Z</time></trkpt><trkpt lat="41.0256183" lon="14.36621"><ele>41.0</ele><time>2026-04-25T08:20:36.38Z</time></trkpt><trkpt lat="41.02565" lon="14.36632"><ele>41.0</ele><time>2026-04-25T08:20:37.382Z</time></trkpt><trkpt lat="41.0256833" lon="14.366425"><ele>41.0</ele><time>2026-04-25T08:20:38.381Z</time></trkpt><trkpt lat="41.0257183" lon="14.366535"><ele>41.0</ele><time>2026-04-25T08:20:39.382Z</time></trkpt><trkpt lat="41.0257483" lon="14.3666417"><ele>41.0</ele><time>2026-04-25T08:20:40.381Z</time></trkpt><trkpt lat="41.0257767" lon="14.366745"><ele>41.0</ele><time>2026-04-25T08:20:41.381Z</time></trkpt><trkpt lat="41.0258017" lon="14.3668483"><ele>41.0</ele><time>2026-04-25T08:20:42.38Z</time></trkpt><trkpt lat="41.0258267" lon="14.366955"><ele>41.166666666666664</ele><time>2026-04-25T08:20:43.382Z</time></trkpt><trkpt lat="41.02585" lon="14.3670617"><ele>41.33333333333333</ele><time>2026-04-25T08:20:44.381Z</time></trkpt><trkpt lat="41.02587" lon="14.3671667"><ele>41.5</ele><time>2026-04-25T08:20:45.38Z</time></trkpt><trkpt lat="41.0258883" lon="14.3672683"><ele>41.666666666666664</ele><time>2026-04-25T08:20:46.381Z</time></trkpt><trkpt lat="41.025905" lon="14.3673667"><ele>41.833333333333336</ele><time>2026-04-25T08:20:47.38Z</time></trkpt><trkpt lat="41.025925" lon="14.367465"><ele>42.0</ele><time>2026-04-25T08:20:48.38Z</time></trkpt><trkpt lat="41.0259433" lon="14.3675617"><ele>42.0</ele><time>2026-04-25T08:20:49.383Z</time></trkpt><trkpt lat="41.0259583" lon="14.367655"><ele>42.0</ele><time>2026-04-25T08:20:50.381Z</time></trkpt><trkpt lat="41.02597" lon="14.367745"><ele>42.0</ele><time>2026-04-25T08:20:51.381Z</time></trkpt><trkpt lat="41.02598" lon="14.3678333"><ele>42.0</ele><time>2026-04-25T08:20:52.381Z</time></trkpt><trkpt lat="41.0259883" lon="14.3679167"><ele>42.0</ele><time>2026-04-25T08:20:53.382Z</time></trkpt><trkpt lat="41.0259967" lon="14.368"><ele>42.0</ele><time>2026-04-25T08:20:54.382Z</time></trkpt><trkpt lat="41.026" lon="14.368085"><ele>42.0</ele><time>2026-04-25T08:20:55.38Z</time></trkpt><trkpt lat="41.0259933" lon="14.36817"><ele>42.0</ele><time>2026-04-25T08:20:56.382Z</time></trkpt><trkpt lat="41.0259833" lon="14.368255"><ele>42.0</ele><time>2026-04-25T08:20:57.38Z</time></trkpt><trkpt lat="41.0259767" lon="14.3683417"><ele>42.0</ele><time>2026-04-25T08:20:58.38Z</time></trkpt><trkpt lat="41.0259633" lon="14.36843"><ele>42.0</ele><time>2026-04-25T08:20:59.381Z</time></trkpt><trkpt lat="41.025945" lon="14.36852"><ele>42.0</ele><time>2026-04-25T08:21:00.381Z</time></trkpt><trkpt lat="41.0259233" lon="14.36861"><ele>42.0</ele><time>2026-04-25T08:21:01.38Z</time></trkpt><trkpt lat="41.0259033" lon="14.3687033"><ele>42.0</ele><time>2026-04-25T08:21:02.381Z</time></trkpt><trkpt lat="41.0258867" lon="14.3687967"><ele>42.0</ele><time>2026-04-25T08:21:03.38Z</time></trkpt><trkpt lat="41.02587" lon="14.3688883"><ele>42.0</ele><time>2026-04-25T08:21:04.38Z</time></trkpt><trkpt lat="41.02585" lon="14.36898"><ele>42.0</ele><time>2026-04-25T08:21:05.381Z</time></trkpt><trkpt lat="41.0258333" lon="14.3690733"><ele>42.0</ele><time>2026-04-25T08:21:06.384Z</time></trkpt><trkpt lat="41.025815" lon="14.369165"><ele>42.0</ele><time>2026-04-25T08:21:07.381Z</time></trkpt><trkpt lat="41.025795" lon="14.369255"><ele>42.0</ele><time>2026-04-25T08:21:08.382Z</time></trkpt><trkpt lat="41.0257767" lon="14.3693467"><ele>42.0</ele><time>2026-04-25T08:21:09.381Z</time></trkpt><trkpt lat="41.0257583" lon="14.3694333"><ele>42.0</ele><time>2026-04-25T08:21:10.38Z</time></trkpt><trkpt lat="41.0257433" lon="14.3695217"><ele>42.0</ele><time>2026-04-25T08:21:11.381Z</time></trkpt><trkpt lat="41.0257267" lon="14.3696117"><ele>42.0</ele><time>2026-04-25T08:21:12.382Z</time></trkpt><trkpt lat="41.02571" lon="14.3697033"><ele>42.0</ele><time>2026-04-25T08:21:13.38Z</time></trkpt><trkpt lat="41.0256917" lon="14.3697983"><ele>42.0</ele><time>2026-04-25T08:21:14.381Z</time></trkpt><trkpt lat="41.0256733" lon="14.3698933"><ele>42.0</ele><time>2026-04-25T08:21:15.381Z</time></trkpt><trkpt lat="41.025655" lon="14.3699833"><ele>42.0</ele><time>2026-04-25T08:21:16.381Z</time></trkpt><trkpt lat="41.02564" lon="14.3700717"><ele>42.0</ele><time>2026-04-25T08:21:17.381Z</time></trkpt><trkpt lat="41.0256267" lon="14.3701617"><ele>42.0</ele><time>2026-04-25T08:21:18.381Z</time></trkpt><trkpt lat="41.0256133" lon="14.370255"><ele>42.0</ele><time>2026-04-25T08:21:19.381Z</time></trkpt><trkpt lat="41.0256" lon="14.37035"><ele>42.0</ele><time>2026-04-25T08:21:20.381Z</time></trkpt><trkpt lat="41.025585" lon="14.3704483"><ele>42.0</ele><time>2026-04-25T08:21:21.38Z</time></trkpt><trkpt lat="41.025575" lon="14.3705433"><ele>42.0</ele><time>2026-04-25T08:21:22.381Z</time></trkpt><trkpt lat="41.0255633" lon="14.3706383"><ele>42.0</ele><time>2026-04-25T08:21:23.382Z</time></trkpt><trkpt lat="41.0255483" lon="14.370735"><ele>42.0</ele><time>2026-04-25T08:21:24.381Z</time></trkpt><trkpt lat="41.02553" lon="14.370835"><ele>42.0</ele><time>2026-04-25T08:21:25.381Z</time></trkpt><trkpt lat="41.0255117" lon="14.3709333"><ele>42.0</ele><time>2026-04-25T08:21:26.381Z</time></trkpt><trkpt lat="41.0254917" lon="14.371035"><ele>42.0</ele><time>2026-04-25T08:21:27.385Z</time></trkpt><trkpt lat="41.0254733" lon="14.3711367"><ele>42.0</ele><time>2026-04-25T08:21:28.381Z</time></trkpt><trkpt lat="41.025455" lon="14.3712417"><ele>42.0</ele><time>2026-04-25T08:21:29.381Z</time></trkpt><trkpt lat="41.025435" lon="14.3713467"><ele>42.333333333333336</ele><time>2026-04-25T08:21:30.38Z</time></trkpt><trkpt lat="41.0254133" lon="14.3714517"><ele>42.666666666666664</ele><time>2026-04-25T08:21:31.381Z</time></trkpt><trkpt lat="41.02539" lon="14.371555"><ele>43.0</ele><time>2026-04-25T08:21:32.383Z</time></trkpt><trkpt lat="41.0253683" lon="14.3716617"><ele>43.33333333333333</ele><time>2026-04-25T08:21:33.381Z</time></trkpt><trkpt lat="41.0253467" lon="14.3717667"><ele>43.666666666666664</ele><time>2026-04-25T08:21:34.38Z</time></trkpt><trkpt lat="41.0253233" lon="14.3718667"><ele>44.0</ele><time>2026-04-25T08:21:35.381Z</time></trkpt><trkpt lat="41.0253017" lon="14.3719683"><ele>44.0</ele><time>2026-04-25T08:21:36.381Z</time></trkpt><trkpt lat="41.0252833" lon="14.3720717"><ele>44.0</ele><time>2026-04-25T08:21:37.381Z</time></trkpt><trkpt lat="41.0252617" lon="14.3721767"><ele>44.0</ele><time>2026-04-25T08:21:38.381Z</time></trkpt><trkpt lat="41.0252417" lon="14.3722833"><ele>44.0</ele><time>2026-04-25T08:21:39.381Z</time></trkpt><trkpt lat="41.0252217" lon="14.3723883"><ele>44.0</ele><time>2026-04-25T08:21:40.381Z</time></trkpt><trkpt lat="41.0251967" lon="14.3724917"><ele>44.0</ele><time>2026-04-25T08:21:41.381Z</time></trkpt><trkpt lat="41.0251717" lon="14.372595"><ele>43.83333333333333</ele><time>2026-04-25T08:21:42.381Z</time></trkpt><trkpt lat="41.025145" lon="14.3726983"><ele>43.666666666666664</ele><time>2026-04-25T08:21:43.381Z</time></trkpt><trkpt lat="41.025115" lon="14.372805"><ele>43.5</ele><time>2026-04-25T08:21:44.382Z</time></trkpt><trkpt lat="41.0250917" lon="14.37291"><ele>43.333333333333336</ele><time>2026-04-25T08:21:45.381Z</time></trkpt><trkpt lat="41.0250683" lon="14.37302"><ele>43.16666666666667</ele><time>2026-04-25T08:21:46.38Z</time></trkpt><trkpt lat="41.025045" lon="14.3731317"><ele>43.0</ele><time>2026-04-25T08:21:47.382Z</time></trkpt><trkpt lat="41.02502" lon="14.373245"><ele>43.0</ele><time>2026-04-25T08:21:48.381Z</time></trkpt><trkpt lat="41.02499" lon="14.373355"><ele>43.0</ele><time>2026-04-25T08:21:49.381Z</time></trkpt><trkpt lat="41.0249667" lon="14.3734683"><ele>43.0</ele><time>2026-04-25T08:21:50.382Z</time></trkpt><trkpt lat="41.0249433" lon="14.37358"><ele>43.0</ele><time>2026-04-25T08:21:51.381Z</time></trkpt><trkpt lat="41.0249233" lon="14.3736883"><ele>43.0</ele><time>2026-04-25T08:21:52.381Z</time></trkpt><trkpt lat="41.0249017" lon="14.373795"><ele>43.0</ele><time>2026-04-25T08:21:53.381Z</time></trkpt><trkpt lat="41.0248783" lon="14.3739017"><ele>43.0</ele><time>2026-04-25T08:21:54.382Z</time></trkpt><trkpt lat="41.0248567" lon="14.37401"><ele>43.0</ele><time>2026-04-25T08:21:55.381Z</time></trkpt><trkpt lat="41.0248383" lon="14.3741183"><ele>43.0</ele><time>2026-04-25T08:21:56.381Z</time></trkpt><trkpt lat="41.02482" lon="14.3742167"><ele>43.0</ele><time>2026-04-25T08:21:57.382Z</time></trkpt><trkpt lat="41.0248017" lon="14.3743017"><ele>43.0</ele><time>2026-04-25T08:21:58.38Z</time></trkpt><trkpt lat="41.024735" lon="14.3744333"><ele>43.0</ele><time>2026-04-25T08:22:00.38Z</time></trkpt><trkpt lat="41.024665" lon="14.3745567"><ele>43.0</ele><time>2026-04-25T08:22:02.381Z</time></trkpt><trkpt lat="41.0246517" lon="14.37471"><ele>43.0</ele><time>2026-04-25T08:22:04.381Z</time></trkpt><trkpt lat="41.0246467" lon="14.3747933"><ele>43.0</ele><time>2026-04-25T08:22:05.381Z</time></trkpt><trkpt lat="41.024635" lon="14.3748783"><ele>43.0</ele><time>2026-04-25T08:22:06.381Z</time></trkpt><trkpt lat="41.0246167" lon="14.3749733"><ele>43.0</ele><time>2026-04-25T08:22:07.382Z</time></trkpt><trkpt lat="41.0245983" lon="14.3750717"><ele>43.0</ele><time>2026-04-25T08:22:08.381Z</time></trkpt><trkpt lat="41.0245783" lon="14.375175"><ele>43.0</ele><time>2026-04-25T08:22:09.381Z</time></trkpt><trkpt lat="41.0245567" lon="14.37528"><ele>43.0</ele><time>2026-04-25T08:22:10.381Z</time></trkpt><trkpt lat="41.0245333" lon="14.375385"><ele>43.0</ele><time>2026-04-25T08:22:11.381Z</time></trkpt><trkpt lat="41.0245083" lon="14.37549"><ele>43.0</ele><time>2026-04-25T08:22:12.381Z</time></trkpt><trkpt lat="41.024485" lon="14.3755917"><ele>43.0</ele><time>2026-04-25T08:22:13.381Z</time></trkpt><trkpt lat="41.02446" lon="14.375695"><ele>43.0</ele><time>2026-04-25T08:22:14.381Z</time></trkpt><trkpt lat="41.0244367" lon="14.3758017"><ele>43.0</ele><time>2026-04-25T08:22:15.384Z</time></trkpt><trkpt lat="41.024415" lon="14.3759117"><ele>43.0</ele><time>2026-04-25T08:22:16.382Z</time></trkpt><trkpt lat="41.0243917" lon="14.3760217"><ele>43.0</ele><time>2026-04-25T08:22:17.382Z</time></trkpt><trkpt lat="41.0243667" lon="14.3761317"><ele>43.0</ele><time>2026-04-25T08:22:18.382Z</time></trkpt><trkpt lat="41.0243433" lon="14.3762383"><ele>43.0</ele><time>2026-04-25T08:22:19.38Z</time></trkpt><trkpt lat="41.0243167" lon="14.376345"><ele>43.0</ele><time>2026-04-25T08:22:20.38Z</time></trkpt><trkpt lat="41.0242933" lon="14.3764517"><ele>43.0</ele><time>2026-04-25T08:22:21.386Z</time></trkpt><trkpt lat="41.02427" lon="14.3765617"><ele>43.0</ele><time>2026-04-25T08:22:22.381Z</time></trkpt><trkpt lat="41.0242467" lon="14.37667"><ele>43.0</ele><time>2026-04-25T08:22:23.383Z</time></trkpt><trkpt lat="41.0242233" lon="14.37678"><ele>43.0</ele><time>2026-04-25T08:22:24.382Z</time></trkpt><trkpt lat="41.0241967" lon="14.3768917"><ele>43.0</ele><time>2026-04-25T08:22:25.38Z</time></trkpt><trkpt lat="41.0241733" lon="14.3770017"><ele>43.0</ele><time>2026-04-25T08:22:26.381Z</time></trkpt><trkpt lat="41.0241533" lon="14.3771133"><ele>42.66666666666667</ele><time>2026-04-25T08:22:27.381Z</time></trkpt><trkpt lat="41.02413" lon="14.3772217"><ele>42.333333333333336</ele><time>2026-04-25T08:22:28.381Z</time></trkpt><trkpt lat="41.024105" lon="14.37733"><ele>42.0</ele><time>2026-04-25T08:22:29.381Z</time></trkpt><trkpt lat="41.02408" lon="14.3774417"><ele>41.666666666666664</ele><time>2026-04-25T08:22:30.381Z</time></trkpt><trkpt lat="41.0240567" lon="14.3775533"><ele>41.33333333333333</ele><time>2026-04-25T08:22:31.38Z</time></trkpt><trkpt lat="41.0240333" lon="14.3776617"><ele>41.0</ele><time>2026-04-25T08:22:32.381Z</time></trkpt><trkpt lat="41.0240117" lon="14.37777"><ele>41.0</ele><time>2026-04-25T08:22:33.382Z</time></trkpt><trkpt lat="41.02399" lon="14.3778783"><ele>41.0</ele><time>2026-04-25T08:22:34.382Z</time></trkpt><trkpt lat="41.02397" lon="14.3779883"><ele>41.0</ele><time>2026-04-25T08:22:35.381Z</time></trkpt><trkpt lat="41.0239483" lon="14.3780967"><ele>41.0</ele><time>2026-04-25T08:22:36.38Z</time></trkpt><trkpt lat="41.0239267" lon="14.3782083"><ele>41.0</ele><time>2026-04-25T08:22:37.382Z</time></trkpt><trkpt lat="41.0239067" lon="14.3783183"><ele>41.0</ele><time>2026-04-25T08:22:38.383Z</time></trkpt><trkpt lat="41.0238817" lon="14.3784317"><ele>41.166666666666664</ele><time>2026-04-25T08:22:39.38Z</time></trkpt><trkpt lat="41.023855" lon="14.378545"><ele>41.33333333333333</ele><time>2026-04-25T08:22:40.385Z</time></trkpt><trkpt lat="41.0238333" lon="14.3786583"><ele>41.5</ele><time>2026-04-25T08:22:41.382Z</time></trkpt><trkpt lat="41.02381" lon="14.3787717"><ele>41.666666666666664</ele><time>2026-04-25T08:22:42.384Z</time></trkpt><trkpt lat="41.0237867" lon="14.3788817"><ele>41.833333333333336</ele><time>2026-04-25T08:22:43.381Z</time></trkpt><trkpt lat="41.023765" lon="14.3789933"><ele>42.0</ele><time>2026-04-25T08:22:44.382Z</time></trkpt><trkpt lat="41.0237433" lon="14.3791083"><ele>42.0</ele><time>2026-04-25T08:22:45.382Z</time></trkpt><trkpt lat="41.023715" lon="14.3792233"><ele>42.0</ele><time>2026-04-25T08:22:46.383Z</time></trkpt><trkpt lat="41.0236933" lon="14.3793317"><ele>42.0</ele><time>2026-04-25T08:22:47.384Z</time></trkpt><trkpt lat="41.02367" lon="14.3794433"><ele>42.0</ele><time>2026-04-25T08:22:48.38Z</time></trkpt><trkpt lat="41.0236483" lon="14.3795567"><ele>42.0</ele><time>2026-04-25T08:22:49.382Z</time></trkpt><trkpt lat="41.02363" lon="14.3796683"><ele>42.0</ele><time>2026-04-25T08:22:50.381Z</time></trkpt><trkpt lat="41.02361" lon="14.3797817"><ele>42.0</ele><time>2026-04-25T08:22:51.382Z</time></trkpt><trkpt lat="41.0235917" lon="14.3798917"><ele>42.0</ele><time>2026-04-25T08:22:52.381Z</time></trkpt><trkpt lat="41.0235717" lon="14.3800033"><ele>42.0</ele><time>2026-04-25T08:22:53.381Z</time></trkpt><trkpt lat="41.0235517" lon="14.380115"><ele>42.0</ele><time>2026-04-25T08:22:54.381Z</time></trkpt><trkpt lat="41.0235317" lon="14.3802283"><ele>42.0</ele><time>2026-04-25T08:22:55.381Z</time></trkpt><trkpt lat="41.0235167" lon="14.380345"><ele>42.0</ele><time>2026-04-25T08:22:56.38Z</time></trkpt><trkpt lat="41.0235033" lon="14.3804617"><ele>42.166666666666664</ele><time>2026-04-25T08:22:57.385Z</time></trkpt><trkpt lat="41.023495" lon="14.3805783"><ele>42.333333333333336</ele><time>2026-04-25T08:22:58.381Z</time></trkpt><trkpt lat="41.0234867" lon="14.3806967"><ele>42.5</ele><time>2026-04-25T08:22:59.382Z</time></trkpt><trkpt lat="41.0234867" lon="14.380815"><ele>42.66666666666667</ele><time>2026-04-25T08:23:00.381Z</time></trkpt><trkpt lat="41.0234867" lon="14.380935"><ele>42.833333333333336</ele><time>2026-04-25T08:23:01.38Z</time></trkpt><trkpt lat="41.0234883" lon="14.3810533"><ele>43.0</ele><time>2026-04-25T08:23:02.381Z</time></trkpt><trkpt lat="41.0234933" lon="14.3811717"><ele>43.0</ele><time>2026-04-25T08:23:03.381Z</time></trkpt><trkpt lat="41.0235017" lon="14.3812883"><ele>43.0</ele><time>2026-04-25T08:23:04.38Z</time></trkpt><trkpt lat="41.0235083" lon="14.3814083"><ele>43.0</ele><time>2026-04-25T08:23:05.381Z</time></trkpt><trkpt lat="41.0235217" lon="14.38152"><ele>43.0</ele><time>2026-04-25T08:23:06.38Z</time></trkpt><trkpt lat="41.023535" lon="14.3816367"><ele>43.0</ele><time>2026-04-25T08:23:07.381Z</time></trkpt><trkpt lat="41.0235483" lon="14.3817533"><ele>43.0</ele><time>2026-04-25T08:23:08.381Z</time></trkpt><trkpt lat="41.023565" lon="14.3818767"><ele>43.4</ele><time>2026-04-25T08:23:09.382Z</time></trkpt><trkpt lat="41.0235833" lon="14.3819967"><ele>43.8</ele><time>2026-04-25T08:23:10.38Z</time></trkpt><trkpt lat="41.0236" lon="14.3821133"><ele>44.2</ele><time>2026-04-25T08:23:11.38Z</time></trkpt><trkpt lat="41.0236183" lon="14.3822317"><ele>44.6</ele><time>2026-04-25T08:23:12.381Z</time></trkpt><trkpt lat="41.02364" lon="14.3823467"><ele>45.0</ele><time>2026-04-25T08:23:13.381Z</time></trkpt><trkpt lat="41.0236617" lon="14.3824617"><ele>45.0</ele><time>2026-04-25T08:23:14.382Z</time></trkpt><trkpt lat="41.0236817" lon="14.382575"><ele>45.0</ele><time>2026-04-25T08:23:15.381Z</time></trkpt><trkpt lat="41.0236967" lon="14.3826917"><ele>45.0</ele><time>2026-04-25T08:23:16.381Z</time></trkpt><trkpt lat="41.0237167" lon="14.382805"><ele>45.0</ele><time>2026-04-25T08:23:17.381Z</time></trkpt><trkpt lat="41.0237367" lon="14.382915"><ele>45.0</ele><time>2026-04-25T08:23:18.381Z</time></trkpt><trkpt lat="41.0237533" lon="14.3830217"><ele>45.0</ele><time>2026-04-25T08:23:19.382Z</time></trkpt><trkpt lat="41.0237683" lon="14.3831317"><ele>45.0</ele><time>2026-04-25T08:23:20.382Z</time></trkpt><trkpt lat="41.0237867" lon="14.383235"><ele>45.0</ele><time>2026-04-25T08:23:21.381Z</time></trkpt><trkpt lat="41.023805" lon="14.3833383"><ele>45.0</ele><time>2026-04-25T08:23:22.382Z</time></trkpt><trkpt lat="41.0238233" lon="14.38344"><ele>45.0</ele><time>2026-04-25T08:23:23.381Z</time></trkpt><trkpt lat="41.02384" lon="14.383545"><ele>45.0</ele><time>2026-04-25T08:23:24.381Z</time></trkpt><trkpt lat="41.0238567" lon="14.38365"><ele>45.0</ele><time>2026-04-25T08:23:25.381Z</time></trkpt><trkpt lat="41.0238733" lon="14.3837533"><ele>45.0</ele><time>2026-04-25T08:23:26.381Z</time></trkpt><trkpt lat="41.0238917" lon="14.3838567"><ele>45.0</ele><time>2026-04-25T08:23:27.381Z</time></trkpt><trkpt lat="41.0239083" lon="14.383955"><ele>45.0</ele><time>2026-04-25T08:23:28.381Z</time></trkpt><trkpt lat="41.0239267" lon="14.384055"><ele>45.0</ele><time>2026-04-25T08:23:29.382Z</time></trkpt><trkpt lat="41.0239467" lon="14.3841567"><ele>45.0</ele><time>2026-04-25T08:23:30.38Z</time></trkpt><trkpt lat="41.023965" lon="14.38426"><ele>45.0</ele><time>2026-04-25T08:23:31.38Z</time></trkpt><trkpt lat="41.0239833" lon="14.3843633"><ele>45.0</ele><time>2026-04-25T08:23:32.38Z</time></trkpt><trkpt lat="41.0240033" lon="14.3844667"><ele>45.0</ele><time>2026-04-25T08:23:33.381Z</time></trkpt><trkpt lat="41.0240217" lon="14.3845717"><ele>45.0</ele><time>2026-04-25T08:23:34.381Z</time></trkpt><trkpt lat="41.0240383" lon="14.3846767"><ele>45.0</ele><time>2026-04-25T08:23:35.382Z</time></trkpt><trkpt lat="41.024055" lon="14.3847833"><ele>45.0</ele><time>2026-04-25T08:23:36.381Z</time></trkpt><trkpt lat="41.024075" lon="14.38489"><ele>45.0</ele><time>2026-04-25T08:23:37.381Z</time></trkpt><trkpt lat="41.0240933" lon="14.3849967"><ele>45.166666666666664</ele><time>2026-04-25T08:23:38.381Z</time></trkpt><trkpt lat="41.024115" lon="14.3851"><ele>45.333333333333336</ele><time>2026-04-25T08:23:39.381Z</time></trkpt><trkpt lat="41.0241333" lon="14.3852067"><ele>45.5</ele><time>2026-04-25T08:23:40.381Z</time></trkpt><trkpt lat="41.0241533" lon="14.3853117"><ele>45.66666666666667</ele><time>2026-04-25T08:23:41.38Z</time></trkpt><trkpt lat="41.0241717" lon="14.3854167"><ele>45.833333333333336</ele><time>2026-04-25T08:23:42.38Z</time></trkpt><trkpt lat="41.0241917" lon="14.385525"><ele>46.0</ele><time>2026-04-25T08:23:43.381Z</time></trkpt><trkpt lat="41.0242133" lon="14.3856333"><ele>46.16666666666667</ele><time>2026-04-25T08:23:44.38Z</time></trkpt><trkpt lat="41.0242333" lon="14.38574"><ele>46.333333333333336</ele><time>2026-04-25T08:23:45.382Z</time></trkpt><trkpt lat="41.0242517" lon="14.3858467"><ele>46.5</ele><time>2026-04-25T08:23:46.381Z</time></trkpt><trkpt lat="41.02427" lon="14.3859567"><ele>46.666666666666664</ele><time>2026-04-25T08:23:47.383Z</time></trkpt><trkpt lat="41.02429" lon="14.38607"><ele>46.83333333333333</ele><time>2026-04-25T08:23:48.381Z</time></trkpt><trkpt lat="41.0243067" lon="14.38618"><ele>47.0</ele><time>2026-04-25T08:23:49.382Z</time></trkpt><trkpt lat="41.024325" lon="14.3862917"><ele>47.666666666666664</ele><time>2026-04-25T08:23:50.382Z</time></trkpt><trkpt lat="41.0243433" lon="14.3863967"><ele>48.33333333333333</ele><time>2026-04-25T08:23:51.38Z</time></trkpt><trkpt lat="41.0243667" lon="14.3864983"><ele>49.0</ele><time>2026-04-25T08:23:52.382Z</time></trkpt><trkpt lat="41.0243917" lon="14.3866017"><ele>49.666666666666664</ele><time>2026-04-25T08:23:53.381Z</time></trkpt><trkpt lat="41.0244167" lon="14.3867083"><ele>50.333333333333336</ele><time>2026-04-25T08:23:54.381Z</time></trkpt><trkpt lat="41.0244467" lon="14.3868167"><ele>51.0</ele><time>2026-04-25T08:23:55.381Z</time></trkpt><trkpt lat="41.0244733" lon="14.386925"><ele>51.0</ele><time>2026-04-25T08:23:56.381Z</time></trkpt><trkpt lat="41.024505" lon="14.3870317"><ele>51.0</ele><time>2026-04-25T08:23:57.382Z</time></trkpt><trkpt lat="41.02454" lon="14.3871333"><ele>51.0</ele><time>2026-04-25T08:23:58.38Z</time></trkpt><trkpt lat="41.0245783" lon="14.3872367"><ele>51.0</ele><time>2026-04-25T08:23:59.381Z</time></trkpt><trkpt lat="41.0246233" lon="14.3873417"><ele>51.0</ele><time>2026-04-25T08:24:00.382Z</time></trkpt><trkpt lat="41.0246683" lon="14.3874433"><ele>51.0</ele><time>2026-04-25T08:24:01.381Z</time></trkpt><trkpt lat="41.02472" lon="14.3875417"><ele>51.0</ele><time>2026-04-25T08:24:02.381Z</time></trkpt><trkpt lat="41.0247683" lon="14.3876417"><ele>51.0</ele><time>2026-04-25T08:24:03.381Z</time></trkpt><trkpt lat="41.024815" lon="14.38774"><ele>51.0</ele><time>2026-04-25T08:24:04.381Z</time></trkpt><trkpt lat="41.024865" lon="14.38783"><ele>51.0</ele><time>2026-04-25T08:24:05.381Z</time></trkpt><trkpt lat="41.0249183" lon="14.3879183"><ele>51.0</ele><time>2026-04-25T08:24:06.382Z</time></trkpt><trkpt lat="41.0249717" lon="14.388"><ele>51.0</ele><time>2026-04-25T08:24:07.381Z</time></trkpt><trkpt lat="41.0250217" lon="14.3880833"><ele>50.833333333333336</ele><time>2026-04-25T08:24:08.381Z</time></trkpt><trkpt lat="41.025075" lon="14.388165"><ele>50.66666666666667</ele><time>2026-04-25T08:24:09.38Z</time></trkpt><trkpt lat="41.0251283" lon="14.3882517"><ele>50.5</ele><time>2026-04-25T08:24:10.381Z</time></trkpt><trkpt lat="41.0251883" lon="14.3883317"><ele>50.333333333333336</ele><time>2026-04-25T08:24:11.38Z</time></trkpt><trkpt lat="41.0252517" lon="14.3884133"><ele>50.16666666666667</ele><time>2026-04-25T08:24:12.381Z</time></trkpt><trkpt lat="41.0253117" lon="14.388495"><ele>50.0</ele><time>2026-04-25T08:24:13.381Z</time></trkpt><trkpt lat="41.0253717" lon="14.3885733"><ele>50.00000000000001</ele><time>2026-04-25T08:24:14.382Z</time></trkpt><trkpt lat="41.02543" lon="14.3886517"><ele>50.0</ele><time>2026-04-25T08:24:15.381Z</time></trkpt><trkpt lat="41.025485" lon="14.3887283"><ele>50.0</ele><time>2026-04-25T08:24:16.382Z</time></trkpt><trkpt lat="41.0255433" lon="14.3888017"><ele>50.0</ele><time>2026-04-25T08:24:17.382Z</time></trkpt><trkpt lat="41.0256" lon="14.388875"><ele>50.00000000000001</ele><time>2026-04-25T08:24:18.381Z</time></trkpt><trkpt lat="41.0256567" lon="14.38895"><ele>50.0</ele><time>2026-04-25T08:24:19.38Z</time></trkpt><trkpt lat="41.0257133" lon="14.389025"><ele>50.00000000000001</ele><time>2026-04-25T08:24:20.381Z</time></trkpt><trkpt lat="41.0257717" lon="14.3890983"><ele>50.0</ele><time>2026-04-25T08:24:21.382Z</time></trkpt><trkpt lat="41.0258283" lon="14.3891717"><ele>50.0</ele><time>2026-04-25T08:24:22.383Z</time></trkpt><trkpt lat="41.0258833" lon="14.389245"><ele>50.0</ele><time>2026-04-25T08:24:23.38Z</time></trkpt><trkpt lat="41.0259367" lon="14.3893183"><ele>50.00000000000001</ele><time>2026-04-25T08:24:24.381Z</time></trkpt><trkpt lat="41.0259933" lon="14.3893867"><ele>50.0</ele><time>2026-04-25T08:24:25.381Z</time></trkpt><trkpt lat="41.0260483" lon="14.3894567"><ele>50.00000000000001</ele><time>2026-04-25T08:24:26.382Z</time></trkpt><trkpt lat="41.0261017" lon="14.3895233"><ele>50.0</ele><time>2026-04-25T08:24:27.381Z</time></trkpt><trkpt lat="41.0261533" lon="14.3895917"><ele>50.0</ele><time>2026-04-25T08:24:28.381Z</time></trkpt><trkpt lat="41.0262067" lon="14.3896617"><ele>50.0</ele><time>2026-04-25T08:24:29.384Z</time></trkpt><trkpt lat="41.02626" lon="14.3897317"><ele>50.0</ele><time>2026-04-25T08:24:30.383Z</time></trkpt><trkpt lat="41.0263167" lon="14.3897983"><ele>50.00000000000001</ele><time>2026-04-25T08:24:31.382Z</time></trkpt><trkpt lat="41.0263683" lon="14.3898683"><ele>50.0</ele><time>2026-04-25T08:24:32.382Z</time></trkpt><trkpt lat="41.0264183" lon="14.3899367"><ele>50.00000000000001</ele><time>2026-04-25T08:24:33.382Z</time></trkpt><trkpt lat="41.02647" lon="14.3900067"><ele>50.0</ele><time>2026-04-25T08:24:34.38Z</time></trkpt><trkpt lat="41.0265167" lon="14.3900767"><ele>50.0</ele><time>2026-04-25T08:24:35.381Z</time></trkpt><trkpt lat="41.026565" lon="14.3901467"><ele>50.0</ele><time>2026-04-25T08:24:36.382Z</time></trkpt><trkpt lat="41.026615" lon="14.3902083"><ele>50.0</ele><time>2026-04-25T08:24:37.381Z</time></trkpt><trkpt lat="41.02666" lon="14.390275"><ele>50.00000000000001</ele><time>2026-04-25T08:24:38.381Z</time></trkpt><trkpt lat="41.0267067" lon="14.3903367"><ele>50.0</ele><time>2026-04-25T08:24:39.382Z</time></trkpt><trkpt lat="41.0267533" lon="14.3904"><ele>50.00000000000001</ele><time>2026-04-25T08:24:40.381Z</time></trkpt><trkpt lat="41.0268017" lon="14.39046"><ele>50.0</ele><time>2026-04-25T08:24:41.381Z</time></trkpt><trkpt lat="41.02685" lon="14.390525"><ele>50.0</ele><time>2026-04-25T08:24:42.381Z</time></trkpt><trkpt lat="41.0268967" lon="14.39059"><ele>50.0</ele><time>2026-04-25T08:24:43.381Z</time></trkpt><trkpt lat="41.0269433" lon="14.3906533"><ele>50.0</ele><time>2026-04-25T08:24:44.382Z</time></trkpt><trkpt lat="41.0269933" lon="14.3907167"><ele>50.00000000000001</ele><time>2026-04-25T08:24:45.381Z</time></trkpt><trkpt lat="41.02704" lon="14.39078"><ele>50.0</ele><time>2026-04-25T08:24:46.381Z</time></trkpt><trkpt lat="41.0270867" lon="14.390845"><ele>50.00000000000001</ele><time>2026-04-25T08:24:47.38Z</time></trkpt><trkpt lat="41.0271367" lon="14.3909133"><ele>50.0</ele><time>2026-04-25T08:24:48.382Z</time></trkpt><trkpt lat="41.0271833" lon="14.3909817"><ele>50.0</ele><time>2026-04-25T08:24:49.38Z</time></trkpt><trkpt lat="41.0272317" lon="14.3910483"><ele>50.0</ele><time>2026-04-25T08:24:50.381Z</time></trkpt><trkpt lat="41.0272817" lon="14.39111"><ele>50.0</ele><time>2026-04-25T08:24:51.383Z</time></trkpt><trkpt lat="41.0273317" lon="14.3911733"><ele>50.00000000000001</ele><time>2026-04-25T08:24:52.382Z</time></trkpt><trkpt lat="41.0273767" lon="14.3912467"><ele>50.0</ele><time>2026-04-25T08:24:53.381Z</time></trkpt><trkpt lat="41.0274233" lon="14.3913117"><ele>50.28571428571429</ele><time>2026-04-25T08:24:54.382Z</time></trkpt><trkpt lat="41.0274733" lon="14.39138"><ele>50.57142857142857</ele><time>2026-04-25T08:24:55.383Z</time></trkpt><trkpt lat="41.0275233" lon="14.3914467"><ele>50.85714285714286</ele><time>2026-04-25T08:24:56.382Z</time></trkpt><trkpt lat="41.0275733" lon="14.3915133"><ele>51.142857142857146</ele><time>2026-04-25T08:24:57.381Z</time></trkpt><trkpt lat="41.0276267" lon="14.39158"><ele>51.42857142857143</ele><time>2026-04-25T08:24:58.38Z</time></trkpt><trkpt lat="41.02768" lon="14.3916517"><ele>51.714285714285715</ele><time>2026-04-25T08:24:59.38Z</time></trkpt><trkpt lat="41.02773" lon="14.39172"><ele>52.0</ele><time>2026-04-25T08:25:00.386Z</time></trkpt><trkpt lat="41.0277833" lon="14.3917883"><ele>52.0</ele><time>2026-04-25T08:25:01.381Z</time></trkpt><trkpt lat="41.027835" lon="14.3918583"><ele>52.0</ele><time>2026-04-25T08:25:02.382Z</time></trkpt><trkpt lat="41.0278917" lon="14.3919267"><ele>52.0</ele><time>2026-04-25T08:25:03.382Z</time></trkpt><trkpt lat="41.027945" lon="14.3919917"><ele>52.0</ele><time>2026-04-25T08:25:04.381Z</time></trkpt><trkpt lat="41.0279967" lon="14.392055"><ele>52.0</ele><time>2026-04-25T08:25:05.38Z</time></trkpt><trkpt lat="41.0280467" lon="14.3921133"><ele>52.0</ele><time>2026-04-25T08:25:06.383Z</time></trkpt><trkpt lat="41.0281033" lon="14.392165"><ele>52.0</ele><time>2026-04-25T08:25:07.381Z</time></trkpt><trkpt lat="41.0281617" lon="14.3922083"><ele>52.0</ele><time>2026-04-25T08:25:08.382Z</time></trkpt><trkpt lat="41.0282217" lon="14.39224"><ele>52.0</ele><time>2026-04-25T08:25:09.381Z</time></trkpt><trkpt lat="41.0282867" lon="14.3922683"><ele>52.0</ele><time>2026-04-25T08:25:10.381Z</time></trkpt><trkpt lat="41.02835" lon="14.3922983"><ele>52.0</ele><time>2026-04-25T08:25:11.381Z</time></trkpt><trkpt lat="41.0284117" lon="14.3923333"><ele>52.0</ele><time>2026-04-25T08:25:12.38Z</time></trkpt><trkpt lat="41.0284717" lon="14.392375"><ele>52.0</ele><time>2026-04-25T08:25:13.382Z</time></trkpt><trkpt lat="41.02853" lon="14.3924167"><ele>52.0</ele><time>2026-04-25T08:25:14.381Z</time></trkpt><trkpt lat="41.0285867" lon="14.3924583"><ele>52.6</ele><time>2026-04-25T08:25:15.381Z</time></trkpt><trkpt lat="41.02864" lon="14.3925033"><ele>53.2</ele><time>2026-04-25T08:25:16.381Z</time></trkpt><trkpt lat="41.0287267" lon="14.3926133"><ele>53.8</ele><time>2026-04-25T08:25:18.383Z</time></trkpt><trkpt lat="41.028755" lon="14.392745"><ele>54.4</ele><time>2026-04-25T08:25:20.381Z</time></trkpt><trkpt lat="41.02875" lon="14.3928883"><ele>55.0</ele><time>2026-04-25T08:25:22.381Z</time></trkpt><trkpt lat="41.0287733" lon="14.3930383"><ele>55.0</ele><time>2026-04-25T08:25:24.383Z</time></trkpt><trkpt lat="41.0288433" lon="14.3931767"><ele>55.0</ele><time>2026-04-25T08:25:26.38Z</time></trkpt><trkpt lat="41.028905" lon="14.3933183"><ele>55.0</ele><time>2026-04-25T08:25:28.381Z</time></trkpt><trkpt lat="41.02894" lon="14.3934733"><ele>55.0</ele><time>2026-04-25T08:25:30.381Z</time></trkpt><trkpt lat="41.0289533" lon="14.393555"><ele>55.0</ele><time>2026-04-25T08:25:31.381Z</time></trkpt><trkpt lat="41.0289667" lon="14.3936383"><ele>55.0</ele><time>2026-04-25T08:25:32.383Z</time></trkpt><trkpt lat="41.0290017" lon="14.3937967"><ele>55.0</ele><time>2026-04-25T08:25:34.381Z</time></trkpt><trkpt lat="41.02902" lon="14.39388"><ele>55.0</ele><time>2026-04-25T08:25:35.382Z</time></trkpt><trkpt lat="41.0290517" lon="14.394035"><ele>55.0</ele><time>2026-04-25T08:25:37.382Z</time></trkpt><trkpt lat="41.0290783" lon="14.39418"><ele>55.0</ele><time>2026-04-25T08:25:39.382Z</time></trkpt><trkpt lat="41.029115" lon="14.3943317"><ele>55.5</ele><time>2026-04-25T08:25:41.38Z</time></trkpt><trkpt lat="41.0291517" lon="14.3944817"><ele>56.0</ele><time>2026-04-25T08:25:43.382Z</time></trkpt><trkpt lat="41.0291917" lon="14.394625"><ele>56.5</ele><time>2026-04-25T08:25:45.381Z</time></trkpt><trkpt lat="41.029235" lon="14.394765"><ele>57.0</ele><time>2026-04-25T08:25:47.381Z</time></trkpt><trkpt lat="41.0292817" lon="14.39491"><ele>57.14285714285714</ele><time>2026-04-25T08:25:49.382Z</time></trkpt><trkpt lat="41.0293167" lon="14.3950567"><ele>57.28571428571428</ele><time>2026-04-25T08:25:51.382Z</time></trkpt><trkpt lat="41.0293317" lon="14.39514"><ele>57.42857142857143</ele><time>2026-04-25T08:25:52.38Z</time></trkpt><trkpt lat="41.0293467" lon="14.3952217"><ele>57.57142857142857</ele><time>2026-04-25T08:25:53.382Z</time></trkpt><trkpt lat="41.029365" lon="14.395305"><ele>57.714285714285715</ele><time>2026-04-25T08:25:54.382Z</time></trkpt><trkpt lat="41.0293817" lon="14.3953933"><ele>57.85714285714286</ele><time>2026-04-25T08:25:55.381Z</time></trkpt><trkpt lat="41.0293983" lon="14.3954817"><ele>58.00000000000001</ele><time>2026-04-25T08:25:56.382Z</time></trkpt><trkpt lat="41.02942" lon="14.395575"><ele>58.00000000000001</ele><time>2026-04-25T08:25:57.383Z</time></trkpt><trkpt lat="41.0294417" lon="14.39567"><ele>58.0</ele><time>2026-04-25T08:25:58.381Z</time></trkpt><trkpt lat="41.029465" lon="14.3957683"><ele>58.00000000000001</ele><time>2026-04-25T08:25:59.381Z</time></trkpt><trkpt lat="41.029485" lon="14.3958633"><ele>58.00000000000001</ele><time>2026-04-25T08:26:00.382Z</time></trkpt><trkpt lat="41.0295033" lon="14.3959567"><ele>58.0</ele><time>2026-04-25T08:26:01.38Z</time></trkpt><trkpt lat="41.0295283" lon="14.3960467"><ele>58.00000000000001</ele><time>2026-04-25T08:26:02.382Z</time></trkpt><trkpt lat="41.0295483" lon="14.3961367"><ele>58.00000000000001</ele><time>2026-04-25T08:26:03.382Z</time></trkpt><trkpt lat="41.0295717" lon="14.3962267"><ele>58.00000000000001</ele><time>2026-04-25T08:26:04.38Z</time></trkpt><trkpt lat="41.02959" lon="14.39632"><ele>58.0</ele><time>2026-04-25T08:26:05.381Z</time></trkpt><trkpt lat="41.029615" lon="14.39641"><ele>58.00000000000001</ele><time>2026-04-25T08:26:06.382Z</time></trkpt><trkpt lat="41.0296367" lon="14.3965033"><ele>58.00000000000001</ele><time>2026-04-25T08:26:07.38Z</time></trkpt><trkpt lat="41.0296567" lon="14.3965983"><ele>58.0</ele><time>2026-04-25T08:26:08.382Z</time></trkpt><trkpt lat="41.0296767" lon="14.3966933"><ele>58.00000000000001</ele><time>2026-04-25T08:26:09.381Z</time></trkpt><trkpt lat="41.029695" lon="14.3967883"><ele>58.00000000000001</ele><time>2026-04-25T08:26:10.381Z</time></trkpt><trkpt lat="41.0297133" lon="14.39688"><ele>57.83333333333333</ele><time>2026-04-25T08:26:11.381Z</time></trkpt><trkpt lat="41.0297317" lon="14.3969717"><ele>57.666666666666664</ele><time>2026-04-25T08:26:12.382Z</time></trkpt><trkpt lat="41.02975" lon="14.3970567"><ele>57.5</ele><time>2026-04-25T08:26:13.382Z</time></trkpt><trkpt lat="41.0297917" lon="14.3971883"><ele>57.33333333333333</ele><time>2026-04-25T08:26:15.382Z</time></trkpt><trkpt lat="41.0298317" lon="14.3973067"><ele>57.166666666666664</ele><time>2026-04-25T08:26:17.38Z</time></trkpt><trkpt lat="41.0298633" lon="14.3974333"><ele>57.0</ele><time>2026-04-25T08:26:19.382Z</time></trkpt><trkpt lat="41.029885" lon="14.3975733"><ele>56.857142857142854</ele><time>2026-04-25T08:26:21.381Z</time></trkpt><trkpt lat="41.0298933" lon="14.3976583"><ele>56.71428571428571</ele><time>2026-04-25T08:26:22.381Z</time></trkpt><trkpt lat="41.0299083" lon="14.39774"><ele>56.57142857142857</ele><time>2026-04-25T08:26:23.381Z</time></trkpt><trkpt lat="41.029925" lon="14.3978233"><ele>56.42857142857143</ele><time>2026-04-25T08:26:24.381Z</time></trkpt><trkpt lat="41.02994" lon="14.3979083"><ele>56.285714285714285</ele><time>2026-04-25T08:26:25.382Z</time></trkpt><trkpt lat="41.02996" lon="14.397995"><ele>56.14285714285714</ele><time>2026-04-25T08:26:26.382Z</time></trkpt><trkpt lat="41.02998" lon="14.3980767"><ele>56.0</ele><time>2026-04-25T08:26:27.381Z</time></trkpt><trkpt lat="41.0299983" lon="14.39816"><ele>56.42857142857143</ele><time>2026-04-25T08:26:28.382Z</time></trkpt><trkpt lat="41.0300183" lon="14.398245"><ele>56.85714285714286</ele><time>2026-04-25T08:26:29.382Z</time></trkpt><trkpt lat="41.0300383" lon="14.39833"><ele>57.285714285714285</ele><time>2026-04-25T08:26:30.382Z</time></trkpt><trkpt lat="41.0300567" lon="14.3984167"><ele>57.714285714285715</ele><time>2026-04-25T08:26:31.382Z</time></trkpt><trkpt lat="41.0300767" lon="14.3985033"><ele>58.142857142857146</ele><time>2026-04-25T08:26:32.385Z</time></trkpt><trkpt lat="41.0300967" lon="14.39859"><ele>58.57142857142857</ele><time>2026-04-25T08:26:33.382Z</time></trkpt><trkpt lat="41.0301183" lon="14.398675"><ele>59.0</ele><time>2026-04-25T08:26:34.382Z</time></trkpt><trkpt lat="41.030135" lon="14.3987633"><ele>59.0</ele><time>2026-04-25T08:26:35.382Z</time></trkpt><trkpt lat="41.030155" lon="14.398845"><ele>59.0</ele><time>2026-04-25T08:26:36.381Z</time></trkpt><trkpt lat="41.0301733" lon="14.3989267"><ele>59.0</ele><time>2026-04-25T08:26:37.381Z</time></trkpt><trkpt lat="41.03019" lon="14.3990117"><ele>59.0</ele><time>2026-04-25T08:26:38.382Z</time></trkpt><trkpt lat="41.0302083" lon="14.3990967"><ele>59.0</ele><time>2026-04-25T08:26:39.381Z</time></trkpt><trkpt lat="41.0302283" lon="14.3991833"><ele>59.0</ele><time>2026-04-25T08:26:40.381Z</time></trkpt><trkpt lat="41.03025" lon="14.3992717"><ele>59.0</ele><time>2026-04-25T08:26:41.382Z</time></trkpt><trkpt lat="41.0302683" lon="14.3993583"><ele>59.0</ele><time>2026-04-25T08:26:42.382Z</time></trkpt><trkpt lat="41.030285" lon="14.3994483"><ele>59.0</ele><time>2026-04-25T08:26:43.381Z</time></trkpt><trkpt lat="41.0303017" lon="14.3995367"><ele>59.0</ele><time>2026-04-25T08:26:44.382Z</time></trkpt><trkpt lat="41.030315" lon="14.3996283"><ele>59.0</ele><time>2026-04-25T08:26:45.383Z</time></trkpt><trkpt lat="41.030325" lon="14.3997233"><ele>59.0</ele><time>2026-04-25T08:26:46.381Z</time></trkpt><trkpt lat="41.0303333" lon="14.399815"><ele>59.0</ele><time>2026-04-25T08:26:47.381Z</time></trkpt><trkpt lat="41.03034" lon="14.3999067"><ele>59.0</ele><time>2026-04-25T08:26:48.383Z</time></trkpt><trkpt lat="41.0303467" lon="14.4000017"><ele>59.0</ele><time>2026-04-25T08:26:49.382Z</time></trkpt><trkpt lat="41.03035" lon="14.4000967"><ele>59.0</ele><time>2026-04-25T08:26:50.382Z</time></trkpt><trkpt lat="41.0303517" lon="14.4001933"><ele>59.0</ele><time>2026-04-25T08:26:51.382Z</time></trkpt><trkpt lat="41.0303533" lon="14.40029"><ele>59.0</ele><time>2026-04-25T08:26:52.381Z</time></trkpt><trkpt lat="41.0303467" lon="14.4003883"><ele>59.0</ele><time>2026-04-25T08:26:53.382Z</time></trkpt><trkpt lat="41.0303367" lon="14.40049"><ele>59.0</ele><time>2026-04-25T08:26:54.382Z</time></trkpt><trkpt lat="41.0303267" lon="14.400585"><ele>59.0</ele><time>2026-04-25T08:26:55.383Z</time></trkpt><trkpt lat="41.0303133" lon="14.4006833"><ele>59.14285714285714</ele><time>2026-04-25T08:26:56.381Z</time></trkpt><trkpt lat="41.0303033" lon="14.4007783"><ele>59.28571428571429</ele><time>2026-04-25T08:26:57.382Z</time></trkpt><trkpt lat="41.0302917" lon="14.4008733"><ele>59.42857142857143</ele><time>2026-04-25T08:26:58.381Z</time></trkpt><trkpt lat="41.03028" lon="14.40097"><ele>59.57142857142857</ele><time>2026-04-25T08:26:59.382Z</time></trkpt><trkpt lat="41.030265" lon="14.401065"><ele>59.71428571428571</ele><time>2026-04-25T08:27:00.382Z</time></trkpt><trkpt lat="41.0302483" lon="14.4011617"><ele>59.85714285714286</ele><time>2026-04-25T08:27:01.381Z</time></trkpt><trkpt lat="41.0302317" lon="14.40126"><ele>60.0</ele><time>2026-04-25T08:27:02.381Z</time></trkpt><trkpt lat="41.0302133" lon="14.4013583"><ele>60.0</ele><time>2026-04-25T08:27:03.382Z</time></trkpt><trkpt lat="41.0301917" lon="14.4014583"><ele>60.0</ele><time>2026-04-25T08:27:04.38Z</time></trkpt><trkpt lat="41.0301683" lon="14.401555"><ele>60.0</ele><time>2026-04-25T08:27:05.382Z</time></trkpt><trkpt lat="41.0301417" lon="14.4016433"><ele>60.0</ele><time>2026-04-25T08:27:06.382Z</time></trkpt><trkpt lat="41.0301117" lon="14.40173"><ele>60.0</ele><time>2026-04-25T08:27:07.381Z</time></trkpt><trkpt lat="41.0300817" lon="14.4018183"><ele>60.0</ele><time>2026-04-25T08:27:08.382Z</time></trkpt><trkpt lat="41.03005" lon="14.4019083"><ele>60.0</ele><time>2026-04-25T08:27:09.382Z</time></trkpt><trkpt lat="41.03002" lon="14.402"><ele>60.0</ele><time>2026-04-25T08:27:10.381Z</time></trkpt><trkpt lat="41.0299917" lon="14.40209"><ele>60.0</ele><time>2026-04-25T08:27:11.382Z</time></trkpt><trkpt lat="41.029965" lon="14.4021767"><ele>60.0</ele><time>2026-04-25T08:27:12.382Z</time></trkpt><trkpt lat="41.02994" lon="14.4022617"><ele>60.0</ele><time>2026-04-25T08:27:13.382Z</time></trkpt><trkpt lat="41.0299167" lon="14.402345"><ele>60.0</ele><time>2026-04-25T08:27:14.381Z</time></trkpt><trkpt lat="41.02989" lon="14.4024267"><ele>60.0</ele><time>2026-04-25T08:27:15.382Z</time></trkpt><trkpt lat="41.0298633" lon="14.40251"><ele>60.0</ele><time>2026-04-25T08:27:16.384Z</time></trkpt><trkpt lat="41.0298367" lon="14.4025967"><ele>59.85714285714286</ele><time>2026-04-25T08:27:17.381Z</time></trkpt><trkpt lat="41.02981" lon="14.4026817"><ele>59.71428571428571</ele><time>2026-04-25T08:27:18.382Z</time></trkpt><trkpt lat="41.0297833" lon="14.4027667"><ele>59.57142857142857</ele><time>2026-04-25T08:27:19.382Z</time></trkpt><trkpt lat="41.0297533" lon="14.4028533"><ele>59.42857142857143</ele><time>2026-04-25T08:27:20.382Z</time></trkpt><trkpt lat="41.02972" lon="14.4029383"><ele>59.28571428571429</ele><time>2026-04-25T08:27:21.382Z</time></trkpt><trkpt lat="41.02969" lon="14.4030217"><ele>59.14285714285714</ele><time>2026-04-25T08:27:22.381Z</time></trkpt><trkpt lat="41.02966" lon="14.403105"><ele>59.0</ele><time>2026-04-25T08:27:23.38Z</time></trkpt><trkpt lat="41.0296333" lon="14.4031867"><ele>59.0</ele><time>2026-04-25T08:27:24.381Z</time></trkpt><trkpt lat="41.0296033" lon="14.4032667"><ele>59.0</ele><time>2026-04-25T08:27:25.382Z</time></trkpt><trkpt lat="41.029575" lon="14.403345"><ele>59.0</ele><time>2026-04-25T08:27:26.382Z</time></trkpt><trkpt lat="41.0295417" lon="14.40343"><ele>59.0</ele><time>2026-04-25T08:27:27.382Z</time></trkpt><trkpt lat="41.0295083" lon="14.403515"><ele>59.0</ele><time>2026-04-25T08:27:28.382Z</time></trkpt><trkpt lat="41.0294817" lon="14.4036"><ele>59.0</ele><time>2026-04-25T08:27:29.381Z</time></trkpt><trkpt lat="41.0294517" lon="14.4036833"><ele>59.0</ele><time>2026-04-25T08:27:30.382Z</time></trkpt><trkpt lat="41.0294217" lon="14.4037667"><ele>58.71428571428571</ele><time>2026-04-25T08:27:31.381Z</time></trkpt><trkpt lat="41.0293933" lon="14.40385"><ele>58.42857142857143</ele><time>2026-04-25T08:27:32.382Z</time></trkpt><trkpt lat="41.0293667" lon="14.4039333"><ele>58.14285714285714</ele><time>2026-04-25T08:27:33.383Z</time></trkpt><trkpt lat="41.0293367" lon="14.4040217"><ele>57.857142857142854</ele><time>2026-04-25T08:27:34.384Z</time></trkpt><trkpt lat="41.0293067" lon="14.40411"><ele>57.57142857142857</ele><time>2026-04-25T08:27:35.381Z</time></trkpt><trkpt lat="41.0292783" lon="14.4041983"><ele>57.285714285714285</ele><time>2026-04-25T08:27:36.382Z</time></trkpt><trkpt lat="41.0292433" lon="14.40429"><ele>57.0</ele><time>2026-04-25T08:27:37.381Z</time></trkpt><trkpt lat="41.02921" lon="14.4043817"><ele>57.0</ele><time>2026-04-25T08:27:38.382Z</time></trkpt><trkpt lat="41.0291767" lon="14.4044767"><ele>57.0</ele><time>2026-04-25T08:27:39.383Z</time></trkpt><trkpt lat="41.02914" lon="14.4045733"><ele>57.0</ele><time>2026-04-25T08:27:40.381Z</time></trkpt><trkpt lat="41.029105" lon="14.40467"><ele>57.0</ele><time>2026-04-25T08:27:41.382Z</time></trkpt><trkpt lat="41.0290683" lon="14.40477"><ele>57.0</ele><time>2026-04-25T08:27:42.381Z</time></trkpt><trkpt lat="41.0290283" lon="14.404875"><ele>57.0</ele><time>2026-04-25T08:27:43.379Z</time></trkpt><trkpt lat="41.0289867" lon="14.404985"><ele>56.8</ele><time>2026-04-25T08:27:44.381Z</time></trkpt><trkpt lat="41.0289483" lon="14.4050983"><ele>56.6</ele><time>2026-04-25T08:27:45.387Z</time></trkpt><trkpt lat="41.02891" lon="14.40521"><ele>56.39999999999999</ele><time>2026-04-25T08:27:46.381Z</time></trkpt><trkpt lat="41.0288683" lon="14.405325"><ele>56.199999999999996</ele><time>2026-04-25T08:27:47.381Z</time></trkpt><trkpt lat="41.028825" lon="14.4054433"><ele>56.0</ele><time>2026-04-25T08:27:48.381Z</time></trkpt><trkpt lat="41.0287817" lon="14.4055667"><ele>55.8</ele><time>2026-04-25T08:27:49.38Z</time></trkpt><trkpt lat="41.028735" lon="14.405695"><ele>55.599999999999994</ele><time>2026-04-25T08:27:50.38Z</time></trkpt><trkpt lat="41.0286867" lon="14.4058267"><ele>55.4</ele><time>2026-04-25T08:27:51.381Z</time></trkpt><trkpt lat="41.0286383" lon="14.40596"><ele>55.2</ele><time>2026-04-25T08:27:52.381Z</time></trkpt><trkpt lat="41.02859" lon="14.4060967"><ele>55.0</ele><time>2026-04-25T08:27:53.381Z</time></trkpt><trkpt lat="41.0285433" lon="14.4062333"><ele>55.0</ele><time>2026-04-25T08:27:54.382Z</time></trkpt><trkpt lat="41.0285" lon="14.4063683"><ele>55.0</ele><time>2026-04-25T08:27:55.381Z</time></trkpt><trkpt lat="41.028455" lon="14.4065017"><ele>55.0</ele><time>2026-04-25T08:27:56.381Z</time></trkpt><trkpt lat="41.02841" lon="14.4066367"><ele>55.0</ele><time>2026-04-25T08:27:57.381Z</time></trkpt><trkpt lat="41.0283683" lon="14.4067667"><ele>55.0</ele><time>2026-04-25T08:27:58.38Z</time></trkpt><trkpt lat="41.0283217" lon="14.4068917"><ele>54.4</ele><time>2026-04-25T08:27:59.381Z</time></trkpt><trkpt lat="41.02827" lon="14.40702"><ele>53.8</ele><time>2026-04-25T08:28:00.381Z</time></trkpt><trkpt lat="41.0282217" lon="14.40715"><ele>53.2</ele><time>2026-04-25T08:28:01.381Z</time></trkpt><trkpt lat="41.0281767" lon="14.4072783"><ele>52.6</ele><time>2026-04-25T08:28:02.38Z</time></trkpt><trkpt lat="41.0281317" lon="14.4074067"><ele>52.0</ele><time>2026-04-25T08:28:03.381Z</time></trkpt><trkpt lat="41.0280883" lon="14.4075333"><ele>51.8</ele><time>2026-04-25T08:28:04.381Z</time></trkpt><trkpt lat="41.028045" lon="14.40766"><ele>51.6</ele><time>2026-04-25T08:28:05.381Z</time></trkpt><trkpt lat="41.028" lon="14.407785"><ele>51.4</ele><time>2026-04-25T08:28:06.38Z</time></trkpt><trkpt lat="41.0279617" lon="14.407905"><ele>51.199999999999996</ele><time>2026-04-25T08:28:07.38Z</time></trkpt><trkpt lat="41.027925" lon="14.408025"><ele>51.0</ele><time>2026-04-25T08:28:08.38Z</time></trkpt><trkpt lat="41.0278883" lon="14.4081433"><ele>51.0</ele><time>2026-04-25T08:28:09.381Z</time></trkpt><trkpt lat="41.0278517" lon="14.4082617"><ele>51.0</ele><time>2026-04-25T08:28:10.38Z</time></trkpt><trkpt lat="41.0278167" lon="14.40838"><ele>51.0</ele><time>2026-04-25T08:28:11.381Z</time></trkpt><trkpt lat="41.0277817" lon="14.4085"><ele>51.0</ele><time>2026-04-25T08:28:12.38Z</time></trkpt><trkpt lat="41.0277533" lon="14.4086217"><ele>51.0</ele><time>2026-04-25T08:28:13.381Z</time></trkpt><trkpt lat="41.0277333" lon="14.408745"><ele>51.0</ele><time>2026-04-25T08:28:14.381Z</time></trkpt><trkpt lat="41.0277117" lon="14.4088683"><ele>51.0</ele><time>2026-04-25T08:28:15.381Z</time></trkpt><trkpt lat="41.0276867" lon="14.4089883"><ele>51.0</ele><time>2026-04-25T08:28:16.381Z</time></trkpt><trkpt lat="41.02766" lon="14.4091117"><ele>51.0</ele><time>2026-04-25T08:28:17.381Z</time></trkpt><trkpt lat="41.0276333" lon="14.4092417"><ele>51.0</ele><time>2026-04-25T08:28:18.381Z</time></trkpt><trkpt lat="41.0276133" lon="14.4093683"><ele>51.0</ele><time>2026-04-25T08:28:19.38Z</time></trkpt><trkpt lat="41.0275917" lon="14.4094983"><ele>51.0</ele><time>2026-04-25T08:28:20.381Z</time></trkpt><trkpt lat="41.0275717" lon="14.40963"><ele>51.0</ele><time>2026-04-25T08:28:21.381Z</time></trkpt><trkpt lat="41.027555" lon="14.4097583"><ele>51.0</ele><time>2026-04-25T08:28:22.383Z</time></trkpt><trkpt lat="41.027535" lon="14.409885"><ele>51.0</ele><time>2026-04-25T08:28:23.382Z</time></trkpt><trkpt lat="41.027515" lon="14.4100133"><ele>50.4</ele><time>2026-04-25T08:28:24.383Z</time></trkpt><trkpt lat="41.0274967" lon="14.4101417"><ele>49.8</ele><time>2026-04-25T08:28:25.385Z</time></trkpt><trkpt lat="41.02748" lon="14.4102683"><ele>49.199999999999996</ele><time>2026-04-25T08:28:26.385Z</time></trkpt><trkpt lat="41.0274617" lon="14.4103933"><ele>48.599999999999994</ele><time>2026-04-25T08:28:27.381Z</time></trkpt><trkpt lat="41.027445" lon="14.4105167"><ele>48.0</ele><time>2026-04-25T08:28:28.38Z</time></trkpt><trkpt lat="41.0274267" lon="14.41064"><ele>47.599999999999994</ele><time>2026-04-25T08:28:29.381Z</time></trkpt><trkpt lat="41.0274067" lon="14.4107633"><ele>47.199999999999996</ele><time>2026-04-25T08:28:30.381Z</time></trkpt><trkpt lat="41.02739" lon="14.4108883"><ele>46.8</ele><time>2026-04-25T08:28:31.381Z</time></trkpt><trkpt lat="41.027375" lon="14.41101"><ele>46.4</ele><time>2026-04-25T08:28:32.382Z</time></trkpt><trkpt lat="41.02736" lon="14.41113"><ele>46.0</ele><time>2026-04-25T08:28:33.381Z</time></trkpt><trkpt lat="41.0273383" lon="14.4112533"><ele>46.199999999999996</ele><time>2026-04-25T08:28:34.38Z</time></trkpt><trkpt lat="41.027315" lon="14.4113767"><ele>46.4</ele><time>2026-04-25T08:28:35.38Z</time></trkpt><trkpt lat="41.027295" lon="14.4114967"><ele>46.6</ele><time>2026-04-25T08:28:36.381Z</time></trkpt><trkpt lat="41.0272767" lon="14.411615"><ele>46.8</ele><time>2026-04-25T08:28:37.381Z</time></trkpt><trkpt lat="41.0272617" lon="14.4117333"><ele>47.0</ele><time>2026-04-25T08:28:38.382Z</time></trkpt><trkpt lat="41.027245" lon="14.4118517"><ele>47.0</ele><time>2026-04-25T08:28:39.381Z</time></trkpt><trkpt lat="41.02723" lon="14.4119717"><ele>47.0</ele><time>2026-04-25T08:28:40.381Z</time></trkpt><trkpt lat="41.0272117" lon="14.41209"><ele>47.0</ele><time>2026-04-25T08:28:41.379Z</time></trkpt><trkpt lat="41.0271933" lon="14.41221"><ele>47.0</ele><time>2026-04-25T08:28:42.381Z</time></trkpt><trkpt lat="41.0271733" lon="14.41233"><ele>47.0</ele><time>2026-04-25T08:28:43.382Z</time></trkpt><trkpt lat="41.0271567" lon="14.4124483"><ele>47.0</ele><time>2026-04-25T08:28:44.38Z</time></trkpt><trkpt lat="41.02714" lon="14.4125617"><ele>47.0</ele><time>2026-04-25T08:28:45.381Z</time></trkpt><trkpt lat="41.02712" lon="14.412675"><ele>47.0</ele><time>2026-04-25T08:28:46.381Z</time></trkpt><trkpt lat="41.0271017" lon="14.41279"><ele>47.0</ele><time>2026-04-25T08:28:47.384Z</time></trkpt><trkpt lat="41.0270817" lon="14.4129033"><ele>47.0</ele><time>2026-04-25T08:28:48.381Z</time></trkpt><trkpt lat="41.0270633" lon="14.41302"><ele>47.0</ele><time>2026-04-25T08:28:49.381Z</time></trkpt><trkpt lat="41.0270467" lon="14.4131367"><ele>47.0</ele><time>2026-04-25T08:28:50.381Z</time></trkpt><trkpt lat="41.0270333" lon="14.41325"><ele>47.0</ele><time>2026-04-25T08:28:51.38Z</time></trkpt><trkpt lat="41.02702" lon="14.413365"><ele>47.0</ele><time>2026-04-25T08:28:52.38Z</time></trkpt><trkpt lat="41.0270067" lon="14.41348"><ele>47.0</ele><time>2026-04-25T08:28:53.381Z</time></trkpt><trkpt lat="41.02699" lon="14.4135983"><ele>47.0</ele><time>2026-04-25T08:28:54.381Z</time></trkpt><trkpt lat="41.0269733" lon="14.413715"><ele>47.0</ele><time>2026-04-25T08:28:55.38Z</time></trkpt><trkpt lat="41.026955" lon="14.41383"><ele>47.33333333333333</ele><time>2026-04-25T08:28:56.38Z</time></trkpt><trkpt lat="41.026935" lon="14.413945"><ele>47.666666666666664</ele><time>2026-04-25T08:28:57.386Z</time></trkpt><trkpt lat="41.0269167" lon="14.414055"><ele>48.0</ele><time>2026-04-25T08:28:58.381Z</time></trkpt><trkpt lat="41.0269017" lon="14.414165"><ele>48.33333333333333</ele><time>2026-04-25T08:28:59.381Z</time></trkpt><trkpt lat="41.026885" lon="14.4142767"><ele>48.666666666666664</ele><time>2026-04-25T08:29:00.381Z</time></trkpt><trkpt lat="41.0268683" lon="14.4143883"><ele>49.0</ele><time>2026-04-25T08:29:01.381Z</time></trkpt><trkpt lat="41.0268533" lon="14.4144967"><ele>48.99999999999999</ele><time>2026-04-25T08:29:02.38Z</time></trkpt><trkpt lat="41.02684" lon="14.4146"><ele>49.0</ele><time>2026-04-25T08:29:03.38Z</time></trkpt><trkpt lat="41.0268233" lon="14.414705"><ele>49.0</ele><time>2026-04-25T08:29:04.38Z</time></trkpt><trkpt lat="41.02681" lon="14.4148083"><ele>49.0</ele><time>2026-04-25T08:29:05.38Z</time></trkpt><trkpt lat="41.026795" lon="14.4149133"><ele>48.99999999999999</ele><time>2026-04-25T08:29:06.381Z</time></trkpt><trkpt lat="41.026775" lon="14.41502"><ele>49.0</ele><time>2026-04-25T08:29:07.381Z</time></trkpt><trkpt lat="41.026755" lon="14.415125"><ele>48.99999999999999</ele><time>2026-04-25T08:29:08.381Z</time></trkpt><trkpt lat="41.0267433" lon="14.4152283"><ele>49.0</ele><time>2026-04-25T08:29:09.38Z</time></trkpt><trkpt lat="41.026725" lon="14.415335"><ele>49.0</ele><time>2026-04-25T08:29:10.381Z</time></trkpt><trkpt lat="41.0267117" lon="14.4154383"><ele>49.0</ele><time>2026-04-25T08:29:11.381Z</time></trkpt><trkpt lat="41.0266983" lon="14.4155417"><ele>48.99999999999999</ele><time>2026-04-25T08:29:12.381Z</time></trkpt><trkpt lat="41.0266833" lon="14.415645"><ele>49.0</ele><time>2026-04-25T08:29:13.381Z</time></trkpt><trkpt lat="41.026665" lon="14.4157467"><ele>48.83333333333333</ele><time>2026-04-25T08:29:14.381Z</time></trkpt><trkpt lat="41.0266467" lon="14.4158467"><ele>48.666666666666664</ele><time>2026-04-25T08:29:15.381Z</time></trkpt><trkpt lat="41.026635" lon="14.4159483"><ele>48.5</ele><time>2026-04-25T08:29:16.381Z</time></trkpt><trkpt lat="41.0266183" lon="14.4160517"><ele>48.33333333333333</ele><time>2026-04-25T08:29:17.381Z</time></trkpt><trkpt lat="41.0266083" lon="14.4161567"><ele>48.166666666666664</ele><time>2026-04-25T08:29:18.381Z</time></trkpt><trkpt lat="41.0265933" lon="14.4162583"><ele>48.0</ele><time>2026-04-25T08:29:19.381Z</time></trkpt><trkpt lat="41.02658" lon="14.41636"><ele>48.0</ele><time>2026-04-25T08:29:20.382Z</time></trkpt><trkpt lat="41.0265683" lon="14.4164583"><ele>48.0</ele><time>2026-04-25T08:29:21.381Z</time></trkpt><trkpt lat="41.0265583" lon="14.4165567"><ele>48.0</ele><time>2026-04-25T08:29:22.384Z</time></trkpt><trkpt lat="41.026545" lon="14.4166583"><ele>48.0</ele><time>2026-04-25T08:29:23.381Z</time></trkpt><trkpt lat="41.02653" lon="14.4167567"><ele>48.0</ele><time>2026-04-25T08:29:24.382Z</time></trkpt><trkpt lat="41.0265133" lon="14.416855"><ele>48.0</ele><time>2026-04-25T08:29:25.382Z</time></trkpt><trkpt lat="41.0264983" lon="14.4169533"><ele>48.0</ele><time>2026-04-25T08:29:26.382Z</time></trkpt><trkpt lat="41.0264833" lon="14.41705"><ele>48.0</ele><time>2026-04-25T08:29:27.381Z</time></trkpt><trkpt lat="41.0264683" lon="14.4171467"><ele>48.0</ele><time>2026-04-25T08:29:28.386Z</time></trkpt><trkpt lat="41.0264533" lon="14.4172417"><ele>48.0</ele><time>2026-04-25T08:29:29.38Z</time></trkpt><trkpt lat="41.0264383" lon="14.4173383"><ele>48.0</ele><time>2026-04-25T08:29:30.38Z</time></trkpt><trkpt lat="41.0264217" lon="14.4174367"><ele>48.0</ele><time>2026-04-25T08:29:31.382Z</time></trkpt><trkpt lat="41.0264083" lon="14.4175383"><ele>48.0</ele><time>2026-04-25T08:29:32.38Z</time></trkpt><trkpt lat="41.026395" lon="14.4176383"><ele>48.0</ele><time>2026-04-25T08:29:33.382Z</time></trkpt><trkpt lat="41.0263817" lon="14.4177383"><ele>48.0</ele><time>2026-04-25T08:29:34.381Z</time></trkpt><trkpt lat="41.0263683" lon="14.4178383"><ele>48.0</ele><time>2026-04-25T08:29:35.381Z</time></trkpt><trkpt lat="41.0263567" lon="14.417935"><ele>48.0</ele><time>2026-04-25T08:29:36.381Z</time></trkpt><trkpt lat="41.0263433" lon="14.418035"><ele>48.0</ele><time>2026-04-25T08:29:37.381Z</time></trkpt><trkpt lat="41.02633" lon="14.41813"><ele>47.99999999999999</ele><time>2026-04-25T08:29:38.381Z</time></trkpt><trkpt lat="41.0263133" lon="14.4182267"><ele>48.0</ele><time>2026-04-25T08:29:39.381Z</time></trkpt><trkpt lat="41.0262983" lon="14.4183233"><ele>48.0</ele><time>2026-04-25T08:29:40.381Z</time></trkpt><trkpt lat="41.0262833" lon="14.41842"><ele>48.0</ele><time>2026-04-25T08:29:41.38Z</time></trkpt><trkpt lat="41.0262717" lon="14.4185167"><ele>48.0</ele><time>2026-04-25T08:29:42.381Z</time></trkpt><trkpt lat="41.0262583" lon="14.4186117"><ele>47.99999999999999</ele><time>2026-04-25T08:29:43.381Z</time></trkpt><trkpt lat="41.0262433" lon="14.418705"><ele>48.0</ele><time>2026-04-25T08:29:44.381Z</time></trkpt><trkpt lat="41.0262267" lon="14.4187933"><ele>48.42857142857142</ele><time>2026-04-25T08:29:45.38Z</time></trkpt><trkpt lat="41.0262083" lon="14.4188817"><ele>48.857142857142854</ele><time>2026-04-25T08:29:46.38Z</time></trkpt><trkpt lat="41.0261917" lon="14.4189733"><ele>49.285714285714285</ele><time>2026-04-25T08:29:47.38Z</time></trkpt><trkpt lat="41.0261783" lon="14.419065"><ele>49.71428571428571</ele><time>2026-04-25T08:29:48.382Z</time></trkpt><trkpt lat="41.026165" lon="14.419155"><ele>50.142857142857146</ele><time>2026-04-25T08:29:49.381Z</time></trkpt><trkpt lat="41.0261517" lon="14.419245"><ele>50.57142857142857</ele><time>2026-04-25T08:29:50.381Z</time></trkpt><trkpt lat="41.0261383" lon="14.4193333"><ele>51.0</ele><time>2026-04-25T08:29:51.381Z</time></trkpt><trkpt lat="41.0261233" lon="14.4194217"><ele>51.0</ele><time>2026-04-25T08:29:52.382Z</time></trkpt><trkpt lat="41.0261083" lon="14.41951"><ele>51.0</ele><time>2026-04-25T08:29:53.383Z</time></trkpt><trkpt lat="41.0260933" lon="14.4195983"><ele>51.0</ele><time>2026-04-25T08:29:54.381Z</time></trkpt><trkpt lat="41.0260817" lon="14.41969"><ele>51.0</ele><time>2026-04-25T08:29:55.383Z</time></trkpt><trkpt lat="41.02607" lon="14.4197767"><ele>51.0</ele><time>2026-04-25T08:29:56.38Z</time></trkpt><trkpt lat="41.0260583" lon="14.4198633"><ele>51.0</ele><time>2026-04-25T08:29:57.381Z</time></trkpt><trkpt lat="41.026045" lon="14.41995"><ele>51.0</ele><time>2026-04-25T08:29:58.379Z</time></trkpt><trkpt lat="41.0260333" lon="14.4200383"><ele>50.85714285714286</ele><time>2026-04-25T08:29:59.381Z</time></trkpt><trkpt lat="41.0260233" lon="14.4201283"><ele>50.714285714285715</ele><time>2026-04-25T08:30:00.381Z</time></trkpt><trkpt lat="41.0260117" lon="14.42022"><ele>50.57142857142857</ele><time>2026-04-25T08:30:01.381Z</time></trkpt><trkpt lat="41.0259983" lon="14.42031"><ele>50.42857142857143</ele><time>2026-04-25T08:30:02.381Z</time></trkpt><trkpt lat="41.0259917" lon="14.4204"><ele>50.285714285714285</ele><time>2026-04-25T08:30:03.38Z</time></trkpt><trkpt lat="41.0259833" lon="14.4204883"><ele>50.142857142857146</ele><time>2026-04-25T08:30:04.382Z</time></trkpt><trkpt lat="41.0259717" lon="14.420575"><ele>50.0</ele><time>2026-04-25T08:30:05.381Z</time></trkpt><trkpt lat="41.0259567" lon="14.42066"><ele>50.50000000000001</ele><time>2026-04-25T08:30:06.381Z</time></trkpt><trkpt lat="41.02594" lon="14.420745"><ele>51.0</ele><time>2026-04-25T08:30:07.38Z</time></trkpt><trkpt lat="41.025925" lon="14.4208267"><ele>51.5</ele><time>2026-04-25T08:30:08.381Z</time></trkpt><trkpt lat="41.0259133" lon="14.42091"><ele>52.0</ele><time>2026-04-25T08:30:09.38Z</time></trkpt><trkpt lat="41.0259033" lon="14.4209967"><ele>52.50000000000001</ele><time>2026-04-25T08:30:10.381Z</time></trkpt><trkpt lat="41.02588" lon="14.42116"><ele>53.0</ele><time>2026-04-25T08:30:12.381Z</time></trkpt><trkpt lat="41.0258583" lon="14.4213217"><ele>53.0</ele><time>2026-04-25T08:30:14.382Z</time></trkpt><trkpt lat="41.0258317" lon="14.4214833"><ele>53.0</ele><time>2026-04-25T08:30:16.381Z</time></trkpt><trkpt lat="41.02582" lon="14.4215667"><ele>53.0</ele><time>2026-04-25T08:30:17.381Z</time></trkpt><trkpt lat="41.0258133" lon="14.4216517"><ele>53.0</ele><time>2026-04-25T08:30:18.38Z</time></trkpt><trkpt lat="41.025805" lon="14.4217367"><ele>53.0</ele><time>2026-04-25T08:30:19.38Z</time></trkpt><trkpt lat="41.025795" lon="14.4218217"><ele>53.0</ele><time>2026-04-25T08:30:20.382Z</time></trkpt><trkpt lat="41.0257817" lon="14.4219067"><ele>53.0</ele><time>2026-04-25T08:30:21.381Z</time></trkpt><trkpt lat="41.0257667" lon="14.421995"><ele>52.85714285714286</ele><time>2026-04-25T08:30:22.389Z</time></trkpt><trkpt lat="41.0257533" lon="14.4220817"><ele>52.71428571428571</ele><time>2026-04-25T08:30:23.381Z</time></trkpt><trkpt lat="41.02574" lon="14.42217"><ele>52.57142857142857</ele><time>2026-04-25T08:30:24.382Z</time></trkpt><trkpt lat="41.0257233" lon="14.4222567"><ele>52.42857142857143</ele><time>2026-04-25T08:30:25.382Z</time></trkpt><trkpt lat="41.02571" lon="14.42234"><ele>52.28571428571429</ele><time>2026-04-25T08:30:26.381Z</time></trkpt><trkpt lat="41.0257017" lon="14.4224233"><ele>52.14285714285714</ele><time>2026-04-25T08:30:27.381Z</time></trkpt><trkpt lat="41.025695" lon="14.4225067"><ele>52.0</ele><time>2026-04-25T08:30:28.381Z</time></trkpt><trkpt lat="41.0256833" lon="14.4225917"><ele>51.8</ele><time>2026-04-25T08:30:29.382Z</time></trkpt><trkpt lat="41.0256683" lon="14.4226767"><ele>51.6</ele><time>2026-04-25T08:30:30.381Z</time></trkpt><trkpt lat="41.0256533" lon="14.4227633"><ele>51.4</ele><time>2026-04-25T08:30:31.382Z</time></trkpt><trkpt lat="41.025625" lon="14.4229167"><ele>51.199999999999996</ele><time>2026-04-25T08:30:33.381Z</time></trkpt><trkpt lat="41.025605" lon="14.4230783"><ele>51.0</ele><time>2026-04-25T08:30:35.381Z</time></trkpt><trkpt lat="41.0255783" lon="14.4232433"><ele>51.333333333333336</ele><time>2026-04-25T08:30:37.39Z</time></trkpt><trkpt lat="41.025565" lon="14.42333"><ele>51.66666666666667</ele><time>2026-04-25T08:30:38.382Z</time></trkpt><trkpt lat="41.025555" lon="14.423415"><ele>52.0</ele><time>2026-04-25T08:30:39.381Z</time></trkpt><trkpt lat="41.025545" lon="14.4234983"><ele>52.333333333333336</ele><time>2026-04-25T08:30:40.381Z</time></trkpt><trkpt lat="41.0255183" lon="14.4236583"><ele>52.66666666666667</ele><time>2026-04-25T08:30:42.38Z</time></trkpt><trkpt lat="41.0255017" lon="14.42381"><ele>53.0</ele><time>2026-04-25T08:30:44.381Z</time></trkpt><trkpt lat="41.0254867" lon="14.4239683"><ele>53.2</ele><time>2026-04-25T08:30:46.382Z</time></trkpt><trkpt lat="41.025465" lon="14.424125"><ele>53.4</ele><time>2026-04-25T08:30:48.382Z</time></trkpt><trkpt lat="41.0254467" lon="14.4242883"><ele>53.60000000000001</ele><time>2026-04-25T08:30:50.384Z</time></trkpt><trkpt lat="41.025435" lon="14.4243717"><ele>53.800000000000004</ele><time>2026-04-25T08:30:51.381Z</time></trkpt><trkpt lat="41.025405" lon="14.4245267"><ele>54.0</ele><time>2026-04-25T08:30:53.382Z</time></trkpt><trkpt lat="41.0253767" lon="14.4246767"><ele>54.25</ele><time>2026-04-25T08:30:55.382Z</time></trkpt><trkpt lat="41.0253483" lon="14.4248283"><ele>54.5</ele><time>2026-04-25T08:30:57.384Z</time></trkpt><trkpt lat="41.025325" lon="14.4249867"><ele>54.75</ele><time>2026-04-25T08:30:59.381Z</time></trkpt><trkpt lat="41.025305" lon="14.425145"><ele>55.0</ele><time>2026-04-25T08:31:01.381Z</time></trkpt><trkpt lat="41.02528" lon="14.4252967"><ele>55.0</ele><time>2026-04-25T08:31:03.381Z</time></trkpt><trkpt lat="41.0252667" lon="14.4254467"><ele>55.0</ele><time>2026-04-25T08:31:05.38Z</time></trkpt><trkpt lat="41.02525" lon="14.4256017"><ele>55.0</ele><time>2026-04-25T08:31:07.383Z</time></trkpt><trkpt lat="41.02523" lon="14.425755"><ele>55.0</ele><time>2026-04-25T08:31:09.39Z</time></trkpt><trkpt lat="41.0252067" lon="14.4259"><ele>55.0</ele><time>2026-04-25T08:31:11.382Z</time></trkpt><trkpt lat="41.02518" lon="14.426055"><ele>55.0</ele><time>2026-04-25T08:31:13.382Z</time></trkpt><trkpt lat="41.0251567" lon="14.426205"><ele>55.0</ele><time>2026-04-25T08:31:15.381Z</time></trkpt><trkpt lat="41.025135" lon="14.426355"><ele>55.0</ele><time>2026-04-25T08:31:17.381Z</time></trkpt><trkpt lat="41.02511" lon="14.4265117"><ele>55.2</ele><time>2026-04-25T08:31:19.38Z</time></trkpt><trkpt lat="41.0250783" lon="14.42667"><ele>55.4</ele><time>2026-04-25T08:31:21.381Z</time></trkpt><trkpt lat="41.0250617" lon="14.4267533"><ele>55.599999999999994</ele><time>2026-04-25T08:31:22.381Z</time></trkpt><trkpt lat="41.0250483" lon="14.426835"><ele>55.8</ele><time>2026-04-25T08:31:23.381Z</time></trkpt><trkpt lat="41.0250217" lon="14.426995"><ele>56.0</ele><time>2026-04-25T08:31:25.381Z</time></trkpt><trkpt lat="41.025" lon="14.4271533"><ele>56.25</ele><time>2026-04-25T08:31:27.382Z</time></trkpt><trkpt lat="41.02498" lon="14.427305"><ele>56.5</ele><time>2026-04-25T08:31:29.381Z</time></trkpt><trkpt lat="41.0249617" lon="14.4274517"><ele>56.75</ele><time>2026-04-25T08:31:31.381Z</time></trkpt><trkpt lat="41.0249467" lon="14.4276017"><ele>57.0</ele><time>2026-04-25T08:31:33.381Z</time></trkpt><trkpt lat="41.02492" lon="14.4277517"><ele>57.0</ele><time>2026-04-25T08:31:35.382Z</time></trkpt><trkpt lat="41.024895" lon="14.4279"><ele>57.0</ele><time>2026-04-25T08:31:37.381Z</time></trkpt><trkpt lat="41.024875" lon="14.428045"><ele>57.0</ele><time>2026-04-25T08:31:39.381Z</time></trkpt><trkpt lat="41.024855" lon="14.428175"><ele>57.0</ele><time>2026-04-25T08:31:41.381Z</time></trkpt><trkpt lat="41.0248433" lon="14.4282783"><ele>57.0</ele><time>2026-04-25T08:31:43.381Z</time></trkpt><trkpt lat="41.024825" lon="14.4283683"><ele>57.5</ele><time>2026-04-25T08:31:45.381Z</time></trkpt><trkpt lat="41.0248083" lon="14.4284783"><ele>58.0</ele><time>2026-04-25T08:31:48.38Z</time></trkpt><trkpt lat="41.0248033" lon="14.428605"><ele>58.5</ele><time>2026-04-25T08:31:51.381Z</time></trkpt><trkpt lat="41.0247883" lon="14.42871"><ele>59.0</ele><time>2026-04-25T08:31:53.381Z</time></trkpt><trkpt lat="41.02477" lon="14.4288267"><ele>59.5</ele><time>2026-04-25T08:31:55.381Z</time></trkpt><trkpt lat="41.0247517" lon="14.4289433"><ele>60.0</ele><time>2026-04-25T08:31:57.381Z</time></trkpt><trkpt lat="41.02473" lon="14.4290717"><ele>60.2</ele><time>2026-04-25T08:31:59.382Z</time></trkpt><trkpt lat="41.0247083" lon="14.42922"><ele>60.4</ele><time>2026-04-25T08:32:01.381Z</time></trkpt><trkpt lat="41.024685" lon="14.4293733"><ele>60.599999999999994</ele><time>2026-04-25T08:32:03.381Z</time></trkpt><trkpt lat="41.0246583" lon="14.4295367"><ele>60.8</ele><time>2026-04-25T08:32:05.382Z</time></trkpt><trkpt lat="41.0246467" lon="14.4296217"><ele>61.0</ele><time>2026-04-25T08:32:06.381Z</time></trkpt><trkpt lat="41.0246367" lon="14.429705"><ele>60.33333333333333</ele><time>2026-04-25T08:32:07.381Z</time></trkpt><trkpt lat="41.0246183" lon="14.4298717"><ele>59.666666666666664</ele><time>2026-04-25T08:32:09.381Z</time></trkpt><trkpt lat="41.0246083" lon="14.4299583"><ele>59.0</ele><time>2026-04-25T08:32:10.381Z</time></trkpt><trkpt lat="41.0245983" lon="14.4300483"><ele>58.33333333333333</ele><time>2026-04-25T08:32:11.381Z</time></trkpt><trkpt lat="41.0245867" lon="14.4301383"><ele>57.666666666666664</ele><time>2026-04-25T08:32:12.382Z</time></trkpt><trkpt lat="41.0245717" lon="14.430225"><ele>57.0</ele><time>2026-04-25T08:32:13.38Z</time></trkpt><trkpt lat="41.0245617" lon="14.4303133"><ele>57.0</ele><time>2026-04-25T08:32:14.381Z</time></trkpt><trkpt lat="41.0245533" lon="14.4304033"><ele>56.99999999999999</ele><time>2026-04-25T08:32:15.382Z</time></trkpt><trkpt lat="41.024545" lon="14.4304967"><ele>57.0</ele><time>2026-04-25T08:32:16.382Z</time></trkpt><trkpt lat="41.024535" lon="14.43059"><ele>57.0</ele><time>2026-04-25T08:32:17.381Z</time></trkpt><trkpt lat="41.0245233" lon="14.4306817"><ele>56.99999999999999</ele><time>2026-04-25T08:32:18.381Z</time></trkpt><trkpt lat="41.0245183" lon="14.4307733"><ele>57.0</ele><time>2026-04-25T08:32:19.381Z</time></trkpt><trkpt lat="41.0245133" lon="14.4308633"><ele>57.0</ele><time>2026-04-25T08:32:20.382Z</time></trkpt><trkpt lat="41.0245067" lon="14.430955"><ele>57.285714285714285</ele><time>2026-04-25T08:32:21.381Z</time></trkpt><trkpt lat="41.0245017" lon="14.431045"><ele>57.57142857142857</ele><time>2026-04-25T08:32:22.38Z</time></trkpt><trkpt lat="41.0244967" lon="14.4311367"><ele>57.857142857142854</ele><time>2026-04-25T08:32:23.38Z</time></trkpt><trkpt lat="41.0244967" lon="14.4312233"><ele>58.14285714285714</ele><time>2026-04-25T08:32:24.382Z</time></trkpt><trkpt lat="41.0244967" lon="14.43131"><ele>58.42857142857143</ele><time>2026-04-25T08:32:25.381Z</time></trkpt><trkpt lat="41.0245" lon="14.4313967"><ele>58.71428571428571</ele><time>2026-04-25T08:32:26.381Z</time></trkpt><trkpt lat="41.024505" lon="14.4314817"><ele>59.0</ele><time>2026-04-25T08:32:27.381Z</time></trkpt><trkpt lat="41.0245067" lon="14.4315667"><ele>59.14285714285714</ele><time>2026-04-25T08:32:28.381Z</time></trkpt><trkpt lat="41.0245117" lon="14.4316617"><ele>59.28571428571429</ele><time>2026-04-25T08:32:29.381Z</time></trkpt><trkpt lat="41.024515" lon="14.4317567"><ele>59.42857142857143</ele><time>2026-04-25T08:32:30.383Z</time></trkpt><trkpt lat="41.0245183" lon="14.4318467"><ele>59.57142857142857</ele><time>2026-04-25T08:32:31.382Z</time></trkpt><trkpt lat="41.0245267" lon="14.4319367"><ele>59.71428571428571</ele><time>2026-04-25T08:32:32.38Z</time></trkpt><trkpt lat="41.0245317" lon="14.43203"><ele>59.85714285714286</ele><time>2026-04-25T08:32:33.381Z</time></trkpt><trkpt lat="41.0245367" lon="14.4321167"><ele>60.0</ele><time>2026-04-25T08:32:34.38Z</time></trkpt><trkpt lat="41.0245417" lon="14.4322"><ele>60.0</ele><time>2026-04-25T08:32:35.382Z</time></trkpt><trkpt lat="41.0245433" lon="14.432285"><ele>60.0</ele><time>2026-04-25T08:32:36.381Z</time></trkpt><trkpt lat="41.0245517" lon="14.432445"><ele>60.0</ele><time>2026-04-25T08:32:38.382Z</time></trkpt><trkpt lat="41.0245483" lon="14.4325967"><ele>60.0</ele><time>2026-04-25T08:32:40.382Z</time></trkpt><trkpt lat="41.0245483" lon="14.4327417"><ele>60.0</ele><time>2026-04-25T08:32:42.381Z</time></trkpt><trkpt lat="41.0245517" lon="14.43288"><ele>59.666666666666664</ele><time>2026-04-25T08:32:44.381Z</time></trkpt><trkpt lat="41.0245633" lon="14.4330067"><ele>59.33333333333333</ele><time>2026-04-25T08:32:46.382Z</time></trkpt><trkpt lat="41.0245733" lon="14.433125"><ele>59.0</ele><time>2026-04-25T08:32:48.381Z</time></trkpt><trkpt lat="41.0245767" lon="14.4332417"><ele>58.666666666666664</ele><time>2026-04-25T08:32:50.382Z</time></trkpt><trkpt lat="41.02458" lon="14.4333517"><ele>58.33333333333333</ele><time>2026-04-25T08:32:52.381Z</time></trkpt><trkpt lat="41.0245833" lon="14.4334583"><ele>58.0</ele><time>2026-04-25T08:32:54.382Z</time></trkpt><trkpt lat="41.0245883" lon="14.4335633"><ele>58.0</ele><time>2026-04-25T08:32:56.381Z</time></trkpt><trkpt lat="41.02459" lon="14.4336783"><ele>58.0</ele><time>2026-04-25T08:32:58.381Z</time></trkpt><trkpt lat="41.0245967" lon="14.4338167"><ele>58.0</ele><time>2026-04-25T08:33:00.382Z</time></trkpt><trkpt lat="41.0246" lon="14.4339583"><ele>58.0</ele><time>2026-04-25T08:33:02.38Z</time></trkpt><trkpt lat="41.024605" lon="14.4341033"><ele>58.0</ele><time>2026-04-25T08:33:04.382Z</time></trkpt><trkpt lat="41.02461" lon="14.43425"><ele>58.2</ele><time>2026-04-25T08:33:06.382Z</time></trkpt><trkpt lat="41.0246183" lon="14.4344083"><ele>58.4</ele><time>2026-04-25T08:33:08.381Z</time></trkpt><trkpt lat="41.0246217" lon="14.4344917"><ele>58.60000000000001</ele><time>2026-04-25T08:33:09.381Z</time></trkpt><trkpt lat="41.0246267" lon="14.43465"><ele>58.800000000000004</ele><time>2026-04-25T08:33:11.381Z</time></trkpt><trkpt lat="41.0246317" lon="14.4348133"><ele>59.0</ele><time>2026-04-25T08:33:13.382Z</time></trkpt><trkpt lat="41.024635" lon="14.4348967"><ele>59.2</ele><time>2026-04-25T08:33:14.381Z</time></trkpt><trkpt lat="41.02464" lon="14.43498"><ele>59.400000000000006</ele><time>2026-04-25T08:33:15.382Z</time></trkpt><trkpt lat="41.0246433" lon="14.4351467"><ele>59.6</ele><time>2026-04-25T08:33:17.381Z</time></trkpt><trkpt lat="41.0246483" lon="14.4352317"><ele>59.8</ele><time>2026-04-25T08:33:18.382Z</time></trkpt><trkpt lat="41.0246533" lon="14.4353867"><ele>60.0</ele><time>2026-04-25T08:33:20.387Z</time></trkpt><trkpt lat="41.0246583" lon="14.4355467"><ele>60.25</ele><time>2026-04-25T08:33:22.384Z</time></trkpt><trkpt lat="41.0246683" lon="14.43571"><ele>60.5</ele><time>2026-04-25T08:33:24.38Z</time></trkpt><trkpt lat="41.02468" lon="14.4358717"><ele>60.75</ele><time>2026-04-25T08:33:26.381Z</time></trkpt><trkpt lat="41.0246917" lon="14.4360333"><ele>61.0</ele><time>2026-04-25T08:33:28.382Z</time></trkpt><trkpt lat="41.0246967" lon="14.43619"><ele>61.0</ele><time>2026-04-25T08:33:30.382Z</time></trkpt><trkpt lat="41.0247083" lon="14.436345"><ele>61.0</ele><time>2026-04-25T08:33:32.381Z</time></trkpt><trkpt lat="41.0247183" lon="14.4365017"><ele>61.0</ele><time>2026-04-25T08:33:34.381Z</time></trkpt><trkpt lat="41.0247233" lon="14.4366583"><ele>61.0</ele><time>2026-04-25T08:33:36.382Z</time></trkpt><trkpt lat="41.0247283" lon="14.4368233"><ele>60.99999999999999</ele><time>2026-04-25T08:33:38.381Z</time></trkpt><trkpt lat="41.0247317" lon="14.4369083"><ele>61.0</ele><time>2026-04-25T08:33:39.381Z</time></trkpt><trkpt lat="41.024735" lon="14.4369933"><ele>61.0</ele><time>2026-04-25T08:33:40.38Z</time></trkpt><trkpt lat="41.0247383" lon="14.4370767"><ele>61.0</ele><time>2026-04-25T08:33:41.38Z</time></trkpt><trkpt lat="41.024755" lon="14.43724"><ele>60.99999999999999</ele><time>2026-04-25T08:33:43.386Z</time></trkpt><trkpt lat="41.024765" lon="14.4374083"><ele>61.0</ele><time>2026-04-25T08:33:45.381Z</time></trkpt><trkpt lat="41.0247667" lon="14.4374933"><ele>60.71428571428571</ele><time>2026-04-25T08:33:46.382Z</time></trkpt><trkpt lat="41.02477" lon="14.43758"><ele>60.42857142857143</ele><time>2026-04-25T08:33:47.381Z</time></trkpt><trkpt lat="41.0247767" lon="14.4376667"><ele>60.14285714285714</ele><time>2026-04-25T08:33:48.382Z</time></trkpt><trkpt lat="41.024785" lon="14.437755"><ele>59.857142857142854</ele><time>2026-04-25T08:33:49.383Z</time></trkpt><trkpt lat="41.024795" lon="14.4378433"><ele>59.57142857142857</ele><time>2026-04-25T08:33:50.382Z</time></trkpt><trkpt lat="41.024805" lon="14.4379283"><ele>59.285714285714285</ele><time>2026-04-25T08:33:51.382Z</time></trkpt><trkpt lat="41.02481" lon="14.4380167"><ele>59.0</ele><time>2026-04-25T08:33:52.381Z</time></trkpt><trkpt lat="41.024815" lon="14.438105"><ele>59.0</ele><time>2026-04-25T08:33:53.38Z</time></trkpt><trkpt lat="41.0248167" lon="14.4381933"><ele>59.0</ele><time>2026-04-25T08:33:54.383Z</time></trkpt><trkpt lat="41.02482" lon="14.438285"><ele>59.0</ele><time>2026-04-25T08:33:55.382Z</time></trkpt><trkpt lat="41.0248233" lon="14.4383767"><ele>59.0</ele><time>2026-04-25T08:33:56.381Z</time></trkpt><trkpt lat="41.0248317" lon="14.4384633"><ele>59.0</ele><time>2026-04-25T08:33:57.382Z</time></trkpt><trkpt lat="41.024835" lon="14.4385567"><ele>59.0</ele><time>2026-04-25T08:33:58.381Z</time></trkpt><trkpt lat="41.0248383" lon="14.43865"><ele>59.0</ele><time>2026-04-25T08:33:59.382Z</time></trkpt><trkpt lat="41.024835" lon="14.4387433"><ele>59.285714285714285</ele><time>2026-04-25T08:34:00.381Z</time></trkpt><trkpt lat="41.0248367" lon="14.4388383"><ele>59.57142857142857</ele><time>2026-04-25T08:34:01.381Z</time></trkpt><trkpt lat="41.02484" lon="14.4389333"><ele>59.857142857142854</ele><time>2026-04-25T08:34:02.382Z</time></trkpt><trkpt lat="41.0248417" lon="14.4390317"><ele>60.14285714285714</ele><time>2026-04-25T08:34:03.382Z</time></trkpt><trkpt lat="41.0248467" lon="14.4391267"><ele>60.42857142857143</ele><time>2026-04-25T08:34:04.381Z</time></trkpt><trkpt lat="41.02485" lon="14.4392217"><ele>60.71428571428571</ele><time>2026-04-25T08:34:05.382Z</time></trkpt><trkpt lat="41.0248517" lon="14.4393183"><ele>60.99999999999999</ele><time>2026-04-25T08:34:06.381Z</time></trkpt><trkpt lat="41.024855" lon="14.4394167"><ele>60.99999999999999</ele><time>2026-04-25T08:34:07.384Z</time></trkpt><trkpt lat="41.02486" lon="14.4395117"><ele>61.0</ele><time>2026-04-25T08:34:08.386Z</time></trkpt><trkpt lat="41.0248633" lon="14.4396067"><ele>60.99999999999999</ele><time>2026-04-25T08:34:09.384Z</time></trkpt><trkpt lat="41.02487" lon="14.4396983"><ele>60.99999999999999</ele><time>2026-04-25T08:34:10.38Z</time></trkpt><trkpt lat="41.024875" lon="14.4397883"><ele>61.0</ele><time>2026-04-25T08:34:11.384Z</time></trkpt><trkpt lat="41.02488" lon="14.4398833"><ele>60.99999999999999</ele><time>2026-04-25T08:34:12.382Z</time></trkpt><trkpt lat="41.0248833" lon="14.4399783"><ele>60.99999999999999</ele><time>2026-04-25T08:34:13.382Z</time></trkpt><trkpt lat="41.0248867" lon="14.4400733"><ele>60.99999999999999</ele><time>2026-04-25T08:34:14.382Z</time></trkpt><trkpt lat="41.0248933" lon="14.4401683"><ele>61.0</ele><time>2026-04-25T08:34:15.38Z</time></trkpt><trkpt lat="41.0248983" lon="14.4402633"><ele>60.99999999999999</ele><time>2026-04-25T08:34:16.382Z</time></trkpt><trkpt lat="41.024905" lon="14.4403617"><ele>60.99999999999999</ele><time>2026-04-25T08:34:17.383Z</time></trkpt><trkpt lat="41.0249117" lon="14.440455"><ele>61.0</ele><time>2026-04-25T08:34:18.382Z</time></trkpt><trkpt lat="41.0249183" lon="14.4405483"><ele>60.99999999999999</ele><time>2026-04-25T08:34:19.382Z</time></trkpt><trkpt lat="41.0249217" lon="14.4406417"><ele>60.99999999999999</ele><time>2026-04-25T08:34:20.381Z</time></trkpt><trkpt lat="41.0249317" lon="14.4407333"><ele>61.14285714285714</ele><time>2026-04-25T08:34:21.384Z</time></trkpt><trkpt lat="41.02494" lon="14.4408233"><ele>61.285714285714285</ele><time>2026-04-25T08:34:22.382Z</time></trkpt><trkpt lat="41.024945" lon="14.4409083"><ele>61.42857142857143</ele><time>2026-04-25T08:34:23.383Z</time></trkpt><trkpt lat="41.02495" lon="14.4409967"><ele>61.57142857142857</ele><time>2026-04-25T08:34:24.382Z</time></trkpt><trkpt lat="41.0249617" lon="14.4410833"><ele>61.71428571428572</ele><time>2026-04-25T08:34:25.382Z</time></trkpt><trkpt lat="41.02497" lon="14.4411717"><ele>61.85714285714286</ele><time>2026-04-25T08:34:26.382Z</time></trkpt><trkpt lat="41.0249767" lon="14.4412567"><ele>62.0</ele><time>2026-04-25T08:34:27.381Z</time></trkpt><trkpt lat="41.02498" lon="14.4413417"><ele>62.2</ele><time>2026-04-25T08:34:28.382Z</time></trkpt><trkpt lat="41.0249817" lon="14.441505"><ele>62.400000000000006</ele><time>2026-04-25T08:34:30.382Z</time></trkpt><trkpt lat="41.0249867" lon="14.4416567"><ele>62.599999999999994</ele><time>2026-04-25T08:34:32.382Z</time></trkpt><trkpt lat="41.0249933" lon="14.4417983"><ele>62.8</ele><time>2026-04-25T08:34:34.381Z</time></trkpt><trkpt lat="41.025005" lon="14.44193"><ele>63.0</ele><time>2026-04-25T08:34:36.381Z</time></trkpt><trkpt lat="41.02502" lon="14.442045"><ele>63.0</ele><time>2026-04-25T08:34:38.381Z</time></trkpt><trkpt lat="41.025015" lon="14.442155"><ele>63.0</ele><time>2026-04-25T08:34:40.384Z</time></trkpt><trkpt lat="41.0250083" lon="14.44226"><ele>63.0</ele><time>2026-04-25T08:34:42.384Z</time></trkpt><trkpt lat="41.02501" lon="14.4423683"><ele>63.0</ele><time>2026-04-25T08:34:44.389Z</time></trkpt><trkpt lat="41.025015" lon="14.4424833"><ele>63.0</ele><time>2026-04-25T08:34:46.38Z</time></trkpt><trkpt lat="41.0250183" lon="14.4426133"><ele>63.0</ele><time>2026-04-25T08:34:48.381Z</time></trkpt><trkpt lat="41.0250283" lon="14.44274"><ele>63.0</ele><time>2026-04-25T08:34:50.381Z</time></trkpt><trkpt lat="41.0250367" lon="14.4428667"><ele>63.0</ele><time>2026-04-25T08:34:52.381Z</time></trkpt><trkpt lat="41.0250483" lon="14.443005"><ele>63.0</ele><time>2026-04-25T08:34:54.382Z</time></trkpt><trkpt lat="41.02506" lon="14.4431467"><ele>63.0</ele><time>2026-04-25T08:34:56.382Z</time></trkpt><trkpt lat="41.0250717" lon="14.4432783"><ele>63.0</ele><time>2026-04-25T08:34:58.381Z</time></trkpt><trkpt lat="41.0250767" lon="14.4434167"><ele>63.166666666666664</ele><time>2026-04-25T08:35:00.382Z</time></trkpt><trkpt lat="41.02508" lon="14.4435433"><ele>63.33333333333333</ele><time>2026-04-25T08:35:02.381Z</time></trkpt><trkpt lat="41.0250933" lon="14.4436583"><ele>63.5</ele><time>2026-04-25T08:35:04.381Z</time></trkpt><trkpt lat="41.025095" lon="14.443775"><ele>63.666666666666664</ele><time>2026-04-25T08:35:06.382Z</time></trkpt><trkpt lat="41.025095" lon="14.4438933"><ele>63.83333333333333</ele><time>2026-04-25T08:35:08.382Z</time></trkpt><trkpt lat="41.0250967" lon="14.44401"><ele>64.0</ele><time>2026-04-25T08:35:10.382Z</time></trkpt><trkpt lat="41.025105" lon="14.4441167"><ele>64.2</ele><time>2026-04-25T08:35:12.382Z</time></trkpt><trkpt lat="41.025115" lon="14.4442283"><ele>64.4</ele><time>2026-04-25T08:35:14.383Z</time></trkpt><trkpt lat="41.0251217" lon="14.4443583"><ele>64.6</ele><time>2026-04-25T08:35:16.381Z</time></trkpt><trkpt lat="41.0251267" lon="14.44449"><ele>64.8</ele><time>2026-04-25T08:35:18.382Z</time></trkpt><trkpt lat="41.0251283" lon="14.4446117"><ele>65.0</ele><time>2026-04-25T08:35:20.382Z</time></trkpt><trkpt lat="41.0251333" lon="14.4447333"><ele>65.0</ele><time>2026-04-25T08:35:22.382Z</time></trkpt><trkpt lat="41.0251433" lon="14.4448433"><ele>65.0</ele><time>2026-04-25T08:35:24.382Z</time></trkpt><trkpt lat="41.02515" lon="14.4449483"><ele>65.0</ele><time>2026-04-25T08:35:26.381Z</time></trkpt><trkpt lat="41.0251467" lon="14.4450583"><ele>65.0</ele><time>2026-04-25T08:35:28.382Z</time></trkpt><trkpt lat="41.0251517" lon="14.4451733"><ele>65.0</ele><time>2026-04-25T08:35:30.381Z</time></trkpt><trkpt lat="41.0251583" lon="14.4453"><ele>65.0</ele><time>2026-04-25T08:35:32.382Z</time></trkpt><trkpt lat="41.025165" lon="14.4454317"><ele>65.0</ele><time>2026-04-25T08:35:34.383Z</time></trkpt><trkpt lat="41.02517" lon="14.445555"><ele>65.0</ele><time>2026-04-25T08:35:36.382Z</time></trkpt><trkpt lat="41.0251783" lon="14.4456667"><ele>65.0</ele><time>2026-04-25T08:35:38.381Z</time></trkpt><trkpt lat="41.0251883" lon="14.4457767"><ele>65.0</ele><time>2026-04-25T08:35:40.382Z</time></trkpt><trkpt lat="41.0252017" lon="14.44588"><ele>65.0</ele><time>2026-04-25T08:35:42.381Z</time></trkpt><trkpt lat="41.0252033" lon="14.445985"><ele>65.0</ele><time>2026-04-25T08:35:44.381Z</time></trkpt><trkpt lat="41.0252033" lon="14.446085"><ele>65.0</ele><time>2026-04-25T08:35:46.38Z</time></trkpt><trkpt lat="41.0252" lon="14.446175"><ele>65.0</ele><time>2026-04-25T08:35:48.382Z</time></trkpt><trkpt lat="41.0252067" lon="14.4462783"><ele>65.0</ele><time>2026-04-25T08:35:50.382Z</time></trkpt><trkpt lat="41.0252167" lon="14.4464017"><ele>65.0</ele><time>2026-04-25T08:35:52.381Z</time></trkpt><trkpt lat="41.0252183" lon="14.4465367"><ele>65.0</ele><time>2026-04-25T08:35:54.382Z</time></trkpt><trkpt lat="41.0252217" lon="14.44668"><ele>64.8</ele><time>2026-04-25T08:35:56.382Z</time></trkpt><trkpt lat="41.0252317" lon="14.44682"><ele>64.6</ele><time>2026-04-25T08:35:58.382Z</time></trkpt><trkpt lat="41.0252383" lon="14.4469633"><ele>64.4</ele><time>2026-04-25T08:36:00.382Z</time></trkpt><trkpt lat="41.0252483" lon="14.447115"><ele>64.2</ele><time>2026-04-25T08:36:02.381Z</time></trkpt><trkpt lat="41.0252583" lon="14.4472733"><ele>64.0</ele><time>2026-04-25T08:36:04.383Z</time></trkpt><trkpt lat="41.0252683" lon="14.447435"><ele>63.75</ele><time>2026-04-25T08:36:06.382Z</time></trkpt><trkpt lat="41.0252767" lon="14.4475933"><ele>63.5</ele><time>2026-04-25T08:36:08.383Z</time></trkpt><trkpt lat="41.025285" lon="14.4477533"><ele>63.25</ele><time>2026-04-25T08:36:10.381Z</time></trkpt><trkpt lat="41.0253033" lon="14.4479083"><ele>63.0</ele><time>2026-04-25T08:36:12.382Z</time></trkpt><trkpt lat="41.0253217" lon="14.448045"><ele>62.8</ele><time>2026-04-25T08:36:14.382Z</time></trkpt><trkpt lat="41.0253267" lon="14.4481933"><ele>62.599999999999994</ele><time>2026-04-25T08:36:16.381Z</time></trkpt><trkpt lat="41.0253317" lon="14.4483283"><ele>62.400000000000006</ele><time>2026-04-25T08:36:18.381Z</time></trkpt><trkpt lat="41.025335" lon="14.44846"><ele>62.2</ele><time>2026-04-25T08:36:20.385Z</time></trkpt><trkpt lat="41.025345" lon="14.448595"><ele>62.0</ele><time>2026-04-25T08:36:22.382Z</time></trkpt><trkpt lat="41.0253483" lon="14.44874"><ele>62.75</ele><time>2026-04-25T08:36:24.382Z</time></trkpt><trkpt lat="41.0253517" lon="14.4488917"><ele>63.5</ele><time>2026-04-25T08:36:26.383Z</time></trkpt><trkpt lat="41.0253533" lon="14.4490483"><ele>64.25</ele><time>2026-04-25T08:36:28.381Z</time></trkpt><trkpt lat="41.02536" lon="14.4491983"><ele>65.0</ele><time>2026-04-25T08:36:30.382Z</time></trkpt><trkpt lat="41.025365" lon="14.4493467"><ele>65.0</ele><time>2026-04-25T08:36:32.382Z</time></trkpt><trkpt lat="41.0253717" lon="14.4494967"><ele>65.0</ele><time>2026-04-25T08:36:34.382Z</time></trkpt><trkpt lat="41.0253783" lon="14.4496467"><ele>65.0</ele><time>2026-04-25T08:36:36.382Z</time></trkpt><trkpt lat="41.0253817" lon="14.4497883"><ele>65.0</ele><time>2026-04-25T08:36:38.382Z</time></trkpt><trkpt lat="41.0253817" lon="14.4499067"><ele>65.0</ele><time>2026-04-25T08:36:40.38Z</time></trkpt><trkpt lat="41.02538" lon="14.4500083"><ele>65.0</ele><time>2026-04-25T08:36:43.379Z</time></trkpt><trkpt lat="41.02538" lon="14.4501267"><ele>65.0</ele><time>2026-04-25T08:36:46.381Z</time></trkpt><trkpt lat="41.025395" lon="14.4502317"><ele>65.0</ele><time>2026-04-25T08:36:48.38Z</time></trkpt><trkpt lat="41.0254067" lon="14.4503533"><ele>65.0</ele><time>2026-04-25T08:36:50.381Z</time></trkpt><trkpt lat="41.0254217" lon="14.4504733"><ele>65.0</ele><time>2026-04-25T08:36:52.38Z</time></trkpt><trkpt lat="41.0254367" lon="14.4506017"><ele>65.25</ele><time>2026-04-25T08:36:54.381Z</time></trkpt><trkpt lat="41.02543" lon="14.45075"><ele>65.5</ele><time>2026-04-25T08:36:56.382Z</time></trkpt><trkpt lat="41.0254333" lon="14.450915"><ele>65.75</ele><time>2026-04-25T08:36:58.381Z</time></trkpt><trkpt lat="41.0254383" lon="14.45108"><ele>66.0</ele><time>2026-04-25T08:37:00.381Z</time></trkpt><trkpt lat="41.02545" lon="14.4512467"><ele>66.0</ele><time>2026-04-25T08:37:02.381Z</time></trkpt><trkpt lat="41.0254567" lon="14.4513367"><ele>66.0</ele><time>2026-04-25T08:37:03.38Z</time></trkpt><trkpt lat="41.0254583" lon="14.451425"><ele>66.0</ele><time>2026-04-25T08:37:04.383Z</time></trkpt><trkpt lat="41.0254617" lon="14.4515133"><ele>66.0</ele><time>2026-04-25T08:37:05.38Z</time></trkpt><trkpt lat="41.0254667" lon="14.4516017"><ele>66.0</ele><time>2026-04-25T08:37:06.381Z</time></trkpt><trkpt lat="41.0254717" lon="14.4516917"><ele>66.0</ele><time>2026-04-25T08:37:07.381Z</time></trkpt><trkpt lat="41.0254783" lon="14.451775"><ele>66.0</ele><time>2026-04-25T08:37:08.381Z</time></trkpt><trkpt lat="41.0254867" lon="14.4519283"><ele>66.0</ele><time>2026-04-25T08:37:10.381Z</time></trkpt><trkpt lat="41.0254917" lon="14.4520867"><ele>66.0</ele><time>2026-04-25T08:37:12.381Z</time></trkpt><trkpt lat="41.0254917" lon="14.4521717"><ele>66.0</ele><time>2026-04-25T08:37:13.38Z</time></trkpt><trkpt lat="41.0254983" lon="14.452335"><ele>66.0</ele><time>2026-04-25T08:37:15.381Z</time></trkpt><trkpt lat="41.0255" lon="14.4524217"><ele>66.0</ele><time>2026-04-25T08:37:16.381Z</time></trkpt><trkpt lat="41.0255067" lon="14.4525083"><ele>66.0</ele><time>2026-04-25T08:37:17.38Z</time></trkpt><trkpt lat="41.0255167" lon="14.4525933"><ele>66.0</ele><time>2026-04-25T08:37:18.381Z</time></trkpt><trkpt lat="41.02552" lon="14.4526817"><ele>66.0</ele><time>2026-04-25T08:37:19.382Z</time></trkpt><trkpt lat="41.0255233" lon="14.4527683"><ele>66.0</ele><time>2026-04-25T08:37:20.381Z</time></trkpt><trkpt lat="41.0255283" lon="14.4528583"><ele>66.0</ele><time>2026-04-25T08:37:21.382Z</time></trkpt><trkpt lat="41.02553" lon="14.4529483"><ele>66.0</ele><time>2026-04-25T08:37:22.381Z</time></trkpt><trkpt lat="41.025535" lon="14.4530383"><ele>66.0</ele><time>2026-04-25T08:37:23.381Z</time></trkpt><trkpt lat="41.0255367" lon="14.45313"><ele>66.0</ele><time>2026-04-25T08:37:24.381Z</time></trkpt><trkpt lat="41.02554" lon="14.45322"><ele>65.85714285714286</ele><time>2026-04-25T08:37:25.381Z</time></trkpt><trkpt lat="41.0255483" lon="14.4533117"><ele>65.71428571428572</ele><time>2026-04-25T08:37:26.381Z</time></trkpt><trkpt lat="41.0255533" lon="14.4534033"><ele>65.57142857142858</ele><time>2026-04-25T08:37:27.381Z</time></trkpt><trkpt lat="41.0255583" lon="14.453495"><ele>65.42857142857143</ele><time>2026-04-25T08:37:28.384Z</time></trkpt><trkpt lat="41.0255617" lon="14.45359"><ele>65.28571428571429</ele><time>2026-04-25T08:37:29.381Z</time></trkpt><trkpt lat="41.025565" lon="14.4536867"><ele>65.14285714285715</ele><time>2026-04-25T08:37:30.38Z</time></trkpt><trkpt lat="41.0255683" lon="14.4537833"><ele>65.0</ele><time>2026-04-25T08:37:31.381Z</time></trkpt><trkpt lat="41.0255767" lon="14.453875"><ele>65.28571428571429</ele><time>2026-04-25T08:37:32.381Z</time></trkpt><trkpt lat="41.0255833" lon="14.45397"><ele>65.57142857142857</ele><time>2026-04-25T08:37:33.381Z</time></trkpt><trkpt lat="41.0255933" lon="14.4540617"><ele>65.85714285714286</ele><time>2026-04-25T08:37:34.383Z</time></trkpt><trkpt lat="41.0256017" lon="14.4541517"><ele>66.14285714285714</ele><time>2026-04-25T08:37:35.381Z</time></trkpt><trkpt lat="41.0256067" lon="14.4542467"><ele>66.42857142857143</ele><time>2026-04-25T08:37:36.381Z</time></trkpt><trkpt lat="41.0256117" lon="14.454345"><ele>66.71428571428572</ele><time>2026-04-25T08:37:37.381Z</time></trkpt><trkpt lat="41.0256167" lon="14.4544383"><ele>67.0</ele><time>2026-04-25T08:37:38.381Z</time></trkpt><trkpt lat="41.0256217" lon="14.45453"><ele>67.0</ele><time>2026-04-25T08:37:39.381Z</time></trkpt><trkpt lat="41.0256267" lon="14.4546217"><ele>67.0</ele><time>2026-04-25T08:37:40.381Z</time></trkpt><trkpt lat="41.0256333" lon="14.4547183"><ele>67.0</ele><time>2026-04-25T08:37:41.381Z</time></trkpt><trkpt lat="41.0256333" lon="14.45482"><ele>67.0</ele><time>2026-04-25T08:37:42.381Z</time></trkpt><trkpt lat="41.0256383" lon="14.454915"><ele>67.0</ele><time>2026-04-25T08:37:43.381Z</time></trkpt><trkpt lat="41.0256417" lon="14.4550133"><ele>67.0</ele><time>2026-04-25T08:37:44.381Z</time></trkpt><trkpt lat="41.0256467" lon="14.455115"><ele>67.0</ele><time>2026-04-25T08:37:45.381Z</time></trkpt><trkpt lat="41.0256467" lon="14.4552183"><ele>67.0</ele><time>2026-04-25T08:37:46.381Z</time></trkpt><trkpt lat="41.025645" lon="14.455325"><ele>67.0</ele><time>2026-04-25T08:37:47.381Z</time></trkpt><trkpt lat="41.02565" lon="14.4554267"><ele>67.0</ele><time>2026-04-25T08:37:48.381Z</time></trkpt><trkpt lat="41.0256533" lon="14.4555317"><ele>67.0</ele><time>2026-04-25T08:37:49.381Z</time></trkpt><trkpt lat="41.0256583" lon="14.45563"><ele>67.0</ele><time>2026-04-25T08:37:50.382Z</time></trkpt><trkpt lat="41.025665" lon="14.45573"><ele>67.0</ele><time>2026-04-25T08:37:51.38Z</time></trkpt><trkpt lat="41.0256733" lon="14.45583"><ele>67.0</ele><time>2026-04-25T08:37:52.381Z</time></trkpt><trkpt lat="41.02568" lon="14.45593"><ele>67.0</ele><time>2026-04-25T08:37:53.381Z</time></trkpt><trkpt lat="41.025685" lon="14.4560317"><ele>67.0</ele><time>2026-04-25T08:37:54.38Z</time></trkpt><trkpt lat="41.0256867" lon="14.4561317"><ele>67.0</ele><time>2026-04-25T08:37:55.38Z</time></trkpt><trkpt lat="41.02569" lon="14.4562283"><ele>67.0</ele><time>2026-04-25T08:37:56.381Z</time></trkpt><trkpt lat="41.0256967" lon="14.4563267"><ele>67.0</ele><time>2026-04-25T08:37:57.381Z</time></trkpt><trkpt lat="41.0257083" lon="14.4564233"><ele>67.0</ele><time>2026-04-25T08:37:58.383Z</time></trkpt><trkpt lat="41.0257133" lon="14.4565233"><ele>67.0</ele><time>2026-04-25T08:37:59.381Z</time></trkpt><trkpt lat="41.025715" lon="14.456625"><ele>67.0</ele><time>2026-04-25T08:38:00.381Z</time></trkpt><trkpt lat="41.0257133" lon="14.4567217"><ele>67.0</ele><time>2026-04-25T08:38:01.38Z</time></trkpt><trkpt lat="41.0257117" lon="14.4568133"><ele>67.0</ele><time>2026-04-25T08:38:02.38Z</time></trkpt><trkpt lat="41.0257133" lon="14.4569033"><ele>67.0</ele><time>2026-04-25T08:38:03.382Z</time></trkpt><trkpt lat="41.0257167" lon="14.4569967"><ele>67.0</ele><time>2026-04-25T08:38:04.381Z</time></trkpt><trkpt lat="41.0257267" lon="14.4570833"><ele>67.0</ele><time>2026-04-25T08:38:05.381Z</time></trkpt><trkpt lat="41.0257383" lon="14.4571733"><ele>67.28571428571429</ele><time>2026-04-25T08:38:06.381Z</time></trkpt><trkpt lat="41.0257533" lon="14.457265"><ele>67.57142857142857</ele><time>2026-04-25T08:38:07.38Z</time></trkpt><trkpt lat="41.0257617" lon="14.457355"><ele>67.85714285714286</ele><time>2026-04-25T08:38:08.381Z</time></trkpt><trkpt lat="41.0257633" lon="14.4574483"><ele>68.14285714285714</ele><time>2026-04-25T08:38:09.383Z</time></trkpt><trkpt lat="41.0257633" lon="14.4575433"><ele>68.42857142857143</ele><time>2026-04-25T08:38:10.381Z</time></trkpt><trkpt lat="41.0257633" lon="14.457645"><ele>68.71428571428572</ele><time>2026-04-25T08:38:11.382Z</time></trkpt><trkpt lat="41.02577" lon="14.457745"><ele>69.0</ele><time>2026-04-25T08:38:12.382Z</time></trkpt><trkpt lat="41.0257783" lon="14.4578467"><ele>69.0</ele><time>2026-04-25T08:38:13.383Z</time></trkpt><trkpt lat="41.025785" lon="14.4579467"><ele>69.0</ele><time>2026-04-25T08:38:14.381Z</time></trkpt><trkpt lat="41.02579" lon="14.4580433"><ele>69.0</ele><time>2026-04-25T08:38:15.38Z</time></trkpt><trkpt lat="41.0257983" lon="14.45814"><ele>69.0</ele><time>2026-04-25T08:38:16.382Z</time></trkpt><trkpt lat="41.025805" lon="14.4582367"><ele>69.0</ele><time>2026-04-25T08:38:17.381Z</time></trkpt><trkpt lat="41.0258117" lon="14.4583367"><ele>69.0</ele><time>2026-04-25T08:38:18.38Z</time></trkpt><trkpt lat="41.025815" lon="14.4584333"><ele>69.0</ele><time>2026-04-25T08:38:19.381Z</time></trkpt><trkpt lat="41.0258167" lon="14.45853"><ele>69.14285714285714</ele><time>2026-04-25T08:38:20.382Z</time></trkpt><trkpt lat="41.02582" lon="14.458625"><ele>69.28571428571429</ele><time>2026-04-25T08:38:21.381Z</time></trkpt><trkpt lat="41.0258183" lon="14.458725"><ele>69.42857142857143</ele><time>2026-04-25T08:38:22.381Z</time></trkpt><trkpt lat="41.025815" lon="14.458825"><ele>69.57142857142857</ele><time>2026-04-25T08:38:23.38Z</time></trkpt><trkpt lat="41.02582" lon="14.4589217"><ele>69.71428571428572</ele><time>2026-04-25T08:38:24.382Z</time></trkpt><trkpt lat="41.02582" lon="14.4590217"><ele>69.85714285714286</ele><time>2026-04-25T08:38:25.381Z</time></trkpt><trkpt lat="41.0258217" lon="14.4591217"><ele>70.0</ele><time>2026-04-25T08:38:26.381Z</time></trkpt><trkpt lat="41.0258233" lon="14.4592217"><ele>70.57142857142857</ele><time>2026-04-25T08:38:27.381Z</time></trkpt><trkpt lat="41.0258267" lon="14.4593183"><ele>71.14285714285714</ele><time>2026-04-25T08:38:28.381Z</time></trkpt><trkpt lat="41.0258283" lon="14.4594133"><ele>71.71428571428572</ele><time>2026-04-25T08:38:29.381Z</time></trkpt><trkpt lat="41.025835" lon="14.4595017"><ele>72.28571428571428</ele><time>2026-04-25T08:38:30.381Z</time></trkpt><trkpt lat="41.02584" lon="14.45959"><ele>72.85714285714286</ele><time>2026-04-25T08:38:31.381Z</time></trkpt><trkpt lat="41.0258433" lon="14.459675"><ele>73.42857142857143</ele><time>2026-04-25T08:38:32.381Z</time></trkpt><trkpt lat="41.0258433" lon="14.4597617"><ele>74.0</ele><time>2026-04-25T08:38:33.381Z</time></trkpt><trkpt lat="41.0258483" lon="14.459845"><ele>74.14285714285714</ele><time>2026-04-25T08:38:34.381Z</time></trkpt><trkpt lat="41.025855" lon="14.45993"><ele>74.28571428571428</ele><time>2026-04-25T08:38:35.38Z</time></trkpt><trkpt lat="41.0258617" lon="14.4600183"><ele>74.42857142857142</ele><time>2026-04-25T08:38:36.38Z</time></trkpt><trkpt lat="41.025865" lon="14.4601083"><ele>74.57142857142857</ele><time>2026-04-25T08:38:37.381Z</time></trkpt><trkpt lat="41.0258717" lon="14.4601983"><ele>74.71428571428571</ele><time>2026-04-25T08:38:38.38Z</time></trkpt><trkpt lat="41.0258733" lon="14.4602833"><ele>74.85714285714285</ele><time>2026-04-25T08:38:39.381Z</time></trkpt><trkpt lat="41.0258767" lon="14.4603717"><ele>75.0</ele><time>2026-04-25T08:38:40.381Z</time></trkpt><trkpt lat="41.0258817" lon="14.46054"><ele>74.99999999999999</ele><time>2026-04-25T08:38:42.382Z</time></trkpt><trkpt lat="41.0258867" lon="14.460625"><ele>75.0</ele><time>2026-04-25T08:38:43.381Z</time></trkpt><trkpt lat="41.025895" lon="14.46071"><ele>75.0</ele><time>2026-04-25T08:38:44.38Z</time></trkpt><trkpt lat="41.0258983" lon="14.460795"><ele>75.0</ele><time>2026-04-25T08:38:45.38Z</time></trkpt><trkpt lat="41.025905" lon="14.46088"><ele>75.0</ele><time>2026-04-25T08:38:46.382Z</time></trkpt><trkpt lat="41.02591" lon="14.4609667"><ele>74.99999999999999</ele><time>2026-04-25T08:38:47.381Z</time></trkpt><trkpt lat="41.02591" lon="14.4610517"><ele>75.0</ele><time>2026-04-25T08:38:48.381Z</time></trkpt><trkpt lat="41.0259133" lon="14.4611417"><ele>74.99999999999999</ele><time>2026-04-25T08:38:49.381Z</time></trkpt><trkpt lat="41.0259167" lon="14.4612283"><ele>75.0</ele><time>2026-04-25T08:38:50.381Z</time></trkpt><trkpt lat="41.0259183" lon="14.4613167"><ele>75.0</ele><time>2026-04-25T08:38:51.381Z</time></trkpt><trkpt lat="41.0259217" lon="14.4614067"><ele>75.0</ele><time>2026-04-25T08:38:52.381Z</time></trkpt><trkpt lat="41.0259283" lon="14.4614917"><ele>75.0</ele><time>2026-04-25T08:38:53.38Z</time></trkpt><trkpt lat="41.025935" lon="14.461575"><ele>74.99999999999999</ele><time>2026-04-25T08:38:54.384Z</time></trkpt><trkpt lat="41.02594" lon="14.4616583"><ele>75.0</ele><time>2026-04-25T08:38:55.381Z</time></trkpt><trkpt lat="41.0259417" lon="14.4617433"><ele>74.83333333333333</ele><time>2026-04-25T08:38:56.382Z</time></trkpt><trkpt lat="41.0259367" lon="14.46183"><ele>74.66666666666667</ele><time>2026-04-25T08:38:57.38Z</time></trkpt><trkpt lat="41.025915" lon="14.4619133"><ele>74.5</ele><time>2026-04-25T08:38:58.381Z</time></trkpt><trkpt lat="41.0258917" lon="14.4619917"><ele>74.33333333333334</ele><time>2026-04-25T08:38:59.381Z</time></trkpt><trkpt lat="41.025885" lon="14.4621383"><ele>74.16666666666667</ele><time>2026-04-25T08:39:01.38Z</time></trkpt><trkpt lat="41.0259183" lon="14.4622867"><ele>74.0</ele><time>2026-04-25T08:39:03.382Z</time></trkpt><trkpt lat="41.0259283" lon="14.4624533"><ele>74.0</ele><time>2026-04-25T08:39:05.384Z</time></trkpt><trkpt lat="41.0259417" lon="14.46262"><ele>74.0</ele><time>2026-04-25T08:39:07.384Z</time></trkpt><trkpt lat="41.0259433" lon="14.46271"><ele>74.0</ele><time>2026-04-25T08:39:08.384Z</time></trkpt><trkpt lat="41.025945" lon="14.4628017"><ele>74.0</ele><time>2026-04-25T08:39:09.383Z</time></trkpt><trkpt lat="41.0259467" lon="14.46289"><ele>74.0</ele><time>2026-04-25T08:39:10.383Z</time></trkpt><trkpt lat="41.0259483" lon="14.4630533"><ele>74.2</ele><time>2026-04-25T08:39:12.384Z</time></trkpt><trkpt lat="41.025945" lon="14.4631383"><ele>74.4</ele><time>2026-04-25T08:39:13.383Z</time></trkpt><trkpt lat="41.0259383" lon="14.4633067"><ele>74.6</ele><time>2026-04-25T08:39:15.384Z</time></trkpt><trkpt lat="41.0259283" lon="14.4634717"><ele>74.8</ele><time>2026-04-25T08:39:17.383Z</time></trkpt><trkpt lat="41.0259333" lon="14.46364"><ele>75.0</ele><time>2026-04-25T08:39:19.382Z</time></trkpt><trkpt lat="41.02593" lon="14.4637283"><ele>74.99999999999999</ele><time>2026-04-25T08:39:20.384Z</time></trkpt><trkpt lat="41.0259283" lon="14.4638183"><ele>75.0</ele><time>2026-04-25T08:39:21.383Z</time></trkpt><trkpt lat="41.025925" lon="14.4639067"><ele>75.0</ele><time>2026-04-25T08:39:22.385Z</time></trkpt><trkpt lat="41.025925" lon="14.463995"><ele>75.0</ele><time>2026-04-25T08:39:23.384Z</time></trkpt><trkpt lat="41.0259267" lon="14.4640817"><ele>75.0</ele><time>2026-04-25T08:39:24.383Z</time></trkpt><trkpt lat="41.02593" lon="14.4641683"><ele>74.99999999999999</ele><time>2026-04-25T08:39:25.385Z</time></trkpt><trkpt lat="41.0259283" lon="14.4642617"><ele>75.0</ele><time>2026-04-25T08:39:26.385Z</time></trkpt><trkpt lat="41.0259367" lon="14.4644233"><ele>75.0</ele><time>2026-04-25T08:39:28.384Z</time></trkpt><trkpt lat="41.0259383" lon="14.4645833"><ele>75.0</ele><time>2026-04-25T08:39:30.386Z</time></trkpt><trkpt lat="41.0259433" lon="14.4646667"><ele>75.0</ele><time>2026-04-25T08:39:31.384Z</time></trkpt><trkpt lat="41.0259467" lon="14.4647533"><ele>75.0</ele><time>2026-04-25T08:39:32.384Z</time></trkpt><trkpt lat="41.0259567" lon="14.464915"><ele>75.0</ele><time>2026-04-25T08:39:34.384Z</time></trkpt><trkpt lat="41.0259617" lon="14.4649983"><ele>75.0</ele><time>2026-04-25T08:39:35.382Z</time></trkpt><trkpt lat="41.0259667" lon="14.4650833"><ele>75.0</ele><time>2026-04-25T08:39:36.383Z</time></trkpt><trkpt lat="41.02597" lon="14.46517"><ele>75.0</ele><time>2026-04-25T08:39:37.383Z</time></trkpt><trkpt lat="41.0259733" lon="14.465255"><ele>75.0</ele><time>2026-04-25T08:39:38.384Z</time></trkpt><trkpt lat="41.0259783" lon="14.4654233"><ele>75.0</ele><time>2026-04-25T08:39:40.383Z</time></trkpt><trkpt lat="41.0259767" lon="14.4655117"><ele>75.0</ele><time>2026-04-25T08:39:41.383Z</time></trkpt><trkpt lat="41.02597" lon="14.4656017"><ele>75.0</ele><time>2026-04-25T08:39:42.384Z</time></trkpt><trkpt lat="41.02596" lon="14.46569"><ele>74.99999999999999</ele><time>2026-04-25T08:39:43.384Z</time></trkpt><trkpt lat="41.0259533" lon="14.465775"><ele>75.0</ele><time>2026-04-25T08:39:44.384Z</time></trkpt><trkpt lat="41.025935" lon="14.465865"><ele>75.0</ele><time>2026-04-25T08:39:45.392Z</time></trkpt><trkpt lat="41.0259217" lon="14.4659517"><ele>75.0</ele><time>2026-04-25T08:39:46.386Z</time></trkpt><trkpt lat="41.02591" lon="14.466035"><ele>75.0</ele><time>2026-04-25T08:39:47.383Z</time></trkpt><trkpt lat="41.0258967" lon="14.4661183"><ele>74.99999999999999</ele><time>2026-04-25T08:39:48.385Z</time></trkpt><trkpt lat="41.025885" lon="14.466205"><ele>75.0</ele><time>2026-04-25T08:39:49.386Z</time></trkpt><trkpt lat="41.0258667" lon="14.4662933"><ele>75.33333333333333</ele><time>2026-04-25T08:39:50.385Z</time></trkpt><trkpt lat="41.02585" lon="14.46638"><ele>75.66666666666667</ele><time>2026-04-25T08:39:51.384Z</time></trkpt><trkpt lat="41.0258317" lon="14.4664683"><ele>76.0</ele><time>2026-04-25T08:39:52.384Z</time></trkpt><trkpt lat="41.0258117" lon="14.466555"><ele>76.33333333333334</ele><time>2026-04-25T08:39:53.383Z</time></trkpt><trkpt lat="41.0257967" lon="14.4666367"><ele>76.66666666666667</ele><time>2026-04-25T08:39:54.383Z</time></trkpt><trkpt lat="41.02578" lon="14.4667217"><ele>77.0</ele><time>2026-04-25T08:39:55.383Z</time></trkpt><trkpt lat="41.0257533" lon="14.4668783"><ele>76.0</ele><time>2026-04-25T08:39:57.382Z</time></trkpt><trkpt lat="41.02573" lon="14.4670283"><ele>75.0</ele><time>2026-04-25T08:39:59.384Z</time></trkpt><trkpt lat="41.0257033" lon="14.4671767"><ele>74.0</ele><time>2026-04-25T08:40:01.384Z</time></trkpt><trkpt lat="41.02568" lon="14.46732"><ele>73.0</ele><time>2026-04-25T08:40:03.384Z</time></trkpt><trkpt lat="41.025655" lon="14.467465"><ele>73.0</ele><time>2026-04-25T08:40:05.385Z</time></trkpt><trkpt lat="41.02563" lon="14.4676117"><ele>73.0</ele><time>2026-04-25T08:40:07.384Z</time></trkpt><trkpt lat="41.0256067" lon="14.4677567"><ele>73.0</ele><time>2026-04-25T08:40:09.384Z</time></trkpt><trkpt lat="41.0255767" lon="14.4679067"><ele>73.0</ele><time>2026-04-25T08:40:11.384Z</time></trkpt><trkpt lat="41.02555" lon="14.46805"><ele>73.6</ele><time>2026-04-25T08:40:13.385Z</time></trkpt><trkpt lat="41.025525" lon="14.4681983"><ele>74.19999999999999</ele><time>2026-04-25T08:40:15.385Z</time></trkpt><trkpt lat="41.02551" lon="14.4683467"><ele>74.8</ele><time>2026-04-25T08:40:17.385Z</time></trkpt><trkpt lat="41.0254933" lon="14.46849"><ele>75.39999999999999</ele><time>2026-04-25T08:40:19.385Z</time></trkpt><trkpt lat="41.02548" lon="14.46863"><ele>76.0</ele><time>2026-04-25T08:40:21.383Z</time></trkpt><trkpt lat="41.0254583" lon="14.4687733"><ele>76.39999999999999</ele><time>2026-04-25T08:40:23.383Z</time></trkpt><trkpt lat="41.025435" lon="14.4689183"><ele>76.8</ele><time>2026-04-25T08:40:25.382Z</time></trkpt><trkpt lat="41.0254217" lon="14.4690633"><ele>77.19999999999999</ele><time>2026-04-25T08:40:27.385Z</time></trkpt><trkpt lat="41.025415" lon="14.469205"><ele>77.6</ele><time>2026-04-25T08:40:29.385Z</time></trkpt><trkpt lat="41.0254017" lon="14.46935"><ele>78.0</ele><time>2026-04-25T08:40:31.384Z</time></trkpt><trkpt lat="41.0253983" lon="14.4694983"><ele>78.0</ele><time>2026-04-25T08:40:33.386Z</time></trkpt><trkpt lat="41.025395" lon="14.4696467"><ele>78.0</ele><time>2026-04-25T08:40:35.386Z</time></trkpt><trkpt lat="41.0253933" lon="14.469795"><ele>78.0</ele><time>2026-04-25T08:40:37.385Z</time></trkpt><trkpt lat="41.0253867" lon="14.4699367"><ele>78.0</ele><time>2026-04-25T08:40:39.386Z</time></trkpt><trkpt lat="41.0253867" lon="14.4700833"><ele>78.0</ele><time>2026-04-25T08:40:41.383Z</time></trkpt><trkpt lat="41.0253883" lon="14.47023"><ele>78.0</ele><time>2026-04-25T08:40:43.386Z</time></trkpt><trkpt lat="41.02538" lon="14.4703833"><ele>78.0</ele><time>2026-04-25T08:40:45.385Z</time></trkpt><trkpt lat="41.025375" lon="14.4705383"><ele>78.0</ele><time>2026-04-25T08:40:47.383Z</time></trkpt><trkpt lat="41.02537" lon="14.470695"><ele>78.0</ele><time>2026-04-25T08:40:49.383Z</time></trkpt><trkpt lat="41.0253667" lon="14.470855"><ele>78.16666666666667</ele><time>2026-04-25T08:40:51.385Z</time></trkpt><trkpt lat="41.0253617" lon="14.4710167"><ele>78.33333333333333</ele><time>2026-04-25T08:40:53.383Z</time></trkpt><trkpt lat="41.0253583" lon="14.4711767"><ele>78.5</ele><time>2026-04-25T08:40:55.385Z</time></trkpt><trkpt lat="41.0253567" lon="14.4712617"><ele>78.66666666666666</ele><time>2026-04-25T08:40:56.387Z</time></trkpt><trkpt lat="41.0253567" lon="14.4713467"><ele>78.83333333333333</ele><time>2026-04-25T08:40:57.384Z</time></trkpt><trkpt lat="41.0253567" lon="14.4714333"><ele>79.0</ele><time>2026-04-25T08:40:58.384Z</time></trkpt><trkpt lat="41.0253567" lon="14.47152"><ele>79.00000000000001</ele><time>2026-04-25T08:40:59.383Z</time></trkpt><trkpt lat="41.0253533" lon="14.47161"><ele>79.0</ele><time>2026-04-25T08:41:00.385Z</time></trkpt><trkpt lat="41.0253533" lon="14.4717"><ele>79.0</ele><time>2026-04-25T08:41:01.385Z</time></trkpt><trkpt lat="41.0253533" lon="14.47179"><ele>79.0</ele><time>2026-04-25T08:41:02.385Z</time></trkpt><trkpt lat="41.0253567" lon="14.47188"><ele>79.0</ele><time>2026-04-25T08:41:03.384Z</time></trkpt><trkpt lat="41.0253633" lon="14.4719717"><ele>79.00000000000001</ele><time>2026-04-25T08:41:04.383Z</time></trkpt><trkpt lat="41.02537" lon="14.4720617"><ele>79.0</ele><time>2026-04-25T08:41:05.386Z</time></trkpt><trkpt lat="41.0253767" lon="14.472155"><ele>79.16666666666666</ele><time>2026-04-25T08:41:06.385Z</time></trkpt><trkpt lat="41.0253833" lon="14.4722517"><ele>79.33333333333333</ele><time>2026-04-25T08:41:07.384Z</time></trkpt><trkpt lat="41.0253933" lon="14.4723517"><ele>79.5</ele><time>2026-04-25T08:41:08.387Z</time></trkpt><trkpt lat="41.025405" lon="14.4724517"><ele>79.66666666666667</ele><time>2026-04-25T08:41:09.384Z</time></trkpt><trkpt lat="41.0254167" lon="14.4725533"><ele>79.83333333333334</ele><time>2026-04-25T08:41:10.385Z</time></trkpt><trkpt lat="41.0254367" lon="14.47265"><ele>80.0</ele><time>2026-04-25T08:41:11.384Z</time></trkpt><trkpt lat="41.02546" lon="14.472745"><ele>80.0</ele><time>2026-04-25T08:41:12.386Z</time></trkpt><trkpt lat="41.0254867" lon="14.4728383"><ele>80.0</ele><time>2026-04-25T08:41:13.385Z</time></trkpt><trkpt lat="41.025515" lon="14.47293"><ele>80.0</ele><time>2026-04-25T08:41:14.386Z</time></trkpt><trkpt lat="41.02554" lon="14.4730283"><ele>80.0</ele><time>2026-04-25T08:41:15.383Z</time></trkpt><trkpt lat="41.02557" lon="14.4731217"><ele>80.0</ele><time>2026-04-25T08:41:16.382Z</time></trkpt><trkpt lat="41.0256" lon="14.4732183"><ele>80.0</ele><time>2026-04-25T08:41:17.385Z</time></trkpt><trkpt lat="41.0256317" lon="14.4733133"><ele>80.16666666666667</ele><time>2026-04-25T08:41:18.384Z</time></trkpt><trkpt lat="41.025665" lon="14.473405"><ele>80.33333333333334</ele><time>2026-04-25T08:41:19.385Z</time></trkpt><trkpt lat="41.0257017" lon="14.4734983"><ele>80.5</ele><time>2026-04-25T08:41:20.383Z</time></trkpt><trkpt lat="41.0257367" lon="14.47359"><ele>80.66666666666667</ele><time>2026-04-25T08:41:21.382Z</time></trkpt><trkpt lat="41.025775" lon="14.47368"><ele>80.83333333333333</ele><time>2026-04-25T08:41:22.383Z</time></trkpt><trkpt lat="41.0258133" lon="14.4737667"><ele>81.0</ele><time>2026-04-25T08:41:23.385Z</time></trkpt><trkpt lat="41.0258517" lon="14.4738533"><ele>81.5</ele><time>2026-04-25T08:41:24.388Z</time></trkpt><trkpt lat="41.0258883" lon="14.4739383"><ele>82.0</ele><time>2026-04-25T08:41:25.385Z</time></trkpt><trkpt lat="41.02592" lon="14.47403"><ele>82.5</ele><time>2026-04-25T08:41:26.384Z</time></trkpt><trkpt lat="41.0259483" lon="14.474125"><ele>83.0</ele><time>2026-04-25T08:41:27.387Z</time></trkpt><trkpt lat="41.0259783" lon="14.47422"><ele>83.5</ele><time>2026-04-25T08:41:28.386Z</time></trkpt><trkpt lat="41.0260083" lon="14.4743217"><ele>84.0</ele><time>2026-04-25T08:41:29.386Z</time></trkpt><trkpt lat="41.0260367" lon="14.4744233"><ele>84.0</ele><time>2026-04-25T08:41:30.385Z</time></trkpt><trkpt lat="41.0260617" lon="14.4745267"><ele>84.0</ele><time>2026-04-25T08:41:31.383Z</time></trkpt><trkpt lat="41.0260867" lon="14.47463"><ele>84.0</ele><time>2026-04-25T08:41:32.386Z</time></trkpt><trkpt lat="41.026105" lon="14.4747417"><ele>84.0</ele><time>2026-04-25T08:41:33.387Z</time></trkpt><trkpt lat="41.0261183" lon="14.4748533"><ele>84.0</ele><time>2026-04-25T08:41:34.385Z</time></trkpt><trkpt lat="41.0261267" lon="14.474965"><ele>84.0</ele><time>2026-04-25T08:41:35.386Z</time></trkpt><trkpt lat="41.0261367" lon="14.4750783"><ele>84.0</ele><time>2026-04-25T08:41:36.386Z</time></trkpt><trkpt lat="41.026145" lon="14.4751917"><ele>84.0</ele><time>2026-04-25T08:41:37.386Z</time></trkpt><trkpt lat="41.0261483" lon="14.475305"><ele>84.0</ele><time>2026-04-25T08:41:38.387Z</time></trkpt><trkpt lat="41.0261467" lon="14.4754167"><ele>84.0</ele><time>2026-04-25T08:41:39.386Z</time></trkpt><trkpt lat="41.0261483" lon="14.4755267"><ele>84.0</ele><time>2026-04-25T08:41:40.385Z</time></trkpt><trkpt lat="41.02615" lon="14.475635"><ele>84.0</ele><time>2026-04-25T08:41:41.387Z</time></trkpt><trkpt lat="41.026155" lon="14.4757367"><ele>84.16666666666667</ele><time>2026-04-25T08:41:42.386Z</time></trkpt><trkpt lat="41.0261567" lon="14.4758383"><ele>84.33333333333333</ele><time>2026-04-25T08:41:43.385Z</time></trkpt><trkpt lat="41.02616" lon="14.4759417"><ele>84.5</ele><time>2026-04-25T08:41:44.384Z</time></trkpt><trkpt lat="41.0261633" lon="14.4760417"><ele>84.66666666666666</ele><time>2026-04-25T08:41:45.387Z</time></trkpt><trkpt lat="41.0261633" lon="14.47614"><ele>84.83333333333333</ele><time>2026-04-25T08:41:46.385Z</time></trkpt><trkpt lat="41.0261667" lon="14.4762367"><ele>85.0</ele><time>2026-04-25T08:41:47.385Z</time></trkpt><trkpt lat="41.02617" lon="14.4763367"><ele>85.0</ele><time>2026-04-25T08:41:48.384Z</time></trkpt><trkpt lat="41.026175" lon="14.4764367"><ele>85.0</ele><time>2026-04-25T08:41:49.385Z</time></trkpt><trkpt lat="41.0261783" lon="14.4765367"><ele>85.0</ele><time>2026-04-25T08:41:50.385Z</time></trkpt><trkpt lat="41.02618" lon="14.47664"><ele>85.0</ele><time>2026-04-25T08:41:51.385Z</time></trkpt><trkpt lat="41.0261817" lon="14.4767433"><ele>85.0</ele><time>2026-04-25T08:41:52.384Z</time></trkpt><trkpt lat="41.026185" lon="14.4768483"><ele>85.0</ele><time>2026-04-25T08:41:53.384Z</time></trkpt><trkpt lat="41.0261883" lon="14.4769467"><ele>85.0</ele><time>2026-04-25T08:41:54.384Z</time></trkpt><trkpt lat="41.0261933" lon="14.4770417"><ele>85.0</ele><time>2026-04-25T08:41:55.386Z</time></trkpt><trkpt lat="41.026205" lon="14.47713"><ele>85.0</ele><time>2026-04-25T08:41:56.387Z</time></trkpt><trkpt lat="41.0262133" lon="14.4772233"><ele>85.0</ele><time>2026-04-25T08:41:57.387Z</time></trkpt><trkpt lat="41.0262183" lon="14.477315"><ele>85.0</ele><time>2026-04-25T08:41:58.383Z</time></trkpt><trkpt lat="41.0262183" lon="14.4774117"><ele>85.0</ele><time>2026-04-25T08:41:59.384Z</time></trkpt><trkpt lat="41.0262183" lon="14.4775067"><ele>85.0</ele><time>2026-04-25T08:42:00.385Z</time></trkpt><trkpt lat="41.0262183" lon="14.4776033"><ele>84.83333333333333</ele><time>2026-04-25T08:42:01.385Z</time></trkpt><trkpt lat="41.0262183" lon="14.4777017"><ele>84.66666666666666</ele><time>2026-04-25T08:42:02.385Z</time></trkpt><trkpt lat="41.0262217" lon="14.4777983"><ele>84.5</ele><time>2026-04-25T08:42:03.383Z</time></trkpt><trkpt lat="41.0262283" lon="14.4778967"><ele>84.33333333333333</ele><time>2026-04-25T08:42:04.384Z</time></trkpt><trkpt lat="41.0262333" lon="14.4779983"><ele>84.16666666666667</ele><time>2026-04-25T08:42:05.385Z</time></trkpt><trkpt lat="41.026235" lon="14.4781017"><ele>84.0</ele><time>2026-04-25T08:42:06.384Z</time></trkpt><trkpt lat="41.02624" lon="14.478205"><ele>83.83333333333333</ele><time>2026-04-25T08:42:07.381Z</time></trkpt><trkpt lat="41.0262517" lon="14.4783033"><ele>83.66666666666667</ele><time>2026-04-25T08:42:08.384Z</time></trkpt><trkpt lat="41.0262667" lon="14.4784"><ele>83.5</ele><time>2026-04-25T08:42:09.384Z</time></trkpt><trkpt lat="41.02629" lon="14.4784967"><ele>83.33333333333334</ele><time>2026-04-25T08:42:10.386Z</time></trkpt><trkpt lat="41.0263217" lon="14.4785883"><ele>83.16666666666667</ele><time>2026-04-25T08:42:11.384Z</time></trkpt><trkpt lat="41.0263583" lon="14.4786783"><ele>83.0</ele><time>2026-04-25T08:42:12.384Z</time></trkpt><trkpt lat="41.0263967" lon="14.4787667"><ele>83.33333333333334</ele><time>2026-04-25T08:42:13.384Z</time></trkpt><trkpt lat="41.0264383" lon="14.4788567"><ele>83.66666666666667</ele><time>2026-04-25T08:42:14.383Z</time></trkpt><trkpt lat="41.0264783" lon="14.4789467"><ele>84.0</ele><time>2026-04-25T08:42:15.386Z</time></trkpt><trkpt lat="41.02652" lon="14.4790367"><ele>84.33333333333333</ele><time>2026-04-25T08:42:16.386Z</time></trkpt><trkpt lat="41.0265583" lon="14.4791283"><ele>84.66666666666666</ele><time>2026-04-25T08:42:17.386Z</time></trkpt><trkpt lat="41.0266" lon="14.479215"><ele>85.0</ele><time>2026-04-25T08:42:18.385Z</time></trkpt><trkpt lat="41.0266433" lon="14.4792983"><ele>85.71428571428572</ele><time>2026-04-25T08:42:19.386Z</time></trkpt><trkpt lat="41.0266817" lon="14.4793817"><ele>86.42857142857142</ele><time>2026-04-25T08:42:20.386Z</time></trkpt><trkpt lat="41.0267217" lon="14.4794667"><ele>87.14285714285714</ele><time>2026-04-25T08:42:21.386Z</time></trkpt><trkpt lat="41.0267583" lon="14.4795517"><ele>87.85714285714286</ele><time>2026-04-25T08:42:22.385Z</time></trkpt><trkpt lat="41.0267967" lon="14.47963"><ele>88.57142857142858</ele><time>2026-04-25T08:42:23.383Z</time></trkpt><trkpt lat="41.026835" lon="14.479705"><ele>89.28571428571428</ele><time>2026-04-25T08:42:24.384Z</time></trkpt><trkpt lat="41.0268683" lon="14.479785"><ele>90.0</ele><time>2026-04-25T08:42:25.384Z</time></trkpt><trkpt lat="41.0269033" lon="14.47986"><ele>90.0</ele><time>2026-04-25T08:42:26.385Z</time></trkpt><trkpt lat="41.0269367" lon="14.4799333"><ele>90.0</ele><time>2026-04-25T08:42:27.383Z</time></trkpt><trkpt lat="41.0270017" lon="14.4800733"><ele>90.0</ele><time>2026-04-25T08:42:29.387Z</time></trkpt><trkpt lat="41.027065" lon="14.48021"><ele>90.0</ele><time>2026-04-25T08:42:31.382Z</time></trkpt><trkpt lat="41.02713" lon="14.4803367"><ele>90.0</ele><time>2026-04-25T08:42:33.386Z</time></trkpt><trkpt lat="41.0271883" lon="14.4804517"><ele>90.0</ele><time>2026-04-25T08:42:35.386Z</time></trkpt><trkpt lat="41.0272467" lon="14.48057"><ele>90.0</ele><time>2026-04-25T08:42:37.385Z</time></trkpt><trkpt lat="41.0273083" lon="14.4806917"><ele>90.0</ele><time>2026-04-25T08:42:39.384Z</time></trkpt><trkpt lat="41.02737" lon="14.4808133"><ele>90.0</ele><time>2026-04-25T08:42:41.381Z</time></trkpt><trkpt lat="41.0274333" lon="14.480935"><ele>90.0</ele><time>2026-04-25T08:42:43.383Z</time></trkpt><trkpt lat="41.0275017" lon="14.4810583"><ele>90.5</ele><time>2026-04-25T08:42:45.387Z</time></trkpt><trkpt lat="41.0275367" lon="14.4811283"><ele>91.0</ele><time>2026-04-25T08:42:46.382Z</time></trkpt><trkpt lat="41.0275683" lon="14.4812017"><ele>91.5</ele><time>2026-04-25T08:42:47.384Z</time></trkpt><trkpt lat="41.027635" lon="14.48133"><ele>92.0</ele><time>2026-04-25T08:42:49.383Z</time></trkpt><trkpt lat="41.0277033" lon="14.481465"><ele>92.5</ele><time>2026-04-25T08:42:51.384Z</time></trkpt><trkpt lat="41.0277367" lon="14.48154"><ele>93.0</ele><time>2026-04-25T08:42:52.383Z</time></trkpt><trkpt lat="41.02777" lon="14.4816167"><ele>93.14285714285715</ele><time>2026-04-25T08:42:53.384Z</time></trkpt><trkpt lat="41.0278017" lon="14.4816967"><ele>93.28571428571429</ele><time>2026-04-25T08:42:54.383Z</time></trkpt><trkpt lat="41.0278383" lon="14.481775"><ele>93.42857142857143</ele><time>2026-04-25T08:42:55.383Z</time></trkpt><trkpt lat="41.0278717" lon="14.481855"><ele>93.57142857142858</ele><time>2026-04-25T08:42:56.386Z</time></trkpt><trkpt lat="41.0279033" lon="14.4819317"><ele>93.71428571428571</ele><time>2026-04-25T08:42:57.387Z</time></trkpt><trkpt lat="41.0279383" lon="14.48201"><ele>93.85714285714286</ele><time>2026-04-25T08:42:58.383Z</time></trkpt><trkpt lat="41.02798" lon="14.4820867"><ele>94.0</ele><time>2026-04-25T08:42:59.386Z</time></trkpt><trkpt lat="41.0280167" lon="14.482165"><ele>94.28571428571428</ele><time>2026-04-25T08:43:00.385Z</time></trkpt><trkpt lat="41.0280517" lon="14.4822433"><ele>94.57142857142857</ele><time>2026-04-25T08:43:01.381Z</time></trkpt><trkpt lat="41.0280867" lon="14.48232"><ele>94.85714285714286</ele><time>2026-04-25T08:43:02.386Z</time></trkpt><trkpt lat="41.0281217" lon="14.4823967"><ele>95.14285714285714</ele><time>2026-04-25T08:43:03.384Z</time></trkpt><trkpt lat="41.0281583" lon="14.482475"><ele>95.42857142857143</ele><time>2026-04-25T08:43:04.383Z</time></trkpt><trkpt lat="41.028195" lon="14.4825517"><ele>95.71428571428571</ele><time>2026-04-25T08:43:05.386Z</time></trkpt><trkpt lat="41.0282333" lon="14.482625"><ele>96.0</ele><time>2026-04-25T08:43:06.382Z</time></trkpt><trkpt lat="41.0282667" lon="14.4827"><ele>96.0</ele><time>2026-04-25T08:43:07.386Z</time></trkpt><trkpt lat="41.0283" lon="14.4827717"><ele>96.0</ele><time>2026-04-25T08:43:08.384Z</time></trkpt><trkpt lat="41.0283683" lon="14.482905"><ele>96.0</ele><time>2026-04-25T08:43:10.385Z</time></trkpt><trkpt lat="41.0284383" lon="14.4830317"><ele>96.0</ele><time>2026-04-25T08:43:12.383Z</time></trkpt><trkpt lat="41.0285" lon="14.4831567"><ele>96.0</ele><time>2026-04-25T08:43:14.385Z</time></trkpt><trkpt lat="41.0285667" lon="14.4832833"><ele>96.8</ele><time>2026-04-25T08:43:16.383Z</time></trkpt><trkpt lat="41.0286283" lon="14.4834033"><ele>97.6</ele><time>2026-04-25T08:43:18.384Z</time></trkpt><trkpt lat="41.0287017" lon="14.4835217"><ele>98.4</ele><time>2026-04-25T08:43:20.383Z</time></trkpt><trkpt lat="41.0287583" lon="14.4836383"><ele>99.2</ele><time>2026-04-25T08:43:22.385Z</time></trkpt><trkpt lat="41.028815" lon="14.4837517"><ele>100.0</ele><time>2026-04-25T08:43:24.387Z</time></trkpt><trkpt lat="41.0288717" lon="14.4838683"><ele>100.0</ele><time>2026-04-25T08:43:26.386Z</time></trkpt><trkpt lat="41.0289267" lon="14.4839967"><ele>100.0</ele><time>2026-04-25T08:43:28.384Z</time></trkpt><trkpt lat="41.0289867" lon="14.4841083"><ele>100.0</ele><time>2026-04-25T08:43:30.384Z</time></trkpt><trkpt lat="41.02902" lon="14.4842133"><ele>100.0</ele><time>2026-04-25T08:43:32.384Z</time></trkpt><trkpt lat="41.02908" lon="14.48429"><ele>100.0</ele><time>2026-04-25T08:43:34.384Z</time></trkpt><trkpt lat="41.029135" lon="14.4843683"><ele>100.4</ele><time>2026-04-25T08:43:36.386Z</time></trkpt><trkpt lat="41.0291783" lon="14.484475"><ele>100.8</ele><time>2026-04-25T08:43:38.386Z</time></trkpt><trkpt lat="41.0292217" lon="14.4845883"><ele>101.19999999999999</ele><time>2026-04-25T08:43:40.384Z</time></trkpt><trkpt lat="41.0292533" lon="14.4847217"><ele>101.6</ele><time>2026-04-25T08:43:42.385Z</time></trkpt><trkpt lat="41.029285" lon="14.4848483"><ele>102.0</ele><time>2026-04-25T08:43:44.386Z</time></trkpt><trkpt lat="41.0293233" lon="14.4849817"><ele>102.0</ele><time>2026-04-25T08:43:46.385Z</time></trkpt><trkpt lat="41.0293583" lon="14.485115"><ele>102.0</ele><time>2026-04-25T08:43:48.386Z</time></trkpt><trkpt lat="41.029395" lon="14.4852517"><ele>102.0</ele><time>2026-04-25T08:43:50.384Z</time></trkpt><trkpt lat="41.029435" lon="14.485385"><ele>102.0</ele><time>2026-04-25T08:43:52.387Z</time></trkpt><trkpt lat="41.02947" lon="14.48552"><ele>102.0</ele><time>2026-04-25T08:43:54.387Z</time></trkpt><trkpt lat="41.0295" lon="14.48566"><ele>102.19999999999999</ele><time>2026-04-25T08:43:56.385Z</time></trkpt><trkpt lat="41.0295267" lon="14.485805"><ele>102.4</ele><time>2026-04-25T08:43:58.388Z</time></trkpt><trkpt lat="41.029535" lon="14.48595"><ele>102.6</ele><time>2026-04-25T08:44:00.386Z</time></trkpt><trkpt lat="41.0295483" lon="14.4860967"><ele>102.80000000000001</ele><time>2026-04-25T08:44:02.387Z</time></trkpt><trkpt lat="41.02957" lon="14.486245"><ele>103.0</ele><time>2026-04-25T08:44:04.385Z</time></trkpt><trkpt lat="41.02958" lon="14.486395"><ele>103.0</ele><time>2026-04-25T08:44:06.384Z</time></trkpt><trkpt lat="41.029585" lon="14.4865433"><ele>103.0</ele><time>2026-04-25T08:44:08.384Z</time></trkpt><trkpt lat="41.0296" lon="14.486695"><ele>103.0</ele><time>2026-04-25T08:44:10.384Z</time></trkpt><trkpt lat="41.0296117" lon="14.4868533"><ele>103.0</ele><time>2026-04-25T08:44:12.387Z</time></trkpt><trkpt lat="41.02962" lon="14.4870117"><ele>103.5</ele><time>2026-04-25T08:44:14.385Z</time></trkpt><trkpt lat="41.0296333" lon="14.487165"><ele>104.0</ele><time>2026-04-25T08:44:16.387Z</time></trkpt><trkpt lat="41.029655" lon="14.4873233"><ele>104.5</ele><time>2026-04-25T08:44:18.382Z</time></trkpt><trkpt lat="41.02967" lon="14.4874783"><ele>105.0</ele><time>2026-04-25T08:44:20.387Z</time></trkpt><trkpt lat="41.02969" lon="14.4876317"><ele>105.0</ele><time>2026-04-25T08:44:22.386Z</time></trkpt><trkpt lat="41.0297083" lon="14.4877867"><ele>105.0</ele><time>2026-04-25T08:44:24.385Z</time></trkpt><trkpt lat="41.0297317" lon="14.4879367"><ele>105.0</ele><time>2026-04-25T08:44:26.387Z</time></trkpt><trkpt lat="41.0297517" lon="14.488095"><ele>105.0</ele><time>2026-04-25T08:44:28.387Z</time></trkpt><trkpt lat="41.02977" lon="14.4882517"><ele>105.0</ele><time>2026-04-25T08:44:30.385Z</time></trkpt><trkpt lat="41.0298" lon="14.4884"><ele>105.0</ele><time>2026-04-25T08:44:32.387Z</time></trkpt><trkpt lat="41.0298333" lon="14.48855"><ele>105.0</ele><time>2026-04-25T08:44:34.384Z</time></trkpt><trkpt lat="41.0298583" lon="14.4887067"><ele>105.0</ele><time>2026-04-25T08:44:36.387Z</time></trkpt><trkpt lat="41.0298817" lon="14.4888617"><ele>105.0</ele><time>2026-04-25T08:44:38.387Z</time></trkpt><trkpt lat="41.02991" lon="14.489015"><ele>105.0</ele><time>2026-04-25T08:44:40.387Z</time></trkpt><trkpt lat="41.0299317" lon="14.48917"><ele>105.0</ele><time>2026-04-25T08:44:42.387Z</time></trkpt><trkpt lat="41.0299517" lon="14.4893217"><ele>105.0</ele><time>2026-04-25T08:44:44.387Z</time></trkpt><trkpt lat="41.0299783" lon="14.48947"><ele>106.25</ele><time>2026-04-25T08:44:46.387Z</time></trkpt><trkpt lat="41.0300017" lon="14.48962"><ele>107.5</ele><time>2026-04-25T08:44:48.385Z</time></trkpt><trkpt lat="41.0300267" lon="14.48977"><ele>108.75</ele><time>2026-04-25T08:44:50.387Z</time></trkpt><trkpt lat="41.0300467" lon="14.48992"><ele>110.0</ele><time>2026-04-25T08:44:52.387Z</time></trkpt><trkpt lat="41.0300667" lon="14.4900783"><ele>110.0</ele><time>2026-04-25T08:44:54.387Z</time></trkpt><trkpt lat="41.0300883" lon="14.4902333"><ele>110.0</ele><time>2026-04-25T08:44:56.386Z</time></trkpt><trkpt lat="41.03011" lon="14.4903883"><ele>110.0</ele><time>2026-04-25T08:44:58.386Z</time></trkpt><trkpt lat="41.030135" lon="14.490545"><ele>110.0</ele><time>2026-04-25T08:45:00.386Z</time></trkpt><trkpt lat="41.0301633" lon="14.4907033"><ele>110.5</ele><time>2026-04-25T08:45:02.385Z</time></trkpt><trkpt lat="41.0301867" lon="14.4908633"><ele>111.0</ele><time>2026-04-25T08:45:04.385Z</time></trkpt><trkpt lat="41.03021" lon="14.491025"><ele>111.5</ele><time>2026-04-25T08:45:06.385Z</time></trkpt><trkpt lat="41.0302283" lon="14.4911767"><ele>112.0</ele><time>2026-04-25T08:45:08.386Z</time></trkpt><trkpt lat="41.03025" lon="14.4913217"><ele>112.19999999999999</ele><time>2026-04-25T08:45:10.387Z</time></trkpt><trkpt lat="41.030275" lon="14.491475"><ele>112.39999999999999</ele><time>2026-04-25T08:45:12.387Z</time></trkpt><trkpt lat="41.0302917" lon="14.4916217"><ele>112.60000000000001</ele><time>2026-04-25T08:45:14.387Z</time></trkpt><trkpt lat="41.030315" lon="14.49177"><ele>112.80000000000001</ele><time>2026-04-25T08:45:16.387Z</time></trkpt><trkpt lat="41.03034" lon="14.491905"><ele>113.0</ele><time>2026-04-25T08:45:18.387Z</time></trkpt><trkpt lat="41.0303667" lon="14.49205"><ele>113.0</ele><time>2026-04-25T08:45:20.387Z</time></trkpt><trkpt lat="41.0303917" lon="14.4921983"><ele>113.0</ele><time>2026-04-25T08:45:22.383Z</time></trkpt><trkpt lat="41.0304167" lon="14.49234"><ele>113.0</ele><time>2026-04-25T08:45:24.384Z</time></trkpt><trkpt lat="41.0304533" lon="14.4924833"><ele>113.0</ele><time>2026-04-25T08:45:26.384Z</time></trkpt><trkpt lat="41.0305017" lon="14.49263"><ele>113.0</ele><time>2026-04-25T08:45:28.387Z</time></trkpt><trkpt lat="41.0305567" lon="14.4927733"><ele>113.00000000000001</ele><time>2026-04-25T08:45:30.387Z</time></trkpt><trkpt lat="41.0306133" lon="14.49291"><ele>113.00000000000001</ele><time>2026-04-25T08:45:32.385Z</time></trkpt><trkpt lat="41.0306717" lon="14.4930517"><ele>113.0</ele><time>2026-04-25T08:45:34.385Z</time></trkpt><trkpt lat="41.0307033" lon="14.493125"><ele>113.0</ele><time>2026-04-25T08:45:35.387Z</time></trkpt><trkpt lat="41.030735" lon="14.4931983"><ele>113.0</ele><time>2026-04-25T08:45:36.382Z</time></trkpt><trkpt lat="41.0307683" lon="14.49327"><ele>113.00000000000001</ele><time>2026-04-25T08:45:37.385Z</time></trkpt><trkpt lat="41.03083" lon="14.4934183"><ele>113.00000000000001</ele><time>2026-04-25T08:45:39.386Z</time></trkpt><trkpt lat="41.03086" lon="14.493495"><ele>113.0</ele><time>2026-04-25T08:45:40.384Z</time></trkpt><trkpt lat="41.0309283" lon="14.4936333"><ele>113.0</ele><time>2026-04-25T08:45:42.387Z</time></trkpt><trkpt lat="41.030995" lon="14.4937767"><ele>113.33333333333333</ele><time>2026-04-25T08:45:44.386Z</time></trkpt><trkpt lat="41.031025" lon="14.4938533"><ele>113.66666666666666</ele><time>2026-04-25T08:45:45.387Z</time></trkpt><trkpt lat="41.0310533" lon="14.4939317"><ele>114.0</ele><time>2026-04-25T08:45:46.385Z</time></trkpt><trkpt lat="41.0310833" lon="14.49401"><ele>114.33333333333334</ele><time>2026-04-25T08:45:47.383Z</time></trkpt><trkpt lat="41.031115" lon="14.494085"><ele>114.66666666666667</ele><time>2026-04-25T08:45:48.386Z</time></trkpt><trkpt lat="41.0311767" lon="14.4942333"><ele>115.0</ele><time>2026-04-25T08:45:50.385Z</time></trkpt><trkpt lat="41.03121" lon="14.494305"><ele>115.0</ele><time>2026-04-25T08:45:51.386Z</time></trkpt><trkpt lat="41.0312733" lon="14.4944483"><ele>115.0</ele><time>2026-04-25T08:45:53.382Z</time></trkpt><trkpt lat="41.0313383" lon="14.4945867"><ele>115.0</ele><time>2026-04-25T08:45:55.386Z</time></trkpt><trkpt lat="41.0313983" lon="14.4947233"><ele>115.0</ele><time>2026-04-25T08:45:57.387Z</time></trkpt><trkpt lat="41.0314633" lon="14.494865"><ele>115.50000000000001</ele><time>2026-04-25T08:45:59.387Z</time></trkpt><trkpt lat="41.0314967" lon="14.4949367"><ele>116.0</ele><time>2026-04-25T08:46:00.387Z</time></trkpt><trkpt lat="41.0315267" lon="14.495015"><ele>116.5</ele><time>2026-04-25T08:46:01.386Z</time></trkpt><trkpt lat="41.0315567" lon="14.49509"><ele>117.0</ele><time>2026-04-25T08:46:02.387Z</time></trkpt><trkpt lat="41.0315867" lon="14.495165"><ele>117.50000000000001</ele><time>2026-04-25T08:46:03.384Z</time></trkpt><trkpt lat="41.0316467" lon="14.4953133"><ele>118.0</ele><time>2026-04-25T08:46:05.385Z</time></trkpt><trkpt lat="41.031705" lon="14.4954583"><ele>118.16666666666667</ele><time>2026-04-25T08:46:07.387Z</time></trkpt><trkpt lat="41.0317667" lon="14.4956"><ele>118.33333333333334</ele><time>2026-04-25T08:46:09.386Z</time></trkpt><trkpt lat="41.0318" lon="14.4956733"><ele>118.5</ele><time>2026-04-25T08:46:10.385Z</time></trkpt><trkpt lat="41.0318333" lon="14.49575"><ele>118.66666666666666</ele><time>2026-04-25T08:46:11.385Z</time></trkpt><trkpt lat="41.031865" lon="14.4958267"><ele>118.83333333333333</ele><time>2026-04-25T08:46:12.386Z</time></trkpt><trkpt lat="41.0319283" lon="14.4959717"><ele>119.0</ele><time>2026-04-25T08:46:14.387Z</time></trkpt><trkpt lat="41.0319633" lon="14.496045"><ele>119.0</ele><time>2026-04-25T08:46:15.386Z</time></trkpt><trkpt lat="41.0319983" lon="14.49612"><ele>119.0</ele><time>2026-04-25T08:46:16.387Z</time></trkpt><trkpt lat="41.0320333" lon="14.4961933"><ele>119.0</ele><time>2026-04-25T08:46:17.383Z</time></trkpt><trkpt lat="41.0320667" lon="14.4962683"><ele>119.0</ele><time>2026-04-25T08:46:18.384Z</time></trkpt><trkpt lat="41.0320983" lon="14.4963417"><ele>119.0</ele><time>2026-04-25T08:46:19.384Z</time></trkpt><trkpt lat="41.0321317" lon="14.496415"><ele>119.0</ele><time>2026-04-25T08:46:20.382Z</time></trkpt><trkpt lat="41.0321633" lon="14.4964883"><ele>119.0</ele><time>2026-04-25T08:46:21.384Z</time></trkpt><trkpt lat="41.032225" lon="14.4966283"><ele>119.5</ele><time>2026-04-25T08:46:23.387Z</time></trkpt><trkpt lat="41.0322833" lon="14.4967667"><ele>120.0</ele><time>2026-04-25T08:46:25.386Z</time></trkpt><trkpt lat="41.0323433" lon="14.4968983"><ele>120.5</ele><time>2026-04-25T08:46:27.386Z</time></trkpt><trkpt lat="41.0324017" lon="14.49703"><ele>121.0</ele><time>2026-04-25T08:46:29.383Z</time></trkpt><trkpt lat="41.03246" lon="14.4971617"><ele>121.6</ele><time>2026-04-25T08:46:31.384Z</time></trkpt><trkpt lat="41.03252" lon="14.4972833"><ele>122.19999999999999</ele><time>2026-04-25T08:46:33.387Z</time></trkpt><trkpt lat="41.0325783" lon="14.4974083"><ele>122.80000000000001</ele><time>2026-04-25T08:46:35.387Z</time></trkpt><trkpt lat="41.0326367" lon="14.4975317"><ele>123.4</ele><time>2026-04-25T08:46:37.387Z</time></trkpt><trkpt lat="41.0326933" lon="14.4976567"><ele>124.0</ele><time>2026-04-25T08:46:39.386Z</time></trkpt><trkpt lat="41.0327517" lon="14.4977867"><ele>124.0</ele><time>2026-04-25T08:46:41.387Z</time></trkpt><trkpt lat="41.0328017" lon="14.4979117"><ele>124.0</ele><time>2026-04-25T08:46:43.387Z</time></trkpt><trkpt lat="41.0328483" lon="14.4980233"><ele>124.0</ele><time>2026-04-25T08:46:45.385Z</time></trkpt><trkpt lat="41.0329033" lon="14.498145"><ele>124.0</ele><time>2026-04-25T08:46:47.387Z</time></trkpt><trkpt lat="41.0329567" lon="14.498265"><ele>124.0</ele><time>2026-04-25T08:46:49.387Z</time></trkpt><trkpt lat="41.0330033" lon="14.4983833"><ele>124.2</ele><time>2026-04-25T08:46:51.385Z</time></trkpt><trkpt lat="41.0330483" lon="14.498505"><ele>124.4</ele><time>2026-04-25T08:46:53.385Z</time></trkpt><trkpt lat="41.0330933" lon="14.4986267"><ele>124.6</ele><time>2026-04-25T08:46:55.388Z</time></trkpt><trkpt lat="41.033135" lon="14.4987567"><ele>124.8</ele><time>2026-04-25T08:46:57.387Z</time></trkpt><trkpt lat="41.033165" lon="14.498875"><ele>125.0</ele><time>2026-04-25T08:46:59.386Z</time></trkpt><trkpt lat="41.0332067" lon="14.499005"><ele>125.0</ele><time>2026-04-25T08:47:01.386Z</time></trkpt><trkpt lat="41.0332367" lon="14.499135"><ele>125.0</ele><time>2026-04-25T08:47:03.386Z</time></trkpt><trkpt lat="41.0332667" lon="14.4992617"><ele>125.0</ele><time>2026-04-25T08:47:05.386Z</time></trkpt><trkpt lat="41.0332933" lon="14.49939"><ele>125.0</ele><time>2026-04-25T08:47:07.386Z</time></trkpt><trkpt lat="41.0333217" lon="14.4995233"><ele>125.0</ele><time>2026-04-25T08:47:09.385Z</time></trkpt><trkpt lat="41.0333433" lon="14.499655"><ele>125.6</ele><time>2026-04-25T08:47:11.386Z</time></trkpt><trkpt lat="41.0333617" lon="14.4997983"><ele>126.2</ele><time>2026-04-25T08:47:13.384Z</time></trkpt><trkpt lat="41.0333767" lon="14.4999383"><ele>126.80000000000001</ele><time>2026-04-25T08:47:15.385Z</time></trkpt><trkpt lat="41.0333967" lon="14.500075"><ele>127.4</ele><time>2026-04-25T08:47:17.382Z</time></trkpt><trkpt lat="41.03341" lon="14.5002083"><ele>128.0</ele><time>2026-04-25T08:47:19.383Z</time></trkpt><trkpt lat="41.03342" lon="14.5003417"><ele>128.4</ele><time>2026-04-25T08:47:21.385Z</time></trkpt><trkpt lat="41.033435" lon="14.5004733"><ele>128.8</ele><time>2026-04-25T08:47:23.383Z</time></trkpt><trkpt lat="41.0334417" lon="14.5006117"><ele>129.2</ele><time>2026-04-25T08:47:25.385Z</time></trkpt><trkpt lat="41.03345" lon="14.5007433"><ele>129.6</ele><time>2026-04-25T08:47:27.385Z</time></trkpt><trkpt lat="41.0334467" lon="14.5008717"><ele>130.0</ele><time>2026-04-25T08:47:29.386Z</time></trkpt><trkpt lat="41.03345" lon="14.5010083"><ele>130.0</ele><time>2026-04-25T08:47:31.385Z</time></trkpt><trkpt lat="41.0334533" lon="14.5011433"><ele>130.0</ele><time>2026-04-25T08:47:33.386Z</time></trkpt><trkpt lat="41.033465" lon="14.50127"><ele>130.0</ele><time>2026-04-25T08:47:35.385Z</time></trkpt><trkpt lat="41.03347" lon="14.501395"><ele>130.0</ele><time>2026-04-25T08:47:37.386Z</time></trkpt><trkpt lat="41.0334783" lon="14.5015283"><ele>130.0</ele><time>2026-04-25T08:47:39.384Z</time></trkpt><trkpt lat="41.0334883" lon="14.50166"><ele>130.4</ele><time>2026-04-25T08:47:41.386Z</time></trkpt><trkpt lat="41.0334933" lon="14.5017883"><ele>130.8</ele><time>2026-04-25T08:47:43.385Z</time></trkpt><trkpt lat="41.0335067" lon="14.501925"><ele>131.2</ele><time>2026-04-25T08:47:45.384Z</time></trkpt><trkpt lat="41.0335117" lon="14.502045"><ele>131.6</ele><time>2026-04-25T08:47:47.383Z</time></trkpt><trkpt lat="41.0335233" lon="14.5021767"><ele>132.0</ele><time>2026-04-25T08:47:49.382Z</time></trkpt><trkpt lat="41.0335217" lon="14.5023117"><ele>132.4</ele><time>2026-04-25T08:47:51.383Z</time></trkpt><trkpt lat="41.03352" lon="14.5024467"><ele>132.79999999999998</ele><time>2026-04-25T08:47:53.382Z</time></trkpt><trkpt lat="41.0335167" lon="14.5025967"><ele>133.2</ele><time>2026-04-25T08:47:55.385Z</time></trkpt><trkpt lat="41.0335217" lon="14.5027233"><ele>133.6</ele><time>2026-04-25T08:47:57.385Z</time></trkpt><trkpt lat="41.0335267" lon="14.502845"><ele>134.0</ele><time>2026-04-25T08:47:59.383Z</time></trkpt><trkpt lat="41.033535" lon="14.5029667"><ele>134.4</ele><time>2026-04-25T08:48:01.384Z</time></trkpt><trkpt lat="41.033535" lon="14.5030883"><ele>134.8</ele><time>2026-04-25T08:48:03.383Z</time></trkpt><trkpt lat="41.0335417" lon="14.5032167"><ele>135.2</ele><time>2026-04-25T08:48:05.383Z</time></trkpt><trkpt lat="41.0335483" lon="14.5033433"><ele>135.6</ele><time>2026-04-25T08:48:07.383Z</time></trkpt><trkpt lat="41.0335533" lon="14.503475"><ele>136.0</ele><time>2026-04-25T08:48:09.385Z</time></trkpt><trkpt lat="41.0335683" lon="14.5036017"><ele>136.0</ele><time>2026-04-25T08:48:11.383Z</time></trkpt><trkpt lat="41.033575" lon="14.5037267"><ele>136.0</ele><time>2026-04-25T08:48:13.385Z</time></trkpt><trkpt lat="41.0335733" lon="14.5038533"><ele>136.0</ele><time>2026-04-25T08:48:15.384Z</time></trkpt><trkpt lat="41.0335833" lon="14.5039833"><ele>136.0</ele><time>2026-04-25T08:48:17.382Z</time></trkpt><trkpt lat="41.0335867" lon="14.5041167"><ele>136.0</ele><time>2026-04-25T08:48:19.385Z</time></trkpt><trkpt lat="41.033595" lon="14.5042367"><ele>136.4</ele><time>2026-04-25T08:48:21.381Z</time></trkpt><trkpt lat="41.0336083" lon="14.5043633"><ele>136.8</ele><time>2026-04-25T08:48:23.384Z</time></trkpt><trkpt lat="41.0336033" lon="14.5044883"><ele>137.20000000000002</ele><time>2026-04-25T08:48:25.386Z</time></trkpt><trkpt lat="41.0336083" lon="14.50462"><ele>137.6</ele><time>2026-04-25T08:48:27.385Z</time></trkpt><trkpt lat="41.03362" lon="14.5047567"><ele>138.0</ele><time>2026-04-25T08:48:29.385Z</time></trkpt><trkpt lat="41.0336267" lon="14.5048933"><ele>138.6</ele><time>2026-04-25T08:48:31.384Z</time></trkpt><trkpt lat="41.033625" lon="14.50502"><ele>139.20000000000002</ele><time>2026-04-25T08:48:33.385Z</time></trkpt><trkpt lat="41.03363" lon="14.5051483"><ele>139.8</ele><time>2026-04-25T08:48:35.384Z</time></trkpt><trkpt lat="41.0336417" lon="14.5052783"><ele>140.4</ele><time>2026-04-25T08:48:37.386Z</time></trkpt><trkpt lat="41.033655" lon="14.50541"><ele>141.0</ele><time>2026-04-25T08:48:39.384Z</time></trkpt><trkpt lat="41.0336617" lon="14.505535"><ele>141.4</ele><time>2026-04-25T08:48:41.382Z</time></trkpt><trkpt lat="41.033655" lon="14.5056567"><ele>141.8</ele><time>2026-04-25T08:48:43.386Z</time></trkpt><trkpt lat="41.03366" lon="14.5057917"><ele>142.20000000000002</ele><time>2026-04-25T08:48:45.383Z</time></trkpt><trkpt lat="41.033665" lon="14.5059283"><ele>142.6</ele><time>2026-04-25T08:48:47.383Z</time></trkpt><trkpt lat="41.03367" lon="14.5060683"><ele>143.0</ele><time>2026-04-25T08:48:49.382Z</time></trkpt><trkpt lat="41.0336783" lon="14.5062033"><ele>143.0</ele><time>2026-04-25T08:48:51.383Z</time></trkpt><trkpt lat="41.0336883" lon="14.5063367"><ele>143.0</ele><time>2026-04-25T08:48:53.383Z</time></trkpt><trkpt lat="41.0336933" lon="14.5064767"><ele>143.0</ele><time>2026-04-25T08:48:55.386Z</time></trkpt><trkpt lat="41.0337033" lon="14.50662"><ele>143.0</ele><time>2026-04-25T08:48:57.384Z</time></trkpt><trkpt lat="41.0337133" lon="14.5067567"><ele>143.0</ele><time>2026-04-25T08:48:59.384Z</time></trkpt><trkpt lat="41.0337233" lon="14.5068933"><ele>143.0</ele><time>2026-04-25T08:49:01.382Z</time></trkpt><trkpt lat="41.0337383" lon="14.50704"><ele>143.0</ele><time>2026-04-25T08:49:03.383Z</time></trkpt><trkpt lat="41.0337433" lon="14.50719"><ele>143.0</ele><time>2026-04-25T08:49:05.385Z</time></trkpt><trkpt lat="41.0337383" lon="14.507345"><ele>143.0</ele><time>2026-04-25T08:49:07.386Z</time></trkpt><trkpt lat="41.0337383" lon="14.5075"><ele>143.20000000000002</ele><time>2026-04-25T08:49:09.385Z</time></trkpt><trkpt lat="41.0337483" lon="14.5076483"><ele>143.4</ele><time>2026-04-25T08:49:11.385Z</time></trkpt><trkpt lat="41.0337533" lon="14.507785"><ele>143.60000000000002</ele><time>2026-04-25T08:49:13.386Z</time></trkpt><trkpt lat="41.03377" lon="14.5079183"><ele>143.8</ele><time>2026-04-25T08:49:15.385Z</time></trkpt><trkpt lat="41.0337817" lon="14.50806"><ele>144.0</ele><time>2026-04-25T08:49:17.384Z</time></trkpt><trkpt lat="41.0337933" lon="14.508205"><ele>144.6</ele><time>2026-04-25T08:49:19.382Z</time></trkpt><trkpt lat="41.0338067" lon="14.50836"><ele>145.2</ele><time>2026-04-25T08:49:21.382Z</time></trkpt><trkpt lat="41.033815" lon="14.5084433"><ele>145.79999999999998</ele><time>2026-04-25T08:49:22.381Z</time></trkpt><trkpt lat="41.0338267" lon="14.5085983"><ele>146.4</ele><time>2026-04-25T08:49:24.384Z</time></trkpt><trkpt lat="41.03383" lon="14.508735"><ele>147.0</ele><time>2026-04-25T08:49:26.387Z</time></trkpt><trkpt lat="41.0338417" lon="14.5088667"><ele>147.0</ele><time>2026-04-25T08:49:28.384Z</time></trkpt><trkpt lat="41.0338517" lon="14.5090017"><ele>147.0</ele><time>2026-04-25T08:49:30.386Z</time></trkpt><trkpt lat="41.0338517" lon="14.5091333"><ele>147.0</ele><time>2026-04-25T08:49:32.385Z</time></trkpt><trkpt lat="41.0338567" lon="14.5092583"><ele>147.0</ele><time>2026-04-25T08:49:34.383Z</time></trkpt><trkpt lat="41.0338667" lon="14.5093867"><ele>147.0</ele><time>2026-04-25T08:49:36.384Z</time></trkpt><trkpt lat="41.0338817" lon="14.509515"><ele>147.4</ele><time>2026-04-25T08:49:38.383Z</time></trkpt><trkpt lat="41.0338867" lon="14.509635"><ele>147.79999999999998</ele><time>2026-04-25T08:49:40.383Z</time></trkpt><trkpt lat="41.0338983" lon="14.509765"><ele>148.2</ele><time>2026-04-25T08:49:42.386Z</time></trkpt><trkpt lat="41.0339083" lon="14.509905"><ele>148.6</ele><time>2026-04-25T08:49:44.384Z</time></trkpt><trkpt lat="41.03392" lon="14.5100383"><ele>149.0</ele><time>2026-04-25T08:49:46.383Z</time></trkpt><trkpt lat="41.0339367" lon="14.51017"><ele>149.0</ele><time>2026-04-25T08:49:48.386Z</time></trkpt><trkpt lat="41.0339483" lon="14.51031"><ele>149.0</ele><time>2026-04-25T08:49:50.382Z</time></trkpt><trkpt lat="41.0339533" lon="14.5104467"><ele>149.0</ele><time>2026-04-25T08:49:52.384Z</time></trkpt><trkpt lat="41.0339667" lon="14.51058"><ele>149.0</ele><time>2026-04-25T08:49:54.381Z</time></trkpt><trkpt lat="41.0339867" lon="14.51071"><ele>149.0</ele><time>2026-04-25T08:49:56.385Z</time></trkpt><trkpt lat="41.0340067" lon="14.510845"><ele>149.4</ele><time>2026-04-25T08:49:58.385Z</time></trkpt><trkpt lat="41.0340367" lon="14.51099"><ele>149.8</ele><time>2026-04-25T08:50:00.384Z</time></trkpt><trkpt lat="41.03406" lon="14.5111233"><ele>150.2</ele><time>2026-04-25T08:50:02.384Z</time></trkpt><trkpt lat="41.0340817" lon="14.5112583"><ele>150.6</ele><time>2026-04-25T08:50:04.386Z</time></trkpt><trkpt lat="41.0341" lon="14.511395"><ele>151.0</ele><time>2026-04-25T08:50:06.384Z</time></trkpt><trkpt lat="41.0341183" lon="14.51154"><ele>151.6</ele><time>2026-04-25T08:50:08.385Z</time></trkpt><trkpt lat="41.0341417" lon="14.5116883"><ele>152.2</ele><time>2026-04-25T08:50:10.386Z</time></trkpt><trkpt lat="41.03417" lon="14.5118283"><ele>152.8</ele><time>2026-04-25T08:50:12.383Z</time></trkpt><trkpt lat="41.0341917" lon="14.5119767"><ele>153.4</ele><time>2026-04-25T08:50:14.386Z</time></trkpt><trkpt lat="41.03421" lon="14.512115"><ele>154.0</ele><time>2026-04-25T08:50:16.385Z</time></trkpt><trkpt lat="41.0342333" lon="14.512255"><ele>154.0</ele><time>2026-04-25T08:50:18.386Z</time></trkpt><trkpt lat="41.034255" lon="14.5124017"><ele>154.0</ele><time>2026-04-25T08:50:20.386Z</time></trkpt><trkpt lat="41.03428" lon="14.5125533"><ele>154.0</ele><time>2026-04-25T08:50:22.386Z</time></trkpt><trkpt lat="41.0343" lon="14.5126917"><ele>154.0</ele><time>2026-04-25T08:50:24.386Z</time></trkpt><trkpt lat="41.0343283" lon="14.5128333"><ele>154.0</ele><time>2026-04-25T08:50:26.384Z</time></trkpt><trkpt lat="41.0343533" lon="14.5129767"><ele>154.2</ele><time>2026-04-25T08:50:28.384Z</time></trkpt><trkpt lat="41.0343783" lon="14.5131233"><ele>154.4</ele><time>2026-04-25T08:50:30.382Z</time></trkpt><trkpt lat="41.0344017" lon="14.5132667"><ele>154.6</ele><time>2026-04-25T08:50:32.385Z</time></trkpt><trkpt lat="41.034425" lon="14.5134117"><ele>154.8</ele><time>2026-04-25T08:50:34.382Z</time></trkpt><trkpt lat="41.0344433" lon="14.5135567"><ele>155.0</ele><time>2026-04-25T08:50:36.384Z</time></trkpt><trkpt lat="41.0344683" lon="14.5136983"><ele>155.0</ele><time>2026-04-25T08:50:38.383Z</time></trkpt><trkpt lat="41.0344883" lon="14.51384"><ele>155.0</ele><time>2026-04-25T08:50:40.386Z</time></trkpt><trkpt lat="41.0345083" lon="14.51398"><ele>155.0</ele><time>2026-04-25T08:50:42.386Z</time></trkpt><trkpt lat="41.0345267" lon="14.5141233"><ele>155.0</ele><time>2026-04-25T08:50:44.385Z</time></trkpt><trkpt lat="41.0345467" lon="14.5142683"><ele>155.0</ele><time>2026-04-25T08:50:46.386Z</time></trkpt><trkpt lat="41.0345667" lon="14.5144117"><ele>155.0</ele><time>2026-04-25T08:50:48.385Z</time></trkpt><trkpt lat="41.03459" lon="14.5145567"><ele>155.0</ele><time>2026-04-25T08:50:50.385Z</time></trkpt><trkpt lat="41.03461" lon="14.5146967"><ele>155.0</ele><time>2026-04-25T08:50:52.384Z</time></trkpt><trkpt lat="41.034635" lon="14.5148417"><ele>155.0</ele><time>2026-04-25T08:50:54.385Z</time></trkpt><trkpt lat="41.0346633" lon="14.514985"><ele>155.0</ele><time>2026-04-25T08:50:56.385Z</time></trkpt><trkpt lat="41.034695" lon="14.5151267"><ele>155.6</ele><time>2026-04-25T08:50:58.383Z</time></trkpt><trkpt lat="41.034725" lon="14.5152567"><ele>156.2</ele><time>2026-04-25T08:51:00.383Z</time></trkpt><trkpt lat="41.034755" lon="14.5153933"><ele>156.8</ele><time>2026-04-25T08:51:02.382Z</time></trkpt><trkpt lat="41.0347817" lon="14.5155283"><ele>157.4</ele><time>2026-04-25T08:51:04.382Z</time></trkpt><trkpt lat="41.034815" lon="14.5156633"><ele>158.0</ele><time>2026-04-25T08:51:06.383Z</time></trkpt><trkpt lat="41.0348483" lon="14.5158017"><ele>158.20000000000002</ele><time>2026-04-25T08:51:08.384Z</time></trkpt><trkpt lat="41.0348833" lon="14.5159367"><ele>158.4</ele><time>2026-04-25T08:51:10.383Z</time></trkpt><trkpt lat="41.0349167" lon="14.5160667"><ele>158.60000000000002</ele><time>2026-04-25T08:51:12.384Z</time></trkpt><trkpt lat="41.0349467" lon="14.5162"><ele>158.8</ele><time>2026-04-25T08:51:14.386Z</time></trkpt><trkpt lat="41.0349883" lon="14.5163467"><ele>159.0</ele><time>2026-04-25T08:51:16.383Z</time></trkpt><trkpt lat="41.03503" lon="14.5164883"><ele>160.2</ele><time>2026-04-25T08:51:18.384Z</time></trkpt><trkpt lat="41.035085" lon="14.516635"><ele>161.4</ele><time>2026-04-25T08:51:20.382Z</time></trkpt><trkpt lat="41.0351133" lon="14.51671"><ele>162.6</ele><time>2026-04-25T08:51:21.381Z</time></trkpt><trkpt lat="41.03516" lon="14.516865"><ele>163.8</ele><time>2026-04-25T08:51:23.384Z</time></trkpt><trkpt lat="41.0351867" lon="14.5169433"><ele>165.0</ele><time>2026-04-25T08:51:24.385Z</time></trkpt><trkpt lat="41.0352317" lon="14.51709"><ele>165.0</ele><time>2026-04-25T08:51:26.385Z</time></trkpt><trkpt lat="41.0352833" lon="14.5172217"><ele>165.0</ele><time>2026-04-25T08:51:28.384Z</time></trkpt><trkpt lat="41.035335" lon="14.5173433"><ele>165.0</ele><time>2026-04-25T08:51:30.383Z</time></trkpt><trkpt lat="41.03538" lon="14.5174633"><ele>165.0</ele><time>2026-04-25T08:51:32.384Z</time></trkpt><trkpt lat="41.0354267" lon="14.5175767"><ele>165.0</ele><time>2026-04-25T08:51:34.384Z</time></trkpt><trkpt lat="41.03546" lon="14.5176917"><ele>165.0</ele><time>2026-04-25T08:51:36.382Z</time></trkpt><trkpt lat="41.0354883" lon="14.5178033"><ele>165.0</ele><time>2026-04-25T08:51:38.386Z</time></trkpt><trkpt lat="41.035515" lon="14.51791"><ele>165.0</ele><time>2026-04-25T08:51:40.384Z</time></trkpt><trkpt lat="41.035525" lon="14.518015"><ele>165.0</ele><time>2026-04-25T08:51:42.384Z</time></trkpt><trkpt lat="41.0355367" lon="14.5181233"><ele>165.0</ele><time>2026-04-25T08:51:44.385Z</time></trkpt><trkpt lat="41.0355433" lon="14.51823"><ele>165.0</ele><time>2026-04-25T08:51:46.386Z</time></trkpt><trkpt lat="41.03555" lon="14.5183383"><ele>165.16666666666666</ele><time>2026-04-25T08:51:48.384Z</time></trkpt><trkpt lat="41.035565" lon="14.518445"><ele>165.33333333333334</ele><time>2026-04-25T08:51:50.381Z</time></trkpt><trkpt lat="41.0355783" lon="14.5185517"><ele>165.5</ele><time>2026-04-25T08:51:52.381Z</time></trkpt><trkpt lat="41.0355867" lon="14.5186617"><ele>165.66666666666669</ele><time>2026-04-25T08:51:54.381Z</time></trkpt><trkpt lat="41.0355933" lon="14.51878"><ele>165.83333333333334</ele><time>2026-04-25T08:51:56.383Z</time></trkpt><trkpt lat="41.0355983" lon="14.5188917"><ele>166.0</ele><time>2026-04-25T08:51:58.381Z</time></trkpt><trkpt lat="41.0356067" lon="14.51901"><ele>166.5</ele><time>2026-04-25T08:52:00.385Z</time></trkpt><trkpt lat="41.0356167" lon="14.5191333"><ele>167.0</ele><time>2026-04-25T08:52:02.383Z</time></trkpt><trkpt lat="41.0356233" lon="14.5192517"><ele>167.5</ele><time>2026-04-25T08:52:04.383Z</time></trkpt><trkpt lat="41.03563" lon="14.5193667"><ele>168.0</ele><time>2026-04-25T08:52:06.384Z</time></trkpt><trkpt lat="41.035625" lon="14.5194817"><ele>168.5</ele><time>2026-04-25T08:52:08.385Z</time></trkpt><trkpt lat="41.0356217" lon="14.5196"><ele>169.0</ele><time>2026-04-25T08:52:10.386Z</time></trkpt><trkpt lat="41.0356183" lon="14.5197083"><ele>169.66666666666669</ele><time>2026-04-25T08:52:12.383Z</time></trkpt><trkpt lat="41.0356083" lon="14.5198167"><ele>170.33333333333334</ele><time>2026-04-25T08:52:14.387Z</time></trkpt><trkpt lat="41.0356" lon="14.5199183"><ele>171.0</ele><time>2026-04-25T08:52:16.385Z</time></trkpt><trkpt lat="41.035585" lon="14.5200233"><ele>171.66666666666666</ele><time>2026-04-25T08:52:18.384Z</time></trkpt><trkpt lat="41.0355717" lon="14.5201367"><ele>172.33333333333331</ele><time>2026-04-25T08:52:20.384Z</time></trkpt><trkpt lat="41.035555" lon="14.52025"><ele>173.0</ele><time>2026-04-25T08:52:22.384Z</time></trkpt><trkpt lat="41.0355367" lon="14.5203717"><ele>173.60000000000002</ele><time>2026-04-25T08:52:24.382Z</time></trkpt><trkpt lat="41.0355233" lon="14.520495"><ele>174.20000000000002</ele><time>2026-04-25T08:52:26.384Z</time></trkpt><trkpt lat="41.035505" lon="14.520615"><ele>174.8</ele><time>2026-04-25T08:52:28.383Z</time></trkpt><trkpt lat="41.0354867" lon="14.5207333"><ele>175.4</ele><time>2026-04-25T08:52:30.385Z</time></trkpt><trkpt lat="41.0354633" lon="14.5208617"><ele>176.0</ele><time>2026-04-25T08:52:32.384Z</time></trkpt><trkpt lat="41.03545" lon="14.5209867"><ele>176.0</ele><time>2026-04-25T08:52:34.383Z</time></trkpt><trkpt lat="41.0354467" lon="14.521115"><ele>176.0</ele><time>2026-04-25T08:52:36.385Z</time></trkpt><trkpt lat="41.0354433" lon="14.5212517"><ele>176.0</ele><time>2026-04-25T08:52:38.385Z</time></trkpt><trkpt lat="41.03544" lon="14.5213933"><ele>176.0</ele><time>2026-04-25T08:52:40.383Z</time></trkpt><trkpt lat="41.035445" lon="14.521525"><ele>176.0</ele><time>2026-04-25T08:52:42.385Z</time></trkpt><trkpt lat="41.03545" lon="14.5216583"><ele>176.4</ele><time>2026-04-25T08:52:44.385Z</time></trkpt><trkpt lat="41.035465" lon="14.5217917"><ele>176.8</ele><time>2026-04-25T08:52:46.383Z</time></trkpt><trkpt lat="41.035485" lon="14.521925"><ele>177.20000000000002</ele><time>2026-04-25T08:52:48.385Z</time></trkpt><trkpt lat="41.0355033" lon="14.5220583"><ele>177.60000000000002</ele><time>2026-04-25T08:52:50.384Z</time></trkpt><trkpt lat="41.035525" lon="14.5221917"><ele>178.0</ele><time>2026-04-25T08:52:52.383Z</time></trkpt><trkpt lat="41.03555" lon="14.52232"><ele>178.2</ele><time>2026-04-25T08:52:54.385Z</time></trkpt><trkpt lat="41.03557" lon="14.522445"><ele>178.4</ele><time>2026-04-25T08:52:56.384Z</time></trkpt><trkpt lat="41.035595" lon="14.5225717"><ele>178.6</ele><time>2026-04-25T08:52:58.383Z</time></trkpt><trkpt lat="41.0356183" lon="14.5226917"><ele>178.79999999999998</ele><time>2026-04-25T08:53:00.384Z</time></trkpt><trkpt lat="41.03564" lon="14.522815"><ele>179.0</ele><time>2026-04-25T08:53:02.385Z</time></trkpt><trkpt lat="41.0356617" lon="14.522935"><ele>179.16666666666666</ele><time>2026-04-25T08:53:04.384Z</time></trkpt><trkpt lat="41.0356783" lon="14.52305"><ele>179.33333333333331</ele><time>2026-04-25T08:53:06.384Z</time></trkpt><trkpt lat="41.0356983" lon="14.5231717"><ele>179.5</ele><time>2026-04-25T08:53:08.384Z</time></trkpt><trkpt lat="41.0357183" lon="14.5232933"><ele>179.66666666666666</ele><time>2026-04-25T08:53:10.383Z</time></trkpt><trkpt lat="41.0357317" lon="14.5234017"><ele>179.83333333333334</ele><time>2026-04-25T08:53:12.385Z</time></trkpt><trkpt lat="41.035755" lon="14.52351"><ele>180.0</ele><time>2026-04-25T08:53:14.382Z</time></trkpt><trkpt lat="41.0357817" lon="14.5236183"><ele>180.0</ele><time>2026-04-25T08:53:16.384Z</time></trkpt><trkpt lat="41.0358017" lon="14.52372"><ele>180.0</ele><time>2026-04-25T08:53:18.386Z</time></trkpt><trkpt lat="41.0358217" lon="14.5238233"><ele>180.0</ele><time>2026-04-25T08:53:20.385Z</time></trkpt><trkpt lat="41.03584" lon="14.52393"><ele>180.0</ele><time>2026-04-25T08:53:22.383Z</time></trkpt><trkpt lat="41.0358533" lon="14.5240283"><ele>180.0</ele><time>2026-04-25T08:53:24.385Z</time></trkpt><trkpt lat="41.0358533" lon="14.5241333"><ele>180.0</ele><time>2026-04-25T08:53:26.385Z</time></trkpt><trkpt lat="41.0358683" lon="14.5242383"><ele>181.66666666666666</ele><time>2026-04-25T08:53:28.384Z</time></trkpt><trkpt lat="41.035895" lon="14.524345"><ele>183.33333333333334</ele><time>2026-04-25T08:53:30.385Z</time></trkpt><trkpt lat="41.0359167" lon="14.5244567"><ele>185.0</ele><time>2026-04-25T08:53:32.383Z</time></trkpt><trkpt lat="41.0359317" lon="14.52456"><ele>186.66666666666669</ele><time>2026-04-25T08:53:34.384Z</time></trkpt><trkpt lat="41.03595" lon="14.5246633"><ele>188.33333333333334</ele><time>2026-04-25T08:53:36.385Z</time></trkpt><trkpt lat="41.03597" lon="14.52477"><ele>190.0</ele><time>2026-04-25T08:53:38.385Z</time></trkpt><trkpt lat="41.0359867" lon="14.5248817"><ele>190.33333333333334</ele><time>2026-04-25T08:53:40.383Z</time></trkpt><trkpt lat="41.0360083" lon="14.5249867"><ele>190.66666666666669</ele><time>2026-04-25T08:53:42.385Z</time></trkpt><trkpt lat="41.036025" lon="14.5250933"><ele>191.0</ele><time>2026-04-25T08:53:44.384Z</time></trkpt><trkpt lat="41.03604" lon="14.5252033"><ele>191.33333333333334</ele><time>2026-04-25T08:53:46.386Z</time></trkpt><trkpt lat="41.03606" lon="14.5253067"><ele>191.66666666666666</ele><time>2026-04-25T08:53:48.385Z</time></trkpt><trkpt lat="41.036075" lon="14.5254017"><ele>192.0</ele><time>2026-04-25T08:53:50.385Z</time></trkpt><trkpt lat="41.0360817" lon="14.5255"><ele>192.33333333333334</ele><time>2026-04-25T08:53:52.385Z</time></trkpt><trkpt lat="41.0360867" lon="14.5255983"><ele>192.66666666666669</ele><time>2026-04-25T08:53:54.383Z</time></trkpt><trkpt lat="41.0360867" lon="14.525705"><ele>193.0</ele><time>2026-04-25T08:53:56.384Z</time></trkpt><trkpt lat="41.036085" lon="14.52581"><ele>193.33333333333334</ele><time>2026-04-25T08:53:58.384Z</time></trkpt><trkpt lat="41.036085" lon="14.5259117"><ele>193.66666666666669</ele><time>2026-04-25T08:54:00.384Z</time></trkpt><trkpt lat="41.0360817" lon="14.5260067"><ele>194.0</ele><time>2026-04-25T08:54:02.383Z</time></trkpt><trkpt lat="41.0360833" lon="14.52611"><ele>194.0</ele><time>2026-04-25T08:54:04.382Z</time></trkpt><trkpt lat="41.0360767" lon="14.5262083"><ele>194.0</ele><time>2026-04-25T08:54:06.386Z</time></trkpt><trkpt lat="41.0360683" lon="14.52631"><ele>194.0</ele><time>2026-04-25T08:54:08.385Z</time></trkpt><trkpt lat="41.0360667" lon="14.5264117"><ele>194.0</ele><time>2026-04-25T08:54:10.383Z</time></trkpt><trkpt lat="41.03606" lon="14.5265033"><ele>194.0</ele><time>2026-04-25T08:54:12.384Z</time></trkpt><trkpt lat="41.0360533" lon="14.52659"><ele>194.0</ele><time>2026-04-25T08:54:14.385Z</time></trkpt><trkpt lat="41.0360533" lon="14.5266817"><ele>194.0</ele><time>2026-04-25T08:54:16.385Z</time></trkpt><trkpt lat="41.036055" lon="14.5267783"><ele>194.50000000000003</ele><time>2026-04-25T08:54:18.385Z</time></trkpt><trkpt lat="41.0360533" lon="14.52688"><ele>195.0</ele><time>2026-04-25T08:54:20.384Z</time></trkpt><trkpt lat="41.0360533" lon="14.5269783"><ele>195.5</ele><time>2026-04-25T08:54:22.383Z</time></trkpt><trkpt lat="41.0360583" lon="14.52708"><ele>196.0</ele><time>2026-04-25T08:54:24.384Z</time></trkpt><trkpt lat="41.03606" lon="14.5271867"><ele>196.50000000000003</ele><time>2026-04-25T08:54:26.385Z</time></trkpt><trkpt lat="41.036055" lon="14.5272917"><ele>197.0</ele><time>2026-04-25T08:54:28.382Z</time></trkpt><trkpt lat="41.0360533" lon="14.527395"><ele>197.42857142857144</ele><time>2026-04-25T08:54:30.385Z</time></trkpt><trkpt lat="41.0360583" lon="14.5274917"><ele>197.85714285714286</ele><time>2026-04-25T08:54:32.384Z</time></trkpt><trkpt lat="41.036055" lon="14.5275917"><ele>198.28571428571428</ele><time>2026-04-25T08:54:34.383Z</time></trkpt><trkpt lat="41.0360483" lon="14.5276917"><ele>198.71428571428572</ele><time>2026-04-25T08:54:36.384Z</time></trkpt><trkpt lat="41.0360533" lon="14.5277867"><ele>199.14285714285714</ele><time>2026-04-25T08:54:38.384Z</time></trkpt><trkpt lat="41.03606" lon="14.527885"><ele>199.57142857142858</ele><time>2026-04-25T08:54:40.383Z</time></trkpt><trkpt lat="41.0360583" lon="14.527985"><ele>200.0</ele><time>2026-04-25T08:54:42.383Z</time></trkpt><trkpt lat="41.0360517" lon="14.528085"><ele>200.33333333333334</ele><time>2026-04-25T08:54:44.384Z</time></trkpt><trkpt lat="41.0360417" lon="14.5281867"><ele>200.66666666666669</ele><time>2026-04-25T08:54:46.384Z</time></trkpt><trkpt lat="41.0360383" lon="14.52829"><ele>201.0</ele><time>2026-04-25T08:54:48.385Z</time></trkpt><trkpt lat="41.036025" lon="14.5283933"><ele>201.33333333333331</ele><time>2026-04-25T08:54:50.384Z</time></trkpt><trkpt lat="41.0360217" lon="14.528495"><ele>201.66666666666666</ele><time>2026-04-25T08:54:52.383Z</time></trkpt><trkpt lat="41.0360183" lon="14.5286"><ele>202.0</ele><time>2026-04-25T08:54:54.385Z</time></trkpt><trkpt lat="41.036015" lon="14.5287117"><ele>202.28571428571428</ele><time>2026-04-25T08:54:56.384Z</time></trkpt><trkpt lat="41.0360117" lon="14.528815"><ele>202.57142857142856</ele><time>2026-04-25T08:54:58.385Z</time></trkpt><trkpt lat="41.0360083" lon="14.5289217"><ele>202.85714285714286</ele><time>2026-04-25T08:55:00.384Z</time></trkpt><trkpt lat="41.03601" lon="14.5290217"><ele>203.14285714285714</ele><time>2026-04-25T08:55:02.384Z</time></trkpt><trkpt lat="41.0360183" lon="14.529115"><ele>203.42857142857144</ele><time>2026-04-25T08:55:04.384Z</time></trkpt><trkpt lat="41.0360233" lon="14.529205"><ele>203.71428571428572</ele><time>2026-04-25T08:55:06.385Z</time></trkpt><trkpt lat="41.03602" lon="14.5293017"><ele>204.0</ele><time>2026-04-25T08:55:08.384Z</time></trkpt><trkpt lat="41.036015" lon="14.5294033"><ele>204.0</ele><time>2026-04-25T08:55:10.385Z</time></trkpt><trkpt lat="41.0360067" lon="14.529505"><ele>204.0</ele><time>2026-04-25T08:55:12.384Z</time></trkpt><trkpt lat="41.0359983" lon="14.5296033"><ele>204.0</ele><time>2026-04-25T08:55:14.386Z</time></trkpt><trkpt lat="41.03599" lon="14.529695"><ele>204.0</ele><time>2026-04-25T08:55:16.386Z</time></trkpt><trkpt lat="41.0359833" lon="14.52979"><ele>204.0</ele><time>2026-04-25T08:55:18.385Z</time></trkpt><trkpt lat="41.0359767" lon="14.52989"><ele>204.0</ele><time>2026-04-25T08:55:20.384Z</time></trkpt><trkpt lat="41.03597" lon="14.5299933"><ele>204.0</ele><time>2026-04-25T08:55:22.385Z</time></trkpt><trkpt lat="41.03597" lon="14.530095"><ele>204.57142857142858</ele><time>2026-04-25T08:55:24.385Z</time></trkpt><trkpt lat="41.0359767" lon="14.530195"><ele>205.14285714285717</ele><time>2026-04-25T08:55:26.386Z</time></trkpt><trkpt lat="41.035975" lon="14.530295"><ele>205.71428571428572</ele><time>2026-04-25T08:55:28.383Z</time></trkpt><trkpt lat="41.0359683" lon="14.5303917"><ele>206.28571428571428</ele><time>2026-04-25T08:55:30.384Z</time></trkpt><trkpt lat="41.0359617" lon="14.5304883"><ele>206.85714285714286</ele><time>2026-04-25T08:55:32.387Z</time></trkpt><trkpt lat="41.0359583" lon="14.5305833"><ele>207.42857142857142</ele><time>2026-04-25T08:55:34.384Z</time></trkpt><trkpt lat="41.03596" lon="14.5306783"><ele>208.0</ele><time>2026-04-25T08:55:36.385Z</time></trkpt><trkpt lat="41.0359617" lon="14.5307733"><ele>208.42857142857142</ele><time>2026-04-25T08:55:38.384Z</time></trkpt><trkpt lat="41.03595" lon="14.5308683"><ele>208.85714285714286</ele><time>2026-04-25T08:55:40.386Z</time></trkpt><trkpt lat="41.0359367" lon="14.5309717"><ele>209.28571428571428</ele><time>2026-04-25T08:55:42.385Z</time></trkpt><trkpt lat="41.0359283" lon="14.5310717"><ele>209.71428571428572</ele><time>2026-04-25T08:55:44.383Z</time></trkpt><trkpt lat="41.03593" lon="14.53117"><ele>210.14285714285717</ele><time>2026-04-25T08:55:46.384Z</time></trkpt><trkpt lat="41.0359317" lon="14.53127"><ele>210.57142857142858</ele><time>2026-04-25T08:55:48.384Z</time></trkpt><trkpt lat="41.0359333" lon="14.531365"><ele>211.0</ele><time>2026-04-25T08:55:50.384Z</time></trkpt><trkpt lat="41.0359367" lon="14.5314633"><ele>211.57142857142858</ele><time>2026-04-25T08:55:52.383Z</time></trkpt><trkpt lat="41.0359467" lon="14.5315617"><ele>212.14285714285717</ele><time>2026-04-25T08:55:54.383Z</time></trkpt><trkpt lat="41.03595" lon="14.5316617"><ele>212.71428571428572</ele><time>2026-04-25T08:55:56.385Z</time></trkpt><trkpt lat="41.0359533" lon="14.5317617"><ele>213.28571428571428</ele><time>2026-04-25T08:55:58.385Z</time></trkpt><trkpt lat="41.0359533" lon="14.5318617"><ele>213.85714285714286</ele><time>2026-04-25T08:56:00.384Z</time></trkpt><trkpt lat="41.0359567" lon="14.5319583"><ele>214.42857142857142</ele><time>2026-04-25T08:56:02.383Z</time></trkpt><trkpt lat="41.035965" lon="14.5320483"><ele>215.0</ele><time>2026-04-25T08:56:04.385Z</time></trkpt><trkpt lat="41.03597" lon="14.5321367"><ele>215.42857142857142</ele><time>2026-04-25T08:56:06.383Z</time></trkpt><trkpt lat="41.035975" lon="14.532235"><ele>215.85714285714286</ele><time>2026-04-25T08:56:08.383Z</time></trkpt><trkpt lat="41.0359717" lon="14.5323267"><ele>216.28571428571428</ele><time>2026-04-25T08:56:10.383Z</time></trkpt><trkpt lat="41.0359717" lon="14.5324183"><ele>216.71428571428572</ele><time>2026-04-25T08:56:12.386Z</time></trkpt><trkpt lat="41.035975" lon="14.532525"><ele>217.14285714285717</ele><time>2026-04-25T08:56:14.385Z</time></trkpt><trkpt lat="41.0359833" lon="14.5326233"><ele>217.57142857142858</ele><time>2026-04-25T08:56:16.386Z</time></trkpt><trkpt lat="41.0359883" lon="14.532725"><ele>218.0</ele><time>2026-04-25T08:56:18.385Z</time></trkpt><trkpt lat="41.0359917" lon="14.5328217"><ele>218.14285714285714</ele><time>2026-04-25T08:56:20.385Z</time></trkpt><trkpt lat="41.03599" lon="14.5329217"><ele>218.28571428571428</ele><time>2026-04-25T08:56:22.385Z</time></trkpt><trkpt lat="41.035985" lon="14.5330183"><ele>218.42857142857144</ele><time>2026-04-25T08:56:24.385Z</time></trkpt><trkpt lat="41.0359867" lon="14.5331083"><ele>218.57142857142856</ele><time>2026-04-25T08:56:26.384Z</time></trkpt><trkpt lat="41.0359967" lon="14.5332083"><ele>218.7142857142857</ele><time>2026-04-25T08:56:28.384Z</time></trkpt><trkpt lat="41.0360117" lon="14.5333117"><ele>218.85714285714286</ele><time>2026-04-25T08:56:30.385Z</time></trkpt><trkpt lat="41.036025" lon="14.5334083"><ele>219.0</ele><time>2026-04-25T08:56:32.385Z</time></trkpt><trkpt lat="41.036035" lon="14.5335033"><ele>219.0</ele><time>2026-04-25T08:56:34.384Z</time></trkpt><trkpt lat="41.0360367" lon="14.533605"><ele>219.0</ele><time>2026-04-25T08:56:36.384Z</time></trkpt><trkpt lat="41.0360433" lon="14.5337033"><ele>219.0</ele><time>2026-04-25T08:56:38.386Z</time></trkpt><trkpt lat="41.0360533" lon="14.5338"><ele>219.0</ele><time>2026-04-25T08:56:40.384Z</time></trkpt><trkpt lat="41.03606" lon="14.5338967"><ele>219.0</ele><time>2026-04-25T08:56:42.384Z</time></trkpt><trkpt lat="41.03607" lon="14.5339933"><ele>219.0</ele><time>2026-04-25T08:56:44.384Z</time></trkpt><trkpt lat="41.0360817" lon="14.5340883"><ele>219.0</ele><time>2026-04-25T08:56:46.382Z</time></trkpt><trkpt lat="41.036085" lon="14.5341883"><ele>219.33333333333334</ele><time>2026-04-25T08:56:48.385Z</time></trkpt><trkpt lat="41.0360817" lon="14.5342783"><ele>219.66666666666669</ele><time>2026-04-25T08:56:50.385Z</time></trkpt><trkpt lat="41.0360833" lon="14.5343783"><ele>220.0</ele><time>2026-04-25T08:56:52.383Z</time></trkpt><trkpt lat="41.0360833" lon="14.5344767"><ele>220.33333333333334</ele><time>2026-04-25T08:56:54.385Z</time></trkpt><trkpt lat="41.0360767" lon="14.53458"><ele>220.66666666666669</ele><time>2026-04-25T08:56:56.386Z</time></trkpt><trkpt lat="41.0360833" lon="14.5346783"><ele>221.0</ele><time>2026-04-25T08:56:58.385Z</time></trkpt><trkpt lat="41.0360783" lon="14.534785"><ele>221.66666666666669</ele><time>2026-04-25T08:57:00.384Z</time></trkpt><trkpt lat="41.0360783" lon="14.5348917"><ele>222.33333333333334</ele><time>2026-04-25T08:57:02.385Z</time></trkpt><trkpt lat="41.0360783" lon="14.535"><ele>223.0</ele><time>2026-04-25T08:57:04.382Z</time></trkpt><trkpt lat="41.0360817" lon="14.5351"><ele>223.66666666666669</ele><time>2026-04-25T08:57:06.383Z</time></trkpt><trkpt lat="41.0360833" lon="14.535205"><ele>224.33333333333334</ele><time>2026-04-25T08:57:08.383Z</time></trkpt><trkpt lat="41.0360933" lon="14.5353"><ele>225.0</ele><time>2026-04-25T08:57:10.383Z</time></trkpt><trkpt lat="41.036105" lon="14.5354033"><ele>225.42857142857144</ele><time>2026-04-25T08:57:12.385Z</time></trkpt><trkpt lat="41.03611" lon="14.5355"><ele>225.85714285714286</ele><time>2026-04-25T08:57:14.385Z</time></trkpt><trkpt lat="41.0361133" lon="14.5355967"><ele>226.28571428571428</ele><time>2026-04-25T08:57:16.384Z</time></trkpt><trkpt lat="41.0361183" lon="14.5356817"><ele>226.71428571428572</ele><time>2026-04-25T08:57:18.384Z</time></trkpt><trkpt lat="41.0361267" lon="14.535805"><ele>227.1428571428571</ele><time>2026-04-25T08:57:21.384Z</time></trkpt><trkpt lat="41.036125" lon="14.5358983"><ele>227.57142857142856</ele><time>2026-04-25T08:57:23.384Z</time></trkpt><trkpt lat="41.0361283" lon="14.535995"><ele>228.0</ele><time>2026-04-25T08:57:25.384Z</time></trkpt><trkpt lat="41.0361383" lon="14.536085"><ele>228.0</ele><time>2026-04-25T08:57:27.385Z</time></trkpt><trkpt lat="41.03615" lon="14.5361767"><ele>228.0</ele><time>2026-04-25T08:57:29.385Z</time></trkpt><trkpt lat="41.0361483" lon="14.5362733"><ele>228.0</ele><time>2026-04-25T08:57:31.385Z</time></trkpt><trkpt lat="41.0361467" lon="14.5363733"><ele>228.0</ele><time>2026-04-25T08:57:33.385Z</time></trkpt><trkpt lat="41.036125" lon="14.5364783"><ele>228.0</ele><time>2026-04-25T08:57:35.383Z</time></trkpt><trkpt lat="41.03612" lon="14.536585"><ele>228.0</ele><time>2026-04-25T08:57:37.385Z</time></trkpt><trkpt lat="41.0361167" lon="14.53669"><ele>228.85714285714283</ele><time>2026-04-25T08:57:39.385Z</time></trkpt><trkpt lat="41.0361067" lon="14.536785"><ele>229.7142857142857</ele><time>2026-04-25T08:57:41.385Z</time></trkpt><trkpt lat="41.0360933" lon="14.5368783"><ele>230.57142857142856</ele><time>2026-04-25T08:57:43.384Z</time></trkpt><trkpt lat="41.0360733" lon="14.5369717"><ele>231.42857142857144</ele><time>2026-04-25T08:57:45.383Z</time></trkpt><trkpt lat="41.0360467" lon="14.5370617"><ele>232.2857142857143</ele><time>2026-04-25T08:57:47.383Z</time></trkpt><trkpt lat="41.0360183" lon="14.5371483"><ele>233.14285714285717</ele><time>2026-04-25T08:57:49.384Z</time></trkpt><trkpt lat="41.0359833" lon="14.53723"><ele>234.0</ele><time>2026-04-25T08:57:51.384Z</time></trkpt><trkpt lat="41.0359317" lon="14.537335"><ele>234.42857142857144</ele><time>2026-04-25T08:57:54.385Z</time></trkpt><trkpt lat="41.03589" lon="14.5374133"><ele>234.8571428571429</ele><time>2026-04-25T08:57:56.385Z</time></trkpt><trkpt lat="41.0358467" lon="14.5374967"><ele>235.28571428571428</ele><time>2026-04-25T08:57:58.384Z</time></trkpt><trkpt lat="41.035795" lon="14.537575"><ele>235.71428571428572</ele><time>2026-04-25T08:58:00.384Z</time></trkpt><trkpt lat="41.0357483" lon="14.5376567"><ele>236.14285714285714</ele><time>2026-04-25T08:58:02.385Z</time></trkpt><trkpt lat="41.0357067" lon="14.5377267"><ele>236.57142857142856</ele><time>2026-04-25T08:58:04.384Z</time></trkpt><trkpt lat="41.03567" lon="14.5377967"><ele>236.99999999999997</ele><time>2026-04-25T08:58:06.384Z</time></trkpt><trkpt lat="41.035625" lon="14.5378717"><ele>236.71428571428567</ele><time>2026-04-25T08:58:08.385Z</time></trkpt><trkpt lat="41.03558" lon="14.5379517"><ele>236.42857142857142</ele><time>2026-04-25T08:58:10.384Z</time></trkpt><trkpt lat="41.0355383" lon="14.5380217"><ele>236.1428571428571</ele><time>2026-04-25T08:58:12.386Z</time></trkpt><trkpt lat="41.0354917" lon="14.5380967"><ele>235.85714285714283</ele><time>2026-04-25T08:58:14.383Z</time></trkpt><trkpt lat="41.0354483" lon="14.5381667"><ele>235.57142857142856</ele><time>2026-04-25T08:58:16.385Z</time></trkpt><trkpt lat="41.0353967" lon="14.5382733"><ele>235.28571428571428</ele><time>2026-04-25T08:58:19.383Z</time></trkpt><trkpt lat="41.0353567" lon="14.538345"><ele>235.0</ele><time>2026-04-25T08:58:21.385Z</time></trkpt><trkpt lat="41.0353133" lon="14.5384567"><ele>234.99999999999997</ele><time>2026-04-25T08:58:24.385Z</time></trkpt><trkpt lat="41.0352867" lon="14.5385433"><ele>235.0</ele><time>2026-04-25T08:58:26.384Z</time></trkpt><trkpt lat="41.03526" lon="14.538645"><ele>235.0</ele><time>2026-04-25T08:58:28.384Z</time></trkpt><trkpt lat="41.0352383" lon="14.5387433"><ele>235.0</ele><time>2026-04-25T08:58:30.386Z</time></trkpt><trkpt lat="41.0352283" lon="14.5388483"><ele>234.99999999999997</ele><time>2026-04-25T08:58:32.387Z</time></trkpt><trkpt lat="41.0352117" lon="14.5389483"><ele>235.0</ele><time>2026-04-25T08:58:34.385Z</time></trkpt><trkpt lat="41.0351933" lon="14.5390433"><ele>236.33333333333331</ele><time>2026-04-25T08:58:36.384Z</time></trkpt><trkpt lat="41.0351733" lon="14.5391367"><ele>237.66666666666666</ele><time>2026-04-25T08:58:38.385Z</time></trkpt><trkpt lat="41.0351633" lon="14.5392317"><ele>239.0</ele><time>2026-04-25T08:58:40.382Z</time></trkpt><trkpt lat="41.035145" lon="14.539325"><ele>240.33333333333331</ele><time>2026-04-25T08:58:42.385Z</time></trkpt><trkpt lat="41.0351067" lon="14.5394217"><ele>241.66666666666666</ele><time>2026-04-25T08:58:44.384Z</time></trkpt><trkpt lat="41.0350817" lon="14.539515"><ele>243.0</ele><time>2026-04-25T08:58:46.384Z</time></trkpt><trkpt lat="41.03507" lon="14.5396167"><ele>243.83333333333334</ele><time>2026-04-25T08:58:48.385Z</time></trkpt><trkpt lat="41.0350517" lon="14.5397217"><ele>244.66666666666669</ele><time>2026-04-25T08:58:50.386Z</time></trkpt><trkpt lat="41.035045" lon="14.5398317"><ele>245.5</ele><time>2026-04-25T08:58:52.384Z</time></trkpt><trkpt lat="41.0350383" lon="14.5399367"><ele>246.33333333333334</ele><time>2026-04-25T08:58:54.387Z</time></trkpt><trkpt lat="41.0350417" lon="14.5400433"><ele>247.16666666666669</ele><time>2026-04-25T08:58:56.384Z</time></trkpt><trkpt lat="41.0350583" lon="14.54015"><ele>248.0</ele><time>2026-04-25T08:58:58.384Z</time></trkpt><trkpt lat="41.0350767" lon="14.540255"><ele>248.00000000000003</ele><time>2026-04-25T08:59:00.386Z</time></trkpt><trkpt lat="41.035095" lon="14.5403783"><ele>248.0</ele><time>2026-04-25T08:59:02.385Z</time></trkpt><trkpt lat="41.035105" lon="14.54049"><ele>248.0</ele><time>2026-04-25T08:59:04.384Z</time></trkpt><trkpt lat="41.035115" lon="14.5405867"><ele>248.0</ele><time>2026-04-25T08:59:06.385Z</time></trkpt><trkpt lat="41.035135" lon="14.540685"><ele>248.00000000000003</ele><time>2026-04-25T08:59:08.385Z</time></trkpt><trkpt lat="41.0351467" lon="14.54078"><ele>248.0</ele><time>2026-04-25T08:59:10.383Z</time></trkpt><trkpt lat="41.0351583" lon="14.5408767"><ele>248.33333333333334</ele><time>2026-04-25T08:59:12.384Z</time></trkpt><trkpt lat="41.0351667" lon="14.5409817"><ele>248.66666666666669</ele><time>2026-04-25T08:59:14.382Z</time></trkpt><trkpt lat="41.0351533" lon="14.54109"><ele>249.0</ele><time>2026-04-25T08:59:16.381Z</time></trkpt><trkpt lat="41.0351383" lon="14.5411933"><ele>249.33333333333331</ele><time>2026-04-25T08:59:18.383Z</time></trkpt><trkpt lat="41.0351267" lon="14.5412983"><ele>249.66666666666666</ele><time>2026-04-25T08:59:20.383Z</time></trkpt><trkpt lat="41.0351167" lon="14.5414017"><ele>250.0</ele><time>2026-04-25T08:59:22.383Z</time></trkpt><trkpt lat="41.035105" lon="14.5415"><ele>250.83333333333331</ele><time>2026-04-25T08:59:24.384Z</time></trkpt><trkpt lat="41.0350933" lon="14.5415967"><ele>251.66666666666666</ele><time>2026-04-25T08:59:26.384Z</time></trkpt><trkpt lat="41.0350867" lon="14.5416933"><ele>252.5</ele><time>2026-04-25T08:59:28.382Z</time></trkpt><trkpt lat="41.0350733" lon="14.54179"><ele>253.33333333333331</ele><time>2026-04-25T08:59:30.386Z</time></trkpt><trkpt lat="41.0350717" lon="14.5418917"><ele>254.16666666666666</ele><time>2026-04-25T08:59:32.383Z</time></trkpt><trkpt lat="41.0350783" lon="14.54199"><ele>255.0</ele><time>2026-04-25T08:59:34.383Z</time></trkpt><trkpt lat="41.035095" lon="14.54209"><ele>255.83333333333334</ele><time>2026-04-25T08:59:36.384Z</time></trkpt><trkpt lat="41.0351" lon="14.5421883"><ele>256.6666666666667</ele><time>2026-04-25T08:59:38.383Z</time></trkpt><trkpt lat="41.0351167" lon="14.5422783"><ele>257.5</ele><time>2026-04-25T08:59:40.382Z</time></trkpt><trkpt lat="41.03513" lon="14.5423683"><ele>258.33333333333337</ele><time>2026-04-25T08:59:42.383Z</time></trkpt><trkpt lat="41.03514" lon="14.54249"><ele>259.1666666666667</ele><time>2026-04-25T08:59:45.383Z</time></trkpt><trkpt lat="41.035145" lon="14.542575"><ele>260.0</ele><time>2026-04-25T08:59:47.381Z</time></trkpt><trkpt lat="41.0351617" lon="14.5426983"><ele>260.0</ele><time>2026-04-25T08:59:50.382Z</time></trkpt><trkpt lat="41.0351783" lon="14.5427817"><ele>260.0</ele><time>2026-04-25T08:59:52.383Z</time></trkpt><trkpt lat="41.0351867" lon="14.5428667"><ele>260.0</ele><time>2026-04-25T08:59:54.384Z</time></trkpt><trkpt lat="41.0352033" lon="14.5429517"><ele>260.0</ele><time>2026-04-25T08:59:56.384Z</time></trkpt><trkpt lat="41.0352117" lon="14.5430417"><ele>260.0</ele><time>2026-04-25T08:59:58.382Z</time></trkpt><trkpt lat="41.0352167" lon="14.5431717"><ele>260.0</ele><time>2026-04-25T09:00:01.381Z</time></trkpt><trkpt lat="41.0352317" lon="14.54329"><ele>261.33333333333337</ele><time>2026-04-25T09:00:04.382Z</time></trkpt><trkpt lat="41.0352533" lon="14.5434083"><ele>262.6666666666667</ele><time>2026-04-25T09:00:07.382Z</time></trkpt><trkpt lat="41.0352733" lon="14.5435267"><ele>264.0</ele><time>2026-04-25T09:00:10.382Z</time></trkpt><trkpt lat="41.03529" lon="14.5436183"><ele>265.3333333333333</ele><time>2026-04-25T09:00:12.383Z</time></trkpt><trkpt lat="41.0352933" lon="14.5437083"><ele>266.66666666666663</ele><time>2026-04-25T09:00:14.383Z</time></trkpt><trkpt lat="41.0353067" lon="14.543795"><ele>268.0</ele><time>2026-04-25T09:00:16.386Z</time></trkpt><trkpt lat="41.035315" lon="14.5438833"><ele>269.2857142857143</ele><time>2026-04-25T09:00:18.384Z</time></trkpt><trkpt lat="41.0353233" lon="14.5439667"><ele>270.57142857142856</ele><time>2026-04-25T09:00:20.383Z</time></trkpt><trkpt lat="41.0353283" lon="14.5440567"><ele>271.85714285714283</ele><time>2026-04-25T09:00:22.383Z</time></trkpt><trkpt lat="41.035335" lon="14.544145"><ele>273.1428571428571</ele><time>2026-04-25T09:00:24.384Z</time></trkpt><trkpt lat="41.0353383" lon="14.544235"><ele>274.4285714285714</ele><time>2026-04-25T09:00:26.385Z</time></trkpt><trkpt lat="41.035345" lon="14.5443283"><ele>275.7142857142857</ele><time>2026-04-25T09:00:28.382Z</time></trkpt><trkpt lat="41.0353517" lon="14.5444117"><ele>277.0</ele><time>2026-04-25T09:00:30.383Z</time></trkpt><trkpt lat="41.0353583" lon="14.5444983"><ele>277.57142857142856</ele><time>2026-04-25T09:00:32.383Z</time></trkpt><trkpt lat="41.0353733" lon="14.54458"><ele>278.1428571428571</ele><time>2026-04-25T09:00:34.383Z</time></trkpt><trkpt lat="41.0353767" lon="14.5447083"><ele>278.7142857142857</ele><time>2026-04-25T09:00:37.382Z</time></trkpt><trkpt lat="41.0353667" lon="14.5447917"><ele>279.2857142857143</ele><time>2026-04-25T09:00:39.384Z</time></trkpt><trkpt lat="41.03537" lon="14.5448833"><ele>279.8571428571429</ele><time>2026-04-25T09:00:41.384Z</time></trkpt><trkpt lat="41.0353783" lon="14.5449733"><ele>280.42857142857144</ele><time>2026-04-25T09:00:43.382Z</time></trkpt><trkpt lat="41.0354033" lon="14.5450567"><ele>281.0</ele><time>2026-04-25T09:00:45.384Z</time></trkpt><trkpt lat="41.0354333" lon="14.5451717"><ele>281.00000000000006</ele><time>2026-04-25T09:00:48.384Z</time></trkpt><trkpt lat="41.0354633" lon="14.5452567"><ele>281.0</ele><time>2026-04-25T09:00:50.383Z</time></trkpt><trkpt lat="41.0354983" lon="14.5453367"><ele>281.0</ele><time>2026-04-25T09:00:52.382Z</time></trkpt><trkpt lat="41.0355133" lon="14.54542"><ele>281.0</ele><time>2026-04-25T09:00:54.383Z</time></trkpt><trkpt lat="41.0355433" lon="14.5455"><ele>281.0</ele><time>2026-04-25T09:00:56.383Z</time></trkpt><trkpt lat="41.03558" lon="14.5455783"><ele>281.00000000000006</ele><time>2026-04-25T09:00:58.383Z</time></trkpt><trkpt lat="41.0356133" lon="14.5456633"><ele>281.0</ele><time>2026-04-25T09:01:00.384Z</time></trkpt><trkpt lat="41.0356367" lon="14.5457567"><ele>281.6666666666667</ele><time>2026-04-25T09:01:02.384Z</time></trkpt><trkpt lat="41.0356633" lon="14.54584"><ele>282.33333333333337</ele><time>2026-04-25T09:01:04.383Z</time></trkpt><trkpt lat="41.0357183" lon="14.5459767"><ele>283.0</ele><time>2026-04-25T09:01:07.383Z</time></trkpt><trkpt lat="41.0357533" lon="14.546065"><ele>283.6666666666667</ele><time>2026-04-25T09:01:09.383Z</time></trkpt><trkpt lat="41.03578" lon="14.5461483"><ele>284.3333333333333</ele><time>2026-04-25T09:01:11.384Z</time></trkpt><trkpt lat="41.0358067" lon="14.5462483"><ele>285.0</ele><time>2026-04-25T09:01:13.383Z</time></trkpt><trkpt lat="41.03584" lon="14.54635"><ele>285.1666666666667</ele><time>2026-04-25T09:01:15.383Z</time></trkpt><trkpt lat="41.03588" lon="14.5464467"><ele>285.3333333333333</ele><time>2026-04-25T09:01:17.382Z</time></trkpt><trkpt lat="41.0359117" lon="14.5465383"><ele>285.5</ele><time>2026-04-25T09:01:19.383Z</time></trkpt><trkpt lat="41.0359483" lon="14.546625"><ele>285.66666666666663</ele><time>2026-04-25T09:01:21.383Z</time></trkpt><trkpt lat="41.0359833" lon="14.54672"><ele>285.8333333333333</ele><time>2026-04-25T09:01:23.382Z</time></trkpt><trkpt lat="41.036015" lon="14.5468133"><ele>286.0</ele><time>2026-04-25T09:01:25.383Z</time></trkpt><trkpt lat="41.0360417" lon="14.5469"><ele>286.0</ele><time>2026-04-25T09:01:27.384Z</time></trkpt><trkpt lat="41.0360883" lon="14.547"><ele>286.0</ele><time>2026-04-25T09:01:30.385Z</time></trkpt><trkpt lat="41.0361233" lon="14.54707"><ele>286.0</ele><time>2026-04-25T09:02:31.383Z</time></trkpt><trkpt lat="41.0361583" lon="14.5471617"><ele>286.0</ele><time>2026-04-25T09:02:35.383Z</time></trkpt><trkpt lat="41.0362017" lon="14.5472617"><ele>286.0</ele><time>2026-04-25T09:02:38.384Z</time></trkpt><trkpt lat="41.0362317" lon="14.5473433"><ele>286.0</ele><time>2026-04-25T09:02:40.383Z</time></trkpt><trkpt lat="41.036255" lon="14.54743"><ele>286.57142857142856</ele><time>2026-04-25T09:02:42.384Z</time></trkpt><trkpt lat="41.0362833" lon="14.54752"><ele>287.1428571428571</ele><time>2026-04-25T09:02:44.384Z</time></trkpt><trkpt lat="41.0363167" lon="14.5476017"><ele>287.7142857142857</ele><time>2026-04-25T09:02:46.381Z</time></trkpt><trkpt lat="41.0363483" lon="14.547685"><ele>288.2857142857143</ele><time>2026-04-25T09:02:48.383Z</time></trkpt><trkpt lat="41.0363783" lon="14.54777"><ele>288.8571428571429</ele><time>2026-04-25T09:02:50.383Z</time></trkpt><trkpt lat="41.0364117" lon="14.5478583"><ele>289.42857142857144</ele><time>2026-04-25T09:02:52.384Z</time></trkpt><trkpt lat="41.03645" lon="14.5479383"><ele>290.0</ele><time>2026-04-25T09:02:54.384Z</time></trkpt><trkpt lat="41.0364833" lon="14.548025"><ele>290.2857142857143</ele><time>2026-04-25T09:02:56.382Z</time></trkpt><trkpt lat="41.0365183" lon="14.5481133"><ele>290.5714285714286</ele><time>2026-04-25T09:02:58.383Z</time></trkpt><trkpt lat="41.03655" lon="14.548195"><ele>290.8571428571429</ele><time>2026-04-25T09:03:00.384Z</time></trkpt><trkpt lat="41.0365767" lon="14.5482833"><ele>291.14285714285717</ele><time>2026-04-25T09:03:02.384Z</time></trkpt><trkpt lat="41.0365983" lon="14.548375"><ele>291.42857142857144</ele><time>2026-04-25T09:03:04.383Z</time></trkpt><trkpt lat="41.036625" lon="14.548465"><ele>291.7142857142857</ele><time>2026-04-25T09:03:06.383Z</time></trkpt><trkpt lat="41.0366567" lon="14.5485467"><ele>292.0</ele><time>2026-04-25T09:03:08.384Z</time></trkpt><trkpt lat="41.0366867" lon="14.5486267"><ele>292.42857142857144</ele><time>2026-04-25T09:03:10.383Z</time></trkpt><trkpt lat="41.0367183" lon="14.5487117"><ele>292.8571428571429</ele><time>2026-04-25T09:03:12.384Z</time></trkpt><trkpt lat="41.0367517" lon="14.54879"><ele>293.28571428571433</ele><time>2026-04-25T09:03:14.383Z</time></trkpt><trkpt lat="41.0367867" lon="14.5488667"><ele>293.7142857142857</ele><time>2026-04-25T09:03:16.383Z</time></trkpt><trkpt lat="41.03682" lon="14.5489483"><ele>294.14285714285717</ele><time>2026-04-25T09:03:18.385Z</time></trkpt><trkpt lat="41.03685" lon="14.5490333"><ele>294.5714285714286</ele><time>2026-04-25T09:03:20.384Z</time></trkpt><trkpt lat="41.03688" lon="14.54912"><ele>295.0</ele><time>2026-04-25T09:03:22.383Z</time></trkpt><trkpt lat="41.036915" lon="14.5492067"><ele>295.0</ele><time>2026-04-25T09:03:24.384Z</time></trkpt><trkpt lat="41.0369517" lon="14.5492967"><ele>295.0</ele><time>2026-04-25T09:03:26.384Z</time></trkpt><trkpt lat="41.0369833" lon="14.5493967"><ele>295.0</ele><time>2026-04-25T09:03:28.384Z</time></trkpt><trkpt lat="41.0370183" lon="14.5494917"><ele>295.0</ele><time>2026-04-25T09:03:30.383Z</time></trkpt><trkpt lat="41.0370467" lon="14.5495817"><ele>295.0</ele><time>2026-04-25T09:03:32.383Z</time></trkpt><trkpt lat="41.0370783" lon="14.549675"><ele>295.0</ele><time>2026-04-25T09:03:34.383Z</time></trkpt><trkpt lat="41.03712" lon="14.5497683"><ele>296.0</ele><time>2026-04-25T09:03:36.383Z</time></trkpt><trkpt lat="41.037155" lon="14.549875"><ele>297.0</ele><time>2026-04-25T09:03:38.383Z</time></trkpt><trkpt lat="41.0371917" lon="14.5500067"><ele>298.0</ele><time>2026-04-25T09:03:40.383Z</time></trkpt><trkpt lat="41.0372333" lon="14.5501233"><ele>299.0</ele><time>2026-04-25T09:03:42.383Z</time></trkpt><trkpt lat="41.0372717" lon="14.5502333"><ele>300.0</ele><time>2026-04-25T09:03:44.385Z</time></trkpt><trkpt lat="41.0373133" lon="14.5503417"><ele>300.0</ele><time>2026-04-25T09:03:46.384Z</time></trkpt><trkpt lat="41.0373567" lon="14.550465"><ele>300.0</ele><time>2026-04-25T09:03:48.383Z</time></trkpt><trkpt lat="41.0374133" lon="14.550585"><ele>300.0</ele><time>2026-04-25T09:03:50.384Z</time></trkpt><trkpt lat="41.0374567" lon="14.5507083"><ele>300.0</ele><time>2026-04-25T09:03:52.382Z</time></trkpt><trkpt lat="41.0374967" lon="14.5508417"><ele>300.0</ele><time>2026-04-25T09:03:54.383Z</time></trkpt><trkpt lat="41.0375467" lon="14.5509733"><ele>300.0</ele><time>2026-04-25T09:03:56.383Z</time></trkpt><trkpt lat="41.0375983" lon="14.5511033"><ele>300.0</ele><time>2026-04-25T09:03:58.383Z</time></trkpt><trkpt lat="41.0376483" lon="14.5512317"><ele>300.0</ele><time>2026-04-25T09:04:00.384Z</time></trkpt><trkpt lat="41.0377" lon="14.551355"><ele>300.0</ele><time>2026-04-25T09:04:02.383Z</time></trkpt><trkpt lat="41.03775" lon="14.551475"><ele>300.0</ele><time>2026-04-25T09:04:04.383Z</time></trkpt><trkpt lat="41.0377983" lon="14.5515867"><ele>300.0</ele><time>2026-04-25T09:04:06.385Z</time></trkpt><trkpt lat="41.0378367" lon="14.5516983"><ele>300.0</ele><time>2026-04-25T09:04:08.383Z</time></trkpt><trkpt lat="41.0378833" lon="14.5517933"><ele>300.0</ele><time>2026-04-25T09:04:10.384Z</time></trkpt><trkpt lat="41.0379183" lon="14.5519"><ele>300.0</ele><time>2026-04-25T09:04:12.385Z</time></trkpt><trkpt lat="41.0379567" lon="14.552015"><ele>300.0</ele><time>2026-04-25T09:04:14.383Z</time></trkpt><trkpt lat="41.0379983" lon="14.5521167"><ele>300.0</ele><time>2026-04-25T09:04:16.384Z</time></trkpt><trkpt lat="41.0380383" lon="14.55222"><ele>300.1666666666667</ele><time>2026-04-25T09:04:18.384Z</time></trkpt><trkpt lat="41.038085" lon="14.5523267"><ele>300.3333333333333</ele><time>2026-04-25T09:04:20.385Z</time></trkpt><trkpt lat="41.038125" lon="14.5524217"><ele>300.5</ele><time>2026-04-25T09:04:22.384Z</time></trkpt><trkpt lat="41.0381533" lon="14.5525033"><ele>300.66666666666663</ele><time>2026-04-25T09:04:24.383Z</time></trkpt><trkpt lat="41.03818" lon="14.552585"><ele>300.8333333333333</ele><time>2026-04-25T09:04:26.383Z</time></trkpt><trkpt lat="41.038215" lon="14.5526833"><ele>301.0</ele><time>2026-04-25T09:04:29.384Z</time></trkpt><trkpt lat="41.0382567" lon="14.552795"><ele>301.2857142857143</ele><time>2026-04-25T09:04:32.386Z</time></trkpt><trkpt lat="41.038285" lon="14.5528867"><ele>301.57142857142856</ele><time>2026-04-25T09:04:34.383Z</time></trkpt><trkpt lat="41.0383183" lon="14.5529767"><ele>301.8571428571429</ele><time>2026-04-25T09:04:36.385Z</time></trkpt><trkpt lat="41.0383483" lon="14.5530533"><ele>302.1428571428571</ele><time>2026-04-25T09:04:38.384Z</time></trkpt><trkpt lat="41.0383833" lon="14.5531667"><ele>302.42857142857144</ele><time>2026-04-25T09:04:41.384Z</time></trkpt><trkpt lat="41.03841" lon="14.55325"><ele>302.7142857142857</ele><time>2026-04-25T09:04:43.384Z</time></trkpt><trkpt lat="41.0384383" lon="14.5533383"><ele>303.0</ele><time>2026-04-25T09:04:45.383Z</time></trkpt><trkpt lat="41.03847" lon="14.5534267"><ele>301.6666666666667</ele><time>2026-04-25T09:04:48.385Z</time></trkpt><trkpt lat="41.0384883" lon="14.5535267"><ele>300.3333333333333</ele><time>2026-04-25T09:04:52.382Z</time></trkpt><trkpt lat="41.03851" lon="14.5536183"><ele>299.0</ele><time>2026-04-25T09:04:55.384Z</time></trkpt><trkpt lat="41.0385367" lon="14.5537"><ele>297.66666666666663</ele><time>2026-04-25T09:04:57.384Z</time></trkpt><trkpt lat="41.03856" lon="14.5537967"><ele>296.3333333333333</ele><time>2026-04-25T09:04:59.383Z</time></trkpt><trkpt lat="41.0385883" lon="14.5539017"><ele>295.0</ele><time>2026-04-25T09:05:01.383Z</time></trkpt><trkpt lat="41.0386233" lon="14.5540133"><ele>294.6</ele><time>2026-04-25T09:05:03.383Z</time></trkpt><trkpt lat="41.0386583" lon="14.55414"><ele>294.2</ele><time>2026-04-25T09:05:05.382Z</time></trkpt><trkpt lat="41.0386933" lon="14.5542833"><ele>293.8</ele><time>2026-04-25T09:05:07.384Z</time></trkpt><trkpt lat="41.0387133" lon="14.5543633"><ele>293.4</ele><time>2026-04-25T09:05:08.385Z</time></trkpt><trkpt lat="41.0387583" lon="14.5545217"><ele>293.0</ele><time>2026-04-25T09:05:10.383Z</time></trkpt><trkpt lat="41.0387817" lon="14.5546067"><ele>292.99999999999994</ele><time>2026-04-25T09:05:11.384Z</time></trkpt><trkpt lat="41.0388033" lon="14.5546917"><ele>293.0</ele><time>2026-04-25T09:05:12.385Z</time></trkpt><trkpt lat="41.0388267" lon="14.55478"><ele>293.0</ele><time>2026-04-25T09:05:13.384Z</time></trkpt><trkpt lat="41.03885" lon="14.5548683"><ele>293.0</ele><time>2026-04-25T09:05:14.385Z</time></trkpt><trkpt lat="41.038875" lon="14.554955"><ele>293.0</ele><time>2026-04-25T09:05:15.384Z</time></trkpt><trkpt lat="41.0389017" lon="14.5550467"><ele>292.99999999999994</ele><time>2026-04-25T09:05:16.385Z</time></trkpt><trkpt lat="41.0389267" lon="14.55514"><ele>293.0</ele><time>2026-04-25T09:05:17.385Z</time></trkpt><trkpt lat="41.0389517" lon="14.5552383"><ele>293.0</ele><time>2026-04-25T09:05:18.384Z</time></trkpt><trkpt lat="41.0389817" lon="14.555335"><ele>293.0</ele><time>2026-04-25T09:05:19.385Z</time></trkpt><trkpt lat="41.0390117" lon="14.5554317"><ele>293.0</ele><time>2026-04-25T09:05:20.384Z</time></trkpt><trkpt lat="41.0390383" lon="14.5555333"><ele>293.0</ele><time>2026-04-25T09:05:21.385Z</time></trkpt><trkpt lat="41.0390683" lon="14.555635"><ele>293.0</ele><time>2026-04-25T09:05:22.384Z</time></trkpt><trkpt lat="41.0390967" lon="14.55574"><ele>293.0</ele><time>2026-04-25T09:05:23.384Z</time></trkpt><trkpt lat="41.039125" lon="14.5558467"><ele>291.6</ele><time>2026-04-25T09:05:24.384Z</time></trkpt><trkpt lat="41.03915" lon="14.55596"><ele>290.20000000000005</ele><time>2026-04-25T09:05:25.384Z</time></trkpt><trkpt lat="41.039175" lon="14.5560733"><ele>288.8</ele><time>2026-04-25T09:05:26.384Z</time></trkpt><trkpt lat="41.0392033" lon="14.5561883"><ele>287.40000000000003</ele><time>2026-04-25T09:05:27.384Z</time></trkpt><trkpt lat="41.0392317" lon="14.5563067"><ele>286.0</ele><time>2026-04-25T09:05:28.382Z</time></trkpt><trkpt lat="41.03926" lon="14.5564233"><ele>285.6</ele><time>2026-04-25T09:05:29.385Z</time></trkpt><trkpt lat="41.0392883" lon="14.556545"><ele>285.20000000000005</ele><time>2026-04-25T09:05:30.382Z</time></trkpt><trkpt lat="41.0393167" lon="14.5566667"><ele>284.79999999999995</ele><time>2026-04-25T09:05:31.384Z</time></trkpt><trkpt lat="41.0393433" lon="14.55679"><ele>284.4</ele><time>2026-04-25T09:05:32.384Z</time></trkpt><trkpt lat="41.0393717" lon="14.556915"><ele>284.0</ele><time>2026-04-25T09:05:33.384Z</time></trkpt><trkpt lat="41.0394033" lon="14.55704"><ele>283.59999999999997</ele><time>2026-04-25T09:05:34.381Z</time></trkpt><trkpt lat="41.039435" lon="14.557165"><ele>283.2</ele><time>2026-04-25T09:05:35.383Z</time></trkpt><trkpt lat="41.0394667" lon="14.55729"><ele>282.79999999999995</ele><time>2026-04-25T09:05:36.385Z</time></trkpt><trkpt lat="41.039495" lon="14.5574183"><ele>282.4</ele><time>2026-04-25T09:05:37.384Z</time></trkpt><trkpt lat="41.0395217" lon="14.5575517"><ele>282.0</ele><time>2026-04-25T09:05:38.385Z</time></trkpt><trkpt lat="41.03955" lon="14.557685"><ele>282.0</ele><time>2026-04-25T09:05:39.386Z</time></trkpt><trkpt lat="41.0395783" lon="14.557815"><ele>282.0</ele><time>2026-04-25T09:05:40.383Z</time></trkpt><trkpt lat="41.03961" lon="14.5579483"><ele>282.0</ele><time>2026-04-25T09:05:41.383Z</time></trkpt><trkpt lat="41.0396433" lon="14.5580833"><ele>282.0</ele><time>2026-04-25T09:05:42.386Z</time></trkpt><trkpt lat="41.039675" lon="14.5582217"><ele>282.0</ele><time>2026-04-25T09:05:43.384Z</time></trkpt><trkpt lat="41.03971" lon="14.5583567"><ele>282.0</ele><time>2026-04-25T09:05:44.384Z</time></trkpt><trkpt lat="41.0397417" lon="14.5584917"><ele>282.0</ele><time>2026-04-25T09:05:45.387Z</time></trkpt><trkpt lat="41.039775" lon="14.558625"><ele>282.0</ele><time>2026-04-25T09:05:46.383Z</time></trkpt><trkpt lat="41.03981" lon="14.55876"><ele>282.0</ele><time>2026-04-25T09:05:47.385Z</time></trkpt><trkpt lat="41.0398433" lon="14.5588967"><ele>282.0</ele><time>2026-04-25T09:05:48.385Z</time></trkpt><trkpt lat="41.0398767" lon="14.5590333"><ele>281.6</ele><time>2026-04-25T09:05:49.385Z</time></trkpt><trkpt lat="41.0399083" lon="14.5591683"><ele>281.2</ele><time>2026-04-25T09:05:50.382Z</time></trkpt><trkpt lat="41.03994" lon="14.5593017"><ele>280.8</ele><time>2026-04-25T09:05:51.385Z</time></trkpt><trkpt lat="41.039975" lon="14.559435"><ele>280.4</ele><time>2026-04-25T09:05:52.383Z</time></trkpt><trkpt lat="41.04001" lon="14.55957"><ele>280.0</ele><time>2026-04-25T09:05:53.384Z</time></trkpt><trkpt lat="41.0400433" lon="14.5597033"><ele>279.2</ele><time>2026-04-25T09:05:54.382Z</time></trkpt><trkpt lat="41.040075" lon="14.5598367"><ele>278.4</ele><time>2026-04-25T09:05:55.384Z</time></trkpt><trkpt lat="41.0401083" lon="14.5599683"><ele>277.6</ele><time>2026-04-25T09:05:56.386Z</time></trkpt><trkpt lat="41.0401383" lon="14.5601"><ele>276.8</ele><time>2026-04-25T09:05:57.384Z</time></trkpt><trkpt lat="41.0401667" lon="14.5602317"><ele>276.0</ele><time>2026-04-25T09:05:58.384Z</time></trkpt><trkpt lat="41.0401983" lon="14.5603633"><ele>275.6</ele><time>2026-04-25T09:05:59.385Z</time></trkpt><trkpt lat="41.0402183" lon="14.5604967"><ele>275.20000000000005</ele><time>2026-04-25T09:06:00.385Z</time></trkpt><trkpt lat="41.0402417" lon="14.5606283"><ele>274.79999999999995</ele><time>2026-04-25T09:06:01.384Z</time></trkpt><trkpt lat="41.0402733" lon="14.560755"><ele>274.4</ele><time>2026-04-25T09:06:02.385Z</time></trkpt><trkpt lat="41.0403033" lon="14.5608817"><ele>274.0</ele><time>2026-04-25T09:06:03.383Z</time></trkpt><trkpt lat="41.04033" lon="14.5610083"><ele>274.0</ele><time>2026-04-25T09:06:04.382Z</time></trkpt><trkpt lat="41.04036" lon="14.5611317"><ele>274.0</ele><time>2026-04-25T09:06:05.386Z</time></trkpt><trkpt lat="41.0403917" lon="14.5612567"><ele>274.0</ele><time>2026-04-25T09:06:06.382Z</time></trkpt><trkpt lat="41.04042" lon="14.5613817"><ele>274.0</ele><time>2026-04-25T09:06:07.386Z</time></trkpt><trkpt lat="41.04045" lon="14.5615067"><ele>274.0</ele><time>2026-04-25T09:06:08.386Z</time></trkpt><trkpt lat="41.04048" lon="14.5616317"><ele>274.0</ele><time>2026-04-25T09:06:09.385Z</time></trkpt><trkpt lat="41.0405117" lon="14.5617567"><ele>274.0</ele><time>2026-04-25T09:06:10.387Z</time></trkpt><trkpt lat="41.04054" lon="14.56188"><ele>274.0</ele><time>2026-04-25T09:06:11.383Z</time></trkpt><trkpt lat="41.0405733" lon="14.562005"><ele>274.0</ele><time>2026-04-25T09:06:12.384Z</time></trkpt><trkpt lat="41.0406017" lon="14.56213"><ele>274.0</ele><time>2026-04-25T09:06:13.386Z</time></trkpt><trkpt lat="41.040635" lon="14.5622517"><ele>273.8</ele><time>2026-04-25T09:06:14.384Z</time></trkpt><trkpt lat="41.040665" lon="14.5623767"><ele>273.59999999999997</ele><time>2026-04-25T09:06:15.386Z</time></trkpt><trkpt lat="41.040695" lon="14.5625033"><ele>273.4</ele><time>2026-04-25T09:06:16.387Z</time></trkpt><trkpt lat="41.0407267" lon="14.5626283"><ele>273.2</ele><time>2026-04-25T09:06:17.384Z</time></trkpt><trkpt lat="41.040755" lon="14.5627517"><ele>273.0</ele><time>2026-04-25T09:06:18.384Z</time></trkpt><trkpt lat="41.0407833" lon="14.562875"><ele>272.2</ele><time>2026-04-25T09:06:19.385Z</time></trkpt><trkpt lat="41.0408117" lon="14.5629983"><ele>271.4</ele><time>2026-04-25T09:06:20.384Z</time></trkpt><trkpt lat="41.0408417" lon="14.56312"><ele>270.59999999999997</ele><time>2026-04-25T09:06:21.386Z</time></trkpt><trkpt lat="41.04087" lon="14.5632433"><ele>269.8</ele><time>2026-04-25T09:06:22.383Z</time></trkpt><trkpt lat="41.0409017" lon="14.5633633"><ele>269.0</ele><time>2026-04-25T09:06:23.387Z</time></trkpt><trkpt lat="41.040935" lon="14.5634833"><ele>269.0</ele><time>2026-04-25T09:06:24.382Z</time></trkpt><trkpt lat="41.0409667" lon="14.5636017"><ele>269.0</ele><time>2026-04-25T09:06:25.385Z</time></trkpt><trkpt lat="41.0409967" lon="14.5637217"><ele>269.0</ele><time>2026-04-25T09:06:26.385Z</time></trkpt><trkpt lat="41.0410267" lon="14.563845"><ele>269.0</ele><time>2026-04-25T09:06:27.384Z</time></trkpt><trkpt lat="41.0410567" lon="14.5639667"><ele>269.0</ele><time>2026-04-25T09:06:28.384Z</time></trkpt><trkpt lat="41.0410833" lon="14.564085"><ele>268.6666666666667</ele><time>2026-04-25T09:06:29.384Z</time></trkpt><trkpt lat="41.0411117" lon="14.5642017"><ele>268.33333333333337</ele><time>2026-04-25T09:06:30.385Z</time></trkpt><trkpt lat="41.0411367" lon="14.5643167"><ele>268.0</ele><time>2026-04-25T09:06:31.385Z</time></trkpt><trkpt lat="41.0411617" lon="14.56443"><ele>267.6666666666667</ele><time>2026-04-25T09:06:32.382Z</time></trkpt><trkpt lat="41.0411883" lon="14.5645417"><ele>267.3333333333333</ele><time>2026-04-25T09:06:33.383Z</time></trkpt><trkpt lat="41.0412133" lon="14.5646517"><ele>267.0</ele><time>2026-04-25T09:06:34.385Z</time></trkpt><trkpt lat="41.04124" lon="14.5647633"><ele>267.0</ele><time>2026-04-25T09:06:35.384Z</time></trkpt><trkpt lat="41.041265" lon="14.5648767"><ele>267.0</ele><time>2026-04-25T09:06:36.385Z</time></trkpt><trkpt lat="41.04129" lon="14.5649883"><ele>267.0</ele><time>2026-04-25T09:06:37.385Z</time></trkpt><trkpt lat="41.0413117" lon="14.5651"><ele>267.0</ele><time>2026-04-25T09:06:38.382Z</time></trkpt><trkpt lat="41.0413333" lon="14.565215"><ele>267.0</ele><time>2026-04-25T09:06:39.385Z</time></trkpt><trkpt lat="41.0413567" lon="14.5653267"><ele>267.0</ele><time>2026-04-25T09:06:40.385Z</time></trkpt><trkpt lat="41.041375" lon="14.565435"><ele>267.0</ele><time>2026-04-25T09:06:41.386Z</time></trkpt><trkpt lat="41.0413967" lon="14.5655417"><ele>267.0</ele><time>2026-04-25T09:06:42.384Z</time></trkpt><trkpt lat="41.0414217" lon="14.5656533"><ele>267.0</ele><time>2026-04-25T09:06:43.382Z</time></trkpt><trkpt lat="41.0414467" lon="14.565765"><ele>267.0</ele><time>2026-04-25T09:06:44.386Z</time></trkpt><trkpt lat="41.0414667" lon="14.565875"><ele>267.0</ele><time>2026-04-25T09:06:45.384Z</time></trkpt><trkpt lat="41.0414883" lon="14.5659867"><ele>267.0</ele><time>2026-04-25T09:06:46.384Z</time></trkpt><trkpt lat="41.0415133" lon="14.566095"><ele>266.8333333333333</ele><time>2026-04-25T09:06:47.385Z</time></trkpt><trkpt lat="41.0415383" lon="14.5662033"><ele>266.6666666666667</ele><time>2026-04-25T09:06:48.383Z</time></trkpt><trkpt lat="41.0415633" lon="14.566315"><ele>266.5</ele><time>2026-04-25T09:06:49.384Z</time></trkpt><trkpt lat="41.041585" lon="14.5664267"><ele>266.33333333333337</ele><time>2026-04-25T09:06:50.386Z</time></trkpt><trkpt lat="41.0416067" lon="14.5665383"><ele>266.1666666666667</ele><time>2026-04-25T09:06:51.387Z</time></trkpt><trkpt lat="41.04163" lon="14.5666467"><ele>266.0</ele><time>2026-04-25T09:06:52.383Z</time></trkpt><trkpt lat="41.0416533" lon="14.5667533"><ele>265.83333333333337</ele><time>2026-04-25T09:06:53.384Z</time></trkpt><trkpt lat="41.041675" lon="14.5668583"><ele>265.6666666666667</ele><time>2026-04-25T09:06:54.385Z</time></trkpt><trkpt lat="41.0416983" lon="14.5669633"><ele>265.5</ele><time>2026-04-25T09:06:55.385Z</time></trkpt><trkpt lat="41.0417217" lon="14.56707"><ele>265.3333333333333</ele><time>2026-04-25T09:06:56.385Z</time></trkpt><trkpt lat="41.0417467" lon="14.5671783"><ele>265.16666666666663</ele><time>2026-04-25T09:06:57.387Z</time></trkpt><trkpt lat="41.0417717" lon="14.567285"><ele>265.0</ele><time>2026-04-25T09:06:58.385Z</time></trkpt><trkpt lat="41.0417967" lon="14.5673933"><ele>264.8333333333333</ele><time>2026-04-25T09:06:59.385Z</time></trkpt><trkpt lat="41.0418217" lon="14.567505"><ele>264.66666666666663</ele><time>2026-04-25T09:07:00.385Z</time></trkpt><trkpt lat="41.0418483" lon="14.5676167"><ele>264.5</ele><time>2026-04-25T09:07:01.385Z</time></trkpt><trkpt lat="41.0418733" lon="14.5677267"><ele>264.3333333333333</ele><time>2026-04-25T09:07:02.385Z</time></trkpt><trkpt lat="41.0418983" lon="14.567835"><ele>264.1666666666667</ele><time>2026-04-25T09:07:03.385Z</time></trkpt><trkpt lat="41.0419217" lon="14.567945"><ele>264.0</ele><time>2026-04-25T09:07:04.383Z</time></trkpt><trkpt lat="41.041945" lon="14.5680533"><ele>263.5</ele><time>2026-04-25T09:07:05.384Z</time></trkpt><trkpt lat="41.0419717" lon="14.5681617"><ele>263.0</ele><time>2026-04-25T09:07:06.384Z</time></trkpt><trkpt lat="41.0420017" lon="14.5682683"><ele>262.5</ele><time>2026-04-25T09:07:07.384Z</time></trkpt><trkpt lat="41.0420283" lon="14.568375"><ele>262.0</ele><time>2026-04-25T09:07:08.385Z</time></trkpt><trkpt lat="41.042055" lon="14.5684867"><ele>261.5</ele><time>2026-04-25T09:07:09.384Z</time></trkpt><trkpt lat="41.0420817" lon="14.5685983"><ele>261.0</ele><time>2026-04-25T09:07:10.383Z</time></trkpt><trkpt lat="41.0421017" lon="14.56871"><ele>261.0</ele><time>2026-04-25T09:07:11.385Z</time></trkpt><trkpt lat="41.0421233" lon="14.5688217"><ele>261.0</ele><time>2026-04-25T09:07:12.386Z</time></trkpt><trkpt lat="41.042145" lon="14.5689317"><ele>261.0</ele><time>2026-04-25T09:07:13.384Z</time></trkpt><trkpt lat="41.04217" lon="14.5690417"><ele>261.0</ele><time>2026-04-25T09:07:14.383Z</time></trkpt><trkpt lat="41.0421933" lon="14.56915"><ele>261.0</ele><time>2026-04-25T09:07:15.384Z</time></trkpt><trkpt lat="41.0422167" lon="14.5692617"><ele>261.0</ele><time>2026-04-25T09:07:16.383Z</time></trkpt><trkpt lat="41.0422417" lon="14.5693717"><ele>261.0</ele><time>2026-04-25T09:07:17.385Z</time></trkpt><trkpt lat="41.0422667" lon="14.5694817"><ele>261.0</ele><time>2026-04-25T09:07:18.385Z</time></trkpt><trkpt lat="41.0422883" lon="14.5695917"><ele>261.0</ele><time>2026-04-25T09:07:19.386Z</time></trkpt><trkpt lat="41.0423167" lon="14.5696967"><ele>261.0</ele><time>2026-04-25T09:07:20.385Z</time></trkpt><trkpt lat="41.0423433" lon="14.569805"><ele>261.0</ele><time>2026-04-25T09:07:21.385Z</time></trkpt><trkpt lat="41.04237" lon="14.5699183"><ele>261.0</ele><time>2026-04-25T09:07:22.386Z</time></trkpt><trkpt lat="41.0423933" lon="14.5700283"><ele>261.0</ele><time>2026-04-25T09:07:23.385Z</time></trkpt><trkpt lat="41.0424183" lon="14.5701367"><ele>261.0</ele><time>2026-04-25T09:07:24.382Z</time></trkpt><trkpt lat="41.0424433" lon="14.5702467"><ele>261.0</ele><time>2026-04-25T09:07:25.385Z</time></trkpt><trkpt lat="41.042465" lon="14.5703567"><ele>261.0</ele><time>2026-04-25T09:07:26.385Z</time></trkpt><trkpt lat="41.042485" lon="14.5704633"><ele>261.0</ele><time>2026-04-25T09:07:27.384Z</time></trkpt><trkpt lat="41.0425083" lon="14.5705717"><ele>261.0</ele><time>2026-04-25T09:07:28.383Z</time></trkpt><trkpt lat="41.0425317" lon="14.5706783"><ele>261.0</ele><time>2026-04-25T09:07:29.385Z</time></trkpt><trkpt lat="41.0425533" lon="14.570785"><ele>261.0</ele><time>2026-04-25T09:07:30.385Z</time></trkpt><trkpt lat="41.0425783" lon="14.5708933"><ele>261.0</ele><time>2026-04-25T09:07:31.383Z</time></trkpt><trkpt lat="41.0426017" lon="14.5709967"><ele>261.0</ele><time>2026-04-25T09:07:32.384Z</time></trkpt><trkpt lat="41.0426267" lon="14.5711033"><ele>261.0</ele><time>2026-04-25T09:07:33.384Z</time></trkpt><trkpt lat="41.04265" lon="14.5712017"><ele>261.0</ele><time>2026-04-25T09:07:34.384Z</time></trkpt><trkpt lat="41.042675" lon="14.5712967"><ele>261.0</ele><time>2026-04-25T09:07:35.384Z</time></trkpt><trkpt lat="41.0427017" lon="14.5713933"><ele>261.0</ele><time>2026-04-25T09:07:36.385Z</time></trkpt><trkpt lat="41.0427283" lon="14.57149"><ele>261.0</ele><time>2026-04-25T09:07:37.383Z</time></trkpt><trkpt lat="41.04275" lon="14.5715883"><ele>261.0</ele><time>2026-04-25T09:07:38.383Z</time></trkpt><trkpt lat="41.042775" lon="14.5716833"><ele>261.0</ele><time>2026-04-25T09:07:39.384Z</time></trkpt><trkpt lat="41.0427933" lon="14.5717833"><ele>261.0</ele><time>2026-04-25T09:07:40.383Z</time></trkpt><trkpt lat="41.0428117" lon="14.5718867"><ele>261.0</ele><time>2026-04-25T09:07:41.383Z</time></trkpt><trkpt lat="41.04283" lon="14.5719883"><ele>261.0</ele><time>2026-04-25T09:07:42.385Z</time></trkpt><trkpt lat="41.04285" lon="14.5720917"><ele>261.0</ele><time>2026-04-25T09:07:43.385Z</time></trkpt><trkpt lat="41.042875" lon="14.57219"><ele>261.0</ele><time>2026-04-25T09:07:44.383Z</time></trkpt><trkpt lat="41.0429" lon="14.57229"><ele>261.0</ele><time>2026-04-25T09:07:45.386Z</time></trkpt><trkpt lat="41.0429217" lon="14.57239"><ele>261.0</ele><time>2026-04-25T09:07:46.387Z</time></trkpt><trkpt lat="41.0429417" lon="14.57249"><ele>261.0</ele><time>2026-04-25T09:07:47.386Z</time></trkpt><trkpt lat="41.0429667" lon="14.5725867"><ele>261.0</ele><time>2026-04-25T09:07:48.386Z</time></trkpt><trkpt lat="41.0429917" lon="14.5726817"><ele>261.0</ele><time>2026-04-25T09:07:49.383Z</time></trkpt><trkpt lat="41.0430167" lon="14.57278"><ele>261.0</ele><time>2026-04-25T09:07:50.385Z</time></trkpt><trkpt lat="41.0430417" lon="14.57288"><ele>261.0</ele><time>2026-04-25T09:07:51.385Z</time></trkpt><trkpt lat="41.0430683" lon="14.57298"><ele>261.0</ele><time>2026-04-25T09:07:52.383Z</time></trkpt><trkpt lat="41.043095" lon="14.57308"><ele>261.0</ele><time>2026-04-25T09:07:53.385Z</time></trkpt><trkpt lat="41.0431167" lon="14.5731833"><ele>261.0</ele><time>2026-04-25T09:07:54.386Z</time></trkpt><trkpt lat="41.04314" lon="14.57329"><ele>261.0</ele><time>2026-04-25T09:07:55.382Z</time></trkpt><trkpt lat="41.0431633" lon="14.5733967"><ele>261.0</ele><time>2026-04-25T09:07:56.385Z</time></trkpt><trkpt lat="41.0431883" lon="14.5735033"><ele>261.0</ele><time>2026-04-25T09:07:57.383Z</time></trkpt><trkpt lat="41.0432133" lon="14.57361"><ele>261.0</ele><time>2026-04-25T09:07:58.383Z</time></trkpt><trkpt lat="41.043235" lon="14.5737167"><ele>261.0</ele><time>2026-04-25T09:07:59.385Z</time></trkpt><trkpt lat="41.04326" lon="14.5738233"><ele>261.0</ele><time>2026-04-25T09:08:00.385Z</time></trkpt><trkpt lat="41.0432833" lon="14.57393"><ele>261.0</ele><time>2026-04-25T09:08:01.385Z</time></trkpt><trkpt lat="41.0433083" lon="14.5740383"><ele>261.0</ele><time>2026-04-25T09:08:02.386Z</time></trkpt><trkpt lat="41.0433317" lon="14.574145"><ele>261.0</ele><time>2026-04-25T09:08:03.386Z</time></trkpt><trkpt lat="41.043355" lon="14.57425"><ele>261.0</ele><time>2026-04-25T09:08:04.382Z</time></trkpt><trkpt lat="41.0433817" lon="14.574355"><ele>260.5</ele><time>2026-04-25T09:08:05.383Z</time></trkpt><trkpt lat="41.0434083" lon="14.574465"><ele>260.0</ele><time>2026-04-25T09:08:06.385Z</time></trkpt><trkpt lat="41.0434367" lon="14.5745733"><ele>259.5</ele><time>2026-04-25T09:08:07.383Z</time></trkpt><trkpt lat="41.0434633" lon="14.5746817"><ele>259.0</ele><time>2026-04-25T09:08:08.384Z</time></trkpt><trkpt lat="41.043485" lon="14.5747917"><ele>258.5</ele><time>2026-04-25T09:08:09.385Z</time></trkpt><trkpt lat="41.0435083" lon="14.5748983"><ele>258.0</ele><time>2026-04-25T09:08:10.385Z</time></trkpt><trkpt lat="41.0435367" lon="14.5750067"><ele>257.8333333333333</ele><time>2026-04-25T09:08:11.385Z</time></trkpt><trkpt lat="41.0435617" lon="14.5751117"><ele>257.6666666666667</ele><time>2026-04-25T09:08:12.383Z</time></trkpt><trkpt lat="41.0435833" lon="14.5752183"><ele>257.5</ele><time>2026-04-25T09:08:13.382Z</time></trkpt><trkpt lat="41.04361" lon="14.5753283"><ele>257.33333333333337</ele><time>2026-04-25T09:08:14.383Z</time></trkpt><trkpt lat="41.0436367" lon="14.5754383"><ele>257.1666666666667</ele><time>2026-04-25T09:08:15.386Z</time></trkpt><trkpt lat="41.0436633" lon="14.5755483"><ele>257.0</ele><time>2026-04-25T09:08:16.383Z</time></trkpt><trkpt lat="41.0436883" lon="14.57566"><ele>256.5</ele><time>2026-04-25T09:08:17.384Z</time></trkpt><trkpt lat="41.043715" lon="14.5757667"><ele>256.0</ele><time>2026-04-25T09:08:18.385Z</time></trkpt><trkpt lat="41.0437417" lon="14.5758733"><ele>255.5</ele><time>2026-04-25T09:08:19.384Z</time></trkpt><trkpt lat="41.04377" lon="14.57598"><ele>255.0</ele><time>2026-04-25T09:08:20.384Z</time></trkpt><trkpt lat="41.043795" lon="14.57609"><ele>254.50000000000003</ele><time>2026-04-25T09:08:21.384Z</time></trkpt><trkpt lat="41.04382" lon="14.5762"><ele>254.0</ele><time>2026-04-25T09:08:22.385Z</time></trkpt><trkpt lat="41.0438467" lon="14.5763067"><ele>253.83333333333334</ele><time>2026-04-25T09:08:23.385Z</time></trkpt><trkpt lat="41.0438717" lon="14.5764133"><ele>253.66666666666669</ele><time>2026-04-25T09:08:24.385Z</time></trkpt><trkpt lat="41.0438983" lon="14.5765217"><ele>253.5</ele><time>2026-04-25T09:08:25.384Z</time></trkpt><trkpt lat="41.0439217" lon="14.57663"><ele>253.33333333333331</ele><time>2026-04-25T09:08:26.385Z</time></trkpt><trkpt lat="41.0439483" lon="14.5767333"><ele>253.16666666666666</ele><time>2026-04-25T09:08:27.385Z</time></trkpt><trkpt lat="41.04398" lon="14.5768367"><ele>253.0</ele><time>2026-04-25T09:08:28.383Z</time></trkpt><trkpt lat="41.0440133" lon="14.57694"><ele>253.16666666666666</ele><time>2026-04-25T09:08:29.384Z</time></trkpt><trkpt lat="41.0440433" lon="14.577045"><ele>253.33333333333331</ele><time>2026-04-25T09:08:30.385Z</time></trkpt><trkpt lat="41.044065" lon="14.5771517"><ele>253.5</ele><time>2026-04-25T09:08:31.385Z</time></trkpt><trkpt lat="41.044085" lon="14.5772617"><ele>253.66666666666669</ele><time>2026-04-25T09:08:32.385Z</time></trkpt><trkpt lat="41.0441033" lon="14.5773683"><ele>253.83333333333334</ele><time>2026-04-25T09:08:33.384Z</time></trkpt><trkpt lat="41.044125" lon="14.5774733"><ele>254.0</ele><time>2026-04-25T09:08:34.384Z</time></trkpt><trkpt lat="41.0441467" lon="14.577575"><ele>254.00000000000003</ele><time>2026-04-25T09:08:35.385Z</time></trkpt><trkpt lat="41.0441733" lon="14.5776767"><ele>254.0</ele><time>2026-04-25T09:08:36.385Z</time></trkpt><trkpt lat="41.0442017" lon="14.577775"><ele>254.0</ele><time>2026-04-25T09:08:37.385Z</time></trkpt><trkpt lat="41.044225" lon="14.5778733"><ele>254.0</ele><time>2026-04-25T09:08:38.383Z</time></trkpt><trkpt lat="41.04425" lon="14.5779717"><ele>254.00000000000003</ele><time>2026-04-25T09:08:39.385Z</time></trkpt><trkpt lat="41.044275" lon="14.5780733"><ele>254.0</ele><time>2026-04-25T09:08:40.384Z</time></trkpt><trkpt lat="41.0442967" lon="14.5781733"><ele>253.85714285714286</ele><time>2026-04-25T09:08:41.382Z</time></trkpt><trkpt lat="41.0443167" lon="14.57827"><ele>253.71428571428572</ele><time>2026-04-25T09:08:42.385Z</time></trkpt><trkpt lat="41.0443367" lon="14.5783683"><ele>253.57142857142858</ele><time>2026-04-25T09:08:43.385Z</time></trkpt><trkpt lat="41.0443583" lon="14.578465"><ele>253.42857142857144</ele><time>2026-04-25T09:08:44.385Z</time></trkpt><trkpt lat="41.04438" lon="14.57856"><ele>253.28571428571428</ele><time>2026-04-25T09:08:45.386Z</time></trkpt><trkpt lat="41.0444033" lon="14.5786517"><ele>253.14285714285717</ele><time>2026-04-25T09:08:46.387Z</time></trkpt><trkpt lat="41.0444233" lon="14.578745"><ele>253.00000000000003</ele><time>2026-04-25T09:08:47.386Z</time></trkpt><trkpt lat="41.0444467" lon="14.5788367"><ele>252.8571428571429</ele><time>2026-04-25T09:08:48.386Z</time></trkpt><trkpt lat="41.0444683" lon="14.5789267"><ele>252.71428571428572</ele><time>2026-04-25T09:08:49.386Z</time></trkpt><trkpt lat="41.04449" lon="14.5790183"><ele>252.57142857142858</ele><time>2026-04-25T09:08:50.386Z</time></trkpt><trkpt lat="41.0445067" lon="14.5791133"><ele>252.42857142857144</ele><time>2026-04-25T09:08:51.386Z</time></trkpt><trkpt lat="41.0445267" lon="14.5792033"><ele>252.28571428571428</ele><time>2026-04-25T09:08:52.385Z</time></trkpt><trkpt lat="41.0445467" lon="14.579295"><ele>252.14285714285714</ele><time>2026-04-25T09:08:53.387Z</time></trkpt><trkpt lat="41.0445683" lon="14.579385"><ele>252.0</ele><time>2026-04-25T09:08:54.383Z</time></trkpt><trkpt lat="41.0445883" lon="14.5794733"><ele>252.14285714285714</ele><time>2026-04-25T09:08:55.383Z</time></trkpt><trkpt lat="41.0446083" lon="14.5795633"><ele>252.28571428571428</ele><time>2026-04-25T09:08:56.383Z</time></trkpt><trkpt lat="41.04463" lon="14.57965"><ele>252.42857142857144</ele><time>2026-04-25T09:08:57.385Z</time></trkpt><trkpt lat="41.0446533" lon="14.5797383"><ele>252.57142857142858</ele><time>2026-04-25T09:08:58.384Z</time></trkpt><trkpt lat="41.0446733" lon="14.579825"><ele>252.71428571428572</ele><time>2026-04-25T09:08:59.383Z</time></trkpt><trkpt lat="41.0446933" lon="14.579915"><ele>252.8571428571429</ele><time>2026-04-25T09:09:00.385Z</time></trkpt><trkpt lat="41.04472" lon="14.5800033"><ele>253.00000000000003</ele><time>2026-04-25T09:09:01.385Z</time></trkpt><trkpt lat="41.044745" lon="14.5800917"><ele>252.99999999999997</ele><time>2026-04-25T09:09:02.385Z</time></trkpt><trkpt lat="41.04477" lon="14.5801767"><ele>253.0</ele><time>2026-04-25T09:09:03.385Z</time></trkpt><trkpt lat="41.044795" lon="14.5802633"><ele>253.0</ele><time>2026-04-25T09:09:04.383Z</time></trkpt><trkpt lat="41.0448183" lon="14.580345"><ele>253.0</ele><time>2026-04-25T09:09:05.385Z</time></trkpt><trkpt lat="41.0448417" lon="14.5804283"><ele>252.99999999999997</ele><time>2026-04-25T09:09:06.385Z</time></trkpt><trkpt lat="41.0448667" lon="14.58051"><ele>253.0</ele><time>2026-04-25T09:09:07.385Z</time></trkpt><trkpt lat="41.04491" lon="14.5806633"><ele>252.99999999999997</ele><time>2026-04-25T09:09:09.384Z</time></trkpt><trkpt lat="41.0449317" lon="14.5807417"><ele>253.0</ele><time>2026-04-25T09:09:10.383Z</time></trkpt><trkpt lat="41.044975" lon="14.5809"><ele>253.0</ele><time>2026-04-25T09:09:12.385Z</time></trkpt><trkpt lat="41.044995" lon="14.5809833"><ele>253.0</ele><time>2026-04-25T09:09:13.385Z</time></trkpt><trkpt lat="41.0450133" lon="14.581065"><ele>252.99999999999997</ele><time>2026-04-25T09:09:14.383Z</time></trkpt><trkpt lat="41.0450333" lon="14.58115"><ele>253.0</ele><time>2026-04-25T09:09:15.387Z</time></trkpt><trkpt lat="41.0450517" lon="14.581235"><ele>253.00000000000003</ele><time>2026-04-25T09:09:16.387Z</time></trkpt><trkpt lat="41.0450733" lon="14.58132"><ele>253.0</ele><time>2026-04-25T09:09:17.386Z</time></trkpt><trkpt lat="41.0450933" lon="14.5814067"><ele>253.00000000000003</ele><time>2026-04-25T09:09:18.387Z</time></trkpt><trkpt lat="41.0451133" lon="14.5814933"><ele>253.00000000000003</ele><time>2026-04-25T09:09:19.387Z</time></trkpt><trkpt lat="41.0451317" lon="14.5815833"><ele>253.0</ele><time>2026-04-25T09:09:20.387Z</time></trkpt><trkpt lat="41.0451517" lon="14.5816767"><ele>253.00000000000003</ele><time>2026-04-25T09:09:21.386Z</time></trkpt><trkpt lat="41.0451733" lon="14.5817683"><ele>253.00000000000003</ele><time>2026-04-25T09:09:22.383Z</time></trkpt><trkpt lat="41.045195" lon="14.5818533"><ele>252.99999999999997</ele><time>2026-04-25T09:09:23.383Z</time></trkpt><trkpt lat="41.0452217" lon="14.5819367"><ele>253.0</ele><time>2026-04-25T09:09:24.385Z</time></trkpt><trkpt lat="41.0452483" lon="14.5820183"><ele>253.0</ele><time>2026-04-25T09:09:25.383Z</time></trkpt><trkpt lat="41.04527" lon="14.5820983"><ele>253.0</ele><time>2026-04-25T09:09:26.385Z</time></trkpt><trkpt lat="41.0452917" lon="14.5821767"><ele>252.99999999999997</ele><time>2026-04-25T09:09:27.384Z</time></trkpt><trkpt lat="41.0453367" lon="14.5823333"><ele>253.0</ele><time>2026-04-25T09:09:29.384Z</time></trkpt><trkpt lat="41.0453567" lon="14.5824967"><ele>253.8</ele><time>2026-04-25T09:09:31.384Z</time></trkpt><trkpt lat="41.0453683" lon="14.58265"><ele>254.60000000000002</ele><time>2026-04-25T09:09:33.385Z</time></trkpt><trkpt lat="41.0454067" lon="14.582795"><ele>255.39999999999998</ele><time>2026-04-25T09:09:35.385Z</time></trkpt><trkpt lat="41.04546" lon="14.582925"><ele>256.2</ele><time>2026-04-25T09:09:37.385Z</time></trkpt><trkpt lat="41.0455317" lon="14.583025"><ele>257.0</ele><time>2026-04-25T09:09:39.384Z</time></trkpt><trkpt lat="41.045605" lon="14.5831167"><ele>257.0</ele><time>2026-04-25T09:09:41.385Z</time></trkpt><trkpt lat="41.0456833" lon="14.5832033"><ele>257.0</ele><time>2026-04-25T09:09:43.384Z</time></trkpt><trkpt lat="41.0457467" lon="14.5833117"><ele>257.0</ele><time>2026-04-25T09:09:45.386Z</time></trkpt><trkpt lat="41.0457833" lon="14.5834467"><ele>257.0</ele><time>2026-04-25T09:09:47.384Z</time></trkpt><trkpt lat="41.0457933" lon="14.5836017"><ele>257.0</ele><time>2026-04-25T09:09:49.384Z</time></trkpt><trkpt lat="41.0458083" lon="14.5837567"><ele>257.0</ele><time>2026-04-25T09:09:51.385Z</time></trkpt><trkpt lat="41.045825" lon="14.5839033"><ele>257.0</ele><time>2026-04-25T09:09:53.384Z</time></trkpt><trkpt lat="41.0458433" lon="14.584055"><ele>257.0</ele><time>2026-04-25T09:09:55.385Z</time></trkpt><trkpt lat="41.0458617" lon="14.584205"><ele>257.0</ele><time>2026-04-25T09:09:57.383Z</time></trkpt><trkpt lat="41.0458833" lon="14.5843533"><ele>257.0</ele><time>2026-04-25T09:09:59.385Z</time></trkpt><trkpt lat="41.0459083" lon="14.5845"><ele>257.0</ele><time>2026-04-25T09:10:01.383Z</time></trkpt><trkpt lat="41.045945" lon="14.5846467"><ele>257.0</ele><time>2026-04-25T09:10:03.385Z</time></trkpt><trkpt lat="41.045985" lon="14.58479"><ele>257.0</ele><time>2026-04-25T09:10:05.385Z</time></trkpt><trkpt lat="41.0460267" lon="14.5849433"><ele>257.25</ele><time>2026-04-25T09:10:07.384Z</time></trkpt><trkpt lat="41.04607" lon="14.5850983"><ele>257.5</ele><time>2026-04-25T09:10:09.384Z</time></trkpt><trkpt lat="41.04611" lon="14.585255"><ele>257.75</ele><time>2026-04-25T09:10:11.385Z</time></trkpt><trkpt lat="41.0461517" lon="14.5854083"><ele>258.0</ele><time>2026-04-25T09:10:13.384Z</time></trkpt><trkpt lat="41.0461967" lon="14.5855567"><ele>258.0</ele><time>2026-04-25T09:10:15.387Z</time></trkpt><trkpt lat="41.0462433" lon="14.5857033"><ele>258.0</ele><time>2026-04-25T09:10:17.385Z</time></trkpt><trkpt lat="41.0462833" lon="14.5858567"><ele>258.0</ele><time>2026-04-25T09:10:19.385Z</time></trkpt><trkpt lat="41.04633" lon="14.586005"><ele>258.0</ele><time>2026-04-25T09:10:21.385Z</time></trkpt><trkpt lat="41.0463533" lon="14.5860833"><ele>258.0</ele><time>2026-04-25T09:10:22.384Z</time></trkpt><trkpt lat="41.046395" lon="14.5862383"><ele>258.2</ele><time>2026-04-25T09:10:24.384Z</time></trkpt><trkpt lat="41.0464367" lon="14.5863917"><ele>258.4</ele><time>2026-04-25T09:10:26.385Z</time></trkpt><trkpt lat="41.0464733" lon="14.586545"><ele>258.59999999999997</ele><time>2026-04-25T09:10:28.385Z</time></trkpt><trkpt lat="41.0465133" lon="14.5867033"><ele>258.8</ele><time>2026-04-25T09:10:30.383Z</time></trkpt><trkpt lat="41.046535" lon="14.5867817"><ele>259.0</ele><time>2026-04-25T09:10:31.385Z</time></trkpt><trkpt lat="41.0465567" lon="14.5868633"><ele>259.0</ele><time>2026-04-25T09:10:32.385Z</time></trkpt><trkpt lat="41.0465783" lon="14.586945"><ele>259.0</ele><time>2026-04-25T09:10:33.385Z</time></trkpt><trkpt lat="41.0465983" lon="14.5870317"><ele>259.0</ele><time>2026-04-25T09:10:34.383Z</time></trkpt><trkpt lat="41.0466167" lon="14.587115"><ele>259.0</ele><time>2026-04-25T09:10:35.384Z</time></trkpt><trkpt lat="41.0466383" lon="14.5871983"><ele>259.0</ele><time>2026-04-25T09:10:36.384Z</time></trkpt><trkpt lat="41.04666" lon="14.5872817"><ele>259.0</ele><time>2026-04-25T09:10:37.385Z</time></trkpt><trkpt lat="41.0466783" lon="14.5873667"><ele>259.0</ele><time>2026-04-25T09:10:38.385Z</time></trkpt><trkpt lat="41.0466933" lon="14.5874533"><ele>259.42857142857144</ele><time>2026-04-25T09:10:39.385Z</time></trkpt><trkpt lat="41.04671" lon="14.5875417"><ele>259.8571428571429</ele><time>2026-04-25T09:10:40.383Z</time></trkpt><trkpt lat="41.0467283" lon="14.5876283"><ele>260.2857142857143</ele><time>2026-04-25T09:10:41.384Z</time></trkpt><trkpt lat="41.04675" lon="14.5877133"><ele>260.7142857142857</ele><time>2026-04-25T09:10:42.385Z</time></trkpt><trkpt lat="41.04677" lon="14.5878"><ele>261.14285714285717</ele><time>2026-04-25T09:10:43.384Z</time></trkpt><trkpt lat="41.0467883" lon="14.5878883"><ele>261.57142857142856</ele><time>2026-04-25T09:10:44.384Z</time></trkpt><trkpt lat="41.0468117" lon="14.5879733"><ele>262.0</ele><time>2026-04-25T09:10:45.387Z</time></trkpt><trkpt lat="41.0468333" lon="14.58806"><ele>262.0</ele><time>2026-04-25T09:10:46.387Z</time></trkpt><trkpt lat="41.0468567" lon="14.5881467"><ele>262.0</ele><time>2026-04-25T09:10:47.384Z</time></trkpt><trkpt lat="41.04688" lon="14.5882333"><ele>262.0</ele><time>2026-04-25T09:10:48.385Z</time></trkpt><trkpt lat="41.0469" lon="14.5883167"><ele>262.0</ele><time>2026-04-25T09:10:49.386Z</time></trkpt><trkpt lat="41.0469217" lon="14.5884033"><ele>262.0</ele><time>2026-04-25T09:10:50.385Z</time></trkpt><trkpt lat="41.0469433" lon="14.5884867"><ele>262.0</ele><time>2026-04-25T09:10:51.385Z</time></trkpt><trkpt lat="41.0469667" lon="14.58857"><ele>262.0</ele><time>2026-04-25T09:10:52.385Z</time></trkpt><trkpt lat="41.0469917" lon="14.5886533"><ele>261.8571428571429</ele><time>2026-04-25T09:10:53.383Z</time></trkpt><trkpt lat="41.0470133" lon="14.5887383"><ele>261.7142857142857</ele><time>2026-04-25T09:10:54.384Z</time></trkpt><trkpt lat="41.0470367" lon="14.5888267"><ele>261.57142857142856</ele><time>2026-04-25T09:10:55.383Z</time></trkpt><trkpt lat="41.04706" lon="14.5889133"><ele>261.42857142857144</ele><time>2026-04-25T09:10:56.385Z</time></trkpt><trkpt lat="41.04708" lon="14.5890017"><ele>261.2857142857143</ele><time>2026-04-25T09:10:57.385Z</time></trkpt><trkpt lat="41.0470967" lon="14.5890917"><ele>261.14285714285717</ele><time>2026-04-25T09:10:58.385Z</time></trkpt><trkpt lat="41.0471183" lon="14.5891817"><ele>261.0</ele><time>2026-04-25T09:10:59.385Z</time></trkpt><trkpt lat="41.04714" lon="14.589275"><ele>261.0</ele><time>2026-04-25T09:11:00.385Z</time></trkpt><trkpt lat="41.0471633" lon="14.5893667"><ele>261.0</ele><time>2026-04-25T09:11:01.384Z</time></trkpt><trkpt lat="41.047185" lon="14.5894583"><ele>261.0</ele><time>2026-04-25T09:11:02.385Z</time></trkpt><trkpt lat="41.0472083" lon="14.5895483"><ele>261.0</ele><time>2026-04-25T09:11:03.385Z</time></trkpt><trkpt lat="41.0472283" lon="14.5896367"><ele>261.0</ele><time>2026-04-25T09:11:04.383Z</time></trkpt><trkpt lat="41.0472517" lon="14.5897233"><ele>261.0</ele><time>2026-04-25T09:11:05.382Z</time></trkpt><trkpt lat="41.0472767" lon="14.5898133"><ele>261.0</ele><time>2026-04-25T09:11:06.383Z</time></trkpt><trkpt lat="41.0472967" lon="14.5899067"><ele>261.0</ele><time>2026-04-25T09:11:07.383Z</time></trkpt><trkpt lat="41.047315" lon="14.59"><ele>261.0</ele><time>2026-04-25T09:11:08.385Z</time></trkpt><trkpt lat="41.0473367" lon="14.5900933"><ele>261.0</ele><time>2026-04-25T09:11:09.382Z</time></trkpt><trkpt lat="41.0473583" lon="14.59018"><ele>261.0</ele><time>2026-04-25T09:11:10.383Z</time></trkpt><trkpt lat="41.04738" lon="14.590265"><ele>261.0</ele><time>2026-04-25T09:11:11.383Z</time></trkpt><trkpt lat="41.0474" lon="14.5903533"><ele>261.0</ele><time>2026-04-25T09:11:12.382Z</time></trkpt><trkpt lat="41.04742" lon="14.5904433"><ele>261.0</ele><time>2026-04-25T09:11:13.385Z</time></trkpt><trkpt lat="41.0474417" lon="14.59053"><ele>261.14285714285717</ele><time>2026-04-25T09:11:14.384Z</time></trkpt><trkpt lat="41.0474633" lon="14.5906183"><ele>261.2857142857143</ele><time>2026-04-25T09:11:15.384Z</time></trkpt><trkpt lat="41.0474817" lon="14.5907033"><ele>261.42857142857144</ele><time>2026-04-25T09:11:16.384Z</time></trkpt><trkpt lat="41.0475" lon="14.59079"><ele>261.57142857142856</ele><time>2026-04-25T09:11:17.385Z</time></trkpt><trkpt lat="41.047525" lon="14.590875"><ele>261.7142857142857</ele><time>2026-04-25T09:11:18.385Z</time></trkpt><trkpt lat="41.04755" lon="14.5909633"><ele>261.8571428571429</ele><time>2026-04-25T09:11:19.384Z</time></trkpt><trkpt lat="41.0475717" lon="14.591055"><ele>262.0</ele><time>2026-04-25T09:11:20.385Z</time></trkpt><trkpt lat="41.047595" lon="14.5911417"><ele>261.8571428571429</ele><time>2026-04-25T09:11:21.384Z</time></trkpt><trkpt lat="41.0476217" lon="14.5912317"><ele>261.7142857142857</ele><time>2026-04-25T09:11:22.382Z</time></trkpt><trkpt lat="41.0476467" lon="14.5913233"><ele>261.57142857142856</ele><time>2026-04-25T09:11:23.385Z</time></trkpt><trkpt lat="41.04767" lon="14.5914133"><ele>261.42857142857144</ele><time>2026-04-25T09:11:24.383Z</time></trkpt><trkpt lat="41.0476917" lon="14.591505"><ele>261.2857142857143</ele><time>2026-04-25T09:11:25.384Z</time></trkpt><trkpt lat="41.0477167" lon="14.5915983"><ele>261.14285714285717</ele><time>2026-04-25T09:11:26.385Z</time></trkpt><trkpt lat="41.0477383" lon="14.59169"><ele>261.0</ele><time>2026-04-25T09:11:27.384Z</time></trkpt><trkpt lat="41.0477633" lon="14.5917817"><ele>261.0</ele><time>2026-04-25T09:11:28.383Z</time></trkpt><trkpt lat="41.0477883" lon="14.591875"><ele>261.0</ele><time>2026-04-25T09:11:29.383Z</time></trkpt><trkpt lat="41.0478133" lon="14.59197"><ele>261.0</ele><time>2026-04-25T09:11:30.384Z</time></trkpt><trkpt lat="41.04784" lon="14.5920617"><ele>261.0</ele><time>2026-04-25T09:11:31.385Z</time></trkpt><trkpt lat="41.047865" lon="14.5921533"><ele>261.0</ele><time>2026-04-25T09:11:32.384Z</time></trkpt><trkpt lat="41.0478933" lon="14.5922467"><ele>261.0</ele><time>2026-04-25T09:11:33.385Z</time></trkpt><trkpt lat="41.04792" lon="14.5923417"><ele>261.0</ele><time>2026-04-25T09:11:34.385Z</time></trkpt><trkpt lat="41.047945" lon="14.5924383"><ele>261.0</ele><time>2026-04-25T09:11:35.383Z</time></trkpt><trkpt lat="41.0479683" lon="14.5925383"><ele>261.0</ele><time>2026-04-25T09:11:36.385Z</time></trkpt><trkpt lat="41.0479933" lon="14.5926367"><ele>261.0</ele><time>2026-04-25T09:11:37.385Z</time></trkpt><trkpt lat="41.0480167" lon="14.5927367"><ele>261.0</ele><time>2026-04-25T09:11:38.385Z</time></trkpt><trkpt lat="41.0480417" lon="14.592835"><ele>261.0</ele><time>2026-04-25T09:11:39.384Z</time></trkpt><trkpt lat="41.0480667" lon="14.5929317"><ele>261.3333333333333</ele><time>2026-04-25T09:11:40.384Z</time></trkpt><trkpt lat="41.04809" lon="14.5930283"><ele>261.6666666666667</ele><time>2026-04-25T09:11:41.384Z</time></trkpt><trkpt lat="41.048115" lon="14.5931267"><ele>262.0</ele><time>2026-04-25T09:11:42.385Z</time></trkpt><trkpt lat="41.04814" lon="14.5932233"><ele>262.33333333333337</ele><time>2026-04-25T09:11:43.385Z</time></trkpt><trkpt lat="41.0481683" lon="14.5933183"><ele>262.6666666666667</ele><time>2026-04-25T09:11:44.385Z</time></trkpt><trkpt lat="41.0481933" lon="14.593415"><ele>263.0</ele><time>2026-04-25T09:11:45.385Z</time></trkpt><trkpt lat="41.0482183" lon="14.5935117"><ele>263.0</ele><time>2026-04-25T09:11:46.385Z</time></trkpt><trkpt lat="41.0482417" lon="14.5936083"><ele>263.0</ele><time>2026-04-25T09:11:47.384Z</time></trkpt><trkpt lat="41.048265" lon="14.5937017"><ele>263.0</ele><time>2026-04-25T09:11:48.384Z</time></trkpt><trkpt lat="41.0482933" lon="14.5937967"><ele>263.0</ele><time>2026-04-25T09:11:49.384Z</time></trkpt><trkpt lat="41.0483167" lon="14.5938933"><ele>263.0</ele><time>2026-04-25T09:11:50.384Z</time></trkpt><trkpt lat="41.0483417" lon="14.59399"><ele>263.0</ele><time>2026-04-25T09:11:51.384Z</time></trkpt><trkpt lat="41.0483667" lon="14.594085"><ele>263.0</ele><time>2026-04-25T09:11:52.383Z</time></trkpt><trkpt lat="41.0483917" lon="14.5941833"><ele>263.0</ele><time>2026-04-25T09:11:53.384Z</time></trkpt><trkpt lat="41.0484167" lon="14.59428"><ele>263.0</ele><time>2026-04-25T09:11:54.384Z</time></trkpt><trkpt lat="41.0484417" lon="14.5943783"><ele>263.0</ele><time>2026-04-25T09:11:55.385Z</time></trkpt><trkpt lat="41.0484667" lon="14.5944767"><ele>263.0</ele><time>2026-04-25T09:11:56.383Z</time></trkpt><trkpt lat="41.04849" lon="14.5945733"><ele>263.0</ele><time>2026-04-25T09:11:57.385Z</time></trkpt><trkpt lat="41.0485133" lon="14.59467"><ele>263.33333333333337</ele><time>2026-04-25T09:11:58.383Z</time></trkpt><trkpt lat="41.04854" lon="14.594765"><ele>263.6666666666667</ele><time>2026-04-25T09:11:59.384Z</time></trkpt><trkpt lat="41.0485667" lon="14.5948617"><ele>264.0</ele><time>2026-04-25T09:12:00.383Z</time></trkpt><trkpt lat="41.048595" lon="14.5949567"><ele>264.3333333333333</ele><time>2026-04-25T09:12:01.385Z</time></trkpt><trkpt lat="41.0486217" lon="14.59505"><ele>264.66666666666663</ele><time>2026-04-25T09:12:02.385Z</time></trkpt><trkpt lat="41.0486483" lon="14.5951433"><ele>265.0</ele><time>2026-04-25T09:12:03.383Z</time></trkpt><trkpt lat="41.0486717" lon="14.5952417"><ele>265.0</ele><time>2026-04-25T09:12:04.383Z</time></trkpt><trkpt lat="41.0486983" lon="14.595335"><ele>265.0</ele><time>2026-04-25T09:12:05.385Z</time></trkpt><trkpt lat="41.0487217" lon="14.59543"><ele>265.0</ele><time>2026-04-25T09:12:06.385Z</time></trkpt><trkpt lat="41.048745" lon="14.595525"><ele>265.0</ele><time>2026-04-25T09:12:07.381Z</time></trkpt><trkpt lat="41.04877" lon="14.59562"><ele>265.0</ele><time>2026-04-25T09:12:08.383Z</time></trkpt><trkpt lat="41.048795" lon="14.5957167"><ele>265.0</ele><time>2026-04-25T09:12:09.384Z</time></trkpt><trkpt lat="41.0488183" lon="14.5958133"><ele>264.8333333333333</ele><time>2026-04-25T09:12:10.384Z</time></trkpt><trkpt lat="41.0488433" lon="14.59591"><ele>264.66666666666663</ele><time>2026-04-25T09:12:11.383Z</time></trkpt><trkpt lat="41.048865" lon="14.5960117"><ele>264.5</ele><time>2026-04-25T09:12:12.383Z</time></trkpt><trkpt lat="41.0488867" lon="14.5961133"><ele>264.3333333333333</ele><time>2026-04-25T09:12:13.382Z</time></trkpt><trkpt lat="41.04891" lon="14.5962133"><ele>264.1666666666667</ele><time>2026-04-25T09:12:14.384Z</time></trkpt><trkpt lat="41.0489333" lon="14.5963133"><ele>264.0</ele><time>2026-04-25T09:12:15.384Z</time></trkpt><trkpt lat="41.04896" lon="14.59641"><ele>264.0</ele><time>2026-04-25T09:12:16.386Z</time></trkpt><trkpt lat="41.0489867" lon="14.5965083"><ele>264.0</ele><time>2026-04-25T09:12:17.384Z</time></trkpt><trkpt lat="41.0490117" lon="14.5966067"><ele>264.0</ele><time>2026-04-25T09:12:18.385Z</time></trkpt><trkpt lat="41.0490367" lon="14.5967067"><ele>264.0</ele><time>2026-04-25T09:12:19.383Z</time></trkpt><trkpt lat="41.0490583" lon="14.5968083"><ele>264.0</ele><time>2026-04-25T09:12:20.384Z</time></trkpt><trkpt lat="41.04908" lon="14.5969067"><ele>264.0</ele><time>2026-04-25T09:12:21.383Z</time></trkpt><trkpt lat="41.049105" lon="14.5970033"><ele>264.1428571428571</ele><time>2026-04-25T09:12:22.382Z</time></trkpt><trkpt lat="41.0491317" lon="14.597095"><ele>264.2857142857143</ele><time>2026-04-25T09:12:23.384Z</time></trkpt><trkpt lat="41.0491567" lon="14.5971833"><ele>264.42857142857144</ele><time>2026-04-25T09:12:24.384Z</time></trkpt><trkpt lat="41.0491767" lon="14.5972733"><ele>264.57142857142856</ele><time>2026-04-25T09:12:25.385Z</time></trkpt><trkpt lat="41.0492017" lon="14.5973633"><ele>264.7142857142857</ele><time>2026-04-25T09:12:26.384Z</time></trkpt><trkpt lat="41.04922" lon="14.5974533"><ele>264.85714285714283</ele><time>2026-04-25T09:12:27.384Z</time></trkpt><trkpt lat="41.04924" lon="14.5975417"><ele>265.0</ele><time>2026-04-25T09:12:28.384Z</time></trkpt><trkpt lat="41.049255" lon="14.5976317"><ele>264.99999999999994</ele><time>2026-04-25T09:12:29.384Z</time></trkpt><trkpt lat="41.0492767" lon="14.59772"><ele>265.0</ele><time>2026-04-25T09:12:30.384Z</time></trkpt><trkpt lat="41.0492967" lon="14.5978117"><ele>265.0</ele><time>2026-04-25T09:12:31.385Z</time></trkpt><trkpt lat="41.04932" lon="14.5979017"><ele>265.0</ele><time>2026-04-25T09:12:32.384Z</time></trkpt><trkpt lat="41.0493433" lon="14.597995"><ele>265.0</ele><time>2026-04-25T09:12:33.384Z</time></trkpt><trkpt lat="41.0493667" lon="14.5980867"><ele>264.99999999999994</ele><time>2026-04-25T09:12:34.383Z</time></trkpt><trkpt lat="41.0493883" lon="14.5981783"><ele>265.0</ele><time>2026-04-25T09:12:35.384Z</time></trkpt><trkpt lat="41.04941" lon="14.5982717"><ele>264.85714285714283</ele><time>2026-04-25T09:12:36.384Z</time></trkpt><trkpt lat="41.0494333" lon="14.598365"><ele>264.7142857142857</ele><time>2026-04-25T09:12:37.384Z</time></trkpt><trkpt lat="41.0494533" lon="14.5984583"><ele>264.57142857142856</ele><time>2026-04-25T09:12:38.38Z</time></trkpt><trkpt lat="41.0494783" lon="14.5985483"><ele>264.42857142857144</ele><time>2026-04-25T09:12:39.381Z</time></trkpt><trkpt lat="41.0495033" lon="14.5986383"><ele>264.2857142857143</ele><time>2026-04-25T09:12:40.382Z</time></trkpt><trkpt lat="41.0495267" lon="14.59873"><ele>264.1428571428571</ele><time>2026-04-25T09:12:41.385Z</time></trkpt><trkpt lat="41.0495517" lon="14.59882"><ele>264.0</ele><time>2026-04-25T09:12:42.385Z</time></trkpt><trkpt lat="41.049575" lon="14.59891"><ele>264.0</ele><time>2026-04-25T09:12:43.383Z</time></trkpt><trkpt lat="41.0495917" lon="14.5990033"><ele>264.0</ele><time>2026-04-25T09:12:44.383Z</time></trkpt><trkpt lat="41.0496083" lon="14.5990983"><ele>264.0</ele><time>2026-04-25T09:12:45.385Z</time></trkpt><trkpt lat="41.0496317" lon="14.5991917"><ele>264.0</ele><time>2026-04-25T09:12:46.387Z</time></trkpt><trkpt lat="41.0496533" lon="14.5992867"><ele>264.0</ele><time>2026-04-25T09:12:47.384Z</time></trkpt><trkpt lat="41.0496767" lon="14.59938"><ele>264.0</ele><time>2026-04-25T09:12:48.384Z</time></trkpt><trkpt lat="41.0497017" lon="14.5994717"><ele>264.0</ele><time>2026-04-25T09:12:49.384Z</time></trkpt><trkpt lat="41.0497283" lon="14.5995633"><ele>264.0</ele><time>2026-04-25T09:12:50.385Z</time></trkpt><trkpt lat="41.0497567" lon="14.5996533"><ele>264.0</ele><time>2026-04-25T09:12:51.384Z</time></trkpt><trkpt lat="41.0497783" lon="14.5997467"><ele>264.0</ele><time>2026-04-25T09:12:52.381Z</time></trkpt><trkpt lat="41.0498033" lon="14.5998383"><ele>264.0</ele><time>2026-04-25T09:12:53.384Z</time></trkpt><trkpt lat="41.049825" lon="14.59993"><ele>264.0</ele><time>2026-04-25T09:12:54.383Z</time></trkpt><trkpt lat="41.0498483" lon="14.6000267"><ele>264.0</ele><time>2026-04-25T09:12:55.383Z</time></trkpt><trkpt lat="41.0498717" lon="14.6001267"><ele>264.0</ele><time>2026-04-25T09:12:56.382Z</time></trkpt><trkpt lat="41.049895" lon="14.600225"><ele>264.0</ele><time>2026-04-25T09:12:57.383Z</time></trkpt><trkpt lat="41.0499217" lon="14.6003217"><ele>264.0</ele><time>2026-04-25T09:12:58.382Z</time></trkpt><trkpt lat="41.0499433" lon="14.6004217"><ele>264.0</ele><time>2026-04-25T09:12:59.383Z</time></trkpt><trkpt lat="41.0499667" lon="14.6005233"><ele>264.0</ele><time>2026-04-25T09:13:00.382Z</time></trkpt><trkpt lat="41.0499933" lon="14.6006217"><ele>264.0</ele><time>2026-04-25T09:13:01.383Z</time></trkpt><trkpt lat="41.050015" lon="14.6007233"><ele>264.0</ele><time>2026-04-25T09:13:02.384Z</time></trkpt><trkpt lat="41.0500283" lon="14.60083"><ele>264.1666666666667</ele><time>2026-04-25T09:13:03.384Z</time></trkpt><trkpt lat="41.0500483" lon="14.60093"><ele>264.3333333333333</ele><time>2026-04-25T09:13:04.382Z</time></trkpt><trkpt lat="41.05007" lon="14.6010283"><ele>264.5</ele><time>2026-04-25T09:13:05.384Z</time></trkpt><trkpt lat="41.0500933" lon="14.6011267"><ele>264.66666666666663</ele><time>2026-04-25T09:13:06.385Z</time></trkpt><trkpt lat="41.0501133" lon="14.6012233"><ele>264.8333333333333</ele><time>2026-04-25T09:13:07.383Z</time></trkpt><trkpt lat="41.0501333" lon="14.6013267"><ele>265.0</ele><time>2026-04-25T09:13:08.384Z</time></trkpt><trkpt lat="41.0501583" lon="14.6014283"><ele>265.16666666666663</ele><time>2026-04-25T09:13:09.385Z</time></trkpt><trkpt lat="41.05019" lon="14.601525"><ele>265.3333333333333</ele><time>2026-04-25T09:13:10.383Z</time></trkpt><trkpt lat="41.0502233" lon="14.6016217"><ele>265.5</ele><time>2026-04-25T09:13:11.384Z</time></trkpt><trkpt lat="41.05025" lon="14.6017233"><ele>265.6666666666667</ele><time>2026-04-25T09:13:12.384Z</time></trkpt><trkpt lat="41.0502733" lon="14.6018217"><ele>265.83333333333337</ele><time>2026-04-25T09:13:13.384Z</time></trkpt><trkpt lat="41.0503017" lon="14.6019183"><ele>266.0</ele><time>2026-04-25T09:13:14.382Z</time></trkpt><trkpt lat="41.0503233" lon="14.6020183"><ele>266.0</ele><time>2026-04-25T09:13:15.384Z</time></trkpt><trkpt lat="41.05035" lon="14.6021217"><ele>266.0</ele><time>2026-04-25T09:13:16.383Z</time></trkpt><trkpt lat="41.0503783" lon="14.6022217"><ele>266.0</ele><time>2026-04-25T09:13:17.383Z</time></trkpt><trkpt lat="41.050405" lon="14.6023217"><ele>266.0</ele><time>2026-04-25T09:13:18.383Z</time></trkpt><trkpt lat="41.0504317" lon="14.6024217"><ele>266.0</ele><time>2026-04-25T09:13:19.385Z</time></trkpt><trkpt lat="41.0504583" lon="14.6025183"><ele>266.0</ele><time>2026-04-25T09:13:20.385Z</time></trkpt><trkpt lat="41.0504817" lon="14.6026167"><ele>266.0</ele><time>2026-04-25T09:13:21.384Z</time></trkpt><trkpt lat="41.0505067" lon="14.60271"><ele>266.0</ele><time>2026-04-25T09:13:22.384Z</time></trkpt><trkpt lat="41.0505267" lon="14.6028117"><ele>266.0</ele><time>2026-04-25T09:13:23.384Z</time></trkpt><trkpt lat="41.0505533" lon="14.6029117"><ele>266.0</ele><time>2026-04-25T09:13:24.384Z</time></trkpt><trkpt lat="41.0505783" lon="14.6030117"><ele>266.0</ele><time>2026-04-25T09:13:25.384Z</time></trkpt><trkpt lat="41.050605" lon="14.6031117"><ele>266.0</ele><time>2026-04-25T09:13:26.383Z</time></trkpt><trkpt lat="41.05063" lon="14.603215"><ele>266.0</ele><time>2026-04-25T09:13:27.384Z</time></trkpt><trkpt lat="41.0506567" lon="14.603315"><ele>266.0</ele><time>2026-04-25T09:13:28.382Z</time></trkpt><trkpt lat="41.050685" lon="14.603415"><ele>266.0</ele><time>2026-04-25T09:13:29.383Z</time></trkpt><trkpt lat="41.05071" lon="14.6035167"><ele>266.0</ele><time>2026-04-25T09:13:30.384Z</time></trkpt><trkpt lat="41.0507333" lon="14.6036167"><ele>266.0</ele><time>2026-04-25T09:13:31.385Z</time></trkpt><trkpt lat="41.0507583" lon="14.6037183"><ele>266.0</ele><time>2026-04-25T09:13:32.385Z</time></trkpt><trkpt lat="41.0507833" lon="14.6038233"><ele>266.1666666666667</ele><time>2026-04-25T09:13:33.383Z</time></trkpt><trkpt lat="41.05081" lon="14.603925"><ele>266.33333333333337</ele><time>2026-04-25T09:13:34.383Z</time></trkpt><trkpt lat="41.050835" lon="14.6040233"><ele>266.5</ele><time>2026-04-25T09:13:35.385Z</time></trkpt><trkpt lat="41.05086" lon="14.6041183"><ele>266.6666666666667</ele><time>2026-04-25T09:13:36.384Z</time></trkpt><trkpt lat="41.0508833" lon="14.6042167"><ele>266.8333333333333</ele><time>2026-04-25T09:13:37.384Z</time></trkpt><trkpt lat="41.0509083" lon="14.6043133"><ele>267.0</ele><time>2026-04-25T09:13:38.383Z</time></trkpt><trkpt lat="41.0509383" lon="14.60441"><ele>267.0</ele><time>2026-04-25T09:13:39.384Z</time></trkpt><trkpt lat="41.0509683" lon="14.6045067"><ele>267.0</ele><time>2026-04-25T09:13:40.382Z</time></trkpt><trkpt lat="41.0509933" lon="14.604605"><ele>267.0</ele><time>2026-04-25T09:13:41.385Z</time></trkpt><trkpt lat="41.051015" lon="14.604705"><ele>267.0</ele><time>2026-04-25T09:13:42.382Z</time></trkpt><trkpt lat="41.0510383" lon="14.6048033"><ele>267.0</ele><time>2026-04-25T09:13:43.384Z</time></trkpt><trkpt lat="41.05106" lon="14.6049"><ele>267.0</ele><time>2026-04-25T09:13:44.384Z</time></trkpt><trkpt lat="41.051085" lon="14.6049967"><ele>267.0</ele><time>2026-04-25T09:13:45.381Z</time></trkpt><trkpt lat="41.0511083" lon="14.6050917"><ele>267.0</ele><time>2026-04-25T09:13:46.382Z</time></trkpt><trkpt lat="41.0511333" lon="14.6051883"><ele>267.0</ele><time>2026-04-25T09:13:47.383Z</time></trkpt><trkpt lat="41.0511567" lon="14.6052833"><ele>267.0</ele><time>2026-04-25T09:13:48.385Z</time></trkpt><trkpt lat="41.05118" lon="14.6053783"><ele>267.0</ele><time>2026-04-25T09:13:49.384Z</time></trkpt><trkpt lat="41.0512033" lon="14.6054733"><ele>267.0</ele><time>2026-04-25T09:13:50.385Z</time></trkpt><trkpt lat="41.051225" lon="14.6055667"><ele>266.8333333333333</ele><time>2026-04-25T09:13:51.384Z</time></trkpt><trkpt lat="41.0512533" lon="14.6056667"><ele>266.6666666666667</ele><time>2026-04-25T09:13:52.386Z</time></trkpt><trkpt lat="41.0512783" lon="14.6057633"><ele>266.5</ele><time>2026-04-25T09:13:53.382Z</time></trkpt><trkpt lat="41.0513033" lon="14.60586"><ele>266.33333333333337</ele><time>2026-04-25T09:13:54.385Z</time></trkpt><trkpt lat="41.051325" lon="14.6059583"><ele>266.1666666666667</ele><time>2026-04-25T09:13:55.384Z</time></trkpt><trkpt lat="41.0513517" lon="14.6060533"><ele>266.0</ele><time>2026-04-25T09:13:56.385Z</time></trkpt><trkpt lat="41.0513733" lon="14.6061483"><ele>265.83333333333337</ele><time>2026-04-25T09:13:57.383Z</time></trkpt><trkpt lat="41.0513983" lon="14.6062433"><ele>265.6666666666667</ele><time>2026-04-25T09:13:58.384Z</time></trkpt><trkpt lat="41.0514217" lon="14.60634"><ele>265.5</ele><time>2026-04-25T09:13:59.385Z</time></trkpt><trkpt lat="41.051445" lon="14.606435"><ele>265.3333333333333</ele><time>2026-04-25T09:14:00.384Z</time></trkpt><trkpt lat="41.0514683" lon="14.60653"><ele>265.16666666666663</ele><time>2026-04-25T09:14:01.383Z</time></trkpt><trkpt lat="41.0514917" lon="14.6066267"><ele>265.0</ele><time>2026-04-25T09:14:02.382Z</time></trkpt><trkpt lat="41.0515133" lon="14.6067217"><ele>265.0</ele><time>2026-04-25T09:14:03.384Z</time></trkpt><trkpt lat="41.0515367" lon="14.6068167"><ele>265.0</ele><time>2026-04-25T09:14:04.383Z</time></trkpt><trkpt lat="41.05156" lon="14.6069167"><ele>265.0</ele><time>2026-04-25T09:14:05.384Z</time></trkpt><trkpt lat="41.0515883" lon="14.6070183"><ele>265.0</ele><time>2026-04-25T09:14:06.384Z</time></trkpt><trkpt lat="41.051615" lon="14.6071167"><ele>265.0</ele><time>2026-04-25T09:14:07.382Z</time></trkpt><trkpt lat="41.0516433" lon="14.607215"><ele>265.0</ele><time>2026-04-25T09:14:08.383Z</time></trkpt><trkpt lat="41.051665" lon="14.60731"><ele>265.3333333333333</ele><time>2026-04-25T09:14:09.384Z</time></trkpt><trkpt lat="41.0516933" lon="14.607405"><ele>265.66666666666663</ele><time>2026-04-25T09:14:10.384Z</time></trkpt><trkpt lat="41.05172" lon="14.6075033"><ele>266.0</ele><time>2026-04-25T09:14:11.385Z</time></trkpt><trkpt lat="41.0517467" lon="14.6076033"><ele>266.3333333333333</ele><time>2026-04-25T09:14:12.384Z</time></trkpt><trkpt lat="41.0517717" lon="14.6077017"><ele>266.6666666666667</ele><time>2026-04-25T09:14:13.384Z</time></trkpt><trkpt lat="41.0517967" lon="14.6078"><ele>267.0</ele><time>2026-04-25T09:14:14.383Z</time></trkpt><trkpt lat="41.05182" lon="14.6078983"><ele>267.0</ele><time>2026-04-25T09:14:15.384Z</time></trkpt><trkpt lat="41.051845" lon="14.6079967"><ele>267.0</ele><time>2026-04-25T09:14:16.384Z</time></trkpt><trkpt lat="41.0518683" lon="14.6080917"><ele>267.0</ele><time>2026-04-25T09:14:17.384Z</time></trkpt><trkpt lat="41.05189" lon="14.60819"><ele>267.0</ele><time>2026-04-25T09:14:18.383Z</time></trkpt><trkpt lat="41.051915" lon="14.6082833"><ele>267.0</ele><time>2026-04-25T09:14:19.382Z</time></trkpt><trkpt lat="41.05194" lon="14.60838"><ele>267.0</ele><time>2026-04-25T09:14:20.384Z</time></trkpt><trkpt lat="41.051965" lon="14.6084767"><ele>267.0</ele><time>2026-04-25T09:14:21.384Z</time></trkpt><trkpt lat="41.05199" lon="14.608575"><ele>267.0</ele><time>2026-04-25T09:14:22.383Z</time></trkpt><trkpt lat="41.0520133" lon="14.6086733"><ele>267.0</ele><time>2026-04-25T09:14:23.384Z</time></trkpt><trkpt lat="41.0520383" lon="14.6087667"><ele>267.0</ele><time>2026-04-25T09:14:24.383Z</time></trkpt><trkpt lat="41.0520617" lon="14.6088633"><ele>267.0</ele><time>2026-04-25T09:14:25.384Z</time></trkpt><trkpt lat="41.0520867" lon="14.6089583"><ele>267.0</ele><time>2026-04-25T09:14:26.384Z</time></trkpt><trkpt lat="41.05211" lon="14.6090533"><ele>267.1666666666667</ele><time>2026-04-25T09:14:27.384Z</time></trkpt><trkpt lat="41.0521333" lon="14.60915"><ele>267.3333333333333</ele><time>2026-04-25T09:14:28.382Z</time></trkpt><trkpt lat="41.0521583" lon="14.6092483"><ele>267.5</ele><time>2026-04-25T09:14:29.383Z</time></trkpt><trkpt lat="41.0521833" lon="14.6093483"><ele>267.66666666666663</ele><time>2026-04-25T09:14:30.385Z</time></trkpt><trkpt lat="41.0522067" lon="14.609445"><ele>267.8333333333333</ele><time>2026-04-25T09:14:31.383Z</time></trkpt><trkpt lat="41.05223" lon="14.60954"><ele>268.0</ele><time>2026-04-25T09:14:32.384Z</time></trkpt><trkpt lat="41.052255" lon="14.6096367"><ele>268.16666666666663</ele><time>2026-04-25T09:14:33.384Z</time></trkpt><trkpt lat="41.0522817" lon="14.60973"><ele>268.3333333333333</ele><time>2026-04-25T09:14:34.382Z</time></trkpt><trkpt lat="41.0523067" lon="14.609825"><ele>268.5</ele><time>2026-04-25T09:14:35.383Z</time></trkpt><trkpt lat="41.0523317" lon="14.60992"><ele>268.6666666666667</ele><time>2026-04-25T09:14:36.385Z</time></trkpt><trkpt lat="41.0523533" lon="14.6100183"><ele>268.83333333333337</ele><time>2026-04-25T09:14:37.384Z</time></trkpt><trkpt lat="41.0523783" lon="14.610115"><ele>269.0</ele><time>2026-04-25T09:14:38.385Z</time></trkpt><trkpt lat="41.0524033" lon="14.6102133"><ele>269.0</ele><time>2026-04-25T09:14:39.383Z</time></trkpt><trkpt lat="41.05243" lon="14.6103067"><ele>269.0</ele><time>2026-04-25T09:14:40.384Z</time></trkpt><trkpt lat="41.052455" lon="14.6104"><ele>269.0</ele><time>2026-04-25T09:14:41.383Z</time></trkpt><trkpt lat="41.05248" lon="14.6104933"><ele>269.0</ele><time>2026-04-25T09:14:42.382Z</time></trkpt><trkpt lat="41.0525033" lon="14.6105867"><ele>269.0</ele><time>2026-04-25T09:14:43.382Z</time></trkpt><trkpt lat="41.0525233" lon="14.61068"><ele>269.0</ele><time>2026-04-25T09:14:44.384Z</time></trkpt><trkpt lat="41.052545" lon="14.610775"><ele>269.0</ele><time>2026-04-25T09:14:45.385Z</time></trkpt><trkpt lat="41.0525683" lon="14.6108683"><ele>269.0</ele><time>2026-04-25T09:14:46.384Z</time></trkpt><trkpt lat="41.0525917" lon="14.61096"><ele>269.0</ele><time>2026-04-25T09:14:47.384Z</time></trkpt><trkpt lat="41.0526167" lon="14.6110483"><ele>269.0</ele><time>2026-04-25T09:14:48.384Z</time></trkpt><trkpt lat="41.0526417" lon="14.6111383"><ele>269.0</ele><time>2026-04-25T09:14:49.383Z</time></trkpt><trkpt lat="41.0526667" lon="14.6112283"><ele>269.0</ele><time>2026-04-25T09:14:50.384Z</time></trkpt><trkpt lat="41.0526917" lon="14.6113217"><ele>269.0</ele><time>2026-04-25T09:14:51.383Z</time></trkpt><trkpt lat="41.0527183" lon="14.6114133"><ele>269.0</ele><time>2026-04-25T09:14:52.383Z</time></trkpt><trkpt lat="41.0527433" lon="14.6115067"><ele>269.2857142857143</ele><time>2026-04-25T09:14:53.385Z</time></trkpt><trkpt lat="41.0527667" lon="14.6116"><ele>269.5714285714286</ele><time>2026-04-25T09:14:54.383Z</time></trkpt><trkpt lat="41.0527883" lon="14.6116933"><ele>269.8571428571429</ele><time>2026-04-25T09:14:55.384Z</time></trkpt><trkpt lat="41.0528133" lon="14.6117883"><ele>270.14285714285717</ele><time>2026-04-25T09:14:56.383Z</time></trkpt><trkpt lat="41.0528367" lon="14.6118833"><ele>270.42857142857144</ele><time>2026-04-25T09:14:57.384Z</time></trkpt><trkpt lat="41.0528617" lon="14.611975"><ele>270.7142857142857</ele><time>2026-04-25T09:14:58.383Z</time></trkpt><trkpt lat="41.0528867" lon="14.612065"><ele>271.0</ele><time>2026-04-25T09:14:59.384Z</time></trkpt><trkpt lat="41.0529083" lon="14.612165"><ele>271.0</ele><time>2026-04-25T09:15:00.383Z</time></trkpt><trkpt lat="41.0529283" lon="14.612265"><ele>271.0</ele><time>2026-04-25T09:15:01.383Z</time></trkpt><trkpt lat="41.0529533" lon="14.6123683"><ele>271.0</ele><time>2026-04-25T09:15:02.384Z</time></trkpt><trkpt lat="41.0529767" lon="14.6124683"><ele>271.0</ele><time>2026-04-25T09:15:03.384Z</time></trkpt><trkpt lat="41.0530017" lon="14.61256"><ele>271.0</ele><time>2026-04-25T09:15:04.386Z</time></trkpt><trkpt lat="41.053025" lon="14.6126533"><ele>271.0</ele><time>2026-04-25T09:15:05.384Z</time></trkpt><trkpt lat="41.053045" lon="14.6127483"><ele>271.2857142857143</ele><time>2026-04-25T09:15:06.384Z</time></trkpt><trkpt lat="41.05307" lon="14.61284"><ele>271.57142857142856</ele><time>2026-04-25T09:15:07.384Z</time></trkpt><trkpt lat="41.0530967" lon="14.6129317"><ele>271.8571428571429</ele><time>2026-04-25T09:15:08.383Z</time></trkpt><trkpt lat="41.0531183" lon="14.6130267"><ele>272.1428571428571</ele><time>2026-04-25T09:15:09.385Z</time></trkpt><trkpt lat="41.05314" lon="14.6131217"><ele>272.42857142857144</ele><time>2026-04-25T09:15:10.383Z</time></trkpt><trkpt lat="41.0531617" lon="14.613215"><ele>272.7142857142857</ele><time>2026-04-25T09:15:11.385Z</time></trkpt><trkpt lat="41.053185" lon="14.61331"><ele>273.0</ele><time>2026-04-25T09:15:12.385Z</time></trkpt><trkpt lat="41.0532117" lon="14.6134083"><ele>273.0</ele><time>2026-04-25T09:15:13.384Z</time></trkpt><trkpt lat="41.0532383" lon="14.6135017"><ele>273.0</ele><time>2026-04-25T09:15:14.385Z</time></trkpt><trkpt lat="41.05326" lon="14.6135933"><ele>273.0</ele><time>2026-04-25T09:15:15.384Z</time></trkpt><trkpt lat="41.0532817" lon="14.6136867"><ele>273.0</ele><time>2026-04-25T09:15:16.384Z</time></trkpt><trkpt lat="41.0533017" lon="14.613785"><ele>273.0</ele><time>2026-04-25T09:15:17.382Z</time></trkpt><trkpt lat="41.053325" lon="14.6138817"><ele>273.0</ele><time>2026-04-25T09:15:18.383Z</time></trkpt><trkpt lat="41.0533517" lon="14.6139783"><ele>272.6666666666667</ele><time>2026-04-25T09:15:19.384Z</time></trkpt><trkpt lat="41.0533783" lon="14.6140733"><ele>272.3333333333333</ele><time>2026-04-25T09:15:20.385Z</time></trkpt><trkpt lat="41.053405" lon="14.6141667"><ele>272.0</ele><time>2026-04-25T09:15:21.382Z</time></trkpt><trkpt lat="41.0534317" lon="14.6142633"><ele>271.66666666666663</ele><time>2026-04-25T09:15:22.381Z</time></trkpt><trkpt lat="41.0534567" lon="14.6143583"><ele>271.3333333333333</ele><time>2026-04-25T09:15:23.384Z</time></trkpt><trkpt lat="41.0534817" lon="14.6144517"><ele>271.0</ele><time>2026-04-25T09:15:24.384Z</time></trkpt><trkpt lat="41.0535067" lon="14.6145483"><ele>271.0</ele><time>2026-04-25T09:15:25.383Z</time></trkpt><trkpt lat="41.0535333" lon="14.614645"><ele>271.0</ele><time>2026-04-25T09:15:26.385Z</time></trkpt><trkpt lat="41.0535583" lon="14.6147417"><ele>271.0</ele><time>2026-04-25T09:15:27.385Z</time></trkpt><trkpt lat="41.053585" lon="14.6148383"><ele>271.0</ele><time>2026-04-25T09:15:28.383Z</time></trkpt><trkpt lat="41.0536117" lon="14.6149333"><ele>271.0</ele><time>2026-04-25T09:15:29.385Z</time></trkpt><trkpt lat="41.0536383" lon="14.6150317"><ele>271.0</ele><time>2026-04-25T09:15:30.383Z</time></trkpt><trkpt lat="41.0536633" lon="14.6151267"><ele>271.0</ele><time>2026-04-25T09:15:31.383Z</time></trkpt><trkpt lat="41.0536867" lon="14.615225"><ele>271.0</ele><time>2026-04-25T09:15:32.384Z</time></trkpt><trkpt lat="41.0537117" lon="14.61532"><ele>271.0</ele><time>2026-04-25T09:15:33.384Z</time></trkpt><trkpt lat="41.053735" lon="14.615415"><ele>271.0</ele><time>2026-04-25T09:15:34.382Z</time></trkpt><trkpt lat="41.05376" lon="14.61551"><ele>271.0</ele><time>2026-04-25T09:15:35.384Z</time></trkpt><trkpt lat="41.053785" lon="14.6156067"><ele>271.0</ele><time>2026-04-25T09:15:36.385Z</time></trkpt><trkpt lat="41.0538067" lon="14.6157017"><ele>271.0</ele><time>2026-04-25T09:15:37.383Z</time></trkpt><trkpt lat="41.0538283" lon="14.6157983"><ele>271.0</ele><time>2026-04-25T09:15:38.387Z</time></trkpt><trkpt lat="41.0538517" lon="14.6158933"><ele>271.0</ele><time>2026-04-25T09:15:39.385Z</time></trkpt><trkpt lat="41.05388" lon="14.6159833"><ele>271.0</ele><time>2026-04-25T09:15:40.381Z</time></trkpt><trkpt lat="41.053905" lon="14.6160767"><ele>271.0</ele><time>2026-04-25T09:15:41.386Z</time></trkpt><trkpt lat="41.05393" lon="14.6161717"><ele>271.0</ele><time>2026-04-25T09:15:42.386Z</time></trkpt><trkpt lat="41.0539533" lon="14.6162683"><ele>271.0</ele><time>2026-04-25T09:15:43.385Z</time></trkpt><trkpt lat="41.0539767" lon="14.616365"><ele>271.0</ele><time>2026-04-25T09:15:44.383Z</time></trkpt><trkpt lat="41.054" lon="14.6164583"><ele>271.0</ele><time>2026-04-25T09:15:45.386Z</time></trkpt><trkpt lat="41.054025" lon="14.61655"><ele>271.0</ele><time>2026-04-25T09:15:46.386Z</time></trkpt><trkpt lat="41.0540467" lon="14.61664"><ele>271.0</ele><time>2026-04-25T09:15:47.386Z</time></trkpt><trkpt lat="41.0540683" lon="14.6167283"><ele>271.0</ele><time>2026-04-25T09:15:48.383Z</time></trkpt><trkpt lat="41.0540883" lon="14.6168117"><ele>271.0</ele><time>2026-04-25T09:15:49.386Z</time></trkpt><trkpt lat="41.05411" lon="14.6168917"><ele>271.16666666666663</ele><time>2026-04-25T09:15:50.384Z</time></trkpt><trkpt lat="41.0541517" lon="14.6170483"><ele>271.3333333333333</ele><time>2026-04-25T09:15:52.386Z</time></trkpt><trkpt lat="41.0541767" lon="14.617125"><ele>271.5</ele><time>2026-04-25T09:15:53.384Z</time></trkpt><trkpt lat="41.0542017" lon="14.6172067"><ele>271.6666666666667</ele><time>2026-04-25T09:15:54.385Z</time></trkpt><trkpt lat="41.054225" lon="14.61729"><ele>271.83333333333337</ele><time>2026-04-25T09:15:55.384Z</time></trkpt><trkpt lat="41.0542467" lon="14.61737"><ele>272.0</ele><time>2026-04-25T09:15:56.383Z</time></trkpt><trkpt lat="41.054265" lon="14.6174517"><ele>271.99999999999994</ele><time>2026-04-25T09:15:57.384Z</time></trkpt><trkpt lat="41.054285" lon="14.6175317"><ele>272.0</ele><time>2026-04-25T09:15:58.382Z</time></trkpt><trkpt lat="41.0543033" lon="14.6176117"><ele>272.0</ele><time>2026-04-25T09:15:59.384Z</time></trkpt><trkpt lat="41.054325" lon="14.6176917"><ele>272.0</ele><time>2026-04-25T09:16:00.385Z</time></trkpt><trkpt lat="41.054345" lon="14.6177717"><ele>272.0</ele><time>2026-04-25T09:16:01.384Z</time></trkpt><trkpt lat="41.054365" lon="14.6178517"><ele>271.99999999999994</ele><time>2026-04-25T09:16:02.384Z</time></trkpt><trkpt lat="41.0544067" lon="14.6180117"><ele>272.0</ele><time>2026-04-25T09:16:04.386Z</time></trkpt><trkpt lat="41.05443" lon="14.6180917"><ele>272.1428571428571</ele><time>2026-04-25T09:16:05.386Z</time></trkpt><trkpt lat="41.05445" lon="14.618175"><ele>272.2857142857143</ele><time>2026-04-25T09:16:06.383Z</time></trkpt><trkpt lat="41.0544717" lon="14.6182583"><ele>272.42857142857144</ele><time>2026-04-25T09:16:07.384Z</time></trkpt><trkpt lat="41.0544933" lon="14.6183417"><ele>272.57142857142856</ele><time>2026-04-25T09:16:08.384Z</time></trkpt><trkpt lat="41.0545133" lon="14.6184233"><ele>272.7142857142857</ele><time>2026-04-25T09:16:09.385Z</time></trkpt><trkpt lat="41.054535" lon="14.6185033"><ele>272.85714285714283</ele><time>2026-04-25T09:16:10.384Z</time></trkpt><trkpt lat="41.0545583" lon="14.618585"><ele>273.0</ele><time>2026-04-25T09:16:11.383Z</time></trkpt><trkpt lat="41.0545817" lon="14.61867"><ele>273.0</ele><time>2026-04-25T09:16:12.384Z</time></trkpt><trkpt lat="41.0546017" lon="14.6187533"><ele>273.0</ele><time>2026-04-25T09:16:13.384Z</time></trkpt><trkpt lat="41.054625" lon="14.6188367"><ele>273.0</ele><time>2026-04-25T09:16:14.384Z</time></trkpt><trkpt lat="41.0546483" lon="14.6189233"><ele>273.0</ele><time>2026-04-25T09:16:15.386Z</time></trkpt><trkpt lat="41.05467" lon="14.6190083"><ele>273.0</ele><time>2026-04-25T09:16:16.384Z</time></trkpt><trkpt lat="41.0546917" lon="14.6190933"><ele>273.0</ele><time>2026-04-25T09:16:17.383Z</time></trkpt><trkpt lat="41.0547133" lon="14.6191783"><ele>273.0</ele><time>2026-04-25T09:16:18.384Z</time></trkpt><trkpt lat="41.0547333" lon="14.61926"><ele>273.0</ele><time>2026-04-25T09:16:19.384Z</time></trkpt><trkpt lat="41.05475" lon="14.6193467"><ele>273.0</ele><time>2026-04-25T09:16:20.386Z</time></trkpt><trkpt lat="41.0547683" lon="14.6194333"><ele>273.0</ele><time>2026-04-25T09:16:21.385Z</time></trkpt><trkpt lat="41.0547883" lon="14.6195233"><ele>273.0</ele><time>2026-04-25T09:16:22.384Z</time></trkpt><trkpt lat="41.05481" lon="14.6196133"><ele>273.0</ele><time>2026-04-25T09:16:23.385Z</time></trkpt><trkpt lat="41.0548333" lon="14.6197017"><ele>273.0</ele><time>2026-04-25T09:16:24.385Z</time></trkpt><trkpt lat="41.0548583" lon="14.6197917"><ele>273.0</ele><time>2026-04-25T09:16:25.384Z</time></trkpt><trkpt lat="41.0548833" lon="14.61988"><ele>273.3333333333333</ele><time>2026-04-25T09:16:26.383Z</time></trkpt><trkpt lat="41.05491" lon="14.6199617"><ele>273.6666666666667</ele><time>2026-04-25T09:16:27.384Z</time></trkpt><trkpt lat="41.0549333" lon="14.6200417"><ele>274.0</ele><time>2026-04-25T09:16:28.383Z</time></trkpt><trkpt lat="41.0549583" lon="14.62012"><ele>274.33333333333337</ele><time>2026-04-25T09:16:29.384Z</time></trkpt><trkpt lat="41.0550017" lon="14.6202583"><ele>274.6666666666667</ele><time>2026-04-25T09:16:31.382Z</time></trkpt><trkpt lat="41.0550283" lon="14.6203983"><ele>275.0</ele><time>2026-04-25T09:16:33.383Z</time></trkpt><trkpt lat="41.0550433" lon="14.62055"><ele>275.0</ele><time>2026-04-25T09:16:35.384Z</time></trkpt><trkpt lat="41.0550383" lon="14.6207183"><ele>275.0</ele><time>2026-04-25T09:16:37.381Z</time></trkpt><trkpt lat="41.0550317" lon="14.6208033"><ele>275.0</ele><time>2026-04-25T09:16:38.383Z</time></trkpt><trkpt lat="41.05502" lon="14.6208883"><ele>275.0</ele><time>2026-04-25T09:16:39.384Z</time></trkpt><trkpt lat="41.0549983" lon="14.6209717"><ele>275.0</ele><time>2026-04-25T09:16:40.383Z</time></trkpt><trkpt lat="41.0549783" lon="14.62106"><ele>275.0</ele><time>2026-04-25T09:16:41.384Z</time></trkpt><trkpt lat="41.0549633" lon="14.6211433"><ele>275.0</ele><time>2026-04-25T09:16:42.383Z</time></trkpt><trkpt lat="41.054985" lon="14.6212883"><ele>275.0</ele><time>2026-04-25T09:16:44.384Z</time></trkpt><trkpt lat="41.0550783" lon="14.621375"><ele>275.0</ele><time>2026-04-25T09:16:46.386Z</time></trkpt><trkpt lat="41.055175" lon="14.6214517"><ele>275.0</ele><time>2026-04-25T09:16:48.383Z</time></trkpt><trkpt lat="41.0552667" lon="14.6215483"><ele>275.0</ele><time>2026-04-25T09:16:50.384Z</time></trkpt><trkpt lat="41.0553433" lon="14.6216633"><ele>275.0</ele><time>2026-04-25T09:16:52.382Z</time></trkpt><trkpt lat="41.0553917" lon="14.6218083"><ele>275.0</ele><time>2026-04-25T09:16:54.385Z</time></trkpt><trkpt lat="41.0554283" lon="14.6219533"><ele>275.0</ele><time>2026-04-25T09:16:56.384Z</time></trkpt><trkpt lat="41.0554683" lon="14.6221"><ele>275.4</ele><time>2026-04-25T09:16:58.384Z</time></trkpt><trkpt lat="41.0555083" lon="14.6222533"><ele>275.8</ele><time>2026-04-25T09:17:00.383Z</time></trkpt><trkpt lat="41.0555483" lon="14.6224083"><ele>276.2</ele><time>2026-04-25T09:17:02.384Z</time></trkpt><trkpt lat="41.05557" lon="14.6224867"><ele>276.6</ele><time>2026-04-25T09:17:03.383Z</time></trkpt><trkpt lat="41.055615" lon="14.62264"><ele>277.0</ele><time>2026-04-25T09:17:05.385Z</time></trkpt><trkpt lat="41.055655" lon="14.62279"><ele>277.0</ele><time>2026-04-25T09:17:07.384Z</time></trkpt><trkpt lat="41.0556933" lon="14.6229333"><ele>277.0</ele><time>2026-04-25T09:17:09.384Z</time></trkpt><trkpt lat="41.0557317" lon="14.6230817"><ele>277.0</ele><time>2026-04-25T09:17:11.384Z</time></trkpt><trkpt lat="41.055775" lon="14.6232267"><ele>277.0</ele><time>2026-04-25T09:17:13.385Z</time></trkpt><trkpt lat="41.0558083" lon="14.62338"><ele>277.0</ele><time>2026-04-25T09:17:15.385Z</time></trkpt><trkpt lat="41.0558433" lon="14.6235383"><ele>277.0</ele><time>2026-04-25T09:17:17.384Z</time></trkpt><trkpt lat="41.0558883" lon="14.6236867"><ele>277.0</ele><time>2026-04-25T09:17:19.384Z</time></trkpt><trkpt lat="41.055925" lon="14.623845"><ele>277.0</ele><time>2026-04-25T09:17:21.385Z</time></trkpt><trkpt lat="41.0559467" lon="14.6239267"><ele>277.0</ele><time>2026-04-25T09:17:22.383Z</time></trkpt><trkpt lat="41.0559717" lon="14.6240067"><ele>277.1428571428571</ele><time>2026-04-25T09:17:23.383Z</time></trkpt><trkpt lat="41.0559967" lon="14.624085"><ele>277.2857142857143</ele><time>2026-04-25T09:17:24.384Z</time></trkpt><trkpt lat="41.056015" lon="14.6241667"><ele>277.42857142857144</ele><time>2026-04-25T09:17:25.384Z</time></trkpt><trkpt lat="41.0560367" lon="14.6242467"><ele>277.57142857142856</ele><time>2026-04-25T09:17:26.383Z</time></trkpt><trkpt lat="41.0560567" lon="14.62433"><ele>277.7142857142857</ele><time>2026-04-25T09:17:27.385Z</time></trkpt><trkpt lat="41.056075" lon="14.6244117"><ele>277.85714285714283</ele><time>2026-04-25T09:17:28.384Z</time></trkpt><trkpt lat="41.056095" lon="14.624495"><ele>278.0</ele><time>2026-04-25T09:17:29.385Z</time></trkpt><trkpt lat="41.0561133" lon="14.62458"><ele>278.2857142857143</ele><time>2026-04-25T09:17:30.384Z</time></trkpt><trkpt lat="41.0561317" lon="14.624665"><ele>278.57142857142856</ele><time>2026-04-25T09:17:31.384Z</time></trkpt><trkpt lat="41.0561483" lon="14.6247483"><ele>278.8571428571429</ele><time>2026-04-25T09:17:32.383Z</time></trkpt><trkpt lat="41.0561667" lon="14.6248317"><ele>279.1428571428571</ele><time>2026-04-25T09:17:33.385Z</time></trkpt><trkpt lat="41.0561833" lon="14.6249167"><ele>279.42857142857144</ele><time>2026-04-25T09:17:34.384Z</time></trkpt><trkpt lat="41.0562" lon="14.6250017"><ele>279.7142857142857</ele><time>2026-04-25T09:17:35.384Z</time></trkpt><trkpt lat="41.05622" lon="14.6250883"><ele>280.0</ele><time>2026-04-25T09:17:36.384Z</time></trkpt><trkpt lat="41.0562367" lon="14.6251717"><ele>280.0</ele><time>2026-04-25T09:17:37.384Z</time></trkpt><trkpt lat="41.0562567" lon="14.6252567"><ele>280.0</ele><time>2026-04-25T09:17:38.385Z</time></trkpt><trkpt lat="41.0562583" lon="14.62542"><ele>280.0</ele><time>2026-04-25T09:17:40.386Z</time></trkpt><trkpt lat="41.0562767" lon="14.6255033"><ele>280.0</ele><time>2026-04-25T09:17:41.382Z</time></trkpt><trkpt lat="41.0562983" lon="14.625585"><ele>280.0</ele><time>2026-04-25T09:17:42.384Z</time></trkpt><trkpt lat="41.05632" lon="14.6256667"><ele>280.0</ele><time>2026-04-25T09:17:43.385Z</time></trkpt><trkpt lat="41.05634" lon="14.6257483"><ele>280.0</ele><time>2026-04-25T09:17:44.385Z</time></trkpt><trkpt lat="41.056385" lon="14.6259067"><ele>280.0</ele><time>2026-04-25T09:17:46.383Z</time></trkpt><trkpt lat="41.05641" lon="14.625985"><ele>280.0</ele><time>2026-04-25T09:17:47.383Z</time></trkpt><trkpt lat="41.0564383" lon="14.626065"><ele>280.0</ele><time>2026-04-25T09:17:48.385Z</time></trkpt><trkpt lat="41.05646" lon="14.62615"><ele>280.0</ele><time>2026-04-25T09:17:49.385Z</time></trkpt><trkpt lat="41.0564817" lon="14.62624"><ele>280.0</ele><time>2026-04-25T09:17:50.384Z</time></trkpt><trkpt lat="41.056505" lon="14.6263267"><ele>279.85714285714283</ele><time>2026-04-25T09:17:51.384Z</time></trkpt><trkpt lat="41.0565283" lon="14.6264067"><ele>279.7142857142857</ele><time>2026-04-25T09:17:52.385Z</time></trkpt><trkpt lat="41.0565533" lon="14.6264883"><ele>279.57142857142856</ele><time>2026-04-25T09:17:53.383Z</time></trkpt><trkpt lat="41.056575" lon="14.6265733"><ele>279.42857142857144</ele><time>2026-04-25T09:17:54.384Z</time></trkpt><trkpt lat="41.0565967" lon="14.6266533"><ele>279.2857142857143</ele><time>2026-04-25T09:17:55.385Z</time></trkpt><trkpt lat="41.05662" lon="14.626735"><ele>279.1428571428571</ele><time>2026-04-25T09:17:56.385Z</time></trkpt><trkpt lat="41.056645" lon="14.6268133"><ele>279.0</ele><time>2026-04-25T09:17:57.385Z</time></trkpt><trkpt lat="41.0566667" lon="14.6268933"><ele>279.3333333333333</ele><time>2026-04-25T09:17:58.386Z</time></trkpt><trkpt lat="41.05669" lon="14.6269717"><ele>279.6666666666667</ele><time>2026-04-25T09:17:59.383Z</time></trkpt><trkpt lat="41.0567267" lon="14.62713"><ele>280.0</ele><time>2026-04-25T09:18:01.382Z</time></trkpt><trkpt lat="41.0567467" lon="14.62721"><ele>280.33333333333337</ele><time>2026-04-25T09:18:02.384Z</time></trkpt><trkpt lat="41.0567667" lon="14.62729"><ele>280.6666666666667</ele><time>2026-04-25T09:18:03.384Z</time></trkpt><trkpt lat="41.0568117" lon="14.627445"><ele>281.0</ele><time>2026-04-25T09:18:05.384Z</time></trkpt><trkpt lat="41.0568567" lon="14.6276017"><ele>281.0</ele><time>2026-04-25T09:18:07.384Z</time></trkpt><trkpt lat="41.0569083" lon="14.6277567"><ele>281.0</ele><time>2026-04-25T09:18:09.385Z</time></trkpt><trkpt lat="41.05693" lon="14.6278367"><ele>281.0</ele><time>2026-04-25T09:18:10.384Z</time></trkpt><trkpt lat="41.0569533" lon="14.6279167"><ele>281.0</ele><time>2026-04-25T09:18:11.385Z</time></trkpt><trkpt lat="41.056975" lon="14.6279983"><ele>281.0</ele><time>2026-04-25T09:18:12.384Z</time></trkpt><trkpt lat="41.0569967" lon="14.6280783"><ele>281.0</ele><time>2026-04-25T09:18:13.383Z</time></trkpt><trkpt lat="41.05702" lon="14.6281583"><ele>281.00000000000006</ele><time>2026-04-25T09:18:14.383Z</time></trkpt><trkpt lat="41.0570433" lon="14.6282367"><ele>281.0</ele><time>2026-04-25T09:18:15.382Z</time></trkpt><trkpt lat="41.0570667" lon="14.6283167"><ele>281.0</ele><time>2026-04-25T09:18:16.384Z</time></trkpt><trkpt lat="41.0570883" lon="14.6283967"><ele>281.0</ele><time>2026-04-25T09:18:17.383Z</time></trkpt><trkpt lat="41.0571367" lon="14.6285533"><ele>281.0</ele><time>2026-04-25T09:18:19.383Z</time></trkpt><trkpt lat="41.05716" lon="14.6286333"><ele>281.00000000000006</ele><time>2026-04-25T09:18:20.385Z</time></trkpt><trkpt lat="41.05718" lon="14.6287133"><ele>281.0</ele><time>2026-04-25T09:18:21.383Z</time></trkpt><trkpt lat="41.057225" lon="14.628865"><ele>281.0</ele><time>2026-04-25T09:18:23.385Z</time></trkpt><trkpt lat="41.0572883" lon="14.6290017"><ele>281.0</ele><time>2026-04-25T09:18:25.383Z</time></trkpt><trkpt lat="41.0573633" lon="14.629135"><ele>281.0</ele><time>2026-04-25T09:18:27.383Z</time></trkpt><trkpt lat="41.0573983" lon="14.629205"><ele>281.0</ele><time>2026-04-25T09:18:28.384Z</time></trkpt><trkpt lat="41.0574633" lon="14.62934"><ele>281.0</ele><time>2026-04-25T09:18:30.383Z</time></trkpt><trkpt lat="41.057515" lon="14.6294767"><ele>281.33333333333337</ele><time>2026-04-25T09:18:32.384Z</time></trkpt><trkpt lat="41.0575683" lon="14.6296083"><ele>281.6666666666667</ele><time>2026-04-25T09:18:34.382Z</time></trkpt><trkpt lat="41.0576533" lon="14.6297283"><ele>282.0</ele><time>2026-04-25T09:18:36.383Z</time></trkpt><trkpt lat="41.0577017" lon="14.6297867"><ele>282.3333333333333</ele><time>2026-04-25T09:18:37.382Z</time></trkpt><trkpt lat="41.0577517" lon="14.6298483"><ele>282.66666666666663</ele><time>2026-04-25T09:18:38.382Z</time></trkpt><trkpt lat="41.0577983" lon="14.629915"><ele>283.0</ele><time>2026-04-25T09:18:39.383Z</time></trkpt><trkpt lat="41.057845" lon="14.6299833"><ele>283.0</ele><time>2026-04-25T09:18:40.382Z</time></trkpt><trkpt lat="41.0578933" lon="14.6300483"><ele>283.0</ele><time>2026-04-25T09:18:41.383Z</time></trkpt><trkpt lat="41.0579383" lon="14.6301217"><ele>283.0</ele><time>2026-04-25T09:18:42.383Z</time></trkpt><trkpt lat="41.0579833" lon="14.6302"><ele>283.0</ele><time>2026-04-25T09:18:43.383Z</time></trkpt><trkpt lat="41.0580333" lon="14.63027"><ele>283.0</ele><time>2026-04-25T09:18:44.384Z</time></trkpt><trkpt lat="41.0580833" lon="14.6303417"><ele>283.0</ele><time>2026-04-25T09:18:45.383Z</time></trkpt><trkpt lat="41.0581317" lon="14.6304117"><ele>283.0</ele><time>2026-04-25T09:18:46.385Z</time></trkpt><trkpt lat="41.0581833" lon="14.6304783"><ele>283.0</ele><time>2026-04-25T09:18:47.386Z</time></trkpt><trkpt lat="41.0582333" lon="14.6305483"><ele>283.0</ele><time>2026-04-25T09:18:48.386Z</time></trkpt><trkpt lat="41.05828" lon="14.6306167"><ele>283.0</ele><time>2026-04-25T09:18:49.383Z</time></trkpt><trkpt lat="41.0583283" lon="14.6306883"><ele>283.0</ele><time>2026-04-25T09:18:50.387Z</time></trkpt><trkpt lat="41.0583767" lon="14.63076"><ele>283.0</ele><time>2026-04-25T09:18:51.386Z</time></trkpt><trkpt lat="41.0584267" lon="14.6308317"><ele>283.0</ele><time>2026-04-25T09:18:52.383Z</time></trkpt><trkpt lat="41.0584733" lon="14.6309033"><ele>283.0</ele><time>2026-04-25T09:18:53.384Z</time></trkpt><trkpt lat="41.0585233" lon="14.6309717"><ele>283.0</ele><time>2026-04-25T09:18:54.383Z</time></trkpt><trkpt lat="41.0585733" lon="14.631035"><ele>283.0</ele><time>2026-04-25T09:18:55.382Z</time></trkpt><trkpt lat="41.058625" lon="14.6311017"><ele>283.0</ele><time>2026-04-25T09:18:56.383Z</time></trkpt><trkpt lat="41.05868" lon="14.6311633"><ele>283.0</ele><time>2026-04-25T09:18:57.383Z</time></trkpt><trkpt lat="41.0587317" lon="14.63123"><ele>283.0</ele><time>2026-04-25T09:18:58.383Z</time></trkpt><trkpt lat="41.0587783" lon="14.6313067"><ele>283.0</ele><time>2026-04-25T09:18:59.384Z</time></trkpt><trkpt lat="41.058825" lon="14.6313867"><ele>283.0</ele><time>2026-04-25T09:19:00.385Z</time></trkpt><trkpt lat="41.058875" lon="14.6314633"><ele>283.0</ele><time>2026-04-25T09:19:01.382Z</time></trkpt><trkpt lat="41.0589267" lon="14.6315367"><ele>283.0</ele><time>2026-04-25T09:19:02.384Z</time></trkpt><trkpt lat="41.058975" lon="14.631605"><ele>283.0</ele><time>2026-04-25T09:19:03.384Z</time></trkpt><trkpt lat="41.059055" lon="14.6317017"><ele>283.0</ele><time>2026-04-25T09:19:05.386Z</time></trkpt><trkpt lat="41.0590983" lon="14.6317633"><ele>283.0</ele><time>2026-04-25T09:19:09.385Z</time></trkpt><trkpt lat="41.0591417" lon="14.6318467"><ele>283.0</ele><time>2026-04-25T09:19:13.386Z</time></trkpt><trkpt lat="41.0591983" lon="14.6319283"><ele>283.4</ele><time>2026-04-25T09:19:16.386Z</time></trkpt><trkpt lat="41.0592483" lon="14.6319983"><ele>283.8</ele><time>2026-04-25T09:19:18.384Z</time></trkpt><trkpt lat="41.0593" lon="14.6320917"><ele>284.2</ele><time>2026-04-25T09:19:20.384Z</time></trkpt><trkpt lat="41.0593683" lon="14.6321817"><ele>284.6</ele><time>2026-04-25T09:19:22.383Z</time></trkpt><trkpt lat="41.059445" lon="14.6322817"><ele>285.0</ele><time>2026-04-25T09:19:24.382Z</time></trkpt><trkpt lat="41.05953" lon="14.6323933"><ele>285.0</ele><time>2026-04-25T09:19:26.382Z</time></trkpt><trkpt lat="41.0596133" lon="14.6325083"><ele>285.0</ele><time>2026-04-25T09:19:28.384Z</time></trkpt><trkpt lat="41.059695" lon="14.6326283"><ele>285.0</ele><time>2026-04-25T09:19:30.384Z</time></trkpt><trkpt lat="41.05978" lon="14.632745"><ele>285.0</ele><time>2026-04-25T09:19:32.384Z</time></trkpt><trkpt lat="41.0598633" lon="14.6328617"><ele>284.8333333333333</ele><time>2026-04-25T09:19:34.383Z</time></trkpt><trkpt lat="41.0599433" lon="14.63299"><ele>284.6666666666667</ele><time>2026-04-25T09:19:36.384Z</time></trkpt><trkpt lat="41.059985" lon="14.6330567"><ele>284.5</ele><time>2026-04-25T09:19:37.383Z</time></trkpt><trkpt lat="41.06003" lon="14.6331183"><ele>284.33333333333337</ele><time>2026-04-25T09:19:38.384Z</time></trkpt><trkpt lat="41.0600767" lon="14.633175"><ele>284.1666666666667</ele><time>2026-04-25T09:19:39.383Z</time></trkpt><trkpt lat="41.0601267" lon="14.6332333"><ele>284.0</ele><time>2026-04-25T09:19:40.383Z</time></trkpt><trkpt lat="41.0601733" lon="14.6332917"><ele>284.0</ele><time>2026-04-25T09:19:41.385Z</time></trkpt><trkpt lat="41.06026" lon="14.6334067"><ele>284.0</ele><time>2026-04-25T09:19:43.382Z</time></trkpt><trkpt lat="41.06033" lon="14.6335267"><ele>284.0</ele><time>2026-04-25T09:19:45.385Z</time></trkpt><trkpt lat="41.0604033" lon="14.63363"><ele>284.0</ele><time>2026-04-25T09:19:47.382Z</time></trkpt><trkpt lat="41.0604817" lon="14.6337133"><ele>284.0</ele><time>2026-04-25T09:19:49.384Z</time></trkpt><trkpt lat="41.0605467" lon="14.6338033"><ele>284.1666666666667</ele><time>2026-04-25T09:19:51.385Z</time></trkpt><trkpt lat="41.0605883" lon="14.6339067"><ele>284.33333333333337</ele><time>2026-04-25T09:19:53.386Z</time></trkpt><trkpt lat="41.06059" lon="14.634"><ele>284.5</ele><time>2026-04-25T09:19:55.384Z</time></trkpt><trkpt lat="41.060645" lon="14.6340783"><ele>284.6666666666667</ele><time>2026-04-25T09:19:58.383Z</time></trkpt><trkpt lat="41.0607367" lon="14.634125"><ele>284.8333333333333</ele><time>2026-04-25T09:20:01.386Z</time></trkpt><trkpt lat="41.060795" lon="14.6341883"><ele>285.0</ele><time>2026-04-25T09:20:03.383Z</time></trkpt><trkpt lat="41.0608583" lon="14.6342733"><ele>285.5</ele><time>2026-04-25T09:20:05.384Z</time></trkpt><trkpt lat="41.0609283" lon="14.634365"><ele>286.0</ele><time>2026-04-25T09:20:07.384Z</time></trkpt><trkpt lat="41.0609867" lon="14.6344483"><ele>286.5</ele><time>2026-04-25T09:20:09.383Z</time></trkpt><trkpt lat="41.061035" lon="14.6345083"><ele>287.0</ele><time>2026-04-25T09:20:12.384Z</time></trkpt><trkpt lat="41.0610833" lon="14.634575"><ele>287.5</ele><time>2026-04-25T09:20:15.384Z</time></trkpt><trkpt lat="41.06115" lon="14.634645"><ele>288.0</ele><time>2026-04-25T09:20:18.383Z</time></trkpt><trkpt lat="41.06119" lon="14.6347133"><ele>288.0</ele><time>2026-04-25T09:20:20.383Z</time></trkpt><trkpt lat="41.06124" lon="14.6347933"><ele>288.0</ele><time>2026-04-25T09:20:22.384Z</time></trkpt><trkpt lat="41.0613" lon="14.63488"><ele>288.0</ele><time>2026-04-25T09:20:24.384Z</time></trkpt><trkpt lat="41.06136" lon="14.634985"><ele>288.0</ele><time>2026-04-25T09:20:26.385Z</time></trkpt><trkpt lat="41.0614283" lon="14.6350883"><ele>288.0</ele><time>2026-04-25T09:20:28.384Z</time></trkpt><trkpt lat="41.0615" lon="14.63519"><ele>288.0</ele><time>2026-04-25T09:20:30.384Z</time></trkpt><trkpt lat="41.0615733" lon="14.63529"><ele>288.0</ele><time>2026-04-25T09:20:32.384Z</time></trkpt><trkpt lat="41.06165" lon="14.635395"><ele>288.0</ele><time>2026-04-25T09:20:34.383Z</time></trkpt><trkpt lat="41.0617267" lon="14.6355067"><ele>288.0</ele><time>2026-04-25T09:20:36.383Z</time></trkpt><trkpt lat="41.0618033" lon="14.6356117"><ele>288.0</ele><time>2026-04-25T09:20:38.384Z</time></trkpt><trkpt lat="41.0618833" lon="14.6357033"><ele>288.4</ele><time>2026-04-25T09:20:40.383Z</time></trkpt><trkpt lat="41.061945" lon="14.6358"><ele>288.8</ele><time>2026-04-25T09:20:42.384Z</time></trkpt><trkpt lat="41.0620067" lon="14.6358917"><ele>289.2</ele><time>2026-04-25T09:20:44.383Z</time></trkpt><trkpt lat="41.062075" lon="14.6359817"><ele>289.6</ele><time>2026-04-25T09:20:46.386Z</time></trkpt><trkpt lat="41.0621367" lon="14.6360783"><ele>290.0</ele><time>2026-04-25T09:20:48.385Z</time></trkpt><trkpt lat="41.0622" lon="14.6361767"><ele>290.0</ele><time>2026-04-25T09:20:50.384Z</time></trkpt><trkpt lat="41.0622683" lon="14.6362683"><ele>290.0</ele><time>2026-04-25T09:20:52.383Z</time></trkpt><trkpt lat="41.0623433" lon="14.6363567"><ele>290.0</ele><time>2026-04-25T09:20:54.385Z</time></trkpt><trkpt lat="41.062405" lon="14.636445"><ele>290.0</ele><time>2026-04-25T09:20:56.384Z</time></trkpt><trkpt lat="41.0624567" lon="14.6365083"><ele>290.0</ele><time>2026-04-25T09:20:58.383Z</time></trkpt><trkpt lat="41.0625133" lon="14.6365767"><ele>290.0</ele><time>2026-04-25T09:21:04.384Z</time></trkpt><trkpt lat="41.0625567" lon="14.6366467"><ele>290.33333333333337</ele><time>2026-04-25T09:21:06.384Z</time></trkpt><trkpt lat="41.0626067" lon="14.63673"><ele>290.6666666666667</ele><time>2026-04-25T09:21:08.385Z</time></trkpt><trkpt lat="41.062665" lon="14.636815"><ele>291.0</ele><time>2026-04-25T09:21:10.384Z</time></trkpt><trkpt lat="41.0627283" lon="14.6368933"><ele>291.3333333333333</ele><time>2026-04-25T09:21:12.382Z</time></trkpt><trkpt lat="41.0627733" lon="14.63698"><ele>291.66666666666663</ele><time>2026-04-25T09:21:16.384Z</time></trkpt><trkpt lat="41.0628367" lon="14.637035"><ele>292.0</ele><time>2026-04-25T09:21:19.384Z</time></trkpt><trkpt lat="41.062885" lon="14.6371083"><ele>292.2</ele><time>2026-04-25T09:21:21.383Z</time></trkpt><trkpt lat="41.0629433" lon="14.637185"><ele>292.4</ele><time>2026-04-25T09:21:23.383Z</time></trkpt><trkpt lat="41.0630133" lon="14.6372733"><ele>292.6</ele><time>2026-04-25T09:21:25.384Z</time></trkpt><trkpt lat="41.0630917" lon="14.6373717"><ele>292.8</ele><time>2026-04-25T09:21:27.382Z</time></trkpt><trkpt lat="41.0631533" lon="14.63748"><ele>293.0</ele><time>2026-04-25T09:21:29.383Z</time></trkpt><trkpt lat="41.0631983" lon="14.637585"><ele>293.0</ele><time>2026-04-25T09:21:31.384Z</time></trkpt><trkpt lat="41.063225" lon="14.63769"><ele>293.0</ele><time>2026-04-25T09:21:33.386Z</time></trkpt><trkpt lat="41.0632533" lon="14.6377867"><ele>293.0</ele><time>2026-04-25T09:21:35.381Z</time></trkpt><trkpt lat="41.0632433" lon="14.637905"><ele>293.0</ele><time>2026-04-25T09:21:37.383Z</time></trkpt><trkpt lat="41.0632433" lon="14.6380217"><ele>293.0</ele><time>2026-04-25T09:21:39.385Z</time></trkpt><trkpt lat="41.063235" lon="14.63813"><ele>293.0</ele><time>2026-04-25T09:21:41.384Z</time></trkpt><trkpt lat="41.063215" lon="14.63823"><ele>293.1428571428571</ele><time>2026-04-25T09:21:44.384Z</time></trkpt><trkpt lat="41.0631833" lon="14.6383033"><ele>293.2857142857143</ele><time>2026-04-25T09:21:47.384Z</time></trkpt><trkpt lat="41.06315" lon="14.6384017"><ele>293.42857142857144</ele><time>2026-04-25T09:21:50.382Z</time></trkpt><trkpt lat="41.063115" lon="14.6384917"><ele>293.57142857142856</ele><time>2026-04-25T09:21:53.383Z</time></trkpt><trkpt lat="41.0630683" lon="14.6385917"><ele>293.7142857142857</ele><time>2026-04-25T09:21:56.384Z</time></trkpt><trkpt lat="41.0630167" lon="14.63865"><ele>293.85714285714283</ele><time>2026-04-25T09:22:00.384Z</time></trkpt><trkpt lat="41.062955" lon="14.6386683"><ele>294.0</ele><time>2026-04-25T09:22:06.384Z</time></trkpt><trkpt lat="41.0629715" lon="14.6384956"><ele>294.6666666666667</ele><time>2026-04-25T09:23:00.195Z</time></trkpt><trkpt lat="41.0630333" lon="14.6388967"><ele>295.33333333333337</ele><time>2026-04-25T09:26:27.383Z</time></trkpt><trkpt lat="41.0631133" lon="14.63877"><ele>296.0</ele><time>2026-04-25T09:26:31.384Z</time></trkpt><trkpt lat="41.0630667" lon="14.6386933"><ele>296.0</ele><time>2026-04-25T09:26:38.383Z</time></trkpt><trkpt lat="41.0631567" lon="14.6386933"><ele>296.0</ele><time>2026-04-25T09:26:58.382Z</time></trkpt><trkpt lat="41.06303" lon="14.6387383"><ele>296.0</ele><time>2026-04-25T09:28:53.381Z</time></trkpt><trkpt lat="41.0629983" lon="14.6388333"><ele>296.0</ele><time>2026-04-25T09:30:14.381Z</time></trkpt><trkpt lat="41.0629717" lon="14.63893"><ele>296.0</ele><time>2026-04-25T09:30:17.38Z</time></trkpt><trkpt lat="41.06296" lon="14.639025"><ele>296.0</ele><time>2026-04-25T09:30:19.382Z</time></trkpt><trkpt lat="41.0629483" lon="14.6391417"><ele>296.0</ele><time>2026-04-25T09:30:22.38Z</time></trkpt><trkpt lat="41.0629417" lon="14.639225"><ele>296.0</ele><time>2026-04-25T09:30:24.38Z</time></trkpt><trkpt lat="41.0629167" lon="14.6393183"><ele>296.0</ele><time>2026-04-25T09:30:27.381Z</time></trkpt><trkpt lat="41.0629117" lon="14.6394167"><ele>296.0</ele><time>2026-04-25T09:30:30.382Z</time></trkpt><trkpt lat="41.0629017" lon="14.6395083"><ele>296.0</ele><time>2026-04-25T09:30:33.381Z</time></trkpt><trkpt lat="41.062885" lon="14.6396083"><ele>296.0</ele><time>2026-04-25T09:30:36.382Z</time></trkpt><trkpt lat="41.0628683" lon="14.6397317"><ele>296.0</ele><time>2026-04-25T09:30:39.382Z</time></trkpt><trkpt lat="41.0628517" lon="14.63983"><ele>296.0</ele><time>2026-04-25T09:30:41.381Z</time></trkpt><trkpt lat="41.062825" lon="14.6399317"><ele>296.0</ele><time>2026-04-25T09:30:43.381Z</time></trkpt><trkpt lat="41.0627917" lon="14.6400383"><ele>296.0</ele><time>2026-04-25T09:30:45.382Z</time></trkpt><trkpt lat="41.0627517" lon="14.640145"><ele>296.0</ele><time>2026-04-25T09:30:47.383Z</time></trkpt><trkpt lat="41.0627017" lon="14.64025"><ele>296.0</ele><time>2026-04-25T09:30:49.381Z</time></trkpt><trkpt lat="41.0626467" lon="14.6403733"><ele>295.8</ele><time>2026-04-25T09:30:51.38Z</time></trkpt><trkpt lat="41.0625817" lon="14.6404733"><ele>295.6</ele><time>2026-04-25T09:30:53.38Z</time></trkpt><trkpt lat="41.0625267" lon="14.64057"><ele>295.4</ele><time>2026-04-25T09:30:55.381Z</time></trkpt><trkpt lat="41.0624767" lon="14.6406667"><ele>295.2</ele><time>2026-04-25T09:30:57.381Z</time></trkpt><trkpt lat="41.06239" lon="14.640755"><ele>295.0</ele><time>2026-04-25T09:30:59.38Z</time></trkpt><trkpt lat="41.0623333" lon="14.6408517"><ele>295.0</ele><time>2026-04-25T09:31:01.38Z</time></trkpt><trkpt lat="41.0622" lon="14.6409467"><ele>295.0</ele><time>2026-04-25T09:31:03.38Z</time></trkpt><trkpt lat="41.06214" lon="14.6410533"><ele>295.0</ele><time>2026-04-25T09:31:05.381Z</time></trkpt><trkpt lat="41.0620783" lon="14.641145"><ele>295.0</ele><time>2026-04-25T09:31:07.381Z</time></trkpt><trkpt lat="41.0620283" lon="14.6412267"><ele>295.0</ele><time>2026-04-25T09:31:09.382Z</time></trkpt><trkpt lat="41.061995" lon="14.6413"><ele>295.28571428571433</ele><time>2026-04-25T09:31:11.382Z</time></trkpt><trkpt lat="41.0619567" lon="14.6413717"><ele>295.57142857142856</ele><time>2026-04-25T09:31:13.381Z</time></trkpt><trkpt lat="41.0619583" lon="14.64148"><ele>295.8571428571429</ele><time>2026-04-25T09:31:16.381Z</time></trkpt><trkpt lat="41.0620183" lon="14.6415467"><ele>296.14285714285717</ele><time>2026-04-25T09:31:20.381Z</time></trkpt><trkpt lat="41.0620767" lon="14.6416167"><ele>296.42857142857144</ele><time>2026-04-25T09:31:23.381Z</time></trkpt><trkpt lat="41.062115" lon="14.6416867"><ele>296.7142857142857</ele><time>2026-04-25T09:31:25.381Z</time></trkpt><trkpt lat="41.062155" lon="14.6417667"><ele>297.0</ele><time>2026-04-25T09:31:27.381Z</time></trkpt><trkpt lat="41.06221" lon="14.64185"><ele>297.0</ele><time>2026-04-25T09:31:29.38Z</time></trkpt><trkpt lat="41.0622683" lon="14.6419333"><ele>297.0</ele><time>2026-04-25T09:31:31.381Z</time></trkpt><trkpt lat="41.062325" lon="14.642025"><ele>297.0</ele><time>2026-04-25T09:31:33.381Z</time></trkpt><trkpt lat="41.0623783" lon="14.6420933"><ele>297.0</ele><time>2026-04-25T09:31:35.381Z</time></trkpt><trkpt lat="41.06244" lon="14.6421817"><ele>297.0</ele><time>2026-04-25T09:31:38.381Z</time></trkpt><trkpt lat="41.0624933" lon="14.6422667"><ele>297.0</ele><time>2026-04-25T09:31:41.382Z</time></trkpt><trkpt lat="41.062535" lon="14.6423383"><ele>297.3333333333333</ele><time>2026-04-25T09:31:43.382Z</time></trkpt><trkpt lat="41.0625633" lon="14.642435"><ele>297.6666666666667</ele><time>2026-04-25T09:31:45.381Z</time></trkpt><trkpt lat="41.0625967" lon="14.64253"><ele>298.0</ele><time>2026-04-25T09:31:47.381Z</time></trkpt><trkpt lat="41.062645" lon="14.6426233"><ele>298.33333333333337</ele><time>2026-04-25T09:31:49.38Z</time></trkpt><trkpt lat="41.0626967" lon="14.6427033"><ele>298.6666666666667</ele><time>2026-04-25T09:31:51.381Z</time></trkpt><trkpt lat="41.0627467" lon="14.6427817"><ele>299.0</ele><time>2026-04-25T09:31:53.382Z</time></trkpt><trkpt lat="41.062795" lon="14.6428567"><ele>299.0</ele><time>2026-04-25T09:31:55.382Z</time></trkpt><trkpt lat="41.0628467" lon="14.6429383"><ele>299.0</ele><time>2026-04-25T09:31:57.381Z</time></trkpt><trkpt lat="41.06291" lon="14.6429917"><ele>299.0</ele><time>2026-04-25T09:31:59.381Z</time></trkpt><trkpt lat="41.062965" lon="14.6430683"><ele>299.0</ele><time>2026-04-25T09:32:01.381Z</time></trkpt><trkpt lat="41.06302" lon="14.6431467"><ele>299.0</ele><time>2026-04-25T09:32:03.381Z</time></trkpt><trkpt lat="41.0630767" lon="14.643235"><ele>299.0</ele><time>2026-04-25T09:32:05.381Z</time></trkpt><trkpt lat="41.0631317" lon="14.6433283"><ele>299.0</ele><time>2026-04-25T09:32:07.381Z</time></trkpt><trkpt lat="41.0631867" lon="14.6434183"><ele>299.0</ele><time>2026-04-25T09:32:09.38Z</time></trkpt><trkpt lat="41.0632433" lon="14.6435017"><ele>299.0</ele><time>2026-04-25T09:32:11.381Z</time></trkpt><trkpt lat="41.0632983" lon="14.6435833"><ele>299.0</ele><time>2026-04-25T09:32:13.381Z</time></trkpt><trkpt lat="41.0633467" lon="14.6436617"><ele>299.0</ele><time>2026-04-25T09:32:15.381Z</time></trkpt><trkpt lat="41.063405" lon="14.6437483"><ele>299.0</ele><time>2026-04-25T09:32:17.382Z</time></trkpt><trkpt lat="41.0634667" lon="14.6438467"><ele>299.83333333333337</ele><time>2026-04-25T09:32:19.381Z</time></trkpt><trkpt lat="41.0635267" lon="14.6439383"><ele>300.6666666666667</ele><time>2026-04-25T09:32:21.381Z</time></trkpt><trkpt lat="41.0635833" lon="14.6440433"><ele>301.5</ele><time>2026-04-25T09:32:23.38Z</time></trkpt><trkpt lat="41.0636367" lon="14.6441383"><ele>302.3333333333333</ele><time>2026-04-25T09:32:25.381Z</time></trkpt><trkpt lat="41.0636933" lon="14.6442067"><ele>303.16666666666663</ele><time>2026-04-25T09:32:27.38Z</time></trkpt><trkpt lat="41.0637367" lon="14.6442767"><ele>304.0</ele><time>2026-04-25T09:32:29.382Z</time></trkpt><trkpt lat="41.0637867" lon="14.64434"><ele>304.0</ele><time>2026-04-25T09:32:31.38Z</time></trkpt><trkpt lat="41.0638333" lon="14.644435"><ele>304.0</ele><time>2026-04-25T09:32:33.381Z</time></trkpt><trkpt lat="41.063875" lon="14.6445417"><ele>304.0</ele><time>2026-04-25T09:32:35.38Z</time></trkpt><trkpt lat="41.0639217" lon="14.6446233"><ele>304.0</ele><time>2026-04-25T09:32:37.38Z</time></trkpt><trkpt lat="41.0639717" lon="14.644685"><ele>304.0</ele><time>2026-04-25T09:32:39.384Z</time></trkpt><trkpt lat="41.0640167" lon="14.6447517"><ele>304.0</ele><time>2026-04-25T09:32:41.382Z</time></trkpt><trkpt lat="41.0640667" lon="14.6448233"><ele>305.16666666666663</ele><time>2026-04-25T09:32:43.381Z</time></trkpt><trkpt lat="41.06412" lon="14.644885"><ele>306.3333333333333</ele><time>2026-04-25T09:32:45.382Z</time></trkpt><trkpt lat="41.0641633" lon="14.6449467"><ele>307.5</ele><time>2026-04-25T09:32:47.382Z</time></trkpt><trkpt lat="41.0642117" lon="14.64501"><ele>308.6666666666667</ele><time>2026-04-25T09:32:49.383Z</time></trkpt><trkpt lat="41.06427" lon="14.64509"><ele>309.83333333333337</ele><time>2026-04-25T09:32:51.382Z</time></trkpt><trkpt lat="41.0643233" lon="14.6451767"><ele>311.0</ele><time>2026-04-25T09:32:53.383Z</time></trkpt><trkpt lat="41.0643767" lon="14.6452633"><ele>310.83333333333337</ele><time>2026-04-25T09:32:55.384Z</time></trkpt><trkpt lat="41.0644333" lon="14.6453517"><ele>310.6666666666667</ele><time>2026-04-25T09:32:57.383Z</time></trkpt><trkpt lat="41.0644983" lon="14.6454317"><ele>310.5</ele><time>2026-04-25T09:32:59.381Z</time></trkpt><trkpt lat="41.064555" lon="14.6455117"><ele>310.3333333333333</ele><time>2026-04-25T09:33:01.383Z</time></trkpt><trkpt lat="41.0646067" lon="14.6455867"><ele>310.16666666666663</ele><time>2026-04-25T09:33:03.383Z</time></trkpt><trkpt lat="41.06466" lon="14.6456633"><ele>310.0</ele><time>2026-04-25T09:33:05.382Z</time></trkpt><trkpt lat="41.0647117" lon="14.645755"><ele>310.0</ele><time>2026-04-25T09:33:07.383Z</time></trkpt><trkpt lat="41.0647617" lon="14.6458467"><ele>310.0</ele><time>2026-04-25T09:33:09.382Z</time></trkpt><trkpt lat="41.0648067" lon="14.645925"><ele>310.0</ele><time>2026-04-25T09:33:11.382Z</time></trkpt><trkpt lat="41.0648533" lon="14.6460067"><ele>310.0</ele><time>2026-04-25T09:33:13.382Z</time></trkpt><trkpt lat="41.0649033" lon="14.6460817"><ele>310.0</ele><time>2026-04-25T09:33:15.385Z</time></trkpt><trkpt lat="41.06496" lon="14.6461617"><ele>310.0</ele><time>2026-04-25T09:33:17.384Z</time></trkpt><trkpt lat="41.065015" lon="14.646245"><ele>310.66666666666663</ele><time>2026-04-25T09:33:19.383Z</time></trkpt><trkpt lat="41.0650767" lon="14.6463217"><ele>311.3333333333333</ele><time>2026-04-25T09:33:21.386Z</time></trkpt><trkpt lat="41.0651367" lon="14.646375"><ele>312.0</ele><time>2026-04-25T09:33:23.383Z</time></trkpt><trkpt lat="41.0652117" lon="14.64645"><ele>312.6666666666667</ele><time>2026-04-25T09:33:26.382Z</time></trkpt><trkpt lat="41.0652617" lon="14.6465083"><ele>313.33333333333337</ele><time>2026-04-25T09:33:28.386Z</time></trkpt><trkpt lat="41.065345" lon="14.6465733"><ele>314.0</ele><time>2026-04-25T09:33:31.383Z</time></trkpt><trkpt lat="41.06541" lon="14.6466167"><ele>314.0</ele><time>2026-04-25T09:33:33.383Z</time></trkpt><trkpt lat="41.0654783" lon="14.6466583"><ele>314.0</ele><time>2026-04-25T09:33:35.383Z</time></trkpt><trkpt lat="41.065545" lon="14.6466967"><ele>314.0</ele><time>2026-04-25T09:33:37.383Z</time></trkpt><trkpt lat="41.065635" lon="14.64674"><ele>314.0</ele><time>2026-04-25T09:33:40.383Z</time></trkpt><trkpt lat="41.0656967" lon="14.6467717"><ele>314.0</ele><time>2026-04-25T09:33:42.384Z</time></trkpt><trkpt lat="41.0657683" lon="14.64678"><ele>314.0</ele><time>2026-04-25T09:33:44.382Z</time></trkpt><trkpt lat="41.0658483" lon="14.6467833"><ele>314.6666666666667</ele><time>2026-04-25T09:33:46.385Z</time></trkpt><trkpt lat="41.06592" lon="14.6467833"><ele>315.33333333333337</ele><time>2026-04-25T09:33:48.384Z</time></trkpt><trkpt lat="41.0659917" lon="14.6467717"><ele>316.0</ele><time>2026-04-25T09:33:50.384Z</time></trkpt><trkpt lat="41.0660767" lon="14.6467917"><ele>316.6666666666667</ele><time>2026-04-25T09:33:52.383Z</time></trkpt><trkpt lat="41.0661583" lon="14.6467883"><ele>317.3333333333333</ele><time>2026-04-25T09:33:54.384Z</time></trkpt><trkpt lat="41.06623" lon="14.64676"><ele>318.0</ele><time>2026-04-25T09:33:56.384Z</time></trkpt><trkpt lat="41.0662983" lon="14.6467133"><ele>318.0</ele><time>2026-04-25T09:33:58.382Z</time></trkpt><trkpt lat="41.0663667" lon="14.64668"><ele>318.0</ele><time>2026-04-25T09:34:00.381Z</time></trkpt><trkpt lat="41.066445" lon="14.6466533"><ele>318.0</ele><time>2026-04-25T09:34:02.382Z</time></trkpt><trkpt lat="41.0665167" lon="14.6466133"><ele>318.0</ele><time>2026-04-25T09:34:04.383Z</time></trkpt><trkpt lat="41.0665867" lon="14.646575"><ele>318.0</ele><time>2026-04-25T09:34:06.383Z</time></trkpt><trkpt lat="41.0666667" lon="14.646535"><ele>318.0</ele><time>2026-04-25T09:34:08.383Z</time></trkpt><trkpt lat="41.0667383" lon="14.6465"><ele>319.0</ele><time>2026-04-25T09:34:10.383Z</time></trkpt><trkpt lat="41.0668083" lon="14.6464633"><ele>320.0</ele><time>2026-04-25T09:34:12.383Z</time></trkpt><trkpt lat="41.06688" lon="14.64643"><ele>321.0</ele><time>2026-04-25T09:34:14.383Z</time></trkpt><trkpt lat="41.066955" lon="14.6464033"><ele>322.0</ele><time>2026-04-25T09:34:16.384Z</time></trkpt><trkpt lat="41.0670317" lon="14.6463867"><ele>323.0</ele><time>2026-04-25T09:34:18.384Z</time></trkpt><trkpt lat="41.0671033" lon="14.6463567"><ele>324.0</ele><time>2026-04-25T09:34:20.384Z</time></trkpt><trkpt lat="41.0671833" lon="14.6463367"><ele>324.0</ele><time>2026-04-25T09:34:22.383Z</time></trkpt><trkpt lat="41.0672683" lon="14.6463117"><ele>324.0</ele><time>2026-04-25T09:34:24.385Z</time></trkpt><trkpt lat="41.06735" lon="14.646295"><ele>324.0</ele><time>2026-04-25T09:34:26.383Z</time></trkpt><trkpt lat="41.0674267" lon="14.6462817"><ele>324.0</ele><time>2026-04-25T09:34:28.383Z</time></trkpt><trkpt lat="41.0675017" lon="14.6462733"><ele>324.0</ele><time>2026-04-25T09:34:30.384Z</time></trkpt><trkpt lat="41.0675767" lon="14.6462567"><ele>324.0</ele><time>2026-04-25T09:34:32.382Z</time></trkpt><trkpt lat="41.0676517" lon="14.6462433"><ele>324.2857142857143</ele><time>2026-04-25T09:34:34.383Z</time></trkpt><trkpt lat="41.0677267" lon="14.6462367"><ele>324.57142857142856</ele><time>2026-04-25T09:34:36.384Z</time></trkpt><trkpt lat="41.0678017" lon="14.6462267"><ele>324.8571428571429</ele><time>2026-04-25T09:34:38.384Z</time></trkpt><trkpt lat="41.0678767" lon="14.6462133"><ele>325.1428571428571</ele><time>2026-04-25T09:34:40.385Z</time></trkpt><trkpt lat="41.0679467" lon="14.64621"><ele>325.4285714285714</ele><time>2026-04-25T09:34:42.385Z</time></trkpt><trkpt lat="41.0680233" lon="14.6462233"><ele>325.7142857142857</ele><time>2026-04-25T09:34:44.384Z</time></trkpt><trkpt lat="41.0680967" lon="14.6462333"><ele>326.0</ele><time>2026-04-25T09:34:46.384Z</time></trkpt><trkpt lat="41.06816" lon="14.6462367"><ele>326.0</ele><time>2026-04-25T09:34:48.384Z</time></trkpt><trkpt lat="41.0682333" lon="14.6462567"><ele>326.0</ele><time>2026-04-25T09:34:50.384Z</time></trkpt><trkpt lat="41.06831" lon="14.64627"><ele>326.0</ele><time>2026-04-25T09:34:52.383Z</time></trkpt><trkpt lat="41.06839" lon="14.6462783"><ele>326.0</ele><time>2026-04-25T09:34:54.384Z</time></trkpt><trkpt lat="41.0684683" lon="14.646295"><ele>326.0</ele><time>2026-04-25T09:34:56.383Z</time></trkpt><trkpt lat="41.0685417" lon="14.6463083"><ele>326.0</ele><time>2026-04-25T09:34:58.382Z</time></trkpt><trkpt lat="41.0686167" lon="14.6463183"><ele>326.33333333333337</ele><time>2026-04-25T09:35:00.382Z</time></trkpt><trkpt lat="41.0686917" lon="14.6463367"><ele>326.6666666666667</ele><time>2026-04-25T09:35:02.383Z</time></trkpt><trkpt lat="41.0687633" lon="14.6463633"><ele>327.0</ele><time>2026-04-25T09:35:04.383Z</time></trkpt><trkpt lat="41.068835" lon="14.6463867"><ele>327.3333333333333</ele><time>2026-04-25T09:35:06.384Z</time></trkpt><trkpt lat="41.068905" lon="14.6464033"><ele>327.66666666666663</ele><time>2026-04-25T09:35:08.384Z</time></trkpt><trkpt lat="41.0689717" lon="14.6464117"><ele>328.0</ele><time>2026-04-25T09:35:10.385Z</time></trkpt><trkpt lat="41.0690683" lon="14.64642"><ele>329.71428571428567</ele><time>2026-04-25T09:35:13.383Z</time></trkpt><trkpt lat="41.0691383" lon="14.6464417"><ele>331.42857142857144</ele><time>2026-04-25T09:35:15.383Z</time></trkpt><trkpt lat="41.0692133" lon="14.6464767"><ele>333.1428571428571</ele><time>2026-04-25T09:35:18.386Z</time></trkpt><trkpt lat="41.0692817" lon="14.6464717"><ele>334.85714285714283</ele><time>2026-04-25T09:35:22.385Z</time></trkpt><trkpt lat="41.0693483" lon="14.6465383"><ele>336.57142857142856</ele><time>2026-04-25T09:35:26.383Z</time></trkpt><trkpt lat="41.06934" lon="14.6464533"><ele>338.2857142857143</ele><time>2026-04-25T09:35:32.383Z</time></trkpt><trkpt lat="41.0692833" lon="14.6463783"><ele>340.0</ele><time>2026-04-25T09:35:35.383Z</time></trkpt><trkpt lat="41.0692317" lon="14.6463267"><ele>340.0</ele><time>2026-04-25T09:35:37.384Z</time></trkpt><trkpt lat="41.06918" lon="14.6462617"><ele>340.0</ele><time>2026-04-25T09:35:39.382Z</time></trkpt><trkpt lat="41.0691267" lon="14.6462133"><ele>340.0</ele><time>2026-04-25T09:35:41.383Z</time></trkpt><trkpt lat="41.069075" lon="14.646165"><ele>340.0</ele><time>2026-04-25T09:35:43.384Z</time></trkpt><trkpt lat="41.0690033" lon="14.646105"><ele>340.0</ele><time>2026-04-25T09:35:46.383Z</time></trkpt><trkpt lat="41.068945" lon="14.6460717"><ele>340.0</ele><time>2026-04-25T09:35:48.385Z</time></trkpt><trkpt lat="41.0688883" lon="14.6460233"><ele>340.0</ele><time>2026-04-25T09:35:50.384Z</time></trkpt><trkpt lat="41.0688333" lon="14.6459683"><ele>340.16666666666663</ele><time>2026-04-25T09:35:52.383Z</time></trkpt><trkpt lat="41.068775" lon="14.6459233"><ele>340.3333333333333</ele><time>2026-04-25T09:35:54.384Z</time></trkpt><trkpt lat="41.0687183" lon="14.6458633"><ele>340.5</ele><time>2026-04-25T09:35:56.384Z</time></trkpt><trkpt lat="41.0686567" lon="14.6458083"><ele>340.6666666666667</ele><time>2026-04-25T09:35:58.383Z</time></trkpt><trkpt lat="41.0685883" lon="14.6457517"><ele>340.83333333333337</ele><time>2026-04-25T09:36:00.383Z</time></trkpt><trkpt lat="41.068535" lon="14.6456717"><ele>341.0</ele><time>2026-04-25T09:36:02.383Z</time></trkpt><trkpt lat="41.0684767" lon="14.6455967"><ele>341.0</ele><time>2026-04-25T09:36:04.384Z</time></trkpt><trkpt lat="41.06842" lon="14.6455267"><ele>341.0</ele><time>2026-04-25T09:36:06.383Z</time></trkpt><trkpt lat="41.068365" lon="14.6454667"><ele>341.0</ele><time>2026-04-25T09:36:08.383Z</time></trkpt><trkpt lat="41.0682933" lon="14.64539"><ele>341.0</ele><time>2026-04-25T09:36:11.384Z</time></trkpt><trkpt lat="41.06824" lon="14.6453317"><ele>341.0</ele><time>2026-04-25T09:36:13.384Z</time></trkpt><trkpt lat="41.0681883" lon="14.6452683"><ele>341.0</ele><time>2026-04-25T09:36:15.383Z</time></trkpt><trkpt lat="41.0681283" lon="14.6451783"><ele>341.33333333333337</ele><time>2026-04-25T09:36:18.383Z</time></trkpt><trkpt lat="41.0680683" lon="14.645085"><ele>341.6666666666667</ele><time>2026-04-25T09:36:21.384Z</time></trkpt><trkpt lat="41.0680217" lon="14.6450267"><ele>342.0</ele><time>2026-04-25T09:36:23.383Z</time></trkpt><trkpt lat="41.0679617" lon="14.6449317"><ele>342.3333333333333</ele><time>2026-04-25T09:36:26.384Z</time></trkpt><trkpt lat="41.0679483" lon="14.6448233"><ele>342.66666666666663</ele><time>2026-04-25T09:36:29.383Z</time></trkpt><trkpt lat="41.0680067" lon="14.64478"><ele>343.0</ele><time>2026-04-25T09:36:32.385Z</time></trkpt><trkpt lat="41.0680917" lon="14.6448267"><ele>343.0</ele><time>2026-04-25T09:36:35.384Z</time></trkpt><trkpt lat="41.0681483" lon="14.644895"><ele>343.0</ele><time>2026-04-25T09:36:37.384Z</time></trkpt><trkpt lat="41.0682033" lon="14.6449667"><ele>343.0</ele><time>2026-04-25T09:36:39.384Z</time></trkpt><trkpt lat="41.0682617" lon="14.6450433"><ele>343.0</ele><time>2026-04-25T09:36:41.383Z</time></trkpt><trkpt lat="41.068325" lon="14.64511"><ele>343.0</ele><time>2026-04-25T09:36:43.384Z</time></trkpt><trkpt lat="41.068375" lon="14.64517"><ele>343.0</ele><time>2026-04-25T09:36:45.383Z</time></trkpt><trkpt lat="41.06843" lon="14.6452383"><ele>342.66666666666663</ele><time>2026-04-25T09:36:47.384Z</time></trkpt><trkpt lat="41.06848" lon="14.6452933"><ele>342.3333333333333</ele><time>2026-04-25T09:36:49.382Z</time></trkpt><trkpt lat="41.068535" lon="14.6453417"><ele>342.0</ele><time>2026-04-25T09:36:51.383Z</time></trkpt><trkpt lat="41.0686217" lon="14.6453367"><ele>341.6666666666667</ele><time>2026-04-25T09:36:54.384Z</time></trkpt><trkpt lat="41.0686783" lon="14.6452633"><ele>341.33333333333337</ele><time>2026-04-25T09:36:57.383Z</time></trkpt><trkpt lat="41.0686483" lon="14.645155"><ele>341.0</ele><time>2026-04-25T09:37:00.384Z</time></trkpt><trkpt lat="41.0686083" lon="14.6450833"><ele>343.5</ele><time>2026-04-25T09:37:02.384Z</time></trkpt><trkpt lat="41.06857" lon="14.645005"><ele>346.0</ele><time>2026-04-25T09:37:04.383Z</time></trkpt><trkpt lat="41.0685367" lon="14.644925"><ele>348.5</ele><time>2026-04-25T09:37:06.382Z</time></trkpt><trkpt lat="41.0684733" lon="14.644835"><ele>351.0</ele><time>2026-04-25T09:37:09.384Z</time></trkpt><trkpt lat="41.0684283" lon="14.6447617"><ele>353.5</ele><time>2026-04-25T09:37:11.383Z</time></trkpt><trkpt lat="41.0683633" lon="14.6446783"><ele>356.0</ele><time>2026-04-25T09:37:14.383Z</time></trkpt><trkpt lat="41.0682867" lon="14.6446067"><ele>356.0</ele><time>2026-04-25T09:37:17.382Z</time></trkpt><trkpt lat="41.0682267" lon="14.6445567"><ele>356.0</ele><time>2026-04-25T09:37:19.382Z</time></trkpt><trkpt lat="41.0681817" lon="14.644485"><ele>356.0</ele><time>2026-04-25T09:37:21.382Z</time></trkpt><trkpt lat="41.068195" lon="14.644385"><ele>356.0</ele><time>2026-04-25T09:37:24.382Z</time></trkpt><trkpt lat="41.068275" lon="14.6444067"><ele>356.0</ele><time>2026-04-25T09:37:27.382Z</time></trkpt><trkpt lat="41.068325" lon="14.6444583"><ele>356.0</ele><time>2026-04-25T09:37:29.382Z</time></trkpt><trkpt lat="41.0684017" lon="14.644525"><ele>356.0</ele><time>2026-04-25T09:37:32.382Z</time></trkpt><trkpt lat="41.0684833" lon="14.644595"><ele>356.0</ele><time>2026-04-25T09:37:35.381Z</time></trkpt><trkpt lat="41.0685383" lon="14.6446467"><ele>356.0</ele><time>2026-04-25T09:37:37.382Z</time></trkpt><trkpt lat="41.0686" lon="14.6447017"><ele>356.0</ele><time>2026-04-25T09:37:39.382Z</time></trkpt><trkpt lat="41.0686683" lon="14.6447517"><ele>356.0</ele><time>2026-04-25T09:37:41.382Z</time></trkpt><trkpt lat="41.0687283" lon="14.6447967"><ele>356.0</ele><time>2026-04-25T09:37:43.381Z</time></trkpt><trkpt lat="41.06879" lon="14.6448617"><ele>356.0</ele><time>2026-04-25T09:37:45.381Z</time></trkpt><trkpt lat="41.0688467" lon="14.6449217"><ele>356.0</ele><time>2026-04-25T09:37:47.382Z</time></trkpt><trkpt lat="41.068905" lon="14.644975"><ele>356.0</ele><time>2026-04-25T09:37:49.381Z</time></trkpt><trkpt lat="41.0689683" lon="14.645045"><ele>356.0</ele><time>2026-04-25T09:37:51.381Z</time></trkpt><trkpt lat="41.06903" lon="14.64509"><ele>356.0</ele><time>2026-04-25T09:37:53.381Z</time></trkpt><trkpt lat="41.069085" lon="14.6451433"><ele>356.0</ele><time>2026-04-25T09:37:55.38Z</time></trkpt><trkpt lat="41.06917" lon="14.6451983"><ele>358.1428571428571</ele><time>2026-04-25T09:37:58.381Z</time></trkpt><trkpt lat="41.0692433" lon="14.6452133"><ele>360.2857142857143</ele><time>2026-04-25T09:38:00.382Z</time></trkpt><trkpt lat="41.06931" lon="14.645205"><ele>362.42857142857144</ele><time>2026-04-25T09:38:02.382Z</time></trkpt><trkpt lat="41.069375" lon="14.645165"><ele>364.57142857142856</ele><time>2026-04-25T09:38:04.38Z</time></trkpt><trkpt lat="41.0694317" lon="14.6451133"><ele>366.7142857142857</ele><time>2026-04-25T09:38:06.381Z</time></trkpt><trkpt lat="41.0695017" lon="14.6450267"><ele>368.85714285714283</ele><time>2026-04-25T09:38:09.381Z</time></trkpt><trkpt lat="41.069545" lon="14.6449533"><ele>371.0</ele><time>2026-04-25T09:38:11.383Z</time></trkpt><trkpt lat="41.0695967" lon="14.6448917"><ele>371.0</ele><time>2026-04-25T09:38:13.381Z</time></trkpt><trkpt lat="41.0696583" lon="14.64483"><ele>371.0</ele><time>2026-04-25T09:38:15.381Z</time></trkpt><trkpt lat="41.0697483" lon="14.6447783"><ele>371.0</ele><time>2026-04-25T09:38:18.382Z</time></trkpt><trkpt lat="41.069815" lon="14.6447667"><ele>371.0</ele><time>2026-04-25T09:38:20.381Z</time></trkpt><trkpt lat="41.06988" lon="14.6447583"><ele>371.0</ele><time>2026-04-25T09:38:22.381Z</time></trkpt><trkpt lat="41.0699467" lon="14.6447633"><ele>371.0</ele><time>2026-04-25T09:38:24.384Z</time></trkpt><trkpt lat="41.07001" lon="14.6447717"><ele>371.0</ele><time>2026-04-25T09:38:26.382Z</time></trkpt><trkpt lat="41.070075" lon="14.644775"><ele>371.0</ele><time>2026-04-25T09:38:28.382Z</time></trkpt><trkpt lat="41.0701383" lon="14.6447783"><ele>371.0</ele><time>2026-04-25T09:38:30.381Z</time></trkpt><trkpt lat="41.070205" lon="14.6447733"><ele>371.0</ele><time>2026-04-25T09:38:32.381Z</time></trkpt><trkpt lat="41.070275" lon="14.6447783"><ele>371.0</ele><time>2026-04-25T09:38:34.381Z</time></trkpt><trkpt lat="41.07034" lon="14.6447817"><ele>371.0</ele><time>2026-04-25T09:38:36.381Z</time></trkpt><trkpt lat="41.07041" lon="14.6448017"><ele>371.0</ele><time>2026-04-25T09:38:38.381Z</time></trkpt><trkpt lat="41.0704767" lon="14.6448167"><ele>371.0</ele><time>2026-04-25T09:38:40.381Z</time></trkpt><trkpt lat="41.0705467" lon="14.6448267"><ele>371.0</ele><time>2026-04-25T09:38:42.381Z</time></trkpt><trkpt lat="41.070625" lon="14.6448367"><ele>371.0</ele><time>2026-04-25T09:38:45.382Z</time></trkpt><trkpt lat="41.0706883" lon="14.64479"><ele>371.0</ele><time>2026-04-25T09:38:48.381Z</time></trkpt><trkpt lat="41.0707233" lon="14.644695"><ele>371.0</ele><time>2026-04-25T09:38:51.381Z</time></trkpt><trkpt lat="41.07071" lon="14.6446"><ele>371.0</ele><time>2026-04-25T09:38:54.381Z</time></trkpt><trkpt lat="41.070675" lon="14.6445217"><ele>371.0</ele><time>2026-04-25T09:38:57.381Z</time></trkpt><trkpt lat="41.070625" lon="14.6444583"><ele>371.0</ele><time>2026-04-25T09:39:00.381Z</time></trkpt><trkpt lat="41.070565" lon="14.6443667"><ele>372.42857142857144</ele><time>2026-04-25T09:39:03.381Z</time></trkpt><trkpt lat="41.0705217" lon="14.6442983"><ele>373.8571428571429</ele><time>2026-04-25T09:39:05.38Z</time></trkpt><trkpt lat="41.0704633" lon="14.6442367"><ele>375.2857142857143</ele><time>2026-04-25T09:39:07.381Z</time></trkpt><trkpt lat="41.0703883" lon="14.6441917"><ele>376.7142857142857</ele><time>2026-04-25T09:39:09.38Z</time></trkpt><trkpt lat="41.0703267" lon="14.6441333"><ele>378.14285714285717</ele><time>2026-04-25T09:39:11.382Z</time></trkpt><trkpt lat="41.070285" lon="14.6440683"><ele>379.57142857142856</ele><time>2026-04-25T09:39:13.38Z</time></trkpt><trkpt lat="41.0702233" lon="14.6440483"><ele>381.0</ele><time>2026-04-25T09:39:15.387Z</time></trkpt><trkpt lat="41.0701333" lon="14.64405"><ele>381.0</ele><time>2026-04-25T09:39:18.381Z</time></trkpt><trkpt lat="41.0700517" lon="14.6440717"><ele>381.0</ele><time>2026-04-25T09:39:21.382Z</time></trkpt><trkpt lat="41.069975" lon="14.644085"><ele>381.0</ele><time>2026-04-25T09:39:24.382Z</time></trkpt><trkpt lat="41.06991" lon="14.644095"><ele>381.0</ele><time>2026-04-25T09:39:27.382Z</time></trkpt><trkpt lat="41.0698483" lon="14.6440617"><ele>381.0</ele><time>2026-04-25T09:39:31.382Z</time></trkpt><trkpt lat="41.0698067" lon="14.6439967"><ele>381.0</ele><time>2026-04-25T09:39:34.38Z</time></trkpt><trkpt lat="41.06982" lon="14.6439133"><ele>381.0</ele><time>2026-04-25T09:39:37.383Z</time></trkpt><trkpt lat="41.06986" lon="14.6438333"><ele>381.0</ele><time>2026-04-25T09:39:40.382Z</time></trkpt><trkpt lat="41.069895" lon="14.6437517"><ele>381.0</ele><time>2026-04-25T09:39:43.382Z</time></trkpt><trkpt lat="41.0699267" lon="14.643655"><ele>381.0</ele><time>2026-04-25T09:39:46.381Z</time></trkpt><trkpt lat="41.0699417" lon="14.6435733"><ele>381.0</ele><time>2026-04-25T09:39:48.381Z</time></trkpt><trkpt lat="41.0699417" lon="14.643475"><ele>381.0</ele><time>2026-04-25T09:39:51.382Z</time></trkpt><trkpt lat="41.0699433" lon="14.6433683"><ele>381.0</ele><time>2026-04-25T09:39:54.382Z</time></trkpt><trkpt lat="41.0699333" lon="14.64326"><ele>383.0</ele><time>2026-04-25T09:39:57.381Z</time></trkpt><trkpt lat="41.0699233" lon="14.643165"><ele>385.0</ele><time>2026-04-25T09:40:00.382Z</time></trkpt><trkpt lat="41.0699033" lon="14.64307"><ele>387.0</ele><time>2026-04-25T09:40:03.38Z</time></trkpt><trkpt lat="41.0698983" lon="14.642965"><ele>389.0</ele><time>2026-04-25T09:40:06.382Z</time></trkpt><trkpt lat="41.0698883" lon="14.6428683"><ele>391.0</ele><time>2026-04-25T09:40:09.381Z</time></trkpt><trkpt lat="41.0698733" lon="14.64277"><ele>393.0</ele><time>2026-04-25T09:40:12.382Z</time></trkpt><trkpt lat="41.069835" lon="14.6427017"><ele>395.0</ele><time>2026-04-25T09:40:15.384Z</time></trkpt><trkpt lat="41.06976" lon="14.64272"><ele>397.0</ele><time>2026-04-25T09:40:20.382Z</time></trkpt><trkpt lat="41.0697317" lon="14.6428033"><ele>399.0</ele><time>2026-04-25T09:40:23.382Z</time></trkpt><trkpt lat="41.0697483" lon="14.6429"><ele>401.0</ele><time>2026-04-25T09:40:26.382Z</time></trkpt><trkpt lat="41.069755" lon="14.6429967"><ele>403.0</ele><time>2026-04-25T09:40:29.382Z</time></trkpt><trkpt lat="41.06977" lon="14.6430967"><ele>405.0</ele><time>2026-04-25T09:40:32.382Z</time></trkpt><trkpt lat="41.0697817" lon="14.6431833"><ele>407.0</ele><time>2026-04-25T09:40:35.382Z</time></trkpt><trkpt lat="41.0697533" lon="14.643275"><ele>409.0</ele><time>2026-04-25T09:40:39.382Z</time></trkpt><trkpt lat="41.0697033" lon="14.6432033"><ele>409.00000000000006</ele><time>2026-04-25T09:40:43.381Z</time></trkpt><trkpt lat="41.0696983" lon="14.6431017"><ele>409.0</ele><time>2026-04-25T09:40:46.382Z</time></trkpt><trkpt lat="41.0696783" lon="14.6430017"><ele>409.0</ele><time>2026-04-25T09:40:49.382Z</time></trkpt><trkpt lat="41.0696583" lon="14.642895"><ele>409.0</ele><time>2026-04-25T09:40:52.385Z</time></trkpt><trkpt lat="41.0696417" lon="14.6427933"><ele>409.00000000000006</ele><time>2026-04-25T09:40:55.382Z</time></trkpt><trkpt lat="41.0696117" lon="14.642705"><ele>409.0</ele><time>2026-04-25T09:40:58.382Z</time></trkpt><trkpt lat="41.069555" lon="14.6426617"><ele>409.00000000000006</ele><time>2026-04-25T09:41:01.382Z</time></trkpt><trkpt lat="41.0694833" lon="14.6427283"><ele>409.0</ele><time>2026-04-25T09:41:05.382Z</time></trkpt><trkpt lat="41.0694767" lon="14.6428467"><ele>409.0</ele><time>2026-04-25T09:41:08.382Z</time></trkpt><trkpt lat="41.0694983" lon="14.64296"><ele>409.0</ele><time>2026-04-25T09:41:11.383Z</time></trkpt><trkpt lat="41.0695317" lon="14.6430567"><ele>409.00000000000006</ele><time>2026-04-25T09:41:14.382Z</time></trkpt><trkpt lat="41.0695517" lon="14.6431617"><ele>409.0</ele><time>2026-04-25T09:41:17.382Z</time></trkpt><trkpt lat="41.069555" lon="14.6432767"><ele>409.0</ele><time>2026-04-25T09:41:20.382Z</time></trkpt><trkpt lat="41.06957" lon="14.6433833"><ele>409.0</ele><time>2026-04-25T09:41:23.381Z</time></trkpt><trkpt lat="41.0695717" lon="14.6434917"><ele>409.0</ele><time>2026-04-25T09:41:26.382Z</time></trkpt><trkpt lat="41.0695667" lon="14.6435783"><ele>409.0</ele><time>2026-04-25T09:41:29.381Z</time></trkpt><trkpt lat="41.069505" lon="14.64363"><ele>409.0</ele><time>2026-04-25T09:41:33.382Z</time></trkpt><trkpt lat="41.0694917" lon="14.6435367"><ele>409.0</ele><time>2026-04-25T09:41:37.381Z</time></trkpt><trkpt lat="41.069515" lon="14.6434417"><ele>409.0</ele><time>2026-04-25T09:41:40.382Z</time></trkpt><trkpt lat="41.069525" lon="14.6433267"><ele>409.00000000000006</ele><time>2026-04-25T09:41:43.382Z</time></trkpt><trkpt lat="41.0695033" lon="14.6432133"><ele>409.0</ele><time>2026-04-25T09:41:46.382Z</time></trkpt><trkpt lat="41.0694633" lon="14.6431233"><ele>409.0</ele><time>2026-04-25T09:41:49.382Z</time></trkpt><trkpt lat="41.0694117" lon="14.6430483"><ele>409.0</ele><time>2026-04-25T09:41:52.382Z</time></trkpt><trkpt lat="41.0693267" lon="14.642995"><ele>409.00000000000006</ele><time>2026-04-25T09:41:55.383Z</time></trkpt><trkpt lat="41.069245" lon="14.6429717"><ele>409.0</ele><time>2026-04-25T09:41:58.382Z</time></trkpt><trkpt lat="41.069165" lon="14.64294"><ele>409.00000000000006</ele><time>2026-04-25T09:42:01.382Z</time></trkpt><trkpt lat="41.0691033" lon="14.64286"><ele>409.0</ele><time>2026-04-25T09:42:04.382Z</time></trkpt><trkpt lat="41.069045" lon="14.6428167"><ele>409.0</ele><time>2026-04-25T09:42:06.383Z</time></trkpt><trkpt lat="41.0689833" lon="14.6427783"><ele>409.0</ele><time>2026-04-25T09:42:08.382Z</time></trkpt><trkpt lat="41.0688983" lon="14.642725"><ele>409.00000000000006</ele><time>2026-04-25T09:42:11.382Z</time></trkpt><trkpt lat="41.06884" lon="14.6426917"><ele>409.0</ele><time>2026-04-25T09:42:13.382Z</time></trkpt><trkpt lat="41.0687717" lon="14.6426567"><ele>409.0</ele><time>2026-04-25T09:42:15.382Z</time></trkpt><trkpt lat="41.06871" lon="14.6426283"><ele>409.0</ele><time>2026-04-25T09:42:17.381Z</time></trkpt><trkpt lat="41.068645" lon="14.642605"><ele>409.0</ele><time>2026-04-25T09:42:19.381Z</time></trkpt><trkpt lat="41.0685733" lon="14.6425767"><ele>409.0</ele><time>2026-04-25T09:42:21.382Z</time></trkpt><trkpt lat="41.06851" lon="14.6425583"><ele>409.0</ele><time>2026-04-25T09:42:23.382Z</time></trkpt><trkpt lat="41.06844" lon="14.642535"><ele>409.0</ele><time>2026-04-25T09:42:25.382Z</time></trkpt><trkpt lat="41.0683767" lon="14.6425083"><ele>409.0</ele><time>2026-04-25T09:42:27.382Z</time></trkpt><trkpt lat="41.0683133" lon="14.64246"><ele>407.00000000000006</ele><time>2026-04-25T09:42:29.381Z</time></trkpt><trkpt lat="41.06824" lon="14.6424117"><ele>405.0</ele><time>2026-04-25T09:42:31.384Z</time></trkpt><trkpt lat="41.06816" lon="14.6423533"><ele>403.0</ele><time>2026-04-25T09:42:33.383Z</time></trkpt><trkpt lat="41.0680683" lon="14.6422817"><ele>401.0</ele><time>2026-04-25T09:42:35.382Z</time></trkpt><trkpt lat="41.0680017" lon="14.6422133"><ele>399.00000000000006</ele><time>2026-04-25T09:42:37.382Z</time></trkpt><trkpt lat="41.0679317" lon="14.6422067"><ele>397.0</ele><time>2026-04-25T09:42:39.381Z</time></trkpt><trkpt lat="41.0678517" lon="14.6422383"><ele>397.00000000000006</ele><time>2026-04-25T09:42:41.383Z</time></trkpt><trkpt lat="41.0677733" lon="14.64223"><ele>397.0</ele><time>2026-04-25T09:42:44.383Z</time></trkpt><trkpt lat="41.0676967" lon="14.6421633"><ele>397.0</ele><time>2026-04-25T09:42:47.382Z</time></trkpt><trkpt lat="41.0676517" lon="14.6420983"><ele>397.0</ele><time>2026-04-25T09:42:49.382Z</time></trkpt><trkpt lat="41.0676" lon="14.6420117"><ele>397.00000000000006</ele><time>2026-04-25T09:42:52.382Z</time></trkpt><trkpt lat="41.06754" lon="14.6419567"><ele>397.0</ele><time>2026-04-25T09:42:56.383Z</time></trkpt><trkpt lat="41.067555" lon="14.641835"><ele>398.6</ele><time>2026-04-25T09:43:34.385Z</time></trkpt><trkpt lat="41.0674983" lon="14.6416867"><ele>400.20000000000005</ele><time>2026-04-25T09:46:21.382Z</time></trkpt><trkpt lat="41.0674217" lon="14.6415733"><ele>401.8</ele><time>2026-04-25T09:46:35.384Z</time></trkpt><trkpt lat="41.0674593" lon="14.6415018"><ele>403.4</ele><time>2026-04-25T09:46:51.487Z</time></trkpt><trkpt lat="41.067539" lon="14.641585"><ele>405.0</ele><time>2026-04-25T09:46:54.509Z</time></trkpt><trkpt lat="41.0675996" lon="14.6416415"><ele>405.0</ele><time>2026-04-25T09:46:59.472Z</time></trkpt><trkpt lat="41.0675275" lon="14.641524"><ele>405.0</ele><time>2026-04-25T09:47:16.373Z</time></trkpt><trkpt lat="41.067431" lon="14.6414184"><ele>405.0</ele><time>2026-04-25T09:47:30.461Z</time></trkpt><trkpt lat="41.0673018" lon="14.6414242"><ele>405.0</ele><time>2026-04-25T09:49:13.609Z</time></trkpt><trkpt lat="41.0672234" lon="14.6413854"><ele>405.0</ele><time>2026-04-25T09:49:16.439Z</time></trkpt><trkpt lat="41.0673146" lon="14.6413791"><ele>405.0</ele><time>2026-04-25T09:49:35.453Z</time></trkpt><trkpt lat="41.0673916" lon="14.6414203"><ele>405.0</ele><time>2026-04-25T09:50:09.544Z</time></trkpt><trkpt lat="41.0673848" lon="14.6413325"><ele>405.0</ele><time>2026-04-25T09:56:35.497Z</time></trkpt><trkpt lat="41.0674575" lon="14.6413975"><ele>405.0</ele><time>2026-04-25T09:56:58.461Z</time></trkpt><trkpt lat="41.0675101" lon="14.6414904"><ele>405.0</ele><time>2026-04-25T09:57:15.43Z</time></trkpt><trkpt lat="41.0674578" lon="14.6415493"><ele>405.0</ele><time>2026-04-25T09:57:41.483Z</time></trkpt><trkpt lat="41.0674881" lon="14.6416294"><ele>405.0</ele><time>2026-04-25T09:58:15.418Z</time></trkpt><trkpt lat="41.0675458" lon="14.6417055"><ele>405.0</ele><time>2026-04-25T09:59:14.466Z</time></trkpt><trkpt lat="41.0675921" lon="14.6418367"><ele>405.0</ele><time>2026-04-25T09:59:53.448Z</time></trkpt><trkpt lat="41.0676402" lon="14.6419234"><ele>405.0</ele><time>2026-04-25T09:59:56.477Z</time></trkpt><trkpt lat="41.0676439" lon="14.6420374"><ele>405.0</ele><time>2026-04-25T09:59:59.515Z</time></trkpt><trkpt lat="41.0676896" lon="14.642108"><ele>403.6666666666667</ele><time>2026-04-25T10:00:02.442Z</time></trkpt><trkpt lat="41.0677541" lon="14.6421673"><ele>402.33333333333337</ele><time>2026-04-25T10:00:05.47Z</time></trkpt><trkpt lat="41.067826" lon="14.6421436"><ele>401.0</ele><time>2026-04-25T10:00:07.488Z</time></trkpt><trkpt lat="41.0678545" lon="14.6422458"><ele>399.6666666666667</ele><time>2026-04-25T10:00:09.456Z</time></trkpt><trkpt lat="41.0679038" lon="14.6423212"><ele>398.33333333333337</ele><time>2026-04-25T10:00:11.45Z</time></trkpt><trkpt lat="41.0679561" lon="14.6424069"><ele>397.0</ele><time>2026-04-25T10:00:14.476Z</time></trkpt><trkpt lat="41.0680231" lon="14.6424802"><ele>397.0</ele><time>2026-04-25T10:00:17.459Z</time></trkpt><trkpt lat="41.068075" lon="14.642685"><ele>397.0</ele><time>2026-04-25T10:00:21.384Z</time></trkpt><trkpt lat="41.0681233" lon="14.6427767"><ele>397.0</ele><time>2026-04-25T10:00:24.382Z</time></trkpt><trkpt lat="41.0681717" lon="14.6428533"><ele>397.0</ele><time>2026-04-25T10:00:27.383Z</time></trkpt><trkpt lat="41.068235" lon="14.642845"><ele>397.0</ele><time>2026-04-25T10:00:54.384Z</time></trkpt><trkpt lat="41.0683134" lon="14.6429255"><ele>397.0</ele><time>2026-04-25T10:01:15.478Z</time></trkpt><trkpt lat="41.0682489" lon="14.6429207"><ele>397.0</ele><time>2026-04-25T10:01:27.489Z</time></trkpt><trkpt lat="41.0682197" lon="14.6429993"><ele>397.0</ele><time>2026-04-25T10:01:33.121Z</time></trkpt><trkpt lat="41.0681344" lon="14.643084"><ele>397.0</ele><time>2026-04-25T10:01:39.511Z</time></trkpt><trkpt lat="41.0681305" lon="14.6429929"><ele>397.0</ele><time>2026-04-25T10:01:59.416Z</time></trkpt><trkpt lat="41.0681696" lon="14.6429187"><ele>397.0</ele><time>2026-04-25T10:02:09.525Z</time></trkpt><trkpt lat="41.0682213" lon="14.642849"><ele>397.0</ele><time>2026-04-25T10:02:11.442Z</time></trkpt><trkpt lat="41.0680966" lon="14.6426991"><ele>397.0</ele><time>2026-04-25T10:02:35.343Z</time></trkpt><trkpt lat="41.0680292" lon="14.642585"><ele>397.0</ele><time>2026-04-25T10:02:38.455Z</time></trkpt><trkpt lat="41.0679" lon="14.64232"><ele>397.0</ele><time>2026-04-25T10:02:43.384Z</time></trkpt><trkpt lat="41.0678267" lon="14.6422733"><ele>397.0</ele><time>2026-04-25T10:02:46.383Z</time></trkpt><trkpt lat="41.0677583" lon="14.6421983"><ele>397.00000000000006</ele><time>2026-04-25T10:02:49.384Z</time></trkpt><trkpt lat="41.0677233" lon="14.642115"><ele>397.0</ele><time>2026-04-25T10:02:51.384Z</time></trkpt><trkpt lat="41.0676533" lon="14.64203"><ele>397.0</ele><time>2026-04-25T10:02:54.384Z</time></trkpt><trkpt lat="41.0675683" lon="14.6419933"><ele>397.0</ele><time>2026-04-25T10:02:57.384Z</time></trkpt><trkpt lat="41.0675333" lon="14.6419017"><ele>397.00000000000006</ele><time>2026-04-25T10:03:01.382Z</time></trkpt><trkpt lat="41.0675267" lon="14.6417983"><ele>397.0</ele><time>2026-04-25T10:03:05.382Z</time></trkpt><trkpt lat="41.067455" lon="14.6418233"><ele>296.0</ele><time>2026-04-25T10:03:36.383Z</time></trkpt><trkpt lat="41.0631724" lon="14.6397398"><ele>303.0</ele><time>2026-04-25T10:06:03.549Z</time></trkpt><trkpt lat="41.0627511" lon="14.6463464"><ele>294.0</ele><time>2026-04-25T10:08:02.596Z</time></trkpt><trkpt lat="41.0629385" lon="14.6379099"><ele>303.0</ele><time>2026-04-25T10:08:15.443Z</time></trkpt><trkpt lat="41.0630722" lon="14.6463064"><ele>405.0</ele><time>2026-04-25T10:08:40.276Z</time></trkpt><trkpt lat="41.0674988" lon="14.6417871"><ele>399.5</ele><time>2026-04-25T10:09:19.287Z</time></trkpt><trkpt lat="41.0672928" lon="14.6420123"><ele>394.0</ele><time>2026-04-25T10:09:54.384Z</time></trkpt><trkpt lat="41.067255" lon="14.6419136"><ele>388.5</ele><time>2026-04-25T10:10:22.438Z</time></trkpt><trkpt lat="41.0673178" lon="14.6419417"><ele>383.0</ele><time>2026-04-25T10:10:50.504Z</time></trkpt><trkpt lat="41.0673869" lon="14.6418923"><ele>383.0</ele><time>2026-04-25T10:11:00.484Z</time></trkpt><trkpt lat="41.0673592" lon="14.6418117"><ele>383.0</ele><time>2026-04-25T10:12:13.486Z</time></trkpt><trkpt lat="41.067317" lon="14.6417419"><ele>383.0</ele><time>2026-04-25T10:12:21.094Z</time></trkpt><trkpt lat="41.0674089" lon="14.6417332"><ele>383.0</ele><time>2026-04-25T10:13:21.513Z</time></trkpt><trkpt lat="41.067517" lon="14.6417367"><ele>383.0</ele><time>2026-04-25T10:13:59.471Z</time></trkpt><trkpt lat="41.067553" lon="14.6416539"><ele>383.0</ele><time>2026-04-25T10:15:21.507Z</time></trkpt><trkpt lat="41.0674762" lon="14.6414618"><ele>385.33333333333337</ele><time>2026-04-25T10:15:42.381Z</time></trkpt><trkpt lat="41.067475" lon="14.6416038"><ele>387.6666666666667</ele><time>2026-04-25T10:15:54.391Z</time></trkpt><trkpt lat="41.0675358" lon="14.6416469"><ele>390.0</ele><time>2026-04-25T10:16:22.381Z</time></trkpt><trkpt lat="41.0675771" lon="14.6417328"><ele>392.33333333333337</ele><time>2026-04-25T10:17:15.381Z</time></trkpt><trkpt lat="41.0675883" lon="14.6418371"><ele>394.6666666666667</ele><time>2026-04-25T10:17:22.381Z</time></trkpt><trkpt lat="41.0675978" lon="14.6419412"><ele>397.0</ele><time>2026-04-25T10:18:02.382Z</time></trkpt><trkpt lat="41.0675996" lon="14.6420249"><ele>397.00000000000006</ele><time>2026-04-25T10:18:05.386Z</time></trkpt><trkpt lat="41.0676533" lon="14.6420883"><ele>397.0</ele><time>2026-04-25T10:21:26.384Z</time></trkpt><trkpt lat="41.0677267" lon="14.6421117"><ele>397.0</ele><time>2026-04-25T10:22:37.381Z</time></trkpt><trkpt lat="41.0677767" lon="14.6422067"><ele>397.0</ele><time>2026-04-25T10:24:07.386Z</time></trkpt><trkpt lat="41.0678667" lon="14.6422467"><ele>397.00000000000006</ele><time>2026-04-25T10:24:12.381Z</time></trkpt><trkpt lat="41.0679483" lon="14.6422633"><ele>397.0</ele><time>2026-04-25T10:24:14.383Z</time></trkpt><trkpt lat="41.0680333" lon="14.6423317"><ele>397.00000000000006</ele><time>2026-04-25T10:24:16.382Z</time></trkpt><trkpt lat="41.068105" lon="14.6424"><ele>397.0</ele><time>2026-04-25T10:24:18.384Z</time></trkpt><trkpt lat="41.0681783" lon="14.64244"><ele>397.0</ele><time>2026-04-25T10:24:21.382Z</time></trkpt><trkpt lat="41.0682433" lon="14.642485"><ele>397.0</ele><time>2026-04-25T10:24:26.383Z</time></trkpt><trkpt lat="41.0683133" lon="14.6425133"><ele>397.00000000000006</ele><time>2026-04-25T10:24:29.383Z</time></trkpt><trkpt lat="41.0684083" lon="14.64256"><ele>397.0</ele><time>2026-04-25T10:24:32.385Z</time></trkpt><trkpt lat="41.06849" lon="14.6426"><ele>397.83333333333337</ele><time>2026-04-25T10:24:34.383Z</time></trkpt><trkpt lat="41.0685667" lon="14.6426233"><ele>398.6666666666667</ele><time>2026-04-25T10:24:36.382Z</time></trkpt><trkpt lat="41.0686467" lon="14.64265"><ele>399.5</ele><time>2026-04-25T10:24:39.381Z</time></trkpt><trkpt lat="41.0687183" lon="14.6426983"><ele>400.33333333333337</ele><time>2026-04-25T10:24:42.383Z</time></trkpt><trkpt lat="41.0688033" lon="14.6427467"><ele>401.1666666666667</ele><time>2026-04-25T10:24:45.385Z</time></trkpt><trkpt lat="41.06887" lon="14.6427867"><ele>402.0</ele><time>2026-04-25T10:24:47.383Z</time></trkpt><trkpt lat="41.06895" lon="14.64283"><ele>402.0</ele><time>2026-04-25T10:24:49.385Z</time></trkpt><trkpt lat="41.0690367" lon="14.642895"><ele>402.0</ele><time>2026-04-25T10:24:51.384Z</time></trkpt><trkpt lat="41.069125" lon="14.6429667"><ele>402.0</ele><time>2026-04-25T10:24:53.384Z</time></trkpt><trkpt lat="41.06921" lon="14.6430033"><ele>402.0</ele><time>2026-04-25T10:24:55.385Z</time></trkpt><trkpt lat="41.0692917" lon="14.6430183"><ele>402.0</ele><time>2026-04-25T10:24:57.384Z</time></trkpt><trkpt lat="41.06938" lon="14.643085"><ele>403.40000000000003</ele><time>2026-04-25T10:24:59.383Z</time></trkpt><trkpt lat="41.0694467" lon="14.6432183"><ele>404.8</ele><time>2026-04-25T10:25:01.382Z</time></trkpt><trkpt lat="41.0694767" lon="14.6433667"><ele>406.2</ele><time>2026-04-25T10:25:03.382Z</time></trkpt><trkpt lat="41.0694717" lon="14.6434883"><ele>407.6</ele><time>2026-04-25T10:25:05.383Z</time></trkpt><trkpt lat="41.069455" lon="14.643575"><ele>409.0</ele><time>2026-04-25T10:25:07.383Z</time></trkpt><trkpt lat="41.069445" lon="14.643665"><ele>409.00000000000006</ele><time>2026-04-25T10:25:09.383Z</time></trkpt><trkpt lat="41.0694933" lon="14.64374"><ele>409.0</ele><time>2026-04-25T10:25:13.383Z</time></trkpt><trkpt lat="41.0695717" lon="14.6437267"><ele>409.0</ele><time>2026-04-25T10:25:16.382Z</time></trkpt><trkpt lat="41.0696183" lon="14.643625"><ele>409.0</ele><time>2026-04-25T10:25:18.386Z</time></trkpt><trkpt lat="41.0696367" lon="14.64347"><ele>409.00000000000006</ele><time>2026-04-25T10:25:20.383Z</time></trkpt><trkpt lat="41.0696317" lon="14.6433833"><ele>409.0</ele><time>2026-04-25T10:25:21.385Z</time></trkpt><trkpt lat="41.0696183" lon="14.6432933"><ele>409.00000000000006</ele><time>2026-04-25T10:25:22.385Z</time></trkpt><trkpt lat="41.0696" lon="14.6432"><ele>409.0</ele><time>2026-04-25T10:25:23.384Z</time></trkpt><trkpt lat="41.0695767" lon="14.6431083"><ele>409.0</ele><time>2026-04-25T10:25:24.385Z</time></trkpt><trkpt lat="41.06955" lon="14.6430233"><ele>409.0</ele><time>2026-04-25T10:25:25.384Z</time></trkpt><trkpt lat="41.0695283" lon="14.6429433"><ele>409.00000000000006</ele><time>2026-04-25T10:25:26.385Z</time></trkpt><trkpt lat="41.0695083" lon="14.642805"><ele>409.0</ele><time>2026-04-25T10:25:28.384Z</time></trkpt><trkpt lat="41.0695517" lon="14.6427283"><ele>409.00000000000006</ele><time>2026-04-25T10:25:30.384Z</time></trkpt><trkpt lat="41.0696067" lon="14.6428033"><ele>409.0</ele><time>2026-04-25T10:25:32.388Z</time></trkpt><trkpt lat="41.0696317" lon="14.6429617"><ele>409.0</ele><time>2026-04-25T10:25:34.386Z</time></trkpt><trkpt lat="41.069645" lon="14.6430517"><ele>409.0</ele><time>2026-04-25T10:25:35.385Z</time></trkpt><trkpt lat="41.069655" lon="14.6431433"><ele>409.00000000000006</ele><time>2026-04-25T10:25:36.385Z</time></trkpt><trkpt lat="41.0696667" lon="14.6432267"><ele>409.0</ele><time>2026-04-25T10:25:37.384Z</time></trkpt><trkpt lat="41.0697167" lon="14.6433383"><ele>409.00000000000006</ele><time>2026-04-25T10:25:39.383Z</time></trkpt><trkpt lat="41.0697917" lon="14.64331"><ele>409.0</ele><time>2026-04-25T10:25:41.383Z</time></trkpt><trkpt lat="41.0698167" lon="14.6432083"><ele>409.0</ele><time>2026-04-25T10:25:43.386Z</time></trkpt><trkpt lat="41.0697883" lon="14.6430933"><ele>409.0</ele><time>2026-04-25T10:25:44.387Z</time></trkpt><trkpt lat="41.069765" lon="14.642985"><ele>409.00000000000006</ele><time>2026-04-25T10:25:45.385Z</time></trkpt><trkpt lat="41.0697533" lon="14.6429017"><ele>409.0</ele><time>2026-04-25T10:25:46.385Z</time></trkpt><trkpt lat="41.0697617" lon="14.642785"><ele>409.0</ele><time>2026-04-25T10:25:48.383Z</time></trkpt><trkpt lat="41.0698167" lon="14.6427167"><ele>409.0</ele><time>2026-04-25T10:25:50.384Z</time></trkpt><trkpt lat="41.0698967" lon="14.6427767"><ele>409.0</ele><time>2026-04-25T10:25:53.385Z</time></trkpt><trkpt lat="41.0699117" lon="14.64292"><ele>409.0</ele><time>2026-04-25T10:25:55.382Z</time></trkpt><trkpt lat="41.069915" lon="14.64308"><ele>409.0</ele><time>2026-04-25T10:25:57.385Z</time></trkpt><trkpt lat="41.069915" lon="14.6431717"><ele>409.00000000000006</ele><time>2026-04-25T10:25:58.385Z</time></trkpt><trkpt lat="41.069915" lon="14.64328"><ele>409.0</ele><time>2026-04-25T10:25:59.384Z</time></trkpt><trkpt lat="41.069915" lon="14.6433867"><ele>409.0</ele><time>2026-04-25T10:26:00.383Z</time></trkpt><trkpt lat="41.069915" lon="14.643495"><ele>409.0</ele><time>2026-04-25T10:26:01.383Z</time></trkpt><trkpt lat="41.0699067" lon="14.6436017"><ele>409.00000000000006</ele><time>2026-04-25T10:26:02.384Z</time></trkpt><trkpt lat="41.0698867" lon="14.6436983"><ele>409.0</ele><time>2026-04-25T10:26:03.381Z</time></trkpt><trkpt lat="41.0698567" lon="14.6437867"><ele>404.6</ele><time>2026-04-25T10:26:04.384Z</time></trkpt><trkpt lat="41.0698217" lon="14.6438633"><ele>400.2</ele><time>2026-04-25T10:26:05.383Z</time></trkpt><trkpt lat="41.0697783" lon="14.6439933"><ele>395.8</ele><time>2026-04-25T10:26:07.385Z</time></trkpt><trkpt lat="41.0698083" lon="14.6441083"><ele>391.40000000000003</ele><time>2026-04-25T10:26:09.385Z</time></trkpt><trkpt lat="41.0699083" lon="14.644155"><ele>387.0</ele><time>2026-04-25T10:26:11.382Z</time></trkpt><trkpt lat="41.0700283" lon="14.644125"><ele>386.0</ele><time>2026-04-25T10:26:13.385Z</time></trkpt><trkpt lat="41.0701417" lon="14.64411"><ele>385.0</ele><time>2026-04-25T10:26:15.383Z</time></trkpt><trkpt lat="41.0702167" lon="14.6440983"><ele>384.0</ele><time>2026-04-25T10:26:17.383Z</time></trkpt><trkpt lat="41.0702717" lon="14.644175"><ele>383.0</ele><time>2026-04-25T10:26:20.386Z</time></trkpt><trkpt lat="41.07026" lon="14.6442733"><ele>382.0</ele><time>2026-04-25T10:26:23.383Z</time></trkpt><trkpt lat="41.0702083" lon="14.64435"><ele>381.0</ele><time>2026-04-25T10:26:26.383Z</time></trkpt><trkpt lat="41.07024" lon="14.6444317"><ele>381.0</ele><time>2026-04-25T10:26:30.386Z</time></trkpt><trkpt lat="41.0703" lon="14.6444017"><ele>381.0</ele><time>2026-04-25T10:26:33.384Z</time></trkpt><trkpt lat="41.0702817" lon="14.6442933"><ele>381.0</ele><time>2026-04-25T10:26:37.383Z</time></trkpt><trkpt lat="41.0702633" lon="14.6442117"><ele>381.0</ele><time>2026-04-25T10:26:39.382Z</time></trkpt><trkpt lat="41.07029" lon="14.6441033"><ele>381.0</ele><time>2026-04-25T10:26:42.384Z</time></trkpt><trkpt lat="41.0703633" lon="14.64411"><ele>381.0</ele><time>2026-04-25T10:26:45.383Z</time></trkpt><trkpt lat="41.0704183" lon="14.6441767"><ele>381.0</ele><time>2026-04-25T10:26:47.382Z</time></trkpt><trkpt lat="41.070475" lon="14.6442467"><ele>381.0</ele><time>2026-04-25T10:26:49.383Z</time></trkpt><trkpt lat="41.07052" lon="14.6443333"><ele>381.0</ele><time>2026-04-25T10:26:51.385Z</time></trkpt><trkpt lat="41.0705667" lon="14.64442"><ele>381.0</ele><time>2026-04-25T10:26:53.384Z</time></trkpt><trkpt lat="41.0706183" lon="14.644505"><ele>381.0</ele><time>2026-04-25T10:26:55.383Z</time></trkpt><trkpt lat="41.0706633" lon="14.644585"><ele>381.0</ele><time>2026-04-25T10:26:57.385Z</time></trkpt><trkpt lat="41.07069" lon="14.6446817"><ele>381.0</ele><time>2026-04-25T10:27:00.385Z</time></trkpt><trkpt lat="41.07066" lon="14.6447617"><ele>379.3333333333333</ele><time>2026-04-25T10:27:11.383Z</time></trkpt><trkpt lat="41.070595" lon="14.64475"><ele>377.6666666666667</ele><time>2026-04-25T10:27:14.384Z</time></trkpt><trkpt lat="41.0705083" lon="14.6447433"><ele>376.0</ele><time>2026-04-25T10:27:17.384Z</time></trkpt><trkpt lat="41.0704333" lon="14.6447283"><ele>374.33333333333337</ele><time>2026-04-25T10:27:19.382Z</time></trkpt><trkpt lat="41.0703467" lon="14.6447133"><ele>372.6666666666667</ele><time>2026-04-25T10:27:21.383Z</time></trkpt><trkpt lat="41.0702517" lon="14.6447217"><ele>371.0</ele><time>2026-04-25T10:27:23.383Z</time></trkpt><trkpt lat="41.0701367" lon="14.6447333"><ele>371.0</ele><time>2026-04-25T10:27:25.384Z</time></trkpt><trkpt lat="41.070015" lon="14.6447317"><ele>371.0</ele><time>2026-04-25T10:27:27.382Z</time></trkpt><trkpt lat="41.069905" lon="14.6447317"><ele>371.0</ele><time>2026-04-25T10:27:29.383Z</time></trkpt><trkpt lat="41.069805" lon="14.644735"><ele>371.0</ele><time>2026-04-25T10:27:31.383Z</time></trkpt><trkpt lat="41.0696917" lon="14.6447767"><ele>371.0</ele><time>2026-04-25T10:27:33.382Z</time></trkpt><trkpt lat="41.0696367" lon="14.6448233"><ele>371.0</ele><time>2026-04-25T10:27:34.381Z</time></trkpt><trkpt lat="41.0695833" lon="14.64488"><ele>371.0</ele><time>2026-04-25T10:27:35.381Z</time></trkpt><trkpt lat="41.0695333" lon="14.6449433"><ele>371.0</ele><time>2026-04-25T10:27:36.383Z</time></trkpt><trkpt lat="41.0694867" lon="14.645005"><ele>371.0</ele><time>2026-04-25T10:27:37.384Z</time></trkpt><trkpt lat="41.0694383" lon="14.6450633"><ele>371.0</ele><time>2026-04-25T10:27:38.386Z</time></trkpt><trkpt lat="41.0693517" lon="14.64515"><ele>371.0</ele><time>2026-04-25T10:27:40.381Z</time></trkpt><trkpt lat="41.069265" lon="14.6452017"><ele>371.0</ele><time>2026-04-25T10:27:42.384Z</time></trkpt><trkpt lat="41.0691533" lon="14.6451717"><ele>371.0</ele><time>2026-04-25T10:27:44.383Z</time></trkpt><trkpt lat="41.069095" lon="14.6451283"><ele>371.0</ele><time>2026-04-25T10:27:45.382Z</time></trkpt><trkpt lat="41.06904" lon="14.6450767"><ele>371.0</ele><time>2026-04-25T10:27:46.381Z</time></trkpt><trkpt lat="41.06895" lon="14.6449867"><ele>371.0</ele><time>2026-04-25T10:27:48.384Z</time></trkpt><trkpt lat="41.0688667" lon="14.6449167"><ele>368.0</ele><time>2026-04-25T10:27:50.383Z</time></trkpt><trkpt lat="41.06878" lon="14.644835"><ele>365.0</ele><time>2026-04-25T10:27:52.384Z</time></trkpt><trkpt lat="41.068695" lon="14.6447533"><ele>362.0</ele><time>2026-04-25T10:27:54.384Z</time></trkpt><trkpt lat="41.068605" lon="14.6446583"><ele>359.0</ele><time>2026-04-25T10:27:56.384Z</time></trkpt><trkpt lat="41.0685183" lon="14.6445717"><ele>356.0</ele><time>2026-04-25T10:27:58.382Z</time></trkpt><trkpt lat="41.0684283" lon="14.6444633"><ele>356.5</ele><time>2026-04-25T10:28:00.381Z</time></trkpt><trkpt lat="41.068335" lon="14.6443717"><ele>357.0</ele><time>2026-04-25T10:28:02.384Z</time></trkpt><trkpt lat="41.068255" lon="14.6443167"><ele>357.5</ele><time>2026-04-25T10:28:04.384Z</time></trkpt><trkpt lat="41.0681833" lon="14.6443583"><ele>358.0</ele><time>2026-04-25T10:28:06.382Z</time></trkpt><trkpt lat="41.0681633" lon="14.6444483"><ele>358.5</ele><time>2026-04-25T10:28:08.384Z</time></trkpt><trkpt lat="41.068205" lon="14.6445367"><ele>359.0</ele><time>2026-04-25T10:28:12.382Z</time></trkpt><trkpt lat="41.0682483" lon="14.6445983"><ele>358.5</ele><time>2026-04-25T10:28:14.383Z</time></trkpt><trkpt lat="41.06831" lon="14.6446567"><ele>358.0</ele><time>2026-04-25T10:28:17.389Z</time></trkpt><trkpt lat="41.0683683" lon="14.64472"><ele>357.5</ele><time>2026-04-25T10:28:21.383Z</time></trkpt><trkpt lat="41.0684133" lon="14.6447883"><ele>357.0</ele><time>2026-04-25T10:28:24.38Z</time></trkpt><trkpt lat="41.0684517" lon="14.6448733"><ele>356.5</ele><time>2026-04-25T10:28:27.38Z</time></trkpt><trkpt lat="41.0684983" lon="14.6449533"><ele>356.0</ele><time>2026-04-25T10:28:30.382Z</time></trkpt><trkpt lat="41.068575" lon="14.64505"><ele>356.0</ele><time>2026-04-25T10:28:35.38Z</time></trkpt><trkpt lat="41.0686133" lon="14.6451333"><ele>356.0</ele><time>2026-04-25T10:28:38.382Z</time></trkpt><trkpt lat="41.0686617" lon="14.6452033"><ele>356.0</ele><time>2026-04-25T10:28:41.38Z</time></trkpt><trkpt lat="41.0686767" lon="14.64529"><ele>356.0</ele><time>2026-04-25T10:28:44.382Z</time></trkpt><trkpt lat="41.06863" lon="14.6453517"><ele>356.0</ele><time>2026-04-25T10:28:47.384Z</time></trkpt><trkpt lat="41.06855" lon="14.6453233"><ele>356.0</ele><time>2026-04-25T10:28:50.383Z</time></trkpt><trkpt lat="41.0684817" lon="14.645245"><ele>355.99999999999994</ele><time>2026-04-25T10:28:53.382Z</time></trkpt><trkpt lat="41.0684217" lon="14.6451683"><ele>356.0</ele><time>2026-04-25T10:28:56.381Z</time></trkpt><trkpt lat="41.068365" lon="14.64509"><ele>356.0</ele><time>2026-04-25T10:28:59.381Z</time></trkpt><trkpt lat="41.0683283" lon="14.6450117"><ele>356.0</ele><time>2026-04-25T10:29:02.382Z</time></trkpt><trkpt lat="41.0682817" lon="14.64493"><ele>356.0</ele><time>2026-04-25T10:29:05.381Z</time></trkpt><trkpt lat="41.06824" lon="14.6448583"><ele>355.99999999999994</ele><time>2026-04-25T10:29:08.38Z</time></trkpt><trkpt lat="41.068195" lon="14.6447917"><ele>356.0</ele><time>2026-04-25T10:29:10.381Z</time></trkpt><trkpt lat="41.0681183" lon="14.6447517"><ele>353.83333333333337</ele><time>2026-04-25T10:29:13.381Z</time></trkpt><trkpt lat="41.0680333" lon="14.6447183"><ele>351.6666666666667</ele><time>2026-04-25T10:29:16.392Z</time></trkpt><trkpt lat="41.0679383" lon="14.64469"><ele>349.5</ele><time>2026-04-25T10:29:19.382Z</time></trkpt><trkpt lat="41.0678933" lon="14.644755"><ele>347.3333333333333</ele><time>2026-04-25T10:29:22.386Z</time></trkpt><trkpt lat="41.067955" lon="14.6448383"><ele>345.16666666666663</ele><time>2026-04-25T10:29:23.383Z</time></trkpt><trkpt lat="41.067995" lon="14.644915"><ele>343.0</ele><time>2026-04-25T10:29:24.382Z</time></trkpt><trkpt lat="41.068045" lon="14.64498"><ele>343.0</ele><time>2026-04-25T10:29:25.382Z</time></trkpt><trkpt lat="41.068095" lon="14.645045"><ele>343.0</ele><time>2026-04-25T10:29:26.383Z</time></trkpt><trkpt lat="41.0681433" lon="14.6451083"><ele>343.0</ele><time>2026-04-25T10:29:27.381Z</time></trkpt><trkpt lat="41.0681883" lon="14.6451683"><ele>343.0</ele><time>2026-04-25T10:29:28.383Z</time></trkpt><trkpt lat="41.06827" lon="14.6452867"><ele>343.0</ele><time>2026-04-25T10:29:30.381Z</time></trkpt><trkpt lat="41.0683467" lon="14.645405"><ele>343.0</ele><time>2026-04-25T10:29:32.382Z</time></trkpt><trkpt lat="41.06842" lon="14.6455183"><ele>342.5</ele><time>2026-04-25T10:29:34.389Z</time></trkpt><trkpt lat="41.06849" lon="14.6456417"><ele>342.0</ele><time>2026-04-25T10:29:36.381Z</time></trkpt><trkpt lat="41.068595" lon="14.64576"><ele>341.5</ele><time>2026-04-25T10:29:38.387Z</time></trkpt><trkpt lat="41.068675" lon="14.6458617"><ele>341.0</ele><time>2026-04-25T10:29:40.382Z</time></trkpt><trkpt lat="41.0687517" lon="14.6459633"><ele>341.0</ele><time>2026-04-25T10:29:42.383Z</time></trkpt><trkpt lat="41.06884" lon="14.6460433"><ele>341.0</ele><time>2026-04-25T10:29:44.383Z</time></trkpt><trkpt lat="41.06894" lon="14.6461283"><ele>341.0</ele><time>2026-04-25T10:29:46.383Z</time></trkpt><trkpt lat="41.0690633" lon="14.64621"><ele>341.0</ele><time>2026-04-25T10:29:48.383Z</time></trkpt><trkpt lat="41.0691333" lon="14.646265"><ele>341.0</ele><time>2026-04-25T10:29:49.383Z</time></trkpt><trkpt lat="41.0692067" lon="14.6463283"><ele>340.83333333333337</ele><time>2026-04-25T10:29:51.383Z</time></trkpt><trkpt lat="41.0692317" lon="14.6464183"><ele>340.6666666666667</ele><time>2026-04-25T10:29:54.385Z</time></trkpt><trkpt lat="41.06917" lon="14.646455"><ele>340.5</ele><time>2026-04-25T10:29:58.383Z</time></trkpt><trkpt lat="41.06908" lon="14.6464383"><ele>340.3333333333333</ele><time>2026-04-25T10:30:01.383Z</time></trkpt><trkpt lat="41.0690283" lon="14.6464867"><ele>340.16666666666663</ele><time>2026-04-25T10:30:05.383Z</time></trkpt><trkpt lat="41.0691067" lon="14.6464867"><ele>340.0</ele><time>2026-04-25T10:30:09.384Z</time></trkpt><trkpt lat="41.0691883" lon="14.64651"><ele>340.0</ele><time>2026-04-25T10:30:13.383Z</time></trkpt><trkpt lat="41.069255" lon="14.6465133"><ele>340.0</ele><time>2026-04-25T10:30:16.383Z</time></trkpt><trkpt lat="41.0693183" lon="14.6465467"><ele>340.0</ele><time>2026-04-25T10:30:19.386Z</time></trkpt><trkpt lat="41.0693733" lon="14.6466317"><ele>340.0</ele><time>2026-04-25T10:30:22.382Z</time></trkpt><trkpt lat="41.0694217" lon="14.646735"><ele>340.0</ele><time>2026-04-25T10:30:25.382Z</time></trkpt><trkpt lat="41.0694433" lon="14.6468217"><ele>340.0</ele><time>2026-04-25T10:30:27.382Z</time></trkpt><trkpt lat="41.0694367" lon="14.6469333"><ele>340.16666666666663</ele><time>2026-04-25T10:30:30.382Z</time></trkpt><trkpt lat="41.0694217" lon="14.6470333"><ele>340.3333333333333</ele><time>2026-04-25T10:30:33.383Z</time></trkpt><trkpt lat="41.0693983" lon="14.6471483"><ele>340.5</ele><time>2026-04-25T10:30:36.384Z</time></trkpt><trkpt lat="41.0693733" lon="14.6472533"><ele>340.6666666666667</ele><time>2026-04-25T10:30:39.383Z</time></trkpt><trkpt lat="41.0693433" lon="14.6473483"><ele>340.83333333333337</ele><time>2026-04-25T10:30:42.387Z</time></trkpt><trkpt lat="41.0693067" lon="14.647445"><ele>341.0</ele><time>2026-04-25T10:30:45.382Z</time></trkpt><trkpt lat="41.0692667" lon="14.6475433"><ele>341.0</ele><time>2026-04-25T10:30:48.385Z</time></trkpt><trkpt lat="41.0692467" lon="14.6476467"><ele>341.0</ele><time>2026-04-25T10:30:51.383Z</time></trkpt><trkpt lat="41.069225" lon="14.64775"><ele>341.0</ele><time>2026-04-25T10:30:54.383Z</time></trkpt><trkpt lat="41.0691917" lon="14.6478583"><ele>341.0</ele><time>2026-04-25T10:30:57.386Z</time></trkpt><trkpt lat="41.0691633" lon="14.647955"><ele>341.0</ele><time>2026-04-25T10:31:00.382Z</time></trkpt><trkpt lat="41.0691417" lon="14.64805"><ele>341.0</ele><time>2026-04-25T10:31:03.382Z</time></trkpt><trkpt lat="41.0691217" lon="14.64815"><ele>340.6666666666667</ele><time>2026-04-25T10:31:06.384Z</time></trkpt><trkpt lat="41.0691" lon="14.6482617"><ele>340.33333333333337</ele><time>2026-04-25T10:31:09.384Z</time></trkpt><trkpt lat="41.0690833" lon="14.6483533"><ele>340.0</ele><time>2026-04-25T10:31:12.381Z</time></trkpt><trkpt lat="41.0690717" lon="14.6484633"><ele>339.6666666666667</ele><time>2026-04-25T10:31:15.386Z</time></trkpt><trkpt lat="41.0690533" lon="14.64858"><ele>339.3333333333333</ele><time>2026-04-25T10:31:18.385Z</time></trkpt><trkpt lat="41.0690333" lon="14.648685"><ele>339.0</ele><time>2026-04-25T10:31:21.384Z</time></trkpt><trkpt lat="41.069025" lon="14.648785"><ele>339.0</ele><time>2026-04-25T10:31:24.382Z</time></trkpt><trkpt lat="41.0690317" lon="14.6488917"><ele>339.0</ele><time>2026-04-25T10:31:27.383Z</time></trkpt><trkpt lat="41.0690383" lon="14.6489967"><ele>339.0</ele><time>2026-04-25T10:31:30.383Z</time></trkpt><trkpt lat="41.0690467" lon="14.64911"><ele>339.0</ele><time>2026-04-25T10:31:33.384Z</time></trkpt><trkpt lat="41.0690733" lon="14.6492167"><ele>339.0</ele><time>2026-04-25T10:31:36.382Z</time></trkpt><trkpt lat="41.0691067" lon="14.6492883"><ele>339.0</ele><time>2026-04-25T10:31:38.385Z</time></trkpt><trkpt lat="41.0691683" lon="14.6493717"><ele>340.2</ele><time>2026-04-25T10:31:41.386Z</time></trkpt><trkpt lat="41.0692417" lon="14.6494533"><ele>341.4</ele><time>2026-04-25T10:31:44.383Z</time></trkpt><trkpt lat="41.0693217" lon="14.6495083"><ele>342.6</ele><time>2026-04-25T10:31:47.382Z</time></trkpt><trkpt lat="41.0694" lon="14.6495583"><ele>343.8</ele><time>2026-04-25T10:31:50.387Z</time></trkpt><trkpt lat="41.0694833" lon="14.6495983"><ele>345.0</ele><time>2026-04-25T10:31:53.382Z</time></trkpt><trkpt lat="41.0695617" lon="14.6496533"><ele>345.0</ele><time>2026-04-25T10:31:56.386Z</time></trkpt><trkpt lat="41.0696217" lon="14.649685"><ele>345.0</ele><time>2026-04-25T10:31:58.383Z</time></trkpt><trkpt lat="41.0696883" lon="14.6497133"><ele>345.0</ele><time>2026-04-25T10:32:00.382Z</time></trkpt><trkpt lat="41.069755" lon="14.6497467"><ele>345.0</ele><time>2026-04-25T10:32:02.384Z</time></trkpt><trkpt lat="41.0698417" lon="14.6497817"><ele>345.0</ele><time>2026-04-25T10:32:05.386Z</time></trkpt><trkpt lat="41.0699317" lon="14.6498167"><ele>345.0</ele><time>2026-04-25T10:32:08.383Z</time></trkpt><trkpt lat="41.069995" lon="14.649845"><ele>346.6666666666667</ele><time>2026-04-25T10:32:10.383Z</time></trkpt><trkpt lat="41.0700867" lon="14.649885"><ele>348.3333333333333</ele><time>2026-04-25T10:32:13.385Z</time></trkpt><trkpt lat="41.0701483" lon="14.6499183"><ele>350.0</ele><time>2026-04-25T10:32:15.384Z</time></trkpt><trkpt lat="41.0702117" lon="14.6499417"><ele>351.66666666666663</ele><time>2026-04-25T10:32:17.386Z</time></trkpt><trkpt lat="41.0702783" lon="14.6499667"><ele>353.3333333333333</ele><time>2026-04-25T10:32:19.384Z</time></trkpt><trkpt lat="41.0703667" lon="14.650015"><ele>355.0</ele><time>2026-04-25T10:32:22.386Z</time></trkpt><trkpt lat="41.07043" lon="14.65006"><ele>355.0</ele><time>2026-04-25T10:32:24.384Z</time></trkpt><trkpt lat="41.070485" lon="14.6501017"><ele>355.0</ele><time>2026-04-25T10:32:26.383Z</time></trkpt><trkpt lat="41.0705683" lon="14.65016"><ele>355.0</ele><time>2026-04-25T10:32:29.384Z</time></trkpt><trkpt lat="41.07064" lon="14.6502283"><ele>355.0</ele><time>2026-04-25T10:32:32.383Z</time></trkpt><trkpt lat="41.0706933" lon="14.6502867"><ele>355.0</ele><time>2026-04-25T10:32:34.387Z</time></trkpt><trkpt lat="41.0707417" lon="14.6503533"><ele>355.0</ele><time>2026-04-25T10:32:36.385Z</time></trkpt><trkpt lat="41.07078" lon="14.6504333"><ele>356.0</ele><time>2026-04-25T10:32:38.385Z</time></trkpt><trkpt lat="41.0708133" lon="14.65052"><ele>357.0</ele><time>2026-04-25T10:32:40.381Z</time></trkpt><trkpt lat="41.0708383" lon="14.6506117"><ele>358.0</ele><time>2026-04-25T10:32:42.383Z</time></trkpt><trkpt lat="41.070865" lon="14.6506933"><ele>359.0</ele><time>2026-04-25T10:32:44.383Z</time></trkpt><trkpt lat="41.0708833" lon="14.6507767"><ele>360.0</ele><time>2026-04-25T10:32:46.382Z</time></trkpt><trkpt lat="41.0708833" lon="14.6508867"><ele>361.0</ele><time>2026-04-25T10:32:49.382Z</time></trkpt><trkpt lat="41.0708883" lon="14.6509867"><ele>362.0</ele><time>2026-04-25T10:32:52.384Z</time></trkpt><trkpt lat="41.07085" lon="14.6510767"><ele>362.1428571428571</ele><time>2026-04-25T10:38:15.382Z</time></trkpt><trkpt lat="41.0708383" lon="14.6511633"><ele>362.2857142857143</ele><time>2026-04-25T10:38:17.381Z</time></trkpt><trkpt lat="41.0708267" lon="14.651255"><ele>362.42857142857144</ele><time>2026-04-25T10:38:19.382Z</time></trkpt><trkpt lat="41.0708117" lon="14.6513483"><ele>362.57142857142856</ele><time>2026-04-25T10:38:21.384Z</time></trkpt><trkpt lat="41.0708083" lon="14.6514417"><ele>362.7142857142857</ele><time>2026-04-25T10:38:23.383Z</time></trkpt><trkpt lat="41.0708083" lon="14.651535"><ele>362.85714285714283</ele><time>2026-04-25T10:38:25.383Z</time></trkpt><trkpt lat="41.070805" lon="14.651655"><ele>363.0</ele><time>2026-04-25T10:38:28.384Z</time></trkpt><trkpt lat="41.0708117" lon="14.6517683"><ele>362.99999999999994</ele><time>2026-04-25T10:38:31.383Z</time></trkpt><trkpt lat="41.070845" lon="14.651855"><ele>363.0</ele><time>2026-04-25T10:38:34.384Z</time></trkpt><trkpt lat="41.0708883" lon="14.6519383"><ele>363.0</ele><time>2026-04-25T10:38:36.382Z</time></trkpt><trkpt lat="41.070925" lon="14.6520117"><ele>363.0</ele><time>2026-04-25T10:38:38.385Z</time></trkpt><trkpt lat="41.0709517" lon="14.65209"><ele>363.0</ele><time>2026-04-25T10:38:40.384Z</time></trkpt><trkpt lat="41.0709817" lon="14.65217"><ele>362.99999999999994</ele><time>2026-04-25T10:38:42.385Z</time></trkpt><trkpt lat="41.07101" lon="14.652245"><ele>363.0</ele><time>2026-04-25T10:38:44.384Z</time></trkpt><trkpt lat="41.0710517" lon="14.65234"><ele>362.8333333333333</ele><time>2026-04-25T10:38:47.384Z</time></trkpt><trkpt lat="41.07109" lon="14.652435"><ele>362.6666666666667</ele><time>2026-04-25T10:38:50.385Z</time></trkpt><trkpt lat="41.0711283" lon="14.652535"><ele>362.5</ele><time>2026-04-25T10:38:53.384Z</time></trkpt><trkpt lat="41.0711683" lon="14.6526433"><ele>362.33333333333337</ele><time>2026-04-25T10:38:56.384Z</time></trkpt><trkpt lat="41.07122" lon="14.652745"><ele>362.1666666666667</ele><time>2026-04-25T10:38:59.383Z</time></trkpt><trkpt lat="41.071275" lon="14.6528433"><ele>362.0</ele><time>2026-04-25T10:39:02.383Z</time></trkpt><trkpt lat="41.0713333" lon="14.6529233"><ele>361.85714285714283</ele><time>2026-04-25T10:39:05.383Z</time></trkpt><trkpt lat="41.0713917" lon="14.6530017"><ele>361.71428571428567</ele><time>2026-04-25T10:39:08.384Z</time></trkpt><trkpt lat="41.0714417" lon="14.6530533"><ele>361.57142857142856</ele><time>2026-04-25T10:39:10.385Z</time></trkpt><trkpt lat="41.0714967" lon="14.653105"><ele>361.42857142857144</ele><time>2026-04-25T10:39:12.382Z</time></trkpt><trkpt lat="41.07155" lon="14.65316"><ele>361.2857142857143</ele><time>2026-04-25T10:39:14.383Z</time></trkpt><trkpt lat="41.0716033" lon="14.6532133"><ele>361.14285714285717</ele><time>2026-04-25T10:39:16.383Z</time></trkpt><trkpt lat="41.0716767" lon="14.653285"><ele>361.0</ele><time>2026-04-25T10:39:19.384Z</time></trkpt><trkpt lat="41.0717483" lon="14.6533517"><ele>362.8571428571429</ele><time>2026-04-25T10:39:22.383Z</time></trkpt><trkpt lat="41.0717983" lon="14.6534033"><ele>364.71428571428567</ele><time>2026-04-25T10:39:24.382Z</time></trkpt><trkpt lat="41.0718467" lon="14.6534617"><ele>366.57142857142856</ele><time>2026-04-25T10:39:26.385Z</time></trkpt><trkpt lat="41.0718917" lon="14.653535"><ele>368.42857142857144</ele><time>2026-04-25T10:39:28.384Z</time></trkpt><trkpt lat="41.0719183" lon="14.6536233"><ele>370.28571428571433</ele><time>2026-04-25T10:39:30.384Z</time></trkpt><trkpt lat="41.0719217" lon="14.6537317"><ele>372.1428571428571</ele><time>2026-04-25T10:39:32.384Z</time></trkpt><trkpt lat="41.07192" lon="14.65383"><ele>374.0</ele><time>2026-04-25T10:39:34.382Z</time></trkpt><trkpt lat="41.0719067" lon="14.6539167"><ele>374.0</ele><time>2026-04-25T10:39:36.384Z</time></trkpt><trkpt lat="41.0718833" lon="14.6539967"><ele>374.0</ele><time>2026-04-25T10:39:38.385Z</time></trkpt><trkpt lat="41.07185" lon="14.654105"><ele>374.0</ele><time>2026-04-25T10:39:41.383Z</time></trkpt><trkpt lat="41.071815" lon="14.6541767"><ele>374.0</ele><time>2026-04-25T10:39:43.383Z</time></trkpt><trkpt lat="41.0717667" lon="14.65424"><ele>374.0</ele><time>2026-04-25T10:39:45.382Z</time></trkpt><trkpt lat="41.0717167" lon="14.6542967"><ele>374.0</ele><time>2026-04-25T10:39:47.384Z</time></trkpt><trkpt lat="41.0716567" lon="14.6543533"><ele>374.0</ele><time>2026-04-25T10:39:49.383Z</time></trkpt><trkpt lat="41.0715917" lon="14.6544067"><ele>374.0</ele><time>2026-04-25T10:39:51.383Z</time></trkpt><trkpt lat="41.0715267" lon="14.6544417"><ele>374.0</ele><time>2026-04-25T10:39:53.384Z</time></trkpt><trkpt lat="41.07146" lon="14.654465"><ele>374.0</ele><time>2026-04-25T10:39:55.383Z</time></trkpt><trkpt lat="41.0713883" lon="14.654475"><ele>374.0</ele><time>2026-04-25T10:39:57.385Z</time></trkpt><trkpt lat="41.0713233" lon="14.65448"><ele>374.0</ele><time>2026-04-25T10:39:59.384Z</time></trkpt><trkpt lat="41.0712533" lon="14.654475"><ele>374.0</ele><time>2026-04-25T10:40:01.383Z</time></trkpt><trkpt lat="41.07118" lon="14.6544683"><ele>374.0</ele><time>2026-04-25T10:40:03.384Z</time></trkpt><trkpt lat="41.07111" lon="14.6544633"><ele>374.0</ele><time>2026-04-25T10:40:05.384Z</time></trkpt><trkpt lat="41.0710417" lon="14.6544583"><ele>374.0</ele><time>2026-04-25T10:40:07.383Z</time></trkpt><trkpt lat="41.0709667" lon="14.6544517"><ele>374.0</ele><time>2026-04-25T10:40:09.382Z</time></trkpt><trkpt lat="41.0708833" lon="14.6544483"><ele>374.0</ele><time>2026-04-25T10:40:11.383Z</time></trkpt><trkpt lat="41.0708067" lon="14.654455"><ele>374.0</ele><time>2026-04-25T10:40:13.382Z</time></trkpt><trkpt lat="41.0707433" lon="14.6544767"><ele>374.0</ele><time>2026-04-25T10:40:15.383Z</time></trkpt><trkpt lat="41.07068" lon="14.65451"><ele>374.0</ele><time>2026-04-25T10:40:17.383Z</time></trkpt><trkpt lat="41.0706383" lon="14.654575"><ele>373.2857142857143</ele><time>2026-04-25T10:40:19.383Z</time></trkpt><trkpt lat="41.070615" lon="14.654665"><ele>372.5714285714286</ele><time>2026-04-25T10:40:21.383Z</time></trkpt><trkpt lat="41.0706217" lon="14.65476"><ele>371.8571428571429</ele><time>2026-04-25T10:40:23.383Z</time></trkpt><trkpt lat="41.070645" lon="14.65485"><ele>371.1428571428571</ele><time>2026-04-25T10:40:25.383Z</time></trkpt><trkpt lat="41.0706817" lon="14.6549317"><ele>370.42857142857144</ele><time>2026-04-25T10:40:27.382Z</time></trkpt><trkpt lat="41.0707283" lon="14.655005"><ele>369.7142857142857</ele><time>2026-04-25T10:40:29.383Z</time></trkpt><trkpt lat="41.0707833" lon="14.6550767"><ele>369.0</ele><time>2026-04-25T10:40:31.382Z</time></trkpt><trkpt lat="41.0708333" lon="14.6551333"><ele>371.3333333333333</ele><time>2026-04-25T10:40:33.383Z</time></trkpt><trkpt lat="41.0709" lon="14.65521"><ele>373.6666666666667</ele><time>2026-04-25T10:40:36.384Z</time></trkpt><trkpt lat="41.0709633" lon="14.6552917"><ele>376.0</ele><time>2026-04-25T10:40:39.382Z</time></trkpt><trkpt lat="41.07103" lon="14.6553667"><ele>378.33333333333337</ele><time>2026-04-25T10:40:42.384Z</time></trkpt><trkpt lat="41.0711017" lon="14.65543"><ele>380.6666666666667</ele><time>2026-04-25T10:40:45.383Z</time></trkpt><trkpt lat="41.071165" lon="14.6555067"><ele>383.0</ele><time>2026-04-25T10:40:48.384Z</time></trkpt><trkpt lat="41.071225" lon="14.6555933"><ele>383.1428571428571</ele><time>2026-04-25T10:40:51.383Z</time></trkpt><trkpt lat="41.0712783" lon="14.6556433"><ele>383.2857142857143</ele><time>2026-04-25T10:40:53.384Z</time></trkpt><trkpt lat="41.0713317" lon="14.655695"><ele>383.42857142857144</ele><time>2026-04-25T10:40:55.382Z</time></trkpt><trkpt lat="41.0713883" lon="14.6557467"><ele>383.57142857142856</ele><time>2026-04-25T10:40:57.384Z</time></trkpt><trkpt lat="41.0714417" lon="14.6558033"><ele>383.7142857142857</ele><time>2026-04-25T10:40:59.385Z</time></trkpt><trkpt lat="41.071505" lon="14.6558633"><ele>383.85714285714283</ele><time>2026-04-25T10:41:01.384Z</time></trkpt><trkpt lat="41.0715667" lon="14.655915"><ele>384.0</ele><time>2026-04-25T10:41:03.382Z</time></trkpt><trkpt lat="41.071625" lon="14.6559717"><ele>385.1666666666667</ele><time>2026-04-25T10:41:05.383Z</time></trkpt><trkpt lat="41.0716783" lon="14.6560267"><ele>386.33333333333337</ele><time>2026-04-25T10:41:07.383Z</time></trkpt><trkpt lat="41.0717167" lon="14.656095"><ele>387.5</ele><time>2026-04-25T10:41:09.383Z</time></trkpt><trkpt lat="41.07178" lon="14.656185"><ele>388.6666666666667</ele><time>2026-04-25T10:41:12.383Z</time></trkpt><trkpt lat="41.071835" lon="14.6562533"><ele>389.83333333333337</ele><time>2026-04-25T10:41:14.384Z</time></trkpt><trkpt lat="41.0718767" lon="14.65633"><ele>391.0</ele><time>2026-04-25T10:41:16.384Z</time></trkpt><trkpt lat="41.0719333" lon="14.656425"><ele>390.99999999999994</ele><time>2026-04-25T10:41:19.384Z</time></trkpt><trkpt lat="41.0719617" lon="14.656505"><ele>391.0</ele><time>2026-04-25T10:41:21.385Z</time></trkpt><trkpt lat="41.0719917" lon="14.656585"><ele>391.0</ele><time>2026-04-25T10:41:23.385Z</time></trkpt><trkpt lat="41.0720133" lon="14.6566817"><ele>391.0</ele><time>2026-04-25T10:41:25.383Z</time></trkpt><trkpt lat="41.0720283" lon="14.65678"><ele>391.0</ele><time>2026-04-25T10:41:27.383Z</time></trkpt><trkpt lat="41.07205" lon="14.6568767"><ele>390.99999999999994</ele><time>2026-04-25T10:41:29.384Z</time></trkpt><trkpt lat="41.0720683" lon="14.6569733"><ele>391.0</ele><time>2026-04-25T10:41:31.383Z</time></trkpt><trkpt lat="41.0720833" lon="14.6570683"><ele>391.1666666666667</ele><time>2026-04-25T10:41:33.385Z</time></trkpt><trkpt lat="41.0721083" lon="14.6571483"><ele>391.33333333333337</ele><time>2026-04-25T10:41:35.383Z</time></trkpt><trkpt lat="41.072135" lon="14.6572267"><ele>391.5</ele><time>2026-04-25T10:41:37.384Z</time></trkpt><trkpt lat="41.0721667" lon="14.65734"><ele>391.66666666666663</ele><time>2026-04-25T10:41:40.383Z</time></trkpt><trkpt lat="41.0722133" lon="14.6574483"><ele>391.8333333333333</ele><time>2026-04-25T10:41:43.384Z</time></trkpt><trkpt lat="41.072235" lon="14.6575333"><ele>392.0</ele><time>2026-04-25T10:41:45.383Z</time></trkpt><trkpt lat="41.072245" lon="14.6576283"><ele>392.0</ele><time>2026-04-25T10:41:47.385Z</time></trkpt><trkpt lat="41.0722583" lon="14.6577183"><ele>392.0</ele><time>2026-04-25T10:41:49.383Z</time></trkpt><trkpt lat="41.072255" lon="14.6578117"><ele>392.0</ele><time>2026-04-25T10:41:51.383Z</time></trkpt><trkpt lat="41.0722433" lon="14.6579"><ele>392.0</ele><time>2026-04-25T10:41:53.385Z</time></trkpt><trkpt lat="41.07222" lon="14.657995"><ele>392.0</ele><time>2026-04-25T10:41:55.385Z</time></trkpt><trkpt lat="41.0721983" lon="14.658085"><ele>392.0</ele><time>2026-04-25T10:41:57.383Z</time></trkpt><trkpt lat="41.0721767" lon="14.6581683"><ele>392.0</ele><time>2026-04-25T10:41:59.384Z</time></trkpt><trkpt lat="41.0721483" lon="14.658245"><ele>393.0</ele><time>2026-04-25T10:42:01.383Z</time></trkpt><trkpt lat="41.0721117" lon="14.6583183"><ele>394.0</ele><time>2026-04-25T10:42:03.384Z</time></trkpt><trkpt lat="41.07207" lon="14.6583833"><ele>395.0</ele><time>2026-04-25T10:42:05.385Z</time></trkpt><trkpt lat="41.0720267" lon="14.65845"><ele>396.0</ele><time>2026-04-25T10:42:07.384Z</time></trkpt><trkpt lat="41.0719717" lon="14.6585117"><ele>397.0</ele><time>2026-04-25T10:42:09.384Z</time></trkpt><trkpt lat="41.0719183" lon="14.6585683"><ele>398.0</ele><time>2026-04-25T10:42:11.383Z</time></trkpt><trkpt lat="41.071865" lon="14.658625"><ele>399.0</ele><time>2026-04-25T10:42:13.383Z</time></trkpt><trkpt lat="41.071805" lon="14.6586717"><ele>400.6666666666667</ele><time>2026-04-25T10:42:15.383Z</time></trkpt><trkpt lat="41.0717217" lon="14.658725"><ele>402.33333333333337</ele><time>2026-04-25T10:42:18.382Z</time></trkpt><trkpt lat="41.0716583" lon="14.6587633"><ele>404.0</ele><time>2026-04-25T10:42:20.384Z</time></trkpt><trkpt lat="41.0715833" lon="14.6588"><ele>405.6666666666667</ele><time>2026-04-25T10:42:22.382Z</time></trkpt><trkpt lat="41.0715083" lon="14.6588283"><ele>407.33333333333337</ele><time>2026-04-25T10:42:24.381Z</time></trkpt><trkpt lat="41.071435" lon="14.6588533"><ele>409.0</ele><time>2026-04-25T10:42:26.385Z</time></trkpt><trkpt lat="41.07137" lon="14.6588783"><ele>409.0</ele><time>2026-04-25T10:42:28.383Z</time></trkpt><trkpt lat="41.0712867" lon="14.6589317"><ele>409.0</ele><time>2026-04-25T10:42:31.383Z</time></trkpt><trkpt lat="41.0712" lon="14.65897"><ele>409.0</ele><time>2026-04-25T10:42:34.383Z</time></trkpt><trkpt lat="41.0711133" lon="14.65902"><ele>409.0</ele><time>2026-04-25T10:42:37.382Z</time></trkpt><trkpt lat="41.0710333" lon="14.659075"><ele>409.0</ele><time>2026-04-25T10:42:40.383Z</time></trkpt><trkpt lat="41.0709517" lon="14.6591417"><ele>409.0</ele><time>2026-04-25T10:42:43.383Z</time></trkpt><trkpt lat="41.0708833" lon="14.6591967"><ele>409.0</ele><time>2026-04-25T10:42:45.383Z</time></trkpt><trkpt lat="41.0708217" lon="14.65926"><ele>409.0</ele><time>2026-04-25T10:42:47.383Z</time></trkpt><trkpt lat="41.0707667" lon="14.6593217"><ele>409.0</ele><time>2026-04-25T10:42:49.382Z</time></trkpt><trkpt lat="41.0707183" lon="14.6593917"><ele>409.0</ele><time>2026-04-25T10:42:51.382Z</time></trkpt><trkpt lat="41.070675" lon="14.65947"><ele>409.0</ele><time>2026-04-25T10:42:53.382Z</time></trkpt><trkpt lat="41.0706467" lon="14.6595517"><ele>409.0</ele><time>2026-04-25T10:42:55.381Z</time></trkpt><trkpt lat="41.0706333" lon="14.6596333"><ele>409.7142857142857</ele><time>2026-04-25T10:42:57.383Z</time></trkpt><trkpt lat="41.070635" lon="14.6597183"><ele>410.42857142857144</ele><time>2026-04-25T10:42:59.382Z</time></trkpt><trkpt lat="41.0706617" lon="14.6598"><ele>411.14285714285717</ele><time>2026-04-25T10:43:01.383Z</time></trkpt><trkpt lat="41.0706983" lon="14.6598817"><ele>411.8571428571429</ele><time>2026-04-25T10:43:03.382Z</time></trkpt><trkpt lat="41.0707417" lon="14.6599517"><ele>412.57142857142856</ele><time>2026-04-25T10:43:05.382Z</time></trkpt><trkpt lat="41.0707933" lon="14.66003"><ele>413.28571428571433</ele><time>2026-04-25T10:43:07.381Z</time></trkpt><trkpt lat="41.07085" lon="14.6601"><ele>414.0</ele><time>2026-04-25T10:43:09.382Z</time></trkpt><trkpt lat="41.0709067" lon="14.6601633"><ele>414.0</ele><time>2026-04-25T10:43:11.384Z</time></trkpt><trkpt lat="41.0709567" lon="14.6602233"><ele>414.0</ele><time>2026-04-25T10:43:13.382Z</time></trkpt><trkpt lat="41.071005" lon="14.66028"><ele>414.0</ele><time>2026-04-25T10:43:15.383Z</time></trkpt><trkpt lat="41.071055" lon="14.6603333"><ele>414.0</ele><time>2026-04-25T10:43:17.384Z</time></trkpt><trkpt lat="41.0711233" lon="14.660415"><ele>414.0</ele><time>2026-04-25T10:43:20.383Z</time></trkpt><trkpt lat="41.07119" lon="14.6605"><ele>414.0</ele><time>2026-04-25T10:43:23.384Z</time></trkpt><trkpt lat="41.0712617" lon="14.6605817"><ele>414.00000000000006</ele><time>2026-04-25T10:43:26.385Z</time></trkpt><trkpt lat="41.071305" lon="14.6606467"><ele>414.0</ele><time>2026-04-25T10:43:28.382Z</time></trkpt><trkpt lat="41.071345" lon="14.6607233"><ele>414.0</ele><time>2026-04-25T10:43:30.383Z</time></trkpt><trkpt lat="41.0713817" lon="14.6608083"><ele>414.0</ele><time>2026-04-25T10:43:32.382Z</time></trkpt><trkpt lat="41.0714167" lon="14.6608917"><ele>414.0</ele><time>2026-04-25T10:43:34.384Z</time></trkpt><trkpt lat="41.071445" lon="14.6609883"><ele>414.00000000000006</ele><time>2026-04-25T10:43:36.382Z</time></trkpt><trkpt lat="41.0714683" lon="14.6610883"><ele>414.0</ele><time>2026-04-25T10:43:38.383Z</time></trkpt><trkpt lat="41.0714867" lon="14.6611817"><ele>413.8571428571429</ele><time>2026-04-25T10:43:40.384Z</time></trkpt><trkpt lat="41.0715" lon="14.661275"><ele>413.7142857142857</ele><time>2026-04-25T10:43:42.384Z</time></trkpt><trkpt lat="41.0715033" lon="14.6613733"><ele>413.57142857142856</ele><time>2026-04-25T10:43:44.383Z</time></trkpt><trkpt lat="41.0715033" lon="14.6614683"><ele>413.42857142857144</ele><time>2026-04-25T10:43:46.382Z</time></trkpt><trkpt lat="41.0715117" lon="14.66157"><ele>413.2857142857143</ele><time>2026-04-25T10:43:48.384Z</time></trkpt><trkpt lat="41.0715133" lon="14.6616717"><ele>413.14285714285717</ele><time>2026-04-25T10:43:50.384Z</time></trkpt><trkpt lat="41.0715067" lon="14.6617683"><ele>413.0</ele><time>2026-04-25T10:43:52.382Z</time></trkpt><trkpt lat="41.0715033" lon="14.6618933"><ele>412.8333333333333</ele><time>2026-04-25T10:43:55.383Z</time></trkpt><trkpt lat="41.071505" lon="14.6620117"><ele>412.66666666666663</ele><time>2026-04-25T10:43:58.383Z</time></trkpt><trkpt lat="41.0715067" lon="14.6621233"><ele>412.5</ele><time>2026-04-25T10:44:01.382Z</time></trkpt><trkpt lat="41.0715117" lon="14.6622067"><ele>412.33333333333337</ele><time>2026-04-25T10:44:03.382Z</time></trkpt><trkpt lat="41.07152" lon="14.6623267"><ele>412.1666666666667</ele><time>2026-04-25T10:44:06.384Z</time></trkpt><trkpt lat="41.0715267" lon="14.6624183"><ele>412.0</ele><time>2026-04-25T10:44:08.384Z</time></trkpt><trkpt lat="41.07155" lon="14.6625017"><ele>411.99999999999994</ele><time>2026-04-25T10:44:10.382Z</time></trkpt><trkpt lat="41.07158" lon="14.66258"><ele>412.0</ele><time>2026-04-25T10:44:12.382Z</time></trkpt><trkpt lat="41.0716167" lon="14.6626583"><ele>412.0</ele><time>2026-04-25T10:44:14.383Z</time></trkpt><trkpt lat="41.07166" lon="14.6627333"><ele>412.0</ele><time>2026-04-25T10:44:16.383Z</time></trkpt><trkpt lat="41.071705" lon="14.662805"><ele>412.0</ele><time>2026-04-25T10:44:18.384Z</time></trkpt><trkpt lat="41.071755" lon="14.66287"><ele>411.99999999999994</ele><time>2026-04-25T10:44:20.382Z</time></trkpt><trkpt lat="41.071805" lon="14.6629283"><ele>412.0</ele><time>2026-04-25T10:44:22.382Z</time></trkpt><trkpt lat="41.071855" lon="14.6629883"><ele>413.85714285714283</ele><time>2026-04-25T10:44:24.384Z</time></trkpt><trkpt lat="41.071905" lon="14.66306"><ele>415.7142857142857</ele><time>2026-04-25T10:44:26.384Z</time></trkpt><trkpt lat="41.07195" lon="14.66313"><ele>417.57142857142856</ele><time>2026-04-25T10:44:28.383Z</time></trkpt><trkpt lat="41.0719933" lon="14.6632133"><ele>419.42857142857144</ele><time>2026-04-25T10:44:30.386Z</time></trkpt><trkpt lat="41.0720317" lon="14.66329"><ele>421.2857142857143</ele><time>2026-04-25T10:44:32.385Z</time></trkpt><trkpt lat="41.07206" lon="14.663365"><ele>423.1428571428571</ele><time>2026-04-25T10:44:34.382Z</time></trkpt><trkpt lat="41.0720967" lon="14.66344"><ele>425.0</ele><time>2026-04-25T10:44:36.384Z</time></trkpt><trkpt lat="41.0721167" lon="14.66353"><ele>425.2857142857143</ele><time>2026-04-25T10:44:38.384Z</time></trkpt><trkpt lat="41.0721267" lon="14.6636183"><ele>425.57142857142856</ele><time>2026-04-25T10:44:40.384Z</time></trkpt><trkpt lat="41.07214" lon="14.6637083"><ele>425.8571428571429</ele><time>2026-04-25T10:44:42.385Z</time></trkpt><trkpt lat="41.0721483" lon="14.6638017"><ele>426.1428571428571</ele><time>2026-04-25T10:44:44.383Z</time></trkpt><trkpt lat="41.0721517" lon="14.663895"><ele>426.42857142857144</ele><time>2026-04-25T10:44:46.381Z</time></trkpt><trkpt lat="41.0721517" lon="14.6639817"><ele>426.7142857142857</ele><time>2026-04-25T10:44:48.385Z</time></trkpt><trkpt lat="41.072155" lon="14.664075"><ele>427.0</ele><time>2026-04-25T10:44:50.384Z</time></trkpt><trkpt lat="41.072155" lon="14.6641667"><ele>427.00000000000006</ele><time>2026-04-25T10:44:52.383Z</time></trkpt><trkpt lat="41.072145" lon="14.664285"><ele>427.0</ele><time>2026-04-25T10:44:55.384Z</time></trkpt><trkpt lat="41.0721233" lon="14.664375"><ele>427.0</ele><time>2026-04-25T10:44:57.382Z</time></trkpt><trkpt lat="41.0721" lon="14.6644567"><ele>427.0</ele><time>2026-04-25T10:44:59.384Z</time></trkpt><trkpt lat="41.0720667" lon="14.6645483"><ele>427.00000000000006</ele><time>2026-04-25T10:45:01.383Z</time></trkpt><trkpt lat="41.07203" lon="14.6646367"><ele>427.0</ele><time>2026-04-25T10:45:03.383Z</time></trkpt><trkpt lat="41.0720017" lon="14.6647217"><ele>427.33333333333337</ele><time>2026-04-25T10:45:05.384Z</time></trkpt><trkpt lat="41.07198" lon="14.6648083"><ele>427.6666666666667</ele><time>2026-04-25T10:45:07.383Z</time></trkpt><trkpt lat="41.071955" lon="14.6648983"><ele>428.0</ele><time>2026-04-25T10:45:09.382Z</time></trkpt><trkpt lat="41.0719267" lon="14.6649867"><ele>428.33333333333337</ele><time>2026-04-25T10:45:11.383Z</time></trkpt><trkpt lat="41.0718967" lon="14.6650833"><ele>428.6666666666667</ele><time>2026-04-25T10:45:13.383Z</time></trkpt><trkpt lat="41.0718567" lon="14.665185"><ele>429.0</ele><time>2026-04-25T10:45:15.384Z</time></trkpt><trkpt lat="41.0718433" lon="14.6652933"><ele>429.0</ele><time>2026-04-25T10:45:17.383Z</time></trkpt><trkpt lat="41.0718483" lon="14.6654"><ele>429.0</ele><time>2026-04-25T10:45:19.383Z</time></trkpt><trkpt lat="41.0718817" lon="14.6654917"><ele>429.0</ele><time>2026-04-25T10:45:21.384Z</time></trkpt><trkpt lat="41.0719267" lon="14.6655783"><ele>429.0</ele><time>2026-04-25T10:45:23.384Z</time></trkpt><trkpt lat="41.071985" lon="14.6656583"><ele>429.0</ele><time>2026-04-25T10:45:25.382Z</time></trkpt><trkpt lat="41.07204" lon="14.6657267"><ele>429.0</ele><time>2026-04-25T10:45:27.384Z</time></trkpt><trkpt lat="41.0721033" lon="14.6657933"><ele>429.0</ele><time>2026-04-25T10:45:29.382Z</time></trkpt><trkpt lat="41.0721717" lon="14.66585"><ele>429.0</ele><time>2026-04-25T10:45:31.382Z</time></trkpt><trkpt lat="41.072235" lon="14.66591"><ele>429.0</ele><time>2026-04-25T10:45:33.383Z</time></trkpt><trkpt lat="41.0722933" lon="14.6659733"><ele>429.0</ele><time>2026-04-25T10:45:35.382Z</time></trkpt><trkpt lat="41.0723583" lon="14.66602"><ele>429.0</ele><time>2026-04-25T10:45:37.384Z</time></trkpt><trkpt lat="41.0724317" lon="14.6660533"><ele>429.0</ele><time>2026-04-25T10:45:39.382Z</time></trkpt><trkpt lat="41.07251" lon="14.6660767"><ele>430.8333333333333</ele><time>2026-04-25T10:45:41.384Z</time></trkpt><trkpt lat="41.0725867" lon="14.6660833"><ele>432.66666666666663</ele><time>2026-04-25T10:45:43.382Z</time></trkpt><trkpt lat="41.07267" lon="14.66607"><ele>434.5</ele><time>2026-04-25T10:45:45.384Z</time></trkpt><trkpt lat="41.0727517" lon="14.6660483"><ele>436.3333333333333</ele><time>2026-04-25T10:45:47.382Z</time></trkpt><trkpt lat="41.0728383" lon="14.6660167"><ele>438.16666666666663</ele><time>2026-04-25T10:45:49.38Z</time></trkpt><trkpt lat="41.07291" lon="14.6659617"><ele>440.0</ele><time>2026-04-25T10:45:51.385Z</time></trkpt><trkpt lat="41.0729667" lon="14.6658967"><ele>439.99999999999994</ele><time>2026-04-25T10:45:53.382Z</time></trkpt><trkpt lat="41.0730233" lon="14.6658267"><ele>440.0</ele><time>2026-04-25T10:45:55.382Z</time></trkpt><trkpt lat="41.0730717" lon="14.6657283"><ele>440.0</ele><time>2026-04-25T10:45:57.383Z</time></trkpt><trkpt lat="41.0731117" lon="14.6656217"><ele>440.0</ele><time>2026-04-25T10:45:59.385Z</time></trkpt><trkpt lat="41.0731433" lon="14.66551"><ele>439.99999999999994</ele><time>2026-04-25T10:46:01.383Z</time></trkpt><trkpt lat="41.073165" lon="14.6653967"><ele>440.0</ele><time>2026-04-25T10:46:03.382Z</time></trkpt><trkpt lat="41.0731567" lon="14.6652817"><ele>440.49999999999994</ele><time>2026-04-25T10:46:05.384Z</time></trkpt><trkpt lat="41.0731483" lon="14.665165"><ele>441.0</ele><time>2026-04-25T10:46:07.381Z</time></trkpt><trkpt lat="41.0731333" lon="14.6650533"><ele>441.5</ele><time>2026-04-25T10:46:09.383Z</time></trkpt><trkpt lat="41.0731133" lon="14.6649467"><ele>442.0</ele><time>2026-04-25T10:46:11.381Z</time></trkpt><trkpt lat="41.0730933" lon="14.66484"><ele>442.49999999999994</ele><time>2026-04-25T10:46:13.382Z</time></trkpt><trkpt lat="41.07309" lon="14.6647333"><ele>443.0</ele><time>2026-04-25T10:46:15.382Z</time></trkpt><trkpt lat="41.0731" lon="14.6646333"><ele>443.0</ele><time>2026-04-25T10:46:17.384Z</time></trkpt><trkpt lat="41.073125" lon="14.66454"><ele>443.0</ele><time>2026-04-25T10:46:19.385Z</time></trkpt><trkpt lat="41.0731533" lon="14.664455"><ele>443.0</ele><time>2026-04-25T10:46:21.383Z</time></trkpt><trkpt lat="41.0731867" lon="14.6643717"><ele>443.0</ele><time>2026-04-25T10:46:23.385Z</time></trkpt><trkpt lat="41.0732233" lon="14.66429"><ele>443.0</ele><time>2026-04-25T10:46:25.383Z</time></trkpt><trkpt lat="41.0732633" lon="14.6642117"><ele>443.0</ele><time>2026-04-25T10:46:27.383Z</time></trkpt><trkpt lat="41.0733133" lon="14.66413"><ele>443.0</ele><time>2026-04-25T10:46:29.383Z</time></trkpt><trkpt lat="41.07336" lon="14.6640383"><ele>443.16666666666663</ele><time>2026-04-25T10:46:31.385Z</time></trkpt><trkpt lat="41.07341" lon="14.6639483"><ele>443.3333333333333</ele><time>2026-04-25T10:46:33.384Z</time></trkpt><trkpt lat="41.0734667" lon="14.6638683"><ele>443.5</ele><time>2026-04-25T10:46:35.383Z</time></trkpt><trkpt lat="41.0735283" lon="14.6638017"><ele>443.66666666666663</ele><time>2026-04-25T10:46:37.383Z</time></trkpt><trkpt lat="41.07359" lon="14.66375"><ele>443.8333333333333</ele><time>2026-04-25T10:46:39.381Z</time></trkpt><trkpt lat="41.0736467" lon="14.6636867"><ele>444.0</ele><time>2026-04-25T10:46:41.381Z</time></trkpt><trkpt lat="41.0737067" lon="14.6636283"><ele>445.5</ele><time>2026-04-25T10:46:43.383Z</time></trkpt><trkpt lat="41.0737633" lon="14.663565"><ele>447.0</ele><time>2026-04-25T10:46:45.382Z</time></trkpt><trkpt lat="41.0738267" lon="14.66351"><ele>448.5</ele><time>2026-04-25T10:46:47.383Z</time></trkpt><trkpt lat="41.0738967" lon="14.6634583"><ele>450.0</ele><time>2026-04-25T10:46:49.384Z</time></trkpt><trkpt lat="41.07397" lon="14.66341"><ele>451.5</ele><time>2026-04-25T10:46:51.382Z</time></trkpt><trkpt lat="41.0740383" lon="14.6633667"><ele>453.0</ele><time>2026-04-25T10:46:53.383Z</time></trkpt><trkpt lat="41.0740983" lon="14.6633183"><ele>452.99999999999994</ele><time>2026-04-25T10:46:55.382Z</time></trkpt><trkpt lat="41.0741633" lon="14.66328"><ele>453.0</ele><time>2026-04-25T10:46:57.383Z</time></trkpt><trkpt lat="41.0742217" lon="14.6632283"><ele>452.99999999999994</ele><time>2026-04-25T10:46:59.383Z</time></trkpt><trkpt lat="41.0742833" lon="14.66319"><ele>452.99999999999994</ele><time>2026-04-25T10:47:01.384Z</time></trkpt><trkpt lat="41.0743533" lon="14.6631533"><ele>453.0</ele><time>2026-04-25T10:47:03.383Z</time></trkpt><trkpt lat="41.07443" lon="14.6631267"><ele>452.99999999999994</ele><time>2026-04-25T10:47:05.383Z</time></trkpt><trkpt lat="41.074505" lon="14.6630983"><ele>452.99999999999994</ele><time>2026-04-25T10:47:07.383Z</time></trkpt><trkpt lat="41.0745767" lon="14.66307"><ele>453.0</ele><time>2026-04-25T10:47:09.383Z</time></trkpt><trkpt lat="41.0746517" lon="14.6630417"><ele>453.0</ele><time>2026-04-25T10:47:12.384Z</time></trkpt><trkpt lat="41.0747417" lon="14.6630233"><ele>453.0</ele><time>2026-04-25T10:47:23.383Z</time></trkpt><trkpt lat="41.0748333" lon="14.663015"><ele>453.0</ele><time>2026-04-25T10:47:26.383Z</time></trkpt><trkpt lat="41.0749033" lon="14.6630033"><ele>453.0</ele><time>2026-04-25T10:47:28.382Z</time></trkpt><trkpt lat="41.074975" lon="14.662995"><ele>453.0</ele><time>2026-04-25T10:47:30.384Z</time></trkpt><trkpt lat="41.0750417" lon="14.662985"><ele>452.99999999999994</ele><time>2026-04-25T10:47:32.384Z</time></trkpt><trkpt lat="41.075105" lon="14.66297"><ele>453.0</ele><time>2026-04-25T10:47:34.384Z</time></trkpt><trkpt lat="41.075175" lon="14.66296"><ele>452.99999999999994</ele><time>2026-04-25T10:47:36.383Z</time></trkpt><trkpt lat="41.0752383" lon="14.6629533"><ele>452.99999999999994</ele><time>2026-04-25T10:47:38.385Z</time></trkpt><trkpt lat="41.0753083" lon="14.6629483"><ele>453.0</ele><time>2026-04-25T10:47:40.384Z</time></trkpt><trkpt lat="41.075385" lon="14.662945"><ele>452.99999999999994</ele><time>2026-04-25T10:47:42.384Z</time></trkpt><trkpt lat="41.0754633" lon="14.6629483"><ele>452.99999999999994</ele><time>2026-04-25T10:47:44.383Z</time></trkpt><trkpt lat="41.0755417" lon="14.662955"><ele>452.99999999999994</ele><time>2026-04-25T10:47:46.383Z</time></trkpt><trkpt lat="41.0756167" lon="14.6629633"><ele>453.0</ele><time>2026-04-25T10:47:48.383Z</time></trkpt><trkpt lat="41.0756867" lon="14.6629767"><ele>452.99999999999994</ele><time>2026-04-25T10:47:50.384Z</time></trkpt><trkpt lat="41.07576" lon="14.6629983"><ele>452.99999999999994</ele><time>2026-04-25T10:47:52.383Z</time></trkpt><trkpt lat="41.0758267" lon="14.663035"><ele>453.0</ele><time>2026-04-25T10:47:54.382Z</time></trkpt><trkpt lat="41.0758883" lon="14.66307"><ele>452.99999999999994</ele><time>2026-04-25T10:47:56.383Z</time></trkpt><trkpt lat="41.0759533" lon="14.6631467"><ele>452.99999999999994</ele><time>2026-04-25T10:47:59.384Z</time></trkpt><trkpt lat="41.0759933" lon="14.663225"><ele>453.42857142857133</ele><time>2026-04-25T10:48:02.382Z</time></trkpt><trkpt lat="41.0760217" lon="14.6633017"><ele>453.85714285714283</ele><time>2026-04-25T10:48:04.383Z</time></trkpt><trkpt lat="41.0760517" lon="14.6633917"><ele>454.2857142857142</ele><time>2026-04-25T10:48:06.385Z</time></trkpt><trkpt lat="41.0760833" lon="14.663475"><ele>454.71428571428567</ele><time>2026-04-25T10:48:08.384Z</time></trkpt><trkpt lat="41.07612" lon="14.6635433"><ele>455.1428571428571</ele><time>2026-04-25T10:48:10.383Z</time></trkpt><trkpt lat="41.0761583" lon="14.66361"><ele>455.57142857142856</ele><time>2026-04-25T10:48:12.384Z</time></trkpt><trkpt lat="41.0762067" lon="14.66367"><ele>456.0</ele><time>2026-04-25T10:48:14.383Z</time></trkpt><trkpt lat="41.0762633" lon="14.66373"><ele>456.0</ele><time>2026-04-25T10:48:16.383Z</time></trkpt><trkpt lat="41.0763233" lon="14.6637767"><ele>455.99999999999994</ele><time>2026-04-25T10:48:18.383Z</time></trkpt><trkpt lat="41.0763817" lon="14.66382"><ele>456.0</ele><time>2026-04-25T10:48:20.383Z</time></trkpt><trkpt lat="41.0764433" lon="14.663865"><ele>456.0</ele><time>2026-04-25T10:48:22.385Z</time></trkpt><trkpt lat="41.0765033" lon="14.6639"><ele>455.99999999999994</ele><time>2026-04-25T10:48:24.384Z</time></trkpt><trkpt lat="41.0765733" lon="14.6639233"><ele>456.0</ele><time>2026-04-25T10:48:26.384Z</time></trkpt><trkpt lat="41.07664" lon="14.6639267"><ele>456.0</ele><time>2026-04-25T10:48:28.384Z</time></trkpt><trkpt lat="41.0767067" lon="14.663895"><ele>456.57142857142856</ele><time>2026-04-25T10:48:30.383Z</time></trkpt><trkpt lat="41.0767583" lon="14.6638317"><ele>457.1428571428571</ele><time>2026-04-25T10:48:32.384Z</time></trkpt><trkpt lat="41.0767817" lon="14.6637383"><ele>457.71428571428567</ele><time>2026-04-25T10:48:34.384Z</time></trkpt><trkpt lat="41.0767883" lon="14.66364"><ele>458.2857142857142</ele><time>2026-04-25T10:48:36.384Z</time></trkpt><trkpt lat="41.0767967" lon="14.6635467"><ele>458.85714285714283</ele><time>2026-04-25T10:48:38.385Z</time></trkpt><trkpt lat="41.0768017" lon="14.6634567"><ele>459.42857142857133</ele><time>2026-04-25T10:48:40.382Z</time></trkpt><trkpt lat="41.0768083" lon="14.6633667"><ele>459.99999999999994</ele><time>2026-04-25T10:48:42.384Z</time></trkpt><trkpt lat="41.0768217" lon="14.6632833"><ele>461.6666666666667</ele><time>2026-04-25T10:48:44.385Z</time></trkpt><trkpt lat="41.0768517" lon="14.6631683"><ele>463.33333333333337</ele><time>2026-04-25T10:48:47.383Z</time></trkpt><trkpt lat="41.07688" lon="14.6630817"><ele>465.0</ele><time>2026-04-25T10:48:49.384Z</time></trkpt><trkpt lat="41.076925" lon="14.6630083"><ele>466.66666666666663</ele><time>2026-04-25T10:48:51.383Z</time></trkpt><trkpt lat="41.0769817" lon="14.6629433"><ele>468.3333333333333</ele><time>2026-04-25T10:48:53.382Z</time></trkpt><trkpt lat="41.0770433" lon="14.662885"><ele>470.0</ele><time>2026-04-25T10:48:55.384Z</time></trkpt><trkpt lat="41.0771133" lon="14.662845"><ele>469.99999999999994</ele><time>2026-04-25T10:48:57.384Z</time></trkpt><trkpt lat="41.077185" lon="14.6628117"><ele>470.0</ele><time>2026-04-25T10:48:59.384Z</time></trkpt><trkpt lat="41.0772617" lon="14.6627983"><ele>470.0</ele><time>2026-04-25T10:49:01.384Z</time></trkpt><trkpt lat="41.0773583" lon="14.6628167"><ele>470.0</ele><time>2026-04-25T10:49:03.385Z</time></trkpt><trkpt lat="41.0774417" lon="14.6628567"><ele>469.99999999999994</ele><time>2026-04-25T10:49:05.384Z</time></trkpt><trkpt lat="41.077505" lon="14.6628983"><ele>470.0</ele><time>2026-04-25T10:49:07.383Z</time></trkpt><trkpt lat="41.0775833" lon="14.6629533"><ele>470.16666666666663</ele><time>2026-04-25T10:49:10.383Z</time></trkpt><trkpt lat="41.07764" lon="14.663"><ele>470.3333333333333</ele><time>2026-04-25T10:49:12.382Z</time></trkpt><trkpt lat="41.0776983" lon="14.6630533"><ele>470.5</ele><time>2026-04-25T10:49:14.382Z</time></trkpt><trkpt lat="41.0777833" lon="14.663105"><ele>470.66666666666663</ele><time>2026-04-25T10:49:17.383Z</time></trkpt><trkpt lat="41.0778467" lon="14.6631333"><ele>470.8333333333333</ele><time>2026-04-25T10:49:19.384Z</time></trkpt><trkpt lat="41.0779283" lon="14.663175"><ele>471.0</ele><time>2026-04-25T10:49:22.382Z</time></trkpt><trkpt lat="41.07801" lon="14.66319"><ele>471.0</ele><time>2026-04-25T10:49:25.383Z</time></trkpt><trkpt lat="41.0780883" lon="14.6632"><ele>471.0</ele><time>2026-04-25T10:49:28.384Z</time></trkpt><trkpt lat="41.07817" lon="14.6632017"><ele>471.0</ele><time>2026-04-25T10:49:31.385Z</time></trkpt><trkpt lat="41.0782417" lon="14.66318"><ele>471.0</ele><time>2026-04-25T10:49:34.384Z</time></trkpt><trkpt lat="41.0783167" lon="14.6631167"><ele>471.0</ele><time>2026-04-25T10:49:37.384Z</time></trkpt><trkpt lat="41.0783633" lon="14.66306"><ele>471.0</ele><time>2026-04-25T10:49:39.384Z</time></trkpt><trkpt lat="41.0784133" lon="14.662985"><ele>472.5</ele><time>2026-04-25T10:49:41.384Z</time></trkpt><trkpt lat="41.07846" lon="14.662905"><ele>474.0</ele><time>2026-04-25T10:49:43.385Z</time></trkpt><trkpt lat="41.0785" lon="14.6628233"><ele>475.5</ele><time>2026-04-25T10:49:45.385Z</time></trkpt><trkpt lat="41.0785383" lon="14.6627467"><ele>477.0</ele><time>2026-04-25T10:49:47.383Z</time></trkpt><trkpt lat="41.07857" lon="14.6626717"><ele>478.5</ele><time>2026-04-25T10:49:49.385Z</time></trkpt><trkpt lat="41.0786017" lon="14.6625617"><ele>480.0</ele><time>2026-04-25T10:49:52.383Z</time></trkpt><trkpt lat="41.0786267" lon="14.6624483"><ele>481.14285714285717</ele><time>2026-04-25T10:49:55.383Z</time></trkpt><trkpt lat="41.078645" lon="14.6623667"><ele>482.2857142857142</ele><time>2026-04-25T10:49:57.385Z</time></trkpt><trkpt lat="41.0786533" lon="14.66227"><ele>483.4285714285714</ele><time>2026-04-25T10:49:59.384Z</time></trkpt><trkpt lat="41.07866" lon="14.66217"><ele>484.57142857142856</ele><time>2026-04-25T10:50:01.384Z</time></trkpt><trkpt lat="41.0786633" lon="14.662075"><ele>485.71428571428567</ele><time>2026-04-25T10:50:03.383Z</time></trkpt><trkpt lat="41.0786667" lon="14.6619733"><ele>486.8571428571428</ele><time>2026-04-25T10:50:05.385Z</time></trkpt><trkpt lat="41.0786767" lon="14.6618733"><ele>487.99999999999994</ele><time>2026-04-25T10:50:07.384Z</time></trkpt><trkpt lat="41.0786867" lon="14.6617667"><ele>488.16666666666663</ele><time>2026-04-25T10:50:09.384Z</time></trkpt><trkpt lat="41.0786967" lon="14.66167"><ele>488.3333333333333</ele><time>2026-04-25T10:50:11.382Z</time></trkpt><trkpt lat="41.07871" lon="14.6615733"><ele>488.5</ele><time>2026-04-25T10:50:13.384Z</time></trkpt><trkpt lat="41.0787167" lon="14.661475"><ele>488.66666666666663</ele><time>2026-04-25T10:50:15.384Z</time></trkpt><trkpt lat="41.0787283" lon="14.6613717"><ele>488.8333333333333</ele><time>2026-04-25T10:50:17.382Z</time></trkpt><trkpt lat="41.07874" lon="14.6612683"><ele>489.0</ele><time>2026-04-25T10:50:19.384Z</time></trkpt><trkpt lat="41.0787467" lon="14.6611617"><ele>488.5714285714286</ele><time>2026-04-25T10:50:21.383Z</time></trkpt><trkpt lat="41.07875" lon="14.6610633"><ele>488.1428571428572</ele><time>2026-04-25T10:50:23.384Z</time></trkpt><trkpt lat="41.078765" lon="14.6609683"><ele>487.7142857142857</ele><time>2026-04-25T10:50:25.383Z</time></trkpt><trkpt lat="41.0787783" lon="14.6608683"><ele>487.28571428571433</ele><time>2026-04-25T10:50:27.384Z</time></trkpt><trkpt lat="41.0787933" lon="14.660775"><ele>486.8571428571429</ele><time>2026-04-25T10:50:29.384Z</time></trkpt><trkpt lat="41.0787983" lon="14.6606783"><ele>486.42857142857144</ele><time>2026-04-25T10:50:31.384Z</time></trkpt><trkpt lat="41.07881" lon="14.6605783"><ele>486.0</ele><time>2026-04-25T10:50:33.384Z</time></trkpt><trkpt lat="41.078815" lon="14.6604783"><ele>486.0</ele><time>2026-04-25T10:50:35.383Z</time></trkpt><trkpt lat="41.0788233" lon="14.6603733"><ele>486.0</ele><time>2026-04-25T10:50:37.383Z</time></trkpt><trkpt lat="41.07883" lon="14.6602733"><ele>486.0</ele><time>2026-04-25T10:50:39.385Z</time></trkpt><trkpt lat="41.0788417" lon="14.66017"><ele>486.0</ele><time>2026-04-25T10:50:41.384Z</time></trkpt><trkpt lat="41.078855" lon="14.6600633"><ele>486.0</ele><time>2026-04-25T10:50:43.383Z</time></trkpt><trkpt lat="41.0788683" lon="14.6599683"><ele>486.0</ele><time>2026-04-25T10:50:45.381Z</time></trkpt><trkpt lat="41.078885" lon="14.65987"><ele>485.71428571428567</ele><time>2026-04-25T10:50:47.384Z</time></trkpt><trkpt lat="41.0788967" lon="14.6597767"><ele>485.42857142857144</ele><time>2026-04-25T10:50:49.383Z</time></trkpt><trkpt lat="41.078905" lon="14.6596833"><ele>485.1428571428571</ele><time>2026-04-25T10:50:51.383Z</time></trkpt><trkpt lat="41.0789117" lon="14.6595917"><ele>484.85714285714283</ele><time>2026-04-25T10:50:53.384Z</time></trkpt><trkpt lat="41.07892" lon="14.6595033"><ele>484.57142857142856</ele><time>2026-04-25T10:50:55.384Z</time></trkpt><trkpt lat="41.0789283" lon="14.6594133"><ele>484.2857142857143</ele><time>2026-04-25T10:50:57.386Z</time></trkpt><trkpt lat="41.078935" lon="14.6593167"><ele>484.0</ele><time>2026-04-25T10:50:59.382Z</time></trkpt><trkpt lat="41.078945" lon="14.6592183"><ele>484.6666666666667</ele><time>2026-04-25T10:51:01.384Z</time></trkpt><trkpt lat="41.0789567" lon="14.6591183"><ele>485.33333333333337</ele><time>2026-04-25T10:51:03.384Z</time></trkpt><trkpt lat="41.0789683" lon="14.6590117"><ele>486.0</ele><time>2026-04-25T10:51:05.384Z</time></trkpt><trkpt lat="41.0789767" lon="14.6589133"><ele>486.66666666666663</ele><time>2026-04-25T10:51:07.383Z</time></trkpt><trkpt lat="41.078985" lon="14.6588133"><ele>487.3333333333333</ele><time>2026-04-25T10:51:09.383Z</time></trkpt><trkpt lat="41.0789933" lon="14.6587117"><ele>488.0</ele><time>2026-04-25T10:51:11.385Z</time></trkpt><trkpt lat="41.0790017" lon="14.65861"><ele>488.8571428571428</ele><time>2026-04-25T10:51:13.384Z</time></trkpt><trkpt lat="41.0790133" lon="14.658505"><ele>489.71428571428567</ele><time>2026-04-25T10:51:15.383Z</time></trkpt><trkpt lat="41.0790133" lon="14.6584033"><ele>490.57142857142856</ele><time>2026-04-25T10:51:17.384Z</time></trkpt><trkpt lat="41.0790133" lon="14.6583067"><ele>491.4285714285714</ele><time>2026-04-25T10:51:19.384Z</time></trkpt><trkpt lat="41.0790083" lon="14.65821"><ele>492.2857142857142</ele><time>2026-04-25T10:51:21.384Z</time></trkpt><trkpt lat="41.0789967" lon="14.6581183"><ele>493.14285714285717</ele><time>2026-04-25T10:51:23.384Z</time></trkpt><trkpt lat="41.07898" lon="14.6580267"><ele>494.0</ele><time>2026-04-25T10:51:25.383Z</time></trkpt><trkpt lat="41.0789517" lon="14.6579467"><ele>494.0</ele><time>2026-04-25T10:51:27.384Z</time></trkpt><trkpt lat="41.0789167" lon="14.6578683"><ele>494.0</ele><time>2026-04-25T10:51:29.384Z</time></trkpt><trkpt lat="41.0788717" lon="14.6577983"><ele>494.0</ele><time>2026-04-25T10:51:31.383Z</time></trkpt><trkpt lat="41.078825" lon="14.6577367"><ele>494.0</ele><time>2026-04-25T10:51:33.384Z</time></trkpt><trkpt lat="41.0787783" lon="14.6576783"><ele>494.0</ele><time>2026-04-25T10:51:35.384Z</time></trkpt><trkpt lat="41.07872" lon="14.657585"><ele>494.0</ele><time>2026-04-25T10:51:38.384Z</time></trkpt><trkpt lat="41.07868" lon="14.6574833"><ele>494.0</ele><time>2026-04-25T10:51:41.382Z</time></trkpt><trkpt lat="41.0786833" lon="14.6573917"><ele>495.28571428571433</ele><time>2026-04-25T10:51:44.385Z</time></trkpt><trkpt lat="41.0787533" lon="14.6573333"><ele>496.57142857142856</ele><time>2026-04-25T10:51:47.384Z</time></trkpt><trkpt lat="41.078815" lon="14.657315"><ele>497.8571428571429</ele><time>2026-04-25T10:51:49.384Z</time></trkpt><trkpt lat="41.07888" lon="14.6573033"><ele>499.14285714285717</ele><time>2026-04-25T10:51:51.384Z</time></trkpt><trkpt lat="41.078955" lon="14.6573017"><ele>500.42857142857144</ele><time>2026-04-25T10:51:53.384Z</time></trkpt><trkpt lat="41.0790317" lon="14.6573133"><ele>501.7142857142857</ele><time>2026-04-25T10:51:55.384Z</time></trkpt><trkpt lat="41.0791067" lon="14.65734"><ele>503.0</ele><time>2026-04-25T10:51:57.384Z</time></trkpt><trkpt lat="41.079175" lon="14.6573683"><ele>503.8571428571429</ele><time>2026-04-25T10:51:59.384Z</time></trkpt><trkpt lat="41.0792383" lon="14.6574033"><ele>504.7142857142858</ele><time>2026-04-25T10:52:01.382Z</time></trkpt><trkpt lat="41.079295" lon="14.657445"><ele>505.57142857142856</ele><time>2026-04-25T10:52:03.382Z</time></trkpt><trkpt lat="41.0793483" lon="14.6575"><ele>506.42857142857144</ele><time>2026-04-25T10:52:05.384Z</time></trkpt><trkpt lat="41.079405" lon="14.6575467"><ele>507.2857142857143</ele><time>2026-04-25T10:52:07.381Z</time></trkpt><trkpt lat="41.0794633" lon="14.65759"><ele>508.1428571428571</ele><time>2026-04-25T10:52:09.383Z</time></trkpt><trkpt lat="41.0795267" lon="14.6576383"><ele>508.99999999999994</ele><time>2026-04-25T10:52:11.383Z</time></trkpt><trkpt lat="41.0795933" lon="14.6576733"><ele>508.99999999999994</ele><time>2026-04-25T10:52:13.383Z</time></trkpt><trkpt lat="41.0796567" lon="14.657705"><ele>509.0</ele><time>2026-04-25T10:52:15.384Z</time></trkpt><trkpt lat="41.0797267" lon="14.6577267"><ele>508.99999999999994</ele><time>2026-04-25T10:52:17.385Z</time></trkpt><trkpt lat="41.079795" lon="14.6577383"><ele>508.99999999999994</ele><time>2026-04-25T10:52:19.382Z</time></trkpt><trkpt lat="41.0798733" lon="14.6577517"><ele>509.0</ele><time>2026-04-25T10:52:21.384Z</time></trkpt><trkpt lat="41.07995" lon="14.6577583"><ele>508.99999999999994</ele><time>2026-04-25T10:52:23.383Z</time></trkpt><trkpt lat="41.0800233" lon="14.6577633"><ele>508.99999999999994</ele><time>2026-04-25T10:52:25.384Z</time></trkpt><trkpt lat="41.0800983" lon="14.657775"><ele>510.71428571428567</ele><time>2026-04-25T10:52:27.384Z</time></trkpt><trkpt lat="41.080175" lon="14.6577883"><ele>512.4285714285714</ele><time>2026-04-25T10:52:29.384Z</time></trkpt><trkpt lat="41.0802433" lon="14.6577967"><ele>514.1428571428571</ele><time>2026-04-25T10:52:31.381Z</time></trkpt><trkpt lat="41.0803117" lon="14.6578183"><ele>515.8571428571429</ele><time>2026-04-25T10:52:33.381Z</time></trkpt><trkpt lat="41.0803867" lon="14.6578417"><ele>517.5714285714286</ele><time>2026-04-25T10:52:35.383Z</time></trkpt><trkpt lat="41.0804583" lon="14.6578533"><ele>519.2857142857142</ele><time>2026-04-25T10:52:37.384Z</time></trkpt><trkpt lat="41.0805333" lon="14.6578667"><ele>521.0</ele><time>2026-04-25T10:52:39.385Z</time></trkpt><trkpt lat="41.0805983" lon="14.6578783"><ele>521.0</ele><time>2026-04-25T10:52:41.384Z</time></trkpt><trkpt lat="41.08067" lon="14.657885"><ele>521.0</ele><time>2026-04-25T10:52:43.384Z</time></trkpt><trkpt lat="41.0807383" lon="14.6579017"><ele>521.0</ele><time>2026-04-25T10:52:45.382Z</time></trkpt><trkpt lat="41.0808067" lon="14.65791"><ele>521.0</ele><time>2026-04-25T10:52:47.385Z</time></trkpt><trkpt lat="41.0808817" lon="14.657915"><ele>521.0</ele><time>2026-04-25T10:52:49.383Z</time></trkpt><trkpt lat="41.0809567" lon="14.6579267"><ele>521.0</ele><time>2026-04-25T10:52:51.382Z</time></trkpt><trkpt lat="41.0810317" lon="14.6579467"><ele>521.0</ele><time>2026-04-25T10:52:53.385Z</time></trkpt><trkpt lat="41.081105" lon="14.65796"><ele>521.2857142857142</ele><time>2026-04-25T10:52:55.384Z</time></trkpt><trkpt lat="41.081175" lon="14.6579633"><ele>521.5714285714286</ele><time>2026-04-25T10:52:57.383Z</time></trkpt><trkpt lat="41.081245" lon="14.657955"><ele>521.8571428571429</ele><time>2026-04-25T10:52:59.385Z</time></trkpt><trkpt lat="41.081315" lon="14.657945"><ele>522.1428571428571</ele><time>2026-04-25T10:53:01.383Z</time></trkpt><trkpt lat="41.0813783" lon="14.6579333"><ele>522.4285714285714</ele><time>2026-04-25T10:53:03.383Z</time></trkpt><trkpt lat="41.08144" lon="14.65791"><ele>522.7142857142857</ele><time>2026-04-25T10:53:05.383Z</time></trkpt><trkpt lat="41.0815083" lon="14.6578833"><ele>523.0</ele><time>2026-04-25T10:53:07.382Z</time></trkpt><trkpt lat="41.0815717" lon="14.65785"><ele>523.6666666666667</ele><time>2026-04-25T10:53:09.385Z</time></trkpt><trkpt lat="41.0816367" lon="14.6578067"><ele>524.3333333333334</ele><time>2026-04-25T10:53:11.384Z</time></trkpt><trkpt lat="41.08171" lon="14.65776"><ele>525.0</ele><time>2026-04-25T10:53:13.384Z</time></trkpt><trkpt lat="41.0817767" lon="14.6577"><ele>525.6666666666666</ele><time>2026-04-25T10:53:15.385Z</time></trkpt><trkpt lat="41.08184" lon="14.6576317"><ele>526.3333333333333</ele><time>2026-04-25T10:53:17.384Z</time></trkpt><trkpt lat="41.081895" lon="14.6575617"><ele>527.0</ele><time>2026-04-25T10:53:19.385Z</time></trkpt><trkpt lat="41.08194" lon="14.6574867"><ele>527.0</ele><time>2026-04-25T10:53:21.385Z</time></trkpt><trkpt lat="41.081985" lon="14.657405"><ele>527.0</ele><time>2026-04-25T10:53:23.383Z</time></trkpt><trkpt lat="41.0820217" lon="14.6573167"><ele>527.0</ele><time>2026-04-25T10:53:25.384Z</time></trkpt><trkpt lat="41.0820533" lon="14.65723"><ele>527.0</ele><time>2026-04-25T10:53:27.384Z</time></trkpt><trkpt lat="41.0820867" lon="14.657155"><ele>527.0</ele><time>2026-04-25T10:53:29.385Z</time></trkpt><trkpt lat="41.08213" lon="14.65705"><ele>527.0</ele><time>2026-04-25T10:53:32.384Z</time></trkpt><trkpt lat="41.0821933" lon="14.6569533"><ele>526.2857142857143</ele><time>2026-04-25T10:53:35.382Z</time></trkpt><trkpt lat="41.08224" lon="14.6568933"><ele>525.5714285714286</ele><time>2026-04-25T10:53:37.384Z</time></trkpt><trkpt lat="41.0823033" lon="14.6568483"><ele>524.8571428571429</ele><time>2026-04-25T10:53:39.383Z</time></trkpt><trkpt lat="41.0823733" lon="14.656815"><ele>524.1428571428571</ele><time>2026-04-25T10:53:41.385Z</time></trkpt><trkpt lat="41.0824483" lon="14.6567917"><ele>523.4285714285714</ele><time>2026-04-25T10:53:43.383Z</time></trkpt><trkpt lat="41.08252" lon="14.656765"><ele>522.7142857142858</ele><time>2026-04-25T10:53:45.381Z</time></trkpt><trkpt lat="41.082585" lon="14.6567467"><ele>522.0</ele><time>2026-04-25T10:53:47.382Z</time></trkpt><trkpt lat="41.0826567" lon="14.6567317"><ele>523.5714285714286</ele><time>2026-04-25T10:53:49.383Z</time></trkpt><trkpt lat="41.0827217" lon="14.6567117"><ele>525.1428571428571</ele><time>2026-04-25T10:53:51.383Z</time></trkpt><trkpt lat="41.0827883" lon="14.6566933"><ele>526.7142857142857</ele><time>2026-04-25T10:53:53.382Z</time></trkpt><trkpt lat="41.0828533" lon="14.6566833"><ele>528.2857142857142</ele><time>2026-04-25T10:53:55.385Z</time></trkpt><trkpt lat="41.0829167" lon="14.65667"><ele>529.8571428571428</ele><time>2026-04-25T10:53:57.384Z</time></trkpt><trkpt lat="41.083005" lon="14.65665"><ele>531.4285714285714</ele><time>2026-04-25T10:54:00.385Z</time></trkpt><trkpt lat="41.0830917" lon="14.6566217"><ele>533.0</ele><time>2026-04-25T10:54:03.382Z</time></trkpt><trkpt lat="41.0831767" lon="14.656595"><ele>533.0</ele><time>2026-04-25T10:54:06.385Z</time></trkpt><trkpt lat="41.0832583" lon="14.656565"><ele>533.0</ele><time>2026-04-25T10:54:09.384Z</time></trkpt><trkpt lat="41.083345" lon="14.6565283"><ele>533.0</ele><time>2026-04-25T10:54:12.384Z</time></trkpt><trkpt lat="41.0834117" lon="14.656525"><ele>533.0</ele><time>2026-04-25T10:54:14.383Z</time></trkpt><trkpt lat="41.0834783" lon="14.6565117"><ele>533.0</ele><time>2026-04-25T10:54:16.382Z</time></trkpt><trkpt lat="41.0835433" lon="14.656495"><ele>533.0</ele><time>2026-04-25T10:54:18.384Z</time></trkpt><trkpt lat="41.0836117" lon="14.6564767"><ele>533.0</ele><time>2026-04-25T10:54:20.383Z</time></trkpt><trkpt lat="41.083685" lon="14.65646"><ele>534.1666666666666</ele><time>2026-04-25T10:54:22.383Z</time></trkpt><trkpt lat="41.0837533" lon="14.6564417"><ele>535.3333333333333</ele><time>2026-04-25T10:54:24.385Z</time></trkpt><trkpt lat="41.0838167" lon="14.65642"><ele>536.5</ele><time>2026-04-25T10:54:26.383Z</time></trkpt><trkpt lat="41.0838967" lon="14.656405"><ele>537.6666666666666</ele><time>2026-04-25T10:54:29.382Z</time></trkpt><trkpt lat="41.083945" lon="14.6565567"><ele>538.8333333333334</ele><time>2026-04-25T10:54:56.384Z</time></trkpt><trkpt lat="41.0840167" lon="14.6566233"><ele>540.0</ele><time>2026-04-25T10:55:00.384Z</time></trkpt><trkpt lat="41.08401" lon="14.656715"><ele>540.0</ele><time>2026-04-25T10:55:03.384Z</time></trkpt><trkpt lat="41.0839746" lon="14.6564654"><ele>540.0</ele><time>2026-04-25T10:55:12Z</time></trkpt><trkpt lat="41.0840477" lon="14.6564607"><ele>540.0</ele><time>2026-04-25T10:59:45.472Z</time></trkpt><trkpt lat="41.0843067" lon="14.65623"><ele>539.8333333333334</ele><time>2026-04-25T10:59:48.382Z</time></trkpt><trkpt lat="41.0843817" lon="14.6561667"><ele>539.6666666666666</ele><time>2026-04-25T10:59:50.384Z</time></trkpt><trkpt lat="41.0844483" lon="14.6561033"><ele>539.5</ele><time>2026-04-25T10:59:52.381Z</time></trkpt><trkpt lat="41.0845183" lon="14.65603"><ele>539.3333333333333</ele><time>2026-04-25T10:59:54.385Z</time></trkpt><trkpt lat="41.0845833" lon="14.6559517"><ele>539.1666666666666</ele><time>2026-04-25T10:59:56.384Z</time></trkpt><trkpt lat="41.0846467" lon="14.65588"><ele>539.0</ele><time>2026-04-25T10:59:58.38Z</time></trkpt><trkpt lat="41.0847133" lon="14.6558133"><ele>539.8333333333333</ele><time>2026-04-25T11:00:00.383Z</time></trkpt><trkpt lat="41.0847833" lon="14.6557517"><ele>540.6666666666666</ele><time>2026-04-25T11:00:02.381Z</time></trkpt><trkpt lat="41.0848517" lon="14.6556883"><ele>541.5</ele><time>2026-04-25T11:00:04.381Z</time></trkpt><trkpt lat="41.0849217" lon="14.6556317"><ele>542.3333333333334</ele><time>2026-04-25T11:00:06.382Z</time></trkpt><trkpt lat="41.0849967" lon="14.65557"><ele>543.1666666666667</ele><time>2026-04-25T11:00:08.385Z</time></trkpt><trkpt lat="41.0850767" lon="14.6555367"><ele>544.0</ele><time>2026-04-25T11:00:10.385Z</time></trkpt><trkpt lat="41.0851533" lon="14.655515"><ele>544.0</ele><time>2026-04-25T11:00:12.382Z</time></trkpt><trkpt lat="41.085235" lon="14.6554967"><ele>544.0</ele><time>2026-04-25T11:00:14.383Z</time></trkpt><trkpt lat="41.0853183" lon="14.6554883"><ele>544.0</ele><time>2026-04-25T11:00:16.382Z</time></trkpt><trkpt lat="41.0853983" lon="14.65548"><ele>544.0</ele><time>2026-04-25T11:00:18.382Z</time></trkpt><trkpt lat="41.0854783" lon="14.65547"><ele>544.0</ele><time>2026-04-25T11:00:20.384Z</time></trkpt><trkpt lat="41.08557" lon="14.655455"><ele>544.0</ele><time>2026-04-25T11:00:23.383Z</time></trkpt><trkpt lat="41.0856533" lon="14.6554333"><ele>544.0</ele><time>2026-04-25T11:00:27.385Z</time></trkpt><trkpt lat="41.0857317" lon="14.65538"><ele>544.0</ele><time>2026-04-25T11:00:30.384Z</time></trkpt><trkpt lat="41.0858" lon="14.65533"><ele>544.0</ele><time>2026-04-25T11:00:32.384Z</time></trkpt><trkpt lat="41.0858817" lon="14.6552817"><ele>544.0</ele><time>2026-04-25T11:00:34.381Z</time></trkpt><trkpt lat="41.08597" lon="14.655225"><ele>544.0</ele><time>2026-04-25T11:00:36.384Z</time></trkpt><trkpt lat="41.0860567" lon="14.6551533"><ele>544.2</ele><time>2026-04-25T11:00:38.385Z</time></trkpt><trkpt lat="41.0861383" lon="14.6550633"><ele>544.4</ele><time>2026-04-25T11:00:40.383Z</time></trkpt><trkpt lat="41.086215" lon="14.6549733"><ele>544.6</ele><time>2026-04-25T11:00:42.383Z</time></trkpt><trkpt lat="41.086295" lon="14.6548833"><ele>544.8</ele><time>2026-04-25T11:00:44.384Z</time></trkpt><trkpt lat="41.0863683" lon="14.6547917"><ele>545.0</ele><time>2026-04-25T11:00:46.382Z</time></trkpt><trkpt lat="41.0864483" lon="14.65469"><ele>545.0</ele><time>2026-04-25T11:00:48.384Z</time></trkpt><trkpt lat="41.0865267" lon="14.65459"><ele>545.0</ele><time>2026-04-25T11:00:50.384Z</time></trkpt><trkpt lat="41.0866067" lon="14.654485"><ele>545.0</ele><time>2026-04-25T11:00:52.384Z</time></trkpt><trkpt lat="41.0866933" lon="14.65437"><ele>545.0</ele><time>2026-04-25T11:00:54.381Z</time></trkpt><trkpt lat="41.0867783" lon="14.6542483"><ele>545.2</ele><time>2026-04-25T11:00:56.384Z</time></trkpt><trkpt lat="41.0868217" lon="14.6541867"><ele>545.4</ele><time>2026-04-25T11:00:57.381Z</time></trkpt><trkpt lat="41.0868633" lon="14.65412"><ele>545.6</ele><time>2026-04-25T11:00:58.382Z</time></trkpt><trkpt lat="41.0869433" lon="14.6539933"><ele>545.8</ele><time>2026-04-25T11:01:00.384Z</time></trkpt><trkpt lat="41.0870217" lon="14.6538783"><ele>546.0</ele><time>2026-04-25T11:01:02.383Z</time></trkpt><trkpt lat="41.0871017" lon="14.6537667"><ele>546.0</ele><time>2026-04-25T11:01:04.382Z</time></trkpt><trkpt lat="41.087185" lon="14.6536533"><ele>546.0</ele><time>2026-04-25T11:01:06.383Z</time></trkpt><trkpt lat="41.0872733" lon="14.653545"><ele>546.0</ele><time>2026-04-25T11:01:08.383Z</time></trkpt><trkpt lat="41.0873267" lon="14.6534967"><ele>546.0</ele><time>2026-04-25T11:01:09.383Z</time></trkpt><trkpt lat="41.087385" lon="14.6534583"><ele>546.0</ele><time>2026-04-25T11:01:10.384Z</time></trkpt><trkpt lat="41.0874483" lon="14.6534233"><ele>546.0</ele><time>2026-04-25T11:01:11.384Z</time></trkpt><trkpt lat="41.0875133" lon="14.6533817"><ele>546.5714285714286</ele><time>2026-04-25T11:01:12.382Z</time></trkpt><trkpt lat="41.08758" lon="14.6533567"><ele>547.1428571428571</ele><time>2026-04-25T11:01:13.383Z</time></trkpt><trkpt lat="41.087645" lon="14.653335"><ele>547.7142857142858</ele><time>2026-04-25T11:01:14.383Z</time></trkpt><trkpt lat="41.0877067" lon="14.653315"><ele>548.2857142857142</ele><time>2026-04-25T11:01:15.384Z</time></trkpt><trkpt lat="41.08777" lon="14.6533"><ele>548.8571428571429</ele><time>2026-04-25T11:01:16.383Z</time></trkpt><trkpt lat="41.0878333" lon="14.6532783"><ele>549.4285714285714</ele><time>2026-04-25T11:01:17.382Z</time></trkpt><trkpt lat="41.0878967" lon="14.6532533"><ele>550.0</ele><time>2026-04-25T11:01:18.384Z</time></trkpt><trkpt lat="41.0879617" lon="14.6532183"><ele>550.0</ele><time>2026-04-25T11:01:19.384Z</time></trkpt><trkpt lat="41.0880233" lon="14.6531767"><ele>550.0</ele><time>2026-04-25T11:01:20.384Z</time></trkpt><trkpt lat="41.0880783" lon="14.6531267"><ele>550.0</ele><time>2026-04-25T11:01:21.384Z</time></trkpt><trkpt lat="41.088175" lon="14.65302"><ele>550.0</ele><time>2026-04-25T11:01:23.383Z</time></trkpt><trkpt lat="41.0882533" lon="14.65289"><ele>550.0</ele><time>2026-04-25T11:01:25.382Z</time></trkpt><trkpt lat="41.0882867" lon="14.6528183"><ele>550.1666666666667</ele><time>2026-04-25T11:01:26.384Z</time></trkpt><trkpt lat="41.08833" lon="14.65267"><ele>550.3333333333334</ele><time>2026-04-25T11:01:28.382Z</time></trkpt><trkpt lat="41.0883517" lon="14.6525133"><ele>550.5</ele><time>2026-04-25T11:01:30.384Z</time></trkpt><trkpt lat="41.088365" lon="14.65243"><ele>550.6666666666666</ele><time>2026-04-25T11:01:31.383Z</time></trkpt><trkpt lat="41.0883733" lon="14.6523433"><ele>550.8333333333333</ele><time>2026-04-25T11:01:32.384Z</time></trkpt><trkpt lat="41.08838" lon="14.6522533"><ele>551.0</ele><time>2026-04-25T11:01:33.384Z</time></trkpt><trkpt lat="41.0883817" lon="14.652165"><ele>551.0</ele><time>2026-04-25T11:01:34.383Z</time></trkpt><trkpt lat="41.08838" lon="14.6520733"><ele>551.0</ele><time>2026-04-25T11:01:35.383Z</time></trkpt><trkpt lat="41.0883767" lon="14.6519817"><ele>551.0</ele><time>2026-04-25T11:01:36.384Z</time></trkpt><trkpt lat="41.08837" lon="14.6518933"><ele>551.0</ele><time>2026-04-25T11:01:37.383Z</time></trkpt><trkpt lat="41.0883633" lon="14.6518083"><ele>551.0</ele><time>2026-04-25T11:01:38.384Z</time></trkpt><trkpt lat="41.088345" lon="14.65165"><ele>551.0</ele><time>2026-04-25T11:01:40.381Z</time></trkpt><trkpt lat="41.0883267" lon="14.6514983"><ele>551.2</ele><time>2026-04-25T11:01:42.385Z</time></trkpt><trkpt lat="41.0883233" lon="14.6513433"><ele>551.4000000000001</ele><time>2026-04-25T11:01:44.384Z</time></trkpt><trkpt lat="41.0883233" lon="14.651195"><ele>551.6</ele><time>2026-04-25T11:01:46.383Z</time></trkpt><trkpt lat="41.0883267" lon="14.651065"><ele>551.8000000000001</ele><time>2026-04-25T11:01:48.384Z</time></trkpt><trkpt lat="41.0883317" lon="14.650925"><ele>552.0</ele><time>2026-04-25T11:01:50.384Z</time></trkpt><trkpt lat="41.0883383" lon="14.65079"><ele>552.0</ele><time>2026-04-25T11:01:52.382Z</time></trkpt><trkpt lat="41.08835" lon="14.6506383"><ele>552.0</ele><time>2026-04-25T11:01:54.383Z</time></trkpt><trkpt lat="41.0883717" lon="14.6505"><ele>552.0</ele><time>2026-04-25T11:01:56.384Z</time></trkpt><trkpt lat="41.0884183" lon="14.6503733"><ele>552.0</ele><time>2026-04-25T11:01:58.383Z</time></trkpt><trkpt lat="41.0885017" lon="14.65026"><ele>552.0</ele><time>2026-04-25T11:02:00.382Z</time></trkpt><trkpt lat="41.0886167" lon="14.6501917"><ele>552.0</ele><time>2026-04-25T11:02:02.385Z</time></trkpt><trkpt lat="41.08873" lon="14.65017"><ele>552.0</ele><time>2026-04-25T11:02:04.383Z</time></trkpt><trkpt lat="41.0888533" lon="14.6501633"><ele>552.0</ele><time>2026-04-25T11:02:06.383Z</time></trkpt><trkpt lat="41.0889167" lon="14.6501567"><ele>552.0</ele><time>2026-04-25T11:02:07.383Z</time></trkpt><trkpt lat="41.08898" lon="14.6501517"><ele>552.0</ele><time>2026-04-25T11:02:08.386Z</time></trkpt><trkpt lat="41.0891" lon="14.65014"><ele>552.0</ele><time>2026-04-25T11:02:10.382Z</time></trkpt><trkpt lat="41.08922" lon="14.6501317"><ele>552.0</ele><time>2026-04-25T11:02:12.384Z</time></trkpt><trkpt lat="41.08934" lon="14.65012"><ele>552.0</ele><time>2026-04-25T11:02:14.383Z</time></trkpt><trkpt lat="41.0894583" lon="14.6500917"><ele>552.0</ele><time>2026-04-25T11:02:16.384Z</time></trkpt><trkpt lat="41.08957" lon="14.6500783"><ele>552.0</ele><time>2026-04-25T11:02:18.382Z</time></trkpt><trkpt lat="41.0896867" lon="14.6500767"><ele>552.0</ele><time>2026-04-25T11:02:20.383Z</time></trkpt><trkpt lat="41.0898017" lon="14.65006"><ele>552.0</ele><time>2026-04-25T11:02:22.383Z</time></trkpt><trkpt lat="41.0899133" lon="14.6500467"><ele>552.0</ele><time>2026-04-25T11:02:24.383Z</time></trkpt><trkpt lat="41.0899767" lon="14.650045"><ele>552.0</ele><time>2026-04-25T11:02:25.383Z</time></trkpt><trkpt lat="41.09004" lon="14.650045"><ele>552.6666666666666</ele><time>2026-04-25T11:02:26.383Z</time></trkpt><trkpt lat="41.0901033" lon="14.6500417"><ele>553.3333333333334</ele><time>2026-04-25T11:02:27.385Z</time></trkpt><trkpt lat="41.0902317" lon="14.6500383"><ele>554.0</ele><time>2026-04-25T11:02:29.383Z</time></trkpt><trkpt lat="41.0902967" lon="14.650035"><ele>554.6666666666667</ele><time>2026-04-25T11:02:30.382Z</time></trkpt><trkpt lat="41.0903617" lon="14.6500267"><ele>555.3333333333334</ele><time>2026-04-25T11:02:31.384Z</time></trkpt><trkpt lat="41.0904283" lon="14.6500183"><ele>556.0</ele><time>2026-04-25T11:02:32.383Z</time></trkpt><trkpt lat="41.0904917" lon="14.6500067"><ele>556.0</ele><time>2026-04-25T11:02:33.383Z</time></trkpt><trkpt lat="41.0906133" lon="14.6499617"><ele>556.0</ele><time>2026-04-25T11:02:35.383Z</time></trkpt><trkpt lat="41.0906717" lon="14.6499267"><ele>556.0</ele><time>2026-04-25T11:02:36.384Z</time></trkpt><trkpt lat="41.09077" lon="14.6498317"><ele>556.0</ele><time>2026-04-25T11:02:38.384Z</time></trkpt><trkpt lat="41.09084" lon="14.6497083"><ele>556.0</ele><time>2026-04-25T11:02:40.381Z</time></trkpt><trkpt lat="41.0908867" lon="14.64957"><ele>555.0</ele><time>2026-04-25T11:02:42.384Z</time></trkpt><trkpt lat="41.0909283" lon="14.6494267"><ele>554.0</ele><time>2026-04-25T11:02:44.384Z</time></trkpt><trkpt lat="41.0909867" lon="14.64929"><ele>553.0</ele><time>2026-04-25T11:02:46.381Z</time></trkpt><trkpt lat="41.0910267" lon="14.64922"><ele>552.0</ele><time>2026-04-25T11:02:47.385Z</time></trkpt><trkpt lat="41.09107" lon="14.6491517"><ele>551.0</ele><time>2026-04-25T11:02:48.384Z</time></trkpt><trkpt lat="41.09112" lon="14.6490917"><ele>550.0</ele><time>2026-04-25T11:02:49.383Z</time></trkpt><trkpt lat="41.0911783" lon="14.64904"><ele>550.0</ele><time>2026-04-25T11:02:50.383Z</time></trkpt><trkpt lat="41.09124" lon="14.6489917"><ele>550.0</ele><time>2026-04-25T11:02:51.384Z</time></trkpt><trkpt lat="41.0912983" lon="14.6489467"><ele>550.0</ele><time>2026-04-25T11:02:52.383Z</time></trkpt><trkpt lat="41.09136" lon="14.648905"><ele>550.0</ele><time>2026-04-25T11:02:53.383Z</time></trkpt><trkpt lat="41.0914217" lon="14.6488683"><ele>550.0</ele><time>2026-04-25T11:02:54.383Z</time></trkpt><trkpt lat="41.091485" lon="14.6488383"><ele>550.0</ele><time>2026-04-25T11:02:55.383Z</time></trkpt><trkpt lat="41.0915517" lon="14.6488133"><ele>550.0</ele><time>2026-04-25T11:02:56.384Z</time></trkpt><trkpt lat="41.09162" lon="14.6488"><ele>552.6</ele><time>2026-04-25T11:02:57.383Z</time></trkpt><trkpt lat="41.091685" lon="14.6488017"><ele>555.2</ele><time>2026-04-25T11:02:58.383Z</time></trkpt><trkpt lat="41.0918067" lon="14.6488517"><ele>557.8</ele><time>2026-04-25T11:03:00.384Z</time></trkpt><trkpt lat="41.091925" lon="14.6489233"><ele>560.4</ele><time>2026-04-25T11:03:02.383Z</time></trkpt><trkpt lat="41.0919883" lon="14.64895"><ele>563.0</ele><time>2026-04-25T11:03:03.384Z</time></trkpt><trkpt lat="41.0920533" lon="14.6489617"><ele>563.0</ele><time>2026-04-25T11:03:04.382Z</time></trkpt><trkpt lat="41.0921183" lon="14.648965"><ele>563.0</ele><time>2026-04-25T11:03:05.384Z</time></trkpt><trkpt lat="41.092185" lon="14.648945"><ele>563.0</ele><time>2026-04-25T11:03:06.383Z</time></trkpt><trkpt lat="41.0922467" lon="14.6489117"><ele>563.0</ele><time>2026-04-25T11:03:07.382Z</time></trkpt><trkpt lat="41.0923" lon="14.64886"><ele>563.0</ele><time>2026-04-25T11:03:08.382Z</time></trkpt><trkpt lat="41.0923517" lon="14.6488083"><ele>563.0</ele><time>2026-04-25T11:03:09.382Z</time></trkpt><trkpt lat="41.0924217" lon="14.6486717"><ele>563.0</ele><time>2026-04-25T11:03:11.383Z</time></trkpt><trkpt lat="41.092435" lon="14.64859"><ele>563.0</ele><time>2026-04-25T11:03:12.385Z</time></trkpt><trkpt lat="41.09243" lon="14.64842"><ele>563.0</ele><time>2026-04-25T11:03:14.383Z</time></trkpt><trkpt lat="41.0924217" lon="14.6483333"><ele>563.0</ele><time>2026-04-25T11:03:15.383Z</time></trkpt><trkpt lat="41.092415" lon="14.648245"><ele>563.0</ele><time>2026-04-25T11:03:16.383Z</time></trkpt><trkpt lat="41.09241" lon="14.6481567"><ele>563.0</ele><time>2026-04-25T11:03:17.383Z</time></trkpt><trkpt lat="41.092405" lon="14.64807"><ele>562.6666666666666</ele><time>2026-04-25T11:03:18.382Z</time></trkpt><trkpt lat="41.0924" lon="14.6479833"><ele>562.3333333333333</ele><time>2026-04-25T11:03:19.384Z</time></trkpt><trkpt lat="41.0923983" lon="14.6478967"><ele>562.0</ele><time>2026-04-25T11:03:20.383Z</time></trkpt><trkpt lat="41.0924117" lon="14.647735"><ele>561.6666666666666</ele><time>2026-04-25T11:03:22.383Z</time></trkpt><trkpt lat="41.0924283" lon="14.6476533"><ele>561.3333333333334</ele><time>2026-04-25T11:03:23.383Z</time></trkpt><trkpt lat="41.0925" lon="14.6475167"><ele>561.0</ele><time>2026-04-25T11:03:25.383Z</time></trkpt><trkpt lat="41.0925533" lon="14.64747"><ele>561.0</ele><time>2026-04-25T11:03:26.385Z</time></trkpt><trkpt lat="41.092615" lon="14.6474483"><ele>561.0</ele><time>2026-04-25T11:03:27.383Z</time></trkpt><trkpt lat="41.0927333" lon="14.6474767"><ele>561.0</ele><time>2026-04-25T11:03:29.383Z</time></trkpt><trkpt lat="41.0928467" lon="14.64755"><ele>561.0</ele><time>2026-04-25T11:03:31.384Z</time></trkpt><trkpt lat="41.0929067" lon="14.6475933"><ele>561.0</ele><time>2026-04-25T11:03:32.384Z</time></trkpt><trkpt lat="41.09297" lon="14.6476233"><ele>561.0</ele><time>2026-04-25T11:03:33.383Z</time></trkpt><trkpt lat="41.0930333" lon="14.6476383"><ele>561.0</ele><time>2026-04-25T11:03:34.383Z</time></trkpt><trkpt lat="41.0930967" lon="14.64763"><ele>561.0</ele><time>2026-04-25T11:03:35.383Z</time></trkpt><trkpt lat="41.0931617" lon="14.6476033"><ele>561.0</ele><time>2026-04-25T11:03:36.384Z</time></trkpt><trkpt lat="41.09322" lon="14.647555"><ele>561.0</ele><time>2026-04-25T11:03:37.384Z</time></trkpt><trkpt lat="41.0932667" lon="14.647485"><ele>561.0</ele><time>2026-04-25T11:03:38.384Z</time></trkpt><trkpt lat="41.0932983" lon="14.6474033"><ele>561.0</ele><time>2026-04-25T11:03:39.383Z</time></trkpt><trkpt lat="41.0933183" lon="14.647315"><ele>561.0</ele><time>2026-04-25T11:03:40.383Z</time></trkpt><trkpt lat="41.0933217" lon="14.6472233"><ele>561.7142857142857</ele><time>2026-04-25T11:03:41.383Z</time></trkpt><trkpt lat="41.0933133" lon="14.64713"><ele>562.4285714285713</ele><time>2026-04-25T11:03:42.385Z</time></trkpt><trkpt lat="41.0933" lon="14.6470383"><ele>563.1428571428571</ele><time>2026-04-25T11:03:43.382Z</time></trkpt><trkpt lat="41.0932833" lon="14.6469467"><ele>563.8571428571429</ele><time>2026-04-25T11:03:44.384Z</time></trkpt><trkpt lat="41.093265" lon="14.6468517"><ele>564.5714285714287</ele><time>2026-04-25T11:03:45.384Z</time></trkpt><trkpt lat="41.0932483" lon="14.64676"><ele>565.2857142857143</ele><time>2026-04-25T11:03:46.383Z</time></trkpt><trkpt lat="41.093235" lon="14.6466683"><ele>566.0</ele><time>2026-04-25T11:03:47.383Z</time></trkpt><trkpt lat="41.0932283" lon="14.646575"><ele>566.2857142857143</ele><time>2026-04-25T11:03:48.384Z</time></trkpt><trkpt lat="41.09324" lon="14.6464817"><ele>566.5714285714287</ele><time>2026-04-25T11:03:49.383Z</time></trkpt><trkpt lat="41.0932583" lon="14.646395"><ele>566.8571428571429</ele><time>2026-04-25T11:03:50.385Z</time></trkpt><trkpt lat="41.0932817" lon="14.6463117"><ele>567.1428571428571</ele><time>2026-04-25T11:03:51.383Z</time></trkpt><trkpt lat="41.0933133" lon="14.646235"><ele>567.4285714285713</ele><time>2026-04-25T11:03:52.383Z</time></trkpt><trkpt lat="41.0933567" lon="14.64616"><ele>567.7142857142857</ele><time>2026-04-25T11:03:53.383Z</time></trkpt><trkpt lat="41.093405" lon="14.6460967"><ele>568.0</ele><time>2026-04-25T11:03:54.382Z</time></trkpt><trkpt lat="41.0934533" lon="14.64604"><ele>566.6666666666667</ele><time>2026-04-25T11:03:55.383Z</time></trkpt><trkpt lat="41.0935" lon="14.64598"><ele>565.3333333333334</ele><time>2026-04-25T11:03:56.384Z</time></trkpt><trkpt lat="41.09355" lon="14.6459233"><ele>564.0</ele><time>2026-04-25T11:03:57.383Z</time></trkpt><trkpt lat="41.0935967" lon="14.6458667"><ele>562.6666666666666</ele><time>2026-04-25T11:03:58.383Z</time></trkpt><trkpt lat="41.0936883" lon="14.6457533"><ele>561.3333333333333</ele><time>2026-04-25T11:04:00.384Z</time></trkpt><trkpt lat="41.093765" lon="14.6456283"><ele>560.0</ele><time>2026-04-25T11:04:02.385Z</time></trkpt><trkpt lat="41.0938017" lon="14.64556"><ele>560.0</ele><time>2026-04-25T11:04:03.384Z</time></trkpt><trkpt lat="41.0938583" lon="14.6454133"><ele>560.0</ele><time>2026-04-25T11:04:05.384Z</time></trkpt><trkpt lat="41.09388" lon="14.64533"><ele>560.0</ele><time>2026-04-25T11:04:06.384Z</time></trkpt><trkpt lat="41.0939017" lon="14.6452467"><ele>560.0</ele><time>2026-04-25T11:04:07.383Z</time></trkpt><trkpt lat="41.0939333" lon="14.6450833"><ele>560.0</ele><time>2026-04-25T11:04:09.383Z</time></trkpt><trkpt lat="41.0939667" lon="14.644925"><ele>558.8333333333333</ele><time>2026-04-25T11:04:11.383Z</time></trkpt><trkpt lat="41.0940067" lon="14.6447667"><ele>557.6666666666666</ele><time>2026-04-25T11:04:13.383Z</time></trkpt><trkpt lat="41.0940367" lon="14.6446883"><ele>556.5</ele><time>2026-04-25T11:04:14.385Z</time></trkpt><trkpt lat="41.0940817" lon="14.6446217"><ele>555.3333333333334</ele><time>2026-04-25T11:04:15.383Z</time></trkpt><trkpt lat="41.0941317" lon="14.644565"><ele>554.1666666666667</ele><time>2026-04-25T11:04:16.384Z</time></trkpt><trkpt lat="41.09419" lon="14.6445267"><ele>553.0</ele><time>2026-04-25T11:04:17.383Z</time></trkpt><trkpt lat="41.094255" lon="14.6444983"><ele>554.1666666666667</ele><time>2026-04-25T11:04:18.384Z</time></trkpt><trkpt lat="41.09432" lon="14.6444783"><ele>555.3333333333334</ele><time>2026-04-25T11:04:19.383Z</time></trkpt><trkpt lat="41.094385" lon="14.6444617"><ele>556.5</ele><time>2026-04-25T11:04:20.383Z</time></trkpt><trkpt lat="41.09445" lon="14.6444483"><ele>557.6666666666666</ele><time>2026-04-25T11:04:21.383Z</time></trkpt><trkpt lat="41.094515" lon="14.64444"><ele>558.8333333333333</ele><time>2026-04-25T11:04:22.382Z</time></trkpt><trkpt lat="41.0946383" lon="14.6444233"><ele>560.0</ele><time>2026-04-25T11:04:24.384Z</time></trkpt><trkpt lat="41.0947567" lon="14.6443917"><ele>560.0</ele><time>2026-04-25T11:04:26.385Z</time></trkpt><trkpt lat="41.0948167" lon="14.6443617"><ele>560.0</ele><time>2026-04-25T11:04:27.383Z</time></trkpt><trkpt lat="41.094875" lon="14.64432"><ele>560.0</ele><time>2026-04-25T11:04:28.384Z</time></trkpt><trkpt lat="41.094935" lon="14.6442817"><ele>560.0</ele><time>2026-04-25T11:04:29.383Z</time></trkpt><trkpt lat="41.0949933" lon="14.6442417"><ele>560.0</ele><time>2026-04-25T11:04:30.385Z</time></trkpt><trkpt lat="41.0950533" lon="14.6442017"><ele>560.0</ele><time>2026-04-25T11:04:31.382Z</time></trkpt><trkpt lat="41.09511" lon="14.6441567"><ele>560.0</ele><time>2026-04-25T11:04:32.385Z</time></trkpt><trkpt lat="41.0951633" lon="14.64411"><ele>561.2857142857143</ele><time>2026-04-25T11:04:33.385Z</time></trkpt><trkpt lat="41.0952167" lon="14.6440633"><ele>562.5714285714286</ele><time>2026-04-25T11:04:34.383Z</time></trkpt><trkpt lat="41.0952717" lon="14.644015"><ele>563.8571428571429</ele><time>2026-04-25T11:04:35.383Z</time></trkpt><trkpt lat="41.0953267" lon="14.6439667"><ele>565.1428571428571</ele><time>2026-04-25T11:04:36.382Z</time></trkpt><trkpt lat="41.0953783" lon="14.6439183"><ele>566.4285714285714</ele><time>2026-04-25T11:04:37.385Z</time></trkpt><trkpt lat="41.0954283" lon="14.6438667"><ele>567.7142857142858</ele><time>2026-04-25T11:04:38.385Z</time></trkpt><trkpt lat="41.0954817" lon="14.6438133"><ele>569.0</ele><time>2026-04-25T11:04:39.383Z</time></trkpt><trkpt lat="41.0955333" lon="14.6437583"><ele>569.0</ele><time>2026-04-25T11:04:40.383Z</time></trkpt><trkpt lat="41.095585" lon="14.6437067"><ele>569.0</ele><time>2026-04-25T11:04:41.384Z</time></trkpt><trkpt lat="41.09564" lon="14.6436517"><ele>569.0</ele><time>2026-04-25T11:04:42.385Z</time></trkpt><trkpt lat="41.0956933" lon="14.643595"><ele>569.0</ele><time>2026-04-25T11:04:43.383Z</time></trkpt><trkpt lat="41.0957433" lon="14.6435417"><ele>569.0</ele><time>2026-04-25T11:04:44.385Z</time></trkpt><trkpt lat="41.0958433" lon="14.64344"><ele>569.0</ele><time>2026-04-25T11:04:46.382Z</time></trkpt><trkpt lat="41.0958917" lon="14.643385"><ele>569.0</ele><time>2026-04-25T11:04:47.383Z</time></trkpt><trkpt lat="41.0959783" lon="14.6432733"><ele>569.0</ele><time>2026-04-25T11:04:49.384Z</time></trkpt><trkpt lat="41.0960667" lon="14.6431567"><ele>569.0</ele><time>2026-04-25T11:04:51.384Z</time></trkpt><trkpt lat="41.0961383" lon="14.6430283"><ele>569.0</ele><time>2026-04-25T11:04:53.385Z</time></trkpt><trkpt lat="41.0961733" lon="14.6429583"><ele>569.0</ele><time>2026-04-25T11:04:54.385Z</time></trkpt><trkpt lat="41.0962067" lon="14.6428867"><ele>569.0000000000001</ele><time>2026-04-25T11:04:55.382Z</time></trkpt><trkpt lat="41.0962367" lon="14.6428117"><ele>569.0</ele><time>2026-04-25T11:04:56.384Z</time></trkpt><trkpt lat="41.0962633" lon="14.6427317"><ele>569.0</ele><time>2026-04-25T11:04:57.383Z</time></trkpt><trkpt lat="41.0962817" lon="14.6426483"><ele>569.0</ele><time>2026-04-25T11:04:58.382Z</time></trkpt><trkpt lat="41.096295" lon="14.64256"><ele>569.0</ele><time>2026-04-25T11:04:59.381Z</time></trkpt><trkpt lat="41.0963017" lon="14.6424717"><ele>569.0000000000001</ele><time>2026-04-25T11:05:00.385Z</time></trkpt><trkpt lat="41.0963083" lon="14.6423817"><ele>569.0</ele><time>2026-04-25T11:05:01.383Z</time></trkpt><trkpt lat="41.0963083" lon="14.6422883"><ele>568.4285714285714</ele><time>2026-04-25T11:05:02.385Z</time></trkpt><trkpt lat="41.0962983" lon="14.6421967"><ele>567.8571428571429</ele><time>2026-04-25T11:05:03.383Z</time></trkpt><trkpt lat="41.0962817" lon="14.6421117"><ele>567.2857142857142</ele><time>2026-04-25T11:05:04.383Z</time></trkpt><trkpt lat="41.09626" lon="14.6420283"><ele>566.7142857142858</ele><time>2026-04-25T11:05:05.385Z</time></trkpt><trkpt lat="41.0962367" lon="14.6419417"><ele>566.1428571428571</ele><time>2026-04-25T11:05:06.384Z</time></trkpt><trkpt lat="41.0962067" lon="14.64186"><ele>565.5714285714286</ele><time>2026-04-25T11:05:07.382Z</time></trkpt><trkpt lat="41.0961767" lon="14.6417783"><ele>565.0</ele><time>2026-04-25T11:05:08.385Z</time></trkpt><trkpt lat="41.09614" lon="14.6417033"><ele>564.9999999999999</ele><time>2026-04-25T11:05:09.384Z</time></trkpt><trkpt lat="41.0961017" lon="14.6416333"><ele>565.0</ele><time>2026-04-25T11:05:10.384Z</time></trkpt><trkpt lat="41.0960617" lon="14.6415667"><ele>565.0</ele><time>2026-04-25T11:05:11.383Z</time></trkpt><trkpt lat="41.0960217" lon="14.6414983"><ele>565.0</ele><time>2026-04-25T11:05:12.384Z</time></trkpt><trkpt lat="41.0959867" lon="14.6414233"><ele>565.0</ele><time>2026-04-25T11:05:13.383Z</time></trkpt><trkpt lat="41.0959617" lon="14.6413433"><ele>564.9999999999999</ele><time>2026-04-25T11:05:14.384Z</time></trkpt><trkpt lat="41.09595" lon="14.6412567"><ele>565.0</ele><time>2026-04-25T11:05:15.383Z</time></trkpt><trkpt lat="41.0959633" lon="14.64109"><ele>564.5</ele><time>2026-04-25T11:05:17.383Z</time></trkpt><trkpt lat="41.09599" lon="14.64101"><ele>564.0</ele><time>2026-04-25T11:05:18.385Z</time></trkpt><trkpt lat="41.0960867" lon="14.6409183"><ele>563.5</ele><time>2026-04-25T11:05:20.384Z</time></trkpt><trkpt lat="41.0961533" lon="14.640915"><ele>563.0</ele><time>2026-04-25T11:05:21.382Z</time></trkpt><trkpt lat="41.09628" lon="14.64093"><ele>562.5</ele><time>2026-04-25T11:05:23.384Z</time></trkpt><trkpt lat="41.0963417" lon="14.6409467"><ele>562.0</ele><time>2026-04-25T11:05:24.385Z</time></trkpt><trkpt lat="41.096405" lon="14.640965"><ele>562.0</ele><time>2026-04-25T11:05:25.385Z</time></trkpt><trkpt lat="41.096525" lon="14.6410017"><ele>562.0</ele><time>2026-04-25T11:05:27.383Z</time></trkpt><trkpt lat="41.0966467" lon="14.6410217"><ele>562.0</ele><time>2026-04-25T11:05:29.383Z</time></trkpt><trkpt lat="41.096765" lon="14.6410333"><ele>562.0</ele><time>2026-04-25T11:05:31.384Z</time></trkpt><trkpt lat="41.09688" lon="14.6410317"><ele>564.0</ele><time>2026-04-25T11:05:33.382Z</time></trkpt><trkpt lat="41.0969933" lon="14.64101"><ele>566.0</ele><time>2026-04-25T11:05:35.383Z</time></trkpt><trkpt lat="41.0971083" lon="14.6409817"><ele>568.0</ele><time>2026-04-25T11:05:37.383Z</time></trkpt><trkpt lat="41.0972183" lon="14.6409617"><ele>570.0</ele><time>2026-04-25T11:05:39.383Z</time></trkpt><trkpt lat="41.09733" lon="14.6409367"><ele>571.75</ele><time>2026-04-25T11:05:41.385Z</time></trkpt><trkpt lat="41.0974433" lon="14.6409083"><ele>573.5</ele><time>2026-04-25T11:05:43.383Z</time></trkpt><trkpt lat="41.0975567" lon="14.64088"><ele>575.25</ele><time>2026-04-25T11:05:45.383Z</time></trkpt><trkpt lat="41.09768" lon="14.6408533"><ele>577.0</ele><time>2026-04-25T11:05:47.383Z</time></trkpt><trkpt lat="41.0978033" lon="14.6408367"><ele>577.0</ele><time>2026-04-25T11:05:49.384Z</time></trkpt><trkpt lat="41.0978683" lon="14.6408283"><ele>577.0</ele><time>2026-04-25T11:05:50.385Z</time></trkpt><trkpt lat="41.0979317" lon="14.6408183"><ele>577.0</ele><time>2026-04-25T11:05:51.385Z</time></trkpt><trkpt lat="41.09805" lon="14.640795"><ele>577.0</ele><time>2026-04-25T11:05:53.384Z</time></trkpt><trkpt lat="41.0981717" lon="14.6407767"><ele>577.0</ele><time>2026-04-25T11:05:55.383Z</time></trkpt><trkpt lat="41.0982933" lon="14.6407517"><ele>577.25</ele><time>2026-04-25T11:05:57.383Z</time></trkpt><trkpt lat="41.09841" lon="14.6407233"><ele>577.5</ele><time>2026-04-25T11:05:59.383Z</time></trkpt><trkpt lat="41.0985283" lon="14.640695"><ele>577.75</ele><time>2026-04-25T11:06:01.383Z</time></trkpt><trkpt lat="41.0986483" lon="14.6406717"><ele>578.0</ele><time>2026-04-25T11:06:03.383Z</time></trkpt><trkpt lat="41.09876" lon="14.6406483"><ele>578.0</ele><time>2026-04-25T11:06:05.384Z</time></trkpt><trkpt lat="41.098865" lon="14.6406117"><ele>578.0</ele><time>2026-04-25T11:06:07.383Z</time></trkpt><trkpt lat="41.09897" lon="14.6405783"><ele>578.0</ele><time>2026-04-25T11:06:09.382Z</time></trkpt><trkpt lat="41.0990633" lon="14.6405333"><ele>578.0</ele><time>2026-04-25T11:06:11.383Z</time></trkpt><trkpt lat="41.09915" lon="14.6404667"><ele>578.0</ele><time>2026-04-25T11:06:13.384Z</time></trkpt><trkpt lat="41.09923" lon="14.6403783"><ele>579.4</ele><time>2026-04-25T11:06:15.383Z</time></trkpt><trkpt lat="41.09931" lon="14.64028"><ele>580.8</ele><time>2026-04-25T11:06:17.383Z</time></trkpt><trkpt lat="41.099385" lon="14.6401883"><ele>582.2</ele><time>2026-04-25T11:06:19.381Z</time></trkpt><trkpt lat="41.0994617" lon="14.6400933"><ele>583.6</ele><time>2026-04-25T11:06:21.383Z</time></trkpt><trkpt lat="41.0995333" lon="14.6399967"><ele>585.0</ele><time>2026-04-25T11:06:23.383Z</time></trkpt><trkpt lat="41.0996067" lon="14.6399033"><ele>585.0</ele><time>2026-04-25T11:06:25.384Z</time></trkpt><trkpt lat="41.0996783" lon="14.6398"><ele>585.0</ele><time>2026-04-25T11:06:27.383Z</time></trkpt><trkpt lat="41.0997533" lon="14.6396917"><ele>585.0</ele><time>2026-04-25T11:06:29.384Z</time></trkpt><trkpt lat="41.0998383" lon="14.6395867"><ele>585.0</ele><time>2026-04-25T11:06:31.383Z</time></trkpt><trkpt lat="41.0999183" lon="14.639485"><ele>585.0</ele><time>2026-04-25T11:06:33.384Z</time></trkpt><trkpt lat="41.1000033" lon="14.6393783"><ele>585.75</ele><time>2026-04-25T11:06:35.383Z</time></trkpt><trkpt lat="41.1000967" lon="14.6392933"><ele>586.5</ele><time>2026-04-25T11:06:37.383Z</time></trkpt><trkpt lat="41.100205" lon="14.6392317"><ele>587.25</ele><time>2026-04-25T11:06:39.383Z</time></trkpt><trkpt lat="41.1003233" lon="14.639185"><ele>588.0</ele><time>2026-04-25T11:06:41.382Z</time></trkpt><trkpt lat="41.100445" lon="14.6391683"><ele>588.0</ele><time>2026-04-25T11:06:43.383Z</time></trkpt><trkpt lat="41.1005617" lon="14.6391933"><ele>588.0</ele><time>2026-04-25T11:06:45.383Z</time></trkpt><trkpt lat="41.100675" lon="14.639235"><ele>588.0</ele><time>2026-04-25T11:06:47.384Z</time></trkpt><trkpt lat="41.10078" lon="14.6392867"><ele>588.0</ele><time>2026-04-25T11:06:49.383Z</time></trkpt><trkpt lat="41.1008683" lon="14.6393783"><ele>587.4</ele><time>2026-04-25T11:06:51.382Z</time></trkpt><trkpt lat="41.1009417" lon="14.6395"><ele>586.8</ele><time>2026-04-25T11:06:53.383Z</time></trkpt><trkpt lat="41.1009867" lon="14.63963"><ele>586.2</ele><time>2026-04-25T11:06:55.385Z</time></trkpt><trkpt lat="41.1010133" lon="14.6397667"><ele>585.6</ele><time>2026-04-25T11:06:57.384Z</time></trkpt><trkpt lat="41.101035" lon="14.6399067"><ele>585.0</ele><time>2026-04-25T11:06:59.384Z</time></trkpt><trkpt lat="41.101055" lon="14.6400383"><ele>585.0</ele><time>2026-04-25T11:07:01.384Z</time></trkpt><trkpt lat="41.1010667" lon="14.640165"><ele>585.0</ele><time>2026-04-25T11:07:03.383Z</time></trkpt><trkpt lat="41.10107" lon="14.6402833"><ele>585.0</ele><time>2026-04-25T11:07:05.384Z</time></trkpt><trkpt lat="41.1010767" lon="14.6404083"><ele>585.0</ele><time>2026-04-25T11:07:07.383Z</time></trkpt><trkpt lat="41.10108" lon="14.6405233"><ele>585.0</ele><time>2026-04-25T11:07:09.382Z</time></trkpt><trkpt lat="41.1010883" lon="14.6406333"><ele>585.0</ele><time>2026-04-25T11:07:11.384Z</time></trkpt><trkpt lat="41.1010717" lon="14.6407317"><ele>585.0</ele><time>2026-04-25T11:07:15.384Z</time></trkpt><trkpt lat="41.101075" lon="14.6408233"><ele>585.0</ele><time>2026-04-25T11:07:20.384Z</time></trkpt><trkpt lat="41.1010433" lon="14.64092"><ele>585.0</ele><time>2026-04-25T11:07:24.384Z</time></trkpt><trkpt lat="41.101045" lon="14.6410167"><ele>585.0</ele><time>2026-04-25T11:07:28.384Z</time></trkpt><trkpt lat="41.10108" lon="14.6410983"><ele>585.0</ele><time>2026-04-25T11:07:31.384Z</time></trkpt><trkpt lat="41.1011333" lon="14.6411633"><ele>585.0</ele><time>2026-04-25T11:07:34.384Z</time></trkpt><trkpt lat="41.10121" lon="14.6411933"><ele>583.8333333333334</ele><time>2026-04-25T11:07:37.383Z</time></trkpt><trkpt lat="41.1012733" lon="14.6411883"><ele>582.6666666666666</ele><time>2026-04-25T11:07:39.385Z</time></trkpt><trkpt lat="41.1013633" lon="14.6411867"><ele>581.5</ele><time>2026-04-25T11:07:42.384Z</time></trkpt><trkpt lat="41.1014367" lon="14.6411733"><ele>580.3333333333333</ele><time>2026-04-25T11:07:45.384Z</time></trkpt><trkpt lat="41.1015083" lon="14.6411367"><ele>579.1666666666666</ele><time>2026-04-25T11:07:48.385Z</time></trkpt><trkpt lat="41.1015833" lon="14.6410967"><ele>578.0</ele><time>2026-04-25T11:07:51.384Z</time></trkpt><trkpt lat="41.1016633" lon="14.641065"><ele>581.5</ele><time>2026-04-25T11:07:54.384Z</time></trkpt><trkpt lat="41.1017317" lon="14.6410283"><ele>585.0</ele><time>2026-04-25T11:07:57.383Z</time></trkpt><trkpt lat="41.1018" lon="14.64096"><ele>588.5</ele><time>2026-04-25T11:08:01.384Z</time></trkpt><trkpt lat="41.10185" lon="14.6408883"><ele>592.0</ele><time>2026-04-25T11:08:05.384Z</time></trkpt><trkpt lat="41.1019017" lon="14.64081"><ele>595.5</ele><time>2026-04-25T11:08:09.383Z</time></trkpt><trkpt lat="41.10193" lon="14.6407283"><ele>599.0</ele><time>2026-04-25T11:08:12.383Z</time></trkpt><trkpt lat="41.1019517" lon="14.6406367"><ele>599.0</ele><time>2026-04-25T11:08:15.382Z</time></trkpt><trkpt lat="41.101955" lon="14.640545"><ele>599.0</ele><time>2026-04-25T11:08:18.384Z</time></trkpt><trkpt lat="41.1019633" lon="14.6404317"><ele>599.0</ele><time>2026-04-25T11:08:22.382Z</time></trkpt><trkpt lat="41.1019633" lon="14.6403333"><ele>599.0</ele><time>2026-04-25T11:08:25.384Z</time></trkpt><trkpt lat="41.10197" lon="14.6402383"><ele>599.0</ele><time>2026-04-25T11:08:28.383Z</time></trkpt><trkpt lat="41.101995" lon="14.6401283"><ele>599.0</ele><time>2026-04-25T11:08:31.384Z</time></trkpt><trkpt lat="41.1020017" lon="14.6400133"><ele>599.4285714285714</ele><time>2026-04-25T11:08:34.382Z</time></trkpt><trkpt lat="41.102" lon="14.6399083"><ele>599.8571428571429</ele><time>2026-04-25T11:08:37.384Z</time></trkpt><trkpt lat="41.1020017" lon="14.6398233"><ele>600.2857142857142</ele><time>2026-04-25T11:08:40.381Z</time></trkpt><trkpt lat="41.1020067" lon="14.6397283"><ele>600.7142857142858</ele><time>2026-04-25T11:08:43.384Z</time></trkpt><trkpt lat="41.10202" lon="14.639625"><ele>601.1428571428571</ele><time>2026-04-25T11:08:46.385Z</time></trkpt><trkpt lat="41.1020617" lon="14.6395333"><ele>601.5714285714286</ele><time>2026-04-25T11:08:49.382Z</time></trkpt><trkpt lat="41.102105" lon="14.639455"><ele>602.0</ele><time>2026-04-25T11:08:52.383Z</time></trkpt><trkpt lat="41.1021567" lon="14.6394"><ele>602.1428571428571</ele><time>2026-04-25T11:08:55.384Z</time></trkpt><trkpt lat="41.102215" lon="14.6393633"><ele>602.2857142857142</ele><time>2026-04-25T11:08:58.384Z</time></trkpt><trkpt lat="41.1022917" lon="14.6393517"><ele>602.4285714285714</ele><time>2026-04-25T11:09:02.384Z</time></trkpt><trkpt lat="41.102365" lon="14.6394033"><ele>602.5714285714286</ele><time>2026-04-25T11:09:06.384Z</time></trkpt><trkpt lat="41.1024167" lon="14.6394517"><ele>602.7142857142857</ele><time>2026-04-25T11:09:09.384Z</time></trkpt><trkpt lat="41.1024433" lon="14.6395383"><ele>602.8571428571429</ele><time>2026-04-25T11:09:12.385Z</time></trkpt><trkpt lat="41.102475" lon="14.6396183"><ele>603.0</ele><time>2026-04-25T11:09:15.383Z</time></trkpt><trkpt lat="41.1025017" lon="14.6397167"><ele>605.3333333333334</ele><time>2026-04-25T11:09:18.384Z</time></trkpt><trkpt lat="41.1025183" lon="14.639815"><ele>607.6666666666666</ele><time>2026-04-25T11:09:21.382Z</time></trkpt><trkpt lat="41.10253" lon="14.63991"><ele>610.0</ele><time>2026-04-25T11:09:24.384Z</time></trkpt><trkpt lat="41.10256" lon="14.6400133"><ele>612.3333333333333</ele><time>2026-04-25T11:09:27.384Z</time></trkpt><trkpt lat="41.1025983" lon="14.6401183"><ele>614.6666666666666</ele><time>2026-04-25T11:09:30.382Z</time></trkpt><trkpt lat="41.1026517" lon="14.640215"><ele>617.0</ele><time>2026-04-25T11:09:33.385Z</time></trkpt><trkpt lat="41.1027083" lon="14.6402667"><ele>617.0</ele><time>2026-04-25T11:09:36.386Z</time></trkpt><trkpt lat="41.1027733" lon="14.64026"><ele>617.0</ele><time>2026-04-25T11:09:39.383Z</time></trkpt><trkpt lat="41.102845" lon="14.64024"><ele>617.0</ele><time>2026-04-25T11:09:43.383Z</time></trkpt><trkpt lat="41.1029117" lon="14.6401867"><ele>617.0</ele><time>2026-04-25T11:09:47.383Z</time></trkpt><trkpt lat="41.1029683" lon="14.64013"><ele>617.0</ele><time>2026-04-25T11:09:51.384Z</time></trkpt><trkpt lat="41.1029983" lon="14.640035"><ele>617.0</ele><time>2026-04-25T11:09:55.384Z</time></trkpt><trkpt lat="41.1030033" lon="14.63995"><ele>617.0</ele><time>2026-04-25T11:09:58.383Z</time></trkpt><trkpt lat="41.1030067" lon="14.639865"><ele>617.0</ele><time>2026-04-25T11:10:01.383Z</time></trkpt><trkpt lat="41.103025" lon="14.6397767"><ele>617.0</ele><time>2026-04-25T11:10:05.384Z</time></trkpt><trkpt lat="41.1030483" lon="14.6396933"><ele>617.0</ele><time>2026-04-25T11:10:08.382Z</time></trkpt><trkpt lat="41.1030917" lon="14.6396017"><ele>617.0</ele><time>2026-04-25T11:10:12.384Z</time></trkpt><trkpt lat="41.1031417" lon="14.6395433"><ele>617.0</ele><time>2026-04-25T11:10:15.383Z</time></trkpt><trkpt lat="41.10322" lon="14.6395117"><ele>617.0</ele><time>2026-04-25T11:10:19.383Z</time></trkpt><trkpt lat="41.1032867" lon="14.6395233"><ele>617.0</ele><time>2026-04-25T11:10:22.381Z</time></trkpt><trkpt lat="41.1033417" lon="14.63957"><ele>619.1428571428572</ele><time>2026-04-25T11:10:25.383Z</time></trkpt><trkpt lat="41.1033867" lon="14.639645"><ele>621.2857142857142</ele><time>2026-04-25T11:10:28.383Z</time></trkpt><trkpt lat="41.10341" lon="14.6397233"><ele>623.4285714285714</ele><time>2026-04-25T11:10:31.384Z</time></trkpt><trkpt lat="41.1034367" lon="14.6398117"><ele>625.5714285714287</ele><time>2026-04-25T11:10:34.384Z</time></trkpt><trkpt lat="41.10347" lon="14.6398967"><ele>627.7142857142858</ele><time>2026-04-25T11:10:37.382Z</time></trkpt><trkpt lat="41.10352" lon="14.6399833"><ele>629.8571428571429</ele><time>2026-04-25T11:10:40.383Z</time></trkpt><trkpt lat="41.1035817" lon="14.6400417"><ele>632.0</ele><time>2026-04-25T11:10:43.384Z</time></trkpt><trkpt lat="41.1036517" lon="14.6400867"><ele>632.0</ele><time>2026-04-25T11:10:46.383Z</time></trkpt><trkpt lat="41.1037283" lon="14.6401067"><ele>632.0</ele><time>2026-04-25T11:10:49.382Z</time></trkpt><trkpt lat="41.103805" lon="14.6401033"><ele>632.0</ele><time>2026-04-25T11:10:52.384Z</time></trkpt><trkpt lat="41.1038767" lon="14.6400733"><ele>632.0</ele><time>2026-04-25T11:10:55.382Z</time></trkpt><trkpt lat="41.1039383" lon="14.6400133"><ele>632.0</ele><time>2026-04-25T11:10:58.384Z</time></trkpt><trkpt lat="41.1039917" lon="14.6399217"><ele>632.0</ele><time>2026-04-25T11:11:01.383Z</time></trkpt><trkpt lat="41.1040333" lon="14.6398267"><ele>632.0</ele><time>2026-04-25T11:11:04.385Z</time></trkpt><trkpt lat="41.1040533" lon="14.6397283"><ele>632.0</ele><time>2026-04-25T11:11:07.386Z</time></trkpt><trkpt lat="41.1040733" lon="14.63962"><ele>632.0</ele><time>2026-04-25T11:11:10.381Z</time></trkpt><trkpt lat="41.1040883" lon="14.639515"><ele>632.0</ele><time>2026-04-25T11:11:13.384Z</time></trkpt><trkpt lat="41.1041" lon="14.63941"><ele>632.0</ele><time>2026-04-25T11:11:16.384Z</time></trkpt><trkpt lat="41.1041167" lon="14.6392983"><ele>632.0</ele><time>2026-04-25T11:11:19.382Z</time></trkpt><trkpt lat="41.10414" lon="14.6391967"><ele>633.5714285714287</ele><time>2026-04-25T11:11:22.382Z</time></trkpt><trkpt lat="41.1041433" lon="14.63909"><ele>635.1428571428571</ele><time>2026-04-25T11:11:25.383Z</time></trkpt><trkpt lat="41.10414" lon="14.639"><ele>636.7142857142858</ele><time>2026-04-25T11:11:28.384Z</time></trkpt><trkpt lat="41.1041483" lon="14.6388917"><ele>638.2857142857143</ele><time>2026-04-25T11:11:31.384Z</time></trkpt><trkpt lat="41.1041567" lon="14.638795"><ele>639.8571428571429</ele><time>2026-04-25T11:11:34.38Z</time></trkpt><trkpt lat="41.1041333" lon="14.638695"><ele>641.4285714285714</ele><time>2026-04-25T11:11:38.383Z</time></trkpt><trkpt lat="41.1041167" lon="14.6386133"><ele>643.0</ele><time>2026-04-25T11:11:42.382Z</time></trkpt><trkpt lat="41.1041267" lon="14.6385233"><ele>644.1428571428571</ele><time>2026-04-25T11:11:46.382Z</time></trkpt><trkpt lat="41.1041083" lon="14.638415"><ele>645.2857142857143</ele><time>2026-04-25T11:11:50.382Z</time></trkpt><trkpt lat="41.104105" lon="14.6383267"><ele>646.4285714285714</ele><time>2026-04-25T11:11:53.382Z</time></trkpt><trkpt lat="41.1041033" lon="14.638235"><ele>647.5714285714286</ele><time>2026-04-25T11:11:56.384Z</time></trkpt><trkpt lat="41.10411" lon="14.6381367"><ele>648.7142857142858</ele><time>2026-04-25T11:11:59.382Z</time></trkpt><trkpt lat="41.1041233" lon="14.63804"><ele>649.8571428571429</ele><time>2026-04-25T11:12:02.384Z</time></trkpt><trkpt lat="41.10414" lon="14.6379467"><ele>651.0</ele><time>2026-04-25T11:12:05.382Z</time></trkpt><trkpt lat="41.1041483" lon="14.63783"><ele>651.7142857142857</ele><time>2026-04-25T11:12:08.381Z</time></trkpt><trkpt lat="41.1041483" lon="14.6377317"><ele>652.4285714285714</ele><time>2026-04-25T11:12:11.382Z</time></trkpt><trkpt lat="41.1041433" lon="14.637645"><ele>653.1428571428571</ele><time>2026-04-25T11:12:14.384Z</time></trkpt><trkpt lat="41.1041517" lon="14.6375483"><ele>653.8571428571429</ele><time>2026-04-25T11:12:17.382Z</time></trkpt><trkpt lat="41.1041417" lon="14.637465"><ele>654.5714285714286</ele><time>2026-04-25T11:12:20.381Z</time></trkpt><trkpt lat="41.1041367" lon="14.6373767"><ele>655.2857142857142</ele><time>2026-04-25T11:12:23.383Z</time></trkpt><trkpt lat="41.10414" lon="14.637285"><ele>656.0</ele><time>2026-04-25T11:12:27.381Z</time></trkpt><trkpt lat="41.1041367" lon="14.6371983"><ele>655.9999999999999</ele><time>2026-04-25T11:12:30.383Z</time></trkpt><trkpt lat="41.1041333" lon="14.6371117"><ele>656.0</ele><time>2026-04-25T11:12:33.382Z</time></trkpt><trkpt lat="41.1041317" lon="14.6370233"><ele>656.0</ele><time>2026-04-25T11:12:36.384Z</time></trkpt><trkpt lat="41.1041283" lon="14.636915"><ele>656.0</ele><time>2026-04-25T11:12:40.382Z</time></trkpt><trkpt lat="41.10413" lon="14.63681"><ele>656.0</ele><time>2026-04-25T11:12:43.383Z</time></trkpt><trkpt lat="41.1041367" lon="14.6367267"><ele>655.9999999999999</ele><time>2026-04-25T11:12:46.382Z</time></trkpt><trkpt lat="41.10412" lon="14.6366183"><ele>656.0</ele><time>2026-04-25T11:12:50.383Z</time></trkpt><trkpt lat="41.10411" lon="14.63653"><ele>656.5714285714286</ele><time>2026-04-25T11:12:53.384Z</time></trkpt><trkpt lat="41.1041017" lon="14.6364317"><ele>657.1428571428571</ele><time>2026-04-25T11:12:56.384Z</time></trkpt><trkpt lat="41.1040983" lon="14.636345"><ele>657.7142857142858</ele><time>2026-04-25T11:12:59.382Z</time></trkpt><trkpt lat="41.104085" lon="14.63626"><ele>658.2857142857142</ele><time>2026-04-25T11:13:02.384Z</time></trkpt><trkpt lat="41.1040833" lon="14.6361667"><ele>658.8571428571429</ele><time>2026-04-25T11:13:05.383Z</time></trkpt><trkpt lat="41.104075" lon="14.63607"><ele>659.4285714285714</ele><time>2026-04-25T11:13:08.384Z</time></trkpt><trkpt lat="41.1040767" lon="14.635975"><ele>660.0</ele><time>2026-04-25T11:13:11.383Z</time></trkpt><trkpt lat="41.10407" lon="14.6358733"><ele>660.0</ele><time>2026-04-25T11:13:14.382Z</time></trkpt><trkpt lat="41.1040617" lon="14.63578"><ele>660.0</ele><time>2026-04-25T11:13:17.383Z</time></trkpt><trkpt lat="41.10404" lon="14.635695"><ele>660.0</ele><time>2026-04-25T11:13:20.383Z</time></trkpt><trkpt lat="41.1040217" lon="14.635605"><ele>660.0</ele><time>2026-04-25T11:13:23.383Z</time></trkpt><trkpt lat="41.103985" lon="14.6355033"><ele>660.0</ele><time>2026-04-25T11:13:26.384Z</time></trkpt><trkpt lat="41.1039333" lon="14.6354233"><ele>660.0</ele><time>2026-04-25T11:13:29.385Z</time></trkpt><trkpt lat="41.1038717" lon="14.63535"><ele>662.5</ele><time>2026-04-25T11:13:32.384Z</time></trkpt><trkpt lat="41.1038117" lon="14.635275"><ele>665.0</ele><time>2026-04-25T11:13:35.381Z</time></trkpt><trkpt lat="41.1037583" lon="14.6352267"><ele>667.5</ele><time>2026-04-25T11:13:37.383Z</time></trkpt><trkpt lat="41.1036817" lon="14.6351583"><ele>670.0</ele><time>2026-04-25T11:13:40.382Z</time></trkpt><trkpt lat="41.1035967" lon="14.6351083"><ele>672.5</ele><time>2026-04-25T11:13:43.383Z</time></trkpt><trkpt lat="41.1035133" lon="14.6350517"><ele>675.0</ele><time>2026-04-25T11:13:46.382Z</time></trkpt><trkpt lat="41.1034517" lon="14.635015"><ele>675.0</ele><time>2026-04-25T11:13:48.383Z</time></trkpt><trkpt lat="41.1033817" lon="14.6349783"><ele>675.0</ele><time>2026-04-25T11:13:50.384Z</time></trkpt><trkpt lat="41.103315" lon="14.634945"><ele>675.0</ele><time>2026-04-25T11:13:52.382Z</time></trkpt><trkpt lat="41.103235" lon="14.63492"><ele>675.0</ele><time>2026-04-25T11:13:54.383Z</time></trkpt><trkpt lat="41.103165" lon="14.634885"><ele>675.0</ele><time>2026-04-25T11:13:56.383Z</time></trkpt><trkpt lat="41.10309" lon="14.6348517"><ele>675.0</ele><time>2026-04-25T11:13:58.382Z</time></trkpt><trkpt lat="41.1030133" lon="14.6348233"><ele>674.4285714285714</ele><time>2026-04-25T11:14:00.382Z</time></trkpt><trkpt lat="41.102945" lon="14.6347883"><ele>673.8571428571429</ele><time>2026-04-25T11:14:02.382Z</time></trkpt><trkpt lat="41.1028833" lon="14.6347483"><ele>673.2857142857142</ele><time>2026-04-25T11:14:04.382Z</time></trkpt><trkpt lat="41.1028183" lon="14.634705"><ele>672.7142857142858</ele><time>2026-04-25T11:14:06.383Z</time></trkpt><trkpt lat="41.1027483" lon="14.6346583"><ele>672.1428571428572</ele><time>2026-04-25T11:14:08.384Z</time></trkpt><trkpt lat="41.102685" lon="14.6346183"><ele>671.5714285714286</ele><time>2026-04-25T11:14:10.382Z</time></trkpt><trkpt lat="41.1026167" lon="14.6345817"><ele>671.0</ele><time>2026-04-25T11:14:12.383Z</time></trkpt><trkpt lat="41.102555" lon="14.63453"><ele>671.0</ele><time>2026-04-25T11:14:14.384Z</time></trkpt><trkpt lat="41.1024933" lon="14.6344883"><ele>671.0</ele><time>2026-04-25T11:14:16.381Z</time></trkpt><trkpt lat="41.1024317" lon="14.6344417"><ele>671.0</ele><time>2026-04-25T11:14:18.384Z</time></trkpt><trkpt lat="41.1023767" lon="14.6343933"><ele>671.0</ele><time>2026-04-25T11:14:20.382Z</time></trkpt><trkpt lat="41.1023183" lon="14.63435"><ele>671.0</ele><time>2026-04-25T11:14:22.381Z</time></trkpt><trkpt lat="41.1022467" lon="14.63432"><ele>671.0</ele><time>2026-04-25T11:14:24.384Z</time></trkpt><trkpt lat="41.1021767" lon="14.6342833"><ele>671.0</ele><time>2026-04-25T11:14:26.382Z</time></trkpt><trkpt lat="41.1020983" lon="14.63425"><ele>672.0</ele><time>2026-04-25T11:14:29.383Z</time></trkpt><trkpt lat="41.1020217" lon="14.6342117"><ele>673.0</ele><time>2026-04-25T11:14:32.384Z</time></trkpt><trkpt lat="41.1019667" lon="14.6341683"><ele>674.0</ele><time>2026-04-25T11:14:34.383Z</time></trkpt><trkpt lat="41.10191" lon="14.634115"><ele>675.0</ele><time>2026-04-25T11:14:36.384Z</time></trkpt><trkpt lat="41.1018667" lon="14.6340417"><ele>676.0</ele><time>2026-04-25T11:14:38.384Z</time></trkpt><trkpt lat="41.1018333" lon="14.63396"><ele>677.0</ele><time>2026-04-25T11:14:40.383Z</time></trkpt><trkpt lat="41.1018083" lon="14.6338783"><ele>678.0</ele><time>2026-04-25T11:14:42.385Z</time></trkpt><trkpt lat="41.1017767" lon="14.6337883"><ele>678.0</ele><time>2026-04-25T11:14:44.384Z</time></trkpt><trkpt lat="41.10175" lon="14.6337083"><ele>678.0</ele><time>2026-04-25T11:14:46.383Z</time></trkpt><trkpt lat="41.101745" lon="14.633595"><ele>678.0</ele><time>2026-04-25T11:14:49.384Z</time></trkpt><trkpt lat="41.101755" lon="14.6334883"><ele>678.0</ele><time>2026-04-25T11:14:52.384Z</time></trkpt><trkpt lat="41.1017767" lon="14.6333867"><ele>678.0</ele><time>2026-04-25T11:14:55.383Z</time></trkpt><trkpt lat="41.1018" lon="14.6332867"><ele>678.0</ele><time>2026-04-25T11:14:58.383Z</time></trkpt><trkpt lat="41.10183" lon="14.6331967"><ele>679.5714285714286</ele><time>2026-04-25T11:15:01.384Z</time></trkpt><trkpt lat="41.1018483" lon="14.6331033"><ele>681.1428571428572</ele><time>2026-04-25T11:15:04.382Z</time></trkpt><trkpt lat="41.1018667" lon="14.633015"><ele>682.7142857142858</ele><time>2026-04-25T11:15:07.382Z</time></trkpt><trkpt lat="41.1018833" lon="14.63292"><ele>684.2857142857142</ele><time>2026-04-25T11:15:10.382Z</time></trkpt><trkpt lat="41.1019117" lon="14.632825"><ele>685.8571428571429</ele><time>2026-04-25T11:15:13.382Z</time></trkpt><trkpt lat="41.1019433" lon="14.6327383"><ele>687.4285714285714</ele><time>2026-04-25T11:15:16.383Z</time></trkpt><trkpt lat="41.1019767" lon="14.632645"><ele>689.0</ele><time>2026-04-25T11:15:19.383Z</time></trkpt><trkpt lat="41.10201" lon="14.6325583"><ele>689.1428571428571</ele><time>2026-04-25T11:15:22.381Z</time></trkpt><trkpt lat="41.1020383" lon="14.6324833"><ele>689.2857142857143</ele><time>2026-04-25T11:15:25.384Z</time></trkpt><trkpt lat="41.1020967" lon="14.6324083"><ele>689.4285714285714</ele><time>2026-04-25T11:15:29.384Z</time></trkpt><trkpt lat="41.1021467" lon="14.6323517"><ele>689.5714285714286</ele><time>2026-04-25T11:15:32.383Z</time></trkpt><trkpt lat="41.1022083" lon="14.632285"><ele>689.7142857142857</ele><time>2026-04-25T11:15:36.384Z</time></trkpt><trkpt lat="41.1022417" lon="14.6322067"><ele>689.8571428571429</ele><time>2026-04-25T11:15:39.382Z</time></trkpt><trkpt lat="41.10226" lon="14.6321267"><ele>690.0</ele><time>2026-04-25T11:15:42.383Z</time></trkpt><trkpt lat="41.1022683" lon="14.6320183"><ele>690.0</ele><time>2026-04-25T11:15:46.384Z</time></trkpt><trkpt lat="41.1022733" lon="14.6319133"><ele>690.0</ele><time>2026-04-25T11:15:50.383Z</time></trkpt><trkpt lat="41.102295" lon="14.63181"><ele>690.0</ele><time>2026-04-25T11:15:54.383Z</time></trkpt><trkpt lat="41.1022833" lon="14.6317217"><ele>690.0</ele><time>2026-04-25T11:15:57.382Z</time></trkpt><trkpt lat="41.1022633" lon="14.6316033"><ele>690.0</ele><time>2026-04-25T11:16:00.383Z</time></trkpt><trkpt lat="41.1022333" lon="14.631495"><ele>690.0</ele><time>2026-04-25T11:16:03.381Z</time></trkpt><trkpt lat="41.102205" lon="14.6314067"><ele>690.0</ele><time>2026-04-25T11:16:06.381Z</time></trkpt><trkpt lat="41.1021633" lon="14.6313167"><ele>690.0</ele><time>2026-04-25T11:16:09.383Z</time></trkpt><trkpt lat="41.102105" lon="14.6312467"><ele>690.0</ele><time>2026-04-25T11:16:12.382Z</time></trkpt><trkpt lat="41.1020867" lon="14.6311617"><ele>690.0</ele><time>2026-04-25T11:16:14.382Z</time></trkpt><trkpt lat="41.10204" lon="14.631095"><ele>690.0</ele><time>2026-04-25T11:16:17.382Z</time></trkpt><trkpt lat="41.102" lon="14.63103"><ele>690.0</ele><time>2026-04-25T11:16:19.382Z</time></trkpt><trkpt lat="41.1019317" lon="14.6309633"><ele>690.0</ele><time>2026-04-25T11:16:22.383Z</time></trkpt><trkpt lat="41.1018633" lon="14.6308967"><ele>692.3333333333334</ele><time>2026-04-25T11:16:25.384Z</time></trkpt><trkpt lat="41.1017933" lon="14.630825"><ele>694.6666666666666</ele><time>2026-04-25T11:16:28.383Z</time></trkpt><trkpt lat="41.1017333" lon="14.6307367"><ele>697.0</ele><time>2026-04-25T11:16:31.382Z</time></trkpt><trkpt lat="41.10169" lon="14.6306717"><ele>699.3333333333333</ele><time>2026-04-25T11:16:33.383Z</time></trkpt><trkpt lat="41.1016433" lon="14.6305783"><ele>701.6666666666666</ele><time>2026-04-25T11:16:36.382Z</time></trkpt><trkpt lat="41.1016067" lon="14.630475"><ele>704.0</ele><time>2026-04-25T11:16:39.383Z</time></trkpt><trkpt lat="41.1015933" lon="14.63036"><ele>705.1666666666666</ele><time>2026-04-25T11:16:42.384Z</time></trkpt><trkpt lat="41.1015883" lon="14.630275"><ele>706.3333333333333</ele><time>2026-04-25T11:16:44.384Z</time></trkpt><trkpt lat="41.1016033" lon="14.6301617"><ele>707.5</ele><time>2026-04-25T11:16:47.383Z</time></trkpt><trkpt lat="41.101635" lon="14.63007"><ele>708.6666666666666</ele><time>2026-04-25T11:16:50.384Z</time></trkpt><trkpt lat="41.101675" lon="14.6299783"><ele>709.8333333333334</ele><time>2026-04-25T11:16:53.384Z</time></trkpt><trkpt lat="41.1017033" lon="14.6298983"><ele>711.0</ele><time>2026-04-25T11:16:55.383Z</time></trkpt><trkpt lat="41.1017367" lon="14.62979"><ele>711.0</ele><time>2026-04-25T11:16:58.382Z</time></trkpt><trkpt lat="41.1017467" lon="14.6297033"><ele>711.0</ele><time>2026-04-25T11:17:01.382Z</time></trkpt><trkpt lat="41.1017517" lon="14.6295983"><ele>711.0</ele><time>2026-04-25T11:17:04.382Z</time></trkpt><trkpt lat="41.1017617" lon="14.6294783"><ele>711.0</ele><time>2026-04-25T11:17:07.382Z</time></trkpt><trkpt lat="41.1017633" lon="14.6293667"><ele>711.0</ele><time>2026-04-25T11:17:10.381Z</time></trkpt><trkpt lat="41.10177" lon="14.6292483"><ele>711.0</ele><time>2026-04-25T11:17:13.382Z</time></trkpt><trkpt lat="41.1017817" lon="14.6291583"><ele>711.5</ele><time>2026-04-25T11:17:16.383Z</time></trkpt><trkpt lat="41.1018" lon="14.6290717"><ele>712.0</ele><time>2026-04-25T11:17:19.382Z</time></trkpt><trkpt lat="41.1018283" lon="14.6289633"><ele>712.5</ele><time>2026-04-25T11:17:22.382Z</time></trkpt><trkpt lat="41.101855" lon="14.6288433"><ele>713.0</ele><time>2026-04-25T11:17:25.382Z</time></trkpt><trkpt lat="41.1018717" lon="14.62876"><ele>713.5</ele><time>2026-04-25T11:17:27.383Z</time></trkpt><trkpt lat="41.1018817" lon="14.6286417"><ele>714.0</ele><time>2026-04-25T11:17:30.384Z</time></trkpt><trkpt lat="41.1018817" lon="14.6285483"><ele>715.1666666666666</ele><time>2026-04-25T11:17:32.384Z</time></trkpt><trkpt lat="41.1018933" lon="14.6284317"><ele>716.3333333333334</ele><time>2026-04-25T11:17:35.383Z</time></trkpt><trkpt lat="41.1018917" lon="14.6283067"><ele>717.5</ele><time>2026-04-25T11:17:38.384Z</time></trkpt><trkpt lat="41.1018633" lon="14.6281967"><ele>718.6666666666667</ele><time>2026-04-25T11:17:41.383Z</time></trkpt><trkpt lat="41.1018367" lon="14.6281183"><ele>719.8333333333334</ele><time>2026-04-25T11:17:43.382Z</time></trkpt><trkpt lat="41.1018" lon="14.6280367"><ele>721.0</ele><time>2026-04-25T11:17:45.384Z</time></trkpt><trkpt lat="41.1017517" lon="14.6279717"><ele>721.0</ele><time>2026-04-25T11:17:47.383Z</time></trkpt><trkpt lat="41.101675" lon="14.6279167"><ele>721.0</ele><time>2026-04-25T11:17:50.384Z</time></trkpt><trkpt lat="41.101615" lon="14.6278867"><ele>721.0</ele><time>2026-04-25T11:17:52.381Z</time></trkpt><trkpt lat="41.1015533" lon="14.6278533"><ele>721.0</ele><time>2026-04-25T11:17:54.384Z</time></trkpt><trkpt lat="41.1014917" lon="14.6278017"><ele>721.0</ele><time>2026-04-25T11:17:57.384Z</time></trkpt><trkpt lat="41.10146" lon="14.6277217"><ele>721.0</ele><time>2026-04-25T11:18:00.384Z</time></trkpt><trkpt lat="41.1014383" lon="14.6276333"><ele>721.0</ele><time>2026-04-25T11:18:03.384Z</time></trkpt><trkpt lat="41.1014167" lon="14.627545"><ele>720.5714285714286</ele><time>2026-04-25T11:18:07.382Z</time></trkpt><trkpt lat="41.1014233" lon="14.6274433"><ele>720.1428571428571</ele><time>2026-04-25T11:18:11.382Z</time></trkpt><trkpt lat="41.1014433" lon="14.6273417"><ele>719.7142857142858</ele><time>2026-04-25T11:18:14.383Z</time></trkpt><trkpt lat="41.1014517" lon="14.6272517"><ele>719.2857142857142</ele><time>2026-04-25T11:18:17.382Z</time></trkpt><trkpt lat="41.1014717" lon="14.6271667"><ele>718.8571428571429</ele><time>2026-04-25T11:18:20.384Z</time></trkpt><trkpt lat="41.1014967" lon="14.627075"><ele>718.4285714285714</ele><time>2026-04-25T11:18:24.382Z</time></trkpt><trkpt lat="41.1015233" lon="14.62699"><ele>718.0</ele><time>2026-04-25T11:18:28.38Z</time></trkpt><trkpt lat="41.10154" lon="14.626905"><ele>718.0</ele><time>2026-04-25T11:18:31.382Z</time></trkpt><trkpt lat="41.1015583" lon="14.6268083"><ele>718.0</ele><time>2026-04-25T11:18:34.381Z</time></trkpt><trkpt lat="41.1015767" lon="14.6267183"><ele>718.0</ele><time>2026-04-25T11:18:37.383Z</time></trkpt><trkpt lat="41.1016017" lon="14.62661"><ele>718.0</ele><time>2026-04-25T11:18:40.382Z</time></trkpt><trkpt lat="41.1016217" lon="14.6265083"><ele>718.0</ele><time>2026-04-25T11:18:43.383Z</time></trkpt><trkpt lat="41.10163" lon="14.62642"><ele>718.0</ele><time>2026-04-25T11:18:46.381Z</time></trkpt><trkpt lat="41.1016433" lon="14.62632"><ele>720.5714285714286</ele><time>2026-04-25T11:18:49.384Z</time></trkpt><trkpt lat="41.1016517" lon="14.6262333"><ele>723.1428571428571</ele><time>2026-04-25T11:18:52.383Z</time></trkpt><trkpt lat="41.1016633" lon="14.6261183"><ele>725.7142857142858</ele><time>2026-04-25T11:18:55.381Z</time></trkpt><trkpt lat="41.1016567" lon="14.6260333"><ele>728.2857142857142</ele><time>2026-04-25T11:18:58.384Z</time></trkpt><trkpt lat="41.1016717" lon="14.6259517"><ele>730.8571428571428</ele><time>2026-04-25T11:19:01.384Z</time></trkpt><trkpt lat="41.1017033" lon="14.62587"><ele>733.4285714285714</ele><time>2026-04-25T11:19:04.384Z</time></trkpt><trkpt lat="41.101765" lon="14.625825"><ele>736.0</ele><time>2026-04-25T11:19:08.382Z</time></trkpt><trkpt lat="41.1018283" lon="14.6257833"><ele>736.0</ele><time>2026-04-25T11:19:12.383Z</time></trkpt><trkpt lat="41.1019017" lon="14.6258217"><ele>736.0</ele><time>2026-04-25T11:19:16.383Z</time></trkpt><trkpt lat="41.1019533" lon="14.625885"><ele>736.0</ele><time>2026-04-25T11:19:19.383Z</time></trkpt><trkpt lat="41.101985" lon="14.6259617"><ele>736.0</ele><time>2026-04-25T11:19:22.384Z</time></trkpt><trkpt lat="41.1020283" lon="14.6260417"><ele>736.0</ele><time>2026-04-25T11:19:26.384Z</time></trkpt><trkpt lat="41.1020583" lon="14.62613"><ele>736.0</ele><time>2026-04-25T11:19:30.384Z</time></trkpt><trkpt lat="41.1020867" lon="14.6262133"><ele>736.0</ele><time>2026-04-25T11:19:33.383Z</time></trkpt><trkpt lat="41.1021217" lon="14.62629"><ele>736.0</ele><time>2026-04-25T11:19:36.383Z</time></trkpt><trkpt lat="41.1021567" lon="14.6263717"><ele>736.0</ele><time>2026-04-25T11:19:39.381Z</time></trkpt><trkpt lat="41.1022033" lon="14.6264433"><ele>736.0</ele><time>2026-04-25T11:19:44.382Z</time></trkpt><trkpt lat="41.1022817" lon="14.6264733"><ele>736.0</ele><time>2026-04-25T11:19:48.384Z</time></trkpt><trkpt lat="41.102345" lon="14.6265183"><ele>736.0</ele><time>2026-04-25T11:19:52.382Z</time></trkpt><trkpt lat="41.1024033" lon="14.6265517"><ele>736.0</ele><time>2026-04-25T11:19:56.384Z</time></trkpt><trkpt lat="41.1024583" lon="14.6266183"><ele>736.0</ele><time>2026-04-25T11:20:00.385Z</time></trkpt><trkpt lat="41.1025067" lon="14.6266783"><ele>738.0</ele><time>2026-04-25T11:20:03.383Z</time></trkpt><trkpt lat="41.1025683" lon="14.6267367"><ele>740.0</ele><time>2026-04-25T11:20:07.382Z</time></trkpt><trkpt lat="41.10263" lon="14.62677"><ele>742.0</ele><time>2026-04-25T11:20:11.383Z</time></trkpt><trkpt lat="41.1027067" lon="14.626765"><ele>744.0</ele><time>2026-04-25T11:20:14.384Z</time></trkpt><trkpt lat="41.1027783" lon="14.6267467"><ele>746.0</ele><time>2026-04-25T11:20:17.382Z</time></trkpt><trkpt lat="41.10285" lon="14.6267333"><ele>748.0</ele><time>2026-04-25T11:20:21.383Z</time></trkpt><trkpt lat="41.1028983" lon="14.6266583"><ele>750.0</ele><time>2026-04-25T11:20:26.384Z</time></trkpt><trkpt lat="41.1029417" lon="14.6265833"><ele>750.0</ele><time>2026-04-25T11:20:31.384Z</time></trkpt><trkpt lat="41.1029933" lon="14.6265133"><ele>750.0</ele><time>2026-04-25T11:20:35.383Z</time></trkpt><trkpt lat="41.1030367" lon="14.6264333"><ele>750.0</ele><time>2026-04-25T11:20:38.384Z</time></trkpt><trkpt lat="41.1030833" lon="14.6263683"><ele>750.0</ele><time>2026-04-25T11:20:41.382Z</time></trkpt><trkpt lat="41.1031267" lon="14.62627"><ele>750.0</ele><time>2026-04-25T11:20:44.384Z</time></trkpt><trkpt lat="41.1031483" lon="14.62619"><ele>750.0</ele><time>2026-04-25T11:20:46.384Z</time></trkpt><trkpt lat="41.1031783" lon="14.626085"><ele>750.5</ele><time>2026-04-25T11:20:49.382Z</time></trkpt><trkpt lat="41.1032017" lon="14.6259667"><ele>751.0</ele><time>2026-04-25T11:20:52.382Z</time></trkpt><trkpt lat="41.103205" lon="14.6258567"><ele>751.5</ele><time>2026-04-25T11:20:55.383Z</time></trkpt><trkpt lat="41.1032167" lon="14.6257333"><ele>752.0</ele><time>2026-04-25T11:20:58.382Z</time></trkpt><trkpt lat="41.1032117" lon="14.62565"><ele>752.5</ele><time>2026-04-25T11:21:00.382Z</time></trkpt><trkpt lat="41.103195" lon="14.6255583"><ele>753.0</ele><time>2026-04-25T11:21:02.383Z</time></trkpt><trkpt lat="41.1031783" lon="14.6254717"><ele>753.0</ele><time>2026-04-25T11:21:04.383Z</time></trkpt><trkpt lat="41.1031583" lon="14.6253467"><ele>753.0</ele><time>2026-04-25T11:21:07.383Z</time></trkpt><trkpt lat="41.1031483" lon="14.6252467"><ele>753.0</ele><time>2026-04-25T11:21:09.383Z</time></trkpt><trkpt lat="41.1031383" lon="14.62515"><ele>753.0</ele><time>2026-04-25T11:21:11.382Z</time></trkpt><trkpt lat="41.103125" lon="14.6250617"><ele>753.0</ele><time>2026-04-25T11:21:13.383Z</time></trkpt><trkpt lat="41.1031" lon="14.6249733"><ele>753.0</ele><time>2026-04-25T11:21:15.382Z</time></trkpt><trkpt lat="41.1030717" lon="14.6248867"><ele>753.1428571428571</ele><time>2026-04-25T11:21:17.383Z</time></trkpt><trkpt lat="41.103045" lon="14.6247933"><ele>753.2857142857143</ele><time>2026-04-25T11:21:19.382Z</time></trkpt><trkpt lat="41.1030183" lon="14.6246967"><ele>753.4285714285713</ele><time>2026-04-25T11:21:21.382Z</time></trkpt><trkpt lat="41.1029967" lon="14.6246033"><ele>753.5714285714286</ele><time>2026-04-25T11:21:23.384Z</time></trkpt><trkpt lat="41.1029833" lon="14.6245117"><ele>753.7142857142857</ele><time>2026-04-25T11:21:25.383Z</time></trkpt><trkpt lat="41.1029817" lon="14.6244267"><ele>753.8571428571428</ele><time>2026-04-25T11:21:27.383Z</time></trkpt><trkpt lat="41.102965" lon="14.624315"><ele>754.0</ele><time>2026-04-25T11:21:30.382Z</time></trkpt><trkpt lat="41.1029433" lon="14.6242083"><ele>755.3333333333334</ele><time>2026-04-25T11:21:33.382Z</time></trkpt><trkpt lat="41.1029183" lon="14.6241"><ele>756.6666666666667</ele><time>2026-04-25T11:21:36.383Z</time></trkpt><trkpt lat="41.1028967" lon="14.6239917"><ele>758.0</ele><time>2026-04-25T11:21:40.381Z</time></trkpt><trkpt lat="41.1028817" lon="14.6238967"><ele>759.3333333333334</ele><time>2026-04-25T11:21:44.383Z</time></trkpt><trkpt lat="41.1028717" lon="14.623795"><ele>760.6666666666666</ele><time>2026-04-25T11:21:48.383Z</time></trkpt><trkpt lat="41.102855" lon="14.62371"><ele>762.0</ele><time>2026-04-25T11:21:51.381Z</time></trkpt><trkpt lat="41.1028483" lon="14.6236017"><ele>763.5714285714286</ele><time>2026-04-25T11:21:54.383Z</time></trkpt><trkpt lat="41.1028533" lon="14.6234983"><ele>765.1428571428572</ele><time>2026-04-25T11:21:58.382Z</time></trkpt><trkpt lat="41.102865" lon="14.6234133"><ele>766.7142857142858</ele><time>2026-04-25T11:22:01.38Z</time></trkpt><trkpt lat="41.1029183" lon="14.6233367"><ele>768.2857142857142</ele><time>2026-04-25T11:22:05.381Z</time></trkpt><trkpt lat="41.1029617" lon="14.6232667"><ele>769.8571428571429</ele><time>2026-04-25T11:22:08.383Z</time></trkpt><trkpt lat="41.1030167" lon="14.62321"><ele>771.4285714285714</ele><time>2026-04-25T11:22:11.381Z</time></trkpt><trkpt lat="41.103075" lon="14.6231767"><ele>773.0</ele><time>2026-04-25T11:22:14.383Z</time></trkpt><trkpt lat="41.103135" lon="14.62314"><ele>773.0</ele><time>2026-04-25T11:22:18.382Z</time></trkpt><trkpt lat="41.1032017" lon="14.6231017"><ele>773.0</ele><time>2026-04-25T11:22:22.383Z</time></trkpt><trkpt lat="41.10327" lon="14.6230617"><ele>773.0</ele><time>2026-04-25T11:22:26.382Z</time></trkpt><trkpt lat="41.1033267" lon="14.62301"><ele>773.0</ele><time>2026-04-25T11:22:29.382Z</time></trkpt><trkpt lat="41.1033867" lon="14.622955"><ele>773.0</ele><time>2026-04-25T11:22:32.382Z</time></trkpt><trkpt lat="41.103435" lon="14.622895"><ele>773.0</ele><time>2026-04-25T11:22:35.382Z</time></trkpt><trkpt lat="41.103495" lon="14.6228233"><ele>773.0</ele><time>2026-04-25T11:22:39.38Z</time></trkpt><trkpt lat="41.10355" lon="14.6227567"><ele>775.3333333333334</ele><time>2026-04-25T11:22:44.382Z</time></trkpt><trkpt lat="41.1035933" lon="14.62268"><ele>777.6666666666667</ele><time>2026-04-25T11:22:49.383Z</time></trkpt><trkpt lat="41.1036133" lon="14.62258"><ele>780.0</ele><time>2026-04-25T11:22:53.382Z</time></trkpt><trkpt lat="41.1036483" lon="14.6224517"><ele>782.3333333333333</ele><time>2026-04-25T11:23:00.382Z</time></trkpt><trkpt lat="41.1036717" lon="14.622365"><ele>784.6666666666666</ele><time>2026-04-25T11:23:04.381Z</time></trkpt><trkpt lat="41.1036883" lon="14.6222733"><ele>787.0</ele><time>2026-04-25T11:23:10.383Z</time></trkpt><trkpt lat="41.10371" lon="14.6221583"><ele>787.0</ele><time>2026-04-25T11:23:13.383Z</time></trkpt><trkpt lat="41.1037267" lon="14.6220683"><ele>787.0</ele><time>2026-04-25T11:23:16.38Z</time></trkpt><trkpt lat="41.1037533" lon="14.6219733"><ele>787.0</ele><time>2026-04-25T11:23:20.382Z</time></trkpt><trkpt lat="41.10376" lon="14.6218717"><ele>787.0</ele><time>2026-04-25T11:23:24.384Z</time></trkpt><trkpt lat="41.10376" lon="14.62177"><ele>787.0</ele><time>2026-04-25T11:23:28.382Z</time></trkpt><trkpt lat="41.1037283" lon="14.6216967"><ele>787.0</ele><time>2026-04-25T11:23:33.382Z</time></trkpt><trkpt lat="41.1036783" lon="14.62163"><ele>787.0</ele><time>2026-04-25T11:23:37.38Z</time></trkpt><trkpt lat="41.1036467" lon="14.6215533"><ele>788.5714285714286</ele><time>2026-04-25T11:23:41.383Z</time></trkpt><trkpt lat="41.1035867" lon="14.6215217"><ele>790.1428571428571</ele><time>2026-04-25T11:23:45.383Z</time></trkpt><trkpt lat="41.1035217" lon="14.6214917"><ele>791.7142857142858</ele><time>2026-04-25T11:23:49.383Z</time></trkpt><trkpt lat="41.1034567" lon="14.6214917"><ele>793.2857142857142</ele><time>2026-04-25T11:23:52.382Z</time></trkpt><trkpt lat="41.1033767" lon="14.621465"><ele>794.8571428571429</ele><time>2026-04-25T11:23:56.382Z</time></trkpt><trkpt lat="41.10331" lon="14.6214533"><ele>796.4285714285714</ele><time>2026-04-25T11:23:59.385Z</time></trkpt><trkpt lat="41.103235" lon="14.6214567"><ele>798.0</ele><time>2026-04-25T11:24:02.383Z</time></trkpt><trkpt lat="41.10317" lon="14.6214617"><ele>798.5</ele><time>2026-04-25T11:24:06.384Z</time></trkpt><trkpt lat="41.10308" lon="14.6214683"><ele>799.0</ele><time>2026-04-25T11:24:10.381Z</time></trkpt><trkpt lat="41.1030017" lon="14.6214567"><ele>799.5</ele><time>2026-04-25T11:24:14.383Z</time></trkpt><trkpt lat="41.1029267" lon="14.62146"><ele>800.0</ele><time>2026-04-25T11:24:18.384Z</time></trkpt><trkpt lat="41.1028633" lon="14.6214333"><ele>800.5</ele><time>2026-04-25T11:24:22.383Z</time></trkpt><trkpt lat="41.102795" lon="14.6214133"><ele>801.0</ele><time>2026-04-25T11:24:26.384Z</time></trkpt><trkpt lat="41.102735" lon="14.6213583"><ele>801.0</ele><time>2026-04-25T11:24:30.382Z</time></trkpt><trkpt lat="41.102695" lon="14.6212733"><ele>801.0</ele><time>2026-04-25T11:24:34.383Z</time></trkpt><trkpt lat="41.1026667" lon="14.6211817"><ele>801.0</ele><time>2026-04-25T11:24:39.381Z</time></trkpt><trkpt lat="41.1027" lon="14.6210967"><ele>801.0</ele><time>2026-04-25T11:24:43.384Z</time></trkpt><trkpt lat="41.10274" lon="14.62103"><ele>801.0</ele><time>2026-04-25T11:24:48.382Z</time></trkpt><trkpt lat="41.1028" lon="14.620985"><ele>801.0</ele><time>2026-04-25T11:24:52.381Z</time></trkpt><trkpt lat="41.1028683" lon="14.6209517"><ele>801.0</ele><time>2026-04-25T11:24:56.382Z</time></trkpt><trkpt lat="41.102935" lon="14.6209233"><ele>803.1428571428571</ele><time>2026-04-25T11:25:00.383Z</time></trkpt><trkpt lat="41.103" lon="14.6209033"><ele>805.2857142857142</ele><time>2026-04-25T11:25:04.383Z</time></trkpt><trkpt lat="41.1030717" lon="14.62087"><ele>807.4285714285714</ele><time>2026-04-25T11:25:08.383Z</time></trkpt><trkpt lat="41.1031433" lon="14.6208467"><ele>809.5714285714286</ele><time>2026-04-25T11:25:12.382Z</time></trkpt><trkpt lat="41.1032133" lon="14.6208433"><ele>811.7142857142858</ele><time>2026-04-25T11:25:17.384Z</time></trkpt><trkpt lat="41.103285" lon="14.620815"><ele>813.8571428571429</ele><time>2026-04-25T11:25:21.382Z</time></trkpt><trkpt lat="41.103345" lon="14.620755"><ele>816.0</ele><time>2026-04-25T11:25:25.382Z</time></trkpt><trkpt lat="41.1033833" lon="14.6206817"><ele>816.0</ele><time>2026-04-25T11:25:28.382Z</time></trkpt><trkpt lat="41.103405" lon="14.6206017"><ele>816.0</ele><time>2026-04-25T11:25:33.383Z</time></trkpt><trkpt lat="41.103465" lon="14.6204317"><ele>816.0</ele><time>2026-04-25T11:25:48.384Z</time></trkpt><trkpt lat="41.10347" lon="14.6203467"><ele>816.0</ele><time>2026-04-25T11:25:52.383Z</time></trkpt><trkpt lat="41.1034967" lon="14.6202633"><ele>816.0</ele><time>2026-04-25T11:25:56.384Z</time></trkpt><trkpt lat="41.1034767" lon="14.6201683"><ele>816.0</ele><time>2026-04-25T11:26:02.385Z</time></trkpt><trkpt lat="41.10338" lon="14.62003"><ele>819.1999999999999</ele><time>2026-04-25T11:26:15.382Z</time></trkpt><trkpt lat="41.1033533" lon="14.619935"><ele>822.4</ele><time>2026-04-25T11:26:20.384Z</time></trkpt><trkpt lat="41.1032783" lon="14.6198417"><ele>825.6</ele><time>2026-04-25T11:26:29.384Z</time></trkpt><trkpt lat="41.1031433" lon="14.6198167"><ele>828.8</ele><time>2026-04-25T11:26:44.383Z</time></trkpt><trkpt lat="41.10308" lon="14.61979"><ele>832.0</ele><time>2026-04-25T11:26:49.384Z</time></trkpt><trkpt lat="41.1030133" lon="14.6197617"><ele>833.2857142857142</ele><time>2026-04-25T11:26:53.382Z</time></trkpt><trkpt lat="41.102955" lon="14.6197083"><ele>834.5714285714287</ele><time>2026-04-25T11:26:56.383Z</time></trkpt><trkpt lat="41.1029383" lon="14.6196217"><ele>835.8571428571429</ele><time>2026-04-25T11:27:03.384Z</time></trkpt><trkpt lat="41.1029817" lon="14.6195433"><ele>837.1428571428571</ele><time>2026-04-25T11:27:09.384Z</time></trkpt><trkpt lat="41.1030267" lon="14.6194783"><ele>838.4285714285713</ele><time>2026-04-25T11:27:17.382Z</time></trkpt><trkpt lat="41.103065" lon="14.619385"><ele>839.7142857142858</ele><time>2026-04-25T11:27:22.383Z</time></trkpt><trkpt lat="41.1031017" lon="14.6193033"><ele>841.0</ele><time>2026-04-25T11:27:25.382Z</time></trkpt><trkpt lat="41.1031517" lon="14.619245"><ele>841.6666666666666</ele><time>2026-04-25T11:27:27.381Z</time></trkpt><trkpt lat="41.1032133" lon="14.6192267"><ele>842.3333333333333</ele><time>2026-04-25T11:27:31.384Z</time></trkpt><trkpt lat="41.1032683" lon="14.6191717"><ele>843.0</ele><time>2026-04-25T11:27:34.382Z</time></trkpt><trkpt lat="41.1033533" lon="14.6190883"><ele>843.6666666666667</ele><time>2026-04-25T11:27:43.384Z</time></trkpt><trkpt lat="41.103375" lon="14.619"><ele>844.3333333333334</ele><time>2026-04-25T11:27:51.383Z</time></trkpt><trkpt lat="41.1033667" lon="14.6188467"><ele>845.0</ele><time>2026-04-25T11:28:02.383Z</time></trkpt><trkpt lat="41.10339" lon="14.6187517"><ele>845.0000000000001</ele><time>2026-04-25T11:28:06.382Z</time></trkpt><trkpt lat="41.1034283" lon="14.61868"><ele>845.0</ele><time>2026-04-25T11:28:09.383Z</time></trkpt><trkpt lat="41.1034817" lon="14.618615"><ele>845.0</ele><time>2026-04-25T11:28:12.382Z</time></trkpt><trkpt lat="41.1035317" lon="14.61855"><ele>845.0</ele><time>2026-04-25T11:28:15.382Z</time></trkpt><trkpt lat="41.1035933" lon="14.6184967"><ele>845.0000000000001</ele><time>2026-04-25T11:28:19.384Z</time></trkpt><trkpt lat="41.1037267" lon="14.618385"><ele>845.0</ele><time>2026-04-25T11:28:30.384Z</time></trkpt><trkpt lat="41.1038383" lon="14.6183033"><ele>846.3333333333334</ele><time>2026-04-25T11:28:39.384Z</time></trkpt><trkpt lat="41.1039367" lon="14.6182067"><ele>847.6666666666667</ele><time>2026-04-25T11:28:47.382Z</time></trkpt><trkpt lat="41.1040083" lon="14.6181383"><ele>849.0</ele><time>2026-04-25T11:28:50.384Z</time></trkpt><trkpt lat="41.1040583" lon="14.6180783"><ele>850.3333333333333</ele><time>2026-04-25T11:28:53.382Z</time></trkpt><trkpt lat="41.1041117" lon="14.6179917"><ele>851.6666666666666</ele><time>2026-04-25T11:28:57.384Z</time></trkpt><trkpt lat="41.10406" lon="14.6179417"><ele>853.0</ele><time>2026-04-25T11:29:18.383Z</time></trkpt><trkpt lat="41.1039817" lon="14.6179717"><ele>854.5999999999999</ele><time>2026-04-25T11:29:28.382Z</time></trkpt><trkpt lat="41.1039167" lon="14.6179767"><ele>856.1999999999999</ele><time>2026-04-25T11:29:33.383Z</time></trkpt><trkpt lat="41.1038083" lon="14.61795"><ele>857.8</ele><time>2026-04-25T11:29:51.382Z</time></trkpt><trkpt lat="41.1037417" lon="14.617975"><ele>859.4</ele><time>2026-04-25T11:29:57.382Z</time></trkpt><trkpt lat="41.10366" lon="14.618"><ele>861.0</ele><time>2026-04-25T11:30:02.383Z</time></trkpt><trkpt lat="41.1035433" lon="14.6180817"><ele>861.0</ele><time>2026-04-25T11:30:14.385Z</time></trkpt><trkpt lat="41.103445" lon="14.6180933"><ele>861.0</ele><time>2026-04-25T11:30:17.384Z</time></trkpt><trkpt lat="41.1033317" lon="14.6181133"><ele>861.0</ele><time>2026-04-25T11:30:20.383Z</time></trkpt><trkpt lat="41.1031967" lon="14.6181267"><ele>861.0</ele><time>2026-04-25T11:30:26.382Z</time></trkpt><trkpt lat="41.1030967" lon="14.6182"><ele>865.1428571428571</ele><time>2026-04-25T11:30:30.384Z</time></trkpt><trkpt lat="41.1030317" lon="14.6182567"><ele>869.2857142857142</ele><time>2026-04-25T11:30:34.382Z</time></trkpt><trkpt lat="41.1029783" lon="14.6183017"><ele>873.4285714285714</ele><time>2026-04-25T11:30:38.383Z</time></trkpt><trkpt lat="41.1029083" lon="14.6183117"><ele>877.5714285714286</ele><time>2026-04-25T11:30:40.383Z</time></trkpt><trkpt lat="41.10283" lon="14.618345"><ele>881.7142857142857</ele><time>2026-04-25T11:30:43.384Z</time></trkpt><trkpt lat="41.1027683" lon="14.6183633"><ele>885.8571428571429</ele><time>2026-04-25T11:30:45.382Z</time></trkpt><trkpt lat="41.1026833" lon="14.6183833"><ele>890.0</ele><time>2026-04-25T11:30:49.383Z</time></trkpt><trkpt lat="41.1025667" lon="14.618405"><ele>890.0</ele><time>2026-04-25T11:30:53.384Z</time></trkpt><trkpt lat="41.10243" lon="14.6184383"><ele>890.0</ele><time>2026-04-25T11:30:58.384Z</time></trkpt><trkpt lat="41.1022967" lon="14.6184483"><ele>890.0</ele><time>2026-04-25T11:31:02.383Z</time></trkpt><trkpt lat="41.1022067" lon="14.6184917"><ele>890.0</ele><time>2026-04-25T11:31:08.382Z</time></trkpt><trkpt lat="41.1021583" lon="14.6185633"><ele>890.0</ele><time>2026-04-25T11:31:14.383Z</time></trkpt><trkpt lat="41.102095" lon="14.6186117"><ele>889.0000000000001</ele><time>2026-04-25T11:31:17.383Z</time></trkpt><trkpt lat="41.102025" lon="14.6186583"><ele>888.0</ele><time>2026-04-25T11:31:20.383Z</time></trkpt><trkpt lat="41.1019617" lon="14.6186833"><ele>887.0</ele><time>2026-04-25T11:31:23.382Z</time></trkpt><trkpt lat="41.1018983" lon="14.6187317"><ele>886.0</ele><time>2026-04-25T11:31:26.383Z</time></trkpt><trkpt lat="41.1018283" lon="14.61877"><ele>885.0000000000001</ele><time>2026-04-25T11:31:29.381Z</time></trkpt><trkpt lat="41.101755" lon="14.6187783"><ele>884.0</ele><time>2026-04-25T11:31:32.383Z</time></trkpt><trkpt lat="41.1016633" lon="14.6187733"><ele>884.0000000000001</ele><time>2026-04-25T11:31:35.384Z</time></trkpt><trkpt lat="41.1015833" lon="14.618785"><ele>884.0</ele><time>2026-04-25T11:31:39.383Z</time></trkpt><trkpt lat="41.1015183" lon="14.6188417"><ele>884.0</ele><time>2026-04-25T11:31:42.384Z</time></trkpt><trkpt lat="41.1014533" lon="14.6188783"><ele>884.0</ele><time>2026-04-25T11:31:45.382Z</time></trkpt><trkpt lat="41.10138" lon="14.618905"><ele>884.0</ele><time>2026-04-25T11:31:49.382Z</time></trkpt><trkpt lat="41.1013067" lon="14.6189283"><ele>884.0000000000001</ele><time>2026-04-25T11:31:53.384Z</time></trkpt><trkpt lat="41.1012433" lon="14.618895"><ele>884.0</ele><time>2026-04-25T11:31:57.382Z</time></trkpt><trkpt lat="41.1011883" lon="14.6188467"><ele>884.0000000000001</ele><time>2026-04-25T11:32:02.383Z</time></trkpt><trkpt lat="41.101135" lon="14.6187817"><ele>884.0</ele><time>2026-04-25T11:32:07.384Z</time></trkpt><trkpt lat="41.10108" lon="14.6187233"><ele>884.0</ele><time>2026-04-25T11:32:11.383Z</time></trkpt><trkpt lat="41.1010183" lon="14.6186633"><ele>884.0</ele><time>2026-04-25T11:32:15.382Z</time></trkpt><trkpt lat="41.10096" lon="14.61862"><ele>884.0</ele><time>2026-04-25T11:32:18.384Z</time></trkpt><trkpt lat="41.1008983" lon="14.6185883"><ele>884.0000000000001</ele><time>2026-04-25T11:32:21.382Z</time></trkpt><trkpt lat="41.1008333" lon="14.6185617"><ele>884.0</ele><time>2026-04-25T11:32:24.384Z</time></trkpt><trkpt lat="41.100765" lon="14.6185317"><ele>888.2857142857143</ele><time>2026-04-25T11:32:27.383Z</time></trkpt><trkpt lat="41.1006867" lon="14.6184933"><ele>892.5714285714287</ele><time>2026-04-25T11:32:31.384Z</time></trkpt><trkpt lat="41.1006267" lon="14.61846"><ele>896.8571428571429</ele><time>2026-04-25T11:32:34.382Z</time></trkpt><trkpt lat="41.10056" lon="14.6184333"><ele>901.1428571428572</ele><time>2026-04-25T11:32:38.383Z</time></trkpt><trkpt lat="41.100495" lon="14.6184133"><ele>905.4285714285714</ele><time>2026-04-25T11:32:42.381Z</time></trkpt><trkpt lat="41.100425" lon="14.618405"><ele>909.7142857142859</ele><time>2026-04-25T11:32:46.381Z</time></trkpt><trkpt lat="41.10036" lon="14.618385"><ele>914.0000000000001</ele><time>2026-04-25T11:32:50.382Z</time></trkpt><trkpt lat="41.1002983" lon="14.6183583"><ele>914.0000000000001</ele><time>2026-04-25T11:32:54.383Z</time></trkpt><trkpt lat="41.10023" lon="14.618345"><ele>914.0</ele><time>2026-04-25T11:32:57.383Z</time></trkpt><trkpt lat="41.1001583" lon="14.6183"><ele>914.0000000000001</ele><time>2026-04-25T11:33:01.383Z</time></trkpt><trkpt lat="41.100105" lon="14.61825"><ele>914.0000000000001</ele><time>2026-04-25T11:33:05.385Z</time></trkpt><trkpt lat="41.1000467" lon="14.6182067"><ele>914.0</ele><time>2026-04-25T11:33:09.383Z</time></trkpt><trkpt lat="41.0999867" lon="14.6181767"><ele>914.0000000000001</ele><time>2026-04-25T11:33:13.382Z</time></trkpt><trkpt lat="41.0999283" lon="14.6181133"><ele>914.0000000000001</ele><time>2026-04-25T11:33:17.381Z</time></trkpt><trkpt lat="41.0998667" lon="14.6180567"><ele>915.1428571428573</ele><time>2026-04-25T11:33:21.383Z</time></trkpt><trkpt lat="41.0998083" lon="14.6179967"><ele>916.2857142857143</ele><time>2026-04-25T11:33:25.384Z</time></trkpt><trkpt lat="41.09977" lon="14.6179283"><ele>917.4285714285716</ele><time>2026-04-25T11:33:28.382Z</time></trkpt><trkpt lat="41.09972" lon="14.617865"><ele>918.5714285714287</ele><time>2026-04-25T11:33:32.384Z</time></trkpt><trkpt lat="41.099665" lon="14.6178133"><ele>919.7142857142858</ele><time>2026-04-25T11:33:36.383Z</time></trkpt><trkpt lat="41.0996167" lon="14.6177533"><ele>920.8571428571429</ele><time>2026-04-25T11:33:40.382Z</time></trkpt><trkpt lat="41.0995533" lon="14.617685"><ele>922.0</ele><time>2026-04-25T11:33:44.383Z</time></trkpt><trkpt lat="41.0995" lon="14.6176117"><ele>922.0</ele><time>2026-04-25T11:33:48.384Z</time></trkpt><trkpt lat="41.0994283" lon="14.6175717"><ele>922.0000000000001</ele><time>2026-04-25T11:33:52.382Z</time></trkpt><trkpt lat="41.09937" lon="14.6175017"><ele>922.0</ele><time>2026-04-25T11:33:56.382Z</time></trkpt><trkpt lat="41.0993067" lon="14.6174683"><ele>922.0</ele><time>2026-04-25T11:34:00.383Z</time></trkpt><trkpt lat="41.0992433" lon="14.6174233"><ele>922.0000000000001</ele><time>2026-04-25T11:34:04.383Z</time></trkpt><trkpt lat="41.0991833" lon="14.6173667"><ele>922.0</ele><time>2026-04-25T11:34:08.383Z</time></trkpt><trkpt lat="41.09912" lon="14.6173267"><ele>922.0</ele><time>2026-04-25T11:34:12.382Z</time></trkpt><trkpt lat="41.0990617" lon="14.6172883"><ele>917.9999999999999</ele><time>2026-04-25T11:34:15.384Z</time></trkpt><trkpt lat="41.0990017" lon="14.6172233"><ele>914.0</ele><time>2026-04-25T11:34:19.382Z</time></trkpt><trkpt lat="41.0989567" lon="14.6171483"><ele>910.0</ele><time>2026-04-25T11:34:22.384Z</time></trkpt><trkpt lat="41.0989" lon="14.61706"><ele>906.0</ele><time>2026-04-25T11:34:26.383Z</time></trkpt><trkpt lat="41.09888" lon="14.616955"><ele>901.9999999999999</ele><time>2026-04-25T11:34:29.381Z</time></trkpt><trkpt lat="41.098865" lon="14.6168333"><ele>898.0</ele><time>2026-04-25T11:34:32.383Z</time></trkpt><trkpt lat="41.0988333" lon="14.6167233"><ele>897.9999999999999</ele><time>2026-04-25T11:34:35.383Z</time></trkpt><trkpt lat="41.0988167" lon="14.6166217"><ele>898.0</ele><time>2026-04-25T11:34:38.382Z</time></trkpt><trkpt lat="41.0987983" lon="14.6165267"><ele>898.0</ele><time>2026-04-25T11:34:41.382Z</time></trkpt><trkpt lat="41.0987683" lon="14.616435"><ele>898.0</ele><time>2026-04-25T11:34:44.383Z</time></trkpt><trkpt lat="41.09877" lon="14.6163167"><ele>897.9999999999999</ele><time>2026-04-25T11:34:47.384Z</time></trkpt><trkpt lat="41.0987833" lon="14.6162217"><ele>898.0</ele><time>2026-04-25T11:34:49.38Z</time></trkpt><trkpt lat="41.09879" lon="14.6161"><ele>897.9999999999999</ele><time>2026-04-25T11:34:52.381Z</time></trkpt><trkpt lat="41.098815" lon="14.6160183"><ele>898.0</ele><time>2026-04-25T11:34:54.381Z</time></trkpt><trkpt lat="41.098875" lon="14.6159367"><ele>898.0</ele><time>2026-04-25T11:34:56.384Z</time></trkpt><trkpt lat="41.098925" lon="14.6158633"><ele>898.0</ele><time>2026-04-25T11:34:58.383Z</time></trkpt><trkpt lat="41.09898" lon="14.6158033"><ele>897.9999999999999</ele><time>2026-04-25T11:35:00.382Z</time></trkpt><trkpt lat="41.099045" lon="14.6157517"><ele>898.0</ele><time>2026-04-25T11:35:02.382Z</time></trkpt><trkpt lat="41.0991217" lon="14.6157333"><ele>903.8333333333333</ele><time>2026-04-25T11:35:04.382Z</time></trkpt><trkpt lat="41.0991983" lon="14.6157517"><ele>909.6666666666666</ele><time>2026-04-25T11:35:06.383Z</time></trkpt><trkpt lat="41.0992683" lon="14.61577"><ele>915.5</ele><time>2026-04-25T11:35:08.384Z</time></trkpt><trkpt lat="41.0993533" lon="14.6158"><ele>921.3333333333333</ele><time>2026-04-25T11:35:11.382Z</time></trkpt><trkpt lat="41.09942" lon="14.6158267"><ele>927.1666666666666</ele><time>2026-04-25T11:35:13.382Z</time></trkpt><trkpt lat="41.0995033" lon="14.61585"><ele>933.0</ele><time>2026-04-25T11:35:15.383Z</time></trkpt><trkpt lat="41.0995867" lon="14.61588"><ele>933.0</ele><time>2026-04-25T11:35:17.382Z</time></trkpt><trkpt lat="41.0996633" lon="14.6158983"><ele>933.0</ele><time>2026-04-25T11:35:19.383Z</time></trkpt><trkpt lat="41.09973" lon="14.6159367"><ele>933.0</ele><time>2026-04-25T11:35:21.382Z</time></trkpt><trkpt lat="41.0997967" lon="14.6160033"><ele>933.0</ele><time>2026-04-25T11:35:24.382Z</time></trkpt><trkpt lat="41.0998517" lon="14.6160867"><ele>933.0</ele><time>2026-04-25T11:35:26.383Z</time></trkpt><trkpt lat="41.0999233" lon="14.6161733"><ele>933.0</ele><time>2026-04-25T11:35:28.381Z</time></trkpt><trkpt lat="41.1000017" lon="14.6162867"><ele>934.0</ele><time>2026-04-25T11:35:30.383Z</time></trkpt><trkpt lat="41.1000383" lon="14.616355"><ele>935.0</ele><time>2026-04-25T11:35:31.381Z</time></trkpt><trkpt lat="41.1000833" lon="14.6164233"><ele>936.0</ele><time>2026-04-25T11:35:32.383Z</time></trkpt><trkpt lat="41.1001567" lon="14.6165717"><ele>937.0</ele><time>2026-04-25T11:35:34.383Z</time></trkpt><trkpt lat="41.100205" lon="14.6167167"><ele>938.0</ele><time>2026-04-25T11:35:36.384Z</time></trkpt><trkpt lat="41.1002417" lon="14.61679"><ele>938.0</ele><time>2026-04-25T11:35:37.382Z</time></trkpt><trkpt lat="41.1002983" lon="14.6169333"><ele>938.0</ele><time>2026-04-25T11:35:39.382Z</time></trkpt><trkpt lat="41.100355" lon="14.6170667"><ele>938.0</ele><time>2026-04-25T11:35:41.384Z</time></trkpt><trkpt lat="41.1004133" lon="14.61719"><ele>938.0</ele><time>2026-04-25T11:35:43.383Z</time></trkpt><trkpt lat="41.100485" lon="14.6173"><ele>937.7142857142858</ele><time>2026-04-25T11:35:45.384Z</time></trkpt><trkpt lat="41.1005217" lon="14.6173733"><ele>937.4285714285714</ele><time>2026-04-25T11:35:47.384Z</time></trkpt><trkpt lat="41.1005917" lon="14.6174067"><ele>937.1428571428571</ele><time>2026-04-25T11:35:51.382Z</time></trkpt><trkpt lat="41.100665" lon="14.617385"><ele>936.8571428571429</ele><time>2026-04-25T11:35:55.382Z</time></trkpt><trkpt lat="41.1007383" lon="14.6173717"><ele>936.5714285714287</ele><time>2026-04-25T11:35:59.382Z</time></trkpt><trkpt lat="41.1008" lon="14.6173233"><ele>936.2857142857143</ele><time>2026-04-25T11:36:03.385Z</time></trkpt><trkpt lat="41.1008667" lon="14.6172483"><ele>936.0</ele><time>2026-04-25T11:36:07.382Z</time></trkpt><trkpt lat="41.100915" lon="14.6171833"><ele>936.0</ele><time>2026-04-25T11:36:10.384Z</time></trkpt><trkpt lat="41.1009567" lon="14.6171133"><ele>936.0</ele><time>2026-04-25T11:36:14.381Z</time></trkpt><trkpt lat="41.1010117" lon="14.6170233"><ele>936.0</ele><time>2026-04-25T11:36:18.384Z</time></trkpt><trkpt lat="41.1010717" lon="14.6169517"><ele>936.0</ele><time>2026-04-25T11:36:21.383Z</time></trkpt><trkpt lat="41.101125" lon="14.6168783"><ele>936.0</ele><time>2026-04-25T11:36:25.384Z</time></trkpt><trkpt lat="41.101185" lon="14.6167983"><ele>936.0</ele><time>2026-04-25T11:36:29.382Z</time></trkpt><trkpt lat="41.1012333" lon="14.616735"><ele>937.0</ele><time>2026-04-25T11:36:34.382Z</time></trkpt><trkpt lat="41.1012467" lon="14.6166433"><ele>938.0000000000001</ele><time>2026-04-25T11:36:40.384Z</time></trkpt><trkpt lat="41.101215" lon="14.61656"><ele>939.0</ele><time>2026-04-25T11:36:45.383Z</time></trkpt><trkpt lat="41.1011867" lon="14.6164833"><ele>940.0</ele><time>2026-04-25T11:36:50.385Z</time></trkpt><trkpt lat="41.1011817" lon="14.616385"><ele>941.0000000000001</ele><time>2026-04-25T11:36:56.383Z</time></trkpt><trkpt lat="41.1011533" lon="14.6163083"><ele>942.0</ele><time>2026-04-25T11:37:01.382Z</time></trkpt><trkpt lat="41.1011417" lon="14.6161867"><ele>943.0</ele><time>2026-04-25T11:37:08.383Z</time></trkpt><trkpt lat="41.1011533" lon="14.6161017"><ele>944.3333333333333</ele><time>2026-04-25T11:37:12.384Z</time></trkpt><trkpt lat="41.1011333" lon="14.615965"><ele>945.6666666666666</ele><time>2026-04-25T11:37:19.383Z</time></trkpt><trkpt lat="41.1011067" lon="14.6158717"><ele>947.0</ele><time>2026-04-25T11:37:23.384Z</time></trkpt><trkpt lat="41.101075" lon="14.61578"><ele>948.3333333333333</ele><time>2026-04-25T11:37:28.383Z</time></trkpt><trkpt lat="41.1010633" lon="14.6156967"><ele>949.6666666666666</ele><time>2026-04-25T11:37:31.384Z</time></trkpt><trkpt lat="41.1010533" lon="14.6155983"><ele>951.0</ele><time>2026-04-25T11:37:35.384Z</time></trkpt><trkpt lat="41.1010567" lon="14.6155017"><ele>951.0</ele><time>2026-04-25T11:37:38.384Z</time></trkpt><trkpt lat="41.1010467" lon="14.6154033"><ele>951.0</ele><time>2026-04-25T11:37:41.384Z</time></trkpt><trkpt lat="41.1010167" lon="14.61532"><ele>951.0</ele><time>2026-04-25T11:37:46.382Z</time></trkpt><trkpt lat="41.100965" lon="14.6152617"><ele>951.0</ele><time>2026-04-25T11:37:50.384Z</time></trkpt><trkpt lat="41.1009317" lon="14.6151467"><ele>951.0</ele><time>2026-04-25T11:37:56.384Z</time></trkpt><trkpt lat="41.10092" lon="14.6150533"><ele>951.0</ele><time>2026-04-25T11:38:03.383Z</time></trkpt><trkpt lat="41.1009183" lon="14.6148717"><ele>952.8571428571429</ele><time>2026-04-25T11:38:07.384Z</time></trkpt><trkpt lat="41.1009133" lon="14.6147733"><ele>954.7142857142858</ele><time>2026-04-25T11:38:08.383Z</time></trkpt><trkpt lat="41.1008833" lon="14.6146683"><ele>956.5714285714287</ele><time>2026-04-25T11:38:12.383Z</time></trkpt><trkpt lat="41.100865" lon="14.6145883"><ele>958.4285714285714</ele><time>2026-04-25T11:38:15.385Z</time></trkpt><trkpt lat="41.1008333" lon="14.6145117"><ele>960.2857142857144</ele><time>2026-04-25T11:38:20.382Z</time></trkpt><trkpt lat="41.10081" lon="14.6144183"><ele>962.1428571428572</ele><time>2026-04-25T11:38:24.383Z</time></trkpt><trkpt lat="41.100785" lon="14.6143333"><ele>964.0</ele><time>2026-04-25T11:38:28.383Z</time></trkpt><trkpt lat="41.1007783" lon="14.6141983"><ele>965.8333333333333</ele><time>2026-04-25T11:38:31.383Z</time></trkpt><trkpt lat="41.1007667" lon="14.6141033"><ele>967.6666666666666</ele><time>2026-04-25T11:38:33.383Z</time></trkpt><trkpt lat="41.1007767" lon="14.6140017"><ele>969.5</ele><time>2026-04-25T11:38:36.384Z</time></trkpt><trkpt lat="41.1008" lon="14.6138833"><ele>971.3333333333333</ele><time>2026-04-25T11:38:38.384Z</time></trkpt><trkpt lat="41.100825" lon="14.6137767"><ele>973.1666666666666</ele><time>2026-04-25T11:38:42.384Z</time></trkpt><trkpt lat="41.1008333" lon="14.613675"><ele>975.0</ele><time>2026-04-25T11:38:45.384Z</time></trkpt><trkpt lat="41.1008317" lon="14.61357"><ele>975.6666666666666</ele><time>2026-04-25T11:38:48.383Z</time></trkpt><trkpt lat="41.1008233" lon="14.6134717"><ele>976.3333333333333</ele><time>2026-04-25T11:38:51.384Z</time></trkpt><trkpt lat="41.1008033" lon="14.61338"><ele>977.0</ele><time>2026-04-25T11:38:54.384Z</time></trkpt><trkpt lat="41.10078" lon="14.613255"><ele>977.6666666666666</ele><time>2026-04-25T11:38:57.383Z</time></trkpt><trkpt lat="41.1007583" lon="14.6131317"><ele>978.3333333333333</ele><time>2026-04-25T11:39:00.383Z</time></trkpt><trkpt lat="41.1007417" lon="14.6130333"><ele>979.0</ele><time>2026-04-25T11:39:02.385Z</time></trkpt><trkpt lat="41.100735" lon="14.6129317"><ele>980.1428571428571</ele><time>2026-04-25T11:39:05.382Z</time></trkpt><trkpt lat="41.1007217" lon="14.612835"><ele>981.2857142857143</ele><time>2026-04-25T11:39:08.383Z</time></trkpt><trkpt lat="41.1006933" lon="14.612725"><ele>982.4285714285714</ele><time>2026-04-25T11:39:12.383Z</time></trkpt><trkpt lat="41.1006583" lon="14.6126333"><ele>983.5714285714286</ele><time>2026-04-25T11:39:15.382Z</time></trkpt><trkpt lat="41.1006167" lon="14.6125483"><ele>984.7142857142858</ele><time>2026-04-25T11:39:18.384Z</time></trkpt><trkpt lat="41.1005785" lon="14.6124713"><ele>985.8571428571429</ele><time>2026-04-25T11:39:22.508Z</time></trkpt><trkpt lat="41.1005391" lon="14.6124049"><ele>987.0</ele><time>2026-04-25T11:39:26.443Z</time></trkpt><trkpt lat="41.10048" lon="14.612375"><ele>987.0</ele><time>2026-04-25T11:39:29.382Z</time></trkpt><trkpt lat="41.10041" lon="14.6123783"><ele>987.0</ele><time>2026-04-25T11:39:33.384Z</time></trkpt><trkpt lat="41.100335" lon="14.6123883"><ele>987.0</ele><time>2026-04-25T11:39:37.384Z</time></trkpt><trkpt lat="41.1002633" lon="14.6124183"><ele>987.0</ele><time>2026-04-25T11:39:41.383Z</time></trkpt><trkpt lat="41.1001983" lon="14.61244"><ele>987.0</ele><time>2026-04-25T11:39:46.383Z</time></trkpt><trkpt lat="41.1001417" lon="14.6124783"><ele>987.0</ele><time>2026-04-25T11:39:50.383Z</time></trkpt><trkpt lat="41.1000833" lon="14.6125183"><ele>987.0</ele><time>2026-04-25T11:39:53.384Z</time></trkpt><trkpt lat="41.1000083" lon="14.612545"><ele>987.0</ele><time>2026-04-25T11:39:58.384Z</time></trkpt><trkpt lat="41.09993" lon="14.612555"><ele>987.0</ele><time>2026-04-25T11:40:03.382Z</time></trkpt><trkpt lat="41.0998583" lon="14.6125317"><ele>987.0</ele><time>2026-04-25T11:40:08.383Z</time></trkpt><trkpt lat="41.09979" lon="14.6124917"><ele>987.0</ele><time>2026-04-25T11:40:14.384Z</time></trkpt><trkpt lat="41.09972" lon="14.6123933"><ele>987.0</ele><time>2026-04-25T11:40:23.382Z</time></trkpt><trkpt lat="41.099665" lon="14.612255"><ele>987.0</ele><time>2026-04-25T11:40:34.382Z</time></trkpt><trkpt lat="41.099645" lon="14.61217"><ele>986.0</ele><time>2026-04-25T11:40:39.384Z</time></trkpt><trkpt lat="41.0996283" lon="14.6120817"><ele>985.0</ele><time>2026-04-25T11:40:44.384Z</time></trkpt><trkpt lat="41.099605" lon="14.61196"><ele>984.0</ele><time>2026-04-25T11:40:51.385Z</time></trkpt><trkpt lat="41.0995767" lon="14.6118736"><ele>983.0</ele><time>2026-04-25T11:40:57.518Z</time></trkpt><trkpt lat="41.0995575" lon="14.6117766"><ele>982.0</ele><time>2026-04-25T11:41:03.487Z</time></trkpt><trkpt lat="41.099565" lon="14.6116675"><ele>981.0</ele><time>2026-04-25T11:41:08.429Z</time></trkpt><trkpt lat="41.0995517" lon="14.61157"><ele>981.0</ele><time>2026-04-25T11:41:12.384Z</time></trkpt><trkpt lat="41.09953" lon="14.6114067"><ele>980.9999999999999</ele><time>2026-04-25T11:41:25.383Z</time></trkpt><trkpt lat="41.0995333" lon="14.6112967"><ele>980.9999999999999</ele><time>2026-04-25T11:41:30.384Z</time></trkpt><trkpt lat="41.0994767" lon="14.6111783"><ele>981.0</ele><time>2026-04-25T11:41:36.383Z</time></trkpt><trkpt lat="41.09943" lon="14.6111017"><ele>981.0</ele><time>2026-04-25T11:41:40.382Z</time></trkpt><trkpt lat="41.09939" lon="14.6110367"><ele>983.4285714285714</ele><time>2026-04-25T11:41:44.383Z</time></trkpt><trkpt lat="41.09936" lon="14.61095"><ele>985.8571428571429</ele><time>2026-04-25T11:41:48.382Z</time></trkpt><trkpt lat="41.0993267" lon="14.6108667"><ele>988.2857142857143</ele><time>2026-04-25T11:41:52.38Z</time></trkpt><trkpt lat="41.0992917" lon="14.61077"><ele>990.7142857142858</ele><time>2026-04-25T11:41:57.381Z</time></trkpt><trkpt lat="41.09926" lon="14.6106833"><ele>993.1428571428571</ele><time>2026-04-25T11:42:01.38Z</time></trkpt><trkpt lat="41.09925" lon="14.6105717"><ele>995.5714285714287</ele><time>2026-04-25T11:42:05.382Z</time></trkpt><trkpt lat="41.0992533" lon="14.610485"><ele>998.0000000000001</ele><time>2026-04-25T11:42:07.383Z</time></trkpt><trkpt lat="41.0992517" lon="14.6103767"><ele>1000.3333333333334</ele><time>2026-04-25T11:42:10.383Z</time></trkpt><trkpt lat="41.0992567" lon="14.6102833"><ele>1002.6666666666667</ele><time>2026-04-25T11:42:13.382Z</time></trkpt><trkpt lat="41.099265" lon="14.6101933"><ele>1005.0</ele><time>2026-04-25T11:42:16.383Z</time></trkpt><trkpt lat="41.0992717" lon="14.61011"><ele>1007.3333333333333</ele><time>2026-04-25T11:42:18.383Z</time></trkpt><trkpt lat="41.099285" lon="14.6100067"><ele>1009.6666666666666</ele><time>2026-04-25T11:42:21.382Z</time></trkpt><trkpt lat="41.0993083" lon="14.60991"><ele>1012.0</ele><time>2026-04-25T11:42:25.383Z</time></trkpt><trkpt lat="41.0992817" lon="14.609725"><ele>1012.0</ele><time>2026-04-25T11:43:03.379Z</time></trkpt><trkpt lat="41.099315" lon="14.609595"><ele>1012.0</ele><time>2026-04-25T11:43:09.381Z</time></trkpt><trkpt lat="41.09939" lon="14.6095583"><ele>1012.0</ele><time>2026-04-25T11:43:16.399Z</time></trkpt><trkpt lat="41.0994367" lon="14.6094217"><ele>1012.0</ele><time>2026-04-25T11:43:23.391Z</time></trkpt><trkpt lat="41.0993683" lon="14.609345"><ele>1012.0</ele><time>2026-04-25T11:43:28.382Z</time></trkpt><trkpt lat="41.0993917" lon="14.6094567"><ele>1011.9999999999999</ele><time>2026-04-25T11:44:03.411Z</time></trkpt><trkpt lat="41.0993917" lon="14.6093683"><ele>1012.0</ele><time>2026-04-25T11:45:12.381Z</time></trkpt><trkpt lat="41.0993217" lon="14.60948"><ele>1012.0</ele><time>2026-04-25T11:45:28.383Z</time></trkpt><trkpt lat="41.099305" lon="14.609575"><ele>1012.0</ele><time>2026-04-25T11:45:33.384Z</time></trkpt><trkpt lat="41.09932" lon="14.6096883"><ele>1011.9999999999999</ele><time>2026-04-25T11:45:36.384Z</time></trkpt><trkpt lat="41.0993467" lon="14.6098033"><ele>1012.0</ele><time>2026-04-25T11:46:28.383Z</time></trkpt><trkpt lat="41.0994283" lon="14.609885"><ele>1011.9999999999999</ele><time>2026-04-25T11:46:41.383Z</time></trkpt><trkpt lat="41.09938" lon="14.6098283"><ele>1012.0</ele><time>2026-04-25T11:47:01.383Z</time></trkpt><trkpt lat="41.099315" lon="14.609835"><ele>1012.0</ele><time>2026-04-25T11:47:08.388Z</time></trkpt><trkpt lat="41.099415" lon="14.6098383"><ele>1012.0</ele><time>2026-04-25T11:47:32.384Z</time></trkpt><trkpt lat="41.0994283" lon="14.60992"><ele>1011.9999999999999</ele><time>2026-04-25T11:47:42.382Z</time></trkpt><trkpt lat="41.099375" lon="14.6099733"><ele>1012.0</ele><time>2026-04-25T11:54:27.383Z</time></trkpt><trkpt lat="41.0993733" lon="14.6100933"><ele>1012.0</ele><time>2026-04-25T11:55:46.384Z</time></trkpt><trkpt lat="41.0993933" lon="14.6099983"><ele>1012.0</ele><time>2026-04-25T11:57:10.383Z</time></trkpt><trkpt lat="41.09934" lon="14.6100767"><ele>1012.0</ele><time>2026-04-25T11:57:48.387Z</time></trkpt><trkpt lat="41.099315" lon="14.61016"><ele>1012.0</ele><time>2026-04-25T11:57:53.386Z</time></trkpt><trkpt lat="41.0993217" lon="14.610075"><ele>1012.0</ele><time>2026-04-25T11:58:14.386Z</time></trkpt><trkpt lat="41.0994067" lon="14.6100383"><ele>1012.0</ele><time>2026-04-25T11:59:08.386Z</time></trkpt></trkseg><trkseg><trkpt lat="41.0993557" lon="14.6098843"><ele>1012.0</ele><time>2026-04-25T12:09:56.209Z</time></trkpt><trkpt lat="41.0994615" lon="14.6098191"><ele>1012.0</ele><time>2026-04-25T12:10:42.32Z</time></trkpt><trkpt lat="41.0995309" lon="14.6098337"><ele>1012.0</ele><time>2026-04-25T12:10:50.412Z</time></trkpt><trkpt lat="41.0995314" lon="14.6097284"><ele>1012.0</ele><time>2026-04-25T12:11:00.327Z</time></trkpt><trkpt lat="41.0995508" lon="14.6096463"><ele>1012.0</ele><time>2026-04-25T12:11:15.303Z</time></trkpt><trkpt lat="41.0994474" lon="14.6098064"><ele>1012.0</ele><time>2026-04-25T12:11:38.264Z</time></trkpt><trkpt lat="41.0994286" lon="14.6098953"><ele>1012.0</ele><time>2026-04-25T12:11:45.241Z</time></trkpt><trkpt lat="41.0994372" lon="14.6101083"><ele>1012.0</ele><time>2026-04-25T12:11:52.219Z</time></trkpt><trkpt lat="41.0994527" lon="14.6102092"><ele>1012.0</ele><time>2026-04-25T12:11:54.24Z</time></trkpt><trkpt lat="41.0994648" lon="14.610364"><ele>1012.0</ele><time>2026-04-25T12:11:57.273Z</time></trkpt><trkpt lat="41.0994799" lon="14.6104749"><ele>1008.5</ele><time>2026-04-25T12:11:59.194Z</time></trkpt><trkpt lat="41.0995152" lon="14.6106379"><ele>1005.0</ele><time>2026-04-25T12:12:02.227Z</time></trkpt><trkpt lat="41.0995799" lon="14.6108747"><ele>1001.5</ele><time>2026-04-25T12:12:07.192Z</time></trkpt><trkpt lat="41.0996016" lon="14.6109598"><ele>998.0</ele><time>2026-04-25T12:12:09.224Z</time></trkpt><trkpt lat="41.0995931" lon="14.6110601"><ele>998.0</ele><time>2026-04-25T12:12:15.187Z</time></trkpt><trkpt lat="41.0995252" lon="14.6110711"><ele>998.0</ele><time>2026-04-25T12:12:22.567Z</time></trkpt><trkpt lat="41.0995013" lon="14.6111484"><ele>998.0</ele><time>2026-04-25T12:14:52.226Z</time></trkpt><trkpt lat="41.0995199" lon="14.6112947"><ele>998.0</ele><time>2026-04-25T12:14:53.235Z</time></trkpt><trkpt lat="41.0995112" lon="14.6113799"><ele>998.0</ele><time>2026-04-25T12:14:55.257Z</time></trkpt><trkpt lat="41.099512" lon="14.6115783"><ele>994.5999999999999</ele><time>2026-04-25T12:14:56.159Z</time></trkpt><trkpt lat="41.0995101" lon="14.6117734"><ele>991.1999999999999</ele><time>2026-04-25T12:14:57.162Z</time></trkpt><trkpt lat="41.0995173" lon="14.6119154"><ele>987.8</ele><time>2026-04-25T12:14:58.162Z</time></trkpt><trkpt lat="41.0995333" lon="14.6120384"><ele>984.4</ele><time>2026-04-25T12:14:59.159Z</time></trkpt><trkpt lat="41.0995535" lon="14.6121539"><ele>981.0</ele><time>2026-04-25T12:15:00.163Z</time></trkpt><trkpt lat="41.0995784" lon="14.6122681"><ele>982.0</ele><time>2026-04-25T12:15:01.159Z</time></trkpt><trkpt lat="41.0996114" lon="14.612377"><ele>983.0</ele><time>2026-04-25T12:15:02.16Z</time></trkpt><trkpt lat="41.0996609" lon="14.6124738"><ele>984.0</ele><time>2026-04-25T12:15:03.161Z</time></trkpt><trkpt lat="41.0997251" lon="14.6125565"><ele>985.0</ele><time>2026-04-25T12:15:04.16Z</time></trkpt><trkpt lat="41.0997941" lon="14.6126183"><ele>986.0</ele><time>2026-04-25T12:15:05.158Z</time></trkpt><trkpt lat="41.0998619" lon="14.6126559"><ele>987.0</ele><time>2026-04-25T12:15:06.159Z</time></trkpt><trkpt lat="41.0999265" lon="14.6126729"><ele>987.0</ele><time>2026-04-25T12:15:07.159Z</time></trkpt><trkpt lat="41.0999964" lon="14.6126656"><ele>987.0</ele><time>2026-04-25T12:15:08.16Z</time></trkpt><trkpt lat="41.1000633" lon="14.6126267"><ele>987.0</ele><time>2026-04-25T12:15:09.159Z</time></trkpt><trkpt lat="41.1001293" lon="14.6125768"><ele>987.0</ele><time>2026-04-25T12:15:10.159Z</time></trkpt><trkpt lat="41.1001839" lon="14.6125253"><ele>987.0</ele><time>2026-04-25T12:15:11.159Z</time></trkpt><trkpt lat="41.1002689" lon="14.6124403"><ele>987.0</ele><time>2026-04-25T12:15:13.161Z</time></trkpt><trkpt lat="41.1003634" lon="14.6123763"><ele>987.0</ele><time>2026-04-25T12:15:15.16Z</time></trkpt><trkpt lat="41.1004751" lon="14.6123597"><ele>987.0</ele><time>2026-04-25T12:15:17.161Z</time></trkpt><trkpt lat="41.1005358" lon="14.6123883"><ele>987.0</ele><time>2026-04-25T12:15:18.159Z</time></trkpt><trkpt lat="41.1005938" lon="14.6124417"><ele>987.0</ele><time>2026-04-25T12:15:19.157Z</time></trkpt><trkpt lat="41.1006442" lon="14.612518"><ele>987.0</ele><time>2026-04-25T12:15:20.159Z</time></trkpt><trkpt lat="41.1006835" lon="14.612609"><ele>987.0</ele><time>2026-04-25T12:15:21.159Z</time></trkpt><trkpt lat="41.1007145" lon="14.612714"><ele>985.6666666666666</ele><time>2026-04-25T12:15:22.159Z</time></trkpt><trkpt lat="41.1007403" lon="14.6128299"><ele>984.3333333333333</ele><time>2026-04-25T12:15:23.158Z</time></trkpt><trkpt lat="41.1007638" lon="14.6129547"><ele>983.0</ele><time>2026-04-25T12:15:24.158Z</time></trkpt><trkpt lat="41.1007819" lon="14.6130804"><ele>981.6666666666666</ele><time>2026-04-25T12:15:25.158Z</time></trkpt><trkpt lat="41.1007937" lon="14.6131918"><ele>980.3333333333333</ele><time>2026-04-25T12:15:26.162Z</time></trkpt><trkpt lat="41.1007991" lon="14.6132975"><ele>979.0</ele><time>2026-04-25T12:15:27.16Z</time></trkpt><trkpt lat="41.1007938" lon="14.6134039"><ele>979.0</ele><time>2026-04-25T12:15:28.159Z</time></trkpt><trkpt lat="41.100786" lon="14.613513"><ele>979.0</ele><time>2026-04-25T12:15:29.158Z</time></trkpt><trkpt lat="41.1007758" lon="14.6136123"><ele>979.0</ele><time>2026-04-25T12:15:30.159Z</time></trkpt><trkpt lat="41.1007666" lon="14.6137021"><ele>979.0</ele><time>2026-04-25T12:15:31.159Z</time></trkpt><trkpt lat="41.100762" lon="14.6137909"><ele>979.0</ele><time>2026-04-25T12:15:32.159Z</time></trkpt><trkpt lat="41.1007613" lon="14.6138826"><ele>979.0</ele><time>2026-04-25T12:15:33.165Z</time></trkpt><trkpt lat="41.1007577" lon="14.6139828"><ele>979.0</ele><time>2026-04-25T12:15:34.161Z</time></trkpt><trkpt lat="41.1007594" lon="14.6140794"><ele>978.3333333333333</ele><time>2026-04-25T12:15:35.16Z</time></trkpt><trkpt lat="41.1007678" lon="14.6141771"><ele>977.6666666666666</ele><time>2026-04-25T12:15:36.161Z</time></trkpt><trkpt lat="41.100789" lon="14.6142727"><ele>977.0</ele><time>2026-04-25T12:15:37.159Z</time></trkpt><trkpt lat="41.1008147" lon="14.6143694"><ele>976.3333333333333</ele><time>2026-04-25T12:15:38.162Z</time></trkpt><trkpt lat="41.1008449" lon="14.6144725"><ele>975.6666666666666</ele><time>2026-04-25T12:15:39.159Z</time></trkpt><trkpt lat="41.1008775" lon="14.6145775"><ele>975.0</ele><time>2026-04-25T12:15:40.158Z</time></trkpt><trkpt lat="41.1009127" lon="14.6146799"><ele>973.4285714285713</ele><time>2026-04-25T12:15:41.158Z</time></trkpt><trkpt lat="41.1009484" lon="14.6147765"><ele>971.8571428571428</ele><time>2026-04-25T12:15:42.158Z</time></trkpt><trkpt lat="41.1009789" lon="14.6148678"><ele>970.2857142857142</ele><time>2026-04-25T12:15:43.158Z</time></trkpt><trkpt lat="41.1010051" lon="14.6149565"><ele>968.7142857142858</ele><time>2026-04-25T12:15:44.158Z</time></trkpt><trkpt lat="41.1010289" lon="14.6150386"><ele>967.1428571428572</ele><time>2026-04-25T12:15:45.169Z</time></trkpt><trkpt lat="41.1010503" lon="14.6151299"><ele>965.5714285714287</ele><time>2026-04-25T12:15:46.159Z</time></trkpt><trkpt lat="41.1010703" lon="14.6152324"><ele>964.0</ele><time>2026-04-25T12:15:47.159Z</time></trkpt><trkpt lat="41.1010849" lon="14.6153386"><ele>961.8333333333333</ele><time>2026-04-25T12:15:48.16Z</time></trkpt><trkpt lat="41.101095" lon="14.6154443"><ele>959.6666666666666</ele><time>2026-04-25T12:15:49.158Z</time></trkpt><trkpt lat="41.1010972" lon="14.6155571"><ele>957.5</ele><time>2026-04-25T12:15:50.158Z</time></trkpt><trkpt lat="41.1010967" lon="14.615669"><ele>955.3333333333333</ele><time>2026-04-25T12:15:51.165Z</time></trkpt><trkpt lat="41.1011011" lon="14.6157761"><ele>953.1666666666666</ele><time>2026-04-25T12:15:52.159Z</time></trkpt><trkpt lat="41.10111" lon="14.6158642"><ele>951.0</ele><time>2026-04-25T12:15:53.158Z</time></trkpt><trkpt lat="41.1011419" lon="14.6160262"><ele>951.0</ele><time>2026-04-25T12:15:55.158Z</time></trkpt><trkpt lat="41.1011646" lon="14.6161188"><ele>951.0</ele><time>2026-04-25T12:15:56.159Z</time></trkpt><trkpt lat="41.1011929" lon="14.6162287"><ele>951.0</ele><time>2026-04-25T12:15:57.159Z</time></trkpt><trkpt lat="41.1012251" lon="14.6163472"><ele>951.0</ele><time>2026-04-25T12:15:58.159Z</time></trkpt><trkpt lat="41.10126" lon="14.61646"><ele>951.0</ele><time>2026-04-25T12:15:59.158Z</time></trkpt><trkpt lat="41.1012912" lon="14.6165578"><ele>951.0</ele><time>2026-04-25T12:16:00.158Z</time></trkpt><trkpt lat="41.1013076" lon="14.6166458"><ele>949.6666666666666</ele><time>2026-04-25T12:16:01.158Z</time></trkpt><trkpt lat="41.1013073" lon="14.6167343"><ele>948.3333333333333</ele><time>2026-04-25T12:16:02.159Z</time></trkpt><trkpt lat="41.1012879" lon="14.6168247"><ele>947.0</ele><time>2026-04-25T12:16:03.158Z</time></trkpt><trkpt lat="41.1012521" lon="14.6169147"><ele>945.6666666666666</ele><time>2026-04-25T12:16:04.158Z</time></trkpt><trkpt lat="41.1011965" lon="14.6170021"><ele>944.3333333333333</ele><time>2026-04-25T12:16:05.158Z</time></trkpt><trkpt lat="41.1011322" lon="14.6170902"><ele>943.0</ele><time>2026-04-25T12:16:06.159Z</time></trkpt><trkpt lat="41.1010639" lon="14.6171797"><ele>941.8333333333333</ele><time>2026-04-25T12:16:07.159Z</time></trkpt><trkpt lat="41.1009908" lon="14.6172659"><ele>940.6666666666666</ele><time>2026-04-25T12:16:08.163Z</time></trkpt><trkpt lat="41.1009205" lon="14.6173385"><ele>939.5</ele><time>2026-04-25T12:16:09.157Z</time></trkpt><trkpt lat="41.1008511" lon="14.6173923"><ele>938.3333333333333</ele><time>2026-04-25T12:16:10.158Z</time></trkpt><trkpt lat="41.1007767" lon="14.6174253"><ele>937.1666666666666</ele><time>2026-04-25T12:16:11.162Z</time></trkpt><trkpt lat="41.1006967" lon="14.6174483"><ele>936.0</ele><time>2026-04-25T12:16:12.16Z</time></trkpt><trkpt lat="41.1006183" lon="14.61746"><ele>935.3333333333334</ele><time>2026-04-25T12:16:13.159Z</time></trkpt><trkpt lat="41.10054" lon="14.61745"><ele>934.6666666666667</ele><time>2026-04-25T12:16:14.158Z</time></trkpt><trkpt lat="41.1004633" lon="14.6174067"><ele>934.0</ele><time>2026-04-25T12:16:15.158Z</time></trkpt><trkpt lat="41.100395" lon="14.6173317"><ele>933.3333333333334</ele><time>2026-04-25T12:16:16.16Z</time></trkpt><trkpt lat="41.10034" lon="14.6172367"><ele>932.6666666666667</ele><time>2026-04-25T12:16:17.158Z</time></trkpt><trkpt lat="41.1002967" lon="14.6171317"><ele>932.0</ele><time>2026-04-25T12:16:18.159Z</time></trkpt><trkpt lat="41.10026" lon="14.6170283"><ele>933.0000000000001</ele><time>2026-04-25T12:16:19.158Z</time></trkpt><trkpt lat="41.1002317" lon="14.6169217"><ele>934.0</ele><time>2026-04-25T12:16:20.161Z</time></trkpt><trkpt lat="41.1002" lon="14.6168183"><ele>935.0</ele><time>2026-04-25T12:16:21.157Z</time></trkpt><trkpt lat="41.10017" lon="14.61672"><ele>936.0</ele><time>2026-04-25T12:16:22.158Z</time></trkpt><trkpt lat="41.1001367" lon="14.6166283"><ele>937.0000000000001</ele><time>2026-04-25T12:16:23.16Z</time></trkpt><trkpt lat="41.1001033" lon="14.61654"><ele>938.0</ele><time>2026-04-25T12:16:24.159Z</time></trkpt><trkpt lat="41.100075" lon="14.616455"><ele>938.0</ele><time>2026-04-25T12:16:25.158Z</time></trkpt><trkpt lat="41.1000467" lon="14.6163767"><ele>938.0</ele><time>2026-04-25T12:16:26.159Z</time></trkpt><trkpt lat="41.0999983" lon="14.6162417"><ele>938.0</ele><time>2026-04-25T12:16:28.157Z</time></trkpt><trkpt lat="41.0999567" lon="14.6161233"><ele>938.0</ele><time>2026-04-25T12:16:30.159Z</time></trkpt><trkpt lat="41.0999" lon="14.6160067"><ele>938.0</ele><time>2026-04-25T12:16:32.16Z</time></trkpt><trkpt lat="41.0998333" lon="14.6159117"><ele>937.1666666666667</ele><time>2026-04-25T12:16:34.159Z</time></trkpt><trkpt lat="41.09974" lon="14.6158433"><ele>936.3333333333334</ele><time>2026-04-25T12:16:36.158Z</time></trkpt><trkpt lat="41.0996267" lon="14.6157967"><ele>935.5</ele><time>2026-04-25T12:16:38.16Z</time></trkpt><trkpt lat="41.0995617" lon="14.6157783"><ele>934.6666666666667</ele><time>2026-04-25T12:16:39.161Z</time></trkpt><trkpt lat="41.099495" lon="14.6157617"><ele>933.8333333333334</ele><time>2026-04-25T12:16:40.16Z</time></trkpt><trkpt lat="41.0994283" lon="14.6157483"><ele>933.0</ele><time>2026-04-25T12:16:41.16Z</time></trkpt><trkpt lat="41.0993567" lon="14.6157333"><ele>933.0</ele><time>2026-04-25T12:16:42.16Z</time></trkpt><trkpt lat="41.0992833" lon="14.615715"><ele>933.0</ele><time>2026-04-25T12:16:43.16Z</time></trkpt><trkpt lat="41.0992067" lon="14.6156933"><ele>933.0</ele><time>2026-04-25T12:16:44.161Z</time></trkpt><trkpt lat="41.099135" lon="14.61568"><ele>933.0</ele><time>2026-04-25T12:16:45.158Z</time></trkpt><trkpt lat="41.0990583" lon="14.6156867"><ele>933.0</ele><time>2026-04-25T12:16:46.158Z</time></trkpt><trkpt lat="41.09899" lon="14.6157167"><ele>933.0</ele><time>2026-04-25T12:16:47.158Z</time></trkpt><trkpt lat="41.0989233" lon="14.6157733"><ele>927.1666666666666</ele><time>2026-04-25T12:16:48.158Z</time></trkpt><trkpt lat="41.0988617" lon="14.61584"><ele>921.3333333333333</ele><time>2026-04-25T12:16:49.158Z</time></trkpt><trkpt lat="41.0988017" lon="14.615915"><ele>915.5</ele><time>2026-04-25T12:16:50.16Z</time></trkpt><trkpt lat="41.09875" lon="14.6159933"><ele>909.6666666666666</ele><time>2026-04-25T12:16:51.158Z</time></trkpt><trkpt lat="41.0987067" lon="14.6160817"><ele>903.8333333333333</ele><time>2026-04-25T12:16:52.158Z</time></trkpt><trkpt lat="41.0986767" lon="14.6161767"><ele>898.0</ele><time>2026-04-25T12:16:53.16Z</time></trkpt><trkpt lat="41.0986633" lon="14.61628"><ele>897.9999999999999</ele><time>2026-04-25T12:16:54.161Z</time></trkpt><trkpt lat="41.098665" lon="14.616385"><ele>898.0</ele><time>2026-04-25T12:16:55.158Z</time></trkpt><trkpt lat="41.098685" lon="14.61649"><ele>898.0</ele><time>2026-04-25T12:16:56.161Z</time></trkpt><trkpt lat="41.0987033" lon="14.6165967"><ele>898.0</ele><time>2026-04-25T12:16:57.159Z</time></trkpt><trkpt lat="41.0987183" lon="14.616705"><ele>897.9999999999999</ele><time>2026-04-25T12:16:58.16Z</time></trkpt><trkpt lat="41.0987233" lon="14.6168167"><ele>898.0</ele><time>2026-04-25T12:16:59.159Z</time></trkpt><trkpt lat="41.0987233" lon="14.6169233"><ele>895.9999999999999</ele><time>2026-04-25T12:17:00.16Z</time></trkpt><trkpt lat="41.0987283" lon="14.617025"><ele>894.0</ele><time>2026-04-25T12:17:01.161Z</time></trkpt><trkpt lat="41.0987483" lon="14.6171167"><ele>892.0</ele><time>2026-04-25T12:17:02.16Z</time></trkpt><trkpt lat="41.098785" lon="14.6172"><ele>890.0</ele><time>2026-04-25T12:17:03.159Z</time></trkpt><trkpt lat="41.09884" lon="14.61727"><ele>887.9999999999999</ele><time>2026-04-25T12:17:04.161Z</time></trkpt><trkpt lat="41.0989067" lon="14.61733"><ele>886.0</ele><time>2026-04-25T12:17:05.161Z</time></trkpt><trkpt lat="41.0989767" lon="14.6173717"><ele>885.9999999999999</ele><time>2026-04-25T12:17:06.16Z</time></trkpt><trkpt lat="41.09906" lon="14.6174067"><ele>886.0</ele><time>2026-04-25T12:17:07.167Z</time></trkpt><trkpt lat="41.099135" lon="14.6174383"><ele>886.0</ele><time>2026-04-25T12:17:08.163Z</time></trkpt><trkpt lat="41.0992117" lon="14.61747"><ele>886.0</ele><time>2026-04-25T12:17:09.159Z</time></trkpt><trkpt lat="41.0992883" lon="14.6175283"><ele>885.9999999999999</ele><time>2026-04-25T12:17:10.159Z</time></trkpt><trkpt lat="41.0993633" lon="14.6175983"><ele>886.0</ele><time>2026-04-25T12:17:11.16Z</time></trkpt><trkpt lat="41.0994367" lon="14.617675"><ele>887.9999999999999</ele><time>2026-04-25T12:17:12.161Z</time></trkpt><trkpt lat="41.0995083" lon="14.6177533"><ele>890.0</ele><time>2026-04-25T12:17:13.16Z</time></trkpt><trkpt lat="41.099575" lon="14.6178267"><ele>892.0</ele><time>2026-04-25T12:17:14.16Z</time></trkpt><trkpt lat="41.0996333" lon="14.6178933"><ele>894.0</ele><time>2026-04-25T12:17:15.158Z</time></trkpt><trkpt lat="41.0996883" lon="14.6179583"><ele>895.9999999999999</ele><time>2026-04-25T12:17:16.159Z</time></trkpt><trkpt lat="41.099745" lon="14.6180267"><ele>898.0</ele><time>2026-04-25T12:17:17.158Z</time></trkpt><trkpt lat="41.0998117" lon="14.6180967"><ele>898.0</ele><time>2026-04-25T12:17:18.16Z</time></trkpt><trkpt lat="41.0998767" lon="14.6181617"><ele>898.0</ele><time>2026-04-25T12:17:19.158Z</time></trkpt><trkpt lat="41.0999383" lon="14.6182133"><ele>898.0</ele><time>2026-04-25T12:17:20.159Z</time></trkpt><trkpt lat="41.1000417" lon="14.6182917"><ele>898.0</ele><time>2026-04-25T12:17:22.159Z</time></trkpt><trkpt lat="41.1001617" lon="14.6183583"><ele>898.0</ele><time>2026-04-25T12:17:24.158Z</time></trkpt><trkpt lat="41.10023" lon="14.6183967"><ele>900.6666666666666</ele><time>2026-04-25T12:17:25.158Z</time></trkpt><trkpt lat="41.100305" lon="14.6184317"><ele>903.3333333333333</ele><time>2026-04-25T12:17:26.159Z</time></trkpt><trkpt lat="41.10038" lon="14.6184617"><ele>906.0</ele><time>2026-04-25T12:17:27.159Z</time></trkpt><trkpt lat="41.1004767" lon="14.6184817"><ele>908.6666666666667</ele><time>2026-04-25T12:17:28.159Z</time></trkpt><trkpt lat="41.100565" lon="14.6185083"><ele>911.3333333333334</ele><time>2026-04-25T12:17:29.161Z</time></trkpt><trkpt lat="41.10064" lon="14.6185317"><ele>914.0</ele><time>2026-04-25T12:17:30.161Z</time></trkpt><trkpt lat="41.10071" lon="14.6185567"><ele>913.4285714285716</ele><time>2026-04-25T12:17:31.159Z</time></trkpt><trkpt lat="41.1007733" lon="14.6185817"><ele>912.8571428571429</ele><time>2026-04-25T12:17:32.161Z</time></trkpt><trkpt lat="41.1008367" lon="14.6186183"><ele>912.2857142857143</ele><time>2026-04-25T12:17:33.161Z</time></trkpt><trkpt lat="41.1008983" lon="14.6186683"><ele>911.7142857142858</ele><time>2026-04-25T12:17:34.162Z</time></trkpt><trkpt lat="41.1009567" lon="14.618735"><ele>911.1428571428571</ele><time>2026-04-25T12:17:35.161Z</time></trkpt><trkpt lat="41.1010133" lon="14.6188083"><ele>910.5714285714286</ele><time>2026-04-25T12:17:36.159Z</time></trkpt><trkpt lat="41.1010633" lon="14.6188783"><ele>910.0</ele><time>2026-04-25T12:17:37.159Z</time></trkpt><trkpt lat="41.101165" lon="14.6189733"><ele>905.6666666666666</ele><time>2026-04-25T12:17:39.16Z</time></trkpt><trkpt lat="41.1012317" lon="14.6190067"><ele>901.3333333333333</ele><time>2026-04-25T12:17:40.16Z</time></trkpt><trkpt lat="41.1013083" lon="14.619025"><ele>897.0</ele><time>2026-04-25T12:17:41.162Z</time></trkpt><trkpt lat="41.1013917" lon="14.6190283"><ele>892.6666666666667</ele><time>2026-04-25T12:17:42.161Z</time></trkpt><trkpt lat="41.1014683" lon="14.6190183"><ele>888.3333333333334</ele><time>2026-04-25T12:17:43.161Z</time></trkpt><trkpt lat="41.101545" lon="14.6190033"><ele>884.0</ele><time>2026-04-25T12:17:44.162Z</time></trkpt><trkpt lat="41.1016133" lon="14.6189883"><ele>884.0000000000001</ele><time>2026-04-25T12:17:45.162Z</time></trkpt><trkpt lat="41.101715" lon="14.618935"><ele>884.0</ele><time>2026-04-25T12:17:47.159Z</time></trkpt><trkpt lat="41.1017733" lon="14.6188183"><ele>884.0</ele><time>2026-04-25T12:17:49.158Z</time></trkpt><trkpt lat="41.10179" lon="14.6187317"><ele>884.0</ele><time>2026-04-25T12:17:50.16Z</time></trkpt><trkpt lat="41.1018" lon="14.6186417"><ele>884.0000000000001</ele><time>2026-04-25T12:17:51.159Z</time></trkpt><trkpt lat="41.1018067" lon="14.6185583"><ele>884.0</ele><time>2026-04-25T12:17:52.159Z</time></trkpt><trkpt lat="41.1018433" lon="14.618435"><ele>886.8333333333334</ele><time>2026-04-25T12:17:54.159Z</time></trkpt><trkpt lat="41.1019133" lon="14.6183717"><ele>889.6666666666667</ele><time>2026-04-25T12:17:56.16Z</time></trkpt><trkpt lat="41.102025" lon="14.6183917"><ele>892.5</ele><time>2026-04-25T12:17:58.159Z</time></trkpt><trkpt lat="41.1020867" lon="14.618425"><ele>895.3333333333333</ele><time>2026-04-25T12:17:59.16Z</time></trkpt><trkpt lat="41.1021533" lon="14.6184533"><ele>898.1666666666666</ele><time>2026-04-25T12:18:00.159Z</time></trkpt><trkpt lat="41.1022233" lon="14.61845"><ele>901.0</ele><time>2026-04-25T12:18:01.161Z</time></trkpt><trkpt lat="41.1023" lon="14.61844"><ele>900.9999999999999</ele><time>2026-04-25T12:18:02.158Z</time></trkpt><trkpt lat="41.1023833" lon="14.618385"><ele>901.0</ele><time>2026-04-25T12:18:03.158Z</time></trkpt><trkpt lat="41.102465" lon="14.6183417"><ele>901.0</ele><time>2026-04-25T12:18:04.159Z</time></trkpt><trkpt lat="41.1025433" lon="14.618295"><ele>901.0</ele><time>2026-04-25T12:18:05.158Z</time></trkpt><trkpt lat="41.102615" lon="14.6182417"><ele>900.9999999999999</ele><time>2026-04-25T12:18:06.161Z</time></trkpt><trkpt lat="41.1026733" lon="14.6181933"><ele>901.0</ele><time>2026-04-25T12:18:07.159Z</time></trkpt><trkpt lat="41.1027267" lon="14.6181467"><ele>898.8</ele><time>2026-04-25T12:18:08.16Z</time></trkpt><trkpt lat="41.102825" lon="14.61806"><ele>896.5999999999999</ele><time>2026-04-25T12:18:10.159Z</time></trkpt><trkpt lat="41.1029317" lon="14.6179667"><ele>894.4</ele><time>2026-04-25T12:18:12.161Z</time></trkpt><trkpt lat="41.103" lon="14.61791"><ele>892.2</ele><time>2026-04-25T12:18:13.159Z</time></trkpt><trkpt lat="41.1030583" lon="14.61787"><ele>890.0</ele><time>2026-04-25T12:18:14.162Z</time></trkpt><trkpt lat="41.103175" lon="14.617825"><ele>889.8333333333334</ele><time>2026-04-25T12:18:16.16Z</time></trkpt><trkpt lat="41.103295" lon="14.6177783"><ele>889.6666666666667</ele><time>2026-04-25T12:18:18.158Z</time></trkpt><trkpt lat="41.103365" lon="14.617755"><ele>889.5</ele><time>2026-04-25T12:18:19.161Z</time></trkpt><trkpt lat="41.1034383" lon="14.6177317"><ele>889.3333333333333</ele><time>2026-04-25T12:18:20.162Z</time></trkpt><trkpt lat="41.1035117" lon="14.6177233"><ele>889.1666666666666</ele><time>2026-04-25T12:18:21.159Z</time></trkpt><trkpt lat="41.1035883" lon="14.6177183"><ele>889.0</ele><time>2026-04-25T12:18:22.159Z</time></trkpt><trkpt lat="41.1036667" lon="14.61773"><ele>888.9999999999999</ele><time>2026-04-25T12:18:23.16Z</time></trkpt><trkpt lat="41.10375" lon="14.6177483"><ele>889.0</ele><time>2026-04-25T12:18:24.159Z</time></trkpt><trkpt lat="41.1038317" lon="14.61776"><ele>889.0</ele><time>2026-04-25T12:18:25.161Z</time></trkpt><trkpt lat="41.1039133" lon="14.617765"><ele>889.0</ele><time>2026-04-25T12:18:26.16Z</time></trkpt><trkpt lat="41.1039817" lon="14.617755"><ele>888.9999999999999</ele><time>2026-04-25T12:18:27.16Z</time></trkpt><trkpt lat="41.104095" lon="14.6177267"><ele>889.0</ele><time>2026-04-25T12:18:29.159Z</time></trkpt><trkpt lat="41.10417" lon="14.6176933"><ele>884.4000000000001</ele><time>2026-04-25T12:18:31.158Z</time></trkpt><trkpt lat="41.1042483" lon="14.6177083"><ele>879.8000000000001</ele><time>2026-04-25T12:18:33.161Z</time></trkpt><trkpt lat="41.1043033" lon="14.61781"><ele>875.1999999999999</ele><time>2026-04-25T12:18:35.158Z</time></trkpt><trkpt lat="41.10429" lon="14.617935"><ele>870.5999999999999</ele><time>2026-04-25T12:18:37.159Z</time></trkpt><trkpt lat="41.1042167" lon="14.6180283"><ele>866.0</ele><time>2026-04-25T12:18:39.159Z</time></trkpt><trkpt lat="41.10411" lon="14.6180667"><ele>865.2857142857142</ele><time>2026-04-25T12:18:41.16Z</time></trkpt><trkpt lat="41.10403" lon="14.6180533"><ele>864.5714285714286</ele><time>2026-04-25T12:18:42.16Z</time></trkpt><trkpt lat="41.10395" lon="14.61804"><ele>863.8571428571429</ele><time>2026-04-25T12:18:43.163Z</time></trkpt><trkpt lat="41.1038733" lon="14.6180333"><ele>863.1428571428571</ele><time>2026-04-25T12:18:44.159Z</time></trkpt><trkpt lat="41.1038033" lon="14.61804"><ele>862.4285714285714</ele><time>2026-04-25T12:18:45.16Z</time></trkpt><trkpt lat="41.1037317" lon="14.6180583"><ele>861.7142857142857</ele><time>2026-04-25T12:18:46.159Z</time></trkpt><trkpt lat="41.10367" lon="14.618095"><ele>861.0</ele><time>2026-04-25T12:18:47.16Z</time></trkpt><trkpt lat="41.103605" lon="14.6181567"><ele>861.0</ele><time>2026-04-25T12:18:48.158Z</time></trkpt><trkpt lat="41.1035433" lon="14.6182133"><ele>860.9999999999999</ele><time>2026-04-25T12:18:49.158Z</time></trkpt><trkpt lat="41.1034933" lon="14.618275"><ele>860.9999999999999</ele><time>2026-04-25T12:18:50.16Z</time></trkpt><trkpt lat="41.1034317" lon="14.6184133"><ele>861.0</ele><time>2026-04-25T12:18:52.158Z</time></trkpt><trkpt lat="41.1034183" lon="14.6184983"><ele>861.0</ele><time>2026-04-25T12:18:53.16Z</time></trkpt><trkpt lat="41.1033967" lon="14.6186583"><ele>861.5</ele><time>2026-04-25T12:18:55.158Z</time></trkpt><trkpt lat="41.10339" lon="14.6187417"><ele>862.0</ele><time>2026-04-25T12:18:56.159Z</time></trkpt><trkpt lat="41.1033883" lon="14.61883"><ele>862.5</ele><time>2026-04-25T12:18:57.16Z</time></trkpt><trkpt lat="41.1033717" lon="14.618915"><ele>863.0</ele><time>2026-04-25T12:18:58.16Z</time></trkpt><trkpt lat="41.1033733" lon="14.6190233"><ele>863.5</ele><time>2026-04-25T12:18:59.158Z</time></trkpt><trkpt lat="41.1033433" lon="14.6191"><ele>864.0</ele><time>2026-04-25T12:19:00.159Z</time></trkpt><trkpt lat="41.1032317" lon="14.6191683"><ele>864.0</ele><time>2026-04-25T12:19:02.16Z</time></trkpt><trkpt lat="41.10311" lon="14.619175"><ele>864.0000000000001</ele><time>2026-04-25T12:19:04.16Z</time></trkpt><trkpt lat="41.102985" lon="14.6191667"><ele>864.0000000000001</ele><time>2026-04-25T12:19:06.161Z</time></trkpt><trkpt lat="41.10292" lon="14.6191667"><ele>864.0</ele><time>2026-04-25T12:19:07.158Z</time></trkpt><trkpt lat="41.1028067" lon="14.6191917"><ele>864.0</ele><time>2026-04-25T12:19:09.159Z</time></trkpt><trkpt lat="41.1027117" lon="14.6192933"><ele>864.0</ele><time>2026-04-25T12:19:11.161Z</time></trkpt><trkpt lat="41.1026417" lon="14.61942"><ele>864.0000000000001</ele><time>2026-04-25T12:19:13.16Z</time></trkpt><trkpt lat="41.10266" lon="14.6195583"><ele>864.0000000000001</ele><time>2026-04-25T12:19:15.16Z</time></trkpt><trkpt lat="41.1027633" lon="14.6196533"><ele>864.0</ele><time>2026-04-25T12:19:17.158Z</time></trkpt><trkpt lat="41.102825" lon="14.6196767"><ele>864.0</ele><time>2026-04-25T12:19:18.159Z</time></trkpt><trkpt lat="41.1029017" lon="14.6196867"><ele>859.4000000000001</ele><time>2026-04-25T12:19:19.159Z</time></trkpt><trkpt lat="41.1029683" lon="14.619695"><ele>854.8000000000001</ele><time>2026-04-25T12:19:20.159Z</time></trkpt><trkpt lat="41.103035" lon="14.619705"><ele>850.2</ele><time>2026-04-25T12:19:21.158Z</time></trkpt><trkpt lat="41.1031633" lon="14.619735"><ele>845.5999999999999</ele><time>2026-04-25T12:19:23.158Z</time></trkpt><trkpt lat="41.10326" lon="14.61978"><ele>841.0</ele><time>2026-04-25T12:19:25.159Z</time></trkpt><trkpt lat="41.1033317" lon="14.619845"><ele>839.4999999999999</ele><time>2026-04-25T12:19:27.16Z</time></trkpt><trkpt lat="41.10337" lon="14.6199383"><ele>838.0</ele><time>2026-04-25T12:19:29.161Z</time></trkpt><trkpt lat="41.10339" lon="14.6200867"><ele>836.5</ele><time>2026-04-25T12:19:31.16Z</time></trkpt><trkpt lat="41.1033983" lon="14.620185"><ele>835.0</ele><time>2026-04-25T12:19:32.159Z</time></trkpt><trkpt lat="41.10341" lon="14.6202867"><ele>833.4999999999999</ele><time>2026-04-25T12:19:33.159Z</time></trkpt><trkpt lat="41.1034217" lon="14.6203833"><ele>832.0</ele><time>2026-04-25T12:19:34.158Z</time></trkpt><trkpt lat="41.103435" lon="14.62048"><ele>830.3333333333333</ele><time>2026-04-25T12:19:35.159Z</time></trkpt><trkpt lat="41.103435" lon="14.6205683"><ele>828.6666666666666</ele><time>2026-04-25T12:19:36.161Z</time></trkpt><trkpt lat="41.1034233" lon="14.6207233"><ele>827.0</ele><time>2026-04-25T12:19:38.159Z</time></trkpt><trkpt lat="41.1033567" lon="14.6208217"><ele>825.3333333333333</ele><time>2026-04-25T12:19:40.159Z</time></trkpt><trkpt lat="41.1032983" lon="14.6208533"><ele>823.6666666666666</ele><time>2026-04-25T12:19:41.158Z</time></trkpt><trkpt lat="41.1032183" lon="14.620875"><ele>822.0</ele><time>2026-04-25T12:19:42.161Z</time></trkpt><trkpt lat="41.1031317" lon="14.6208967"><ele>822.0</ele><time>2026-04-25T12:19:43.16Z</time></trkpt><trkpt lat="41.1030383" lon="14.6209167"><ele>822.0</ele><time>2026-04-25T12:19:44.166Z</time></trkpt><trkpt lat="41.1029517" lon="14.62094"><ele>822.0</ele><time>2026-04-25T12:19:45.16Z</time></trkpt><trkpt lat="41.102875" lon="14.6209733"><ele>822.0</ele><time>2026-04-25T12:19:46.16Z</time></trkpt><trkpt lat="41.10281" lon="14.621015"><ele>822.0</ele><time>2026-04-25T12:19:47.161Z</time></trkpt><trkpt lat="41.1027167" lon="14.6210983"><ele>822.0</ele><time>2026-04-25T12:19:49.161Z</time></trkpt><trkpt lat="41.1026667" lon="14.6212083"><ele>817.8</ele><time>2026-04-25T12:19:51.16Z</time></trkpt><trkpt lat="41.1026583" lon="14.6213367"><ele>813.6</ele><time>2026-04-25T12:19:53.159Z</time></trkpt><trkpt lat="41.1026967" lon="14.6214467"><ele>809.4</ele><time>2026-04-25T12:19:55.162Z</time></trkpt><trkpt lat="41.1028117" lon="14.62153"><ele>805.1999999999999</ele><time>2026-04-25T12:19:57.159Z</time></trkpt><trkpt lat="41.1028867" lon="14.6215417"><ele>801.0</ele><time>2026-04-25T12:19:58.16Z</time></trkpt><trkpt lat="41.1029583" lon="14.6215267"><ele>801.0</ele><time>2026-04-25T12:19:59.16Z</time></trkpt><trkpt lat="41.1030383" lon="14.6215083"><ele>801.0</ele><time>2026-04-25T12:20:00.161Z</time></trkpt><trkpt lat="41.103115" lon="14.6214883"><ele>801.0</ele><time>2026-04-25T12:20:01.161Z</time></trkpt><trkpt lat="41.1031883" lon="14.621475"><ele>801.0</ele><time>2026-04-25T12:20:02.162Z</time></trkpt><trkpt lat="41.103275" lon="14.6214683"><ele>801.0</ele><time>2026-04-25T12:20:03.161Z</time></trkpt><trkpt lat="41.10336" lon="14.62146"><ele>801.0</ele><time>2026-04-25T12:20:04.161Z</time></trkpt><trkpt lat="41.1034333" lon="14.6214633"><ele>800.5</ele><time>2026-04-25T12:20:05.161Z</time></trkpt><trkpt lat="41.1035033" lon="14.621475"><ele>800.0</ele><time>2026-04-25T12:20:06.158Z</time></trkpt><trkpt lat="41.1035733" lon="14.6214983"><ele>799.5</ele><time>2026-04-25T12:20:07.161Z</time></trkpt><trkpt lat="41.1036283" lon="14.6215417"><ele>799.0</ele><time>2026-04-25T12:20:08.163Z</time></trkpt><trkpt lat="41.10368" lon="14.6215917"><ele>798.5</ele><time>2026-04-25T12:20:09.158Z</time></trkpt><trkpt lat="41.1037433" lon="14.621705"><ele>798.0</ele><time>2026-04-25T12:20:11.161Z</time></trkpt><trkpt lat="41.1037717" lon="14.6218783"><ele>796.1666666666666</ele><time>2026-04-25T12:20:13.161Z</time></trkpt><trkpt lat="41.103765" lon="14.6219867"><ele>794.3333333333333</ele><time>2026-04-25T12:20:14.162Z</time></trkpt><trkpt lat="41.1037467" lon="14.62209"><ele>792.5</ele><time>2026-04-25T12:20:15.158Z</time></trkpt><trkpt lat="41.1037267" lon="14.6221883"><ele>790.6666666666666</ele><time>2026-04-25T12:20:16.159Z</time></trkpt><trkpt lat="41.1037067" lon="14.62228"><ele>788.8333333333333</ele><time>2026-04-25T12:20:17.16Z</time></trkpt><trkpt lat="41.103685" lon="14.6223667"><ele>787.0</ele><time>2026-04-25T12:20:18.161Z</time></trkpt><trkpt lat="41.1036617" lon="14.6224583"><ele>787.0</ele><time>2026-04-25T12:20:19.16Z</time></trkpt><trkpt lat="41.1036367" lon="14.622545"><ele>787.0</ele><time>2026-04-25T12:20:20.159Z</time></trkpt><trkpt lat="41.103585" lon="14.6226833"><ele>787.0</ele><time>2026-04-25T12:20:22.159Z</time></trkpt><trkpt lat="41.1035067" lon="14.6228083"><ele>787.0</ele><time>2026-04-25T12:20:24.159Z</time></trkpt><trkpt lat="41.1034167" lon="14.62291"><ele>787.0</ele><time>2026-04-25T12:20:26.159Z</time></trkpt><trkpt lat="41.10331" lon="14.6229867"><ele>785.0</ele><time>2026-04-25T12:20:28.16Z</time></trkpt><trkpt lat="41.1032467" lon="14.62302"><ele>783.0</ele><time>2026-04-25T12:20:29.159Z</time></trkpt><trkpt lat="41.1031733" lon="14.6230517"><ele>781.0</ele><time>2026-04-25T12:20:30.161Z</time></trkpt><trkpt lat="41.1031" lon="14.6230867"><ele>779.0</ele><time>2026-04-25T12:20:31.163Z</time></trkpt><trkpt lat="41.1030283" lon="14.6231233"><ele>777.0</ele><time>2026-04-25T12:20:32.163Z</time></trkpt><trkpt lat="41.102965" lon="14.6231633"><ele>775.0</ele><time>2026-04-25T12:20:33.161Z</time></trkpt><trkpt lat="41.1029083" lon="14.6232133"><ele>773.0</ele><time>2026-04-25T12:20:34.159Z</time></trkpt><trkpt lat="41.1028517" lon="14.6232767"><ele>773.0</ele><time>2026-04-25T12:20:35.162Z</time></trkpt><trkpt lat="41.102815" lon="14.6233667"><ele>773.0</ele><time>2026-04-25T12:20:36.16Z</time></trkpt><trkpt lat="41.1027917" lon="14.6234667"><ele>773.0</ele><time>2026-04-25T12:20:37.163Z</time></trkpt><trkpt lat="41.1027883" lon="14.6235717"><ele>773.0</ele><time>2026-04-25T12:20:38.163Z</time></trkpt><trkpt lat="41.102795" lon="14.6236683"><ele>773.0</ele><time>2026-04-25T12:20:39.161Z</time></trkpt><trkpt lat="41.1028017" lon="14.6237567"><ele>773.0</ele><time>2026-04-25T12:20:40.162Z</time></trkpt><trkpt lat="41.10281" lon="14.623845"><ele>773.0</ele><time>2026-04-25T12:20:41.161Z</time></trkpt><trkpt lat="41.1028233" lon="14.6239417"><ele>770.8</ele><time>2026-04-25T12:20:42.163Z</time></trkpt><trkpt lat="41.10284" lon="14.62405"><ele>768.5999999999999</ele><time>2026-04-25T12:20:43.158Z</time></trkpt><trkpt lat="41.1028633" lon="14.624165"><ele>766.4000000000001</ele><time>2026-04-25T12:20:44.163Z</time></trkpt><trkpt lat="41.10289" lon="14.6242883"><ele>764.2</ele><time>2026-04-25T12:20:45.163Z</time></trkpt><trkpt lat="41.10292" lon="14.6244183"><ele>762.0</ele><time>2026-04-25T12:20:46.163Z</time></trkpt><trkpt lat="41.102955" lon="14.6245517"><ele>760.4000000000001</ele><time>2026-04-25T12:20:47.161Z</time></trkpt><trkpt lat="41.10299" lon="14.6246833"><ele>758.8000000000001</ele><time>2026-04-25T12:20:48.163Z</time></trkpt><trkpt lat="41.1030233" lon="14.6248117"><ele>757.2</ele><time>2026-04-25T12:20:49.163Z</time></trkpt><trkpt lat="41.1030517" lon="14.624935"><ele>755.6</ele><time>2026-04-25T12:20:50.167Z</time></trkpt><trkpt lat="41.1030817" lon="14.6250583"><ele>754.0</ele><time>2026-04-25T12:20:51.162Z</time></trkpt><trkpt lat="41.1031133" lon="14.6251783"><ele>754.0</ele><time>2026-04-25T12:20:52.161Z</time></trkpt><trkpt lat="41.103135" lon="14.6252967"><ele>754.0</ele><time>2026-04-25T12:20:53.161Z</time></trkpt><trkpt lat="41.1031483" lon="14.6254067"><ele>754.0</ele><time>2026-04-25T12:20:54.163Z</time></trkpt><trkpt lat="41.1031667" lon="14.6255167"><ele>754.0</ele><time>2026-04-25T12:20:55.161Z</time></trkpt><trkpt lat="41.1031767" lon="14.6256233"><ele>754.0</ele><time>2026-04-25T12:20:56.163Z</time></trkpt><trkpt lat="41.1031833" lon="14.6257317"><ele>754.0</ele><time>2026-04-25T12:20:57.161Z</time></trkpt><trkpt lat="41.10318" lon="14.6258417"><ele>753.8333333333334</ele><time>2026-04-25T12:20:58.161Z</time></trkpt><trkpt lat="41.1031783" lon="14.625955"><ele>753.6666666666667</ele><time>2026-04-25T12:20:59.16Z</time></trkpt><trkpt lat="41.103165" lon="14.6260617"><ele>753.5</ele><time>2026-04-25T12:21:00.158Z</time></trkpt><trkpt lat="41.1031483" lon="14.6261683"><ele>753.3333333333334</ele><time>2026-04-25T12:21:01.16Z</time></trkpt><trkpt lat="41.10313" lon="14.6262817"><ele>753.1666666666666</ele><time>2026-04-25T12:21:02.16Z</time></trkpt><trkpt lat="41.103105" lon="14.6263883"><ele>753.0</ele><time>2026-04-25T12:21:03.162Z</time></trkpt><trkpt lat="41.1030767" lon="14.6264933"><ele>752.5</ele><time>2026-04-25T12:21:04.159Z</time></trkpt><trkpt lat="41.1030433" lon="14.6265867"><ele>752.0</ele><time>2026-04-25T12:21:05.159Z</time></trkpt><trkpt lat="41.103015" lon="14.6266667"><ele>751.5</ele><time>2026-04-25T12:21:06.159Z</time></trkpt><trkpt lat="41.1029633" lon="14.626785"><ele>751.0</ele><time>2026-04-25T12:21:08.163Z</time></trkpt><trkpt lat="41.102895" lon="14.62688"><ele>750.5</ele><time>2026-04-25T12:21:10.163Z</time></trkpt><trkpt lat="41.102815" lon="14.6269433"><ele>750.0</ele><time>2026-04-25T12:21:12.16Z</time></trkpt><trkpt lat="41.1026967" lon="14.6269483"><ele>750.0</ele><time>2026-04-25T12:21:14.16Z</time></trkpt><trkpt lat="41.10263" lon="14.6269283"><ele>750.0</ele><time>2026-04-25T12:21:15.16Z</time></trkpt><trkpt lat="41.1025633" lon="14.6269033"><ele>750.0</ele><time>2026-04-25T12:21:16.158Z</time></trkpt><trkpt lat="41.102495" lon="14.6268683"><ele>750.0</ele><time>2026-04-25T12:21:17.16Z</time></trkpt><trkpt lat="41.1024267" lon="14.6268283"><ele>750.0</ele><time>2026-04-25T12:21:18.16Z</time></trkpt><trkpt lat="41.10236" lon="14.62679"><ele>750.0</ele><time>2026-04-25T12:21:19.16Z</time></trkpt><trkpt lat="41.1023017" lon="14.6267433"><ele>750.0</ele><time>2026-04-25T12:21:20.161Z</time></trkpt><trkpt lat="41.1022367" lon="14.626685"><ele>748.1428571428572</ele><time>2026-04-25T12:21:21.16Z</time></trkpt><trkpt lat="41.1021817" lon="14.626615"><ele>746.2857142857142</ele><time>2026-04-25T12:21:22.16Z</time></trkpt><trkpt lat="41.1021383" lon="14.6265367"><ele>744.4285714285714</ele><time>2026-04-25T12:21:23.161Z</time></trkpt><trkpt lat="41.1021033" lon="14.62646"><ele>742.5714285714287</ele><time>2026-04-25T12:21:24.162Z</time></trkpt><trkpt lat="41.10207" lon="14.62637"><ele>740.7142857142858</ele><time>2026-04-25T12:21:25.161Z</time></trkpt><trkpt lat="41.1020433" lon="14.62628"><ele>738.8571428571429</ele><time>2026-04-25T12:21:26.16Z</time></trkpt><trkpt lat="41.1020217" lon="14.626185"><ele>737.0</ele><time>2026-04-25T12:21:27.162Z</time></trkpt><trkpt lat="41.102" lon="14.6260917"><ele>737.0</ele><time>2026-04-25T12:21:28.16Z</time></trkpt><trkpt lat="41.10198" lon="14.6259933"><ele>737.0</ele><time>2026-04-25T12:21:29.161Z</time></trkpt><trkpt lat="41.1019517" lon="14.625895"><ele>737.0</ele><time>2026-04-25T12:21:30.161Z</time></trkpt><trkpt lat="41.10192" lon="14.62581"><ele>737.0</ele><time>2026-04-25T12:21:31.161Z</time></trkpt><trkpt lat="41.1018267" lon="14.6257067"><ele>737.0</ele><time>2026-04-25T12:21:33.158Z</time></trkpt><trkpt lat="41.1017317" lon="14.6256867"><ele>737.0</ele><time>2026-04-25T12:21:35.157Z</time></trkpt><trkpt lat="41.1016417" lon="14.6257933"><ele>737.0</ele><time>2026-04-25T12:21:37.162Z</time></trkpt><trkpt lat="41.1016183" lon="14.6258733"><ele>737.0</ele><time>2026-04-25T12:21:38.16Z</time></trkpt><trkpt lat="41.1016133" lon="14.6259717"><ele>737.0</ele><time>2026-04-25T12:21:39.163Z</time></trkpt><trkpt lat="41.101605" lon="14.6260667"><ele>737.0</ele><time>2026-04-25T12:21:40.162Z</time></trkpt><trkpt lat="41.1016067" lon="14.62617"><ele>737.0</ele><time>2026-04-25T12:21:41.16Z</time></trkpt><trkpt lat="41.1016017" lon="14.6262783"><ele>737.0</ele><time>2026-04-25T12:21:42.161Z</time></trkpt><trkpt lat="41.1015933" lon="14.6263833"><ele>736.8333333333333</ele><time>2026-04-25T12:21:43.163Z</time></trkpt><trkpt lat="41.1015833" lon="14.6264817"><ele>736.6666666666666</ele><time>2026-04-25T12:21:44.163Z</time></trkpt><trkpt lat="41.1015717" lon="14.6265817"><ele>736.5</ele><time>2026-04-25T12:21:45.162Z</time></trkpt><trkpt lat="41.10156" lon="14.62667"><ele>736.3333333333334</ele><time>2026-04-25T12:21:46.162Z</time></trkpt><trkpt lat="41.101545" lon="14.6267583"><ele>736.1666666666667</ele><time>2026-04-25T12:21:47.159Z</time></trkpt><trkpt lat="41.10151" lon="14.626915"><ele>736.0</ele><time>2026-04-25T12:21:49.16Z</time></trkpt><trkpt lat="41.1014683" lon="14.6270733"><ele>732.0</ele><time>2026-04-25T12:21:51.16Z</time></trkpt><trkpt lat="41.1014433" lon="14.6271617"><ele>728.0</ele><time>2026-04-25T12:21:52.159Z</time></trkpt><trkpt lat="41.101415" lon="14.6272483"><ele>724.0</ele><time>2026-04-25T12:21:53.16Z</time></trkpt><trkpt lat="41.1013667" lon="14.6273783"><ele>720.0</ele><time>2026-04-25T12:21:55.161Z</time></trkpt><trkpt lat="41.101365" lon="14.6275133"><ele>716.0</ele><time>2026-04-25T12:21:57.161Z</time></trkpt><trkpt lat="41.1014167" lon="14.6276583"><ele>716.0</ele><time>2026-04-25T12:21:59.158Z</time></trkpt><trkpt lat="41.1014617" lon="14.6277183"><ele>716.0</ele><time>2026-04-25T12:22:00.161Z</time></trkpt><trkpt lat="41.1015267" lon="14.627775"><ele>716.0</ele><time>2026-04-25T12:22:01.161Z</time></trkpt><trkpt lat="41.101605" lon="14.6278233"><ele>716.0</ele><time>2026-04-25T12:22:02.162Z</time></trkpt><trkpt lat="41.1016767" lon="14.6278667"><ele>716.0</ele><time>2026-04-25T12:22:03.163Z</time></trkpt><trkpt lat="41.1017383" lon="14.6279167"><ele>716.0</ele><time>2026-04-25T12:22:04.161Z</time></trkpt><trkpt lat="41.1017917" lon="14.62798"><ele>716.8333333333333</ele><time>2026-04-25T12:22:05.162Z</time></trkpt><trkpt lat="41.1018267" lon="14.6280667"><ele>717.6666666666666</ele><time>2026-04-25T12:22:06.161Z</time></trkpt><trkpt lat="41.101845" lon="14.628165"><ele>718.5</ele><time>2026-04-25T12:22:07.16Z</time></trkpt><trkpt lat="41.1018533" lon="14.6282667"><ele>719.3333333333334</ele><time>2026-04-25T12:22:08.162Z</time></trkpt><trkpt lat="41.101855" lon="14.6283733"><ele>720.1666666666667</ele><time>2026-04-25T12:22:09.162Z</time></trkpt><trkpt lat="41.101845" lon="14.6284817"><ele>721.0</ele><time>2026-04-25T12:22:10.161Z</time></trkpt><trkpt lat="41.10183" lon="14.628595"><ele>719.5999999999999</ele><time>2026-04-25T12:22:11.163Z</time></trkpt><trkpt lat="41.1018117" lon="14.62871"><ele>718.2</ele><time>2026-04-25T12:22:12.162Z</time></trkpt><trkpt lat="41.10179" lon="14.628825"><ele>716.8</ele><time>2026-04-25T12:22:13.162Z</time></trkpt><trkpt lat="41.101765" lon="14.62894"><ele>715.4000000000001</ele><time>2026-04-25T12:22:14.163Z</time></trkpt><trkpt lat="41.1017467" lon="14.6290633"><ele>714.0</ele><time>2026-04-25T12:22:15.163Z</time></trkpt><trkpt lat="41.1017367" lon="14.6291933"><ele>714.0</ele><time>2026-04-25T12:22:16.162Z</time></trkpt><trkpt lat="41.101735" lon="14.6293267"><ele>714.0</ele><time>2026-04-25T12:22:17.158Z</time></trkpt><trkpt lat="41.10174" lon="14.629455"><ele>714.0</ele><time>2026-04-25T12:22:18.16Z</time></trkpt><trkpt lat="41.1017433" lon="14.6295667"><ele>714.0</ele><time>2026-04-25T12:22:19.159Z</time></trkpt><trkpt lat="41.1017383" lon="14.629655"><ele>714.0</ele><time>2026-04-25T12:22:20.161Z</time></trkpt><trkpt lat="41.1016967" lon="14.629815"><ele>713.5714285714286</ele><time>2026-04-25T12:22:22.159Z</time></trkpt><trkpt lat="41.1016633" lon="14.6298967"><ele>713.1428571428571</ele><time>2026-04-25T12:22:23.159Z</time></trkpt><trkpt lat="41.1016233" lon="14.6299783"><ele>712.7142857142858</ele><time>2026-04-25T12:22:24.159Z</time></trkpt><trkpt lat="41.10158" lon="14.6300583"><ele>712.2857142857142</ele><time>2026-04-25T12:22:25.159Z</time></trkpt><trkpt lat="41.1015433" lon="14.6301383"><ele>711.8571428571429</ele><time>2026-04-25T12:22:26.162Z</time></trkpt><trkpt lat="41.1015167" lon="14.6302217"><ele>711.4285714285714</ele><time>2026-04-25T12:22:27.159Z</time></trkpt><trkpt lat="41.1015083" lon="14.6303133"><ele>711.0</ele><time>2026-04-25T12:22:28.158Z</time></trkpt><trkpt lat="41.10152" lon="14.6304083"><ele>709.8333333333334</ele><time>2026-04-25T12:22:29.16Z</time></trkpt><trkpt lat="41.1015533" lon="14.6305083"><ele>708.6666666666666</ele><time>2026-04-25T12:22:30.16Z</time></trkpt><trkpt lat="41.1015967" lon="14.6306067"><ele>707.5</ele><time>2026-04-25T12:22:31.162Z</time></trkpt><trkpt lat="41.10166" lon="14.6306933"><ele>706.3333333333333</ele><time>2026-04-25T12:22:32.163Z</time></trkpt><trkpt lat="41.1017267" lon="14.6307633"><ele>705.1666666666666</ele><time>2026-04-25T12:22:33.162Z</time></trkpt><trkpt lat="41.1018" lon="14.6308317"><ele>704.0</ele><time>2026-04-25T12:22:34.159Z</time></trkpt><trkpt lat="41.1018717" lon="14.630905"><ele>704.0</ele><time>2026-04-25T12:22:35.163Z</time></trkpt><trkpt lat="41.1019367" lon="14.6309683"><ele>704.0</ele><time>2026-04-25T12:22:36.162Z</time></trkpt><trkpt lat="41.1019967" lon="14.63103"><ele>704.0</ele><time>2026-04-25T12:22:37.162Z</time></trkpt><trkpt lat="41.102055" lon="14.6310967"><ele>704.0</ele><time>2026-04-25T12:22:38.16Z</time></trkpt><trkpt lat="41.1021117" lon="14.6311683"><ele>704.0</ele><time>2026-04-25T12:22:39.162Z</time></trkpt><trkpt lat="41.1021633" lon="14.6312417"><ele>704.0</ele><time>2026-04-25T12:22:40.161Z</time></trkpt><trkpt lat="41.102205" lon="14.6313217"><ele>701.6666666666666</ele><time>2026-04-25T12:22:41.162Z</time></trkpt><trkpt lat="41.1022333" lon="14.6314067"><ele>699.3333333333333</ele><time>2026-04-25T12:22:42.163Z</time></trkpt><trkpt lat="41.102255" lon="14.6315033"><ele>697.0</ele><time>2026-04-25T12:22:43.161Z</time></trkpt><trkpt lat="41.10227" lon="14.6316117"><ele>694.6666666666666</ele><time>2026-04-25T12:22:44.161Z</time></trkpt><trkpt lat="41.1022833" lon="14.6317217"><ele>692.3333333333334</ele><time>2026-04-25T12:22:45.161Z</time></trkpt><trkpt lat="41.10229" lon="14.6318233"><ele>690.0</ele><time>2026-04-25T12:22:46.16Z</time></trkpt><trkpt lat="41.10229" lon="14.6319183"><ele>690.0</ele><time>2026-04-25T12:22:47.163Z</time></trkpt><trkpt lat="41.1022867" lon="14.6320083"><ele>690.0</ele><time>2026-04-25T12:22:48.161Z</time></trkpt><trkpt lat="41.10227" lon="14.6320933"><ele>690.0</ele><time>2026-04-25T12:22:49.161Z</time></trkpt><trkpt lat="41.10224" lon="14.6321717"><ele>690.0</ele><time>2026-04-25T12:22:50.161Z</time></trkpt><trkpt lat="41.1021967" lon="14.6322483"><ele>690.0</ele><time>2026-04-25T12:22:51.159Z</time></trkpt><trkpt lat="41.1021433" lon="14.6323183"><ele>690.0</ele><time>2026-04-25T12:22:52.16Z</time></trkpt><trkpt lat="41.1020883" lon="14.6323783"><ele>690.0</ele><time>2026-04-25T12:22:53.161Z</time></trkpt><trkpt lat="41.10204" lon="14.6324333"><ele>690.0</ele><time>2026-04-25T12:22:54.162Z</time></trkpt><trkpt lat="41.1019983" lon="14.6325033"><ele>690.0</ele><time>2026-04-25T12:22:55.159Z</time></trkpt><trkpt lat="41.1019583" lon="14.6325883"><ele>690.0</ele><time>2026-04-25T12:22:56.161Z</time></trkpt><trkpt lat="41.101925" lon="14.6326867"><ele>690.0</ele><time>2026-04-25T12:22:57.161Z</time></trkpt><trkpt lat="41.1018917" lon="14.6327917"><ele>690.0</ele><time>2026-04-25T12:22:58.159Z</time></trkpt><trkpt lat="41.1018617" lon="14.6329083"><ele>690.0</ele><time>2026-04-25T12:22:59.159Z</time></trkpt><trkpt lat="41.1018317" lon="14.6330283"><ele>689.8333333333334</ele><time>2026-04-25T12:23:00.163Z</time></trkpt><trkpt lat="41.1018" lon="14.6331517"><ele>689.6666666666666</ele><time>2026-04-25T12:23:01.163Z</time></trkpt><trkpt lat="41.10177" lon="14.6332817"><ele>689.5</ele><time>2026-04-25T12:23:02.162Z</time></trkpt><trkpt lat="41.101745" lon="14.6334"><ele>689.3333333333333</ele><time>2026-04-25T12:23:03.16Z</time></trkpt><trkpt lat="41.10172" lon="14.6335"><ele>689.1666666666666</ele><time>2026-04-25T12:23:04.162Z</time></trkpt><trkpt lat="41.1017017" lon="14.6335867"><ele>689.0</ele><time>2026-04-25T12:23:05.163Z</time></trkpt><trkpt lat="41.1016817" lon="14.6337333"><ele>687.1666666666666</ele><time>2026-04-25T12:23:07.162Z</time></trkpt><trkpt lat="41.1016917" lon="14.6338683"><ele>685.3333333333333</ele><time>2026-04-25T12:23:09.157Z</time></trkpt><trkpt lat="41.101735" lon="14.6339983"><ele>683.5</ele><time>2026-04-25T12:23:11.163Z</time></trkpt><trkpt lat="41.101785" lon="14.6340533"><ele>681.6666666666666</ele><time>2026-04-25T12:23:12.163Z</time></trkpt><trkpt lat="41.1018483" lon="14.6341017"><ele>679.8333333333334</ele><time>2026-04-25T12:23:13.162Z</time></trkpt><trkpt lat="41.101905" lon="14.6341417"><ele>678.0</ele><time>2026-04-25T12:23:14.161Z</time></trkpt><trkpt lat="41.1020083" lon="14.6342017"><ele>678.0</ele><time>2026-04-25T12:23:16.163Z</time></trkpt><trkpt lat="41.1021017" lon="14.6342617"><ele>678.0</ele><time>2026-04-25T12:23:18.161Z</time></trkpt><trkpt lat="41.10221" lon="14.6343233"><ele>678.0</ele><time>2026-04-25T12:23:20.16Z</time></trkpt><trkpt lat="41.1023167" lon="14.6343967"><ele>678.0</ele><time>2026-04-25T12:23:22.159Z</time></trkpt><trkpt lat="41.1024333" lon="14.6344817"><ele>676.8333333333334</ele><time>2026-04-25T12:23:24.161Z</time></trkpt><trkpt lat="41.102495" lon="14.634525"><ele>675.6666666666666</ele><time>2026-04-25T12:23:25.159Z</time></trkpt><trkpt lat="41.10256" lon="14.63457"><ele>674.5</ele><time>2026-04-25T12:23:26.16Z</time></trkpt><trkpt lat="41.1026267" lon="14.6346067"><ele>673.3333333333333</ele><time>2026-04-25T12:23:27.16Z</time></trkpt><trkpt lat="41.1027" lon="14.6346483"><ele>672.1666666666666</ele><time>2026-04-25T12:23:28.16Z</time></trkpt><trkpt lat="41.1027733" lon="14.6346883"><ele>671.0</ele><time>2026-04-25T12:23:29.16Z</time></trkpt><trkpt lat="41.1028467" lon="14.6347317"><ele>671.0</ele><time>2026-04-25T12:23:30.159Z</time></trkpt><trkpt lat="41.1029167" lon="14.63478"><ele>671.0</ele><time>2026-04-25T12:23:31.161Z</time></trkpt><trkpt lat="41.1029867" lon="14.6348267"><ele>671.0</ele><time>2026-04-25T12:23:32.161Z</time></trkpt><trkpt lat="41.1030617" lon="14.6348683"><ele>671.0</ele><time>2026-04-25T12:23:33.158Z</time></trkpt><trkpt lat="41.1031383" lon="14.6348967"><ele>671.0</ele><time>2026-04-25T12:23:34.161Z</time></trkpt><trkpt lat="41.1032167" lon="14.6349217"><ele>671.0</ele><time>2026-04-25T12:23:35.161Z</time></trkpt><trkpt lat="41.1032983" lon="14.634955"><ele>671.6666666666666</ele><time>2026-04-25T12:23:36.161Z</time></trkpt><trkpt lat="41.1033767" lon="14.635"><ele>672.3333333333333</ele><time>2026-04-25T12:23:37.159Z</time></trkpt><trkpt lat="41.103455" lon="14.6350483"><ele>673.0</ele><time>2026-04-25T12:23:38.161Z</time></trkpt><trkpt lat="41.1035267" lon="14.6350983"><ele>673.6666666666666</ele><time>2026-04-25T12:23:39.16Z</time></trkpt><trkpt lat="41.10359" lon="14.63515"><ele>674.3333333333334</ele><time>2026-04-25T12:23:40.159Z</time></trkpt><trkpt lat="41.103655" lon="14.6352017"><ele>675.0</ele><time>2026-04-25T12:23:41.161Z</time></trkpt><trkpt lat="41.1037267" lon="14.63525"><ele>672.5</ele><time>2026-04-25T12:23:42.161Z</time></trkpt><trkpt lat="41.1037983" lon="14.6353083"><ele>670.0</ele><time>2026-04-25T12:23:43.161Z</time></trkpt><trkpt lat="41.1038633" lon="14.6353717"><ele>667.5</ele><time>2026-04-25T12:23:44.158Z</time></trkpt><trkpt lat="41.1039217" lon="14.6354417"><ele>665.0</ele><time>2026-04-25T12:23:45.159Z</time></trkpt><trkpt lat="41.10397" lon="14.6355283"><ele>662.5</ele><time>2026-04-25T12:23:46.161Z</time></trkpt><trkpt lat="41.1039983" lon="14.6356267"><ele>660.0</ele><time>2026-04-25T12:23:47.159Z</time></trkpt><trkpt lat="41.1040183" lon="14.63573"><ele>660.0</ele><time>2026-04-25T12:23:48.159Z</time></trkpt><trkpt lat="41.1040317" lon="14.6358433"><ele>660.0</ele><time>2026-04-25T12:23:49.16Z</time></trkpt><trkpt lat="41.10404" lon="14.6359617"><ele>660.0</ele><time>2026-04-25T12:23:50.16Z</time></trkpt><trkpt lat="41.1040517" lon="14.6360883"><ele>660.0</ele><time>2026-04-25T12:23:51.16Z</time></trkpt><trkpt lat="41.1040633" lon="14.6362233"><ele>660.0</ele><time>2026-04-25T12:23:52.16Z</time></trkpt><trkpt lat="41.104075" lon="14.6363583"><ele>659.2</ele><time>2026-04-25T12:23:53.16Z</time></trkpt><trkpt lat="41.1040867" lon="14.6364833"><ele>658.4</ele><time>2026-04-25T12:23:54.16Z</time></trkpt><trkpt lat="41.1040983" lon="14.6366"><ele>657.5999999999999</ele><time>2026-04-25T12:23:55.161Z</time></trkpt><trkpt lat="41.1041067" lon="14.6367267"><ele>656.8</ele><time>2026-04-25T12:23:56.162Z</time></trkpt><trkpt lat="41.1041117" lon="14.6368567"><ele>656.0</ele><time>2026-04-25T12:23:57.16Z</time></trkpt><trkpt lat="41.104115" lon="14.6369883"><ele>656.0</ele><time>2026-04-25T12:23:58.162Z</time></trkpt><trkpt lat="41.1041217" lon="14.63712"><ele>656.0</ele><time>2026-04-25T12:23:59.16Z</time></trkpt><trkpt lat="41.1041283" lon="14.6372467"><ele>656.0</ele><time>2026-04-25T12:24:00.161Z</time></trkpt><trkpt lat="41.1041333" lon="14.637355"><ele>656.0</ele><time>2026-04-25T12:24:01.161Z</time></trkpt><trkpt lat="41.1041333" lon="14.63746"><ele>656.0</ele><time>2026-04-25T12:24:02.162Z</time></trkpt><trkpt lat="41.1041317" lon="14.637575"><ele>656.0</ele><time>2026-04-25T12:24:03.161Z</time></trkpt><trkpt lat="41.1041283" lon="14.6376917"><ele>656.0</ele><time>2026-04-25T12:24:04.158Z</time></trkpt><trkpt lat="41.10412" lon="14.6378017"><ele>656.0</ele><time>2026-04-25T12:24:05.158Z</time></trkpt><trkpt lat="41.1041133" lon="14.6379017"><ele>656.0</ele><time>2026-04-25T12:24:06.159Z</time></trkpt><trkpt lat="41.104105" lon="14.6379883"><ele>656.0</ele><time>2026-04-25T12:24:07.16Z</time></trkpt><trkpt lat="41.104095" lon="14.6381317"><ele>656.0</ele><time>2026-04-25T12:24:09.162Z</time></trkpt><trkpt lat="41.1040917" lon="14.6382367"><ele>656.0</ele><time>2026-04-25T12:24:11.161Z</time></trkpt><trkpt lat="41.104095" lon="14.6383433"><ele>655.1666666666666</ele><time>2026-04-25T12:24:13.157Z</time></trkpt><trkpt lat="41.1041083" lon="14.6384783"><ele>654.3333333333333</ele><time>2026-04-25T12:24:15.158Z</time></trkpt><trkpt lat="41.1041217" lon="14.6386233"><ele>653.5</ele><time>2026-04-25T12:24:17.158Z</time></trkpt><trkpt lat="41.10413" lon="14.6387083"><ele>652.6666666666666</ele><time>2026-04-25T12:24:18.16Z</time></trkpt><trkpt lat="41.104135" lon="14.6388067"><ele>651.8333333333334</ele><time>2026-04-25T12:24:19.159Z</time></trkpt><trkpt lat="41.1041333" lon="14.6389083"><ele>651.0</ele><time>2026-04-25T12:24:20.161Z</time></trkpt><trkpt lat="41.1041283" lon="14.6390133"><ele>649.6666666666666</ele><time>2026-04-25T12:24:21.16Z</time></trkpt><trkpt lat="41.104115" lon="14.6391233"><ele>648.3333333333334</ele><time>2026-04-25T12:24:22.159Z</time></trkpt><trkpt lat="41.1040967" lon="14.6392367"><ele>647.0</ele><time>2026-04-25T12:24:23.159Z</time></trkpt><trkpt lat="41.1040817" lon="14.639355"><ele>645.6666666666667</ele><time>2026-04-25T12:24:24.162Z</time></trkpt><trkpt lat="41.1040683" lon="14.639475"><ele>644.3333333333334</ele><time>2026-04-25T12:24:25.162Z</time></trkpt><trkpt lat="41.1040517" lon="14.63958"><ele>643.0</ele><time>2026-04-25T12:24:26.161Z</time></trkpt><trkpt lat="41.104035" lon="14.639665"><ele>641.1666666666667</ele><time>2026-04-25T12:24:27.161Z</time></trkpt><trkpt lat="41.1040167" lon="14.639745"><ele>639.3333333333334</ele><time>2026-04-25T12:24:28.161Z</time></trkpt><trkpt lat="41.103995" lon="14.63983"><ele>637.5</ele><time>2026-04-25T12:24:29.158Z</time></trkpt><trkpt lat="41.1039717" lon="14.639915"><ele>635.6666666666666</ele><time>2026-04-25T12:24:30.159Z</time></trkpt><trkpt lat="41.10394" lon="14.6399883"><ele>633.8333333333333</ele><time>2026-04-25T12:24:31.162Z</time></trkpt><trkpt lat="41.10384" lon="14.64009"><ele>632.0</ele><time>2026-04-25T12:24:33.161Z</time></trkpt><trkpt lat="41.103775" lon="14.640115"><ele>632.0000000000001</ele><time>2026-04-25T12:24:34.161Z</time></trkpt><trkpt lat="41.10371" lon="14.6401117"><ele>632.0</ele><time>2026-04-25T12:24:35.16Z</time></trkpt><trkpt lat="41.103645" lon="14.64008"><ele>632.0</ele><time>2026-04-25T12:24:36.161Z</time></trkpt><trkpt lat="41.1035817" lon="14.640025"><ele>632.0</ele><time>2026-04-25T12:24:37.162Z</time></trkpt><trkpt lat="41.1035267" lon="14.6399533"><ele>632.0</ele><time>2026-04-25T12:24:38.162Z</time></trkpt><trkpt lat="41.1034833" lon="14.63987"><ele>632.0000000000001</ele><time>2026-04-25T12:24:39.157Z</time></trkpt><trkpt lat="41.103455" lon="14.6397833"><ele>632.0</ele><time>2026-04-25T12:24:40.159Z</time></trkpt><trkpt lat="41.103435" lon="14.6397"><ele>632.0</ele><time>2026-04-25T12:24:41.158Z</time></trkpt><trkpt lat="41.1034133" lon="14.6396183"><ele>632.0</ele><time>2026-04-25T12:24:42.16Z</time></trkpt><trkpt lat="41.10338" lon="14.639545"><ele>632.0</ele><time>2026-04-25T12:24:43.161Z</time></trkpt><trkpt lat="41.103285" lon="14.6394633"><ele>632.0</ele><time>2026-04-25T12:24:45.161Z</time></trkpt><trkpt lat="41.10317" lon="14.6394617"><ele>632.0</ele><time>2026-04-25T12:24:47.159Z</time></trkpt><trkpt lat="41.1030683" lon="14.63953"><ele>629.0</ele><time>2026-04-25T12:24:49.16Z</time></trkpt><trkpt lat="41.1030267" lon="14.6396583"><ele>626.0</ele><time>2026-04-25T12:24:51.16Z</time></trkpt><trkpt lat="41.103015" lon="14.6398217"><ele>623.0</ele><time>2026-04-25T12:24:53.159Z</time></trkpt><trkpt lat="41.1029983" lon="14.63998"><ele>620.0</ele><time>2026-04-25T12:24:55.161Z</time></trkpt><trkpt lat="41.1029783" lon="14.64006"><ele>617.0</ele><time>2026-04-25T12:24:56.159Z</time></trkpt><trkpt lat="41.1029167" lon="14.6401883"><ele>617.0</ele><time>2026-04-25T12:24:58.161Z</time></trkpt><trkpt lat="41.1028317" lon="14.640265"><ele>617.0</ele><time>2026-04-25T12:25:00.161Z</time></trkpt><trkpt lat="41.1027133" lon="14.6402683"><ele>617.0</ele><time>2026-04-25T12:25:02.161Z</time></trkpt><trkpt lat="41.102655" lon="14.6402217"><ele>617.0</ele><time>2026-04-25T12:25:03.16Z</time></trkpt><trkpt lat="41.1026067" lon="14.6401433"><ele>617.0</ele><time>2026-04-25T12:25:04.158Z</time></trkpt><trkpt lat="41.10257" lon="14.6400567"><ele>617.0</ele><time>2026-04-25T12:25:05.16Z</time></trkpt><trkpt lat="41.1025433" lon="14.63997"><ele>617.0</ele><time>2026-04-25T12:25:06.159Z</time></trkpt><trkpt lat="41.1025183" lon="14.6398867"><ele>617.0</ele><time>2026-04-25T12:25:07.16Z</time></trkpt><trkpt lat="41.1024883" lon="14.6397467"><ele>617.0</ele><time>2026-04-25T12:25:09.16Z</time></trkpt><trkpt lat="41.1024633" lon="14.6395933"><ele>617.0</ele><time>2026-04-25T12:25:11.161Z</time></trkpt><trkpt lat="41.1024317" lon="14.639445"><ele>617.0</ele><time>2026-04-25T12:25:13.159Z</time></trkpt><trkpt lat="41.102345" lon="14.6393533"><ele>615.0</ele><time>2026-04-25T12:25:15.159Z</time></trkpt><trkpt lat="41.1022817" lon="14.63934"><ele>613.0</ele><time>2026-04-25T12:25:16.161Z</time></trkpt><trkpt lat="41.1022117" lon="14.6393483"><ele>611.0</ele><time>2026-04-25T12:25:17.159Z</time></trkpt><trkpt lat="41.1021483" lon="14.63938"><ele>609.0</ele><time>2026-04-25T12:25:18.161Z</time></trkpt><trkpt lat="41.10209" lon="14.6394283"><ele>607.0</ele><time>2026-04-25T12:25:19.161Z</time></trkpt><trkpt lat="41.1020433" lon="14.63949"><ele>605.0</ele><time>2026-04-25T12:25:20.159Z</time></trkpt><trkpt lat="41.10201" lon="14.6395667"><ele>603.0</ele><time>2026-04-25T12:25:21.158Z</time></trkpt><trkpt lat="41.1019783" lon="14.6396567"><ele>602.8333333333334</ele><time>2026-04-25T12:25:22.158Z</time></trkpt><trkpt lat="41.1019583" lon="14.6397567"><ele>602.6666666666666</ele><time>2026-04-25T12:25:23.159Z</time></trkpt><trkpt lat="41.10195" lon="14.6398683"><ele>602.5</ele><time>2026-04-25T12:25:24.161Z</time></trkpt><trkpt lat="41.1019483" lon="14.6399867"><ele>602.3333333333333</ele><time>2026-04-25T12:25:25.161Z</time></trkpt><trkpt lat="41.10195" lon="14.6401"><ele>602.1666666666666</ele><time>2026-04-25T12:25:26.162Z</time></trkpt><trkpt lat="41.1019533" lon="14.6402117"><ele>602.0</ele><time>2026-04-25T12:25:27.161Z</time></trkpt><trkpt lat="41.101955" lon="14.64033"><ele>601.5714285714286</ele><time>2026-04-25T12:25:28.16Z</time></trkpt><trkpt lat="41.10195" lon="14.6404417"><ele>601.1428571428571</ele><time>2026-04-25T12:25:29.161Z</time></trkpt><trkpt lat="41.1019433" lon="14.640545"><ele>600.7142857142858</ele><time>2026-04-25T12:25:30.158Z</time></trkpt><trkpt lat="41.1019317" lon="14.64064"><ele>600.2857142857142</ele><time>2026-04-25T12:25:31.159Z</time></trkpt><trkpt lat="41.1019117" lon="14.64073"><ele>599.8571428571429</ele><time>2026-04-25T12:25:32.161Z</time></trkpt><trkpt lat="41.1018817" lon="14.64081"><ele>599.4285714285714</ele><time>2026-04-25T12:25:33.161Z</time></trkpt><trkpt lat="41.1018483" lon="14.640885"><ele>599.0</ele><time>2026-04-25T12:25:34.16Z</time></trkpt><trkpt lat="41.1017567" lon="14.6410017"><ele>599.0</ele><time>2026-04-25T12:25:36.159Z</time></trkpt><trkpt lat="41.1016967" lon="14.64105"><ele>599.0</ele><time>2026-04-25T12:25:37.159Z</time></trkpt><trkpt lat="41.1016267" lon="14.6410917"><ele>599.0</ele><time>2026-04-25T12:25:38.16Z</time></trkpt><trkpt lat="41.1015417" lon="14.6411233"><ele>599.0</ele><time>2026-04-25T12:25:39.161Z</time></trkpt><trkpt lat="41.1014483" lon="14.6411467"><ele>599.0</ele><time>2026-04-25T12:25:40.161Z</time></trkpt><trkpt lat="41.10136" lon="14.641165"><ele>599.0</ele><time>2026-04-25T12:25:41.161Z</time></trkpt><trkpt lat="41.1012833" lon="14.641175"><ele>597.0</ele><time>2026-04-25T12:25:42.159Z</time></trkpt><trkpt lat="41.1012183" lon="14.6411633"><ele>595.0</ele><time>2026-04-25T12:25:43.161Z</time></trkpt><trkpt lat="41.10116" lon="14.6411267"><ele>593.0</ele><time>2026-04-25T12:25:44.16Z</time></trkpt><trkpt lat="41.101115" lon="14.6410617"><ele>591.0</ele><time>2026-04-25T12:25:45.159Z</time></trkpt><trkpt lat="41.1010883" lon="14.640975"><ele>589.0</ele><time>2026-04-25T12:25:46.159Z</time></trkpt><trkpt lat="41.10108" lon="14.6408783"><ele>587.0</ele><time>2026-04-25T12:25:47.159Z</time></trkpt><trkpt lat="41.1010867" lon="14.6407717"><ele>585.0</ele><time>2026-04-25T12:25:48.162Z</time></trkpt><trkpt lat="41.1011017" lon="14.6406533"><ele>585.0</ele><time>2026-04-25T12:25:49.162Z</time></trkpt><trkpt lat="41.1011117" lon="14.6405333"><ele>585.0</ele><time>2026-04-25T12:25:50.161Z</time></trkpt><trkpt lat="41.10112" lon="14.6404067"><ele>585.0</ele><time>2026-04-25T12:25:51.16Z</time></trkpt><trkpt lat="41.1011217" lon="14.6402817"><ele>585.0</ele><time>2026-04-25T12:25:52.158Z</time></trkpt><trkpt lat="41.1011183" lon="14.6401567"><ele>585.0</ele><time>2026-04-25T12:25:53.159Z</time></trkpt><trkpt lat="41.1011083" lon="14.6400317"><ele>585.0</ele><time>2026-04-25T12:25:54.159Z</time></trkpt><trkpt lat="41.1010833" lon="14.639915"><ele>585.0</ele><time>2026-04-25T12:25:55.161Z</time></trkpt><trkpt lat="41.1010533" lon="14.6398033"><ele>585.0</ele><time>2026-04-25T12:25:56.16Z</time></trkpt><trkpt lat="41.1010167" lon="14.639695"><ele>585.0</ele><time>2026-04-25T12:25:57.158Z</time></trkpt><trkpt lat="41.1009733" lon="14.63959"><ele>585.0</ele><time>2026-04-25T12:25:58.159Z</time></trkpt><trkpt lat="41.1009233" lon="14.6394867"><ele>585.6</ele><time>2026-04-25T12:25:59.161Z</time></trkpt><trkpt lat="41.100865" lon="14.6393917"><ele>586.2</ele><time>2026-04-25T12:26:00.159Z</time></trkpt><trkpt lat="41.1007983" lon="14.63931"><ele>586.8</ele><time>2026-04-25T12:26:01.158Z</time></trkpt><trkpt lat="41.100715" lon="14.63925"><ele>587.4</ele><time>2026-04-25T12:26:02.162Z</time></trkpt><trkpt lat="41.100625" lon="14.639205"><ele>588.0</ele><time>2026-04-25T12:26:03.161Z</time></trkpt><trkpt lat="41.1005333" lon="14.6391683"><ele>588.0</ele><time>2026-04-25T12:26:04.16Z</time></trkpt><trkpt lat="41.1004383" lon="14.63915"><ele>588.0</ele><time>2026-04-25T12:26:05.16Z</time></trkpt><trkpt lat="41.1003433" lon="14.6391483"><ele>588.0</ele><time>2026-04-25T12:26:06.16Z</time></trkpt><trkpt lat="41.1002533" lon="14.6391633"><ele>588.0</ele><time>2026-04-25T12:26:07.16Z</time></trkpt><trkpt lat="41.1001633" lon="14.6391967"><ele>588.0</ele><time>2026-04-25T12:26:08.16Z</time></trkpt><trkpt lat="41.1000817" lon="14.63925"><ele>588.0</ele><time>2026-04-25T12:26:09.159Z</time></trkpt><trkpt lat="41.100005" lon="14.6393133"><ele>588.0</ele><time>2026-04-25T12:26:10.157Z</time></trkpt><trkpt lat="41.0999367" lon="14.6393817"><ele>588.0</ele><time>2026-04-25T12:26:11.16Z</time></trkpt><trkpt lat="41.0998683" lon="14.639455"><ele>588.0</ele><time>2026-04-25T12:26:12.161Z</time></trkpt><trkpt lat="41.0998017" lon="14.6395333"><ele>588.0</ele><time>2026-04-25T12:26:13.161Z</time></trkpt><trkpt lat="41.0997367" lon="14.6396183"><ele>588.0</ele><time>2026-04-25T12:26:14.162Z</time></trkpt><trkpt lat="41.0996733" lon="14.6397017"><ele>587.5</ele><time>2026-04-25T12:26:15.162Z</time></trkpt><trkpt lat="41.09961" lon="14.6397867"><ele>587.0</ele><time>2026-04-25T12:26:16.159Z</time></trkpt><trkpt lat="41.09955" lon="14.6398717"><ele>586.5</ele><time>2026-04-25T12:26:17.161Z</time></trkpt><trkpt lat="41.09949" lon="14.6399583"><ele>586.0</ele><time>2026-04-25T12:26:18.162Z</time></trkpt><trkpt lat="41.0994283" lon="14.6400433"><ele>585.5</ele><time>2026-04-25T12:26:19.161Z</time></trkpt><trkpt lat="41.0993667" lon="14.6401267"><ele>585.0</ele><time>2026-04-25T12:26:20.161Z</time></trkpt><trkpt lat="41.0993017" lon="14.6402067"><ele>585.0</ele><time>2026-04-25T12:26:21.16Z</time></trkpt><trkpt lat="41.09924" lon="14.6402867"><ele>585.0</ele><time>2026-04-25T12:26:22.16Z</time></trkpt><trkpt lat="41.0991767" lon="14.6403667"><ele>585.0</ele><time>2026-04-25T12:26:23.161Z</time></trkpt><trkpt lat="41.0991067" lon="14.640445"><ele>585.0</ele><time>2026-04-25T12:26:24.161Z</time></trkpt><trkpt lat="41.0990317" lon="14.6405117"><ele>585.0</ele><time>2026-04-25T12:26:25.161Z</time></trkpt><trkpt lat="41.09895" lon="14.6405617"><ele>585.0</ele><time>2026-04-25T12:26:26.162Z</time></trkpt><trkpt lat="41.0988633" lon="14.6405983"><ele>583.6</ele><time>2026-04-25T12:26:27.161Z</time></trkpt><trkpt lat="41.0987783" lon="14.6406267"><ele>582.2</ele><time>2026-04-25T12:26:28.162Z</time></trkpt><trkpt lat="41.0986917" lon="14.6406483"><ele>580.8</ele><time>2026-04-25T12:26:29.161Z</time></trkpt><trkpt lat="41.0985983" lon="14.6406683"><ele>579.4</ele><time>2026-04-25T12:26:30.161Z</time></trkpt><trkpt lat="41.0985067" lon="14.6406867"><ele>578.0</ele><time>2026-04-25T12:26:31.161Z</time></trkpt><trkpt lat="41.0984183" lon="14.6407017"><ele>578.0</ele><time>2026-04-25T12:26:32.163Z</time></trkpt><trkpt lat="41.0983267" lon="14.64072"><ele>578.0</ele><time>2026-04-25T12:26:33.162Z</time></trkpt><trkpt lat="41.0982383" lon="14.6407383"><ele>578.0</ele><time>2026-04-25T12:26:34.161Z</time></trkpt><trkpt lat="41.09815" lon="14.640755"><ele>578.0</ele><time>2026-04-25T12:26:35.161Z</time></trkpt><trkpt lat="41.09806" lon="14.6407733"><ele>578.0</ele><time>2026-04-25T12:26:36.162Z</time></trkpt><trkpt lat="41.0979683" lon="14.6407933"><ele>577.8333333333333</ele><time>2026-04-25T12:26:37.161Z</time></trkpt><trkpt lat="41.0978783" lon="14.640815"><ele>577.6666666666666</ele><time>2026-04-25T12:26:38.163Z</time></trkpt><trkpt lat="41.09779" lon="14.6408333"><ele>577.5</ele><time>2026-04-25T12:26:39.162Z</time></trkpt><trkpt lat="41.0977033" lon="14.6408483"><ele>577.3333333333334</ele><time>2026-04-25T12:26:40.16Z</time></trkpt><trkpt lat="41.0976167" lon="14.6408617"><ele>577.1666666666667</ele><time>2026-04-25T12:26:41.162Z</time></trkpt><trkpt lat="41.0975283" lon="14.6408783"><ele>577.0</ele><time>2026-04-25T12:26:42.161Z</time></trkpt><trkpt lat="41.0974417" lon="14.6408967"><ele>575.8333333333334</ele><time>2026-04-25T12:26:43.16Z</time></trkpt><trkpt lat="41.09736" lon="14.6409167"><ele>574.6666666666667</ele><time>2026-04-25T12:26:44.162Z</time></trkpt><trkpt lat="41.0972833" lon="14.640935"><ele>573.5</ele><time>2026-04-25T12:26:45.16Z</time></trkpt><trkpt lat="41.0971817" lon="14.6409567"><ele>572.3333333333334</ele><time>2026-04-25T12:26:47.161Z</time></trkpt><trkpt lat="41.09726" lon="14.640945"><ele>571.1666666666666</ele><time>2026-04-25T12:27:13.159Z</time></trkpt><trkpt lat="41.09733" lon="14.6409533"><ele>570.0</ele><time>2026-04-25T12:27:17.161Z</time></trkpt><trkpt lat="41.097285" lon="14.6408817"><ele>570.0</ele><time>2026-04-25T12:28:44.162Z</time></trkpt><trkpt lat="41.0972217" lon="14.6408233"><ele>570.0</ele><time>2026-04-25T12:28:48.16Z</time></trkpt><trkpt lat="41.0971583" lon="14.6408067"><ele>570.0</ele><time>2026-04-25T12:28:58.159Z</time></trkpt><trkpt lat="41.09723" lon="14.6408417"><ele>570.0</ele><time>2026-04-25T12:29:05.159Z</time></trkpt><trkpt lat="41.0972817" lon="14.6409"><ele>570.0</ele><time>2026-04-25T12:29:10.16Z</time></trkpt><trkpt lat="41.09722" lon="14.64096"><ele>570.0</ele><time>2026-04-25T12:29:16.162Z</time></trkpt><trkpt lat="41.0971367" lon="14.6409683"><ele>570.0</ele><time>2026-04-25T12:29:19.16Z</time></trkpt><trkpt lat="41.0970433" lon="14.640995"><ele>570.0</ele><time>2026-04-25T12:29:22.158Z</time></trkpt><trkpt lat="41.0969617" lon="14.641005"><ele>570.0</ele><time>2026-04-25T12:29:24.161Z</time></trkpt><trkpt lat="41.09688" lon="14.6410133"><ele>570.0</ele><time>2026-04-25T12:29:26.163Z</time></trkpt><trkpt lat="41.096795" lon="14.6410167"><ele>570.0</ele><time>2026-04-25T12:29:28.158Z</time></trkpt><trkpt lat="41.096705" lon="14.6410183"><ele>570.0</ele><time>2026-04-25T12:29:30.16Z</time></trkpt><trkpt lat="41.0966167" lon="14.641015"><ele>570.0</ele><time>2026-04-25T12:29:32.161Z</time></trkpt><trkpt lat="41.096525" lon="14.641"><ele>568.4</ele><time>2026-04-25T12:29:34.158Z</time></trkpt><trkpt lat="41.096435" lon="14.640975"><ele>566.8</ele><time>2026-04-25T12:29:36.162Z</time></trkpt><trkpt lat="41.0963483" lon="14.64094"><ele>565.2</ele><time>2026-04-25T12:29:38.162Z</time></trkpt><trkpt lat="41.0962617" lon="14.6409233"><ele>563.6</ele><time>2026-04-25T12:29:40.163Z</time></trkpt><trkpt lat="41.0961717" lon="14.6409133"><ele>562.0</ele><time>2026-04-25T12:29:42.161Z</time></trkpt><trkpt lat="41.0960733" lon="14.64094"><ele>562.0</ele><time>2026-04-25T12:29:44.163Z</time></trkpt><trkpt lat="41.0959767" lon="14.6409983"><ele>562.0</ele><time>2026-04-25T12:29:46.162Z</time></trkpt><trkpt lat="41.0959033" lon="14.6411217"><ele>562.0</ele><time>2026-04-25T12:29:48.16Z</time></trkpt><trkpt lat="41.0958817" lon="14.6412783"><ele>562.0</ele><time>2026-04-25T12:29:50.159Z</time></trkpt><trkpt lat="41.0959083" lon="14.6414383"><ele>562.2857142857143</ele><time>2026-04-25T12:29:52.16Z</time></trkpt><trkpt lat="41.09594" lon="14.64152"><ele>562.5714285714286</ele><time>2026-04-25T12:29:53.16Z</time></trkpt><trkpt lat="41.0959767" lon="14.641595"><ele>562.8571428571429</ele><time>2026-04-25T12:29:54.162Z</time></trkpt><trkpt lat="41.0960183" lon="14.64167"><ele>563.1428571428571</ele><time>2026-04-25T12:29:55.162Z</time></trkpt><trkpt lat="41.0960617" lon="14.641745"><ele>563.4285714285714</ele><time>2026-04-25T12:29:56.161Z</time></trkpt><trkpt lat="41.0961017" lon="14.6418233"><ele>563.7142857142858</ele><time>2026-04-25T12:29:57.159Z</time></trkpt><trkpt lat="41.0961367" lon="14.6419033"><ele>564.0</ele><time>2026-04-25T12:29:58.162Z</time></trkpt><trkpt lat="41.0961683" lon="14.64199"><ele>564.0</ele><time>2026-04-25T12:29:59.158Z</time></trkpt><trkpt lat="41.0962" lon="14.6420833"><ele>564.0</ele><time>2026-04-25T12:30:00.16Z</time></trkpt><trkpt lat="41.0962233" lon="14.6421833"><ele>564.0</ele><time>2026-04-25T12:30:01.161Z</time></trkpt><trkpt lat="41.0962333" lon="14.6422883"><ele>564.0</ele><time>2026-04-25T12:30:02.162Z</time></trkpt><trkpt lat="41.0962367" lon="14.6423917"><ele>564.0</ele><time>2026-04-25T12:30:03.163Z</time></trkpt><trkpt lat="41.0962333" lon="14.642495"><ele>564.0</ele><time>2026-04-25T12:30:04.162Z</time></trkpt><trkpt lat="41.0962233" lon="14.6425967"><ele>564.0</ele><time>2026-04-25T12:30:05.162Z</time></trkpt><trkpt lat="41.09621" lon="14.642695"><ele>564.0</ele><time>2026-04-25T12:30:06.163Z</time></trkpt><trkpt lat="41.09619" lon="14.642795"><ele>564.0</ele><time>2026-04-25T12:30:07.162Z</time></trkpt><trkpt lat="41.096165" lon="14.6428867"><ele>564.0</ele><time>2026-04-25T12:30:08.16Z</time></trkpt><trkpt lat="41.0961333" lon="14.642975"><ele>564.0</ele><time>2026-04-25T12:30:09.159Z</time></trkpt><trkpt lat="41.0960933" lon="14.6430567"><ele>564.0</ele><time>2026-04-25T12:30:10.159Z</time></trkpt><trkpt lat="41.0960517" lon="14.6431317"><ele>564.0</ele><time>2026-04-25T12:30:11.161Z</time></trkpt><trkpt lat="41.0960067" lon="14.6432033"><ele>564.7142857142858</ele><time>2026-04-25T12:30:12.161Z</time></trkpt><trkpt lat="41.0959583" lon="14.6432717"><ele>565.4285714285714</ele><time>2026-04-25T12:30:13.162Z</time></trkpt><trkpt lat="41.0959067" lon="14.6433383"><ele>566.1428571428571</ele><time>2026-04-25T12:30:14.158Z</time></trkpt><trkpt lat="41.0958533" lon="14.6434033"><ele>566.8571428571429</ele><time>2026-04-25T12:30:15.159Z</time></trkpt><trkpt lat="41.0957983" lon="14.64347"><ele>567.5714285714286</ele><time>2026-04-25T12:30:16.161Z</time></trkpt><trkpt lat="41.0957367" lon="14.6435333"><ele>568.2857142857143</ele><time>2026-04-25T12:30:17.161Z</time></trkpt><trkpt lat="41.0956733" lon="14.6435967"><ele>569.0</ele><time>2026-04-25T12:30:18.162Z</time></trkpt><trkpt lat="41.09561" lon="14.643655"><ele>569.0</ele><time>2026-04-25T12:30:19.162Z</time></trkpt><trkpt lat="41.0955517" lon="14.6437183"><ele>569.0</ele><time>2026-04-25T12:30:20.163Z</time></trkpt><trkpt lat="41.0954917" lon="14.6437817"><ele>569.0</ele><time>2026-04-25T12:30:21.162Z</time></trkpt><trkpt lat="41.095435" lon="14.64384"><ele>569.0</ele><time>2026-04-25T12:30:22.158Z</time></trkpt><trkpt lat="41.095375" lon="14.6439"><ele>569.0</ele><time>2026-04-25T12:30:23.16Z</time></trkpt><trkpt lat="41.095315" lon="14.643955"><ele>569.0</ele><time>2026-04-25T12:30:24.162Z</time></trkpt><trkpt lat="41.0952467" lon="14.6440133"><ele>569.0</ele><time>2026-04-25T12:30:25.161Z</time></trkpt><trkpt lat="41.095175" lon="14.6440667"><ele>569.0</ele><time>2026-04-25T12:30:26.159Z</time></trkpt><trkpt lat="41.0951" lon="14.6441233"><ele>569.0</ele><time>2026-04-25T12:30:27.162Z</time></trkpt><trkpt lat="41.0950317" lon="14.6441767"><ele>569.0</ele><time>2026-04-25T12:30:28.16Z</time></trkpt><trkpt lat="41.0949617" lon="14.6442267"><ele>569.0</ele><time>2026-04-25T12:30:29.162Z</time></trkpt><trkpt lat="41.0948917" lon="14.64427"><ele>569.0</ele><time>2026-04-25T12:30:30.161Z</time></trkpt><trkpt lat="41.0948217" lon="14.6443117"><ele>567.5</ele><time>2026-04-25T12:30:31.163Z</time></trkpt><trkpt lat="41.0947467" lon="14.6443433"><ele>566.0</ele><time>2026-04-25T12:30:32.163Z</time></trkpt><trkpt lat="41.0946717" lon="14.644365"><ele>564.5</ele><time>2026-04-25T12:30:33.161Z</time></trkpt><trkpt lat="41.0946" lon="14.6443817"><ele>563.0</ele><time>2026-04-25T12:30:34.162Z</time></trkpt><trkpt lat="41.094525" lon="14.6443967"><ele>561.5</ele><time>2026-04-25T12:30:35.16Z</time></trkpt><trkpt lat="41.09445" lon="14.6444083"><ele>560.0</ele><time>2026-04-25T12:30:36.163Z</time></trkpt><trkpt lat="41.09437" lon="14.6444217"><ele>560.0</ele><time>2026-04-25T12:30:37.159Z</time></trkpt><trkpt lat="41.0942933" lon="14.6444367"><ele>560.0</ele><time>2026-04-25T12:30:38.163Z</time></trkpt><trkpt lat="41.09422" lon="14.64446"><ele>560.0</ele><time>2026-04-25T12:30:39.162Z</time></trkpt><trkpt lat="41.0941533" lon="14.6444967"><ele>560.0</ele><time>2026-04-25T12:30:40.161Z</time></trkpt><trkpt lat="41.0940917" lon="14.6445533"><ele>560.0</ele><time>2026-04-25T12:30:41.162Z</time></trkpt><trkpt lat="41.0940383" lon="14.6446267"><ele>560.0</ele><time>2026-04-25T12:30:42.161Z</time></trkpt><trkpt lat="41.0939983" lon="14.644715"><ele>560.0</ele><time>2026-04-25T12:30:43.161Z</time></trkpt><trkpt lat="41.0939717" lon="14.6448133"><ele>560.0</ele><time>2026-04-25T12:30:44.164Z</time></trkpt><trkpt lat="41.0939517" lon="14.644915"><ele>560.0</ele><time>2026-04-25T12:30:45.161Z</time></trkpt><trkpt lat="41.0939317" lon="14.6450167"><ele>560.0</ele><time>2026-04-25T12:30:46.161Z</time></trkpt><trkpt lat="41.09391" lon="14.6451167"><ele>560.0</ele><time>2026-04-25T12:30:47.161Z</time></trkpt><trkpt lat="41.0938917" lon="14.6452167"><ele>560.0</ele><time>2026-04-25T12:30:48.159Z</time></trkpt><trkpt lat="41.0938667" lon="14.6453167"><ele>560.0</ele><time>2026-04-25T12:30:49.16Z</time></trkpt><trkpt lat="41.0938367" lon="14.6454133"><ele>560.0</ele><time>2026-04-25T12:30:50.162Z</time></trkpt><trkpt lat="41.0938017" lon="14.6455083"><ele>560.0</ele><time>2026-04-25T12:30:51.161Z</time></trkpt><trkpt lat="41.0937617" lon="14.6455983"><ele>560.0</ele><time>2026-04-25T12:30:52.161Z</time></trkpt><trkpt lat="41.0937083" lon="14.6456833"><ele>560.0</ele><time>2026-04-25T12:30:53.159Z</time></trkpt><trkpt lat="41.0936533" lon="14.645765"><ele>560.0</ele><time>2026-04-25T12:30:54.159Z</time></trkpt><trkpt lat="41.0935933" lon="14.645845"><ele>560.0</ele><time>2026-04-25T12:30:55.16Z</time></trkpt><trkpt lat="41.0935333" lon="14.6459183"><ele>560.0</ele><time>2026-04-25T12:30:56.164Z</time></trkpt><trkpt lat="41.0934717" lon="14.6459867"><ele>560.0</ele><time>2026-04-25T12:30:57.161Z</time></trkpt><trkpt lat="41.0934083" lon="14.6460533"><ele>560.0</ele><time>2026-04-25T12:30:58.159Z</time></trkpt><trkpt lat="41.093355" lon="14.6461267"><ele>560.0</ele><time>2026-04-25T12:30:59.159Z</time></trkpt><trkpt lat="41.0933033" lon="14.6462083"><ele>560.0</ele><time>2026-04-25T12:31:00.159Z</time></trkpt><trkpt lat="41.093255" lon="14.646295"><ele>558.5</ele><time>2026-04-25T12:31:01.158Z</time></trkpt><trkpt lat="41.09322" lon="14.646395"><ele>557.0</ele><time>2026-04-25T12:31:02.159Z</time></trkpt><trkpt lat="41.093195" lon="14.6464983"><ele>555.5</ele><time>2026-04-25T12:31:03.161Z</time></trkpt><trkpt lat="41.093185" lon="14.6466017"><ele>554.0</ele><time>2026-04-25T12:31:04.159Z</time></trkpt><trkpt lat="41.0931883" lon="14.6467033"><ele>552.5</ele><time>2026-04-25T12:31:05.162Z</time></trkpt><trkpt lat="41.0932" lon="14.6468017"><ele>551.0</ele><time>2026-04-25T12:31:06.161Z</time></trkpt><trkpt lat="41.0932217" lon="14.6469"><ele>552.6666666666666</ele><time>2026-04-25T12:31:07.162Z</time></trkpt><trkpt lat="41.093245" lon="14.647"><ele>554.3333333333333</ele><time>2026-04-25T12:31:08.159Z</time></trkpt><trkpt lat="41.0932617" lon="14.6471"><ele>556.0</ele><time>2026-04-25T12:31:09.162Z</time></trkpt><trkpt lat="41.0932683" lon="14.647205"><ele>557.6666666666666</ele><time>2026-04-25T12:31:10.162Z</time></trkpt><trkpt lat="41.0932667" lon="14.64731"><ele>559.3333333333334</ele><time>2026-04-25T12:31:11.162Z</time></trkpt><trkpt lat="41.0932517" lon="14.647415"><ele>561.0</ele><time>2026-04-25T12:31:12.162Z</time></trkpt><trkpt lat="41.0932167" lon="14.6475117"><ele>561.0</ele><time>2026-04-25T12:31:13.161Z</time></trkpt><trkpt lat="41.0931667" lon="14.6475917"><ele>561.0</ele><time>2026-04-25T12:31:14.159Z</time></trkpt><trkpt lat="41.093105" lon="14.6476433"><ele>561.0</ele><time>2026-04-25T12:31:15.16Z</time></trkpt><trkpt lat="41.09303" lon="14.6476683"><ele>561.0</ele><time>2026-04-25T12:31:16.161Z</time></trkpt><trkpt lat="41.0929517" lon="14.6476633"><ele>561.0</ele><time>2026-04-25T12:31:17.162Z</time></trkpt><trkpt lat="41.0928767" lon="14.6476217"><ele>561.0</ele><time>2026-04-25T12:31:18.161Z</time></trkpt><trkpt lat="41.0928133" lon="14.6475667"><ele>561.0</ele><time>2026-04-25T12:31:19.162Z</time></trkpt><trkpt lat="41.0927483" lon="14.647505"><ele>561.0</ele><time>2026-04-25T12:31:20.163Z</time></trkpt><trkpt lat="41.0926817" lon="14.6474567"><ele>561.0</ele><time>2026-04-25T12:31:21.16Z</time></trkpt><trkpt lat="41.09261" lon="14.6474333"><ele>561.0</ele><time>2026-04-25T12:31:22.161Z</time></trkpt><trkpt lat="41.092535" lon="14.6474417"><ele>561.0</ele><time>2026-04-25T12:31:23.163Z</time></trkpt><trkpt lat="41.092465" lon="14.647485"><ele>561.0</ele><time>2026-04-25T12:31:24.162Z</time></trkpt><trkpt lat="41.09241" lon="14.6475467"><ele>559.5</ele><time>2026-04-25T12:31:25.162Z</time></trkpt><trkpt lat="41.0923783" lon="14.647635"><ele>558.0</ele><time>2026-04-25T12:31:26.16Z</time></trkpt><trkpt lat="41.092365" lon="14.6477367"><ele>556.5</ele><time>2026-04-25T12:31:27.162Z</time></trkpt><trkpt lat="41.092365" lon="14.6478383"><ele>555.0</ele><time>2026-04-25T12:31:28.162Z</time></trkpt><trkpt lat="41.0923667" lon="14.6479433"><ele>553.5</ele><time>2026-04-25T12:31:29.162Z</time></trkpt><trkpt lat="41.0923717" lon="14.6480483"><ele>552.0</ele><time>2026-04-25T12:31:30.161Z</time></trkpt><trkpt lat="41.0923733" lon="14.6481467"><ele>552.0</ele><time>2026-04-25T12:31:31.162Z</time></trkpt><trkpt lat="41.0923783" lon="14.648245"><ele>552.0</ele><time>2026-04-25T12:31:32.16Z</time></trkpt><trkpt lat="41.092385" lon="14.648345"><ele>552.0</ele><time>2026-04-25T12:31:33.161Z</time></trkpt><trkpt lat="41.0923933" lon="14.6484433"><ele>552.0</ele><time>2026-04-25T12:31:34.161Z</time></trkpt><trkpt lat="41.0924017" lon="14.6485417"><ele>552.0</ele><time>2026-04-25T12:31:35.161Z</time></trkpt><trkpt lat="41.0923917" lon="14.6486333"><ele>552.0</ele><time>2026-04-25T12:31:36.161Z</time></trkpt><trkpt lat="41.0923617" lon="14.6487233"><ele>552.0</ele><time>2026-04-25T12:31:37.162Z</time></trkpt><trkpt lat="41.092315" lon="14.6487983"><ele>553.8333333333334</ele><time>2026-04-25T12:31:38.163Z</time></trkpt><trkpt lat="41.0922517" lon="14.6488517"><ele>555.6666666666666</ele><time>2026-04-25T12:31:39.162Z</time></trkpt><trkpt lat="41.0921817" lon="14.6488883"><ele>557.5</ele><time>2026-04-25T12:31:40.159Z</time></trkpt><trkpt lat="41.0921033" lon="14.6489083"><ele>559.3333333333333</ele><time>2026-04-25T12:31:41.16Z</time></trkpt><trkpt lat="41.0920267" lon="14.6489067"><ele>561.1666666666666</ele><time>2026-04-25T12:31:42.16Z</time></trkpt><trkpt lat="41.09195" lon="14.6488867"><ele>563.0</ele><time>2026-04-25T12:31:43.162Z</time></trkpt><trkpt lat="41.0918783" lon="14.6488517"><ele>563.0</ele><time>2026-04-25T12:31:44.159Z</time></trkpt><trkpt lat="41.0918067" lon="14.6488017"><ele>563.0</ele><time>2026-04-25T12:31:45.162Z</time></trkpt><trkpt lat="41.0917333" lon="14.6487683"><ele>563.0</ele><time>2026-04-25T12:31:46.163Z</time></trkpt><trkpt lat="41.0916633" lon="14.6487517"><ele>563.0</ele><time>2026-04-25T12:31:47.161Z</time></trkpt><trkpt lat="41.0915833" lon="14.6487533"><ele>563.0</ele><time>2026-04-25T12:31:48.161Z</time></trkpt><trkpt lat="41.0915017" lon="14.648775"><ele>563.0</ele><time>2026-04-25T12:31:49.162Z</time></trkpt><trkpt lat="41.0914267" lon="14.6488117"><ele>560.8333333333333</ele><time>2026-04-25T12:31:50.162Z</time></trkpt><trkpt lat="41.0913533" lon="14.6488567"><ele>558.6666666666666</ele><time>2026-04-25T12:31:51.162Z</time></trkpt><trkpt lat="41.0912867" lon="14.6489083"><ele>556.5</ele><time>2026-04-25T12:31:52.163Z</time></trkpt><trkpt lat="41.09122" lon="14.648965"><ele>554.3333333333334</ele><time>2026-04-25T12:31:53.163Z</time></trkpt><trkpt lat="41.091155" lon="14.649025"><ele>552.1666666666667</ele><time>2026-04-25T12:31:54.162Z</time></trkpt><trkpt lat="41.0910917" lon="14.6490917"><ele>550.0</ele><time>2026-04-25T12:31:55.16Z</time></trkpt><trkpt lat="41.091035" lon="14.649165"><ele>550.0</ele><time>2026-04-25T12:31:56.161Z</time></trkpt><trkpt lat="41.09099" lon="14.64925"><ele>550.0</ele><time>2026-04-25T12:31:57.162Z</time></trkpt><trkpt lat="41.09096" lon="14.6493467"><ele>550.0</ele><time>2026-04-25T12:31:58.162Z</time></trkpt><trkpt lat="41.0909367" lon="14.6494467"><ele>550.0</ele><time>2026-04-25T12:31:59.161Z</time></trkpt><trkpt lat="41.09091" lon="14.6495467"><ele>550.0</ele><time>2026-04-25T12:32:00.159Z</time></trkpt><trkpt lat="41.090875" lon="14.649645"><ele>550.0</ele><time>2026-04-25T12:32:01.162Z</time></trkpt><trkpt lat="41.0908317" lon="14.649735"><ele>551.0</ele><time>2026-04-25T12:32:02.162Z</time></trkpt><trkpt lat="41.0907783" lon="14.64982"><ele>552.0</ele><time>2026-04-25T12:32:03.162Z</time></trkpt><trkpt lat="41.090715" lon="14.64989"><ele>553.0</ele><time>2026-04-25T12:32:04.159Z</time></trkpt><trkpt lat="41.0906483" lon="14.6499417"><ele>554.0</ele><time>2026-04-25T12:32:05.16Z</time></trkpt><trkpt lat="41.0905733" lon="14.6499783"><ele>555.0</ele><time>2026-04-25T12:32:06.16Z</time></trkpt><trkpt lat="41.090495" lon="14.6499933"><ele>556.0</ele><time>2026-04-25T12:32:07.162Z</time></trkpt><trkpt lat="41.0904133" lon="14.6499967"><ele>556.0</ele><time>2026-04-25T12:32:08.164Z</time></trkpt><trkpt lat="41.0903333" lon="14.6499983"><ele>556.0</ele><time>2026-04-25T12:32:09.162Z</time></trkpt><trkpt lat="41.090255" lon="14.650005"><ele>556.0</ele><time>2026-04-25T12:32:10.162Z</time></trkpt><trkpt lat="41.0901783" lon="14.6500133"><ele>556.0</ele><time>2026-04-25T12:32:11.162Z</time></trkpt><trkpt lat="41.0901" lon="14.6500217"><ele>556.0</ele><time>2026-04-25T12:32:12.162Z</time></trkpt><trkpt lat="41.09002" lon="14.6500283"><ele>556.0</ele><time>2026-04-25T12:32:13.162Z</time></trkpt><trkpt lat="41.0899383" lon="14.650035"><ele>555.3333333333334</ele><time>2026-04-25T12:32:14.163Z</time></trkpt><trkpt lat="41.0898617" lon="14.6500417"><ele>554.6666666666667</ele><time>2026-04-25T12:32:15.162Z</time></trkpt><trkpt lat="41.089785" lon="14.6500517"><ele>554.0</ele><time>2026-04-25T12:32:16.161Z</time></trkpt><trkpt lat="41.08971" lon="14.6500567"><ele>553.3333333333334</ele><time>2026-04-25T12:32:17.159Z</time></trkpt><trkpt lat="41.089635" lon="14.6500617"><ele>552.6666666666666</ele><time>2026-04-25T12:32:18.16Z</time></trkpt><trkpt lat="41.0895533" lon="14.6500667"><ele>552.0</ele><time>2026-04-25T12:32:19.161Z</time></trkpt><trkpt lat="41.089475" lon="14.6500717"><ele>552.0</ele><time>2026-04-25T12:32:20.16Z</time></trkpt><trkpt lat="41.0893983" lon="14.6500767"><ele>552.0</ele><time>2026-04-25T12:32:21.16Z</time></trkpt><trkpt lat="41.0893233" lon="14.6500833"><ele>552.0</ele><time>2026-04-25T12:32:22.158Z</time></trkpt><trkpt lat="41.089245" lon="14.6500883"><ele>552.0</ele><time>2026-04-25T12:32:23.163Z</time></trkpt><trkpt lat="41.08917" lon="14.650095"><ele>552.0</ele><time>2026-04-25T12:32:24.159Z</time></trkpt><trkpt lat="41.089095" lon="14.6501067"><ele>552.0</ele><time>2026-04-25T12:32:25.161Z</time></trkpt><trkpt lat="41.0890183" lon="14.6501183"><ele>550.8333333333334</ele><time>2026-04-25T12:32:26.161Z</time></trkpt><trkpt lat="41.0889383" lon="14.6501283"><ele>549.6666666666666</ele><time>2026-04-25T12:32:27.159Z</time></trkpt><trkpt lat="41.0888617" lon="14.650135"><ele>548.5</ele><time>2026-04-25T12:32:28.16Z</time></trkpt><trkpt lat="41.088785" lon="14.6501433"><ele>547.3333333333333</ele><time>2026-04-25T12:32:29.16Z</time></trkpt><trkpt lat="41.0887117" lon="14.6501517"><ele>546.1666666666666</ele><time>2026-04-25T12:32:30.161Z</time></trkpt><trkpt lat="41.0886367" lon="14.6501617"><ele>545.0</ele><time>2026-04-25T12:32:31.16Z</time></trkpt><trkpt lat="41.0885633" lon="14.6501767"><ele>545.0</ele><time>2026-04-25T12:32:32.16Z</time></trkpt><trkpt lat="41.0884917" lon="14.650205"><ele>545.0</ele><time>2026-04-25T12:32:33.159Z</time></trkpt><trkpt lat="41.0884267" lon="14.6502517"><ele>545.0</ele><time>2026-04-25T12:32:34.158Z</time></trkpt><trkpt lat="41.088375" lon="14.6503133"><ele>545.0</ele><time>2026-04-25T12:32:35.159Z</time></trkpt><trkpt lat="41.0883283" lon="14.65039"><ele>545.0</ele><time>2026-04-25T12:32:36.161Z</time></trkpt><trkpt lat="41.0882967" lon="14.6504833"><ele>545.0</ele><time>2026-04-25T12:32:37.16Z</time></trkpt><trkpt lat="41.088275" lon="14.6505833"><ele>545.0</ele><time>2026-04-25T12:32:38.162Z</time></trkpt><trkpt lat="41.08827" lon="14.6506883"><ele>546.1666666666666</ele><time>2026-04-25T12:32:39.16Z</time></trkpt><trkpt lat="41.0882717" lon="14.6507933"><ele>547.3333333333333</ele><time>2026-04-25T12:32:40.162Z</time></trkpt><trkpt lat="41.0882717" lon="14.6509033"><ele>548.5</ele><time>2026-04-25T12:32:41.162Z</time></trkpt><trkpt lat="41.0882683" lon="14.6510083"><ele>549.6666666666666</ele><time>2026-04-25T12:32:42.162Z</time></trkpt><trkpt lat="41.08827" lon="14.6511167"><ele>550.8333333333334</ele><time>2026-04-25T12:32:43.16Z</time></trkpt><trkpt lat="41.0882717" lon="14.6512267"><ele>552.0</ele><time>2026-04-25T12:32:44.162Z</time></trkpt><trkpt lat="41.0882783" lon="14.6513367"><ele>552.0</ele><time>2026-04-25T12:32:45.163Z</time></trkpt><trkpt lat="41.0882917" lon="14.651445"><ele>552.0</ele><time>2026-04-25T12:32:46.162Z</time></trkpt><trkpt lat="41.088305" lon="14.6515533"><ele>552.0</ele><time>2026-04-25T12:32:47.162Z</time></trkpt><trkpt lat="41.0883167" lon="14.6516567"><ele>552.0</ele><time>2026-04-25T12:32:48.161Z</time></trkpt><trkpt lat="41.0883267" lon="14.65176"><ele>552.0</ele><time>2026-04-25T12:32:49.161Z</time></trkpt><trkpt lat="41.0883383" lon="14.6518667"><ele>552.0</ele><time>2026-04-25T12:32:50.163Z</time></trkpt><trkpt lat="41.0883517" lon="14.6519717"><ele>551.8333333333334</ele><time>2026-04-25T12:32:51.162Z</time></trkpt><trkpt lat="41.088365" lon="14.65208"><ele>551.6666666666666</ele><time>2026-04-25T12:32:52.163Z</time></trkpt><trkpt lat="41.0883717" lon="14.6521917"><ele>551.5</ele><time>2026-04-25T12:32:53.161Z</time></trkpt><trkpt lat="41.0883683" lon="14.652305"><ele>551.3333333333333</ele><time>2026-04-25T12:32:54.159Z</time></trkpt><trkpt lat="41.0883567" lon="14.652415"><ele>551.1666666666666</ele><time>2026-04-25T12:32:55.162Z</time></trkpt><trkpt lat="41.0883417" lon="14.6525233"><ele>551.0</ele><time>2026-04-25T12:32:56.163Z</time></trkpt><trkpt lat="41.0883267" lon="14.6526283"><ele>551.0</ele><time>2026-04-25T12:32:57.161Z</time></trkpt><trkpt lat="41.0883017" lon="14.65273"><ele>551.0</ele><time>2026-04-25T12:32:58.162Z</time></trkpt><trkpt lat="41.0882717" lon="14.65283"><ele>551.0</ele><time>2026-04-25T12:32:59.158Z</time></trkpt><trkpt lat="41.08823" lon="14.6529217"><ele>551.0</ele><time>2026-04-25T12:33:00.163Z</time></trkpt><trkpt lat="41.0881867" lon="14.6530067"><ele>551.0</ele><time>2026-04-25T12:33:01.16Z</time></trkpt><trkpt lat="41.0881317" lon="14.6530817"><ele>551.0</ele><time>2026-04-25T12:33:02.16Z</time></trkpt><trkpt lat="41.088065" lon="14.6531467"><ele>550.8333333333333</ele><time>2026-04-25T12:33:03.158Z</time></trkpt><trkpt lat="41.0879967" lon="14.6532"><ele>550.6666666666666</ele><time>2026-04-25T12:33:04.159Z</time></trkpt><trkpt lat="41.0879183" lon="14.6532417"><ele>550.5</ele><time>2026-04-25T12:33:05.161Z</time></trkpt><trkpt lat="41.0878383" lon="14.653275"><ele>550.3333333333334</ele><time>2026-04-25T12:33:06.159Z</time></trkpt><trkpt lat="41.0877617" lon="14.653295"><ele>550.1666666666667</ele><time>2026-04-25T12:33:07.161Z</time></trkpt><trkpt lat="41.0876867" lon="14.6533133"><ele>550.0</ele><time>2026-04-25T12:33:08.163Z</time></trkpt><trkpt lat="41.08761" lon="14.6533317"><ele>550.0</ele><time>2026-04-25T12:33:09.161Z</time></trkpt><trkpt lat="41.0875367" lon="14.6533533"><ele>550.0</ele><time>2026-04-25T12:33:10.162Z</time></trkpt><trkpt lat="41.0874667" lon="14.65338"><ele>550.0</ele><time>2026-04-25T12:33:11.161Z</time></trkpt><trkpt lat="41.0873967" lon="14.6534117"><ele>550.0</ele><time>2026-04-25T12:33:12.163Z</time></trkpt><trkpt lat="41.0873333" lon="14.6534567"><ele>550.0</ele><time>2026-04-25T12:33:13.161Z</time></trkpt><trkpt lat="41.087275" lon="14.65351"><ele>550.0</ele><time>2026-04-25T12:33:14.162Z</time></trkpt><trkpt lat="41.0872167" lon="14.653575"><ele>550.0</ele><time>2026-04-25T12:33:15.161Z</time></trkpt><trkpt lat="41.0871633" lon="14.6536467"><ele>549.4285714285714</ele><time>2026-04-25T12:33:16.161Z</time></trkpt><trkpt lat="41.0871167" lon="14.6537217"><ele>548.8571428571429</ele><time>2026-04-25T12:33:17.161Z</time></trkpt><trkpt lat="41.0870717" lon="14.6537983"><ele>548.2857142857142</ele><time>2026-04-25T12:33:18.163Z</time></trkpt><trkpt lat="41.0870283" lon="14.6538767"><ele>547.7142857142858</ele><time>2026-04-25T12:33:19.162Z</time></trkpt><trkpt lat="41.0869833" lon="14.6539567"><ele>547.1428571428571</ele><time>2026-04-25T12:33:20.16Z</time></trkpt><trkpt lat="41.0869383" lon="14.6540383"><ele>546.5714285714286</ele><time>2026-04-25T12:33:21.159Z</time></trkpt><trkpt lat="41.0868883" lon="14.6541133"><ele>546.0</ele><time>2026-04-25T12:33:22.161Z</time></trkpt><trkpt lat="41.0868367" lon="14.6541883"><ele>546.0</ele><time>2026-04-25T12:33:23.159Z</time></trkpt><trkpt lat="41.0867867" lon="14.65426"><ele>546.0</ele><time>2026-04-25T12:33:24.162Z</time></trkpt><trkpt lat="41.0867383" lon="14.65433"><ele>546.0</ele><time>2026-04-25T12:33:25.16Z</time></trkpt><trkpt lat="41.08669" lon="14.6543983"><ele>546.0</ele><time>2026-04-25T12:33:26.164Z</time></trkpt><trkpt lat="41.0866367" lon="14.6544617"><ele>546.0</ele><time>2026-04-25T12:33:27.16Z</time></trkpt><trkpt lat="41.0865867" lon="14.654525"><ele>546.0</ele><time>2026-04-25T12:33:28.162Z</time></trkpt><trkpt lat="41.0865317" lon="14.6545867"><ele>546.0</ele><time>2026-04-25T12:33:29.16Z</time></trkpt><trkpt lat="41.0864783" lon="14.6546467"><ele>545.8571428571429</ele><time>2026-04-25T12:33:30.159Z</time></trkpt><trkpt lat="41.0864267" lon="14.6547067"><ele>545.7142857142858</ele><time>2026-04-25T12:33:31.162Z</time></trkpt><trkpt lat="41.0863783" lon="14.6547683"><ele>545.5714285714286</ele><time>2026-04-25T12:33:32.163Z</time></trkpt><trkpt lat="41.08633" lon="14.6548283"><ele>545.4285714285714</ele><time>2026-04-25T12:33:33.162Z</time></trkpt><trkpt lat="41.0862767" lon="14.6548917"><ele>545.2857142857143</ele><time>2026-04-25T12:33:34.163Z</time></trkpt><trkpt lat="41.08622" lon="14.6549533"><ele>545.1428571428571</ele><time>2026-04-25T12:33:35.161Z</time></trkpt><trkpt lat="41.0861633" lon="14.6550167"><ele>545.0</ele><time>2026-04-25T12:33:36.161Z</time></trkpt><trkpt lat="41.0861" lon="14.6550733"><ele>545.0</ele><time>2026-04-25T12:33:37.161Z</time></trkpt><trkpt lat="41.0860383" lon="14.6551283"><ele>545.0</ele><time>2026-04-25T12:33:38.162Z</time></trkpt><trkpt lat="41.08598" lon="14.65518"><ele>545.0</ele><time>2026-04-25T12:33:39.162Z</time></trkpt><trkpt lat="41.0859183" lon="14.65523"><ele>545.0</ele><time>2026-04-25T12:33:40.163Z</time></trkpt><trkpt lat="41.0858533" lon="14.6552717"><ele>545.0</ele><time>2026-04-25T12:33:41.162Z</time></trkpt><trkpt lat="41.0857917" lon="14.6553067"><ele>545.0</ele><time>2026-04-25T12:33:42.158Z</time></trkpt><trkpt lat="41.0857283" lon="14.6553367"><ele>545.0</ele><time>2026-04-25T12:33:43.158Z</time></trkpt><trkpt lat="41.0856667" lon="14.6553617"><ele>544.8333333333333</ele><time>2026-04-25T12:33:44.16Z</time></trkpt><trkpt lat="41.0855517" lon="14.6554"><ele>544.6666666666666</ele><time>2026-04-25T12:33:46.158Z</time></trkpt><trkpt lat="41.085435" lon="14.65543"><ele>544.5</ele><time>2026-04-25T12:33:48.16Z</time></trkpt><trkpt lat="41.0853717" lon="14.6554417"><ele>544.3333333333334</ele><time>2026-04-25T12:33:49.16Z</time></trkpt><trkpt lat="41.0853033" lon="14.6554483"><ele>544.1666666666667</ele><time>2026-04-25T12:33:50.161Z</time></trkpt><trkpt lat="41.08523" lon="14.655455"><ele>544.0</ele><time>2026-04-25T12:33:51.159Z</time></trkpt><trkpt lat="41.0851567" lon="14.6554667"><ele>544.0</ele><time>2026-04-25T12:33:52.158Z</time></trkpt><trkpt lat="41.0850817" lon="14.655485"><ele>544.0</ele><time>2026-04-25T12:33:53.16Z</time></trkpt><trkpt lat="41.085005" lon="14.655515"><ele>544.0</ele><time>2026-04-25T12:33:54.162Z</time></trkpt><trkpt lat="41.0849267" lon="14.6555583"><ele>544.0</ele><time>2026-04-25T12:33:55.161Z</time></trkpt><trkpt lat="41.0848583" lon="14.6556133"><ele>544.0</ele><time>2026-04-25T12:33:56.162Z</time></trkpt><trkpt lat="41.08479" lon="14.655675"><ele>544.0</ele><time>2026-04-25T12:33:57.161Z</time></trkpt><trkpt lat="41.0847233" lon="14.655735"><ele>545.0</ele><time>2026-04-25T12:33:58.158Z</time></trkpt><trkpt lat="41.0846583" lon="14.6557933"><ele>546.0</ele><time>2026-04-25T12:33:59.161Z</time></trkpt><trkpt lat="41.084595" lon="14.655855"><ele>547.0</ele><time>2026-04-25T12:34:00.16Z</time></trkpt><trkpt lat="41.08453" lon="14.6559183"><ele>548.0</ele><time>2026-04-25T12:34:01.161Z</time></trkpt><trkpt lat="41.0844667" lon="14.655985"><ele>549.0</ele><time>2026-04-25T12:34:02.16Z</time></trkpt><trkpt lat="41.0844" lon="14.6560467"><ele>550.0</ele><time>2026-04-25T12:34:03.159Z</time></trkpt><trkpt lat="41.0843317" lon="14.6561067"><ele>548.3333333333334</ele><time>2026-04-25T12:34:04.159Z</time></trkpt><trkpt lat="41.08426" lon="14.6561683"><ele>546.6666666666667</ele><time>2026-04-25T12:34:05.16Z</time></trkpt><trkpt lat="41.0841883" lon="14.6562283"><ele>545.0</ele><time>2026-04-25T12:34:06.16Z</time></trkpt><trkpt lat="41.0841117" lon="14.656285"><ele>543.3333333333334</ele><time>2026-04-25T12:34:07.16Z</time></trkpt><trkpt lat="41.08403" lon="14.6563367"><ele>541.6666666666666</ele><time>2026-04-25T12:34:08.158Z</time></trkpt><trkpt lat="41.083945" lon="14.65638"><ele>540.0</ele><time>2026-04-25T12:34:09.161Z</time></trkpt><trkpt lat="41.0838567" lon="14.6564133"><ele>540.0</ele><time>2026-04-25T12:34:10.16Z</time></trkpt><trkpt lat="41.083765" lon="14.6564417"><ele>540.0</ele><time>2026-04-25T12:34:11.16Z</time></trkpt><trkpt lat="41.0836733" lon="14.6564633"><ele>540.0</ele><time>2026-04-25T12:34:12.16Z</time></trkpt><trkpt lat="41.0835817" lon="14.656485"><ele>540.0</ele><time>2026-04-25T12:34:13.158Z</time></trkpt><trkpt lat="41.0834883" lon="14.6565117"><ele>540.0</ele><time>2026-04-25T12:34:14.159Z</time></trkpt><trkpt lat="41.083395" lon="14.6565417"><ele>540.0</ele><time>2026-04-25T12:34:15.16Z</time></trkpt><trkpt lat="41.0833" lon="14.6565667"><ele>540.0</ele><time>2026-04-25T12:34:16.16Z</time></trkpt><trkpt lat="41.0832" lon="14.6565883"><ele>540.0</ele><time>2026-04-25T12:34:17.16Z</time></trkpt><trkpt lat="41.0830983" lon="14.6566133"><ele>540.0</ele><time>2026-04-25T12:34:18.16Z</time></trkpt><trkpt lat="41.082995" lon="14.6566333"><ele>540.0</ele><time>2026-04-25T12:34:19.159Z</time></trkpt><trkpt lat="41.0828917" lon="14.656655"><ele>538.6</ele><time>2026-04-25T12:34:20.16Z</time></trkpt><trkpt lat="41.0827867" lon="14.65668"><ele>537.2</ele><time>2026-04-25T12:34:21.159Z</time></trkpt><trkpt lat="41.08268" lon="14.6567033"><ele>535.8</ele><time>2026-04-25T12:34:22.158Z</time></trkpt><trkpt lat="41.082575" lon="14.6567283"><ele>534.4</ele><time>2026-04-25T12:34:23.159Z</time></trkpt><trkpt lat="41.0824733" lon="14.6567533"><ele>533.0</ele><time>2026-04-25T12:34:24.162Z</time></trkpt><trkpt lat="41.08238" lon="14.6567817"><ele>531.8</ele><time>2026-04-25T12:34:25.162Z</time></trkpt><trkpt lat="41.0822917" lon="14.656815"><ele>530.5999999999999</ele><time>2026-04-25T12:34:26.16Z</time></trkpt><trkpt lat="41.0822133" lon="14.656865"><ele>529.4000000000001</ele><time>2026-04-25T12:34:27.162Z</time></trkpt><trkpt lat="41.0821433" lon="14.6569383"><ele>528.2</ele><time>2026-04-25T12:34:28.161Z</time></trkpt><trkpt lat="41.0820867" lon="14.65703"><ele>527.0</ele><time>2026-04-25T12:34:29.158Z</time></trkpt><trkpt lat="41.0820367" lon="14.6571333"><ele>527.0</ele><time>2026-04-25T12:34:30.159Z</time></trkpt><trkpt lat="41.081995" lon="14.6572317"><ele>527.0</ele><time>2026-04-25T12:34:31.162Z</time></trkpt><trkpt lat="41.0819533" lon="14.6573267"><ele>527.0</ele><time>2026-04-25T12:34:32.162Z</time></trkpt><trkpt lat="41.0819083" lon="14.6574233"><ele>527.0</ele><time>2026-04-25T12:34:33.16Z</time></trkpt><trkpt lat="41.0818583" lon="14.657515"><ele>527.0</ele><time>2026-04-25T12:34:34.162Z</time></trkpt><trkpt lat="41.0818017" lon="14.6576"><ele>527.0</ele><time>2026-04-25T12:34:35.163Z</time></trkpt><trkpt lat="41.0817383" lon="14.6576717"><ele>527.0000000000001</ele><time>2026-04-25T12:34:36.162Z</time></trkpt><trkpt lat="41.081675" lon="14.6577367"><ele>527.0</ele><time>2026-04-25T12:34:37.163Z</time></trkpt><trkpt lat="41.081615" lon="14.6577833"><ele>527.0</ele><time>2026-04-25T12:34:38.163Z</time></trkpt><trkpt lat="41.081555" lon="14.657815"><ele>527.0</ele><time>2026-04-25T12:34:39.162Z</time></trkpt><trkpt lat="41.081495" lon="14.6578533"><ele>527.0</ele><time>2026-04-25T12:34:40.159Z</time></trkpt><trkpt lat="41.0814317" lon="14.657895"><ele>527.0000000000001</ele><time>2026-04-25T12:34:41.159Z</time></trkpt><trkpt lat="41.0813633" lon="14.6579317"><ele>527.0</ele><time>2026-04-25T12:34:42.163Z</time></trkpt><trkpt lat="41.0812883" lon="14.65795"><ele>526.3333333333333</ele><time>2026-04-25T12:34:43.161Z</time></trkpt><trkpt lat="41.0812133" lon="14.6579617"><ele>525.6666666666666</ele><time>2026-04-25T12:34:44.162Z</time></trkpt><trkpt lat="41.081135" lon="14.6579617"><ele>525.0</ele><time>2026-04-25T12:34:45.158Z</time></trkpt><trkpt lat="41.081055" lon="14.657955"><ele>524.3333333333334</ele><time>2026-04-25T12:34:46.159Z</time></trkpt><trkpt lat="41.08097" lon="14.6579467"><ele>523.6666666666667</ele><time>2026-04-25T12:34:47.159Z</time></trkpt><trkpt lat="41.0808833" lon="14.6579333"><ele>523.0</ele><time>2026-04-25T12:34:48.159Z</time></trkpt><trkpt lat="41.080795" lon="14.6579167"><ele>522.6</ele><time>2026-04-25T12:34:49.159Z</time></trkpt><trkpt lat="41.08071" lon="14.6578933"><ele>522.1999999999999</ele><time>2026-04-25T12:34:50.162Z</time></trkpt><trkpt lat="41.0806233" lon="14.6578717"><ele>521.8</ele><time>2026-04-25T12:34:51.159Z</time></trkpt><trkpt lat="41.080535" lon="14.657855"><ele>521.4</ele><time>2026-04-25T12:34:52.158Z</time></trkpt><trkpt lat="41.0804433" lon="14.6578383"><ele>521.0</ele><time>2026-04-25T12:34:53.159Z</time></trkpt><trkpt lat="41.0803467" lon="14.65782"><ele>521.0</ele><time>2026-04-25T12:34:54.163Z</time></trkpt><trkpt lat="41.0802483" lon="14.6578033"><ele>521.0</ele><time>2026-04-25T12:34:55.159Z</time></trkpt><trkpt lat="41.0801517" lon="14.6577867"><ele>521.0</ele><time>2026-04-25T12:34:56.16Z</time></trkpt><trkpt lat="41.0800567" lon="14.6577733"><ele>521.0</ele><time>2026-04-25T12:34:57.159Z</time></trkpt><trkpt lat="41.0799617" lon="14.65776"><ele>521.0</ele><time>2026-04-25T12:34:58.159Z</time></trkpt><trkpt lat="41.079865" lon="14.6577417"><ele>518.6</ele><time>2026-04-25T12:34:59.16Z</time></trkpt><trkpt lat="41.07977" lon="14.6577233"><ele>516.2</ele><time>2026-04-25T12:35:00.159Z</time></trkpt><trkpt lat="41.079675" lon="14.6576933"><ele>513.8</ele><time>2026-04-25T12:35:01.16Z</time></trkpt><trkpt lat="41.07958" lon="14.6576517"><ele>511.4</ele><time>2026-04-25T12:35:02.163Z</time></trkpt><trkpt lat="41.079485" lon="14.6575967"><ele>509.0</ele><time>2026-04-25T12:35:03.162Z</time></trkpt><trkpt lat="41.0793933" lon="14.65753"><ele>509.0</ele><time>2026-04-25T12:35:04.161Z</time></trkpt><trkpt lat="41.0793067" lon="14.6574567"><ele>509.0</ele><time>2026-04-25T12:35:05.162Z</time></trkpt><trkpt lat="41.0792167" lon="14.6573917"><ele>509.0</ele><time>2026-04-25T12:35:06.158Z</time></trkpt><trkpt lat="41.0791267" lon="14.6573383"><ele>509.0</ele><time>2026-04-25T12:35:07.159Z</time></trkpt><trkpt lat="41.0790367" lon="14.657295"><ele>509.0</ele><time>2026-04-25T12:35:08.162Z</time></trkpt><trkpt lat="41.0789433" lon="14.6572683"><ele>507.99999999999994</ele><time>2026-04-25T12:35:09.16Z</time></trkpt><trkpt lat="41.07885" lon="14.6572583"><ele>507.0</ele><time>2026-04-25T12:35:10.159Z</time></trkpt><trkpt lat="41.0787667" lon="14.6572667"><ele>506.0</ele><time>2026-04-25T12:35:11.161Z</time></trkpt><trkpt lat="41.078695" lon="14.657295"><ele>505.0</ele><time>2026-04-25T12:35:12.162Z</time></trkpt><trkpt lat="41.07864" lon="14.657345"><ele>503.99999999999994</ele><time>2026-04-25T12:35:13.16Z</time></trkpt><trkpt lat="41.0786067" lon="14.6574883"><ele>503.0</ele><time>2026-04-25T12:35:15.159Z</time></trkpt><trkpt lat="41.078635" lon="14.6575783"><ele>502.99999999999994</ele><time>2026-04-25T12:35:16.161Z</time></trkpt><trkpt lat="41.0786867" lon="14.657665"><ele>503.0</ele><time>2026-04-25T12:35:17.161Z</time></trkpt><trkpt lat="41.0787367" lon="14.6577483"><ele>503.0</ele><time>2026-04-25T12:35:18.157Z</time></trkpt><trkpt lat="41.0787933" lon="14.6578367"><ele>503.0</ele><time>2026-04-25T12:35:19.16Z</time></trkpt><trkpt lat="41.0788467" lon="14.6579333"><ele>502.99999999999994</ele><time>2026-04-25T12:35:20.157Z</time></trkpt><trkpt lat="41.0788917" lon="14.6580433"><ele>503.0</ele><time>2026-04-25T12:35:21.158Z</time></trkpt><trkpt lat="41.078925" lon="14.6581617"><ele>501.2</ele><time>2026-04-25T12:35:22.16Z</time></trkpt><trkpt lat="41.078945" lon="14.658285"><ele>499.4</ele><time>2026-04-25T12:35:23.16Z</time></trkpt><trkpt lat="41.078955" lon="14.65841"><ele>497.59999999999997</ele><time>2026-04-25T12:35:24.161Z</time></trkpt><trkpt lat="41.0789533" lon="14.65854"><ele>495.79999999999995</ele><time>2026-04-25T12:35:25.161Z</time></trkpt><trkpt lat="41.078945" lon="14.6586717"><ele>494.0</ele><time>2026-04-25T12:35:26.161Z</time></trkpt><trkpt lat="41.07893" lon="14.658805"><ele>492.79999999999995</ele><time>2026-04-25T12:35:27.16Z</time></trkpt><trkpt lat="41.078915" lon="14.65894"><ele>491.59999999999997</ele><time>2026-04-25T12:35:28.16Z</time></trkpt><trkpt lat="41.0789017" lon="14.6590767"><ele>490.4</ele><time>2026-04-25T12:35:29.157Z</time></trkpt><trkpt lat="41.0788883" lon="14.6592167"><ele>489.2</ele><time>2026-04-25T12:35:30.162Z</time></trkpt><trkpt lat="41.0788733" lon="14.65936"><ele>488.0</ele><time>2026-04-25T12:35:31.161Z</time></trkpt><trkpt lat="41.0788617" lon="14.659505"><ele>487.2</ele><time>2026-04-25T12:35:32.16Z</time></trkpt><trkpt lat="41.07885" lon="14.65965"><ele>486.4</ele><time>2026-04-25T12:35:33.16Z</time></trkpt><trkpt lat="41.0788383" lon="14.6597983"><ele>485.59999999999997</ele><time>2026-04-25T12:35:34.157Z</time></trkpt><trkpt lat="41.07883" lon="14.6599433"><ele>484.79999999999995</ele><time>2026-04-25T12:35:35.16Z</time></trkpt><trkpt lat="41.0788183" lon="14.6600867"><ele>484.0</ele><time>2026-04-25T12:35:36.162Z</time></trkpt><trkpt lat="41.078805" lon="14.6602333"><ele>484.5</ele><time>2026-04-25T12:35:37.16Z</time></trkpt><trkpt lat="41.0787883" lon="14.6603817"><ele>485.0</ele><time>2026-04-25T12:35:38.16Z</time></trkpt><trkpt lat="41.078775" lon="14.6605367"><ele>485.5</ele><time>2026-04-25T12:35:39.161Z</time></trkpt><trkpt lat="41.0787633" lon="14.6606933"><ele>486.0</ele><time>2026-04-25T12:35:40.162Z</time></trkpt><trkpt lat="41.0787483" lon="14.6608417"><ele>486.0</ele><time>2026-04-25T12:35:41.16Z</time></trkpt><trkpt lat="41.078735" lon="14.6609767"><ele>486.0</ele><time>2026-04-25T12:35:42.16Z</time></trkpt><trkpt lat="41.0787217" lon="14.6611117"><ele>486.0</ele><time>2026-04-25T12:35:43.158Z</time></trkpt><trkpt lat="41.078705" lon="14.6612433"><ele>486.0</ele><time>2026-04-25T12:35:44.161Z</time></trkpt><trkpt lat="41.0786883" lon="14.6613783"><ele>486.0</ele><time>2026-04-25T12:35:45.162Z</time></trkpt><trkpt lat="41.078675" lon="14.6615217"><ele>486.4</ele><time>2026-04-25T12:35:46.16Z</time></trkpt><trkpt lat="41.07866" lon="14.6616667"><ele>486.8</ele><time>2026-04-25T12:35:47.158Z</time></trkpt><trkpt lat="41.0786433" lon="14.6618133"><ele>487.19999999999993</ele><time>2026-04-25T12:35:48.158Z</time></trkpt><trkpt lat="41.0786283" lon="14.6619567"><ele>487.59999999999997</ele><time>2026-04-25T12:35:49.159Z</time></trkpt><trkpt lat="41.07862" lon="14.6620933"><ele>488.0</ele><time>2026-04-25T12:35:50.159Z</time></trkpt><trkpt lat="41.0786133" lon="14.6622283"><ele>487.99999999999994</ele><time>2026-04-25T12:35:51.16Z</time></trkpt><trkpt lat="41.0786033" lon="14.6623533"><ele>488.0</ele><time>2026-04-25T12:35:52.158Z</time></trkpt><trkpt lat="41.07859" lon="14.662475"><ele>488.0</ele><time>2026-04-25T12:35:53.158Z</time></trkpt><trkpt lat="41.07857" lon="14.66259"><ele>488.0</ele><time>2026-04-25T12:35:54.16Z</time></trkpt><trkpt lat="41.0785433" lon="14.6626983"><ele>487.99999999999994</ele><time>2026-04-25T12:35:55.159Z</time></trkpt><trkpt lat="41.0785067" lon="14.6628"><ele>488.0</ele><time>2026-04-25T12:35:56.16Z</time></trkpt><trkpt lat="41.0784583" lon="14.6628983"><ele>486.66666666666663</ele><time>2026-04-25T12:35:57.159Z</time></trkpt><trkpt lat="41.0784017" lon="14.6629933"><ele>485.3333333333333</ele><time>2026-04-25T12:35:58.159Z</time></trkpt><trkpt lat="41.07834" lon="14.663075"><ele>484.0</ele><time>2026-04-25T12:35:59.16Z</time></trkpt><trkpt lat="41.0782783" lon="14.66314"><ele>482.66666666666663</ele><time>2026-04-25T12:36:00.159Z</time></trkpt><trkpt lat="41.078215" lon="14.6631883"><ele>481.3333333333333</ele><time>2026-04-25T12:36:01.157Z</time></trkpt><trkpt lat="41.0781433" lon="14.66321"><ele>480.0</ele><time>2026-04-25T12:36:02.161Z</time></trkpt><trkpt lat="41.0780617" lon="14.6632117"><ele>478.2</ele><time>2026-04-25T12:36:03.158Z</time></trkpt><trkpt lat="41.077975" lon="14.6631967"><ele>476.4</ele><time>2026-04-25T12:36:04.159Z</time></trkpt><trkpt lat="41.0778917" lon="14.6631667"><ele>474.6</ele><time>2026-04-25T12:36:05.16Z</time></trkpt><trkpt lat="41.077805" lon="14.6631267"><ele>472.8</ele><time>2026-04-25T12:36:06.158Z</time></trkpt><trkpt lat="41.0777167" lon="14.6630767"><ele>471.0</ele><time>2026-04-25T12:36:07.159Z</time></trkpt><trkpt lat="41.0776367" lon="14.6630233"><ele>471.0</ele><time>2026-04-25T12:36:08.163Z</time></trkpt><trkpt lat="41.077565" lon="14.6629667"><ele>471.0</ele><time>2026-04-25T12:36:09.16Z</time></trkpt><trkpt lat="41.0775" lon="14.6629067"><ele>471.0</ele><time>2026-04-25T12:36:10.158Z</time></trkpt><trkpt lat="41.0774317" lon="14.6628533"><ele>471.0</ele><time>2026-04-25T12:36:11.161Z</time></trkpt><trkpt lat="41.0773517" lon="14.6628183"><ele>471.0</ele><time>2026-04-25T12:36:12.162Z</time></trkpt><trkpt lat="41.0772667" lon="14.6627983"><ele>471.0</ele><time>2026-04-25T12:36:13.16Z</time></trkpt><trkpt lat="41.0771833" lon="14.6627967"><ele>470.8333333333333</ele><time>2026-04-25T12:36:14.161Z</time></trkpt><trkpt lat="41.0770967" lon="14.6628183"><ele>470.66666666666663</ele><time>2026-04-25T12:36:15.159Z</time></trkpt><trkpt lat="41.0770183" lon="14.6628583"><ele>470.5</ele><time>2026-04-25T12:36:16.16Z</time></trkpt><trkpt lat="41.0769467" lon="14.66291"><ele>470.3333333333333</ele><time>2026-04-25T12:36:17.16Z</time></trkpt><trkpt lat="41.0768817" lon="14.6629783"><ele>470.16666666666663</ele><time>2026-04-25T12:36:18.159Z</time></trkpt><trkpt lat="41.076825" lon="14.66306"><ele>470.0</ele><time>2026-04-25T12:36:19.159Z</time></trkpt><trkpt lat="41.07678" lon="14.663155"><ele>469.99999999999994</ele><time>2026-04-25T12:36:20.159Z</time></trkpt><trkpt lat="41.07675" lon="14.6632617"><ele>470.0</ele><time>2026-04-25T12:36:21.159Z</time></trkpt><trkpt lat="41.0767333" lon="14.6633767"><ele>470.0</ele><time>2026-04-25T12:36:22.158Z</time></trkpt><trkpt lat="41.07672" lon="14.6634967"><ele>470.0</ele><time>2026-04-25T12:36:23.158Z</time></trkpt><trkpt lat="41.0767133" lon="14.66361"><ele>469.99999999999994</ele><time>2026-04-25T12:36:24.162Z</time></trkpt><trkpt lat="41.07671" lon="14.6637133"><ele>470.0</ele><time>2026-04-25T12:36:25.159Z</time></trkpt><trkpt lat="41.076695" lon="14.663805"><ele>468.0</ele><time>2026-04-25T12:36:26.161Z</time></trkpt><trkpt lat="41.0766333" lon="14.6639283"><ele>466.0</ele><time>2026-04-25T12:36:28.158Z</time></trkpt><trkpt lat="41.0765167" lon="14.663955"><ele>464.0</ele><time>2026-04-25T12:36:30.159Z</time></trkpt><trkpt lat="41.0764433" lon="14.6639133"><ele>462.0</ele><time>2026-04-25T12:36:31.158Z</time></trkpt><trkpt lat="41.0763683" lon="14.6638567"><ele>460.0</ele><time>2026-04-25T12:36:32.159Z</time></trkpt><trkpt lat="41.0763017" lon="14.6637983"><ele>460.33333333333337</ele><time>2026-04-25T12:36:33.159Z</time></trkpt><trkpt lat="41.0762383" lon="14.6637233"><ele>460.6666666666667</ele><time>2026-04-25T12:36:34.162Z</time></trkpt><trkpt lat="41.0761783" lon="14.6636367"><ele>461.0</ele><time>2026-04-25T12:36:35.159Z</time></trkpt><trkpt lat="41.07612" lon="14.6635433"><ele>461.33333333333337</ele><time>2026-04-25T12:36:36.159Z</time></trkpt><trkpt lat="41.0760667" lon="14.663445"><ele>461.6666666666667</ele><time>2026-04-25T12:36:37.159Z</time></trkpt><trkpt lat="41.07602" lon="14.66334"><ele>462.0</ele><time>2026-04-25T12:36:38.16Z</time></trkpt><trkpt lat="41.07597" lon="14.6632317"><ele>462.0</ele><time>2026-04-25T12:36:39.16Z</time></trkpt><trkpt lat="41.0759133" lon="14.663135"><ele>462.00000000000006</ele><time>2026-04-25T12:36:40.161Z</time></trkpt><trkpt lat="41.0758417" lon="14.6630567"><ele>462.00000000000006</ele><time>2026-04-25T12:36:41.16Z</time></trkpt><trkpt lat="41.0757583" lon="14.6630017"><ele>462.0</ele><time>2026-04-25T12:36:42.161Z</time></trkpt><trkpt lat="41.0756633" lon="14.66297"><ele>462.0</ele><time>2026-04-25T12:36:43.161Z</time></trkpt><trkpt lat="41.0755617" lon="14.6629517"><ele>460.20000000000005</ele><time>2026-04-25T12:36:44.163Z</time></trkpt><trkpt lat="41.0754583" lon="14.66294"><ele>458.40000000000003</ele><time>2026-04-25T12:36:45.16Z</time></trkpt><trkpt lat="41.0753567" lon="14.662935"><ele>456.59999999999997</ele><time>2026-04-25T12:36:46.161Z</time></trkpt><trkpt lat="41.0752533" lon="14.6629333"><ele>454.79999999999995</ele><time>2026-04-25T12:36:47.158Z</time></trkpt><trkpt lat="41.0751617" lon="14.6629367"><ele>453.0</ele><time>2026-04-25T12:36:48.158Z</time></trkpt><trkpt lat="41.0750783" lon="14.662945"><ele>453.0</ele><time>2026-04-25T12:36:49.159Z</time></trkpt><trkpt lat="41.074995" lon="14.6629517"><ele>453.0</ele><time>2026-04-25T12:36:50.159Z</time></trkpt><trkpt lat="41.0749083" lon="14.6629617"><ele>453.0</ele><time>2026-04-25T12:36:51.158Z</time></trkpt><trkpt lat="41.0748217" lon="14.6629717"><ele>453.0</ele><time>2026-04-25T12:36:52.16Z</time></trkpt><trkpt lat="41.0747317" lon="14.66299"><ele>453.0</ele><time>2026-04-25T12:36:53.157Z</time></trkpt><trkpt lat="41.0746417" lon="14.663015"><ele>453.0</ele><time>2026-04-25T12:36:54.159Z</time></trkpt><trkpt lat="41.0745567" lon="14.6630433"><ele>453.0</ele><time>2026-04-25T12:36:55.159Z</time></trkpt><trkpt lat="41.0744733" lon="14.663075"><ele>453.0</ele><time>2026-04-25T12:36:56.16Z</time></trkpt><trkpt lat="41.0743883" lon="14.6631083"><ele>453.0</ele><time>2026-04-25T12:36:57.162Z</time></trkpt><trkpt lat="41.0743033" lon="14.663145"><ele>453.0</ele><time>2026-04-25T12:36:58.162Z</time></trkpt><trkpt lat="41.0742183" lon="14.6631883"><ele>453.0</ele><time>2026-04-25T12:36:59.161Z</time></trkpt><trkpt lat="41.07414" lon="14.6632417"><ele>453.0</ele><time>2026-04-25T12:37:00.161Z</time></trkpt><trkpt lat="41.0740667" lon="14.66329"><ele>453.0</ele><time>2026-04-25T12:37:01.16Z</time></trkpt><trkpt lat="41.0739967" lon="14.66334"><ele>453.0</ele><time>2026-04-25T12:37:02.159Z</time></trkpt><trkpt lat="41.0739267" lon="14.6634"><ele>453.0</ele><time>2026-04-25T12:37:03.16Z</time></trkpt><trkpt lat="41.0738583" lon="14.6634633"><ele>453.0</ele><time>2026-04-25T12:37:04.158Z</time></trkpt><trkpt lat="41.0737817" lon="14.6635283"><ele>453.0</ele><time>2026-04-25T12:37:05.161Z</time></trkpt><trkpt lat="41.07371" lon="14.6635967"><ele>453.0</ele><time>2026-04-25T12:37:06.161Z</time></trkpt><trkpt lat="41.0736433" lon="14.6636683"><ele>451.5</ele><time>2026-04-25T12:37:07.159Z</time></trkpt><trkpt lat="41.0735767" lon="14.6637467"><ele>450.0</ele><time>2026-04-25T12:37:08.161Z</time></trkpt><trkpt lat="41.0735083" lon="14.6638267"><ele>448.5</ele><time>2026-04-25T12:37:09.161Z</time></trkpt><trkpt lat="41.0734433" lon="14.663905"><ele>447.0</ele><time>2026-04-25T12:37:10.161Z</time></trkpt><trkpt lat="41.07338" lon="14.6639883"><ele>445.5</ele><time>2026-04-25T12:37:11.158Z</time></trkpt><trkpt lat="41.0733183" lon="14.6640683"><ele>444.0</ele><time>2026-04-25T12:37:12.159Z</time></trkpt><trkpt lat="41.0732683" lon="14.6641483"><ele>443.8333333333333</ele><time>2026-04-25T12:37:13.162Z</time></trkpt><trkpt lat="41.073225" lon="14.6642367"><ele>443.66666666666663</ele><time>2026-04-25T12:37:14.162Z</time></trkpt><trkpt lat="41.0731817" lon="14.6643317"><ele>443.5</ele><time>2026-04-25T12:37:15.161Z</time></trkpt><trkpt lat="41.0731383" lon="14.66443"><ele>443.3333333333333</ele><time>2026-04-25T12:37:16.158Z</time></trkpt><trkpt lat="41.0730983" lon="14.6645333"><ele>443.16666666666663</ele><time>2026-04-25T12:37:17.157Z</time></trkpt><trkpt lat="41.0730667" lon="14.6646433"><ele>443.0</ele><time>2026-04-25T12:37:18.159Z</time></trkpt><trkpt lat="41.073055" lon="14.6647567"><ele>442.99999999999994</ele><time>2026-04-25T12:37:19.16Z</time></trkpt><trkpt lat="41.0730567" lon="14.6648717"><ele>443.0</ele><time>2026-04-25T12:37:20.161Z</time></trkpt><trkpt lat="41.0730717" lon="14.66499"><ele>443.0</ele><time>2026-04-25T12:37:21.16Z</time></trkpt><trkpt lat="41.07309" lon="14.6651033"><ele>443.0</ele><time>2026-04-25T12:37:22.157Z</time></trkpt><trkpt lat="41.073105" lon="14.6652117"><ele>442.99999999999994</ele><time>2026-04-25T12:37:23.158Z</time></trkpt><trkpt lat="41.0731133" lon="14.6653167"><ele>443.0</ele><time>2026-04-25T12:37:24.162Z</time></trkpt><trkpt lat="41.07311" lon="14.6654217"><ele>442.49999999999994</ele><time>2026-04-25T12:37:25.159Z</time></trkpt><trkpt lat="41.0730967" lon="14.665525"><ele>442.0</ele><time>2026-04-25T12:37:26.159Z</time></trkpt><trkpt lat="41.0730717" lon="14.6656283"><ele>441.5</ele><time>2026-04-25T12:37:27.16Z</time></trkpt><trkpt lat="41.07304" lon="14.6657267"><ele>441.0</ele><time>2026-04-25T12:37:28.159Z</time></trkpt><trkpt lat="41.0729967" lon="14.6658167"><ele>440.49999999999994</ele><time>2026-04-25T12:37:29.158Z</time></trkpt><trkpt lat="41.0729417" lon="14.6659"><ele>440.0</ele><time>2026-04-25T12:37:30.16Z</time></trkpt><trkpt lat="41.0728833" lon="14.66597"><ele>439.99999999999994</ele><time>2026-04-25T12:37:31.158Z</time></trkpt><trkpt lat="41.0728133" lon="14.6660183"><ele>440.0</ele><time>2026-04-25T12:37:32.158Z</time></trkpt><trkpt lat="41.0727367" lon="14.6660483"><ele>440.0</ele><time>2026-04-25T12:37:33.159Z</time></trkpt><trkpt lat="41.0726483" lon="14.66606"><ele>440.0</ele><time>2026-04-25T12:37:34.16Z</time></trkpt><trkpt lat="41.0725683" lon="14.66606"><ele>439.99999999999994</ele><time>2026-04-25T12:37:35.162Z</time></trkpt><trkpt lat="41.0724867" lon="14.6660433"><ele>440.0</ele><time>2026-04-25T12:37:36.157Z</time></trkpt><trkpt lat="41.0724033" lon="14.66601"><ele>438.16666666666663</ele><time>2026-04-25T12:37:37.161Z</time></trkpt><trkpt lat="41.072325" lon="14.66596"><ele>436.3333333333333</ele><time>2026-04-25T12:37:38.161Z</time></trkpt><trkpt lat="41.0722517" lon="14.6659017"><ele>434.5</ele><time>2026-04-25T12:37:39.161Z</time></trkpt><trkpt lat="41.07218" lon="14.665835"><ele>432.66666666666663</ele><time>2026-04-25T12:37:40.161Z</time></trkpt><trkpt lat="41.0721067" lon="14.6657683"><ele>430.8333333333333</ele><time>2026-04-25T12:37:41.16Z</time></trkpt><trkpt lat="41.0720367" lon="14.6656933"><ele>429.0</ele><time>2026-04-25T12:37:42.161Z</time></trkpt><trkpt lat="41.0719717" lon="14.6656067"><ele>429.0</ele><time>2026-04-25T12:37:43.157Z</time></trkpt><trkpt lat="41.0719167" lon="14.665515"><ele>429.0</ele><time>2026-04-25T12:37:44.159Z</time></trkpt><trkpt lat="41.0718833" lon="14.665415"><ele>429.0</ele><time>2026-04-25T12:37:45.162Z</time></trkpt><trkpt lat="41.071865" lon="14.6653083"><ele>429.0</ele><time>2026-04-25T12:37:46.161Z</time></trkpt><trkpt lat="41.0718633" lon="14.6651983"><ele>429.0</ele><time>2026-04-25T12:37:47.161Z</time></trkpt><trkpt lat="41.0718783" lon="14.6650917"><ele>429.0</ele><time>2026-04-25T12:37:48.16Z</time></trkpt><trkpt lat="41.0719017" lon="14.66499"><ele>428.6</ele><time>2026-04-25T12:37:49.16Z</time></trkpt><trkpt lat="41.071935" lon="14.6649033"><ele>428.2</ele><time>2026-04-25T12:37:50.161Z</time></trkpt><trkpt lat="41.0719883" lon="14.6647667"><ele>427.80000000000007</ele><time>2026-04-25T12:37:52.161Z</time></trkpt><trkpt lat="41.0720317" lon="14.6646417"><ele>427.40000000000003</ele><time>2026-04-25T12:37:54.159Z</time></trkpt><trkpt lat="41.0720817" lon="14.66452"><ele>427.0</ele><time>2026-04-25T12:37:56.159Z</time></trkpt><trkpt lat="41.07212" lon="14.6643767"><ele>427.00000000000006</ele><time>2026-04-25T12:37:58.158Z</time></trkpt><trkpt lat="41.072155" lon="14.6642233"><ele>427.0</ele><time>2026-04-25T12:38:00.159Z</time></trkpt><trkpt lat="41.0721717" lon="14.66414"><ele>427.0</ele><time>2026-04-25T12:38:01.161Z</time></trkpt><trkpt lat="41.0721817" lon="14.6640533"><ele>427.0</ele><time>2026-04-25T12:38:02.16Z</time></trkpt><trkpt lat="41.0721833" lon="14.6639633"><ele>427.00000000000006</ele><time>2026-04-25T12:38:03.162Z</time></trkpt><trkpt lat="41.072175" lon="14.6638717"><ele>427.0</ele><time>2026-04-25T12:38:04.162Z</time></trkpt><trkpt lat="41.0721667" lon="14.663775"><ele>427.00000000000006</ele><time>2026-04-25T12:38:05.162Z</time></trkpt><trkpt lat="41.0721533" lon="14.6636783"><ele>427.0</ele><time>2026-04-25T12:38:06.161Z</time></trkpt><trkpt lat="41.0721367" lon="14.6635717"><ele>427.0</ele><time>2026-04-25T12:38:07.162Z</time></trkpt><trkpt lat="41.07211" lon="14.6634667"><ele>427.0</ele><time>2026-04-25T12:38:08.16Z</time></trkpt><trkpt lat="41.0720733" lon="14.6633633"><ele>427.00000000000006</ele><time>2026-04-25T12:38:09.161Z</time></trkpt><trkpt lat="41.0720283" lon="14.663265"><ele>427.0</ele><time>2026-04-25T12:38:10.161Z</time></trkpt><trkpt lat="41.0719767" lon="14.663165"><ele>426.6666666666667</ele><time>2026-04-25T12:38:11.16Z</time></trkpt><trkpt lat="41.0719183" lon="14.66307"><ele>426.33333333333337</ele><time>2026-04-25T12:38:12.161Z</time></trkpt><trkpt lat="41.071855" lon="14.6629867"><ele>426.0</ele><time>2026-04-25T12:38:13.161Z</time></trkpt><trkpt lat="41.0717883" lon="14.662915"><ele>425.66666666666663</ele><time>2026-04-25T12:38:14.161Z</time></trkpt><trkpt lat="41.07172" lon="14.6628433"><ele>425.3333333333333</ele><time>2026-04-25T12:38:15.161Z</time></trkpt><trkpt lat="41.0716567" lon="14.6627567"><ele>425.0</ele><time>2026-04-25T12:38:16.161Z</time></trkpt><trkpt lat="41.071605" lon="14.66266"><ele>422.4</ele><time>2026-04-25T12:38:17.16Z</time></trkpt><trkpt lat="41.07156" lon="14.662555"><ele>419.8</ele><time>2026-04-25T12:38:18.159Z</time></trkpt><trkpt lat="41.071525" lon="14.662445"><ele>417.20000000000005</ele><time>2026-04-25T12:38:19.162Z</time></trkpt><trkpt lat="41.071495" lon="14.662325"><ele>414.6</ele><time>2026-04-25T12:38:20.162Z</time></trkpt><trkpt lat="41.0714767" lon="14.6621983"><ele>412.0</ele><time>2026-04-25T12:38:21.161Z</time></trkpt><trkpt lat="41.07147" lon="14.66207"><ele>412.20000000000005</ele><time>2026-04-25T12:38:22.161Z</time></trkpt><trkpt lat="41.07147" lon="14.6619433"><ele>412.4</ele><time>2026-04-25T12:38:23.159Z</time></trkpt><trkpt lat="41.07147" lon="14.66181"><ele>412.6</ele><time>2026-04-25T12:38:24.158Z</time></trkpt><trkpt lat="41.071475" lon="14.661675"><ele>412.79999999999995</ele><time>2026-04-25T12:38:25.161Z</time></trkpt><trkpt lat="41.0714783" lon="14.6615417"><ele>413.0</ele><time>2026-04-25T12:38:26.161Z</time></trkpt><trkpt lat="41.0714767" lon="14.6614083"><ele>413.0</ele><time>2026-04-25T12:38:27.161Z</time></trkpt><trkpt lat="41.071465" lon="14.6612667"><ele>413.0</ele><time>2026-04-25T12:38:28.16Z</time></trkpt><trkpt lat="41.0714483" lon="14.6611317"><ele>413.0</ele><time>2026-04-25T12:38:29.157Z</time></trkpt><trkpt lat="41.0714283" lon="14.6610133"><ele>413.0</ele><time>2026-04-25T12:38:30.16Z</time></trkpt><trkpt lat="41.0713967" lon="14.660905"><ele>413.0</ele><time>2026-04-25T12:38:31.162Z</time></trkpt><trkpt lat="41.0713567" lon="14.6607983"><ele>413.16666666666663</ele><time>2026-04-25T12:38:32.161Z</time></trkpt><trkpt lat="41.0713083" lon="14.6607017"><ele>413.3333333333333</ele><time>2026-04-25T12:38:33.158Z</time></trkpt><trkpt lat="41.0712567" lon="14.6606083"><ele>413.5</ele><time>2026-04-25T12:38:34.162Z</time></trkpt><trkpt lat="41.0711983" lon="14.6605167"><ele>413.66666666666663</ele><time>2026-04-25T12:38:35.161Z</time></trkpt><trkpt lat="41.0711333" lon="14.6604317"><ele>413.8333333333333</ele><time>2026-04-25T12:38:36.162Z</time></trkpt><trkpt lat="41.071065" lon="14.66035"><ele>414.0</ele><time>2026-04-25T12:38:37.161Z</time></trkpt><trkpt lat="41.0709917" lon="14.6602633"><ele>414.0</ele><time>2026-04-25T12:38:38.161Z</time></trkpt><trkpt lat="41.0709217" lon="14.66018"><ele>414.0</ele><time>2026-04-25T12:38:39.162Z</time></trkpt><trkpt lat="41.0708633" lon="14.6601017"><ele>414.0</ele><time>2026-04-25T12:38:40.161Z</time></trkpt><trkpt lat="41.0708067" lon="14.6600233"><ele>414.0</ele><time>2026-04-25T12:38:41.161Z</time></trkpt><trkpt lat="41.0707517" lon="14.6599433"><ele>414.0</ele><time>2026-04-25T12:38:42.162Z</time></trkpt><trkpt lat="41.0707067" lon="14.65987"><ele>414.0</ele><time>2026-04-25T12:38:43.16Z</time></trkpt><trkpt lat="41.070665" lon="14.65979"><ele>413.1666666666667</ele><time>2026-04-25T12:38:44.162Z</time></trkpt><trkpt lat="41.0706417" lon="14.6597017"><ele>412.33333333333337</ele><time>2026-04-25T12:38:45.16Z</time></trkpt><trkpt lat="41.0706583" lon="14.6595417"><ele>411.5</ele><time>2026-04-25T12:38:47.161Z</time></trkpt><trkpt lat="41.0706833" lon="14.659465"><ele>410.6666666666667</ele><time>2026-04-25T12:38:48.159Z</time></trkpt><trkpt lat="41.0707233" lon="14.659395"><ele>409.83333333333337</ele><time>2026-04-25T12:38:49.16Z</time></trkpt><trkpt lat="41.07077" lon="14.6593333"><ele>409.0</ele><time>2026-04-25T12:38:50.162Z</time></trkpt><trkpt lat="41.0708233" lon="14.659275"><ele>409.00000000000006</ele><time>2026-04-25T12:38:51.161Z</time></trkpt><trkpt lat="41.0708833" lon="14.65922"><ele>409.0</ele><time>2026-04-25T12:38:52.16Z</time></trkpt><trkpt lat="41.0709433" lon="14.6591717"><ele>409.0</ele><time>2026-04-25T12:38:53.159Z</time></trkpt><trkpt lat="41.07101" lon="14.6591217"><ele>409.0</ele><time>2026-04-25T12:38:54.161Z</time></trkpt><trkpt lat="41.0710817" lon="14.6590733"><ele>409.00000000000006</ele><time>2026-04-25T12:38:55.162Z</time></trkpt><trkpt lat="41.0711583" lon="14.6590267"><ele>409.0</ele><time>2026-04-25T12:38:56.162Z</time></trkpt><trkpt lat="41.07124" lon="14.6589867"><ele>409.0</ele><time>2026-04-25T12:38:57.16Z</time></trkpt><trkpt lat="41.0713233" lon="14.6589483"><ele>409.0</ele><time>2026-04-25T12:38:58.158Z</time></trkpt><trkpt lat="41.0714083" lon="14.6589033"><ele>409.0</ele><time>2026-04-25T12:38:59.157Z</time></trkpt><trkpt lat="41.071495" lon="14.6588567"><ele>409.0</ele><time>2026-04-25T12:39:00.16Z</time></trkpt><trkpt lat="41.0715817" lon="14.6588033"><ele>409.0</ele><time>2026-04-25T12:39:01.16Z</time></trkpt><trkpt lat="41.0716567" lon="14.6587533"><ele>409.50000000000006</ele><time>2026-04-25T12:39:02.162Z</time></trkpt><trkpt lat="41.0717267" lon="14.6587067"><ele>410.0</ele><time>2026-04-25T12:39:03.159Z</time></trkpt><trkpt lat="41.0717967" lon="14.6586583"><ele>410.5</ele><time>2026-04-25T12:39:04.158Z</time></trkpt><trkpt lat="41.071865" lon="14.6586033"><ele>411.0</ele><time>2026-04-25T12:39:05.158Z</time></trkpt><trkpt lat="41.07193" lon="14.65854"><ele>411.50000000000006</ele><time>2026-04-25T12:39:06.16Z</time></trkpt><trkpt lat="41.0719883" lon="14.6584683"><ele>412.0</ele><time>2026-04-25T12:39:07.159Z</time></trkpt><trkpt lat="41.0720467" lon="14.6583967"><ele>409.83333333333337</ele><time>2026-04-25T12:39:08.162Z</time></trkpt><trkpt lat="41.0720967" lon="14.6583183"><ele>407.6666666666667</ele><time>2026-04-25T12:39:09.161Z</time></trkpt><trkpt lat="41.0721417" lon="14.65823"><ele>405.5</ele><time>2026-04-25T12:39:10.16Z</time></trkpt><trkpt lat="41.0721867" lon="14.658135"><ele>403.33333333333337</ele><time>2026-04-25T12:39:11.162Z</time></trkpt><trkpt lat="41.0722217" lon="14.6580317"><ele>401.1666666666667</ele><time>2026-04-25T12:39:12.161Z</time></trkpt><trkpt lat="41.0722483" lon="14.657925"><ele>399.0</ele><time>2026-04-25T12:39:13.162Z</time></trkpt><trkpt lat="41.0722617" lon="14.65781"><ele>397.6</ele><time>2026-04-25T12:39:14.163Z</time></trkpt><trkpt lat="41.07226" lon="14.6576883"><ele>396.2</ele><time>2026-04-25T12:39:15.161Z</time></trkpt><trkpt lat="41.07225" lon="14.657565"><ele>394.8</ele><time>2026-04-25T12:39:16.161Z</time></trkpt><trkpt lat="41.0722283" lon="14.6574467"><ele>393.40000000000003</ele><time>2026-04-25T12:39:17.161Z</time></trkpt><trkpt lat="41.072195" lon="14.657335"><ele>392.0</ele><time>2026-04-25T12:39:18.158Z</time></trkpt><trkpt lat="41.07216" lon="14.6572217"><ele>392.0</ele><time>2026-04-25T12:39:19.159Z</time></trkpt><trkpt lat="41.0721233" lon="14.65711"><ele>392.0</ele><time>2026-04-25T12:39:20.16Z</time></trkpt><trkpt lat="41.0720867" lon="14.6569917"><ele>392.0</ele><time>2026-04-25T12:39:21.159Z</time></trkpt><trkpt lat="41.07205" lon="14.6568667"><ele>392.0</ele><time>2026-04-25T12:39:22.16Z</time></trkpt><trkpt lat="41.07202" lon="14.65674"><ele>392.0</ele><time>2026-04-25T12:39:23.159Z</time></trkpt><trkpt lat="41.071995" lon="14.6566267"><ele>391.8333333333333</ele><time>2026-04-25T12:39:24.16Z</time></trkpt><trkpt lat="41.07197" lon="14.6565217"><ele>391.66666666666663</ele><time>2026-04-25T12:39:25.158Z</time></trkpt><trkpt lat="41.071935" lon="14.656425"><ele>391.5</ele><time>2026-04-25T12:39:26.16Z</time></trkpt><trkpt lat="41.07189" lon="14.65633"><ele>391.33333333333337</ele><time>2026-04-25T12:39:27.158Z</time></trkpt><trkpt lat="41.071835" lon="14.6562383"><ele>391.1666666666667</ele><time>2026-04-25T12:39:28.158Z</time></trkpt><trkpt lat="41.0717783" lon="14.6561483"><ele>391.0</ele><time>2026-04-25T12:39:29.16Z</time></trkpt><trkpt lat="41.0717133" lon="14.6560583"><ele>391.4</ele><time>2026-04-25T12:39:30.159Z</time></trkpt><trkpt lat="41.0716467" lon="14.6559717"><ele>391.8</ele><time>2026-04-25T12:39:31.16Z</time></trkpt><trkpt lat="41.0715717" lon="14.6558917"><ele>392.2</ele><time>2026-04-25T12:39:32.16Z</time></trkpt><trkpt lat="41.0714983" lon="14.655815"><ele>392.59999999999997</ele><time>2026-04-25T12:39:33.158Z</time></trkpt><trkpt lat="41.0714283" lon="14.6557467"><ele>393.0</ele><time>2026-04-25T12:39:34.159Z</time></trkpt><trkpt lat="41.0713567" lon="14.6556817"><ele>391.5</ele><time>2026-04-25T12:39:35.16Z</time></trkpt><trkpt lat="41.0712933" lon="14.6556183"><ele>390.0</ele><time>2026-04-25T12:39:36.16Z</time></trkpt><trkpt lat="41.07123" lon="14.655555"><ele>388.5</ele><time>2026-04-25T12:39:37.16Z</time></trkpt><trkpt lat="41.0711633" lon="14.6554933"><ele>387.0</ele><time>2026-04-25T12:39:38.16Z</time></trkpt><trkpt lat="41.0710967" lon="14.6554283"><ele>385.5</ele><time>2026-04-25T12:39:39.16Z</time></trkpt><trkpt lat="41.0710317" lon="14.6553583"><ele>384.0</ele><time>2026-04-25T12:39:40.159Z</time></trkpt><trkpt lat="41.070965" lon="14.6552883"><ele>383.8333333333333</ele><time>2026-04-25T12:39:41.159Z</time></trkpt><trkpt lat="41.0708983" lon="14.6552167"><ele>383.6666666666667</ele><time>2026-04-25T12:39:42.158Z</time></trkpt><trkpt lat="41.0708367" lon="14.655145"><ele>383.5</ele><time>2026-04-25T12:39:43.158Z</time></trkpt><trkpt lat="41.070775" lon="14.6550633"><ele>383.33333333333337</ele><time>2026-04-25T12:39:44.161Z</time></trkpt><trkpt lat="41.0707167" lon="14.65498"><ele>383.1666666666667</ele><time>2026-04-25T12:39:45.162Z</time></trkpt><trkpt lat="41.0706683" lon="14.65489"><ele>383.0</ele><time>2026-04-25T12:39:46.162Z</time></trkpt><trkpt lat="41.0706333" lon="14.6548017"><ele>383.0</ele><time>2026-04-25T12:39:47.161Z</time></trkpt><trkpt lat="41.0706183" lon="14.6547183"><ele>383.0</ele><time>2026-04-25T12:39:48.157Z</time></trkpt><trkpt lat="41.07065" lon="14.65457"><ele>383.0</ele><time>2026-04-25T12:39:50.16Z</time></trkpt><trkpt lat="41.0707567" lon="14.654495"><ele>383.0</ele><time>2026-04-25T12:39:52.158Z</time></trkpt><trkpt lat="41.07082" lon="14.6544833"><ele>383.0</ele><time>2026-04-25T12:39:53.158Z</time></trkpt><trkpt lat="41.0708867" lon="14.6544817"><ele>383.0</ele><time>2026-04-25T12:39:54.159Z</time></trkpt><trkpt lat="41.0709567" lon="14.654485"><ele>383.0</ele><time>2026-04-25T12:39:55.158Z</time></trkpt><trkpt lat="41.0710283" lon="14.6544883"><ele>383.0</ele><time>2026-04-25T12:39:56.16Z</time></trkpt><trkpt lat="41.0711017" lon="14.6544967"><ele>383.0</ele><time>2026-04-25T12:39:57.158Z</time></trkpt><trkpt lat="41.0711783" lon="14.654505"><ele>383.0</ele><time>2026-04-25T12:39:58.158Z</time></trkpt><trkpt lat="41.0712583" lon="14.6545133"><ele>383.0</ele><time>2026-04-25T12:39:59.161Z</time></trkpt><trkpt lat="41.0713433" lon="14.6545133"><ele>383.0</ele><time>2026-04-25T12:40:00.161Z</time></trkpt><trkpt lat="41.0714233" lon="14.6545"><ele>383.0</ele><time>2026-04-25T12:40:01.161Z</time></trkpt><trkpt lat="41.0715067" lon="14.6544733"><ele>383.0</ele><time>2026-04-25T12:40:02.161Z</time></trkpt><trkpt lat="41.0715883" lon="14.65443"><ele>383.0</ele><time>2026-04-25T12:40:03.158Z</time></trkpt><trkpt lat="41.0716683" lon="14.6543733"><ele>383.0</ele><time>2026-04-25T12:40:04.161Z</time></trkpt><trkpt lat="41.07174" lon="14.654305"><ele>383.0</ele><time>2026-04-25T12:40:05.162Z</time></trkpt><trkpt lat="41.0718067" lon="14.6542267"><ele>383.0</ele><time>2026-04-25T12:40:06.162Z</time></trkpt><trkpt lat="41.0718617" lon="14.6541333"><ele>382.33333333333337</ele><time>2026-04-25T12:40:07.159Z</time></trkpt><trkpt lat="41.071905" lon="14.6540267"><ele>381.6666666666667</ele><time>2026-04-25T12:40:08.162Z</time></trkpt><trkpt lat="41.0719333" lon="14.653915"><ele>381.0</ele><time>2026-04-25T12:40:09.161Z</time></trkpt><trkpt lat="41.07194" lon="14.6538"><ele>380.3333333333333</ele><time>2026-04-25T12:40:10.16Z</time></trkpt><trkpt lat="41.071935" lon="14.6536883"><ele>379.66666666666663</ele><time>2026-04-25T12:40:11.16Z</time></trkpt><trkpt lat="41.0719083" lon="14.6535783"><ele>379.0</ele><time>2026-04-25T12:40:12.161Z</time></trkpt><trkpt lat="41.0718683" lon="14.6534783"><ele>378.0</ele><time>2026-04-25T12:40:13.161Z</time></trkpt><trkpt lat="41.0718083" lon="14.6533933"><ele>377.0</ele><time>2026-04-25T12:40:14.162Z</time></trkpt><trkpt lat="41.0717417" lon="14.6533183"><ele>376.0</ele><time>2026-04-25T12:40:15.162Z</time></trkpt><trkpt lat="41.07167" lon="14.6532467"><ele>375.0</ele><time>2026-04-25T12:40:16.162Z</time></trkpt><trkpt lat="41.0715917" lon="14.6531717"><ele>374.0</ele><time>2026-04-25T12:40:17.162Z</time></trkpt><trkpt lat="41.071515" lon="14.653095"><ele>371.6</ele><time>2026-04-25T12:40:18.16Z</time></trkpt><trkpt lat="41.0714383" lon="14.6530117"><ele>369.2</ele><time>2026-04-25T12:40:19.158Z</time></trkpt><trkpt lat="41.071365" lon="14.65292"><ele>366.8</ele><time>2026-04-25T12:40:20.16Z</time></trkpt><trkpt lat="41.071295" lon="14.6528167"><ele>364.40000000000003</ele><time>2026-04-25T12:40:21.16Z</time></trkpt><trkpt lat="41.07123" lon="14.6527017"><ele>362.0</ele><time>2026-04-25T12:40:22.158Z</time></trkpt><trkpt lat="41.0711683" lon="14.6525783"><ele>362.0</ele><time>2026-04-25T12:40:23.16Z</time></trkpt><trkpt lat="41.0711117" lon="14.6524483"><ele>362.0</ele><time>2026-04-25T12:40:24.16Z</time></trkpt><trkpt lat="41.07106" lon="14.6523117"><ele>362.0</ele><time>2026-04-25T12:40:25.16Z</time></trkpt><trkpt lat="41.0710067" lon="14.6521767"><ele>362.0</ele><time>2026-04-25T12:40:26.162Z</time></trkpt><trkpt lat="41.0709567" lon="14.6520483"><ele>362.20000000000005</ele><time>2026-04-25T12:40:27.16Z</time></trkpt><trkpt lat="41.07091" lon="14.6519283"><ele>362.4</ele><time>2026-04-25T12:40:28.158Z</time></trkpt><trkpt lat="41.0708683" lon="14.6518167"><ele>362.6</ele><time>2026-04-25T12:40:29.161Z</time></trkpt><trkpt lat="41.07084" lon="14.6517"><ele>362.79999999999995</ele><time>2026-04-25T12:40:30.161Z</time></trkpt><trkpt lat="41.070825" lon="14.6515717"><ele>363.0</ele><time>2026-04-25T12:40:31.16Z</time></trkpt><trkpt lat="41.0708217" lon="14.65144"><ele>363.0</ele><time>2026-04-25T12:40:32.162Z</time></trkpt><trkpt lat="41.0708283" lon="14.651305"><ele>363.0</ele><time>2026-04-25T12:40:33.159Z</time></trkpt><trkpt lat="41.07084" lon="14.6511717"><ele>363.0</ele><time>2026-04-25T12:40:34.158Z</time></trkpt><trkpt lat="41.0708583" lon="14.6510383"><ele>363.0</ele><time>2026-04-25T12:40:35.16Z</time></trkpt><trkpt lat="41.0708767" lon="14.6509133"><ele>363.0</ele><time>2026-04-25T12:40:36.16Z</time></trkpt><trkpt lat="41.07088" lon="14.6507817"><ele>362.79999999999995</ele><time>2026-04-25T12:40:37.162Z</time></trkpt><trkpt lat="41.0708667" lon="14.6506583"><ele>362.6</ele><time>2026-04-25T12:40:38.162Z</time></trkpt><trkpt lat="41.0708333" lon="14.6505333"><ele>362.4</ele><time>2026-04-25T12:40:39.159Z</time></trkpt><trkpt lat="41.0707833" lon="14.6504167"><ele>362.20000000000005</ele><time>2026-04-25T12:40:40.159Z</time></trkpt><trkpt lat="41.0707283" lon="14.6503133"><ele>362.0</ele><time>2026-04-25T12:40:41.16Z</time></trkpt><trkpt lat="41.070655" lon="14.6502167"><ele>360.6</ele><time>2026-04-25T12:40:42.161Z</time></trkpt><trkpt lat="41.07057" lon="14.6501317"><ele>359.20000000000005</ele><time>2026-04-25T12:40:43.161Z</time></trkpt><trkpt lat="41.0704767" lon="14.6500567"><ele>357.8</ele><time>2026-04-25T12:40:44.161Z</time></trkpt><trkpt lat="41.0703767" lon="14.6499967"><ele>356.4</ele><time>2026-04-25T12:40:45.161Z</time></trkpt><trkpt lat="41.0702717" lon="14.64995"><ele>355.0</ele><time>2026-04-25T12:40:46.16Z</time></trkpt><trkpt lat="41.0701633" lon="14.6499117"><ele>355.0</ele><time>2026-04-25T12:40:47.159Z</time></trkpt><trkpt lat="41.0700517" lon="14.6498717"><ele>355.0</ele><time>2026-04-25T12:40:48.16Z</time></trkpt><trkpt lat="41.06994" lon="14.649835"><ele>355.0</ele><time>2026-04-25T12:40:49.159Z</time></trkpt><trkpt lat="41.0698283" lon="14.6498"><ele>355.0</ele><time>2026-04-25T12:40:50.161Z</time></trkpt><trkpt lat="41.0697183" lon="14.6497683"><ele>353.0</ele><time>2026-04-25T12:40:51.16Z</time></trkpt><trkpt lat="41.06961" lon="14.6497333"><ele>351.0</ele><time>2026-04-25T12:40:52.158Z</time></trkpt><trkpt lat="41.0695033" lon="14.6496933"><ele>349.0</ele><time>2026-04-25T12:40:53.16Z</time></trkpt><trkpt lat="41.0694033" lon="14.6496467"><ele>347.0</ele><time>2026-04-25T12:40:54.16Z</time></trkpt><trkpt lat="41.0693117" lon="14.6495883"><ele>345.0</ele><time>2026-04-25T12:40:55.158Z</time></trkpt><trkpt lat="41.0692317" lon="14.6495167"><ele>345.6666666666667</ele><time>2026-04-25T12:40:56.16Z</time></trkpt><trkpt lat="41.06916" lon="14.64944"><ele>346.3333333333333</ele><time>2026-04-25T12:40:57.159Z</time></trkpt><trkpt lat="41.0690983" lon="14.649365"><ele>347.0</ele><time>2026-04-25T12:40:58.158Z</time></trkpt><trkpt lat="41.0690483" lon="14.6492817"><ele>347.66666666666663</ele><time>2026-04-25T12:40:59.161Z</time></trkpt><trkpt lat="41.0690133" lon="14.6491817"><ele>348.3333333333333</ele><time>2026-04-25T12:41:00.161Z</time></trkpt><trkpt lat="41.0689933" lon="14.64907"><ele>349.0</ele><time>2026-04-25T12:41:01.162Z</time></trkpt><trkpt lat="41.0689883" lon="14.648955"><ele>347.0</ele><time>2026-04-25T12:41:02.163Z</time></trkpt><trkpt lat="41.06899" lon="14.6488367"><ele>345.0</ele><time>2026-04-25T12:41:03.16Z</time></trkpt><trkpt lat="41.069" lon="14.648715"><ele>343.0</ele><time>2026-04-25T12:41:04.161Z</time></trkpt><trkpt lat="41.069015" lon="14.6485917"><ele>341.0</ele><time>2026-04-25T12:41:05.161Z</time></trkpt><trkpt lat="41.06903" lon="14.6484683"><ele>339.0</ele><time>2026-04-25T12:41:06.159Z</time></trkpt><trkpt lat="41.06905" lon="14.64834"><ele>339.4</ele><time>2026-04-25T12:41:07.159Z</time></trkpt><trkpt lat="41.0690733" lon="14.6482133"><ele>339.79999999999995</ele><time>2026-04-25T12:41:08.161Z</time></trkpt><trkpt lat="41.069105" lon="14.64809"><ele>340.20000000000005</ele><time>2026-04-25T12:41:09.158Z</time></trkpt><trkpt lat="41.0691383" lon="14.647965"><ele>340.6</ele><time>2026-04-25T12:41:10.158Z</time></trkpt><trkpt lat="41.06917" lon="14.6478433"><ele>341.0</ele><time>2026-04-25T12:41:11.158Z</time></trkpt><trkpt lat="41.0692033" lon="14.6477167"><ele>341.0</ele><time>2026-04-25T12:41:12.162Z</time></trkpt><trkpt lat="41.0692417" lon="14.64759"><ele>341.0</ele><time>2026-04-25T12:41:13.162Z</time></trkpt><trkpt lat="41.069285" lon="14.6474583"><ele>341.0</ele><time>2026-04-25T12:41:14.161Z</time></trkpt><trkpt lat="41.069325" lon="14.6473317"><ele>341.0</ele><time>2026-04-25T12:41:15.16Z</time></trkpt><trkpt lat="41.0693583" lon="14.6472117"><ele>341.0</ele><time>2026-04-25T12:41:16.162Z</time></trkpt><trkpt lat="41.06939" lon="14.6470967"><ele>341.0</ele><time>2026-04-25T12:41:17.159Z</time></trkpt><trkpt lat="41.06942" lon="14.6469883"><ele>341.0</ele><time>2026-04-25T12:41:18.159Z</time></trkpt><trkpt lat="41.0694383" lon="14.6468817"><ele>341.0</ele><time>2026-04-25T12:41:19.159Z</time></trkpt><trkpt lat="41.06944" lon="14.6467867"><ele>341.0</ele><time>2026-04-25T12:41:20.159Z</time></trkpt><trkpt lat="41.0694267" lon="14.646695"><ele>341.0</ele><time>2026-04-25T12:41:21.161Z</time></trkpt><trkpt lat="41.0693967" lon="14.6466117"><ele>341.0</ele><time>2026-04-25T12:41:22.161Z</time></trkpt><trkpt lat="41.0693533" lon="14.646545"><ele>341.0</ele><time>2026-04-25T12:41:23.16Z</time></trkpt><trkpt lat="41.0692517" lon="14.6464683"><ele>340.83333333333337</ele><time>2026-04-25T12:41:25.161Z</time></trkpt><trkpt lat="41.0691283" lon="14.6464367"><ele>340.6666666666667</ele><time>2026-04-25T12:41:27.158Z</time></trkpt><trkpt lat="41.0690583" lon="14.646425"><ele>340.5</ele><time>2026-04-25T12:41:28.159Z</time></trkpt><trkpt lat="41.0689867" lon="14.64641"><ele>340.3333333333333</ele><time>2026-04-25T12:41:29.159Z</time></trkpt><trkpt lat="41.068915" lon="14.6463933"><ele>340.16666666666663</ele><time>2026-04-25T12:41:30.16Z</time></trkpt><trkpt lat="41.06884" lon="14.6463733"><ele>340.0</ele><time>2026-04-25T12:41:31.168Z</time></trkpt><trkpt lat="41.068765" lon="14.646355"><ele>338.0</ele><time>2026-04-25T12:41:32.159Z</time></trkpt><trkpt lat="41.068685" lon="14.6463367"><ele>336.0</ele><time>2026-04-25T12:41:33.16Z</time></trkpt><trkpt lat="41.0686067" lon="14.646315"><ele>334.0</ele><time>2026-04-25T12:41:34.159Z</time></trkpt><trkpt lat="41.0685267" lon="14.646295"><ele>332.0</ele><time>2026-04-25T12:41:35.159Z</time></trkpt><trkpt lat="41.0684433" lon="14.6462767"><ele>330.0</ele><time>2026-04-25T12:41:36.162Z</time></trkpt><trkpt lat="41.06836" lon="14.6462633"><ele>328.0</ele><time>2026-04-25T12:41:37.158Z</time></trkpt><trkpt lat="41.068275" lon="14.6462467"><ele>327.59999999999997</ele><time>2026-04-25T12:41:38.16Z</time></trkpt><trkpt lat="41.068185" lon="14.64623"><ele>327.2</ele><time>2026-04-25T12:41:39.162Z</time></trkpt><trkpt lat="41.06809" lon="14.6462133"><ele>326.8</ele><time>2026-04-25T12:41:40.162Z</time></trkpt><trkpt lat="41.0679967" lon="14.646205"><ele>326.4</ele><time>2026-04-25T12:41:41.161Z</time></trkpt><trkpt lat="41.0679017" lon="14.6462033"><ele>326.0</ele><time>2026-04-25T12:41:42.162Z</time></trkpt><trkpt lat="41.067805" lon="14.646205"><ele>326.0</ele><time>2026-04-25T12:41:43.158Z</time></trkpt><trkpt lat="41.0677083" lon="14.6462067"><ele>326.0</ele><time>2026-04-25T12:41:44.16Z</time></trkpt><trkpt lat="41.0676117" lon="14.6462133"><ele>326.0</ele><time>2026-04-25T12:41:45.158Z</time></trkpt><trkpt lat="41.0675167" lon="14.6462233"><ele>326.0</ele><time>2026-04-25T12:41:46.161Z</time></trkpt><trkpt lat="41.0674233" lon="14.64624"><ele>326.0</ele><time>2026-04-25T12:41:47.159Z</time></trkpt><trkpt lat="41.06733" lon="14.6462617"><ele>325.6</ele><time>2026-04-25T12:41:48.158Z</time></trkpt><trkpt lat="41.067235" lon="14.6462883"><ele>325.20000000000005</ele><time>2026-04-25T12:41:49.158Z</time></trkpt><trkpt lat="41.0671433" lon="14.646325"><ele>324.79999999999995</ele><time>2026-04-25T12:41:50.161Z</time></trkpt><trkpt lat="41.0670483" lon="14.64636"><ele>324.4</ele><time>2026-04-25T12:41:51.16Z</time></trkpt><trkpt lat="41.0669533" lon="14.646395"><ele>324.0</ele><time>2026-04-25T12:41:52.16Z</time></trkpt><trkpt lat="41.0668583" lon="14.6464317"><ele>324.0</ele><time>2026-04-25T12:41:53.159Z</time></trkpt><trkpt lat="41.066765" lon="14.6464717"><ele>324.0</ele><time>2026-04-25T12:41:54.16Z</time></trkpt><trkpt lat="41.06667" lon="14.6465167"><ele>324.0</ele><time>2026-04-25T12:41:55.161Z</time></trkpt><trkpt lat="41.06657" lon="14.6465583"><ele>324.0</ele><time>2026-04-25T12:41:56.162Z</time></trkpt><trkpt lat="41.0664683" lon="14.6466"><ele>324.0</ele><time>2026-04-25T12:41:57.158Z</time></trkpt><trkpt lat="41.0663767" lon="14.6466433"><ele>322.8</ele><time>2026-04-25T12:41:58.161Z</time></trkpt><trkpt lat="41.0662767" lon="14.6466833"><ele>321.59999999999997</ele><time>2026-04-25T12:41:59.159Z</time></trkpt><trkpt lat="41.0661767" lon="14.6467167"><ele>320.4</ele><time>2026-04-25T12:42:00.161Z</time></trkpt><trkpt lat="41.0660717" lon="14.6467383"><ele>319.2</ele><time>2026-04-25T12:42:01.159Z</time></trkpt><trkpt lat="41.0659617" lon="14.64675"><ele>318.0</ele><time>2026-04-25T12:42:02.16Z</time></trkpt><trkpt lat="41.065855" lon="14.6467483"><ele>317.2</ele><time>2026-04-25T12:42:03.161Z</time></trkpt><trkpt lat="41.065755" lon="14.6467317"><ele>316.4</ele><time>2026-04-25T12:42:04.159Z</time></trkpt><trkpt lat="41.06566" lon="14.6466983"><ele>315.59999999999997</ele><time>2026-04-25T12:42:05.161Z</time></trkpt><trkpt lat="41.0655667" lon="14.64666"><ele>314.8</ele><time>2026-04-25T12:42:06.162Z</time></trkpt><trkpt lat="41.065475" lon="14.646615"><ele>314.0</ele><time>2026-04-25T12:42:07.161Z</time></trkpt><trkpt lat="41.0653867" lon="14.6465633"><ele>314.0</ele><time>2026-04-25T12:42:08.162Z</time></trkpt><trkpt lat="41.0653067" lon="14.6465017"><ele>314.0</ele><time>2026-04-25T12:42:09.161Z</time></trkpt><trkpt lat="41.06523" lon="14.6464317"><ele>314.0</ele><time>2026-04-25T12:42:10.161Z</time></trkpt><trkpt lat="41.0651533" lon="14.6463533"><ele>314.0</ele><time>2026-04-25T12:42:11.161Z</time></trkpt><trkpt lat="41.06508" lon="14.6462633"><ele>314.0</ele><time>2026-04-25T12:42:12.16Z</time></trkpt><trkpt lat="41.0650117" lon="14.6461683"><ele>314.4</ele><time>2026-04-25T12:42:13.162Z</time></trkpt><trkpt lat="41.0649467" lon="14.6460683"><ele>314.79999999999995</ele><time>2026-04-25T12:42:14.161Z</time></trkpt><trkpt lat="41.0648817" lon="14.6459683"><ele>315.20000000000005</ele><time>2026-04-25T12:42:15.159Z</time></trkpt><trkpt lat="41.0648183" lon="14.64587"><ele>315.6</ele><time>2026-04-25T12:42:16.158Z</time></trkpt><trkpt lat="41.064755" lon="14.6457817"><ele>316.0</ele><time>2026-04-25T12:42:17.162Z</time></trkpt><trkpt lat="41.0647017" lon="14.645705"><ele>315.16666666666663</ele><time>2026-04-25T12:42:18.161Z</time></trkpt><trkpt lat="41.06465" lon="14.6456233"><ele>314.3333333333333</ele><time>2026-04-25T12:42:19.162Z</time></trkpt><trkpt lat="41.0645983" lon="14.645545"><ele>313.5</ele><time>2026-04-25T12:42:20.161Z</time></trkpt><trkpt lat="41.064545" lon="14.6454667"><ele>312.6666666666667</ele><time>2026-04-25T12:42:21.159Z</time></trkpt><trkpt lat="41.064495" lon="14.6453867"><ele>311.83333333333337</ele><time>2026-04-25T12:42:22.159Z</time></trkpt><trkpt lat="41.06445" lon="14.6453117"><ele>311.0</ele><time>2026-04-25T12:42:23.16Z</time></trkpt><trkpt lat="41.064405" lon="14.6452417"><ele>311.0</ele><time>2026-04-25T12:42:24.159Z</time></trkpt><trkpt lat="41.0643583" lon="14.645175"><ele>311.0</ele><time>2026-04-25T12:42:25.159Z</time></trkpt><trkpt lat="41.0643117" lon="14.6451067"><ele>311.0</ele><time>2026-04-25T12:42:26.162Z</time></trkpt><trkpt lat="41.064265" lon="14.645035"><ele>311.0</ele><time>2026-04-25T12:42:27.159Z</time></trkpt><trkpt lat="41.0642167" lon="14.644965"><ele>311.0</ele><time>2026-04-25T12:42:28.159Z</time></trkpt><trkpt lat="41.0641317" lon="14.6448433"><ele>311.0</ele><time>2026-04-25T12:42:30.16Z</time></trkpt><trkpt lat="41.064065" lon="14.6447317"><ele>310.0</ele><time>2026-04-25T12:42:32.16Z</time></trkpt><trkpt lat="41.0640083" lon="14.64463"><ele>309.0</ele><time>2026-04-25T12:42:34.161Z</time></trkpt><trkpt lat="41.0639433" lon="14.64453"><ele>308.0</ele><time>2026-04-25T12:42:36.162Z</time></trkpt><trkpt lat="41.063885" lon="14.644455"><ele>307.0</ele><time>2026-04-25T12:42:38.162Z</time></trkpt><trkpt lat="41.0638267" lon="14.644405"><ele>306.0</ele><time>2026-04-25T12:42:40.162Z</time></trkpt><trkpt lat="41.0637567" lon="14.6444017"><ele>305.0</ele><time>2026-04-25T12:42:42.161Z</time></trkpt><trkpt lat="41.0636717" lon="14.6444167"><ele>305.0</ele><time>2026-04-25T12:42:44.161Z</time></trkpt><trkpt lat="41.0635717" lon="14.64445"><ele>305.0</ele><time>2026-04-25T12:42:46.158Z</time></trkpt><trkpt lat="41.0634633" lon="14.6444883"><ele>305.0</ele><time>2026-04-25T12:42:48.159Z</time></trkpt><trkpt lat="41.0633533" lon="14.6445283"><ele>305.0</ele><time>2026-04-25T12:42:50.159Z</time></trkpt><trkpt lat="41.0632383" lon="14.6445833"><ele>304.2</ele><time>2026-04-25T12:42:52.161Z</time></trkpt><trkpt lat="41.0631233" lon="14.64463"><ele>303.4</ele><time>2026-04-25T12:42:54.162Z</time></trkpt><trkpt lat="41.0630617" lon="14.6446533"><ele>302.6</ele><time>2026-04-25T12:42:55.158Z</time></trkpt><trkpt lat="41.063" lon="14.6446767"><ele>301.8</ele><time>2026-04-25T12:42:56.158Z</time></trkpt><trkpt lat="41.06289" lon="14.6447217"><ele>301.0</ele><time>2026-04-25T12:42:58.161Z</time></trkpt><trkpt lat="41.0627683" lon="14.6447683"><ele>301.0</ele><time>2026-04-25T12:43:00.158Z</time></trkpt><trkpt lat="41.0627033" lon="14.64479"><ele>301.0</ele><time>2026-04-25T12:43:01.16Z</time></trkpt><trkpt lat="41.0626383" lon="14.644815"><ele>301.0</ele><time>2026-04-25T12:43:02.161Z</time></trkpt><trkpt lat="41.0625683" lon="14.6448317"><ele>301.0</ele><time>2026-04-25T12:43:03.161Z</time></trkpt><trkpt lat="41.0625" lon="14.6448467"><ele>301.0</ele><time>2026-04-25T12:43:04.161Z</time></trkpt><trkpt lat="41.0624333" lon="14.6448633"><ele>301.0</ele><time>2026-04-25T12:43:05.159Z</time></trkpt><trkpt lat="41.0623667" lon="14.6448783"><ele>301.0</ele><time>2026-04-25T12:43:06.159Z</time></trkpt><trkpt lat="41.0623017" lon="14.6449017"><ele>301.0</ele><time>2026-04-25T12:43:07.161Z</time></trkpt><trkpt lat="41.0622467" lon="14.644945"><ele>301.0</ele><time>2026-04-25T12:43:08.16Z</time></trkpt><trkpt lat="41.0622033" lon="14.6450067"><ele>301.0</ele><time>2026-04-25T12:43:09.159Z</time></trkpt><trkpt lat="41.06215" lon="14.6451567"><ele>301.0</ele><time>2026-04-25T12:43:11.159Z</time></trkpt><trkpt lat="41.0621083" lon="14.6453133"><ele>301.0</ele><time>2026-04-25T12:43:13.159Z</time></trkpt><trkpt lat="41.0620717" lon="14.6454717"><ele>301.0</ele><time>2026-04-25T12:43:15.159Z</time></trkpt><trkpt lat="41.0620317" lon="14.6456283"><ele>301.0</ele><time>2026-04-25T12:43:17.159Z</time></trkpt><trkpt lat="41.0620067" lon="14.645775"><ele>301.0</ele><time>2026-04-25T12:43:19.159Z</time></trkpt><trkpt lat="41.061975" lon="14.6458967"><ele>301.0</ele><time>2026-04-25T12:43:21.159Z</time></trkpt><trkpt lat="41.0619367" lon="14.6459683"><ele>301.0</ele><time>2026-04-25T12:43:23.16Z</time></trkpt><trkpt lat="41.0618533" lon="14.64602"><ele>301.0</ele><time>2026-04-25T12:43:25.159Z</time></trkpt><trkpt lat="41.0617583" lon="14.6460567"><ele>301.0</ele><time>2026-04-25T12:43:27.158Z</time></trkpt><trkpt lat="41.0616433" lon="14.6461"><ele>301.0</ele><time>2026-04-25T12:43:29.16Z</time></trkpt><trkpt lat="41.0615783" lon="14.646125"><ele>301.0</ele><time>2026-04-25T12:43:30.159Z</time></trkpt><trkpt lat="41.06151" lon="14.6461517"><ele>301.0</ele><time>2026-04-25T12:43:31.161Z</time></trkpt><trkpt lat="41.061445" lon="14.6461817"><ele>301.0</ele><time>2026-04-25T12:43:32.161Z</time></trkpt><trkpt lat="41.0613783" lon="14.6462117"><ele>300.57142857142856</ele><time>2026-04-25T12:43:33.159Z</time></trkpt><trkpt lat="41.0613133" lon="14.646245"><ele>300.1428571428571</ele><time>2026-04-25T12:43:34.158Z</time></trkpt><trkpt lat="41.061245" lon="14.6462717"><ele>299.7142857142857</ele><time>2026-04-25T12:43:35.162Z</time></trkpt><trkpt lat="41.0611833" lon="14.6463"><ele>299.2857142857143</ele><time>2026-04-25T12:43:36.162Z</time></trkpt><trkpt lat="41.061115" lon="14.6463217"><ele>298.85714285714283</ele><time>2026-04-25T12:43:37.16Z</time></trkpt><trkpt lat="41.061045" lon="14.6463383"><ele>298.42857142857144</ele><time>2026-04-25T12:43:38.16Z</time></trkpt><trkpt lat="41.060975" lon="14.6463483"><ele>298.0</ele><time>2026-04-25T12:43:39.158Z</time></trkpt><trkpt lat="41.0609033" lon="14.6463583"><ele>298.0</ele><time>2026-04-25T12:43:40.159Z</time></trkpt><trkpt lat="41.0608317" lon="14.646375"><ele>298.0</ele><time>2026-04-25T12:43:41.159Z</time></trkpt><trkpt lat="41.0607617" lon="14.6463917"><ele>298.0</ele><time>2026-04-25T12:43:42.159Z</time></trkpt><trkpt lat="41.06069" lon="14.6463967"><ele>298.0</ele><time>2026-04-25T12:43:43.161Z</time></trkpt><trkpt lat="41.0606133" lon="14.64639"><ele>298.0</ele><time>2026-04-25T12:43:44.159Z</time></trkpt><trkpt lat="41.06054" lon="14.6463783"><ele>298.0</ele><time>2026-04-25T12:43:45.159Z</time></trkpt><trkpt lat="41.0604683" lon="14.6463583"><ele>298.0</ele><time>2026-04-25T12:43:46.16Z</time></trkpt><trkpt lat="41.0604033" lon="14.6463417"><ele>297.5</ele><time>2026-04-25T12:43:47.162Z</time></trkpt><trkpt lat="41.06033" lon="14.6463283"><ele>297.0</ele><time>2026-04-25T12:43:48.162Z</time></trkpt><trkpt lat="41.060265" lon="14.646315"><ele>296.5</ele><time>2026-04-25T12:43:49.162Z</time></trkpt><trkpt lat="41.0601533" lon="14.6462767"><ele>296.0</ele><time>2026-04-25T12:43:51.163Z</time></trkpt><trkpt lat="41.0600583" lon="14.6462483"><ele>295.5</ele><time>2026-04-25T12:43:53.161Z</time></trkpt><trkpt lat="41.05999" lon="14.64623"><ele>295.0</ele><time>2026-04-25T12:43:55.161Z</time></trkpt><trkpt lat="41.0599267" lon="14.6462183"><ele>294.4</ele><time>2026-04-25T12:43:57.16Z</time></trkpt><trkpt lat="41.059845" lon="14.646225"><ele>293.8</ele><time>2026-04-25T12:44:08.158Z</time></trkpt><trkpt lat="41.0598" lon="14.6463133"><ele>293.2</ele><time>2026-04-25T12:44:11.158Z</time></trkpt><trkpt lat="41.0597483" lon="14.6463967"><ele>292.6</ele><time>2026-04-25T12:44:13.162Z</time></trkpt><trkpt lat="41.0596817" lon="14.6465067"><ele>292.0</ele><time>2026-04-25T12:44:15.16Z</time></trkpt><trkpt lat="41.0596183" lon="14.646645"><ele>292.0</ele><time>2026-04-25T12:44:17.16Z</time></trkpt><trkpt lat="41.059585" lon="14.6467233"><ele>292.0</ele><time>2026-04-25T12:44:18.16Z</time></trkpt><trkpt lat="41.05955" lon="14.6467983"><ele>292.0</ele><time>2026-04-25T12:44:19.159Z</time></trkpt><trkpt lat="41.059515" lon="14.6468817"><ele>292.0</ele><time>2026-04-25T12:44:20.16Z</time></trkpt><trkpt lat="41.0594783" lon="14.64697"><ele>292.0</ele><time>2026-04-25T12:44:21.161Z</time></trkpt><trkpt lat="41.0594433" lon="14.64706"><ele>292.0</ele><time>2026-04-25T12:44:22.16Z</time></trkpt><trkpt lat="41.059405" lon="14.64715"><ele>292.0</ele><time>2026-04-25T12:44:23.159Z</time></trkpt><trkpt lat="41.059365" lon="14.6472417"><ele>292.0</ele><time>2026-04-25T12:44:24.161Z</time></trkpt><trkpt lat="41.0593267" lon="14.6473333"><ele>292.0</ele><time>2026-04-25T12:44:25.159Z</time></trkpt><trkpt lat="41.059285" lon="14.6474267"><ele>292.0</ele><time>2026-04-25T12:44:26.16Z</time></trkpt><trkpt lat="41.059245" lon="14.6475183"><ele>292.0</ele><time>2026-04-25T12:44:27.159Z</time></trkpt><trkpt lat="41.059205" lon="14.64761"><ele>292.0</ele><time>2026-04-25T12:44:28.158Z</time></trkpt><trkpt lat="41.0591633" lon="14.6477"><ele>292.0</ele><time>2026-04-25T12:44:29.16Z</time></trkpt><trkpt lat="41.0591267" lon="14.647795"><ele>292.0</ele><time>2026-04-25T12:44:30.161Z</time></trkpt><trkpt lat="41.0590867" lon="14.64789"><ele>292.0</ele><time>2026-04-25T12:44:31.159Z</time></trkpt><trkpt lat="41.0590467" lon="14.64798"><ele>292.0</ele><time>2026-04-25T12:44:32.16Z</time></trkpt><trkpt lat="41.0590033" lon="14.6480667"><ele>292.0</ele><time>2026-04-25T12:44:33.161Z</time></trkpt><trkpt lat="41.0589617" lon="14.6481533"><ele>292.0</ele><time>2026-04-25T12:44:34.16Z</time></trkpt><trkpt lat="41.0589217" lon="14.6482417"><ele>292.0</ele><time>2026-04-25T12:44:35.161Z</time></trkpt><trkpt lat="41.0588833" lon="14.64833"><ele>292.0</ele><time>2026-04-25T12:44:36.161Z</time></trkpt><trkpt lat="41.0588467" lon="14.6484167"><ele>292.0</ele><time>2026-04-25T12:44:37.161Z</time></trkpt><trkpt lat="41.0588083" lon="14.6485017"><ele>292.0</ele><time>2026-04-25T12:44:38.16Z</time></trkpt><trkpt lat="41.0587717" lon="14.6485883"><ele>292.0</ele><time>2026-04-25T12:44:39.159Z</time></trkpt><trkpt lat="41.0587367" lon="14.6486717"><ele>292.0</ele><time>2026-04-25T12:44:40.158Z</time></trkpt><trkpt lat="41.0587" lon="14.64875"><ele>292.0</ele><time>2026-04-25T12:44:41.16Z</time></trkpt><trkpt lat="41.0586683" lon="14.6488283"><ele>292.0</ele><time>2026-04-25T12:44:42.161Z</time></trkpt><trkpt lat="41.0586383" lon="14.648905"><ele>292.4</ele><time>2026-04-25T12:44:43.159Z</time></trkpt><trkpt lat="41.0586067" lon="14.64898"><ele>292.79999999999995</ele><time>2026-04-25T12:44:44.16Z</time></trkpt><trkpt lat="41.0585417" lon="14.6491183"><ele>293.2</ele><time>2026-04-25T12:44:46.158Z</time></trkpt><trkpt lat="41.0584833" lon="14.64925"><ele>293.59999999999997</ele><time>2026-04-25T12:44:48.16Z</time></trkpt><trkpt lat="41.058405" lon="14.6493367"><ele>294.0</ele><time>2026-04-25T12:44:50.159Z</time></trkpt><trkpt lat="41.0583067" lon="14.6493583"><ele>294.0</ele><time>2026-04-25T12:44:52.158Z</time></trkpt><trkpt lat="41.05821" lon="14.6493617"><ele>294.0</ele><time>2026-04-25T12:44:54.163Z</time></trkpt><trkpt lat="41.0581183" lon="14.6494067"><ele>294.0</ele><time>2026-04-25T12:44:56.16Z</time></trkpt><trkpt lat="41.058015" lon="14.6494633"><ele>294.0</ele><time>2026-04-25T12:44:58.159Z</time></trkpt><trkpt lat="41.0579067" lon="14.6495317"><ele>294.0</ele><time>2026-04-25T12:45:00.159Z</time></trkpt><trkpt lat="41.0577967" lon="14.6495933"><ele>294.0</ele><time>2026-04-25T12:45:02.16Z</time></trkpt><trkpt lat="41.05769" lon="14.6496267"><ele>294.0</ele><time>2026-04-25T12:45:04.159Z</time></trkpt><trkpt lat="41.0575717" lon="14.6496517"><ele>294.0</ele><time>2026-04-25T12:45:06.16Z</time></trkpt><trkpt lat="41.0575017" lon="14.649675"><ele>294.0</ele><time>2026-04-25T12:45:07.159Z</time></trkpt><trkpt lat="41.0574333" lon="14.64968"><ele>294.0</ele><time>2026-04-25T12:45:08.16Z</time></trkpt><trkpt lat="41.057315" lon="14.649685"><ele>293.6666666666667</ele><time>2026-04-25T12:45:10.159Z</time></trkpt><trkpt lat="41.0572483" lon="14.6496817"><ele>293.3333333333333</ele><time>2026-04-25T12:45:11.158Z</time></trkpt><trkpt lat="41.05712" lon="14.649675"><ele>293.0</ele><time>2026-04-25T12:45:13.159Z</time></trkpt><trkpt lat="41.0570433" lon="14.649665"><ele>292.66666666666663</ele><time>2026-04-25T12:45:14.161Z</time></trkpt><trkpt lat="41.05697" lon="14.6496567"><ele>292.3333333333333</ele><time>2026-04-25T12:45:15.16Z</time></trkpt><trkpt lat="41.0568967" lon="14.6496533"><ele>292.0</ele><time>2026-04-25T12:45:16.161Z</time></trkpt><trkpt lat="41.0568233" lon="14.64964"><ele>292.0</ele><time>2026-04-25T12:45:17.162Z</time></trkpt><trkpt lat="41.0567533" lon="14.6496283"><ele>292.0</ele><time>2026-04-25T12:45:18.162Z</time></trkpt><trkpt lat="41.0566817" lon="14.6496167"><ele>292.0</ele><time>2026-04-25T12:45:19.162Z</time></trkpt><trkpt lat="41.0566117" lon="14.6495983"><ele>292.0</ele><time>2026-04-25T12:45:20.162Z</time></trkpt><trkpt lat="41.0565417" lon="14.6495817"><ele>292.0</ele><time>2026-04-25T12:45:21.161Z</time></trkpt><trkpt lat="41.0564683" lon="14.64956"><ele>292.0</ele><time>2026-04-25T12:45:22.158Z</time></trkpt><trkpt lat="41.0563983" lon="14.6495317"><ele>292.0</ele><time>2026-04-25T12:45:23.158Z</time></trkpt><trkpt lat="41.05633" lon="14.6495067"><ele>291.7142857142857</ele><time>2026-04-25T12:45:24.161Z</time></trkpt><trkpt lat="41.0562617" lon="14.6494783"><ele>291.42857142857144</ele><time>2026-04-25T12:45:25.158Z</time></trkpt><trkpt lat="41.056195" lon="14.6494483"><ele>291.14285714285717</ele><time>2026-04-25T12:45:26.16Z</time></trkpt><trkpt lat="41.0561317" lon="14.649415"><ele>290.8571428571429</ele><time>2026-04-25T12:45:27.162Z</time></trkpt><trkpt lat="41.0560717" lon="14.6493767"><ele>290.5714285714286</ele><time>2026-04-25T12:45:28.162Z</time></trkpt><trkpt lat="41.0560117" lon="14.6493317"><ele>290.2857142857143</ele><time>2026-04-25T12:45:29.158Z</time></trkpt><trkpt lat="41.0559517" lon="14.6492817"><ele>290.0</ele><time>2026-04-25T12:45:30.16Z</time></trkpt><trkpt lat="41.0558917" lon="14.6492333"><ele>289.8571428571429</ele><time>2026-04-25T12:45:31.162Z</time></trkpt><trkpt lat="41.0558317" lon="14.6491867"><ele>289.7142857142857</ele><time>2026-04-25T12:45:32.162Z</time></trkpt><trkpt lat="41.0557667" lon="14.6491417"><ele>289.57142857142856</ele><time>2026-04-25T12:45:33.16Z</time></trkpt><trkpt lat="41.0557033" lon="14.6490933"><ele>289.42857142857144</ele><time>2026-04-25T12:45:34.162Z</time></trkpt><trkpt lat="41.055645" lon="14.6490383"><ele>289.2857142857143</ele><time>2026-04-25T12:45:35.162Z</time></trkpt><trkpt lat="41.05559" lon="14.64898"><ele>289.14285714285717</ele><time>2026-04-25T12:45:36.158Z</time></trkpt><trkpt lat="41.0555317" lon="14.6489233"><ele>289.0</ele><time>2026-04-25T12:45:37.161Z</time></trkpt><trkpt lat="41.05547" lon="14.6488717"><ele>288.8571428571429</ele><time>2026-04-25T12:45:38.163Z</time></trkpt><trkpt lat="41.0554083" lon="14.6488217"><ele>288.7142857142857</ele><time>2026-04-25T12:45:39.162Z</time></trkpt><trkpt lat="41.055345" lon="14.6487683"><ele>288.57142857142856</ele><time>2026-04-25T12:45:40.161Z</time></trkpt><trkpt lat="41.0552833" lon="14.6487133"><ele>288.42857142857144</ele><time>2026-04-25T12:45:41.161Z</time></trkpt><trkpt lat="41.0552217" lon="14.6486667"><ele>288.2857142857143</ele><time>2026-04-25T12:45:42.161Z</time></trkpt><trkpt lat="41.0551583" lon="14.64862"><ele>288.14285714285717</ele><time>2026-04-25T12:45:43.16Z</time></trkpt><trkpt lat="41.0551" lon="14.6485733"><ele>288.0</ele><time>2026-04-25T12:45:44.162Z</time></trkpt><trkpt lat="41.0550433" lon="14.6485233"><ele>287.8571428571429</ele><time>2026-04-25T12:45:45.161Z</time></trkpt><trkpt lat="41.0549833" lon="14.6484783"><ele>287.7142857142857</ele><time>2026-04-25T12:45:46.162Z</time></trkpt><trkpt lat="41.0549183" lon="14.648435"><ele>287.57142857142856</ele><time>2026-04-25T12:45:47.158Z</time></trkpt><trkpt lat="41.054855" lon="14.6483883"><ele>287.42857142857144</ele><time>2026-04-25T12:45:48.159Z</time></trkpt><trkpt lat="41.0547917" lon="14.6483433"><ele>287.2857142857143</ele><time>2026-04-25T12:45:49.157Z</time></trkpt><trkpt lat="41.05473" lon="14.6483"><ele>287.14285714285717</ele><time>2026-04-25T12:45:50.16Z</time></trkpt><trkpt lat="41.0546683" lon="14.64826"><ele>287.0</ele><time>2026-04-25T12:45:51.16Z</time></trkpt><trkpt lat="41.0546033" lon="14.6482217"><ele>286.85714285714283</ele><time>2026-04-25T12:45:52.157Z</time></trkpt><trkpt lat="41.0545367" lon="14.6481883"><ele>286.7142857142857</ele><time>2026-04-25T12:45:53.16Z</time></trkpt><trkpt lat="41.0544717" lon="14.6481533"><ele>286.57142857142856</ele><time>2026-04-25T12:45:54.159Z</time></trkpt><trkpt lat="41.0544067" lon="14.6481167"><ele>286.42857142857144</ele><time>2026-04-25T12:45:55.161Z</time></trkpt><trkpt lat="41.05434" lon="14.6480817"><ele>286.2857142857143</ele><time>2026-04-25T12:45:56.161Z</time></trkpt><trkpt lat="41.0542733" lon="14.64804"><ele>286.1428571428571</ele><time>2026-04-25T12:45:57.161Z</time></trkpt><trkpt lat="41.0542067" lon="14.648"><ele>286.0</ele><time>2026-04-25T12:45:58.161Z</time></trkpt><trkpt lat="41.0541383" lon="14.64796"><ele>285.57142857142856</ele><time>2026-04-25T12:45:59.157Z</time></trkpt><trkpt lat="41.05407" lon="14.6479183"><ele>285.1428571428571</ele><time>2026-04-25T12:46:00.158Z</time></trkpt><trkpt lat="41.0540083" lon="14.6478767"><ele>284.7142857142857</ele><time>2026-04-25T12:46:01.16Z</time></trkpt><trkpt lat="41.0539417" lon="14.6478367"><ele>284.2857142857143</ele><time>2026-04-25T12:46:02.162Z</time></trkpt><trkpt lat="41.0538767" lon="14.6478017"><ele>283.8571428571429</ele><time>2026-04-25T12:46:03.159Z</time></trkpt><trkpt lat="41.05381" lon="14.6477617"><ele>283.42857142857144</ele><time>2026-04-25T12:46:04.159Z</time></trkpt><trkpt lat="41.0537433" lon="14.6477183"><ele>283.0</ele><time>2026-04-25T12:46:05.158Z</time></trkpt><trkpt lat="41.0536783" lon="14.6476767"><ele>283.0</ele><time>2026-04-25T12:46:06.159Z</time></trkpt><trkpt lat="41.0536167" lon="14.64763"><ele>283.0</ele><time>2026-04-25T12:46:07.158Z</time></trkpt><trkpt lat="41.0535517" lon="14.647585"><ele>283.0</ele><time>2026-04-25T12:46:08.161Z</time></trkpt><trkpt lat="41.05349" lon="14.64754"><ele>283.0</ele><time>2026-04-25T12:46:09.159Z</time></trkpt><trkpt lat="41.0534317" lon="14.6474917"><ele>283.0</ele><time>2026-04-25T12:46:10.158Z</time></trkpt><trkpt lat="41.0533683" lon="14.6474433"><ele>283.0</ele><time>2026-04-25T12:46:11.159Z</time></trkpt><trkpt lat="41.0533067" lon="14.647395"><ele>283.0</ele><time>2026-04-25T12:46:12.158Z</time></trkpt><trkpt lat="41.0532467" lon="14.6473433"><ele>283.0</ele><time>2026-04-25T12:46:13.16Z</time></trkpt><trkpt lat="41.053185" lon="14.647295"><ele>283.0</ele><time>2026-04-25T12:46:14.161Z</time></trkpt><trkpt lat="41.0531217" lon="14.6472483"><ele>283.0</ele><time>2026-04-25T12:46:15.158Z</time></trkpt><trkpt lat="41.05306" lon="14.6472017"><ele>283.0</ele><time>2026-04-25T12:46:16.16Z</time></trkpt><trkpt lat="41.052995" lon="14.6471533"><ele>283.0</ele><time>2026-04-25T12:46:17.158Z</time></trkpt><trkpt lat="41.0529317" lon="14.6471083"><ele>283.0</ele><time>2026-04-25T12:46:18.159Z</time></trkpt><trkpt lat="41.0528667" lon="14.64706"><ele>283.0</ele><time>2026-04-25T12:46:19.16Z</time></trkpt><trkpt lat="41.0528033" lon="14.64701"><ele>283.0</ele><time>2026-04-25T12:46:20.16Z</time></trkpt><trkpt lat="41.05274" lon="14.64696"><ele>283.0</ele><time>2026-04-25T12:46:21.158Z</time></trkpt><trkpt lat="41.0526783" lon="14.64691"><ele>283.0</ele><time>2026-04-25T12:46:22.157Z</time></trkpt><trkpt lat="41.0526167" lon="14.6468617"><ele>283.0</ele><time>2026-04-25T12:46:23.159Z</time></trkpt><trkpt lat="41.0525567" lon="14.6468117"><ele>283.0</ele><time>2026-04-25T12:46:24.16Z</time></trkpt><trkpt lat="41.0524967" lon="14.6467617"><ele>283.0</ele><time>2026-04-25T12:46:25.16Z</time></trkpt><trkpt lat="41.05244" lon="14.6467167"><ele>283.0</ele><time>2026-04-25T12:46:26.161Z</time></trkpt><trkpt lat="41.0523633" lon="14.6466483"><ele>282.66666666666663</ele><time>2026-04-25T12:46:28.161Z</time></trkpt><trkpt lat="41.0522917" lon="14.646595"><ele>282.3333333333333</ele><time>2026-04-25T12:46:31.159Z</time></trkpt><trkpt lat="41.052205" lon="14.6465417"><ele>282.0</ele><time>2026-04-25T12:46:34.161Z</time></trkpt><trkpt lat="41.05215" lon="14.646475"><ele>281.6666666666667</ele><time>2026-04-25T12:46:36.16Z</time></trkpt><trkpt lat="41.052095" lon="14.6463917"><ele>281.33333333333337</ele><time>2026-04-25T12:46:38.162Z</time></trkpt><trkpt lat="41.0520267" lon="14.6463133"><ele>281.0</ele><time>2026-04-25T12:46:40.159Z</time></trkpt><trkpt lat="41.0519483" lon="14.64624"><ele>281.0</ele><time>2026-04-25T12:46:42.16Z</time></trkpt><trkpt lat="41.051875" lon="14.6461517"><ele>281.0</ele><time>2026-04-25T12:46:44.162Z</time></trkpt><trkpt lat="41.0518017" lon="14.6460433"><ele>281.0</ele><time>2026-04-25T12:46:46.159Z</time></trkpt><trkpt lat="41.0517233" lon="14.6459383"><ele>281.0</ele><time>2026-04-25T12:46:48.159Z</time></trkpt><trkpt lat="41.0516383" lon="14.6458317"><ele>281.0</ele><time>2026-04-25T12:46:50.16Z</time></trkpt><trkpt lat="41.0515583" lon="14.645715"><ele>280.83333333333337</ele><time>2026-04-25T12:46:52.159Z</time></trkpt><trkpt lat="41.051515" lon="14.6456533"><ele>280.6666666666667</ele><time>2026-04-25T12:46:53.159Z</time></trkpt><trkpt lat="41.0514717" lon="14.6455917"><ele>280.5</ele><time>2026-04-25T12:46:54.162Z</time></trkpt><trkpt lat="41.0514283" lon="14.64553"><ele>280.3333333333333</ele><time>2026-04-25T12:46:55.16Z</time></trkpt><trkpt lat="41.0513367" lon="14.6454167"><ele>280.16666666666663</ele><time>2026-04-25T12:46:57.161Z</time></trkpt><trkpt lat="41.0512583" lon="14.645305"><ele>280.0</ele><time>2026-04-25T12:46:59.161Z</time></trkpt><trkpt lat="41.0512317" lon="14.645205"><ele>280.0</ele><time>2026-04-25T12:47:01.16Z</time></trkpt><trkpt lat="41.0512467" lon="14.645105"><ele>280.0</ele><time>2026-04-25T12:47:03.162Z</time></trkpt><trkpt lat="41.0512767" lon="14.644995"><ele>280.0</ele><time>2026-04-25T12:47:05.16Z</time></trkpt><trkpt lat="41.05132" lon="14.6448733"><ele>280.0</ele><time>2026-04-25T12:47:07.161Z</time></trkpt><trkpt lat="41.05137" lon="14.64474"><ele>280.0</ele><time>2026-04-25T12:47:09.162Z</time></trkpt><trkpt lat="41.0514133" lon="14.6445883"><ele>280.0</ele><time>2026-04-25T12:47:11.162Z</time></trkpt><trkpt lat="41.0514567" lon="14.6444367"><ele>280.0</ele><time>2026-04-25T12:47:13.159Z</time></trkpt><trkpt lat="41.0515083" lon="14.6442867"><ele>280.0</ele><time>2026-04-25T12:47:15.16Z</time></trkpt><trkpt lat="41.0515567" lon="14.6441333"><ele>280.0</ele><time>2026-04-25T12:47:17.161Z</time></trkpt><trkpt lat="41.0515983" lon="14.643985"><ele>279.75</ele><time>2026-04-25T12:47:19.158Z</time></trkpt><trkpt lat="41.0516417" lon="14.6438383"><ele>279.5</ele><time>2026-04-25T12:47:21.158Z</time></trkpt><trkpt lat="41.0516883" lon="14.643685"><ele>279.25</ele><time>2026-04-25T12:47:23.158Z</time></trkpt><trkpt lat="41.0517267" lon="14.6435417"><ele>279.0</ele><time>2026-04-25T12:47:25.159Z</time></trkpt><trkpt lat="41.0517733" lon="14.6433983"><ele>279.0</ele><time>2026-04-25T12:47:27.161Z</time></trkpt><trkpt lat="41.051815" lon="14.643255"><ele>279.0</ele><time>2026-04-25T12:47:29.161Z</time></trkpt><trkpt lat="41.0518517" lon="14.6431067"><ele>279.0</ele><time>2026-04-25T12:47:31.16Z</time></trkpt><trkpt lat="41.05189" lon="14.64296"><ele>279.0</ele><time>2026-04-25T12:47:33.163Z</time></trkpt><trkpt lat="41.0519217" lon="14.6428167"><ele>279.0</ele><time>2026-04-25T12:47:35.161Z</time></trkpt><trkpt lat="41.0519567" lon="14.6426817"><ele>279.0</ele><time>2026-04-25T12:47:37.16Z</time></trkpt><trkpt lat="41.05199" lon="14.6425467"><ele>279.0</ele><time>2026-04-25T12:47:39.161Z</time></trkpt><trkpt lat="41.052025" lon="14.6424083"><ele>279.0</ele><time>2026-04-25T12:47:41.162Z</time></trkpt><trkpt lat="41.052055" lon="14.6422783"><ele>279.0</ele><time>2026-04-25T12:47:43.161Z</time></trkpt><trkpt lat="41.0520833" lon="14.642145"><ele>279.0</ele><time>2026-04-25T12:47:45.162Z</time></trkpt><trkpt lat="41.0521033" lon="14.6420183"><ele>279.0</ele><time>2026-04-25T12:47:47.158Z</time></trkpt><trkpt lat="41.0521283" lon="14.6418933"><ele>279.0</ele><time>2026-04-25T12:47:49.16Z</time></trkpt><trkpt lat="41.0521533" lon="14.6417733"><ele>279.0</ele><time>2026-04-25T12:47:51.158Z</time></trkpt><trkpt lat="41.0521767" lon="14.641655"><ele>279.0</ele><time>2026-04-25T12:47:53.159Z</time></trkpt><trkpt lat="41.0522" lon="14.641545"><ele>279.0</ele><time>2026-04-25T12:47:55.16Z</time></trkpt><trkpt lat="41.0522217" lon="14.6414367"><ele>279.0</ele><time>2026-04-25T12:47:57.159Z</time></trkpt><trkpt lat="41.0522483" lon="14.6413183"><ele>279.0</ele><time>2026-04-25T12:47:59.161Z</time></trkpt><trkpt lat="41.0522767" lon="14.6412"><ele>279.0</ele><time>2026-04-25T12:48:01.16Z</time></trkpt><trkpt lat="41.0523067" lon="14.6410833"><ele>279.0</ele><time>2026-04-25T12:48:03.161Z</time></trkpt><trkpt lat="41.05234" lon="14.6409617"><ele>279.0</ele><time>2026-04-25T12:48:05.161Z</time></trkpt><trkpt lat="41.0523733" lon="14.6408333"><ele>279.0</ele><time>2026-04-25T12:48:07.161Z</time></trkpt><trkpt lat="41.0524" lon="14.6407017"><ele>279.0</ele><time>2026-04-25T12:48:09.161Z</time></trkpt><trkpt lat="41.052435" lon="14.64057"><ele>279.0</ele><time>2026-04-25T12:48:11.16Z</time></trkpt><trkpt lat="41.0524633" lon="14.6404433"><ele>279.0</ele><time>2026-04-25T12:48:13.16Z</time></trkpt><trkpt lat="41.052485" lon="14.640315"><ele>279.59999999999997</ele><time>2026-04-25T12:48:15.161Z</time></trkpt><trkpt lat="41.0525133" lon="14.6401933"><ele>280.2</ele><time>2026-04-25T12:48:17.158Z</time></trkpt><trkpt lat="41.0525417" lon="14.6400767"><ele>280.79999999999995</ele><time>2026-04-25T12:48:19.16Z</time></trkpt><trkpt lat="41.052565" lon="14.6399567"><ele>281.4</ele><time>2026-04-25T12:48:21.161Z</time></trkpt><trkpt lat="41.0525933" lon="14.6398383"><ele>282.0</ele><time>2026-04-25T12:48:23.161Z</time></trkpt><trkpt lat="41.052625" lon="14.6397183"><ele>282.0</ele><time>2026-04-25T12:48:25.159Z</time></trkpt><trkpt lat="41.0526583" lon="14.6395933"><ele>282.0</ele><time>2026-04-25T12:48:27.16Z</time></trkpt><trkpt lat="41.05269" lon="14.63946"><ele>282.0</ele><time>2026-04-25T12:48:29.159Z</time></trkpt><trkpt lat="41.0527233" lon="14.6393283"><ele>282.0</ele><time>2026-04-25T12:48:31.162Z</time></trkpt><trkpt lat="41.052755" lon="14.6391933"><ele>282.0</ele><time>2026-04-25T12:48:33.161Z</time></trkpt><trkpt lat="41.0527867" lon="14.6390567"><ele>281.8</ele><time>2026-04-25T12:48:35.158Z</time></trkpt><trkpt lat="41.0528217" lon="14.6389183"><ele>281.6</ele><time>2026-04-25T12:48:37.159Z</time></trkpt><trkpt lat="41.0528567" lon="14.6387867"><ele>281.40000000000003</ele><time>2026-04-25T12:48:39.162Z</time></trkpt><trkpt lat="41.0528917" lon="14.6386517"><ele>281.2</ele><time>2026-04-25T12:48:41.162Z</time></trkpt><trkpt lat="41.0529233" lon="14.6385033"><ele>281.0</ele><time>2026-04-25T12:48:43.159Z</time></trkpt><trkpt lat="41.0529533" lon="14.6383567"><ele>280.75</ele><time>2026-04-25T12:48:45.161Z</time></trkpt><trkpt lat="41.05299" lon="14.6382083"><ele>280.5</ele><time>2026-04-25T12:48:47.16Z</time></trkpt><trkpt lat="41.053025" lon="14.6380567"><ele>280.25</ele><time>2026-04-25T12:48:49.158Z</time></trkpt><trkpt lat="41.05306" lon="14.6379067"><ele>280.0</ele><time>2026-04-25T12:48:51.159Z</time></trkpt><trkpt lat="41.0530933" lon="14.637755"><ele>279.8</ele><time>2026-04-25T12:48:53.159Z</time></trkpt><trkpt lat="41.05313" lon="14.6376067"><ele>279.6</ele><time>2026-04-25T12:48:55.161Z</time></trkpt><trkpt lat="41.0531683" lon="14.63745"><ele>279.4</ele><time>2026-04-25T12:48:57.161Z</time></trkpt><trkpt lat="41.0531867" lon="14.63737"><ele>279.2</ele><time>2026-04-25T12:48:58.157Z</time></trkpt><trkpt lat="41.0532217" lon="14.6372183"><ele>279.0</ele><time>2026-04-25T12:49:00.16Z</time></trkpt><trkpt lat="41.0532567" lon="14.6370667"><ele>278.4</ele><time>2026-04-25T12:49:02.16Z</time></trkpt><trkpt lat="41.0533" lon="14.6369133"><ele>277.79999999999995</ele><time>2026-04-25T12:49:04.159Z</time></trkpt><trkpt lat="41.0533167" lon="14.636825"><ele>277.20000000000005</ele><time>2026-04-25T12:49:05.161Z</time></trkpt><trkpt lat="41.0533583" lon="14.6366683"><ele>276.6</ele><time>2026-04-25T12:49:07.161Z</time></trkpt><trkpt lat="41.0533817" lon="14.6365883"><ele>276.0</ele><time>2026-04-25T12:49:08.16Z</time></trkpt><trkpt lat="41.0534233" lon="14.6364317"><ele>276.0</ele><time>2026-04-25T12:49:10.161Z</time></trkpt><trkpt lat="41.0534467" lon="14.6363533"><ele>276.0</ele><time>2026-04-25T12:49:11.16Z</time></trkpt><trkpt lat="41.05349" lon="14.636195"><ele>276.0</ele><time>2026-04-25T12:49:13.16Z</time></trkpt><trkpt lat="41.0535117" lon="14.636115"><ele>276.0</ele><time>2026-04-25T12:49:14.162Z</time></trkpt><trkpt lat="41.0535567" lon="14.63596"><ele>276.0</ele><time>2026-04-25T12:49:16.161Z</time></trkpt><trkpt lat="41.0536117" lon="14.635815"><ele>276.0</ele><time>2026-04-25T12:49:18.16Z</time></trkpt><trkpt lat="41.0536767" lon="14.63568"><ele>276.0</ele><time>2026-04-25T12:49:20.162Z</time></trkpt><trkpt lat="41.0537517" lon="14.63556"><ele>276.0</ele><time>2026-04-25T12:49:22.159Z</time></trkpt><trkpt lat="41.0538017" lon="14.63542"><ele>276.0</ele><time>2026-04-25T12:49:24.16Z</time></trkpt><trkpt lat="41.0538067" lon="14.6352633"><ele>276.0</ele><time>2026-04-25T12:49:26.16Z</time></trkpt><trkpt lat="41.053805" lon="14.63511"><ele>276.0</ele><time>2026-04-25T12:49:28.16Z</time></trkpt><trkpt lat="41.05383" lon="14.6349667"><ele>276.0</ele><time>2026-04-25T12:49:30.162Z</time></trkpt><trkpt lat="41.0538733" lon="14.6348233"><ele>276.0</ele><time>2026-04-25T12:49:32.162Z</time></trkpt><trkpt lat="41.0539117" lon="14.6346783"><ele>276.0</ele><time>2026-04-25T12:49:34.162Z</time></trkpt><trkpt lat="41.053945" lon="14.6345317"><ele>276.0</ele><time>2026-04-25T12:49:36.161Z</time></trkpt><trkpt lat="41.0539767" lon="14.63439"><ele>276.0</ele><time>2026-04-25T12:49:38.161Z</time></trkpt><trkpt lat="41.054015" lon="14.6342517"><ele>276.0</ele><time>2026-04-25T12:49:40.161Z</time></trkpt><trkpt lat="41.0540517" lon="14.6341233"><ele>276.0</ele><time>2026-04-25T12:49:42.161Z</time></trkpt><trkpt lat="41.0540867" lon="14.6339933"><ele>276.0</ele><time>2026-04-25T12:49:44.161Z</time></trkpt><trkpt lat="41.0541167" lon="14.633865"><ele>276.0</ele><time>2026-04-25T12:49:46.161Z</time></trkpt><trkpt lat="41.05414" lon="14.63373"><ele>276.0</ele><time>2026-04-25T12:49:48.162Z</time></trkpt><trkpt lat="41.054165" lon="14.6336017"><ele>276.0</ele><time>2026-04-25T12:49:50.162Z</time></trkpt><trkpt lat="41.0541883" lon="14.63348"><ele>276.0</ele><time>2026-04-25T12:49:52.162Z</time></trkpt><trkpt lat="41.0542083" lon="14.6333617"><ele>276.40000000000003</ele><time>2026-04-25T12:49:54.161Z</time></trkpt><trkpt lat="41.0542217" lon="14.6332417"><ele>276.8</ele><time>2026-04-25T12:49:56.161Z</time></trkpt><trkpt lat="41.054235" lon="14.6331233"><ele>277.20000000000005</ele><time>2026-04-25T12:49:58.162Z</time></trkpt><trkpt lat="41.05425" lon="14.6329983"><ele>277.6</ele><time>2026-04-25T12:50:00.16Z</time></trkpt><trkpt lat="41.0542533" lon="14.6328767"><ele>278.0</ele><time>2026-04-25T12:50:02.162Z</time></trkpt><trkpt lat="41.0542467" lon="14.6327533"><ele>278.2</ele><time>2026-04-25T12:50:04.159Z</time></trkpt><trkpt lat="41.0542417" lon="14.632635"><ele>278.4</ele><time>2026-04-25T12:50:06.159Z</time></trkpt><trkpt lat="41.0542283" lon="14.6325117"><ele>278.59999999999997</ele><time>2026-04-25T12:50:08.161Z</time></trkpt><trkpt lat="41.0542083" lon="14.6323767"><ele>278.8</ele><time>2026-04-25T12:50:10.16Z</time></trkpt><trkpt lat="41.0541783" lon="14.6322417"><ele>279.0</ele><time>2026-04-25T12:50:12.158Z</time></trkpt><trkpt lat="41.05415" lon="14.6321017"><ele>278.25</ele><time>2026-04-25T12:50:14.161Z</time></trkpt><trkpt lat="41.054115" lon="14.63196"><ele>277.5</ele><time>2026-04-25T12:50:16.161Z</time></trkpt><trkpt lat="41.0540783" lon="14.6318183"><ele>276.75</ele><time>2026-04-25T12:50:18.16Z</time></trkpt><trkpt lat="41.0540417" lon="14.6316683"><ele>276.0</ele><time>2026-04-25T12:50:20.16Z</time></trkpt><trkpt lat="41.0540067" lon="14.6315183"><ele>276.0</ele><time>2026-04-25T12:50:22.161Z</time></trkpt><trkpt lat="41.0539667" lon="14.6313683"><ele>276.0</ele><time>2026-04-25T12:50:24.162Z</time></trkpt><trkpt lat="41.05393" lon="14.6312133"><ele>276.0</ele><time>2026-04-25T12:50:26.161Z</time></trkpt><trkpt lat="41.05389" lon="14.63106"><ele>276.0</ele><time>2026-04-25T12:50:28.161Z</time></trkpt><trkpt lat="41.053845" lon="14.630905"><ele>276.0</ele><time>2026-04-25T12:50:30.162Z</time></trkpt><trkpt lat="41.0538033" lon="14.630755"><ele>276.0</ele><time>2026-04-25T12:50:32.161Z</time></trkpt><trkpt lat="41.0537817" lon="14.630675"><ele>276.0</ele><time>2026-04-25T12:50:33.16Z</time></trkpt><trkpt lat="41.0537383" lon="14.63052"><ele>276.0</ele><time>2026-04-25T12:50:35.16Z</time></trkpt><trkpt lat="41.0537133" lon="14.6304417"><ele>276.0</ele><time>2026-04-25T12:50:36.158Z</time></trkpt><trkpt lat="41.0536883" lon="14.6303617"><ele>276.0</ele><time>2026-04-25T12:50:37.16Z</time></trkpt><trkpt lat="41.0536633" lon="14.6302817"><ele>276.0</ele><time>2026-04-25T12:50:38.16Z</time></trkpt><trkpt lat="41.0536183" lon="14.6301267"><ele>276.0</ele><time>2026-04-25T12:50:40.161Z</time></trkpt><trkpt lat="41.0535733" lon="14.6299767"><ele>276.0</ele><time>2026-04-25T12:50:42.16Z</time></trkpt><trkpt lat="41.0535467" lon="14.6298967"><ele>276.0</ele><time>2026-04-25T12:50:43.161Z</time></trkpt><trkpt lat="41.0535217" lon="14.6298167"><ele>276.0</ele><time>2026-04-25T12:50:44.16Z</time></trkpt><trkpt lat="41.0534733" lon="14.6296617"><ele>276.0</ele><time>2026-04-25T12:50:46.161Z</time></trkpt><trkpt lat="41.05345" lon="14.6295817"><ele>276.0</ele><time>2026-04-25T12:50:47.161Z</time></trkpt><trkpt lat="41.053425" lon="14.6295"><ele>276.0</ele><time>2026-04-25T12:50:48.16Z</time></trkpt><trkpt lat="41.0534017" lon="14.6294217"><ele>276.0</ele><time>2026-04-25T12:50:49.159Z</time></trkpt><trkpt lat="41.0533817" lon="14.6293417"><ele>276.0</ele><time>2026-04-25T12:50:50.16Z</time></trkpt><trkpt lat="41.05336" lon="14.62926"><ele>276.0</ele><time>2026-04-25T12:50:51.162Z</time></trkpt><trkpt lat="41.053335" lon="14.62918"><ele>276.0</ele><time>2026-04-25T12:50:52.16Z</time></trkpt><trkpt lat="41.0533117" lon="14.6291017"><ele>276.0</ele><time>2026-04-25T12:50:53.16Z</time></trkpt><trkpt lat="41.0532667" lon="14.6289483"><ele>276.0</ele><time>2026-04-25T12:50:55.162Z</time></trkpt><trkpt lat="41.053245" lon="14.6288667"><ele>276.0</ele><time>2026-04-25T12:50:56.161Z</time></trkpt><trkpt lat="41.0532017" lon="14.628715"><ele>276.0</ele><time>2026-04-25T12:50:58.161Z</time></trkpt><trkpt lat="41.0531583" lon="14.628565"><ele>276.0</ele><time>2026-04-25T12:51:00.162Z</time></trkpt><trkpt lat="41.0531167" lon="14.6284133"><ele>276.0</ele><time>2026-04-25T12:51:02.162Z</time></trkpt><trkpt lat="41.0530683" lon="14.6282683"><ele>276.0</ele><time>2026-04-25T12:51:04.159Z</time></trkpt><trkpt lat="41.0530267" lon="14.62812"><ele>276.0</ele><time>2026-04-25T12:51:06.162Z</time></trkpt><trkpt lat="41.052995" lon="14.6279617"><ele>276.0</ele><time>2026-04-25T12:51:08.162Z</time></trkpt><trkpt lat="41.0529617" lon="14.62781"><ele>275.8</ele><time>2026-04-25T12:51:10.161Z</time></trkpt><trkpt lat="41.0529333" lon="14.6276483"><ele>275.6</ele><time>2026-04-25T12:51:12.161Z</time></trkpt><trkpt lat="41.0529167" lon="14.627565"><ele>275.4</ele><time>2026-04-25T12:51:13.161Z</time></trkpt><trkpt lat="41.0528867" lon="14.627405"><ele>275.2</ele><time>2026-04-25T12:51:15.161Z</time></trkpt><trkpt lat="41.0528633" lon="14.6272433"><ele>275.0</ele><time>2026-04-25T12:51:17.162Z</time></trkpt><trkpt lat="41.0528533" lon="14.62716"><ele>275.0</ele><time>2026-04-25T12:51:18.159Z</time></trkpt><trkpt lat="41.0528433" lon="14.6270733"><ele>275.0</ele><time>2026-04-25T12:51:19.159Z</time></trkpt><trkpt lat="41.0528317" lon="14.6269867"><ele>275.0</ele><time>2026-04-25T12:51:20.16Z</time></trkpt><trkpt lat="41.05282" lon="14.6269017"><ele>275.0</ele><time>2026-04-25T12:51:21.159Z</time></trkpt><trkpt lat="41.0528117" lon="14.6268167"><ele>275.0</ele><time>2026-04-25T12:51:22.157Z</time></trkpt><trkpt lat="41.0527967" lon="14.6266533"><ele>275.0</ele><time>2026-04-25T12:51:24.157Z</time></trkpt><trkpt lat="41.0527933" lon="14.6265683"><ele>274.75</ele><time>2026-04-25T12:51:25.159Z</time></trkpt><trkpt lat="41.0527867" lon="14.6264033"><ele>274.5</ele><time>2026-04-25T12:51:27.159Z</time></trkpt><trkpt lat="41.05279" lon="14.6262417"><ele>274.25</ele><time>2026-04-25T12:51:29.16Z</time></trkpt><trkpt lat="41.0527983" lon="14.62608"><ele>274.0</ele><time>2026-04-25T12:51:31.161Z</time></trkpt><trkpt lat="41.05281" lon="14.6259217"><ele>274.0</ele><time>2026-04-25T12:51:33.159Z</time></trkpt><trkpt lat="41.052825" lon="14.6257583"><ele>274.0</ele><time>2026-04-25T12:51:35.162Z</time></trkpt><trkpt lat="41.05285" lon="14.6255933"><ele>274.0</ele><time>2026-04-25T12:51:37.162Z</time></trkpt><trkpt lat="41.0528633" lon="14.625505"><ele>274.0</ele><time>2026-04-25T12:51:38.161Z</time></trkpt><trkpt lat="41.0528767" lon="14.62542"><ele>274.0</ele><time>2026-04-25T12:51:39.16Z</time></trkpt><trkpt lat="41.05289" lon="14.6253367"><ele>274.0</ele><time>2026-04-25T12:51:40.161Z</time></trkpt><trkpt lat="41.0529033" lon="14.6252517"><ele>273.66666666666663</ele><time>2026-04-25T12:51:41.162Z</time></trkpt><trkpt lat="41.052915" lon="14.6251683"><ele>273.3333333333333</ele><time>2026-04-25T12:51:42.161Z</time></trkpt><trkpt lat="41.05293" lon="14.6250867"><ele>273.0</ele><time>2026-04-25T12:51:43.161Z</time></trkpt><trkpt lat="41.052945" lon="14.625005"><ele>272.6666666666667</ele><time>2026-04-25T12:51:44.161Z</time></trkpt><trkpt lat="41.05296" lon="14.6249217"><ele>272.33333333333337</ele><time>2026-04-25T12:51:45.16Z</time></trkpt><trkpt lat="41.0529933" lon="14.624765"><ele>272.0</ele><time>2026-04-25T12:51:47.16Z</time></trkpt><trkpt lat="41.0530217" lon="14.6246083"><ele>272.1666666666667</ele><time>2026-04-25T12:51:49.158Z</time></trkpt><trkpt lat="41.0530567" lon="14.62445"><ele>272.33333333333337</ele><time>2026-04-25T12:51:51.16Z</time></trkpt><trkpt lat="41.0530933" lon="14.6242917"><ele>272.5</ele><time>2026-04-25T12:51:53.158Z</time></trkpt><trkpt lat="41.053115" lon="14.62421"><ele>272.6666666666667</ele><time>2026-04-25T12:51:54.158Z</time></trkpt><trkpt lat="41.0531383" lon="14.624125"><ele>272.8333333333333</ele><time>2026-04-25T12:51:55.159Z</time></trkpt><trkpt lat="41.0531633" lon="14.6240433"><ele>273.0</ele><time>2026-04-25T12:51:56.159Z</time></trkpt><trkpt lat="41.0531883" lon="14.6239617"><ele>273.0</ele><time>2026-04-25T12:51:57.158Z</time></trkpt><trkpt lat="41.0532117" lon="14.6238817"><ele>273.0</ele><time>2026-04-25T12:51:58.158Z</time></trkpt><trkpt lat="41.0532583" lon="14.6237317"><ele>273.0</ele><time>2026-04-25T12:52:00.16Z</time></trkpt><trkpt lat="41.0532833" lon="14.623655"><ele>273.0</ele><time>2026-04-25T12:52:01.159Z</time></trkpt><trkpt lat="41.0533083" lon="14.6235767"><ele>273.0</ele><time>2026-04-25T12:52:02.158Z</time></trkpt><trkpt lat="41.0533633" lon="14.6234283"><ele>273.0</ele><time>2026-04-25T12:52:04.157Z</time></trkpt><trkpt lat="41.0533983" lon="14.6233567"><ele>273.2</ele><time>2026-04-25T12:52:05.159Z</time></trkpt><trkpt lat="41.0534333" lon="14.623285"><ele>273.4</ele><time>2026-04-25T12:52:06.159Z</time></trkpt><trkpt lat="41.0535033" lon="14.62315"><ele>273.59999999999997</ele><time>2026-04-25T12:52:08.16Z</time></trkpt><trkpt lat="41.0535783" lon="14.6230183"><ele>273.8</ele><time>2026-04-25T12:52:10.159Z</time></trkpt><trkpt lat="41.0536567" lon="14.6228917"><ele>274.0</ele><time>2026-04-25T12:52:12.16Z</time></trkpt><trkpt lat="41.05374" lon="14.622775"><ele>274.0</ele><time>2026-04-25T12:52:14.161Z</time></trkpt><trkpt lat="41.05382" lon="14.62265"><ele>274.0</ele><time>2026-04-25T12:52:16.161Z</time></trkpt><trkpt lat="41.0539033" lon="14.6225317"><ele>274.0</ele><time>2026-04-25T12:52:18.159Z</time></trkpt><trkpt lat="41.053985" lon="14.6224233"><ele>274.0</ele><time>2026-04-25T12:52:20.16Z</time></trkpt><trkpt lat="41.0540667" lon="14.6223083"><ele>274.0</ele><time>2026-04-25T12:52:22.158Z</time></trkpt><trkpt lat="41.0541533" lon="14.622195"><ele>274.0</ele><time>2026-04-25T12:52:24.159Z</time></trkpt><trkpt lat="41.0542333" lon="14.6220867"><ele>274.0</ele><time>2026-04-25T12:52:26.16Z</time></trkpt><trkpt lat="41.0543183" lon="14.6219783"><ele>274.0</ele><time>2026-04-25T12:52:28.158Z</time></trkpt><trkpt lat="41.0544" lon="14.6218683"><ele>273.8</ele><time>2026-04-25T12:52:30.162Z</time></trkpt><trkpt lat="41.0544833" lon="14.6217533"><ele>273.59999999999997</ele><time>2026-04-25T12:52:32.161Z</time></trkpt><trkpt lat="41.0545633" lon="14.6216467"><ele>273.4</ele><time>2026-04-25T12:52:34.16Z</time></trkpt><trkpt lat="41.0546433" lon="14.6215533"><ele>273.2</ele><time>2026-04-25T12:52:36.163Z</time></trkpt><trkpt lat="41.0547233" lon="14.62147"><ele>273.0</ele><time>2026-04-25T12:52:38.163Z</time></trkpt><trkpt lat="41.0548117" lon="14.621415"><ele>273.0</ele><time>2026-04-25T12:52:40.16Z</time></trkpt><trkpt lat="41.05491" lon="14.6213783"><ele>273.0</ele><time>2026-04-25T12:52:42.161Z</time></trkpt><trkpt lat="41.05499" lon="14.62137"><ele>273.0</ele><time>2026-04-25T12:52:44.16Z</time></trkpt><trkpt lat="41.055055" lon="14.62137"><ele>273.0</ele><time>2026-04-25T12:52:46.159Z</time></trkpt><trkpt lat="41.0551283" lon="14.6213533"><ele>273.0</ele><time>2026-04-25T12:52:49.157Z</time></trkpt><trkpt lat="41.0551867" lon="14.6212567"><ele>273.0</ele><time>2026-04-25T12:52:52.159Z</time></trkpt><trkpt lat="41.055195" lon="14.6211517"><ele>273.4</ele><time>2026-04-25T12:52:54.159Z</time></trkpt><trkpt lat="41.055175" lon="14.6210417"><ele>273.8</ele><time>2026-04-25T12:52:56.161Z</time></trkpt><trkpt lat="41.0551333" lon="14.6209383"><ele>274.2</ele><time>2026-04-25T12:52:58.158Z</time></trkpt><trkpt lat="41.0551067" lon="14.6208183"><ele>274.6</ele><time>2026-04-25T12:53:00.16Z</time></trkpt><trkpt lat="41.0551033" lon="14.620685"><ele>275.0</ele><time>2026-04-25T12:53:02.161Z</time></trkpt><trkpt lat="41.055105" lon="14.6205433"><ele>275.0</ele><time>2026-04-25T12:53:04.161Z</time></trkpt><trkpt lat="41.0550917" lon="14.620395"><ele>275.0</ele><time>2026-04-25T12:53:06.162Z</time></trkpt><trkpt lat="41.0550617" lon="14.6202483"><ele>275.0</ele><time>2026-04-25T12:53:08.162Z</time></trkpt><trkpt lat="41.0550183" lon="14.6201083"><ele>275.0</ele><time>2026-04-25T12:53:10.161Z</time></trkpt><trkpt lat="41.0549783" lon="14.61997"><ele>275.0</ele><time>2026-04-25T12:53:12.161Z</time></trkpt><trkpt lat="41.0549433" lon="14.61982"><ele>275.0</ele><time>2026-04-25T12:53:14.162Z</time></trkpt><trkpt lat="41.054925" lon="14.61974"><ele>275.0</ele><time>2026-04-25T12:53:15.161Z</time></trkpt><trkpt lat="41.0549033" lon="14.61966"><ele>275.0</ele><time>2026-04-25T12:53:16.161Z</time></trkpt><trkpt lat="41.0548567" lon="14.6195083"><ele>275.0</ele><time>2026-04-25T12:53:18.16Z</time></trkpt><trkpt lat="41.0548167" lon="14.6193517"><ele>274.5</ele><time>2026-04-25T12:53:20.161Z</time></trkpt><trkpt lat="41.054775" lon="14.6192017"><ele>274.0</ele><time>2026-04-25T12:53:22.159Z</time></trkpt><trkpt lat="41.054735" lon="14.6190567"><ele>273.5</ele><time>2026-04-25T12:53:24.161Z</time></trkpt><trkpt lat="41.0546983" lon="14.6189117"><ele>273.0</ele><time>2026-04-25T12:53:26.163Z</time></trkpt><trkpt lat="41.05466" lon="14.6187617"><ele>273.0</ele><time>2026-04-25T12:53:28.162Z</time></trkpt><trkpt lat="41.0546283" lon="14.618615"><ele>273.0</ele><time>2026-04-25T12:53:30.16Z</time></trkpt><trkpt lat="41.0546" lon="14.6184717"><ele>273.0</ele><time>2026-04-25T12:53:32.162Z</time></trkpt><trkpt lat="41.0545667" lon="14.61834"><ele>273.0</ele><time>2026-04-25T12:53:34.161Z</time></trkpt><trkpt lat="41.0545333" lon="14.6182117"><ele>273.0</ele><time>2026-04-25T12:53:36.161Z</time></trkpt><trkpt lat="41.0545" lon="14.6180883"><ele>273.0</ele><time>2026-04-25T12:53:38.163Z</time></trkpt><trkpt lat="41.0544667" lon="14.6179533"><ele>273.0</ele><time>2026-04-25T12:53:40.161Z</time></trkpt><trkpt lat="41.0544333" lon="14.61781"><ele>273.0</ele><time>2026-04-25T12:53:42.161Z</time></trkpt><trkpt lat="41.05439" lon="14.6176683"><ele>273.0</ele><time>2026-04-25T12:53:44.162Z</time></trkpt><trkpt lat="41.05435" lon="14.6175317"><ele>273.0</ele><time>2026-04-25T12:53:46.162Z</time></trkpt><trkpt lat="41.0543167" lon="14.617395"><ele>272.75</ele><time>2026-04-25T12:53:48.159Z</time></trkpt><trkpt lat="41.0542817" lon="14.61726"><ele>272.5</ele><time>2026-04-25T12:53:50.159Z</time></trkpt><trkpt lat="41.054245" lon="14.61712"><ele>272.25</ele><time>2026-04-25T12:53:52.159Z</time></trkpt><trkpt lat="41.0542067" lon="14.6169717"><ele>272.0</ele><time>2026-04-25T12:53:54.161Z</time></trkpt><trkpt lat="41.054165" lon="14.616825"><ele>272.0</ele><time>2026-04-25T12:53:56.16Z</time></trkpt><trkpt lat="41.0541267" lon="14.6166783"><ele>272.0</ele><time>2026-04-25T12:53:58.159Z</time></trkpt><trkpt lat="41.0540867" lon="14.6165317"><ele>272.0</ele><time>2026-04-25T12:54:00.162Z</time></trkpt><trkpt lat="41.0540483" lon="14.6163833"><ele>272.0</ele><time>2026-04-25T12:54:02.162Z</time></trkpt><trkpt lat="41.0540117" lon="14.61623"><ele>272.0</ele><time>2026-04-25T12:54:04.162Z</time></trkpt><trkpt lat="41.053975" lon="14.6160817"><ele>272.0</ele><time>2026-04-25T12:54:06.161Z</time></trkpt><trkpt lat="41.0539417" lon="14.6159383"><ele>272.0</ele><time>2026-04-25T12:54:08.159Z</time></trkpt><trkpt lat="41.0539083" lon="14.6157983"><ele>272.0</ele><time>2026-04-25T12:54:10.158Z</time></trkpt><trkpt lat="41.05387" lon="14.6156617"><ele>272.0</ele><time>2026-04-25T12:54:12.161Z</time></trkpt><trkpt lat="41.0538367" lon="14.615525"><ele>272.0</ele><time>2026-04-25T12:54:14.161Z</time></trkpt><trkpt lat="41.0538017" lon="14.6153817"><ele>272.0</ele><time>2026-04-25T12:54:16.161Z</time></trkpt><trkpt lat="41.0537683" lon="14.6152417"><ele>272.0</ele><time>2026-04-25T12:54:18.161Z</time></trkpt><trkpt lat="41.0537367" lon="14.6151083"><ele>272.0</ele><time>2026-04-25T12:54:20.162Z</time></trkpt><trkpt lat="41.0537033" lon="14.6149717"><ele>271.8</ele><time>2026-04-25T12:54:22.16Z</time></trkpt><trkpt lat="41.0536667" lon="14.6148283"><ele>271.6</ele><time>2026-04-25T12:54:24.161Z</time></trkpt><trkpt lat="41.053635" lon="14.6146933"><ele>271.40000000000003</ele><time>2026-04-25T12:54:26.163Z</time></trkpt><trkpt lat="41.0536017" lon="14.6145517"><ele>271.2</ele><time>2026-04-25T12:54:28.16Z</time></trkpt><trkpt lat="41.0535683" lon="14.6144117"><ele>271.0</ele><time>2026-04-25T12:54:30.161Z</time></trkpt><trkpt lat="41.0535317" lon="14.614275"><ele>271.0</ele><time>2026-04-25T12:54:32.163Z</time></trkpt><trkpt lat="41.0534867" lon="14.61414"><ele>271.0</ele><time>2026-04-25T12:54:34.162Z</time></trkpt><trkpt lat="41.0534533" lon="14.6139983"><ele>271.0</ele><time>2026-04-25T12:54:36.16Z</time></trkpt><trkpt lat="41.053415" lon="14.61386"><ele>271.0</ele><time>2026-04-25T12:54:38.162Z</time></trkpt><trkpt lat="41.05338" lon="14.6137267"><ele>271.0</ele><time>2026-04-25T12:54:40.161Z</time></trkpt><trkpt lat="41.0533433" lon="14.61359"><ele>271.2</ele><time>2026-04-25T12:54:42.162Z</time></trkpt><trkpt lat="41.0533117" lon="14.6134567"><ele>271.40000000000003</ele><time>2026-04-25T12:54:44.161Z</time></trkpt><trkpt lat="41.053275" lon="14.61332"><ele>271.6</ele><time>2026-04-25T12:54:46.159Z</time></trkpt><trkpt lat="41.05323" lon="14.61319"><ele>271.8</ele><time>2026-04-25T12:54:48.158Z</time></trkpt><trkpt lat="41.0531917" lon="14.61305"><ele>272.0</ele><time>2026-04-25T12:54:50.163Z</time></trkpt><trkpt lat="41.0531533" lon="14.612905"><ele>271.8</ele><time>2026-04-25T12:54:52.16Z</time></trkpt><trkpt lat="41.0531233" lon="14.612775"><ele>271.6</ele><time>2026-04-25T12:54:54.161Z</time></trkpt><trkpt lat="41.053095" lon="14.6126333"><ele>271.40000000000003</ele><time>2026-04-25T12:54:56.158Z</time></trkpt><trkpt lat="41.0530583" lon="14.6124883"><ele>271.2</ele><time>2026-04-25T12:54:58.16Z</time></trkpt><trkpt lat="41.0530217" lon="14.6123417"><ele>271.0</ele><time>2026-04-25T12:55:00.162Z</time></trkpt><trkpt lat="41.0529867" lon="14.6122067"><ele>271.0</ele><time>2026-04-25T12:55:02.162Z</time></trkpt><trkpt lat="41.0529517" lon="14.612075"><ele>271.0</ele><time>2026-04-25T12:55:04.16Z</time></trkpt><trkpt lat="41.052915" lon="14.6119417"><ele>271.0</ele><time>2026-04-25T12:55:06.163Z</time></trkpt><trkpt lat="41.0528767" lon="14.61179"><ele>271.0</ele><time>2026-04-25T12:55:08.162Z</time></trkpt><trkpt lat="41.0528567" lon="14.6117067"><ele>271.0</ele><time>2026-04-25T12:55:09.161Z</time></trkpt><trkpt lat="41.0528367" lon="14.6116267"><ele>271.0</ele><time>2026-04-25T12:55:10.16Z</time></trkpt><trkpt lat="41.0528167" lon="14.611545"><ele>271.0</ele><time>2026-04-25T12:55:11.159Z</time></trkpt><trkpt lat="41.0527983" lon="14.6114633"><ele>271.0</ele><time>2026-04-25T12:55:12.159Z</time></trkpt><trkpt lat="41.0527783" lon="14.6113833"><ele>271.0</ele><time>2026-04-25T12:55:13.162Z</time></trkpt><trkpt lat="41.0527383" lon="14.6112267"><ele>271.0</ele><time>2026-04-25T12:55:15.16Z</time></trkpt><trkpt lat="41.0527217" lon="14.611145"><ele>271.0</ele><time>2026-04-25T12:55:16.161Z</time></trkpt><trkpt lat="41.0527" lon="14.611065"><ele>271.0</ele><time>2026-04-25T12:55:17.161Z</time></trkpt><trkpt lat="41.05268" lon="14.6109833"><ele>270.7142857142857</ele><time>2026-04-25T12:55:18.158Z</time></trkpt><trkpt lat="41.05266" lon="14.6109033"><ele>270.42857142857144</ele><time>2026-04-25T12:55:19.162Z</time></trkpt><trkpt lat="41.0526417" lon="14.6108233"><ele>270.14285714285717</ele><time>2026-04-25T12:55:20.162Z</time></trkpt><trkpt lat="41.0526033" lon="14.6106667"><ele>269.8571428571429</ele><time>2026-04-25T12:55:22.161Z</time></trkpt><trkpt lat="41.0525817" lon="14.6105833"><ele>269.5714285714286</ele><time>2026-04-25T12:55:23.162Z</time></trkpt><trkpt lat="41.0525583" lon="14.6105"><ele>269.2857142857143</ele><time>2026-04-25T12:55:24.162Z</time></trkpt><trkpt lat="41.0525383" lon="14.6104183"><ele>269.0</ele><time>2026-04-25T12:55:25.162Z</time></trkpt><trkpt lat="41.0525183" lon="14.6103383"><ele>269.0</ele><time>2026-04-25T12:55:26.16Z</time></trkpt><trkpt lat="41.0524967" lon="14.610255"><ele>269.0</ele><time>2026-04-25T12:55:27.162Z</time></trkpt><trkpt lat="41.0524767" lon="14.610175"><ele>269.0</ele><time>2026-04-25T12:55:28.162Z</time></trkpt><trkpt lat="41.0524567" lon="14.6100933"><ele>269.0</ele><time>2026-04-25T12:55:29.161Z</time></trkpt><trkpt lat="41.0524183" lon="14.6099367"><ele>269.0</ele><time>2026-04-25T12:55:31.157Z</time></trkpt><trkpt lat="41.0523967" lon="14.609855"><ele>269.0</ele><time>2026-04-25T12:55:32.16Z</time></trkpt><trkpt lat="41.0523567" lon="14.6096967"><ele>269.0</ele><time>2026-04-25T12:55:34.161Z</time></trkpt><trkpt lat="41.0523333" lon="14.6096183"><ele>269.0</ele><time>2026-04-25T12:55:35.159Z</time></trkpt><trkpt lat="41.0522883" lon="14.6094617"><ele>269.0</ele><time>2026-04-25T12:55:37.158Z</time></trkpt><trkpt lat="41.052265" lon="14.60938"><ele>269.0</ele><time>2026-04-25T12:55:38.163Z</time></trkpt><trkpt lat="41.0522417" lon="14.6092983"><ele>269.0</ele><time>2026-04-25T12:55:39.16Z</time></trkpt><trkpt lat="41.05222" lon="14.6092167"><ele>269.0</ele><time>2026-04-25T12:55:40.162Z</time></trkpt><trkpt lat="41.0522" lon="14.609135"><ele>268.8</ele><time>2026-04-25T12:55:41.162Z</time></trkpt><trkpt lat="41.0521817" lon="14.6090533"><ele>268.59999999999997</ele><time>2026-04-25T12:55:42.161Z</time></trkpt><trkpt lat="41.052145" lon="14.6088933"><ele>268.4</ele><time>2026-04-25T12:55:44.162Z</time></trkpt><trkpt lat="41.05213" lon="14.6088083"><ele>268.2</ele><time>2026-04-25T12:55:45.161Z</time></trkpt><trkpt lat="41.05209" lon="14.6086517"><ele>268.0</ele><time>2026-04-25T12:55:47.161Z</time></trkpt><trkpt lat="41.05205" lon="14.6085"><ele>267.8</ele><time>2026-04-25T12:55:49.158Z</time></trkpt><trkpt lat="41.05201" lon="14.6083417"><ele>267.6</ele><time>2026-04-25T12:55:51.158Z</time></trkpt><trkpt lat="41.0519683" lon="14.6081917"><ele>267.4</ele><time>2026-04-25T12:55:53.159Z</time></trkpt><trkpt lat="41.051945" lon="14.6081133"><ele>267.2</ele><time>2026-04-25T12:55:54.158Z</time></trkpt><trkpt lat="41.0519233" lon="14.6080317"><ele>267.0</ele><time>2026-04-25T12:55:55.162Z</time></trkpt><trkpt lat="41.0518817" lon="14.6078767"><ele>267.2</ele><time>2026-04-25T12:55:57.161Z</time></trkpt><trkpt lat="41.0518583" lon="14.6077967"><ele>267.4</ele><time>2026-04-25T12:55:58.162Z</time></trkpt><trkpt lat="41.0518133" lon="14.607645"><ele>267.6</ele><time>2026-04-25T12:56:00.162Z</time></trkpt><trkpt lat="41.0517717" lon="14.6074917"><ele>267.8</ele><time>2026-04-25T12:56:02.162Z</time></trkpt><trkpt lat="41.0517517" lon="14.60741"><ele>268.0</ele><time>2026-04-25T12:56:03.161Z</time></trkpt><trkpt lat="41.0517217" lon="14.6072567"><ele>268.0</ele><time>2026-04-25T12:56:05.161Z</time></trkpt><trkpt lat="41.0517033" lon="14.6071767"><ele>268.0</ele><time>2026-04-25T12:56:06.162Z</time></trkpt><trkpt lat="41.051685" lon="14.607095"><ele>268.0</ele><time>2026-04-25T12:56:07.16Z</time></trkpt><trkpt lat="41.0516517" lon="14.6069433"><ele>268.0</ele><time>2026-04-25T12:56:09.161Z</time></trkpt><trkpt lat="41.0516133" lon="14.60679"><ele>268.0</ele><time>2026-04-25T12:56:11.161Z</time></trkpt><trkpt lat="41.051575" lon="14.6066367"><ele>267.5</ele><time>2026-04-25T12:56:13.161Z</time></trkpt><trkpt lat="41.051535" lon="14.6064883"><ele>267.0</ele><time>2026-04-25T12:56:15.161Z</time></trkpt><trkpt lat="41.0514983" lon="14.606345"><ele>266.5</ele><time>2026-04-25T12:56:17.161Z</time></trkpt><trkpt lat="41.0514633" lon="14.6062067"><ele>266.0</ele><time>2026-04-25T12:56:19.162Z</time></trkpt><trkpt lat="41.05143" lon="14.6060683"><ele>266.0</ele><time>2026-04-25T12:56:21.162Z</time></trkpt><trkpt lat="41.051395" lon="14.6059317"><ele>266.0</ele><time>2026-04-25T12:56:23.162Z</time></trkpt><trkpt lat="41.0513567" lon="14.605785"><ele>266.0</ele><time>2026-04-25T12:56:25.163Z</time></trkpt><trkpt lat="41.0513233" lon="14.605635"><ele>266.0</ele><time>2026-04-25T12:56:27.161Z</time></trkpt><trkpt lat="41.0512883" lon="14.6054917"><ele>266.0</ele><time>2026-04-25T12:56:29.161Z</time></trkpt><trkpt lat="41.0512567" lon="14.6053433"><ele>266.0</ele><time>2026-04-25T12:56:31.161Z</time></trkpt><trkpt lat="41.0512167" lon="14.6051983"><ele>266.0</ele><time>2026-04-25T12:56:33.161Z</time></trkpt><trkpt lat="41.051175" lon="14.6050467"><ele>266.0</ele><time>2026-04-25T12:56:35.161Z</time></trkpt><trkpt lat="41.0511383" lon="14.604895"><ele>266.2</ele><time>2026-04-25T12:56:37.161Z</time></trkpt><trkpt lat="41.05112" lon="14.6048133"><ele>266.40000000000003</ele><time>2026-04-25T12:56:38.161Z</time></trkpt><trkpt lat="41.0510833" lon="14.6046617"><ele>266.6</ele><time>2026-04-25T12:56:40.162Z</time></trkpt><trkpt lat="41.05104" lon="14.60451"><ele>266.8</ele><time>2026-04-25T12:56:42.163Z</time></trkpt><trkpt lat="41.0510217" lon="14.60443"><ele>267.0</ele><time>2026-04-25T12:56:43.161Z</time></trkpt><trkpt lat="41.0509783" lon="14.6042767"><ele>267.0</ele><time>2026-04-25T12:56:45.162Z</time></trkpt><trkpt lat="41.0509433" lon="14.6041217"><ele>267.0</ele><time>2026-04-25T12:56:47.161Z</time></trkpt><trkpt lat="41.0509" lon="14.6039683"><ele>267.0</ele><time>2026-04-25T12:56:49.161Z</time></trkpt><trkpt lat="41.050865" lon="14.6038133"><ele>267.0</ele><time>2026-04-25T12:56:51.163Z</time></trkpt><trkpt lat="41.0508283" lon="14.6036633"><ele>266.4</ele><time>2026-04-25T12:56:53.161Z</time></trkpt><trkpt lat="41.0507883" lon="14.6035117"><ele>265.79999999999995</ele><time>2026-04-25T12:56:55.158Z</time></trkpt><trkpt lat="41.0507483" lon="14.6033567"><ele>265.2</ele><time>2026-04-25T12:56:57.161Z</time></trkpt><trkpt lat="41.0507283" lon="14.603275"><ele>264.59999999999997</ele><time>2026-04-25T12:56:58.16Z</time></trkpt><trkpt lat="41.050695" lon="14.6031217"><ele>264.0</ele><time>2026-04-25T12:57:00.161Z</time></trkpt><trkpt lat="41.0506583" lon="14.602975"><ele>264.5</ele><time>2026-04-25T12:57:02.161Z</time></trkpt><trkpt lat="41.0506183" lon="14.6028233"><ele>265.0</ele><time>2026-04-25T12:57:04.16Z</time></trkpt><trkpt lat="41.05058" lon="14.6026717"><ele>265.5</ele><time>2026-04-25T12:57:06.159Z</time></trkpt><trkpt lat="41.05054" lon="14.602525"><ele>266.0</ele><time>2026-04-25T12:57:08.159Z</time></trkpt><trkpt lat="41.050505" lon="14.602375"><ele>266.0</ele><time>2026-04-25T12:57:10.159Z</time></trkpt><trkpt lat="41.050465" lon="14.6022233"><ele>266.0</ele><time>2026-04-25T12:57:12.161Z</time></trkpt><trkpt lat="41.0504267" lon="14.6020667"><ele>266.0</ele><time>2026-04-25T12:57:14.161Z</time></trkpt><trkpt lat="41.0503883" lon="14.6019133"><ele>266.0</ele><time>2026-04-25T12:57:16.158Z</time></trkpt><trkpt lat="41.0503533" lon="14.6017633"><ele>266.0</ele><time>2026-04-25T12:57:18.163Z</time></trkpt><trkpt lat="41.0503133" lon="14.6016133"><ele>266.0</ele><time>2026-04-25T12:57:20.162Z</time></trkpt><trkpt lat="41.0502767" lon="14.6014683"><ele>266.0</ele><time>2026-04-25T12:57:22.161Z</time></trkpt><trkpt lat="41.0502417" lon="14.6013283"><ele>266.0</ele><time>2026-04-25T12:57:24.161Z</time></trkpt><trkpt lat="41.05021" lon="14.60119"><ele>265.8</ele><time>2026-04-25T12:57:26.161Z</time></trkpt><trkpt lat="41.050175" lon="14.6010467"><ele>265.6</ele><time>2026-04-25T12:57:28.16Z</time></trkpt><trkpt lat="41.0501433" lon="14.600905"><ele>265.4</ele><time>2026-04-25T12:57:30.162Z</time></trkpt><trkpt lat="41.05011" lon="14.60077"><ele>265.2</ele><time>2026-04-25T12:57:32.163Z</time></trkpt><trkpt lat="41.050075" lon="14.600635"><ele>265.0</ele><time>2026-04-25T12:57:34.16Z</time></trkpt><trkpt lat="41.0500417" lon="14.6004933"><ele>265.0</ele><time>2026-04-25T12:57:36.16Z</time></trkpt><trkpt lat="41.050005" lon="14.6003533"><ele>265.0</ele><time>2026-04-25T12:57:38.159Z</time></trkpt><trkpt lat="41.0499717" lon="14.6002133"><ele>265.0</ele><time>2026-04-25T12:57:40.161Z</time></trkpt><trkpt lat="41.0499367" lon="14.6000767"><ele>265.0</ele><time>2026-04-25T12:57:42.162Z</time></trkpt><trkpt lat="41.0499" lon="14.59995"><ele>265.0</ele><time>2026-04-25T12:57:44.161Z</time></trkpt><trkpt lat="41.0498683" lon="14.599815"><ele>264.8</ele><time>2026-04-25T12:57:46.16Z</time></trkpt><trkpt lat="41.049835" lon="14.599685"><ele>264.6</ele><time>2026-04-25T12:57:48.159Z</time></trkpt><trkpt lat="41.0498" lon="14.5995583"><ele>264.4</ele><time>2026-04-25T12:57:50.161Z</time></trkpt><trkpt lat="41.0497667" lon="14.599425"><ele>264.2</ele><time>2026-04-25T12:57:52.158Z</time></trkpt><trkpt lat="41.0497333" lon="14.5992883"><ele>264.0</ele><time>2026-04-25T12:57:54.161Z</time></trkpt><trkpt lat="41.0497017" lon="14.5991467"><ele>264.0</ele><time>2026-04-25T12:57:56.161Z</time></trkpt><trkpt lat="41.04967" lon="14.5990067"><ele>264.0</ele><time>2026-04-25T12:57:58.161Z</time></trkpt><trkpt lat="41.0496283" lon="14.5988617"><ele>264.0</ele><time>2026-04-25T12:58:00.162Z</time></trkpt><trkpt lat="41.0495983" lon="14.5987233"><ele>264.0</ele><time>2026-04-25T12:58:02.163Z</time></trkpt><trkpt lat="41.0495633" lon="14.5985867"><ele>264.0</ele><time>2026-04-25T12:58:04.163Z</time></trkpt><trkpt lat="41.0495283" lon="14.5984483"><ele>264.0</ele><time>2026-04-25T12:58:06.161Z</time></trkpt><trkpt lat="41.0494967" lon="14.598315"><ele>264.0</ele><time>2026-04-25T12:58:08.162Z</time></trkpt><trkpt lat="41.049465" lon="14.5981817"><ele>264.0</ele><time>2026-04-25T12:58:10.159Z</time></trkpt><trkpt lat="41.0494333" lon="14.5980483"><ele>264.0</ele><time>2026-04-25T12:58:12.158Z</time></trkpt><trkpt lat="41.0494017" lon="14.5979217"><ele>264.0</ele><time>2026-04-25T12:58:14.161Z</time></trkpt><trkpt lat="41.0493717" lon="14.5977933"><ele>264.2</ele><time>2026-04-25T12:58:16.161Z</time></trkpt><trkpt lat="41.0493383" lon="14.5976617"><ele>264.4</ele><time>2026-04-25T12:58:18.159Z</time></trkpt><trkpt lat="41.0493083" lon="14.5975217"><ele>264.6</ele><time>2026-04-25T12:58:20.158Z</time></trkpt><trkpt lat="41.04928" lon="14.5973883"><ele>264.8</ele><time>2026-04-25T12:58:22.159Z</time></trkpt><trkpt lat="41.04925" lon="14.5972767"><ele>265.0</ele><time>2026-04-25T12:58:24.163Z</time></trkpt><trkpt lat="41.0492167" lon="14.59715"><ele>265.0</ele><time>2026-04-25T12:58:26.162Z</time></trkpt><trkpt lat="41.049185" lon="14.597015"><ele>265.0</ele><time>2026-04-25T12:58:28.161Z</time></trkpt><trkpt lat="41.0491483" lon="14.5968833"><ele>265.0</ele><time>2026-04-25T12:58:30.16Z</time></trkpt><trkpt lat="41.04912" lon="14.59675"><ele>265.0</ele><time>2026-04-25T12:58:32.162Z</time></trkpt><trkpt lat="41.0490867" lon="14.5966217"><ele>265.0</ele><time>2026-04-25T12:58:34.161Z</time></trkpt><trkpt lat="41.0490567" lon="14.5964933"><ele>264.8</ele><time>2026-04-25T12:58:36.162Z</time></trkpt><trkpt lat="41.0490233" lon="14.5963583"><ele>264.6</ele><time>2026-04-25T12:58:38.162Z</time></trkpt><trkpt lat="41.0489867" lon="14.59622"><ele>264.4</ele><time>2026-04-25T12:58:40.16Z</time></trkpt><trkpt lat="41.0489483" lon="14.596085"><ele>264.2</ele><time>2026-04-25T12:58:42.161Z</time></trkpt><trkpt lat="41.048915" lon="14.5959517"><ele>264.0</ele><time>2026-04-25T12:58:44.162Z</time></trkpt><trkpt lat="41.0488767" lon="14.5958183"><ele>263.8</ele><time>2026-04-25T12:58:46.16Z</time></trkpt><trkpt lat="41.0488383" lon="14.5956817"><ele>263.59999999999997</ele><time>2026-04-25T12:58:48.162Z</time></trkpt><trkpt lat="41.0487983" lon="14.5955517"><ele>263.4</ele><time>2026-04-25T12:58:50.161Z</time></trkpt><trkpt lat="41.048755" lon="14.5954183"><ele>263.2</ele><time>2026-04-25T12:58:52.161Z</time></trkpt><trkpt lat="41.0487183" lon="14.5952767"><ele>263.0</ele><time>2026-04-25T12:58:54.162Z</time></trkpt><trkpt lat="41.0486883" lon="14.5951383"><ele>263.0</ele><time>2026-04-25T12:58:56.163Z</time></trkpt><trkpt lat="41.04865" lon="14.595"><ele>263.0</ele><time>2026-04-25T12:58:58.162Z</time></trkpt><trkpt lat="41.0486133" lon="14.5948583"><ele>263.0</ele><time>2026-04-25T12:59:00.161Z</time></trkpt><trkpt lat="41.048575" lon="14.5947133"><ele>263.0</ele><time>2026-04-25T12:59:02.162Z</time></trkpt><trkpt lat="41.0485383" lon="14.5945767"><ele>263.0</ele><time>2026-04-25T12:59:04.162Z</time></trkpt><trkpt lat="41.0485067" lon="14.594435"><ele>263.0</ele><time>2026-04-25T12:59:06.161Z</time></trkpt><trkpt lat="41.0484733" lon="14.594295"><ele>263.0</ele><time>2026-04-25T12:59:08.164Z</time></trkpt><trkpt lat="41.048435" lon="14.5941517"><ele>263.0</ele><time>2026-04-25T12:59:10.159Z</time></trkpt><trkpt lat="41.0483983" lon="14.5940033"><ele>263.0</ele><time>2026-04-25T12:59:12.161Z</time></trkpt><trkpt lat="41.04836" lon="14.5938583"><ele>263.0</ele><time>2026-04-25T12:59:14.162Z</time></trkpt><trkpt lat="41.0483233" lon="14.5937167"><ele>263.0</ele><time>2026-04-25T12:59:16.161Z</time></trkpt><trkpt lat="41.0482883" lon="14.5935717"><ele>263.0</ele><time>2026-04-25T12:59:18.161Z</time></trkpt><trkpt lat="41.04825" lon="14.5934333"><ele>263.0</ele><time>2026-04-25T12:59:20.159Z</time></trkpt><trkpt lat="41.0482183" lon="14.5932867"><ele>263.0</ele><time>2026-04-25T12:59:22.158Z</time></trkpt><trkpt lat="41.0481833" lon="14.59314"><ele>263.0</ele><time>2026-04-25T12:59:24.163Z</time></trkpt><trkpt lat="41.048145" lon="14.5929933"><ele>263.0</ele><time>2026-04-25T12:59:26.163Z</time></trkpt><trkpt lat="41.048105" lon="14.5928433"><ele>263.0</ele><time>2026-04-25T12:59:28.159Z</time></trkpt><trkpt lat="41.0480633" lon="14.592685"><ele>262.6666666666667</ele><time>2026-04-25T12:59:30.158Z</time></trkpt><trkpt lat="41.0480233" lon="14.59253"><ele>262.33333333333337</ele><time>2026-04-25T12:59:32.163Z</time></trkpt><trkpt lat="41.047985" lon="14.5923717"><ele>262.0</ele><time>2026-04-25T12:59:34.163Z</time></trkpt><trkpt lat="41.0479633" lon="14.5922917"><ele>261.6666666666667</ele><time>2026-04-25T12:59:35.162Z</time></trkpt><trkpt lat="41.0479417" lon="14.59221"><ele>261.3333333333333</ele><time>2026-04-25T12:59:36.162Z</time></trkpt><trkpt lat="41.04792" lon="14.59213"><ele>261.0</ele><time>2026-04-25T12:59:37.162Z</time></trkpt><trkpt lat="41.0479017" lon="14.5920483"><ele>261.0</ele><time>2026-04-25T12:59:38.161Z</time></trkpt><trkpt lat="41.04787" lon="14.591895"><ele>261.0</ele><time>2026-04-25T12:59:40.163Z</time></trkpt><trkpt lat="41.0478283" lon="14.5917383"><ele>261.0</ele><time>2026-04-25T12:59:42.161Z</time></trkpt><trkpt lat="41.04779" lon="14.5915783"><ele>261.0</ele><time>2026-04-25T12:59:44.162Z</time></trkpt><trkpt lat="41.0477533" lon="14.591425"><ele>261.0</ele><time>2026-04-25T12:59:46.16Z</time></trkpt><trkpt lat="41.0477167" lon="14.5912817"><ele>261.0</ele><time>2026-04-25T12:59:48.158Z</time></trkpt><trkpt lat="41.0476767" lon="14.59113"><ele>261.0</ele><time>2026-04-25T12:59:50.163Z</time></trkpt><trkpt lat="41.047635" lon="14.59098"><ele>261.0</ele><time>2026-04-25T12:59:52.162Z</time></trkpt><trkpt lat="41.0476" lon="14.590825"><ele>261.0</ele><time>2026-04-25T12:59:54.161Z</time></trkpt><trkpt lat="41.047565" lon="14.5906833"><ele>261.0</ele><time>2026-04-25T12:59:56.161Z</time></trkpt><trkpt lat="41.0475267" lon="14.5905367"><ele>261.0</ele><time>2026-04-25T12:59:58.159Z</time></trkpt><trkpt lat="41.04749" lon="14.590395"><ele>261.0</ele><time>2026-04-25T13:00:00.159Z</time></trkpt><trkpt lat="41.0474533" lon="14.5902583"><ele>261.0</ele><time>2026-04-25T13:00:02.159Z</time></trkpt><trkpt lat="41.0474167" lon="14.5901217"><ele>261.0</ele><time>2026-04-25T13:00:04.158Z</time></trkpt><trkpt lat="41.04738" lon="14.5899883"><ele>261.0</ele><time>2026-04-25T13:00:06.158Z</time></trkpt><trkpt lat="41.0473433" lon="14.58985"><ele>261.0</ele><time>2026-04-25T13:00:08.159Z</time></trkpt><trkpt lat="41.0473133" lon="14.5897067"><ele>261.0</ele><time>2026-04-25T13:00:10.159Z</time></trkpt><trkpt lat="41.0472783" lon="14.5895583"><ele>261.0</ele><time>2026-04-25T13:00:12.159Z</time></trkpt><trkpt lat="41.047245" lon="14.5894167"><ele>261.0</ele><time>2026-04-25T13:00:14.162Z</time></trkpt><trkpt lat="41.0472117" lon="14.589275"><ele>261.0</ele><time>2026-04-25T13:00:16.16Z</time></trkpt><trkpt lat="41.0471733" lon="14.58914"><ele>261.0</ele><time>2026-04-25T13:00:18.16Z</time></trkpt><trkpt lat="41.0471367" lon="14.589005"><ele>261.0</ele><time>2026-04-25T13:00:20.163Z</time></trkpt><trkpt lat="41.0471017" lon="14.588865"><ele>261.0</ele><time>2026-04-25T13:00:22.162Z</time></trkpt><trkpt lat="41.047065" lon="14.5887367"><ele>261.0</ele><time>2026-04-25T13:00:24.161Z</time></trkpt><trkpt lat="41.04703" lon="14.5886033"><ele>261.0</ele><time>2026-04-25T13:00:26.161Z</time></trkpt><trkpt lat="41.0469933" lon="14.5884683"><ele>261.0</ele><time>2026-04-25T13:00:28.158Z</time></trkpt><trkpt lat="41.04696" lon="14.5883317"><ele>261.0</ele><time>2026-04-25T13:00:30.16Z</time></trkpt><trkpt lat="41.046925" lon="14.5881983"><ele>261.2</ele><time>2026-04-25T13:00:32.16Z</time></trkpt><trkpt lat="41.046895" lon="14.5880617"><ele>261.40000000000003</ele><time>2026-04-25T13:00:34.158Z</time></trkpt><trkpt lat="41.0468617" lon="14.5879183"><ele>261.6</ele><time>2026-04-25T13:00:36.16Z</time></trkpt><trkpt lat="41.04683" lon="14.5877783"><ele>261.8</ele><time>2026-04-25T13:00:38.163Z</time></trkpt><trkpt lat="41.046795" lon="14.5876367"><ele>262.0</ele><time>2026-04-25T13:00:40.159Z</time></trkpt><trkpt lat="41.0467617" lon="14.5874967"><ele>262.0</ele><time>2026-04-25T13:00:42.162Z</time></trkpt><trkpt lat="41.046725" lon="14.5873567"><ele>262.0</ele><time>2026-04-25T13:00:44.163Z</time></trkpt><trkpt lat="41.04669" lon="14.5872117"><ele>262.0</ele><time>2026-04-25T13:00:46.161Z</time></trkpt><trkpt lat="41.0466583" lon="14.5870583"><ele>262.0</ele><time>2026-04-25T13:00:48.16Z</time></trkpt><trkpt lat="41.0466283" lon="14.5869133"><ele>261.25</ele><time>2026-04-25T13:00:50.162Z</time></trkpt><trkpt lat="41.0465917" lon="14.5867617"><ele>260.5</ele><time>2026-04-25T13:00:52.159Z</time></trkpt><trkpt lat="41.0465567" lon="14.5866183"><ele>259.75</ele><time>2026-04-25T13:00:54.162Z</time></trkpt><trkpt lat="41.046525" lon="14.5864767"><ele>259.0</ele><time>2026-04-25T13:00:56.16Z</time></trkpt><trkpt lat="41.0464867" lon="14.5863333"><ele>259.0</ele><time>2026-04-25T13:00:58.161Z</time></trkpt><trkpt lat="41.0464483" lon="14.58619"><ele>259.0</ele><time>2026-04-25T13:01:00.161Z</time></trkpt><trkpt lat="41.0464117" lon="14.5860467"><ele>259.0</ele><time>2026-04-25T13:01:02.163Z</time></trkpt><trkpt lat="41.0463733" lon="14.5859017"><ele>259.0</ele><time>2026-04-25T13:01:04.162Z</time></trkpt><trkpt lat="41.0463317" lon="14.5857533"><ele>258.75</ele><time>2026-04-25T13:01:06.162Z</time></trkpt><trkpt lat="41.04629" lon="14.5856"><ele>258.5</ele><time>2026-04-25T13:01:08.162Z</time></trkpt><trkpt lat="41.046255" lon="14.58545"><ele>258.25</ele><time>2026-04-25T13:01:10.163Z</time></trkpt><trkpt lat="41.0462133" lon="14.5853117"><ele>258.0</ele><time>2026-04-25T13:01:12.163Z</time></trkpt><trkpt lat="41.0461733" lon="14.5851733"><ele>258.0</ele><time>2026-04-25T13:01:14.161Z</time></trkpt><trkpt lat="41.0461367" lon="14.585035"><ele>258.0</ele><time>2026-04-25T13:01:16.162Z</time></trkpt><trkpt lat="41.0460983" lon="14.5848917"><ele>258.0</ele><time>2026-04-25T13:01:18.162Z</time></trkpt><trkpt lat="41.0460683" lon="14.5847367"><ele>258.0</ele><time>2026-04-25T13:01:20.161Z</time></trkpt><trkpt lat="41.0460383" lon="14.5845767"><ele>257.85714285714283</ele><time>2026-04-25T13:01:22.163Z</time></trkpt><trkpt lat="41.0460167" lon="14.5844933"><ele>257.7142857142857</ele><time>2026-04-25T13:01:23.163Z</time></trkpt><trkpt lat="41.0459983" lon="14.58441"><ele>257.57142857142856</ele><time>2026-04-25T13:01:24.16Z</time></trkpt><trkpt lat="41.0459817" lon="14.5843233"><ele>257.42857142857144</ele><time>2026-04-25T13:01:25.161Z</time></trkpt><trkpt lat="41.0459683" lon="14.5842367"><ele>257.2857142857143</ele><time>2026-04-25T13:01:26.162Z</time></trkpt><trkpt lat="41.0459567" lon="14.5841483"><ele>257.1428571428571</ele><time>2026-04-25T13:01:27.162Z</time></trkpt><trkpt lat="41.0459483" lon="14.5840617"><ele>257.0</ele><time>2026-04-25T13:01:28.162Z</time></trkpt><trkpt lat="41.0459433" lon="14.5839733"><ele>257.0</ele><time>2026-04-25T13:01:29.162Z</time></trkpt><trkpt lat="41.045945" lon="14.5838817"><ele>257.0</ele><time>2026-04-25T13:01:30.161Z</time></trkpt><trkpt lat="41.0459533" lon="14.58379"><ele>257.0</ele><time>2026-04-25T13:01:31.161Z</time></trkpt><trkpt lat="41.04597" lon="14.5836983"><ele>257.0</ele><time>2026-04-25T13:01:32.162Z</time></trkpt><trkpt lat="41.0459933" lon="14.58361"><ele>257.0</ele><time>2026-04-25T13:01:33.163Z</time></trkpt><trkpt lat="41.0460233" lon="14.5835217"><ele>257.0</ele><time>2026-04-25T13:01:34.161Z</time></trkpt><trkpt lat="41.0460583" lon="14.58344"><ele>257.0</ele><time>2026-04-25T13:01:35.162Z</time></trkpt><trkpt lat="41.0461033" lon="14.5833633"><ele>256.7142857142857</ele><time>2026-04-25T13:01:36.161Z</time></trkpt><trkpt lat="41.046155" lon="14.5832933"><ele>256.42857142857144</ele><time>2026-04-25T13:01:37.162Z</time></trkpt><trkpt lat="41.0462117" lon="14.58323"><ele>256.14285714285717</ele><time>2026-04-25T13:01:38.163Z</time></trkpt><trkpt lat="41.04627" lon="14.5831683"><ele>255.85714285714286</ele><time>2026-04-25T13:01:39.161Z</time></trkpt><trkpt lat="41.0463233" lon="14.5830983"><ele>255.5714285714286</ele><time>2026-04-25T13:01:40.163Z</time></trkpt><trkpt lat="41.0463683" lon="14.583025"><ele>255.2857142857143</ele><time>2026-04-25T13:01:41.16Z</time></trkpt><trkpt lat="41.0464117" lon="14.5829433"><ele>255.0</ele><time>2026-04-25T13:01:42.162Z</time></trkpt><trkpt lat="41.046445" lon="14.582855"><ele>255.14285714285717</ele><time>2026-04-25T13:01:43.162Z</time></trkpt><trkpt lat="41.0464667" lon="14.5827667"><ele>255.2857142857143</ele><time>2026-04-25T13:01:44.162Z</time></trkpt><trkpt lat="41.0464833" lon="14.582675"><ele>255.42857142857144</ele><time>2026-04-25T13:01:45.162Z</time></trkpt><trkpt lat="41.0465" lon="14.58258"><ele>255.57142857142856</ele><time>2026-04-25T13:01:46.162Z</time></trkpt><trkpt lat="41.0465067" lon="14.58248"><ele>255.7142857142857</ele><time>2026-04-25T13:01:47.163Z</time></trkpt><trkpt lat="41.0465017" lon="14.5823783"><ele>255.85714285714283</ele><time>2026-04-25T13:01:48.16Z</time></trkpt><trkpt lat="41.0464833" lon="14.5822817"><ele>256.0</ele><time>2026-04-25T13:01:49.163Z</time></trkpt><trkpt lat="41.0464583" lon="14.5821883"><ele>255.99999999999997</ele><time>2026-04-25T13:01:50.162Z</time></trkpt><trkpt lat="41.0464233" lon="14.5821017"><ele>256.0</ele><time>2026-04-25T13:01:51.162Z</time></trkpt><trkpt lat="41.0463817" lon="14.5820183"><ele>256.0</ele><time>2026-04-25T13:01:52.161Z</time></trkpt><trkpt lat="41.0463267" lon="14.5819483"><ele>256.0</ele><time>2026-04-25T13:01:53.163Z</time></trkpt><trkpt lat="41.0462633" lon="14.58189"><ele>255.99999999999997</ele><time>2026-04-25T13:01:54.161Z</time></trkpt><trkpt lat="41.0461967" lon="14.5818433"><ele>256.0</ele><time>2026-04-25T13:01:55.16Z</time></trkpt><trkpt lat="41.0461267" lon="14.5818083"><ele>255.85714285714283</ele><time>2026-04-25T13:01:56.162Z</time></trkpt><trkpt lat="41.0460533" lon="14.5817817"><ele>255.7142857142857</ele><time>2026-04-25T13:01:57.162Z</time></trkpt><trkpt lat="41.0459817" lon="14.581765"><ele>255.57142857142856</ele><time>2026-04-25T13:01:58.161Z</time></trkpt><trkpt lat="41.0459117" lon="14.58176"><ele>255.42857142857144</ele><time>2026-04-25T13:01:59.163Z</time></trkpt><trkpt lat="41.0458433" lon="14.5817683"><ele>255.2857142857143</ele><time>2026-04-25T13:02:00.161Z</time></trkpt><trkpt lat="41.0457767" lon="14.5817817"><ele>255.14285714285717</ele><time>2026-04-25T13:02:01.162Z</time></trkpt><trkpt lat="41.0457117" lon="14.581805"><ele>255.0</ele><time>2026-04-25T13:02:02.162Z</time></trkpt><trkpt lat="41.045645" lon="14.5818317"><ele>254.66666666666666</ele><time>2026-04-25T13:02:03.163Z</time></trkpt><trkpt lat="41.045575" lon="14.5818533"><ele>254.33333333333331</ele><time>2026-04-25T13:02:04.163Z</time></trkpt><trkpt lat="41.0455083" lon="14.5818683"><ele>254.0</ele><time>2026-04-25T13:02:05.161Z</time></trkpt><trkpt lat="41.0454417" lon="14.5818683"><ele>253.66666666666666</ele><time>2026-04-25T13:02:06.161Z</time></trkpt><trkpt lat="41.0453783" lon="14.58185"><ele>253.33333333333331</ele><time>2026-04-25T13:02:07.16Z</time></trkpt><trkpt lat="41.045275" lon="14.5817583"><ele>253.0</ele><time>2026-04-25T13:02:09.162Z</time></trkpt><trkpt lat="41.0452133" lon="14.58162"><ele>253.0</ele><time>2026-04-25T13:02:11.161Z</time></trkpt><trkpt lat="41.0451717" lon="14.5814683"><ele>253.0</ele><time>2026-04-25T13:02:13.162Z</time></trkpt><trkpt lat="41.0451333" lon="14.5813233"><ele>253.0</ele><time>2026-04-25T13:02:15.162Z</time></trkpt><trkpt lat="41.045095" lon="14.5811817"><ele>253.0</ele><time>2026-04-25T13:02:17.162Z</time></trkpt><trkpt lat="41.0450633" lon="14.5810483"><ele>253.0</ele><time>2026-04-25T13:02:19.162Z</time></trkpt><trkpt lat="41.0450367" lon="14.5809117"><ele>253.0</ele><time>2026-04-25T13:02:21.162Z</time></trkpt><trkpt lat="41.0450067" lon="14.5807783"><ele>253.0</ele><time>2026-04-25T13:02:23.161Z</time></trkpt><trkpt lat="41.04497" lon="14.5806483"><ele>253.0</ele><time>2026-04-25T13:02:25.163Z</time></trkpt><trkpt lat="41.044935" lon="14.58052"><ele>253.0</ele><time>2026-04-25T13:02:27.161Z</time></trkpt><trkpt lat="41.04489" lon="14.5803883"><ele>253.0</ele><time>2026-04-25T13:02:29.162Z</time></trkpt><trkpt lat="41.044855" lon="14.5802533"><ele>253.0</ele><time>2026-04-25T13:02:31.162Z</time></trkpt><trkpt lat="41.044825" lon="14.58012"><ele>253.0</ele><time>2026-04-25T13:02:33.162Z</time></trkpt><trkpt lat="41.0447917" lon="14.5799883"><ele>253.0</ele><time>2026-04-25T13:02:35.163Z</time></trkpt><trkpt lat="41.044755" lon="14.5798533"><ele>253.0</ele><time>2026-04-25T13:02:37.161Z</time></trkpt><trkpt lat="41.044725" lon="14.579715"><ele>253.0</ele><time>2026-04-25T13:02:39.162Z</time></trkpt><trkpt lat="41.0446917" lon="14.5795783"><ele>253.0</ele><time>2026-04-25T13:02:41.162Z</time></trkpt><trkpt lat="41.0446483" lon="14.5794367"><ele>253.0</ele><time>2026-04-25T13:02:43.162Z</time></trkpt><trkpt lat="41.0446117" lon="14.57929"><ele>253.0</ele><time>2026-04-25T13:02:45.161Z</time></trkpt><trkpt lat="41.0445783" lon="14.5791333"><ele>253.0</ele><time>2026-04-25T13:02:47.161Z</time></trkpt><trkpt lat="41.0445483" lon="14.5789767"><ele>253.0</ele><time>2026-04-25T13:02:49.162Z</time></trkpt><trkpt lat="41.0445167" lon="14.57883"><ele>253.0</ele><time>2026-04-25T13:02:51.163Z</time></trkpt><trkpt lat="41.044475" lon="14.5786917"><ele>253.0</ele><time>2026-04-25T13:02:53.161Z</time></trkpt><trkpt lat="41.0444383" lon="14.5785567"><ele>253.0</ele><time>2026-04-25T13:02:55.161Z</time></trkpt><trkpt lat="41.0444117" lon="14.5784183"><ele>253.0</ele><time>2026-04-25T13:02:57.162Z</time></trkpt><trkpt lat="41.0443833" lon="14.5782767"><ele>253.0</ele><time>2026-04-25T13:02:59.161Z</time></trkpt><trkpt lat="41.04435" lon="14.5781333"><ele>253.0</ele><time>2026-04-25T13:03:01.161Z</time></trkpt><trkpt lat="41.044315" lon="14.5779883"><ele>253.0</ele><time>2026-04-25T13:03:03.161Z</time></trkpt><trkpt lat="41.044285" lon="14.5778417"><ele>253.25</ele><time>2026-04-25T13:03:05.161Z</time></trkpt><trkpt lat="41.0442533" lon="14.5776967"><ele>253.5</ele><time>2026-04-25T13:03:07.16Z</time></trkpt><trkpt lat="41.0442183" lon="14.5775533"><ele>253.75</ele><time>2026-04-25T13:03:09.161Z</time></trkpt><trkpt lat="41.0441817" lon="14.5774067"><ele>254.0</ele><time>2026-04-25T13:03:11.162Z</time></trkpt><trkpt lat="41.044145" lon="14.5772633"><ele>254.00000000000003</ele><time>2026-04-25T13:03:13.162Z</time></trkpt><trkpt lat="41.04411" lon="14.5771133"><ele>254.0</ele><time>2026-04-25T13:03:15.158Z</time></trkpt><trkpt lat="41.044075" lon="14.5769567"><ele>254.0</ele><time>2026-04-25T13:03:17.16Z</time></trkpt><trkpt lat="41.044055" lon="14.5768767"><ele>254.0</ele><time>2026-04-25T13:03:18.16Z</time></trkpt><trkpt lat="41.0440333" lon="14.5767967"><ele>254.00000000000003</ele><time>2026-04-25T13:03:19.161Z</time></trkpt><trkpt lat="41.0440133" lon="14.5767167"><ele>254.0</ele><time>2026-04-25T13:03:20.16Z</time></trkpt><trkpt lat="41.043995" lon="14.5766367"><ele>254.0</ele><time>2026-04-25T13:03:21.161Z</time></trkpt><trkpt lat="41.043975" lon="14.5765567"><ele>253.99999999999997</ele><time>2026-04-25T13:03:22.161Z</time></trkpt><trkpt lat="41.04394" lon="14.5764017"><ele>253.99999999999997</ele><time>2026-04-25T13:03:24.16Z</time></trkpt><trkpt lat="41.0439117" lon="14.5762583"><ele>254.0</ele><time>2026-04-25T13:03:26.159Z</time></trkpt><trkpt lat="41.04388" lon="14.5761183"><ele>254.0</ele><time>2026-04-25T13:03:28.16Z</time></trkpt><trkpt lat="41.0438483" lon="14.57598"><ele>254.0</ele><time>2026-04-25T13:03:30.162Z</time></trkpt><trkpt lat="41.0438183" lon="14.5758533"><ele>253.99999999999997</ele><time>2026-04-25T13:03:32.161Z</time></trkpt><trkpt lat="41.0437883" lon="14.5757217"><ele>253.99999999999997</ele><time>2026-04-25T13:03:34.162Z</time></trkpt><trkpt lat="41.043755" lon="14.5755967"><ele>254.0</ele><time>2026-04-25T13:03:36.161Z</time></trkpt><trkpt lat="41.0437267" lon="14.575465"><ele>254.0</ele><time>2026-04-25T13:03:38.164Z</time></trkpt><trkpt lat="41.0436983" lon="14.575335"><ele>254.6</ele><time>2026-04-25T13:03:40.161Z</time></trkpt><trkpt lat="41.0436717" lon="14.5752117"><ele>255.2</ele><time>2026-04-25T13:03:42.163Z</time></trkpt><trkpt lat="41.0436433" lon="14.5750833"><ele>255.79999999999998</ele><time>2026-04-25T13:03:44.163Z</time></trkpt><trkpt lat="41.043615" lon="14.57496"><ele>256.4</ele><time>2026-04-25T13:03:46.163Z</time></trkpt><trkpt lat="41.04359" lon="14.5748417"><ele>257.0</ele><time>2026-04-25T13:03:48.16Z</time></trkpt><trkpt lat="41.0435633" lon="14.574725"><ele>257.0</ele><time>2026-04-25T13:03:50.161Z</time></trkpt><trkpt lat="41.0435383" lon="14.5746067"><ele>257.0</ele><time>2026-04-25T13:03:52.16Z</time></trkpt><trkpt lat="41.0435133" lon="14.5744933"><ele>257.0</ele><time>2026-04-25T13:03:54.16Z</time></trkpt><trkpt lat="41.0434867" lon="14.57438"><ele>257.0</ele><time>2026-04-25T13:03:56.159Z</time></trkpt><trkpt lat="41.0434617" lon="14.5742667"><ele>257.0</ele><time>2026-04-25T13:03:58.159Z</time></trkpt><trkpt lat="41.0434317" lon="14.57415"><ele>257.1666666666667</ele><time>2026-04-25T13:04:00.16Z</time></trkpt><trkpt lat="41.0434017" lon="14.5740333"><ele>257.33333333333337</ele><time>2026-04-25T13:04:02.161Z</time></trkpt><trkpt lat="41.043375" lon="14.5739183"><ele>257.5</ele><time>2026-04-25T13:04:04.158Z</time></trkpt><trkpt lat="41.0433467" lon="14.5738133"><ele>257.6666666666667</ele><time>2026-04-25T13:04:06.162Z</time></trkpt><trkpt lat="41.04332" lon="14.573705"><ele>257.8333333333333</ele><time>2026-04-25T13:04:08.162Z</time></trkpt><trkpt lat="41.0432933" lon="14.5736"><ele>258.0</ele><time>2026-04-25T13:04:10.163Z</time></trkpt><trkpt lat="41.04327" lon="14.57349"><ele>258.6666666666667</ele><time>2026-04-25T13:04:12.16Z</time></trkpt><trkpt lat="41.043245" lon="14.5733833"><ele>259.3333333333333</ele><time>2026-04-25T13:04:14.163Z</time></trkpt><trkpt lat="41.0432183" lon="14.5732767"><ele>260.0</ele><time>2026-04-25T13:04:16.16Z</time></trkpt><trkpt lat="41.0431933" lon="14.5731683"><ele>260.66666666666663</ele><time>2026-04-25T13:04:18.16Z</time></trkpt><trkpt lat="41.0431667" lon="14.5730667"><ele>261.3333333333333</ele><time>2026-04-25T13:04:20.158Z</time></trkpt><trkpt lat="41.0431433" lon="14.5729633"><ele>262.0</ele><time>2026-04-25T13:04:22.158Z</time></trkpt><trkpt lat="41.04312" lon="14.5728633"><ele>261.8333333333333</ele><time>2026-04-25T13:04:24.159Z</time></trkpt><trkpt lat="41.043095" lon="14.572765"><ele>261.66666666666663</ele><time>2026-04-25T13:04:26.16Z</time></trkpt><trkpt lat="41.0430683" lon="14.5726583"><ele>261.5</ele><time>2026-04-25T13:04:28.161Z</time></trkpt><trkpt lat="41.043045" lon="14.572545"><ele>261.3333333333333</ele><time>2026-04-25T13:04:30.161Z</time></trkpt><trkpt lat="41.0430183" lon="14.5724317"><ele>261.1666666666667</ele><time>2026-04-25T13:04:32.16Z</time></trkpt><trkpt lat="41.0429917" lon="14.5723233"><ele>261.0</ele><time>2026-04-25T13:04:34.159Z</time></trkpt><trkpt lat="41.0429667" lon="14.5722133"><ele>261.0</ele><time>2026-04-25T13:04:36.159Z</time></trkpt><trkpt lat="41.0429433" lon="14.5721"><ele>261.0</ele><time>2026-04-25T13:04:38.16Z</time></trkpt><trkpt lat="41.042915" lon="14.5719883"><ele>261.0</ele><time>2026-04-25T13:04:40.159Z</time></trkpt><trkpt lat="41.0428883" lon="14.5718733"><ele>261.0</ele><time>2026-04-25T13:04:42.158Z</time></trkpt><trkpt lat="41.042865" lon="14.5717667"><ele>261.0</ele><time>2026-04-25T13:04:44.159Z</time></trkpt><trkpt lat="41.0428417" lon="14.57166"><ele>261.0</ele><time>2026-04-25T13:04:46.16Z</time></trkpt><trkpt lat="41.0428183" lon="14.5715517"><ele>261.0</ele><time>2026-04-25T13:04:48.159Z</time></trkpt><trkpt lat="41.042795" lon="14.5714417"><ele>261.0</ele><time>2026-04-25T13:04:50.158Z</time></trkpt><trkpt lat="41.04277" lon="14.57133"><ele>261.0</ele><time>2026-04-25T13:04:52.159Z</time></trkpt><trkpt lat="41.0427433" lon="14.5712167"><ele>261.0</ele><time>2026-04-25T13:04:54.159Z</time></trkpt><trkpt lat="41.0427133" lon="14.5710967"><ele>261.0</ele><time>2026-04-25T13:04:56.158Z</time></trkpt><trkpt lat="41.0426883" lon="14.57097"><ele>261.0</ele><time>2026-04-25T13:04:58.16Z</time></trkpt><trkpt lat="41.0426617" lon="14.5708433"><ele>261.0</ele><time>2026-04-25T13:05:00.161Z</time></trkpt><trkpt lat="41.0426317" lon="14.5707167"><ele>261.0</ele><time>2026-04-25T13:05:02.161Z</time></trkpt><trkpt lat="41.0425983" lon="14.5705917"><ele>261.0</ele><time>2026-04-25T13:05:04.161Z</time></trkpt><trkpt lat="41.0425617" lon="14.5704633"><ele>261.0</ele><time>2026-04-25T13:05:06.16Z</time></trkpt><trkpt lat="41.04253" lon="14.570345"><ele>261.0</ele><time>2026-04-25T13:05:08.162Z</time></trkpt><trkpt lat="41.0425067" lon="14.5702217"><ele>261.0</ele><time>2026-04-25T13:05:10.161Z</time></trkpt><trkpt lat="41.0424783" lon="14.5701"><ele>261.0</ele><time>2026-04-25T13:05:12.162Z</time></trkpt><trkpt lat="41.042455" lon="14.56998"><ele>261.0</ele><time>2026-04-25T13:05:14.162Z</time></trkpt><trkpt lat="41.0424283" lon="14.569855"><ele>261.0</ele><time>2026-04-25T13:05:16.161Z</time></trkpt><trkpt lat="41.0424" lon="14.569725"><ele>261.0</ele><time>2026-04-25T13:05:18.161Z</time></trkpt><trkpt lat="41.042375" lon="14.5696"><ele>261.0</ele><time>2026-04-25T13:05:20.163Z</time></trkpt><trkpt lat="41.042345" lon="14.5694733"><ele>261.0</ele><time>2026-04-25T13:05:22.161Z</time></trkpt><trkpt lat="41.0423167" lon="14.56935"><ele>261.0</ele><time>2026-04-25T13:05:24.162Z</time></trkpt><trkpt lat="41.04229" lon="14.5692317"><ele>261.0</ele><time>2026-04-25T13:05:26.16Z</time></trkpt><trkpt lat="41.0422617" lon="14.5691167"><ele>261.0</ele><time>2026-04-25T13:05:28.161Z</time></trkpt><trkpt lat="41.0422333" lon="14.569"><ele>261.0</ele><time>2026-04-25T13:05:30.161Z</time></trkpt><trkpt lat="41.042205" lon="14.568885"><ele>261.0</ele><time>2026-04-25T13:05:32.16Z</time></trkpt><trkpt lat="41.04218" lon="14.56877"><ele>261.0</ele><time>2026-04-25T13:05:34.159Z</time></trkpt><trkpt lat="41.0421567" lon="14.5686633"><ele>261.0</ele><time>2026-04-25T13:05:36.161Z</time></trkpt><trkpt lat="41.042135" lon="14.5685483"><ele>261.0</ele><time>2026-04-25T13:05:38.161Z</time></trkpt><trkpt lat="41.0421067" lon="14.5684317"><ele>261.0</ele><time>2026-04-25T13:05:40.161Z</time></trkpt><trkpt lat="41.0420833" lon="14.5683133"><ele>261.0</ele><time>2026-04-25T13:05:42.158Z</time></trkpt><trkpt lat="41.0420617" lon="14.56819"><ele>261.0</ele><time>2026-04-25T13:05:44.162Z</time></trkpt><trkpt lat="41.0420333" lon="14.5680717"><ele>261.0</ele><time>2026-04-25T13:05:46.161Z</time></trkpt><trkpt lat="41.042005" lon="14.567945"><ele>261.0</ele><time>2026-04-25T13:05:48.158Z</time></trkpt><trkpt lat="41.0419767" lon="14.5678217"><ele>261.6</ele><time>2026-04-25T13:05:50.166Z</time></trkpt><trkpt lat="41.0419517" lon="14.567685"><ele>262.20000000000005</ele><time>2026-04-25T13:05:52.158Z</time></trkpt><trkpt lat="41.0419233" lon="14.5675567"><ele>262.79999999999995</ele><time>2026-04-25T13:05:54.162Z</time></trkpt><trkpt lat="41.0419" lon="14.5674333"><ele>263.4</ele><time>2026-04-25T13:05:56.162Z</time></trkpt><trkpt lat="41.0418783" lon="14.5673117"><ele>264.0</ele><time>2026-04-25T13:05:58.159Z</time></trkpt><trkpt lat="41.0418533" lon="14.5672017"><ele>264.0</ele><time>2026-04-25T13:06:00.158Z</time></trkpt><trkpt lat="41.041825" lon="14.5670917"><ele>264.0</ele><time>2026-04-25T13:06:02.157Z</time></trkpt><trkpt lat="41.0418" lon="14.5669833"><ele>264.0</ele><time>2026-04-25T13:06:04.156Z</time></trkpt><trkpt lat="41.0417783" lon="14.566875"><ele>264.0</ele><time>2026-04-25T13:06:06.158Z</time></trkpt><trkpt lat="41.0417433" lon="14.566755"><ele>264.0</ele><time>2026-04-25T13:06:08.158Z</time></trkpt><trkpt lat="41.0417117" lon="14.5666317"><ele>264.1666666666667</ele><time>2026-04-25T13:06:10.157Z</time></trkpt><trkpt lat="41.0416867" lon="14.5665117"><ele>264.3333333333333</ele><time>2026-04-25T13:06:12.157Z</time></trkpt><trkpt lat="41.0416617" lon="14.5663967"><ele>264.5</ele><time>2026-04-25T13:06:14.162Z</time></trkpt><trkpt lat="41.0416383" lon="14.5662883"><ele>264.66666666666663</ele><time>2026-04-25T13:06:16.159Z</time></trkpt><trkpt lat="41.04161" lon="14.5661783"><ele>264.8333333333333</ele><time>2026-04-25T13:06:18.158Z</time></trkpt><trkpt lat="41.04158" lon="14.566075"><ele>265.0</ele><time>2026-04-25T13:06:20.161Z</time></trkpt><trkpt lat="41.0415533" lon="14.5659633"><ele>265.16666666666663</ele><time>2026-04-25T13:06:22.156Z</time></trkpt><trkpt lat="41.041535" lon="14.565855"><ele>265.3333333333333</ele><time>2026-04-25T13:06:24.159Z</time></trkpt><trkpt lat="41.04151" lon="14.5657417"><ele>265.5</ele><time>2026-04-25T13:06:26.161Z</time></trkpt><trkpt lat="41.0414833" lon="14.5656317"><ele>265.6666666666667</ele><time>2026-04-25T13:06:28.16Z</time></trkpt><trkpt lat="41.041455" lon="14.5655117"><ele>265.83333333333337</ele><time>2026-04-25T13:06:30.161Z</time></trkpt><trkpt lat="41.0414267" lon="14.5654"><ele>266.0</ele><time>2026-04-25T13:06:32.161Z</time></trkpt><trkpt lat="41.0414033" lon="14.5652817"><ele>266.0</ele><time>2026-04-25T13:06:34.161Z</time></trkpt><trkpt lat="41.04138" lon="14.56516"><ele>266.0</ele><time>2026-04-25T13:06:36.162Z</time></trkpt><trkpt lat="41.0413533" lon="14.5650433"><ele>266.0</ele><time>2026-04-25T13:06:38.161Z</time></trkpt><trkpt lat="41.041325" lon="14.564925"><ele>266.0</ele><time>2026-04-25T13:06:40.159Z</time></trkpt><trkpt lat="41.041295" lon="14.5648083"><ele>266.0</ele><time>2026-04-25T13:06:42.161Z</time></trkpt><trkpt lat="41.04127" lon="14.5646883"><ele>266.0</ele><time>2026-04-25T13:06:44.162Z</time></trkpt><trkpt lat="41.0412467" lon="14.5645667"><ele>266.0</ele><time>2026-04-25T13:06:46.158Z</time></trkpt><trkpt lat="41.0412217" lon="14.5644517"><ele>266.0</ele><time>2026-04-25T13:06:48.16Z</time></trkpt><trkpt lat="41.0411983" lon="14.5643417"><ele>266.0</ele><time>2026-04-25T13:06:50.16Z</time></trkpt><trkpt lat="41.0411767" lon="14.564225"><ele>266.0</ele><time>2026-04-25T13:06:52.16Z</time></trkpt><trkpt lat="41.04115" lon="14.5641133"><ele>266.1666666666667</ele><time>2026-04-25T13:06:54.157Z</time></trkpt><trkpt lat="41.04112" lon="14.5640017"><ele>266.33333333333337</ele><time>2026-04-25T13:06:56.16Z</time></trkpt><trkpt lat="41.0410933" lon="14.5638917"><ele>266.5</ele><time>2026-04-25T13:06:58.16Z</time></trkpt><trkpt lat="41.0410667" lon="14.563775"><ele>266.6666666666667</ele><time>2026-04-25T13:07:00.161Z</time></trkpt><trkpt lat="41.0410417" lon="14.5636683"><ele>266.8333333333333</ele><time>2026-04-25T13:07:02.158Z</time></trkpt><trkpt lat="41.041015" lon="14.563565"><ele>267.0</ele><time>2026-04-25T13:07:04.16Z</time></trkpt><trkpt lat="41.0409917" lon="14.563465"><ele>267.3333333333333</ele><time>2026-04-25T13:07:06.16Z</time></trkpt><trkpt lat="41.04097" lon="14.5633683"><ele>267.6666666666667</ele><time>2026-04-25T13:07:08.16Z</time></trkpt><trkpt lat="41.0409583" lon="14.5632733"><ele>268.0</ele><time>2026-04-25T13:07:10.16Z</time></trkpt><trkpt lat="41.0409417" lon="14.5631717"><ele>268.33333333333337</ele><time>2026-04-25T13:07:12.158Z</time></trkpt><trkpt lat="41.04091" lon="14.56307"><ele>268.6666666666667</ele><time>2026-04-25T13:07:14.158Z</time></trkpt><trkpt lat="41.0408833" lon="14.5629717"><ele>269.0</ele><time>2026-04-25T13:07:16.158Z</time></trkpt><trkpt lat="41.0408617" lon="14.56287"><ele>269.1666666666667</ele><time>2026-04-25T13:07:18.157Z</time></trkpt><trkpt lat="41.0408367" lon="14.56277"><ele>269.33333333333337</ele><time>2026-04-25T13:07:20.159Z</time></trkpt><trkpt lat="41.04081" lon="14.5626717"><ele>269.5</ele><time>2026-04-25T13:07:22.157Z</time></trkpt><trkpt lat="41.0407883" lon="14.5625733"><ele>269.6666666666667</ele><time>2026-04-25T13:07:24.158Z</time></trkpt><trkpt lat="41.0407667" lon="14.5624767"><ele>269.8333333333333</ele><time>2026-04-25T13:07:26.161Z</time></trkpt><trkpt lat="41.0407417" lon="14.5623733"><ele>270.0</ele><time>2026-04-25T13:07:28.16Z</time></trkpt><trkpt lat="41.040715" lon="14.5622567"><ele>270.5</ele><time>2026-04-25T13:07:30.161Z</time></trkpt><trkpt lat="41.0406883" lon="14.562145"><ele>271.0</ele><time>2026-04-25T13:07:32.161Z</time></trkpt><trkpt lat="41.0406617" lon="14.56203"><ele>271.5</ele><time>2026-04-25T13:07:34.161Z</time></trkpt><trkpt lat="41.0406367" lon="14.5619233"><ele>272.0</ele><time>2026-04-25T13:07:36.16Z</time></trkpt><trkpt lat="41.0406083" lon="14.5618167"><ele>272.5</ele><time>2026-04-25T13:07:38.161Z</time></trkpt><trkpt lat="41.0405817" lon="14.5617"><ele>273.0</ele><time>2026-04-25T13:07:40.161Z</time></trkpt><trkpt lat="41.0405517" lon="14.5615883"><ele>273.1666666666667</ele><time>2026-04-25T13:07:42.161Z</time></trkpt><trkpt lat="41.04052" lon="14.56148"><ele>273.3333333333333</ele><time>2026-04-25T13:07:44.162Z</time></trkpt><trkpt lat="41.040495" lon="14.5613683"><ele>273.5</ele><time>2026-04-25T13:07:46.16Z</time></trkpt><trkpt lat="41.0404717" lon="14.5612567"><ele>273.66666666666663</ele><time>2026-04-25T13:07:48.16Z</time></trkpt><trkpt lat="41.0404433" lon="14.5611417"><ele>273.8333333333333</ele><time>2026-04-25T13:07:50.158Z</time></trkpt><trkpt lat="41.0404167" lon="14.561025"><ele>274.0</ele><time>2026-04-25T13:07:52.162Z</time></trkpt><trkpt lat="41.0403867" lon="14.56091"><ele>274.0</ele><time>2026-04-25T13:07:54.161Z</time></trkpt><trkpt lat="41.0403617" lon="14.5608067"><ele>274.0</ele><time>2026-04-25T13:07:56.162Z</time></trkpt><trkpt lat="41.0403367" lon="14.560705"><ele>274.0</ele><time>2026-04-25T13:07:58.162Z</time></trkpt><trkpt lat="41.0403133" lon="14.5606017"><ele>274.0</ele><time>2026-04-25T13:08:00.16Z</time></trkpt><trkpt lat="41.0402883" lon="14.5604933"><ele>274.0</ele><time>2026-04-25T13:08:02.16Z</time></trkpt><trkpt lat="41.0402633" lon="14.560385"><ele>274.0</ele><time>2026-04-25T13:08:04.16Z</time></trkpt><trkpt lat="41.0402383" lon="14.5602833"><ele>274.3333333333333</ele><time>2026-04-25T13:08:06.159Z</time></trkpt><trkpt lat="41.0402117" lon="14.5601817"><ele>274.66666666666663</ele><time>2026-04-25T13:08:08.162Z</time></trkpt><trkpt lat="41.0401917" lon="14.5600883"><ele>275.0</ele><time>2026-04-25T13:08:10.161Z</time></trkpt><trkpt lat="41.0401667" lon="14.55999"><ele>275.3333333333333</ele><time>2026-04-25T13:08:12.157Z</time></trkpt><trkpt lat="41.0401417" lon="14.559895"><ele>275.6666666666667</ele><time>2026-04-25T13:08:14.157Z</time></trkpt><trkpt lat="41.0401133" lon="14.559805"><ele>276.0</ele><time>2026-04-25T13:08:16.158Z</time></trkpt><trkpt lat="41.0400933" lon="14.559705"><ele>276.0</ele><time>2026-04-25T13:08:18.161Z</time></trkpt><trkpt lat="41.0400733" lon="14.559595"><ele>276.0</ele><time>2026-04-25T13:08:20.159Z</time></trkpt><trkpt lat="41.0400533" lon="14.5594883"><ele>276.0</ele><time>2026-04-25T13:08:22.157Z</time></trkpt><trkpt lat="41.040035" lon="14.5593867"><ele>276.0</ele><time>2026-04-25T13:08:24.161Z</time></trkpt><trkpt lat="41.040015" lon="14.55929"><ele>276.0</ele><time>2026-04-25T13:08:26.159Z</time></trkpt><trkpt lat="41.039995" lon="14.5591867"><ele>276.0</ele><time>2026-04-25T13:08:28.159Z</time></trkpt><trkpt lat="41.039975" lon="14.559085"><ele>276.57142857142856</ele><time>2026-04-25T13:08:30.161Z</time></trkpt><trkpt lat="41.03995" lon="14.558985"><ele>277.14285714285717</ele><time>2026-04-25T13:08:32.162Z</time></trkpt><trkpt lat="41.039925" lon="14.55889"><ele>277.7142857142857</ele><time>2026-04-25T13:08:34.157Z</time></trkpt><trkpt lat="41.0399033" lon="14.5587883"><ele>278.2857142857143</ele><time>2026-04-25T13:08:36.157Z</time></trkpt><trkpt lat="41.0398783" lon="14.558705"><ele>278.8571428571429</ele><time>2026-04-25T13:08:38.161Z</time></trkpt><trkpt lat="41.0398567" lon="14.55862"><ele>279.42857142857144</ele><time>2026-04-25T13:08:40.161Z</time></trkpt><trkpt lat="41.0398367" lon="14.5585333"><ele>280.0</ele><time>2026-04-25T13:08:42.16Z</time></trkpt><trkpt lat="41.0398117" lon="14.5584533"><ele>280.3333333333333</ele><time>2026-04-25T13:08:44.161Z</time></trkpt><trkpt lat="41.03979" lon="14.55837"><ele>280.66666666666663</ele><time>2026-04-25T13:08:46.16Z</time></trkpt><trkpt lat="41.03977" lon="14.5582817"><ele>281.0</ele><time>2026-04-25T13:08:48.16Z</time></trkpt><trkpt lat="41.0397467" lon="14.558165"><ele>281.3333333333333</ele><time>2026-04-25T13:08:51.157Z</time></trkpt><trkpt lat="41.0397183" lon="14.5580533"><ele>281.6666666666667</ele><time>2026-04-25T13:08:54.16Z</time></trkpt><trkpt lat="41.03969" lon="14.5579383"><ele>282.0</ele><time>2026-04-25T13:08:57.16Z</time></trkpt><trkpt lat="41.0396667" lon="14.5578533"><ele>282.0</ele><time>2026-04-25T13:08:59.16Z</time></trkpt><trkpt lat="41.0396483" lon="14.5577617"><ele>282.0</ele><time>2026-04-25T13:09:01.16Z</time></trkpt><trkpt lat="41.0396217" lon="14.5576733"><ele>282.0</ele><time>2026-04-25T13:09:03.159Z</time></trkpt><trkpt lat="41.0395983" lon="14.5575833"><ele>282.0</ele><time>2026-04-25T13:09:05.161Z</time></trkpt><trkpt lat="41.0395717" lon="14.5574583"><ele>282.0</ele><time>2026-04-25T13:09:08.16Z</time></trkpt><trkpt lat="41.0395583" lon="14.5573767"><ele>282.0</ele><time>2026-04-25T13:09:10.159Z</time></trkpt><trkpt lat="41.0395383" lon="14.5572967"><ele>282.0</ele><time>2026-04-25T13:09:12.159Z</time></trkpt><trkpt lat="41.03952" lon="14.55721"><ele>282.0</ele><time>2026-04-25T13:09:14.16Z</time></trkpt><trkpt lat="41.0394983" lon="14.5571267"><ele>282.0</ele><time>2026-04-25T13:09:16.162Z</time></trkpt><trkpt lat="41.0394767" lon="14.55704"><ele>282.0</ele><time>2026-04-25T13:09:18.157Z</time></trkpt><trkpt lat="41.0394567" lon="14.556955"><ele>282.0</ele><time>2026-04-25T13:09:20.162Z</time></trkpt><trkpt lat="41.039435" lon="14.5568733"><ele>282.0</ele><time>2026-04-25T13:09:22.159Z</time></trkpt><trkpt lat="41.0394133" lon="14.5567883"><ele>282.0</ele><time>2026-04-25T13:09:24.161Z</time></trkpt><trkpt lat="41.0393933" lon="14.5567033"><ele>282.0</ele><time>2026-04-25T13:09:26.161Z</time></trkpt><trkpt lat="41.0393717" lon="14.5566217"><ele>282.2857142857143</ele><time>2026-04-25T13:09:28.158Z</time></trkpt><trkpt lat="41.0393467" lon="14.5565367"><ele>282.57142857142856</ele><time>2026-04-25T13:09:30.162Z</time></trkpt><trkpt lat="41.039325" lon="14.5564467"><ele>282.85714285714283</ele><time>2026-04-25T13:09:32.161Z</time></trkpt><trkpt lat="41.0393033" lon="14.5563567"><ele>283.1428571428571</ele><time>2026-04-25T13:09:34.159Z</time></trkpt><trkpt lat="41.0392833" lon="14.5562733"><ele>283.4285714285714</ele><time>2026-04-25T13:09:36.162Z</time></trkpt><trkpt lat="41.0392667" lon="14.5561867"><ele>283.7142857142857</ele><time>2026-04-25T13:09:38.16Z</time></trkpt><trkpt lat="41.0392467" lon="14.5560967"><ele>284.0</ele><time>2026-04-25T13:09:40.159Z</time></trkpt><trkpt lat="41.0392233" lon="14.5560083"><ele>284.2857142857143</ele><time>2026-04-25T13:09:42.161Z</time></trkpt><trkpt lat="41.0392017" lon="14.555925"><ele>284.57142857142856</ele><time>2026-04-25T13:09:44.161Z</time></trkpt><trkpt lat="41.0391833" lon="14.55584"><ele>284.85714285714283</ele><time>2026-04-25T13:09:46.159Z</time></trkpt><trkpt lat="41.0391617" lon="14.5557517"><ele>285.1428571428571</ele><time>2026-04-25T13:09:48.162Z</time></trkpt><trkpt lat="41.0391367" lon="14.5556633"><ele>285.42857142857144</ele><time>2026-04-25T13:09:50.161Z</time></trkpt><trkpt lat="41.039115" lon="14.55558"><ele>285.71428571428567</ele><time>2026-04-25T13:09:52.159Z</time></trkpt><trkpt lat="41.0390917" lon="14.5554833"><ele>286.0</ele><time>2026-04-25T13:09:54.162Z</time></trkpt><trkpt lat="41.03907" lon="14.5553883"><ele>286.99999999999994</ele><time>2026-04-25T13:09:56.161Z</time></trkpt><trkpt lat="41.0390467" lon="14.5552933"><ele>288.0</ele><time>2026-04-25T13:09:58.161Z</time></trkpt><trkpt lat="41.0390267" lon="14.5552083"><ele>289.0</ele><time>2026-04-25T13:10:00.161Z</time></trkpt><trkpt lat="41.0390017" lon="14.5551267"><ele>290.0</ele><time>2026-04-25T13:10:02.161Z</time></trkpt><trkpt lat="41.0389817" lon="14.55504"><ele>291.0</ele><time>2026-04-25T13:10:04.162Z</time></trkpt><trkpt lat="41.0389483" lon="14.5549267"><ele>291.99999999999994</ele><time>2026-04-25T13:10:07.16Z</time></trkpt><trkpt lat="41.038925" lon="14.5548467"><ele>293.0</ele><time>2026-04-25T13:10:09.159Z</time></trkpt><trkpt lat="41.0389033" lon="14.5547667"><ele>292.99999999999994</ele><time>2026-04-25T13:10:11.162Z</time></trkpt><trkpt lat="41.0388833" lon="14.554685"><ele>293.0</ele><time>2026-04-25T13:10:13.159Z</time></trkpt><trkpt lat="41.0388617" lon="14.5546"><ele>293.0</ele><time>2026-04-25T13:10:15.162Z</time></trkpt><trkpt lat="41.0388417" lon="14.5545083"><ele>293.0</ele><time>2026-04-25T13:10:17.158Z</time></trkpt><trkpt lat="41.038815" lon="14.5544183"><ele>293.0</ele><time>2026-04-25T13:10:19.16Z</time></trkpt><trkpt lat="41.0387883" lon="14.5543317"><ele>292.99999999999994</ele><time>2026-04-25T13:10:21.16Z</time></trkpt><trkpt lat="41.0387617" lon="14.554235"><ele>293.0</ele><time>2026-04-25T13:10:23.158Z</time></trkpt><trkpt lat="41.0387317" lon="14.5541333"><ele>293.0</ele><time>2026-04-25T13:10:25.162Z</time></trkpt><trkpt lat="41.0387" lon="14.554035"><ele>293.0</ele><time>2026-04-25T13:10:27.161Z</time></trkpt><trkpt lat="41.03867" lon="14.553935"><ele>293.0</ele><time>2026-04-25T13:10:29.161Z</time></trkpt><trkpt lat="41.0386417" lon="14.5538383"><ele>293.0</ele><time>2026-04-25T13:10:31.162Z</time></trkpt><trkpt lat="41.0386183" lon="14.5537433"><ele>293.0</ele><time>2026-04-25T13:10:33.161Z</time></trkpt><trkpt lat="41.0385917" lon="14.553645"><ele>293.0</ele><time>2026-04-25T13:10:35.162Z</time></trkpt><trkpt lat="41.038565" lon="14.5535433"><ele>293.33333333333337</ele><time>2026-04-25T13:10:37.157Z</time></trkpt><trkpt lat="41.0385367" lon="14.5534433"><ele>293.6666666666667</ele><time>2026-04-25T13:10:39.161Z</time></trkpt><trkpt lat="41.0385083" lon="14.5533533"><ele>294.0</ele><time>2026-04-25T13:10:41.158Z</time></trkpt><trkpt lat="41.0384783" lon="14.553265"><ele>294.3333333333333</ele><time>2026-04-25T13:10:43.158Z</time></trkpt><trkpt lat="41.0384467" lon="14.5531783"><ele>294.66666666666663</ele><time>2026-04-25T13:10:45.159Z</time></trkpt><trkpt lat="41.0384133" lon="14.5530833"><ele>295.0</ele><time>2026-04-25T13:10:47.157Z</time></trkpt><trkpt lat="41.0383833" lon="14.5529883"><ele>295.0</ele><time>2026-04-25T13:10:49.161Z</time></trkpt><trkpt lat="41.0383517" lon="14.552895"><ele>295.0</ele><time>2026-04-25T13:10:51.162Z</time></trkpt><trkpt lat="41.0383183" lon="14.5527933"><ele>295.0</ele><time>2026-04-25T13:10:53.158Z</time></trkpt><trkpt lat="41.038285" lon="14.5527017"><ele>295.0</ele><time>2026-04-25T13:10:55.161Z</time></trkpt><trkpt lat="41.03825" lon="14.55261"><ele>295.0</ele><time>2026-04-25T13:10:57.159Z</time></trkpt><trkpt lat="41.038215" lon="14.55252"><ele>295.0</ele><time>2026-04-25T13:10:59.157Z</time></trkpt><trkpt lat="41.0381817" lon="14.5524233"><ele>295.8333333333333</ele><time>2026-04-25T13:11:01.157Z</time></trkpt><trkpt lat="41.0381467" lon="14.55233"><ele>296.66666666666663</ele><time>2026-04-25T13:11:03.159Z</time></trkpt><trkpt lat="41.038115" lon="14.552235"><ele>297.5</ele><time>2026-04-25T13:11:05.16Z</time></trkpt><trkpt lat="41.0380833" lon="14.55214"><ele>298.3333333333333</ele><time>2026-04-25T13:11:07.161Z</time></trkpt><trkpt lat="41.0380517" lon="14.552045"><ele>299.1666666666667</ele><time>2026-04-25T13:11:09.16Z</time></trkpt><trkpt lat="41.0380233" lon="14.5519517"><ele>300.0</ele><time>2026-04-25T13:11:11.157Z</time></trkpt><trkpt lat="41.0379917" lon="14.55186"><ele>300.0</ele><time>2026-04-25T13:11:13.16Z</time></trkpt><trkpt lat="41.03796" lon="14.5517717"><ele>300.0</ele><time>2026-04-25T13:11:15.161Z</time></trkpt><trkpt lat="41.0379283" lon="14.5516833"><ele>300.0</ele><time>2026-04-25T13:11:17.157Z</time></trkpt><trkpt lat="41.0378967" lon="14.5515983"><ele>300.0</ele><time>2026-04-25T13:11:19.158Z</time></trkpt><trkpt lat="41.0378617" lon="14.551515"><ele>300.0</ele><time>2026-04-25T13:11:21.158Z</time></trkpt><trkpt lat="41.0378233" lon="14.5514167"><ele>300.0</ele><time>2026-04-25T13:11:23.157Z</time></trkpt><trkpt lat="41.0377817" lon="14.5513117"><ele>300.0</ele><time>2026-04-25T13:11:25.158Z</time></trkpt><trkpt lat="41.0377417" lon="14.5512017"><ele>300.0</ele><time>2026-04-25T13:11:27.157Z</time></trkpt><trkpt lat="41.0377" lon="14.5510967"><ele>300.0</ele><time>2026-04-25T13:11:29.158Z</time></trkpt><trkpt lat="41.0376617" lon="14.5509867"><ele>300.0</ele><time>2026-04-25T13:11:31.159Z</time></trkpt><trkpt lat="41.0376233" lon="14.55088"><ele>300.0</ele><time>2026-04-25T13:11:33.158Z</time></trkpt><trkpt lat="41.0375817" lon="14.55078"><ele>300.0</ele><time>2026-04-25T13:11:35.159Z</time></trkpt><trkpt lat="41.0375383" lon="14.5506733"><ele>300.0</ele><time>2026-04-25T13:11:37.161Z</time></trkpt><trkpt lat="41.0374917" lon="14.5505583"><ele>300.0</ele><time>2026-04-25T13:11:39.161Z</time></trkpt><trkpt lat="41.03744" lon="14.55043"><ele>300.0</ele><time>2026-04-25T13:11:41.158Z</time></trkpt><trkpt lat="41.0373883" lon="14.5502833"><ele>300.0</ele><time>2026-04-25T13:11:43.159Z</time></trkpt><trkpt lat="41.0373583" lon="14.5502083"><ele>300.0</ele><time>2026-04-25T13:11:44.159Z</time></trkpt><trkpt lat="41.03733" lon="14.55013"><ele>299.99999999999994</ele><time>2026-04-25T13:11:45.16Z</time></trkpt><trkpt lat="41.0373" lon="14.5500517"><ele>300.0</ele><time>2026-04-25T13:11:46.159Z</time></trkpt><trkpt lat="41.0372667" lon="14.5499783"><ele>300.0</ele><time>2026-04-25T13:11:47.157Z</time></trkpt><trkpt lat="41.0372367" lon="14.5499017"><ele>300.0</ele><time>2026-04-25T13:11:48.16Z</time></trkpt><trkpt lat="41.037205" lon="14.549825"><ele>300.0</ele><time>2026-04-25T13:11:49.159Z</time></trkpt><trkpt lat="41.0371783" lon="14.5497467"><ele>299.99999999999994</ele><time>2026-04-25T13:11:50.159Z</time></trkpt><trkpt lat="41.0371483" lon="14.5496717"><ele>300.0</ele><time>2026-04-25T13:11:51.159Z</time></trkpt><trkpt lat="41.0371183" lon="14.5495933"><ele>299.2857142857143</ele><time>2026-04-25T13:11:52.158Z</time></trkpt><trkpt lat="41.0370883" lon="14.549515"><ele>298.57142857142856</ele><time>2026-04-25T13:11:53.159Z</time></trkpt><trkpt lat="41.0370583" lon="14.5494333"><ele>297.8571428571429</ele><time>2026-04-25T13:11:54.158Z</time></trkpt><trkpt lat="41.0370267" lon="14.54935"><ele>297.1428571428571</ele><time>2026-04-25T13:11:55.159Z</time></trkpt><trkpt lat="41.0369917" lon="14.54926"><ele>296.42857142857144</ele><time>2026-04-25T13:11:56.159Z</time></trkpt><trkpt lat="41.036955" lon="14.5491683"><ele>295.7142857142857</ele><time>2026-04-25T13:11:57.159Z</time></trkpt><trkpt lat="41.0369183" lon="14.549075"><ele>295.0</ele><time>2026-04-25T13:11:58.158Z</time></trkpt><trkpt lat="41.0368817" lon="14.5489783"><ele>295.0</ele><time>2026-04-25T13:11:59.158Z</time></trkpt><trkpt lat="41.036845" lon="14.54888"><ele>295.0</ele><time>2026-04-25T13:12:00.162Z</time></trkpt><trkpt lat="41.0368067" lon="14.5487817"><ele>295.0</ele><time>2026-04-25T13:12:01.157Z</time></trkpt><trkpt lat="41.0367683" lon="14.548685"><ele>295.0</ele><time>2026-04-25T13:12:02.158Z</time></trkpt><trkpt lat="41.0367317" lon="14.5485833"><ele>295.0</ele><time>2026-04-25T13:12:03.158Z</time></trkpt><trkpt lat="41.0366933" lon="14.5484783"><ele>295.0</ele><time>2026-04-25T13:12:04.16Z</time></trkpt><trkpt lat="41.0366517" lon="14.5483717"><ele>294.4</ele><time>2026-04-25T13:12:05.158Z</time></trkpt><trkpt lat="41.0366117" lon="14.5482617"><ele>293.8</ele><time>2026-04-25T13:12:06.159Z</time></trkpt><trkpt lat="41.03657" lon="14.54815"><ele>293.2</ele><time>2026-04-25T13:12:07.158Z</time></trkpt><trkpt lat="41.0365283" lon="14.5480317"><ele>292.6</ele><time>2026-04-25T13:12:08.158Z</time></trkpt><trkpt lat="41.036485" lon="14.547915"><ele>292.0</ele><time>2026-04-25T13:12:09.16Z</time></trkpt><trkpt lat="41.03644" lon="14.5478017"><ele>291.6</ele><time>2026-04-25T13:12:10.158Z</time></trkpt><trkpt lat="41.036395" lon="14.54769"><ele>291.2</ele><time>2026-04-25T13:12:11.159Z</time></trkpt><trkpt lat="41.03635" lon="14.5475717"><ele>290.8</ele><time>2026-04-25T13:12:12.159Z</time></trkpt><trkpt lat="41.0363033" lon="14.54745"><ele>290.4</ele><time>2026-04-25T13:12:13.16Z</time></trkpt><trkpt lat="41.03626" lon="14.547325"><ele>290.0</ele><time>2026-04-25T13:12:14.16Z</time></trkpt><trkpt lat="41.0362183" lon="14.5472033"><ele>290.0</ele><time>2026-04-25T13:12:15.158Z</time></trkpt><trkpt lat="41.036175" lon="14.5470867"><ele>290.0</ele><time>2026-04-25T13:12:16.161Z</time></trkpt><trkpt lat="41.0361333" lon="14.5469717"><ele>290.0</ele><time>2026-04-25T13:12:17.157Z</time></trkpt><trkpt lat="41.03609" lon="14.5468583"><ele>290.0</ele><time>2026-04-25T13:12:18.16Z</time></trkpt><trkpt lat="41.0360467" lon="14.5467417"><ele>290.0</ele><time>2026-04-25T13:12:19.16Z</time></trkpt><trkpt lat="41.0360033" lon="14.5466283"><ele>289.2</ele><time>2026-04-25T13:12:20.159Z</time></trkpt><trkpt lat="41.0359633" lon="14.5465167"><ele>288.4</ele><time>2026-04-25T13:12:21.159Z</time></trkpt><trkpt lat="41.0359233" lon="14.5464067"><ele>287.6</ele><time>2026-04-25T13:12:22.161Z</time></trkpt><trkpt lat="41.0358817" lon="14.546295"><ele>286.8</ele><time>2026-04-25T13:12:23.16Z</time></trkpt><trkpt lat="41.0358383" lon="14.5461817"><ele>286.0</ele><time>2026-04-25T13:12:24.16Z</time></trkpt><trkpt lat="41.0358" lon="14.5460667"><ele>285.8</ele><time>2026-04-25T13:12:25.161Z</time></trkpt><trkpt lat="41.0357567" lon="14.5459517"><ele>285.6</ele><time>2026-04-25T13:12:26.16Z</time></trkpt><trkpt lat="41.035715" lon="14.54583"><ele>285.4</ele><time>2026-04-25T13:12:27.161Z</time></trkpt><trkpt lat="41.0356717" lon="14.545705"><ele>285.2</ele><time>2026-04-25T13:12:28.161Z</time></trkpt><trkpt lat="41.03563" lon="14.5455817"><ele>285.0</ele><time>2026-04-25T13:12:29.162Z</time></trkpt><trkpt lat="41.0355883" lon="14.5454567"><ele>284.2</ele><time>2026-04-25T13:12:30.16Z</time></trkpt><trkpt lat="41.0355467" lon="14.5453317"><ele>283.4</ele><time>2026-04-25T13:12:31.161Z</time></trkpt><trkpt lat="41.03551" lon="14.545205"><ele>282.6</ele><time>2026-04-25T13:12:32.158Z</time></trkpt><trkpt lat="41.0354733" lon="14.5450767"><ele>281.8</ele><time>2026-04-25T13:12:33.16Z</time></trkpt><trkpt lat="41.0354517" lon="14.54494"><ele>281.0</ele><time>2026-04-25T13:12:34.161Z</time></trkpt><trkpt lat="41.0354333" lon="14.5447983"><ele>281.0</ele><time>2026-04-25T13:12:35.159Z</time></trkpt><trkpt lat="41.0354183" lon="14.5446583"><ele>281.0</ele><time>2026-04-25T13:12:36.16Z</time></trkpt><trkpt lat="41.0354017" lon="14.54452"><ele>281.0</ele><time>2026-04-25T13:12:37.159Z</time></trkpt><trkpt lat="41.0353883" lon="14.5443833"><ele>281.0</ele><time>2026-04-25T13:12:38.163Z</time></trkpt><trkpt lat="41.0353733" lon="14.5442433"><ele>281.0</ele><time>2026-04-25T13:12:39.158Z</time></trkpt><trkpt lat="41.0353617" lon="14.5441033"><ele>280.2</ele><time>2026-04-25T13:12:40.159Z</time></trkpt><trkpt lat="41.0353483" lon="14.5439617"><ele>279.40000000000003</ele><time>2026-04-25T13:12:41.159Z</time></trkpt><trkpt lat="41.035335" lon="14.5438183"><ele>278.6</ele><time>2026-04-25T13:12:42.159Z</time></trkpt><trkpt lat="41.0353233" lon="14.54367"><ele>277.8</ele><time>2026-04-25T13:12:43.159Z</time></trkpt><trkpt lat="41.03531" lon="14.5435183"><ele>277.0</ele><time>2026-04-25T13:12:44.158Z</time></trkpt><trkpt lat="41.0352983" lon="14.5433617"><ele>274.75</ele><time>2026-04-25T13:12:45.158Z</time></trkpt><trkpt lat="41.035285" lon="14.5431983"><ele>272.5</ele><time>2026-04-25T13:12:46.159Z</time></trkpt><trkpt lat="41.0352717" lon="14.54304"><ele>270.25</ele><time>2026-04-25T13:12:47.158Z</time></trkpt><trkpt lat="41.0352567" lon="14.5428767"><ele>268.0</ele><time>2026-04-25T13:12:48.157Z</time></trkpt><trkpt lat="41.0352433" lon="14.5427217"><ele>266.0</ele><time>2026-04-25T13:12:49.158Z</time></trkpt><trkpt lat="41.0352283" lon="14.542565"><ele>264.0</ele><time>2026-04-25T13:12:50.16Z</time></trkpt><trkpt lat="41.0352133" lon="14.5424067"><ele>262.0</ele><time>2026-04-25T13:12:51.16Z</time></trkpt><trkpt lat="41.0351967" lon="14.54225"><ele>260.0</ele><time>2026-04-25T13:12:52.158Z</time></trkpt><trkpt lat="41.0351817" lon="14.542095"><ele>258.75</ele><time>2026-04-25T13:12:53.159Z</time></trkpt><trkpt lat="41.0351733" lon="14.5419417"><ele>257.5</ele><time>2026-04-25T13:12:54.158Z</time></trkpt><trkpt lat="41.0351717" lon="14.541785"><ele>256.25</ele><time>2026-04-25T13:12:55.159Z</time></trkpt><trkpt lat="41.0351817" lon="14.5416283"><ele>255.0</ele><time>2026-04-25T13:12:56.158Z</time></trkpt><trkpt lat="41.0352" lon="14.54147"><ele>255.0</ele><time>2026-04-25T13:12:57.16Z</time></trkpt><trkpt lat="41.0352217" lon="14.5413167"><ele>255.0</ele><time>2026-04-25T13:12:58.157Z</time></trkpt><trkpt lat="41.0352383" lon="14.54117"><ele>255.0</ele><time>2026-04-25T13:12:59.16Z</time></trkpt><trkpt lat="41.03525" lon="14.5410267"><ele>255.0</ele><time>2026-04-25T13:13:00.158Z</time></trkpt><trkpt lat="41.0352483" lon="14.5408833"><ele>255.0</ele><time>2026-04-25T13:13:01.157Z</time></trkpt><trkpt lat="41.0352317" lon="14.540735"><ele>253.75</ele><time>2026-04-25T13:13:02.161Z</time></trkpt><trkpt lat="41.035205" lon="14.5405833"><ele>252.5</ele><time>2026-04-25T13:13:03.16Z</time></trkpt><trkpt lat="41.0351733" lon="14.5404267"><ele>251.25</ele><time>2026-04-25T13:13:04.161Z</time></trkpt><trkpt lat="41.0351433" lon="14.5402717"><ele>250.0</ele><time>2026-04-25T13:13:05.158Z</time></trkpt><trkpt lat="41.0351167" lon="14.5401167"><ele>249.5</ele><time>2026-04-25T13:13:06.162Z</time></trkpt><trkpt lat="41.0351033" lon="14.539955"><ele>249.0</ele><time>2026-04-25T13:13:07.16Z</time></trkpt><trkpt lat="41.0351017" lon="14.5397917"><ele>248.5</ele><time>2026-04-25T13:13:08.158Z</time></trkpt><trkpt lat="41.0351183" lon="14.5396317"><ele>248.0</ele><time>2026-04-25T13:13:09.161Z</time></trkpt><trkpt lat="41.035145" lon="14.5394733"><ele>247.0</ele><time>2026-04-25T13:13:10.158Z</time></trkpt><trkpt lat="41.0351733" lon="14.5393217"><ele>246.0</ele><time>2026-04-25T13:13:11.159Z</time></trkpt><trkpt lat="41.0351967" lon="14.5391733"><ele>245.0</ele><time>2026-04-25T13:13:12.158Z</time></trkpt><trkpt lat="41.0352183" lon="14.5390333"><ele>244.0</ele><time>2026-04-25T13:13:13.158Z</time></trkpt><trkpt lat="41.0352333" lon="14.53889"><ele>243.0</ele><time>2026-04-25T13:13:14.159Z</time></trkpt><trkpt lat="41.0352533" lon="14.53875"><ele>241.0</ele><time>2026-04-25T13:13:15.16Z</time></trkpt><trkpt lat="41.03529" lon="14.5386067"><ele>239.0</ele><time>2026-04-25T13:13:16.159Z</time></trkpt><trkpt lat="41.0353417" lon="14.5384733"><ele>237.0</ele><time>2026-04-25T13:13:17.157Z</time></trkpt><trkpt lat="41.0354033" lon="14.538345"><ele>235.0</ele><time>2026-04-25T13:13:18.159Z</time></trkpt><trkpt lat="41.035475" lon="14.53822"><ele>235.0</ele><time>2026-04-25T13:13:19.157Z</time></trkpt><trkpt lat="41.0355483" lon="14.538095"><ele>235.0</ele><time>2026-04-25T13:13:20.159Z</time></trkpt><trkpt lat="41.035625" lon="14.5379683"><ele>235.0</ele><time>2026-04-25T13:13:21.158Z</time></trkpt><trkpt lat="41.0357" lon="14.5378383"><ele>235.0</ele><time>2026-04-25T13:13:22.158Z</time></trkpt><trkpt lat="41.035775" lon="14.5377117"><ele>235.5</ele><time>2026-04-25T13:13:23.158Z</time></trkpt><trkpt lat="41.0358483" lon="14.5375867"><ele>236.0</ele><time>2026-04-25T13:13:24.158Z</time></trkpt><trkpt lat="41.0359167" lon="14.537465"><ele>236.5</ele><time>2026-04-25T13:13:25.159Z</time></trkpt><trkpt lat="41.0359817" lon="14.53734"><ele>237.0</ele><time>2026-04-25T13:13:26.159Z</time></trkpt><trkpt lat="41.0360383" lon="14.5372117"><ele>237.0</ele><time>2026-04-25T13:13:27.158Z</time></trkpt><trkpt lat="41.0360883" lon="14.5370783"><ele>237.0</ele><time>2026-04-25T13:13:28.158Z</time></trkpt><trkpt lat="41.0361283" lon="14.5369433"><ele>237.0</ele><time>2026-04-25T13:13:29.159Z</time></trkpt><trkpt lat="41.0361583" lon="14.5368017"><ele>237.0</ele><time>2026-04-25T13:13:30.158Z</time></trkpt><trkpt lat="41.0361817" lon="14.5366533"><ele>237.0</ele><time>2026-04-25T13:13:31.157Z</time></trkpt><trkpt lat="41.036195" lon="14.536505"><ele>236.25</ele><time>2026-04-25T13:13:32.16Z</time></trkpt><trkpt lat="41.0362017" lon="14.536355"><ele>235.5</ele><time>2026-04-25T13:13:33.157Z</time></trkpt><trkpt lat="41.0362017" lon="14.5362017"><ele>234.75</ele><time>2026-04-25T13:13:34.159Z</time></trkpt><trkpt lat="41.0362017" lon="14.5360467"><ele>234.0</ele><time>2026-04-25T13:13:35.157Z</time></trkpt><trkpt lat="41.0361983" lon="14.5358933"><ele>232.5</ele><time>2026-04-25T13:13:36.159Z</time></trkpt><trkpt lat="41.036195" lon="14.5357433"><ele>231.0</ele><time>2026-04-25T13:13:37.159Z</time></trkpt><trkpt lat="41.0361917" lon="14.5355917"><ele>229.5</ele><time>2026-04-25T13:13:38.158Z</time></trkpt><trkpt lat="41.0361867" lon="14.535435"><ele>228.0</ele><time>2026-04-25T13:13:39.158Z</time></trkpt><trkpt lat="41.03618" lon="14.5352767"><ele>227.25</ele><time>2026-04-25T13:13:40.157Z</time></trkpt><trkpt lat="41.0361767" lon="14.53512"><ele>226.5</ele><time>2026-04-25T13:13:41.158Z</time></trkpt><trkpt lat="41.0361717" lon="14.5349667"><ele>225.75</ele><time>2026-04-25T13:13:42.157Z</time></trkpt><trkpt lat="41.0361683" lon="14.53481"><ele>225.0</ele><time>2026-04-25T13:13:43.161Z</time></trkpt><trkpt lat="41.0361633" lon="14.534655"><ele>224.0</ele><time>2026-04-25T13:13:44.157Z</time></trkpt><trkpt lat="41.0361567" lon="14.5345017"><ele>223.0</ele><time>2026-04-25T13:13:45.158Z</time></trkpt><trkpt lat="41.0361517" lon="14.5343467"><ele>222.0</ele><time>2026-04-25T13:13:46.157Z</time></trkpt><trkpt lat="41.0361467" lon="14.5341883"><ele>221.0</ele><time>2026-04-25T13:13:47.157Z</time></trkpt><trkpt lat="41.0361417" lon="14.5340333"><ele>221.0</ele><time>2026-04-25T13:13:48.162Z</time></trkpt><trkpt lat="41.036135" lon="14.5338767"><ele>221.0</ele><time>2026-04-25T13:13:49.159Z</time></trkpt><trkpt lat="41.0361267" lon="14.5337183"><ele>221.0</ele><time>2026-04-25T13:13:50.158Z</time></trkpt><trkpt lat="41.0361183" lon="14.5335633"><ele>221.0</ele><time>2026-04-25T13:13:51.16Z</time></trkpt><trkpt lat="41.036115" lon="14.5334117"><ele>220.5</ele><time>2026-04-25T13:13:52.16Z</time></trkpt><trkpt lat="41.03611" lon="14.5332583"><ele>220.0</ele><time>2026-04-25T13:13:53.158Z</time></trkpt><trkpt lat="41.036105" lon="14.5331083"><ele>219.5</ele><time>2026-04-25T13:13:54.158Z</time></trkpt><trkpt lat="41.0360967" lon="14.53296"><ele>219.0</ele><time>2026-04-25T13:13:55.158Z</time></trkpt><trkpt lat="41.03609" lon="14.53281"><ele>218.75</ele><time>2026-04-25T13:13:56.159Z</time></trkpt><trkpt lat="41.0360833" lon="14.53266"><ele>218.5</ele><time>2026-04-25T13:13:57.157Z</time></trkpt><trkpt lat="41.036075" lon="14.5325067"><ele>218.25</ele><time>2026-04-25T13:13:58.159Z</time></trkpt><trkpt lat="41.0360667" lon="14.5323567"><ele>218.0</ele><time>2026-04-25T13:13:59.159Z</time></trkpt><trkpt lat="41.0360583" lon="14.5322083"><ele>218.0</ele><time>2026-04-25T13:14:00.159Z</time></trkpt><trkpt lat="41.0360533" lon="14.5320633"><ele>218.0</ele><time>2026-04-25T13:14:01.16Z</time></trkpt><trkpt lat="41.0360467" lon="14.5319183"><ele>218.0</ele><time>2026-04-25T13:14:02.158Z</time></trkpt><trkpt lat="41.03604" lon="14.5317733"><ele>218.0</ele><time>2026-04-25T13:14:03.159Z</time></trkpt><trkpt lat="41.036035" lon="14.5316283"><ele>218.0</ele><time>2026-04-25T13:14:04.158Z</time></trkpt><trkpt lat="41.0360317" lon="14.5314817"><ele>217.25</ele><time>2026-04-25T13:14:05.159Z</time></trkpt><trkpt lat="41.0360267" lon="14.5313333"><ele>216.5</ele><time>2026-04-25T13:14:06.157Z</time></trkpt><trkpt lat="41.0360267" lon="14.5311833"><ele>215.75</ele><time>2026-04-25T13:14:07.159Z</time></trkpt><trkpt lat="41.0360317" lon="14.53103"><ele>215.0</ele><time>2026-04-25T13:14:08.158Z</time></trkpt><trkpt lat="41.03604" lon="14.5308767"><ele>214.2</ele><time>2026-04-25T13:14:09.159Z</time></trkpt><trkpt lat="41.036045" lon="14.5307233"><ele>213.4</ele><time>2026-04-25T13:14:10.158Z</time></trkpt><trkpt lat="41.03605" lon="14.5305733"><ele>212.60000000000002</ele><time>2026-04-25T13:14:11.159Z</time></trkpt><trkpt lat="41.0360533" lon="14.5304267"><ele>211.8</ele><time>2026-04-25T13:14:12.159Z</time></trkpt><trkpt lat="41.0360617" lon="14.5302833"><ele>211.0</ele><time>2026-04-25T13:14:13.159Z</time></trkpt><trkpt lat="41.0360683" lon="14.5301367"><ele>210.25</ele><time>2026-04-25T13:14:14.158Z</time></trkpt><trkpt lat="41.03607" lon="14.5299883"><ele>209.5</ele><time>2026-04-25T13:14:15.159Z</time></trkpt><trkpt lat="41.0360717" lon="14.5298367"><ele>208.75</ele><time>2026-04-25T13:14:16.158Z</time></trkpt><trkpt lat="41.036075" lon="14.5296883"><ele>208.0</ele><time>2026-04-25T13:14:17.158Z</time></trkpt><trkpt lat="41.03608" lon="14.52954"><ele>207.2</ele><time>2026-04-25T13:14:18.158Z</time></trkpt><trkpt lat="41.036085" lon="14.5293917"><ele>206.4</ele><time>2026-04-25T13:14:19.162Z</time></trkpt><trkpt lat="41.0360883" lon="14.5292433"><ele>205.6</ele><time>2026-04-25T13:14:20.159Z</time></trkpt><trkpt lat="41.0360967" lon="14.5290967"><ele>204.79999999999998</ele><time>2026-04-25T13:14:21.158Z</time></trkpt><trkpt lat="41.0361033" lon="14.5289467"><ele>204.0</ele><time>2026-04-25T13:14:22.158Z</time></trkpt><trkpt lat="41.0361083" lon="14.5287967"><ele>203.5</ele><time>2026-04-25T13:14:23.158Z</time></trkpt><trkpt lat="41.0361133" lon="14.5286467"><ele>203.0</ele><time>2026-04-25T13:14:24.158Z</time></trkpt><trkpt lat="41.0361167" lon="14.5285"><ele>202.5</ele><time>2026-04-25T13:14:25.159Z</time></trkpt><trkpt lat="41.0361183" lon="14.52835"><ele>202.0</ele><time>2026-04-25T13:14:26.158Z</time></trkpt><trkpt lat="41.0361167" lon="14.5281983"><ele>202.0</ele><time>2026-04-25T13:14:27.159Z</time></trkpt><trkpt lat="41.0361167" lon="14.5280483"><ele>202.0</ele><time>2026-04-25T13:14:28.158Z</time></trkpt><trkpt lat="41.036115" lon="14.527895"><ele>202.0</ele><time>2026-04-25T13:14:29.161Z</time></trkpt><trkpt lat="41.0361183" lon="14.5277417"><ele>202.0</ele><time>2026-04-25T13:14:30.158Z</time></trkpt><trkpt lat="41.0361233" lon="14.5275883"><ele>201.5</ele><time>2026-04-25T13:14:31.158Z</time></trkpt><trkpt lat="41.0361283" lon="14.5274333"><ele>201.0</ele><time>2026-04-25T13:14:32.16Z</time></trkpt><trkpt lat="41.0361317" lon="14.5272767"><ele>200.5</ele><time>2026-04-25T13:14:33.16Z</time></trkpt><trkpt lat="41.0361383" lon="14.52712"><ele>200.0</ele><time>2026-04-25T13:14:34.159Z</time></trkpt><trkpt lat="41.036145" lon="14.5269633"><ele>199.25</ele><time>2026-04-25T13:14:35.157Z</time></trkpt><trkpt lat="41.0361533" lon="14.5268033"><ele>198.5</ele><time>2026-04-25T13:14:36.158Z</time></trkpt><trkpt lat="41.0361567" lon="14.5266383"><ele>197.75</ele><time>2026-04-25T13:14:37.157Z</time></trkpt><trkpt lat="41.0361567" lon="14.526475"><ele>197.0</ele><time>2026-04-25T13:14:38.16Z</time></trkpt><trkpt lat="41.0361567" lon="14.5263117"><ele>196.25</ele><time>2026-04-25T13:14:39.158Z</time></trkpt><trkpt lat="41.0361583" lon="14.5261483"><ele>195.5</ele><time>2026-04-25T13:14:40.159Z</time></trkpt><trkpt lat="41.03616" lon="14.5259883"><ele>194.75</ele><time>2026-04-25T13:14:41.159Z</time></trkpt><trkpt lat="41.0361617" lon="14.5258283"><ele>194.0</ele><time>2026-04-25T13:14:42.158Z</time></trkpt><trkpt lat="41.0361617" lon="14.5256717"><ele>194.0</ele><time>2026-04-25T13:14:43.157Z</time></trkpt><trkpt lat="41.03616" lon="14.5255117"><ele>194.0</ele><time>2026-04-25T13:14:44.16Z</time></trkpt><trkpt lat="41.03615" lon="14.525355"><ele>194.0</ele><time>2026-04-25T13:14:45.158Z</time></trkpt><trkpt lat="41.0361367" lon="14.5252017"><ele>194.0</ele><time>2026-04-25T13:14:46.161Z</time></trkpt><trkpt lat="41.036115" lon="14.5250533"><ele>193.5</ele><time>2026-04-25T13:14:47.159Z</time></trkpt><trkpt lat="41.03609" lon="14.524905"><ele>193.0</ele><time>2026-04-25T13:14:48.161Z</time></trkpt><trkpt lat="41.0360617" lon="14.524755"><ele>192.5</ele><time>2026-04-25T13:14:49.162Z</time></trkpt><trkpt lat="41.0360317" lon="14.5246067"><ele>192.0</ele><time>2026-04-25T13:14:50.161Z</time></trkpt><trkpt lat="41.0360017" lon="14.5244667"><ele>191.5</ele><time>2026-04-25T13:14:51.161Z</time></trkpt><trkpt lat="41.0359767" lon="14.5243267"><ele>191.0</ele><time>2026-04-25T13:14:52.159Z</time></trkpt><trkpt lat="41.0359533" lon="14.5241833"><ele>190.5</ele><time>2026-04-25T13:14:53.16Z</time></trkpt><trkpt lat="41.0359233" lon="14.5240367"><ele>190.0</ele><time>2026-04-25T13:14:54.16Z</time></trkpt><trkpt lat="41.0358917" lon="14.5238883"><ele>190.0</ele><time>2026-04-25T13:14:55.158Z</time></trkpt><trkpt lat="41.0358617" lon="14.5237317"><ele>190.0</ele><time>2026-04-25T13:14:56.159Z</time></trkpt><trkpt lat="41.0358333" lon="14.523575"><ele>190.0</ele><time>2026-04-25T13:14:57.159Z</time></trkpt><trkpt lat="41.0358067" lon="14.52342"><ele>190.0</ele><time>2026-04-25T13:14:58.16Z</time></trkpt><trkpt lat="41.0357783" lon="14.5232617"><ele>187.5</ele><time>2026-04-25T13:14:59.161Z</time></trkpt><trkpt lat="41.03575" lon="14.5231067"><ele>185.0</ele><time>2026-04-25T13:15:00.159Z</time></trkpt><trkpt lat="41.0357217" lon="14.5229533"><ele>182.5</ele><time>2026-04-25T13:15:01.161Z</time></trkpt><trkpt lat="41.035695" lon="14.5228017"><ele>180.0</ele><time>2026-04-25T13:15:02.158Z</time></trkpt><trkpt lat="41.0356683" lon="14.5226533"><ele>179.75</ele><time>2026-04-25T13:15:03.16Z</time></trkpt><trkpt lat="41.0356433" lon="14.522505"><ele>179.5</ele><time>2026-04-25T13:15:04.158Z</time></trkpt><trkpt lat="41.0356183" lon="14.522355"><ele>179.25</ele><time>2026-04-25T13:15:05.162Z</time></trkpt><trkpt lat="41.0355933" lon="14.5222033"><ele>179.0</ele><time>2026-04-25T13:15:06.159Z</time></trkpt><trkpt lat="41.035565" lon="14.5220517"><ele>178.79999999999998</ele><time>2026-04-25T13:15:07.158Z</time></trkpt><trkpt lat="41.03554" lon="14.5219033"><ele>178.6</ele><time>2026-04-25T13:15:08.16Z</time></trkpt><trkpt lat="41.03552" lon="14.5217583"><ele>178.4</ele><time>2026-04-25T13:15:09.161Z</time></trkpt><trkpt lat="41.0355083" lon="14.5216167"><ele>178.2</ele><time>2026-04-25T13:15:10.158Z</time></trkpt><trkpt lat="41.0355017" lon="14.5214783"><ele>178.0</ele><time>2026-04-25T13:15:11.161Z</time></trkpt><trkpt lat="41.0355017" lon="14.52134"><ele>177.60000000000002</ele><time>2026-04-25T13:15:12.159Z</time></trkpt><trkpt lat="41.0355083" lon="14.5212017"><ele>177.20000000000002</ele><time>2026-04-25T13:15:13.159Z</time></trkpt><trkpt lat="41.03552" lon="14.5210683"><ele>176.8</ele><time>2026-04-25T13:15:14.159Z</time></trkpt><trkpt lat="41.035535" lon="14.5209333"><ele>176.4</ele><time>2026-04-25T13:15:15.157Z</time></trkpt><trkpt lat="41.0355517" lon="14.5208"><ele>176.0</ele><time>2026-04-25T13:15:16.158Z</time></trkpt><trkpt lat="41.0355717" lon="14.5206633"><ele>176.0</ele><time>2026-04-25T13:15:17.162Z</time></trkpt><trkpt lat="41.035595" lon="14.5205283"><ele>176.0</ele><time>2026-04-25T13:15:18.158Z</time></trkpt><trkpt lat="41.0356183" lon="14.5203967"><ele>176.0</ele><time>2026-04-25T13:15:19.158Z</time></trkpt><trkpt lat="41.03564" lon="14.52027"><ele>176.0</ele><time>2026-04-25T13:15:20.161Z</time></trkpt><trkpt lat="41.03566" lon="14.52014"><ele>176.0</ele><time>2026-04-25T13:15:21.159Z</time></trkpt><trkpt lat="41.035675" lon="14.5200083"><ele>175.4</ele><time>2026-04-25T13:15:22.159Z</time></trkpt><trkpt lat="41.0356833" lon="14.519875"><ele>174.8</ele><time>2026-04-25T13:15:23.158Z</time></trkpt><trkpt lat="41.03569" lon="14.51974"><ele>174.20000000000002</ele><time>2026-04-25T13:15:24.16Z</time></trkpt><trkpt lat="41.0356917" lon="14.5196033"><ele>173.60000000000002</ele><time>2026-04-25T13:15:25.159Z</time></trkpt><trkpt lat="41.0356933" lon="14.519465"><ele>173.0</ele><time>2026-04-25T13:15:26.16Z</time></trkpt><trkpt lat="41.03569" lon="14.5193283"><ele>172.2</ele><time>2026-04-25T13:15:27.158Z</time></trkpt><trkpt lat="41.035685" lon="14.51919"><ele>171.4</ele><time>2026-04-25T13:15:28.158Z</time></trkpt><trkpt lat="41.035675" lon="14.5190483"><ele>170.6</ele><time>2026-04-25T13:15:29.162Z</time></trkpt><trkpt lat="41.0356617" lon="14.5189"><ele>169.79999999999998</ele><time>2026-04-25T13:15:30.157Z</time></trkpt><trkpt lat="41.0356483" lon="14.5187483"><ele>169.0</ele><time>2026-04-25T13:15:31.158Z</time></trkpt><trkpt lat="41.0356367" lon="14.5185933"><ele>168.25</ele><time>2026-04-25T13:15:32.159Z</time></trkpt><trkpt lat="41.0356267" lon="14.5184317"><ele>167.5</ele><time>2026-04-25T13:15:33.158Z</time></trkpt><trkpt lat="41.0356183" lon="14.51827"><ele>166.75</ele><time>2026-04-25T13:15:34.159Z</time></trkpt><trkpt lat="41.035605" lon="14.5181067"><ele>166.0</ele><time>2026-04-25T13:15:35.16Z</time></trkpt><trkpt lat="41.0355833" lon="14.5179467"><ele>165.75</ele><time>2026-04-25T13:15:36.16Z</time></trkpt><trkpt lat="41.0355533" lon="14.51779"><ele>165.5</ele><time>2026-04-25T13:15:37.163Z</time></trkpt><trkpt lat="41.035515" lon="14.5176367"><ele>165.25</ele><time>2026-04-25T13:15:38.16Z</time></trkpt><trkpt lat="41.0354667" lon="14.51749"><ele>165.0</ele><time>2026-04-25T13:15:39.161Z</time></trkpt><trkpt lat="41.035415" lon="14.517345"><ele>165.0</ele><time>2026-04-25T13:15:40.158Z</time></trkpt><trkpt lat="41.0353617" lon="14.5171983"><ele>165.0</ele><time>2026-04-25T13:15:41.16Z</time></trkpt><trkpt lat="41.0353083" lon="14.517045"><ele>165.0</ele><time>2026-04-25T13:15:42.16Z</time></trkpt><trkpt lat="41.0352583" lon="14.5168933"><ele>165.0</ele><time>2026-04-25T13:15:43.158Z</time></trkpt><trkpt lat="41.0352067" lon="14.5167433"><ele>165.0</ele><time>2026-04-25T13:15:44.162Z</time></trkpt><trkpt lat="41.0351567" lon="14.516595"><ele>165.0</ele><time>2026-04-25T13:15:45.16Z</time></trkpt><trkpt lat="41.03511" lon="14.516445"><ele>165.0</ele><time>2026-04-25T13:15:46.159Z</time></trkpt><trkpt lat="41.0350633" lon="14.5162983"><ele>165.0</ele><time>2026-04-25T13:15:47.161Z</time></trkpt><trkpt lat="41.0350183" lon="14.5161483"><ele>164.25</ele><time>2026-04-25T13:15:48.158Z</time></trkpt><trkpt lat="41.034975" lon="14.516"><ele>163.5</ele><time>2026-04-25T13:15:49.158Z</time></trkpt><trkpt lat="41.0349367" lon="14.5158567"><ele>162.75</ele><time>2026-04-25T13:15:50.161Z</time></trkpt><trkpt lat="41.0348983" lon="14.51571"><ele>162.0</ele><time>2026-04-25T13:15:51.158Z</time></trkpt><trkpt lat="41.0348633" lon="14.51556"><ele>161.25</ele><time>2026-04-25T13:15:52.158Z</time></trkpt><trkpt lat="41.03483" lon="14.5154117"><ele>160.5</ele><time>2026-04-25T13:15:53.158Z</time></trkpt><trkpt lat="41.0348" lon="14.5152633"><ele>159.75</ele><time>2026-04-25T13:15:54.16Z</time></trkpt><trkpt lat="41.0347717" lon="14.5151183"><ele>159.0</ele><time>2026-04-25T13:15:55.158Z</time></trkpt><trkpt lat="41.0347433" lon="14.514975"><ele>158.8</ele><time>2026-04-25T13:15:56.159Z</time></trkpt><trkpt lat="41.0347183" lon="14.5148333"><ele>158.60000000000002</ele><time>2026-04-25T13:15:57.159Z</time></trkpt><trkpt lat="41.034695" lon="14.5146933"><ele>158.4</ele><time>2026-04-25T13:15:58.16Z</time></trkpt><trkpt lat="41.0346733" lon="14.5145533"><ele>158.20000000000002</ele><time>2026-04-25T13:15:59.161Z</time></trkpt><trkpt lat="41.0346517" lon="14.514415"><ele>158.0</ele><time>2026-04-25T13:16:00.162Z</time></trkpt><trkpt lat="41.0346317" lon="14.5142767"><ele>157.4</ele><time>2026-04-25T13:16:01.162Z</time></trkpt><trkpt lat="41.0346117" lon="14.5141433"><ele>156.8</ele><time>2026-04-25T13:16:02.162Z</time></trkpt><trkpt lat="41.0345917" lon="14.51401"><ele>156.2</ele><time>2026-04-25T13:16:03.162Z</time></trkpt><trkpt lat="41.0345717" lon="14.5138767"><ele>155.6</ele><time>2026-04-25T13:16:04.161Z</time></trkpt><trkpt lat="41.0345517" lon="14.513745"><ele>155.0</ele><time>2026-04-25T13:16:05.161Z</time></trkpt><trkpt lat="41.03453" lon="14.5136133"><ele>155.0</ele><time>2026-04-25T13:16:06.161Z</time></trkpt><trkpt lat="41.03451" lon="14.5134883"><ele>155.0</ele><time>2026-04-25T13:16:07.161Z</time></trkpt><trkpt lat="41.0344917" lon="14.513365"><ele>155.0</ele><time>2026-04-25T13:16:08.163Z</time></trkpt><trkpt lat="41.034475" lon="14.5132433"><ele>155.0</ele><time>2026-04-25T13:16:09.161Z</time></trkpt><trkpt lat="41.0344567" lon="14.51312"><ele>155.0</ele><time>2026-04-25T13:16:10.161Z</time></trkpt><trkpt lat="41.0344367" lon="14.512995"><ele>154.8</ele><time>2026-04-25T13:16:11.161Z</time></trkpt><trkpt lat="41.0344183" lon="14.51287"><ele>154.6</ele><time>2026-04-25T13:16:12.161Z</time></trkpt><trkpt lat="41.0343967" lon="14.512745"><ele>154.4</ele><time>2026-04-25T13:16:13.158Z</time></trkpt><trkpt lat="41.0343733" lon="14.512615"><ele>154.2</ele><time>2026-04-25T13:16:14.163Z</time></trkpt><trkpt lat="41.0343517" lon="14.5124883"><ele>154.0</ele><time>2026-04-25T13:16:15.162Z</time></trkpt><trkpt lat="41.03433" lon="14.5123633"><ele>154.0</ele><time>2026-04-25T13:16:16.161Z</time></trkpt><trkpt lat="41.0343117" lon="14.5122367"><ele>154.0</ele><time>2026-04-25T13:16:17.162Z</time></trkpt><trkpt lat="41.034295" lon="14.5121083"><ele>154.0</ele><time>2026-04-25T13:16:18.158Z</time></trkpt><trkpt lat="41.0342733" lon="14.51198"><ele>154.0</ele><time>2026-04-25T13:16:19.158Z</time></trkpt><trkpt lat="41.0342517" lon="14.5118483"><ele>154.0</ele><time>2026-04-25T13:16:20.16Z</time></trkpt><trkpt lat="41.03423" lon="14.5117183"><ele>154.0</ele><time>2026-04-25T13:16:21.16Z</time></trkpt><trkpt lat="41.03421" lon="14.51159"><ele>154.0</ele><time>2026-04-25T13:16:22.16Z</time></trkpt><trkpt lat="41.03419" lon="14.5114567"><ele>154.0</ele><time>2026-04-25T13:16:23.159Z</time></trkpt><trkpt lat="41.03417" lon="14.511325"><ele>154.0</ele><time>2026-04-25T13:16:24.159Z</time></trkpt><trkpt lat="41.0341483" lon="14.511195"><ele>154.0</ele><time>2026-04-25T13:16:25.159Z</time></trkpt><trkpt lat="41.0341283" lon="14.5110683"><ele>153.4</ele><time>2026-04-25T13:16:26.161Z</time></trkpt><trkpt lat="41.0341083" lon="14.5109417"><ele>152.8</ele><time>2026-04-25T13:16:27.159Z</time></trkpt><trkpt lat="41.0340883" lon="14.5108167"><ele>152.2</ele><time>2026-04-25T13:16:28.16Z</time></trkpt><trkpt lat="41.03407" lon="14.5106917"><ele>151.6</ele><time>2026-04-25T13:16:29.16Z</time></trkpt><trkpt lat="41.0340533" lon="14.510565"><ele>151.0</ele><time>2026-04-25T13:16:30.16Z</time></trkpt><trkpt lat="41.0340367" lon="14.5104383"><ele>150.6</ele><time>2026-04-25T13:16:31.159Z</time></trkpt><trkpt lat="41.03402" lon="14.5103133"><ele>150.2</ele><time>2026-04-25T13:16:32.16Z</time></trkpt><trkpt lat="41.0340067" lon="14.5101883"><ele>149.8</ele><time>2026-04-25T13:16:33.16Z</time></trkpt><trkpt lat="41.033995" lon="14.5100633"><ele>149.4</ele><time>2026-04-25T13:16:34.157Z</time></trkpt><trkpt lat="41.033985" lon="14.5099383"><ele>149.0</ele><time>2026-04-25T13:16:35.159Z</time></trkpt><trkpt lat="41.0339767" lon="14.509815"><ele>149.0</ele><time>2026-04-25T13:16:36.158Z</time></trkpt><trkpt lat="41.03397" lon="14.5096883"><ele>149.0</ele><time>2026-04-25T13:16:37.16Z</time></trkpt><trkpt lat="41.0339633" lon="14.509565"><ele>149.0</ele><time>2026-04-25T13:16:38.16Z</time></trkpt><trkpt lat="41.0339533" lon="14.50944"><ele>149.0</ele><time>2026-04-25T13:16:39.16Z</time></trkpt><trkpt lat="41.0339433" lon="14.5093167"><ele>149.0</ele><time>2026-04-25T13:16:40.158Z</time></trkpt><trkpt lat="41.0339333" lon="14.5091917"><ele>148.6</ele><time>2026-04-25T13:16:41.16Z</time></trkpt><trkpt lat="41.0339267" lon="14.50906"><ele>148.2</ele><time>2026-04-25T13:16:42.158Z</time></trkpt><trkpt lat="41.0339217" lon="14.5089283"><ele>147.79999999999998</ele><time>2026-04-25T13:16:43.158Z</time></trkpt><trkpt lat="41.033915" lon="14.5088017"><ele>147.4</ele><time>2026-04-25T13:16:44.16Z</time></trkpt><trkpt lat="41.03391" lon="14.5086767"><ele>147.0</ele><time>2026-04-25T13:16:45.159Z</time></trkpt><trkpt lat="41.0339017" lon="14.5085533"><ele>147.0</ele><time>2026-04-25T13:16:46.158Z</time></trkpt><trkpt lat="41.0338933" lon="14.5084283"><ele>147.0</ele><time>2026-04-25T13:16:47.161Z</time></trkpt><trkpt lat="41.033885" lon="14.5083"><ele>147.0</ele><time>2026-04-25T13:16:48.16Z</time></trkpt><trkpt lat="41.0338767" lon="14.5081717"><ele>147.0</ele><time>2026-04-25T13:16:49.159Z</time></trkpt><trkpt lat="41.0338667" lon="14.5080483"><ele>147.0</ele><time>2026-04-25T13:16:50.161Z</time></trkpt><trkpt lat="41.0338567" lon="14.507925"><ele>146.4</ele><time>2026-04-25T13:16:51.16Z</time></trkpt><trkpt lat="41.03385" lon="14.5078"><ele>145.79999999999998</ele><time>2026-04-25T13:16:52.16Z</time></trkpt><trkpt lat="41.0338433" lon="14.5076767"><ele>145.2</ele><time>2026-04-25T13:16:53.158Z</time></trkpt><trkpt lat="41.033835" lon="14.5075517"><ele>144.6</ele><time>2026-04-25T13:16:54.159Z</time></trkpt><trkpt lat="41.0338283" lon="14.5074283"><ele>144.0</ele><time>2026-04-25T13:16:55.159Z</time></trkpt><trkpt lat="41.0338233" lon="14.5073067"><ele>144.0</ele><time>2026-04-25T13:16:56.159Z</time></trkpt><trkpt lat="41.0338183" lon="14.5071867"><ele>144.0</ele><time>2026-04-25T13:16:57.16Z</time></trkpt><trkpt lat="41.0338133" lon="14.5070667"><ele>144.0</ele><time>2026-04-25T13:16:58.158Z</time></trkpt><trkpt lat="41.03381" lon="14.5069467"><ele>144.0</ele><time>2026-04-25T13:16:59.158Z</time></trkpt><trkpt lat="41.033805" lon="14.5068283"><ele>144.0</ele><time>2026-04-25T13:17:00.16Z</time></trkpt><trkpt lat="41.0338" lon="14.5067083"><ele>143.8</ele><time>2026-04-25T13:17:01.158Z</time></trkpt><trkpt lat="41.033795" lon="14.5065883"><ele>143.60000000000002</ele><time>2026-04-25T13:17:02.159Z</time></trkpt><trkpt lat="41.03379" lon="14.5064683"><ele>143.4</ele><time>2026-04-25T13:17:03.161Z</time></trkpt><trkpt lat="41.0337817" lon="14.5063483"><ele>143.20000000000002</ele><time>2026-04-25T13:17:04.158Z</time></trkpt><trkpt lat="41.0337767" lon="14.50623"><ele>143.0</ele><time>2026-04-25T13:17:05.159Z</time></trkpt><trkpt lat="41.03377" lon="14.5061117"><ele>143.0</ele><time>2026-04-25T13:17:06.159Z</time></trkpt><trkpt lat="41.033765" lon="14.5059917"><ele>143.0</ele><time>2026-04-25T13:17:07.158Z</time></trkpt><trkpt lat="41.03376" lon="14.50587"><ele>143.0</ele><time>2026-04-25T13:17:08.159Z</time></trkpt><trkpt lat="41.033755" lon="14.5057467"><ele>143.0</ele><time>2026-04-25T13:17:09.161Z</time></trkpt><trkpt lat="41.03375" lon="14.505625"><ele>143.0</ele><time>2026-04-25T13:17:10.158Z</time></trkpt><trkpt lat="41.0337467" lon="14.5055017"><ele>142.6</ele><time>2026-04-25T13:17:11.158Z</time></trkpt><trkpt lat="41.03374" lon="14.50538"><ele>142.20000000000002</ele><time>2026-04-25T13:17:12.157Z</time></trkpt><trkpt lat="41.0337333" lon="14.5052567"><ele>141.8</ele><time>2026-04-25T13:17:13.158Z</time></trkpt><trkpt lat="41.033725" lon="14.5051333"><ele>141.4</ele><time>2026-04-25T13:17:14.16Z</time></trkpt><trkpt lat="41.03372" lon="14.5050083"><ele>141.0</ele><time>2026-04-25T13:17:15.158Z</time></trkpt><trkpt lat="41.0337167" lon="14.504885"><ele>141.0</ele><time>2026-04-25T13:17:16.16Z</time></trkpt><trkpt lat="41.03371" lon="14.5047617"><ele>141.0</ele><time>2026-04-25T13:17:17.158Z</time></trkpt><trkpt lat="41.0337033" lon="14.5046383"><ele>141.0</ele><time>2026-04-25T13:17:18.162Z</time></trkpt><trkpt lat="41.0336983" lon="14.5045183"><ele>141.0</ele><time>2026-04-25T13:17:19.161Z</time></trkpt><trkpt lat="41.033695" lon="14.5043967"><ele>141.0</ele><time>2026-04-25T13:17:20.158Z</time></trkpt><trkpt lat="41.0336867" lon="14.5042733"><ele>140.4</ele><time>2026-04-25T13:17:21.16Z</time></trkpt><trkpt lat="41.0336783" lon="14.5041483"><ele>139.8</ele><time>2026-04-25T13:17:22.158Z</time></trkpt><trkpt lat="41.0336717" lon="14.5040233"><ele>139.20000000000002</ele><time>2026-04-25T13:17:23.158Z</time></trkpt><trkpt lat="41.033665" lon="14.5038967"><ele>138.6</ele><time>2026-04-25T13:17:24.158Z</time></trkpt><trkpt lat="41.03366" lon="14.5037683"><ele>138.0</ele><time>2026-04-25T13:17:25.158Z</time></trkpt><trkpt lat="41.0336517" lon="14.5036367"><ele>137.6</ele><time>2026-04-25T13:17:26.158Z</time></trkpt><trkpt lat="41.033645" lon="14.503505"><ele>137.20000000000002</ele><time>2026-04-25T13:17:27.158Z</time></trkpt><trkpt lat="41.0336417" lon="14.5033717"><ele>136.8</ele><time>2026-04-25T13:17:28.158Z</time></trkpt><trkpt lat="41.0336367" lon="14.5032333"><ele>136.4</ele><time>2026-04-25T13:17:29.158Z</time></trkpt><trkpt lat="41.0336333" lon="14.5030917"><ele>136.0</ele><time>2026-04-25T13:17:30.161Z</time></trkpt><trkpt lat="41.0336283" lon="14.5029467"><ele>135.6</ele><time>2026-04-25T13:17:31.16Z</time></trkpt><trkpt lat="41.0336217" lon="14.5028"><ele>135.2</ele><time>2026-04-25T13:17:32.16Z</time></trkpt><trkpt lat="41.033615" lon="14.5026533"><ele>134.8</ele><time>2026-04-25T13:17:33.158Z</time></trkpt><trkpt lat="41.03361" lon="14.5025067"><ele>134.4</ele><time>2026-04-25T13:17:34.16Z</time></trkpt><trkpt lat="41.0336033" lon="14.50236"><ele>134.0</ele><time>2026-04-25T13:17:35.159Z</time></trkpt><trkpt lat="41.0335967" lon="14.502215"><ele>133.6</ele><time>2026-04-25T13:17:36.161Z</time></trkpt><trkpt lat="41.0335883" lon="14.5020683"><ele>133.2</ele><time>2026-04-25T13:17:37.16Z</time></trkpt><trkpt lat="41.0335817" lon="14.5019217"><ele>132.79999999999998</ele><time>2026-04-25T13:17:38.159Z</time></trkpt><trkpt lat="41.033575" lon="14.5017767"><ele>132.4</ele><time>2026-04-25T13:17:39.16Z</time></trkpt><trkpt lat="41.0335683" lon="14.5016367"><ele>132.0</ele><time>2026-04-25T13:17:40.158Z</time></trkpt><trkpt lat="41.0335617" lon="14.5014983"><ele>132.0</ele><time>2026-04-25T13:17:41.159Z</time></trkpt><trkpt lat="41.0335583" lon="14.50136"><ele>132.0</ele><time>2026-04-25T13:17:42.157Z</time></trkpt><trkpt lat="41.033555" lon="14.5012167"><ele>132.0</ele><time>2026-04-25T13:17:43.158Z</time></trkpt><trkpt lat="41.0335483" lon="14.501075"><ele>132.0</ele><time>2026-04-25T13:17:44.16Z</time></trkpt><trkpt lat="41.0335433" lon="14.50093"><ele>132.0</ele><time>2026-04-25T13:17:45.159Z</time></trkpt><trkpt lat="41.0335367" lon="14.5007867"><ele>131.6</ele><time>2026-04-25T13:17:46.159Z</time></trkpt><trkpt lat="41.03353" lon="14.5006433"><ele>131.2</ele><time>2026-04-25T13:17:47.159Z</time></trkpt><trkpt lat="41.03352" lon="14.5005033"><ele>130.8</ele><time>2026-04-25T13:17:48.16Z</time></trkpt><trkpt lat="41.03351" lon="14.500365"><ele>130.4</ele><time>2026-04-25T13:17:49.16Z</time></trkpt><trkpt lat="41.0334983" lon="14.500225"><ele>130.0</ele><time>2026-04-25T13:17:50.158Z</time></trkpt><trkpt lat="41.033485" lon="14.5000883"><ele>129.6</ele><time>2026-04-25T13:17:51.159Z</time></trkpt><trkpt lat="41.0334667" lon="14.4999533"><ele>129.2</ele><time>2026-04-25T13:17:52.159Z</time></trkpt><trkpt lat="41.0334467" lon="14.4998167"><ele>128.8</ele><time>2026-04-25T13:17:53.159Z</time></trkpt><trkpt lat="41.0334233" lon="14.4996817"><ele>128.4</ele><time>2026-04-25T13:17:54.161Z</time></trkpt><trkpt lat="41.033395" lon="14.4995433"><ele>128.0</ele><time>2026-04-25T13:17:55.161Z</time></trkpt><trkpt lat="41.0333717" lon="14.4994017"><ele>127.80000000000001</ele><time>2026-04-25T13:17:56.161Z</time></trkpt><trkpt lat="41.0333467" lon="14.4992667"><ele>127.60000000000001</ele><time>2026-04-25T13:17:57.162Z</time></trkpt><trkpt lat="41.033315" lon="14.49913"><ele>127.39999999999999</ele><time>2026-04-25T13:17:58.161Z</time></trkpt><trkpt lat="41.0332783" lon="14.4989967"><ele>127.19999999999999</ele><time>2026-04-25T13:17:59.158Z</time></trkpt><trkpt lat="41.0332383" lon="14.4988667"><ele>127.0</ele><time>2026-04-25T13:18:00.161Z</time></trkpt><trkpt lat="41.0331983" lon="14.4987367"><ele>126.6</ele><time>2026-04-25T13:18:01.161Z</time></trkpt><trkpt lat="41.033155" lon="14.4986083"><ele>126.19999999999999</ele><time>2026-04-25T13:18:02.161Z</time></trkpt><trkpt lat="41.03311" lon="14.4984833"><ele>125.8</ele><time>2026-04-25T13:18:03.161Z</time></trkpt><trkpt lat="41.0330633" lon="14.498355"><ele>125.4</ele><time>2026-04-25T13:18:04.163Z</time></trkpt><trkpt lat="41.033015" lon="14.49823"><ele>125.0</ele><time>2026-04-25T13:18:05.162Z</time></trkpt><trkpt lat="41.0329633" lon="14.4981133"><ele>125.0</ele><time>2026-04-25T13:18:06.163Z</time></trkpt><trkpt lat="41.032915" lon="14.4979967"><ele>125.0</ele><time>2026-04-25T13:18:07.162Z</time></trkpt><trkpt lat="41.0328633" lon="14.4978783"><ele>125.0</ele><time>2026-04-25T13:18:08.161Z</time></trkpt><trkpt lat="41.0328133" lon="14.4977667"><ele>125.0</ele><time>2026-04-25T13:18:09.162Z</time></trkpt><trkpt lat="41.032765" lon="14.4976583"><ele>125.0</ele><time>2026-04-25T13:18:10.162Z</time></trkpt><trkpt lat="41.032715" lon="14.4975517"><ele>124.8</ele><time>2026-04-25T13:18:11.16Z</time></trkpt><trkpt lat="41.032665" lon="14.4974417"><ele>124.6</ele><time>2026-04-25T13:18:12.161Z</time></trkpt><trkpt lat="41.0326167" lon="14.4973333"><ele>124.4</ele><time>2026-04-25T13:18:13.163Z</time></trkpt><trkpt lat="41.0325683" lon="14.497225"><ele>124.2</ele><time>2026-04-25T13:18:14.164Z</time></trkpt><trkpt lat="41.0325167" lon="14.4971183"><ele>124.0</ele><time>2026-04-25T13:18:15.16Z</time></trkpt><trkpt lat="41.0324667" lon="14.4970067"><ele>123.4</ele><time>2026-04-25T13:18:16.161Z</time></trkpt><trkpt lat="41.0324133" lon="14.496895"><ele>122.80000000000001</ele><time>2026-04-25T13:18:17.158Z</time></trkpt><trkpt lat="41.0323617" lon="14.4967817"><ele>122.19999999999999</ele><time>2026-04-25T13:18:18.161Z</time></trkpt><trkpt lat="41.0323083" lon="14.49667"><ele>121.6</ele><time>2026-04-25T13:18:19.162Z</time></trkpt><trkpt lat="41.0322567" lon="14.4965533"><ele>121.0</ele><time>2026-04-25T13:18:20.162Z</time></trkpt><trkpt lat="41.032205" lon="14.4964367"><ele>121.0</ele><time>2026-04-25T13:18:21.161Z</time></trkpt><trkpt lat="41.032155" lon="14.496325"><ele>121.0</ele><time>2026-04-25T13:18:22.162Z</time></trkpt><trkpt lat="41.032105" lon="14.4962133"><ele>121.0</ele><time>2026-04-25T13:18:23.16Z</time></trkpt><trkpt lat="41.0320533" lon="14.4961033"><ele>121.0</ele><time>2026-04-25T13:18:24.161Z</time></trkpt><trkpt lat="41.0320017" lon="14.49599"><ele>121.0</ele><time>2026-04-25T13:18:25.161Z</time></trkpt><trkpt lat="41.031955" lon="14.4958783"><ele>120.6</ele><time>2026-04-25T13:18:26.161Z</time></trkpt><trkpt lat="41.0319067" lon="14.4957717"><ele>120.19999999999999</ele><time>2026-04-25T13:18:27.16Z</time></trkpt><trkpt lat="41.03186" lon="14.4956633"><ele>119.80000000000001</ele><time>2026-04-25T13:18:28.161Z</time></trkpt><trkpt lat="41.0318133" lon="14.4955567"><ele>119.4</ele><time>2026-04-25T13:18:29.161Z</time></trkpt><trkpt lat="41.0317683" lon="14.49545"><ele>119.0</ele><time>2026-04-25T13:18:30.161Z</time></trkpt><trkpt lat="41.031725" lon="14.4953433"><ele>119.0</ele><time>2026-04-25T13:18:31.161Z</time></trkpt><trkpt lat="41.0316817" lon="14.495235"><ele>119.0</ele><time>2026-04-25T13:18:32.162Z</time></trkpt><trkpt lat="41.0316367" lon="14.49513"><ele>119.0</ele><time>2026-04-25T13:18:33.162Z</time></trkpt><trkpt lat="41.0315933" lon="14.495025"><ele>119.0</ele><time>2026-04-25T13:18:34.161Z</time></trkpt><trkpt lat="41.03155" lon="14.4949167"><ele>119.0</ele><time>2026-04-25T13:18:35.162Z</time></trkpt><trkpt lat="41.031505" lon="14.4948117"><ele>118.80000000000001</ele><time>2026-04-25T13:18:36.161Z</time></trkpt><trkpt lat="41.0314583" lon="14.4947017"><ele>118.60000000000001</ele><time>2026-04-25T13:18:37.161Z</time></trkpt><trkpt lat="41.0314133" lon="14.494595"><ele>118.4</ele><time>2026-04-25T13:18:38.162Z</time></trkpt><trkpt lat="41.03137" lon="14.494485"><ele>118.2</ele><time>2026-04-25T13:18:39.161Z</time></trkpt><trkpt lat="41.0313267" lon="14.4943783"><ele>118.0</ele><time>2026-04-25T13:18:40.162Z</time></trkpt><trkpt lat="41.0312833" lon="14.4942733"><ele>117.66666666666667</ele><time>2026-04-25T13:18:41.159Z</time></trkpt><trkpt lat="41.0312417" lon="14.49417"><ele>117.33333333333334</ele><time>2026-04-25T13:18:42.16Z</time></trkpt><trkpt lat="41.0311967" lon="14.494065"><ele>117.0</ele><time>2026-04-25T13:18:43.159Z</time></trkpt><trkpt lat="41.03115" lon="14.4939617"><ele>116.66666666666666</ele><time>2026-04-25T13:18:44.159Z</time></trkpt><trkpt lat="41.031105" lon="14.4938583"><ele>116.33333333333333</ele><time>2026-04-25T13:18:45.158Z</time></trkpt><trkpt lat="41.0310617" lon="14.493755"><ele>116.0</ele><time>2026-04-25T13:18:46.16Z</time></trkpt><trkpt lat="41.031015" lon="14.493655"><ele>115.99999999999999</ele><time>2026-04-25T13:18:47.159Z</time></trkpt><trkpt lat="41.03097" lon="14.4935567"><ele>116.0</ele><time>2026-04-25T13:18:48.162Z</time></trkpt><trkpt lat="41.030925" lon="14.4934567"><ele>116.0</ele><time>2026-04-25T13:18:49.158Z</time></trkpt><trkpt lat="41.0308833" lon="14.493355"><ele>116.0</ele><time>2026-04-25T13:18:50.162Z</time></trkpt><trkpt lat="41.03084" lon="14.4932517"><ele>115.99999999999999</ele><time>2026-04-25T13:18:51.158Z</time></trkpt><trkpt lat="41.0307967" lon="14.4931517"><ele>116.0</ele><time>2026-04-25T13:18:52.161Z</time></trkpt><trkpt lat="41.030755" lon="14.4930467"><ele>115.4</ele><time>2026-04-25T13:18:53.158Z</time></trkpt><trkpt lat="41.0307133" lon="14.49294"><ele>114.8</ele><time>2026-04-25T13:18:54.161Z</time></trkpt><trkpt lat="41.0306733" lon="14.4928317"><ele>114.20000000000002</ele><time>2026-04-25T13:18:55.161Z</time></trkpt><trkpt lat="41.0306333" lon="14.492725"><ele>113.60000000000001</ele><time>2026-04-25T13:18:56.158Z</time></trkpt><trkpt lat="41.030595" lon="14.4926183"><ele>113.0</ele><time>2026-04-25T13:18:57.158Z</time></trkpt><trkpt lat="41.03056" lon="14.4925067"><ele>113.0</ele><time>2026-04-25T13:18:58.159Z</time></trkpt><trkpt lat="41.0305283" lon="14.49239"><ele>113.00000000000001</ele><time>2026-04-25T13:18:59.162Z</time></trkpt><trkpt lat="41.0305017" lon="14.4922783"><ele>113.00000000000001</ele><time>2026-04-25T13:19:00.161Z</time></trkpt><trkpt lat="41.0304767" lon="14.4921633"><ele>113.0</ele><time>2026-04-25T13:19:01.16Z</time></trkpt><trkpt lat="41.030455" lon="14.4920467"><ele>113.0</ele><time>2026-04-25T13:19:02.162Z</time></trkpt><trkpt lat="41.030435" lon="14.49193"><ele>113.0</ele><time>2026-04-25T13:19:03.159Z</time></trkpt><trkpt lat="41.030415" lon="14.4918117"><ele>113.00000000000001</ele><time>2026-04-25T13:19:04.16Z</time></trkpt><trkpt lat="41.0303967" lon="14.4916967"><ele>113.00000000000001</ele><time>2026-04-25T13:19:05.158Z</time></trkpt><trkpt lat="41.0303783" lon="14.4915783"><ele>113.0</ele><time>2026-04-25T13:19:06.16Z</time></trkpt><trkpt lat="41.0303583" lon="14.4914617"><ele>113.0</ele><time>2026-04-25T13:19:07.158Z</time></trkpt><trkpt lat="41.03034" lon="14.4913433"><ele>112.80000000000001</ele><time>2026-04-25T13:19:08.159Z</time></trkpt><trkpt lat="41.0303217" lon="14.491225"><ele>112.60000000000001</ele><time>2026-04-25T13:19:09.16Z</time></trkpt><trkpt lat="41.0303017" lon="14.491105"><ele>112.39999999999999</ele><time>2026-04-25T13:19:10.158Z</time></trkpt><trkpt lat="41.030285" lon="14.4909833"><ele>112.19999999999999</ele><time>2026-04-25T13:19:11.16Z</time></trkpt><trkpt lat="41.030265" lon="14.4908633"><ele>112.0</ele><time>2026-04-25T13:19:12.161Z</time></trkpt><trkpt lat="41.0302467" lon="14.4907433"><ele>112.0</ele><time>2026-04-25T13:19:13.159Z</time></trkpt><trkpt lat="41.0302283" lon="14.490625"><ele>111.99999999999999</ele><time>2026-04-25T13:19:14.16Z</time></trkpt><trkpt lat="41.0302117" lon="14.4905067"><ele>111.99999999999999</ele><time>2026-04-25T13:19:15.158Z</time></trkpt><trkpt lat="41.0301917" lon="14.4903867"><ele>112.0</ele><time>2026-04-25T13:19:16.159Z</time></trkpt><trkpt lat="41.03017" lon="14.4902683"><ele>112.0</ele><time>2026-04-25T13:19:17.158Z</time></trkpt><trkpt lat="41.0301483" lon="14.49015"><ele>111.6</ele><time>2026-04-25T13:19:18.161Z</time></trkpt><trkpt lat="41.0301267" lon="14.49003"><ele>111.19999999999999</ele><time>2026-04-25T13:19:19.159Z</time></trkpt><trkpt lat="41.03011" lon="14.48991"><ele>110.8</ele><time>2026-04-25T13:19:20.16Z</time></trkpt><trkpt lat="41.03009" lon="14.4897883"><ele>110.4</ele><time>2026-04-25T13:19:21.161Z</time></trkpt><trkpt lat="41.03007" lon="14.4896667"><ele>110.0</ele><time>2026-04-25T13:19:22.158Z</time></trkpt><trkpt lat="41.03005" lon="14.489545"><ele>109.4</ele><time>2026-04-25T13:19:23.158Z</time></trkpt><trkpt lat="41.0300283" lon="14.489425"><ele>108.8</ele><time>2026-04-25T13:19:24.161Z</time></trkpt><trkpt lat="41.030005" lon="14.4893033"><ele>108.19999999999999</ele><time>2026-04-25T13:19:25.159Z</time></trkpt><trkpt lat="41.029985" lon="14.4891817"><ele>107.6</ele><time>2026-04-25T13:19:26.159Z</time></trkpt><trkpt lat="41.0299667" lon="14.48906"><ele>107.0</ele><time>2026-04-25T13:19:27.158Z</time></trkpt><trkpt lat="41.02995" lon="14.4889367"><ele>106.8</ele><time>2026-04-25T13:19:28.162Z</time></trkpt><trkpt lat="41.0299317" lon="14.4888167"><ele>106.6</ele><time>2026-04-25T13:19:29.159Z</time></trkpt><trkpt lat="41.02991" lon="14.488695"><ele>106.39999999999999</ele><time>2026-04-25T13:19:30.159Z</time></trkpt><trkpt lat="41.02989" lon="14.4885733"><ele>106.19999999999999</ele><time>2026-04-25T13:19:31.159Z</time></trkpt><trkpt lat="41.0298683" lon="14.488455"><ele>106.0</ele><time>2026-04-25T13:19:32.162Z</time></trkpt><trkpt lat="41.02985" lon="14.4883333"><ele>106.00000000000001</ele><time>2026-04-25T13:19:33.16Z</time></trkpt><trkpt lat="41.0298283" lon="14.4882183"><ele>106.0</ele><time>2026-04-25T13:19:34.161Z</time></trkpt><trkpt lat="41.0298083" lon="14.4881017"><ele>106.0</ele><time>2026-04-25T13:19:35.161Z</time></trkpt><trkpt lat="41.0297933" lon="14.487985"><ele>106.0</ele><time>2026-04-25T13:19:36.162Z</time></trkpt><trkpt lat="41.0297783" lon="14.4878667"><ele>106.00000000000001</ele><time>2026-04-25T13:19:37.159Z</time></trkpt><trkpt lat="41.0297633" lon="14.4877533"><ele>106.0</ele><time>2026-04-25T13:19:38.16Z</time></trkpt><trkpt lat="41.0297517" lon="14.48764"><ele>105.83333333333334</ele><time>2026-04-25T13:19:39.161Z</time></trkpt><trkpt lat="41.02974" lon="14.487525"><ele>105.66666666666667</ele><time>2026-04-25T13:19:40.158Z</time></trkpt><trkpt lat="41.02973" lon="14.4874083"><ele>105.5</ele><time>2026-04-25T13:19:41.159Z</time></trkpt><trkpt lat="41.0297233" lon="14.48729"><ele>105.33333333333334</ele><time>2026-04-25T13:19:42.157Z</time></trkpt><trkpt lat="41.029715" lon="14.4871717"><ele>105.16666666666667</ele><time>2026-04-25T13:19:43.159Z</time></trkpt><trkpt lat="41.02971" lon="14.4870533"><ele>105.0</ele><time>2026-04-25T13:19:44.16Z</time></trkpt><trkpt lat="41.0297033" lon="14.4869333"><ele>104.66666666666667</ele><time>2026-04-25T13:19:45.158Z</time></trkpt><trkpt lat="41.0296967" lon="14.4868167"><ele>104.33333333333334</ele><time>2026-04-25T13:19:46.158Z</time></trkpt><trkpt lat="41.0296867" lon="14.4867"><ele>104.0</ele><time>2026-04-25T13:19:47.159Z</time></trkpt><trkpt lat="41.029675" lon="14.4865833"><ele>103.66666666666667</ele><time>2026-04-25T13:19:48.162Z</time></trkpt><trkpt lat="41.029665" lon="14.4864667"><ele>103.33333333333334</ele><time>2026-04-25T13:19:49.162Z</time></trkpt><trkpt lat="41.0296583" lon="14.486355"><ele>103.0</ele><time>2026-04-25T13:19:50.158Z</time></trkpt><trkpt lat="41.0296583" lon="14.4862433"><ele>103.00000000000001</ele><time>2026-04-25T13:19:51.159Z</time></trkpt><trkpt lat="41.0296633" lon="14.4861383"><ele>103.0</ele><time>2026-04-25T13:19:52.158Z</time></trkpt><trkpt lat="41.0296633" lon="14.4860367"><ele>103.0</ele><time>2026-04-25T13:19:53.16Z</time></trkpt><trkpt lat="41.0296483" lon="14.4859417"><ele>103.0</ele><time>2026-04-25T13:19:54.161Z</time></trkpt><trkpt lat="41.0296167" lon="14.4858483"><ele>103.00000000000001</ele><time>2026-04-25T13:19:55.162Z</time></trkpt><trkpt lat="41.029585" lon="14.4857567"><ele>103.0</ele><time>2026-04-25T13:19:56.162Z</time></trkpt><trkpt lat="41.0295567" lon="14.48566"><ele>103.00000000000001</ele><time>2026-04-25T13:19:57.159Z</time></trkpt><trkpt lat="41.0295367" lon="14.4855617"><ele>103.0</ele><time>2026-04-25T13:19:58.161Z</time></trkpt><trkpt lat="41.02952" lon="14.4854667"><ele>103.0</ele><time>2026-04-25T13:19:59.161Z</time></trkpt><trkpt lat="41.0295083" lon="14.485365"><ele>103.0</ele><time>2026-04-25T13:20:00.158Z</time></trkpt><trkpt lat="41.029495" lon="14.485265"><ele>103.00000000000001</ele><time>2026-04-25T13:20:01.163Z</time></trkpt><trkpt lat="41.029475" lon="14.4851667"><ele>103.0</ele><time>2026-04-25T13:20:02.161Z</time></trkpt><trkpt lat="41.0294517" lon="14.4850633"><ele>103.00000000000001</ele><time>2026-04-25T13:20:03.158Z</time></trkpt><trkpt lat="41.029425" lon="14.4849617"><ele>103.0</ele><time>2026-04-25T13:20:04.162Z</time></trkpt><trkpt lat="41.029395" lon="14.4848633"><ele>103.0</ele><time>2026-04-25T13:20:05.158Z</time></trkpt><trkpt lat="41.0293617" lon="14.4847683"><ele>103.0</ele><time>2026-04-25T13:20:06.158Z</time></trkpt><trkpt lat="41.0293267" lon="14.4846683"><ele>103.00000000000001</ele><time>2026-04-25T13:20:07.159Z</time></trkpt><trkpt lat="41.02929" lon="14.4845683"><ele>103.0</ele><time>2026-04-25T13:20:08.161Z</time></trkpt><trkpt lat="41.02925" lon="14.4844667"><ele>103.00000000000001</ele><time>2026-04-25T13:20:09.158Z</time></trkpt><trkpt lat="41.0292083" lon="14.4843683"><ele>103.0</ele><time>2026-04-25T13:20:10.158Z</time></trkpt><trkpt lat="41.0291667" lon="14.4842717"><ele>103.0</ele><time>2026-04-25T13:20:11.161Z</time></trkpt><trkpt lat="41.0291217" lon="14.4841767"><ele>103.0</ele><time>2026-04-25T13:20:12.161Z</time></trkpt><trkpt lat="41.0290783" lon="14.48408"><ele>103.00000000000001</ele><time>2026-04-25T13:20:13.16Z</time></trkpt><trkpt lat="41.029035" lon="14.4839867"><ele>103.0</ele><time>2026-04-25T13:20:14.16Z</time></trkpt><trkpt lat="41.02899" lon="14.4838933"><ele>102.50000000000001</ele><time>2026-04-25T13:20:15.163Z</time></trkpt><trkpt lat="41.0289417" lon="14.4837967"><ele>102.0</ele><time>2026-04-25T13:20:16.162Z</time></trkpt><trkpt lat="41.0288917" lon="14.4836933"><ele>101.5</ele><time>2026-04-25T13:20:17.162Z</time></trkpt><trkpt lat="41.0288433" lon="14.4835917"><ele>101.0</ele><time>2026-04-25T13:20:18.16Z</time></trkpt><trkpt lat="41.0287967" lon="14.4834933"><ele>100.50000000000001</ele><time>2026-04-25T13:20:19.161Z</time></trkpt><trkpt lat="41.0287483" lon="14.4833917"><ele>100.0</ele><time>2026-04-25T13:20:20.162Z</time></trkpt><trkpt lat="41.0286983" lon="14.4832883"><ele>100.0</ele><time>2026-04-25T13:20:21.16Z</time></trkpt><trkpt lat="41.028645" lon="14.4831883"><ele>100.0</ele><time>2026-04-25T13:20:22.16Z</time></trkpt><trkpt lat="41.0285917" lon="14.4830867"><ele>100.0</ele><time>2026-04-25T13:20:23.159Z</time></trkpt><trkpt lat="41.02854" lon="14.4829833"><ele>100.0</ele><time>2026-04-25T13:20:24.162Z</time></trkpt><trkpt lat="41.02849" lon="14.48288"><ele>100.0</ele><time>2026-04-25T13:20:25.16Z</time></trkpt><trkpt lat="41.0284417" lon="14.4827783"><ele>99.6</ele><time>2026-04-25T13:20:26.16Z</time></trkpt><trkpt lat="41.0283933" lon="14.4826783"><ele>99.2</ele><time>2026-04-25T13:20:27.158Z</time></trkpt><trkpt lat="41.0283433" lon="14.4825767"><ele>98.80000000000001</ele><time>2026-04-25T13:20:28.157Z</time></trkpt><trkpt lat="41.0282967" lon="14.4824733"><ele>98.4</ele><time>2026-04-25T13:20:29.162Z</time></trkpt><trkpt lat="41.0282483" lon="14.48237"><ele>98.0</ele><time>2026-04-25T13:20:30.16Z</time></trkpt><trkpt lat="41.0281983" lon="14.4822667"><ele>97.60000000000001</ele><time>2026-04-25T13:20:31.161Z</time></trkpt><trkpt lat="41.0281467" lon="14.4821617"><ele>97.2</ele><time>2026-04-25T13:20:32.16Z</time></trkpt><trkpt lat="41.028095" lon="14.48206"><ele>96.8</ele><time>2026-04-25T13:20:33.161Z</time></trkpt><trkpt lat="41.0280433" lon="14.4819583"><ele>96.4</ele><time>2026-04-25T13:20:34.161Z</time></trkpt><trkpt lat="41.02799" lon="14.4818533"><ele>96.0</ele><time>2026-04-25T13:20:35.16Z</time></trkpt><trkpt lat="41.027935" lon="14.4817533"><ele>95.6</ele><time>2026-04-25T13:20:36.161Z</time></trkpt><trkpt lat="41.0278817" lon="14.4816517"><ele>95.19999999999999</ele><time>2026-04-25T13:20:37.161Z</time></trkpt><trkpt lat="41.02783" lon="14.4815483"><ele>94.80000000000001</ele><time>2026-04-25T13:20:38.162Z</time></trkpt><trkpt lat="41.0277783" lon="14.4814433"><ele>94.4</ele><time>2026-04-25T13:20:39.159Z</time></trkpt><trkpt lat="41.027725" lon="14.4813383"><ele>94.0</ele><time>2026-04-25T13:20:40.157Z</time></trkpt><trkpt lat="41.027675" lon="14.4812317"><ele>93.80000000000001</ele><time>2026-04-25T13:20:41.161Z</time></trkpt><trkpt lat="41.0276233" lon="14.4811283"><ele>93.60000000000001</ele><time>2026-04-25T13:20:42.159Z</time></trkpt><trkpt lat="41.0275733" lon="14.4810217"><ele>93.4</ele><time>2026-04-25T13:20:43.16Z</time></trkpt><trkpt lat="41.0275217" lon="14.480915"><ele>93.2</ele><time>2026-04-25T13:20:44.161Z</time></trkpt><trkpt lat="41.0274683" lon="14.48081"><ele>93.0</ele><time>2026-04-25T13:20:45.161Z</time></trkpt><trkpt lat="41.027415" lon="14.480705"><ele>92.4</ele><time>2026-04-25T13:20:46.16Z</time></trkpt><trkpt lat="41.0273617" lon="14.480605"><ele>91.80000000000001</ele><time>2026-04-25T13:20:47.16Z</time></trkpt><trkpt lat="41.02731" lon="14.4805033"><ele>91.2</ele><time>2026-04-25T13:20:48.159Z</time></trkpt><trkpt lat="41.0272617" lon="14.4804"><ele>90.6</ele><time>2026-04-25T13:20:49.16Z</time></trkpt><trkpt lat="41.0272117" lon="14.480295"><ele>90.0</ele><time>2026-04-25T13:20:50.16Z</time></trkpt><trkpt lat="41.0271617" lon="14.48019"><ele>90.0</ele><time>2026-04-25T13:20:51.161Z</time></trkpt><trkpt lat="41.0271117" lon="14.4800817"><ele>90.0</ele><time>2026-04-25T13:20:52.16Z</time></trkpt><trkpt lat="41.02706" lon="14.4799767"><ele>90.0</ele><time>2026-04-25T13:20:53.157Z</time></trkpt><trkpt lat="41.0270083" lon="14.4798733"><ele>90.0</ele><time>2026-04-25T13:20:54.16Z</time></trkpt><trkpt lat="41.0269583" lon="14.4797717"><ele>90.0</ele><time>2026-04-25T13:20:55.161Z</time></trkpt><trkpt lat="41.0269083" lon="14.4796683"><ele>90.0</ele><time>2026-04-25T13:20:56.159Z</time></trkpt><trkpt lat="41.0268583" lon="14.479565"><ele>90.0</ele><time>2026-04-25T13:20:57.159Z</time></trkpt><trkpt lat="41.0268083" lon="14.479465"><ele>90.0</ele><time>2026-04-25T13:20:58.157Z</time></trkpt><trkpt lat="41.0267567" lon="14.4793667"><ele>90.0</ele><time>2026-04-25T13:20:59.162Z</time></trkpt><trkpt lat="41.026705" lon="14.4792633"><ele>90.0</ele><time>2026-04-25T13:21:00.16Z</time></trkpt><trkpt lat="41.0266533" lon="14.479155"><ele>89.0</ele><time>2026-04-25T13:21:01.159Z</time></trkpt><trkpt lat="41.0266033" lon="14.47905"><ele>88.0</ele><time>2026-04-25T13:21:02.158Z</time></trkpt><trkpt lat="41.0265533" lon="14.4789467"><ele>87.0</ele><time>2026-04-25T13:21:03.158Z</time></trkpt><trkpt lat="41.026505" lon="14.4788383"><ele>86.0</ele><time>2026-04-25T13:21:04.16Z</time></trkpt><trkpt lat="41.0264567" lon="14.4787333"><ele>85.0</ele><time>2026-04-25T13:21:05.162Z</time></trkpt><trkpt lat="41.0264133" lon="14.47862"><ele>84.6</ele><time>2026-04-25T13:21:06.157Z</time></trkpt><trkpt lat="41.0263767" lon="14.4785033"><ele>84.2</ele><time>2026-04-25T13:21:07.16Z</time></trkpt><trkpt lat="41.026345" lon="14.4783817"><ele>83.80000000000001</ele><time>2026-04-25T13:21:08.16Z</time></trkpt><trkpt lat="41.0263183" lon="14.4782567"><ele>83.4</ele><time>2026-04-25T13:21:09.157Z</time></trkpt><trkpt lat="41.0263017" lon="14.4781283"><ele>83.0</ele><time>2026-04-25T13:21:10.157Z</time></trkpt><trkpt lat="41.0262867" lon="14.4780033"><ele>83.2</ele><time>2026-04-25T13:21:11.16Z</time></trkpt><trkpt lat="41.0262783" lon="14.4778783"><ele>83.4</ele><time>2026-04-25T13:21:12.158Z</time></trkpt><trkpt lat="41.0262733" lon="14.4777517"><ele>83.60000000000001</ele><time>2026-04-25T13:21:13.159Z</time></trkpt><trkpt lat="41.02627" lon="14.4776267"><ele>83.80000000000001</ele><time>2026-04-25T13:21:14.159Z</time></trkpt><trkpt lat="41.0262683" lon="14.4774983"><ele>84.0</ele><time>2026-04-25T13:21:15.159Z</time></trkpt><trkpt lat="41.026265" lon="14.4773733"><ele>84.0</ele><time>2026-04-25T13:21:16.156Z</time></trkpt><trkpt lat="41.0262633" lon="14.4772483"><ele>84.0</ele><time>2026-04-25T13:21:17.159Z</time></trkpt><trkpt lat="41.02626" lon="14.4771267"><ele>84.0</ele><time>2026-04-25T13:21:18.16Z</time></trkpt><trkpt lat="41.0262567" lon="14.4770033"><ele>84.0</ele><time>2026-04-25T13:21:19.158Z</time></trkpt><trkpt lat="41.02625" lon="14.4768783"><ele>84.0</ele><time>2026-04-25T13:21:20.161Z</time></trkpt><trkpt lat="41.0262417" lon="14.4767533"><ele>84.2</ele><time>2026-04-25T13:21:21.159Z</time></trkpt><trkpt lat="41.0262367" lon="14.4766267"><ele>84.4</ele><time>2026-04-25T13:21:22.159Z</time></trkpt><trkpt lat="41.026235" lon="14.4765"><ele>84.6</ele><time>2026-04-25T13:21:23.159Z</time></trkpt><trkpt lat="41.0262333" lon="14.4763717"><ele>84.8</ele><time>2026-04-25T13:21:24.161Z</time></trkpt><trkpt lat="41.0262317" lon="14.4762433"><ele>85.0</ele><time>2026-04-25T13:21:25.159Z</time></trkpt><trkpt lat="41.0262317" lon="14.4761167"><ele>85.0</ele><time>2026-04-25T13:21:26.159Z</time></trkpt><trkpt lat="41.0262283" lon="14.4759917"><ele>85.0</ele><time>2026-04-25T13:21:27.159Z</time></trkpt><trkpt lat="41.0262283" lon="14.47587"><ele>85.0</ele><time>2026-04-25T13:21:28.159Z</time></trkpt><trkpt lat="41.0262283" lon="14.47575"><ele>85.0</ele><time>2026-04-25T13:21:29.159Z</time></trkpt><trkpt lat="41.026225" lon="14.47563"><ele>85.0</ele><time>2026-04-25T13:21:30.159Z</time></trkpt><trkpt lat="41.0262233" lon="14.4755083"><ele>84.8</ele><time>2026-04-25T13:21:31.16Z</time></trkpt><trkpt lat="41.0262217" lon="14.475385"><ele>84.6</ele><time>2026-04-25T13:21:32.16Z</time></trkpt><trkpt lat="41.0262167" lon="14.4752617"><ele>84.4</ele><time>2026-04-25T13:21:33.158Z</time></trkpt><trkpt lat="41.02621" lon="14.4751417"><ele>84.2</ele><time>2026-04-25T13:21:34.158Z</time></trkpt><trkpt lat="41.0262033" lon="14.4750233"><ele>84.0</ele><time>2026-04-25T13:21:35.16Z</time></trkpt><trkpt lat="41.0261933" lon="14.474905"><ele>84.0</ele><time>2026-04-25T13:21:36.159Z</time></trkpt><trkpt lat="41.0261783" lon="14.4747933"><ele>84.0</ele><time>2026-04-25T13:21:37.16Z</time></trkpt><trkpt lat="41.0261633" lon="14.4746783"><ele>84.0</ele><time>2026-04-25T13:21:38.16Z</time></trkpt><trkpt lat="41.02614" lon="14.4745683"><ele>84.0</ele><time>2026-04-25T13:21:39.158Z</time></trkpt><trkpt lat="41.0261117" lon="14.4744617"><ele>84.0</ele><time>2026-04-25T13:21:40.157Z</time></trkpt><trkpt lat="41.0260817" lon="14.4743583"><ele>84.0</ele><time>2026-04-25T13:21:41.157Z</time></trkpt><trkpt lat="41.0260483" lon="14.4742533"><ele>84.0</ele><time>2026-04-25T13:21:42.158Z</time></trkpt><trkpt lat="41.026015" lon="14.474145"><ele>84.0</ele><time>2026-04-25T13:21:43.158Z</time></trkpt><trkpt lat="41.0259767" lon="14.47404"><ele>84.0</ele><time>2026-04-25T13:21:44.159Z</time></trkpt><trkpt lat="41.0259383" lon="14.4739333"><ele>84.0</ele><time>2026-04-25T13:21:45.159Z</time></trkpt><trkpt lat="41.0258967" lon="14.473825"><ele>84.0</ele><time>2026-04-25T13:21:46.159Z</time></trkpt><trkpt lat="41.0258567" lon="14.4737167"><ele>84.0</ele><time>2026-04-25T13:21:47.158Z</time></trkpt><trkpt lat="41.025815" lon="14.4736067"><ele>83.4</ele><time>2026-04-25T13:21:48.17Z</time></trkpt><trkpt lat="41.0257733" lon="14.4734933"><ele>82.80000000000001</ele><time>2026-04-25T13:21:49.158Z</time></trkpt><trkpt lat="41.02573" lon="14.47338"><ele>82.19999999999999</ele><time>2026-04-25T13:21:50.158Z</time></trkpt><trkpt lat="41.0256867" lon="14.4732667"><ele>81.6</ele><time>2026-04-25T13:21:51.158Z</time></trkpt><trkpt lat="41.025645" lon="14.47315"><ele>81.0</ele><time>2026-04-25T13:21:52.158Z</time></trkpt><trkpt lat="41.0256033" lon="14.4730317"><ele>80.8</ele><time>2026-04-25T13:21:53.159Z</time></trkpt><trkpt lat="41.0255617" lon="14.47291"><ele>80.6</ele><time>2026-04-25T13:21:54.159Z</time></trkpt><trkpt lat="41.0255233" lon="14.4727883"><ele>80.4</ele><time>2026-04-25T13:21:55.157Z</time></trkpt><trkpt lat="41.02549" lon="14.472665"><ele>80.2</ele><time>2026-04-25T13:21:56.16Z</time></trkpt><trkpt lat="41.0254617" lon="14.4725383"><ele>80.0</ele><time>2026-04-25T13:21:57.159Z</time></trkpt><trkpt lat="41.0254367" lon="14.472405"><ele>80.0</ele><time>2026-04-25T13:21:58.158Z</time></trkpt><trkpt lat="41.0254167" lon="14.4722733"><ele>80.0</ele><time>2026-04-25T13:21:59.16Z</time></trkpt><trkpt lat="41.0254" lon="14.47214"><ele>80.0</ele><time>2026-04-25T13:22:00.16Z</time></trkpt><trkpt lat="41.0253917" lon="14.472005"><ele>80.0</ele><time>2026-04-25T13:22:01.161Z</time></trkpt><trkpt lat="41.0253867" lon="14.4718767"><ele>80.0</ele><time>2026-04-25T13:22:02.162Z</time></trkpt><trkpt lat="41.0253867" lon="14.4717433"><ele>79.8</ele><time>2026-04-25T13:22:03.159Z</time></trkpt><trkpt lat="41.0253867" lon="14.4716117"><ele>79.6</ele><time>2026-04-25T13:22:04.16Z</time></trkpt><trkpt lat="41.0253883" lon="14.4714783"><ele>79.4</ele><time>2026-04-25T13:22:05.161Z</time></trkpt><trkpt lat="41.02539" lon="14.4713467"><ele>79.2</ele><time>2026-04-25T13:22:06.161Z</time></trkpt><trkpt lat="41.025395" lon="14.47121"><ele>79.0</ele><time>2026-04-25T13:22:07.16Z</time></trkpt><trkpt lat="41.0253933" lon="14.4710733"><ele>79.0</ele><time>2026-04-25T13:22:08.161Z</time></trkpt><trkpt lat="41.025395" lon="14.470935"><ele>79.0</ele><time>2026-04-25T13:22:09.16Z</time></trkpt><trkpt lat="41.0254" lon="14.4707967"><ele>79.0</ele><time>2026-04-25T13:22:10.16Z</time></trkpt><trkpt lat="41.0254" lon="14.4706583"><ele>79.0</ele><time>2026-04-25T13:22:11.161Z</time></trkpt><trkpt lat="41.0254017" lon="14.4705283"><ele>79.0</ele><time>2026-04-25T13:22:12.16Z</time></trkpt><trkpt lat="41.025405" lon="14.4703983"><ele>78.8</ele><time>2026-04-25T13:22:13.16Z</time></trkpt><trkpt lat="41.0254067" lon="14.4702717"><ele>78.60000000000001</ele><time>2026-04-25T13:22:14.16Z</time></trkpt><trkpt lat="41.0254083" lon="14.4701467"><ele>78.4</ele><time>2026-04-25T13:22:15.161Z</time></trkpt><trkpt lat="41.0254117" lon="14.4700217"><ele>78.2</ele><time>2026-04-25T13:22:16.16Z</time></trkpt><trkpt lat="41.0254133" lon="14.4699"><ele>78.0</ele><time>2026-04-25T13:22:17.159Z</time></trkpt><trkpt lat="41.025415" lon="14.469775"><ele>78.0</ele><time>2026-04-25T13:22:18.157Z</time></trkpt><trkpt lat="41.0254167" lon="14.46965"><ele>78.0</ele><time>2026-04-25T13:22:19.158Z</time></trkpt><trkpt lat="41.0254183" lon="14.4695217"><ele>78.0</ele><time>2026-04-25T13:22:20.159Z</time></trkpt><trkpt lat="41.0254233" lon="14.4693883"><ele>78.0</ele><time>2026-04-25T13:22:21.16Z</time></trkpt><trkpt lat="41.0254333" lon="14.4692583"><ele>78.0</ele><time>2026-04-25T13:22:22.159Z</time></trkpt><trkpt lat="41.025445" lon="14.4691233"><ele>78.0</ele><time>2026-04-25T13:22:23.158Z</time></trkpt><trkpt lat="41.02546" lon="14.4689917"><ele>78.0</ele><time>2026-04-25T13:22:24.158Z</time></trkpt><trkpt lat="41.025475" lon="14.4688583"><ele>78.0</ele><time>2026-04-25T13:22:25.157Z</time></trkpt><trkpt lat="41.0254933" lon="14.468725"><ele>78.0</ele><time>2026-04-25T13:22:26.16Z</time></trkpt><trkpt lat="41.0255167" lon="14.468595"><ele>78.0</ele><time>2026-04-25T13:22:27.159Z</time></trkpt><trkpt lat="41.0255433" lon="14.468465"><ele>77.6</ele><time>2026-04-25T13:22:28.158Z</time></trkpt><trkpt lat="41.0255667" lon="14.468335"><ele>77.19999999999999</ele><time>2026-04-25T13:22:29.159Z</time></trkpt><trkpt lat="41.0255933" lon="14.4682067"><ele>76.8</ele><time>2026-04-25T13:22:30.158Z</time></trkpt><trkpt lat="41.02562" lon="14.4680717"><ele>76.39999999999999</ele><time>2026-04-25T13:22:31.157Z</time></trkpt><trkpt lat="41.025645" lon="14.46794"><ele>76.0</ele><time>2026-04-25T13:22:32.16Z</time></trkpt><trkpt lat="41.02567" lon="14.4678133"><ele>75.39999999999999</ele><time>2026-04-25T13:22:33.157Z</time></trkpt><trkpt lat="41.025695" lon="14.46768"><ele>74.8</ele><time>2026-04-25T13:22:34.158Z</time></trkpt><trkpt lat="41.0257217" lon="14.467545"><ele>74.19999999999999</ele><time>2026-04-25T13:22:35.159Z</time></trkpt><trkpt lat="41.0257417" lon="14.4674083"><ele>73.6</ele><time>2026-04-25T13:22:36.159Z</time></trkpt><trkpt lat="41.0257667" lon="14.4672733"><ele>73.0</ele><time>2026-04-25T13:22:37.16Z</time></trkpt><trkpt lat="41.0257917" lon="14.4671383"><ele>73.8</ele><time>2026-04-25T13:22:38.158Z</time></trkpt><trkpt lat="41.0258167" lon="14.467"><ele>74.6</ele><time>2026-04-25T13:22:39.157Z</time></trkpt><trkpt lat="41.025845" lon="14.4668617"><ele>75.4</ele><time>2026-04-25T13:22:40.159Z</time></trkpt><trkpt lat="41.0258733" lon="14.4667233"><ele>76.2</ele><time>2026-04-25T13:22:41.159Z</time></trkpt><trkpt lat="41.0259" lon="14.466585"><ele>77.0</ele><time>2026-04-25T13:22:42.16Z</time></trkpt><trkpt lat="41.0259233" lon="14.46645"><ele>77.0</ele><time>2026-04-25T13:22:43.159Z</time></trkpt><trkpt lat="41.0259467" lon="14.4663167"><ele>77.0</ele><time>2026-04-25T13:22:44.159Z</time></trkpt><trkpt lat="41.02597" lon="14.4661883"><ele>77.0</ele><time>2026-04-25T13:22:45.157Z</time></trkpt><trkpt lat="41.02599" lon="14.46606"><ele>77.0</ele><time>2026-04-25T13:22:46.159Z</time></trkpt><trkpt lat="41.0260067" lon="14.46593"><ele>77.0</ele><time>2026-04-25T13:22:47.159Z</time></trkpt><trkpt lat="41.0260233" lon="14.4658017"><ele>76.6</ele><time>2026-04-25T13:22:48.159Z</time></trkpt><trkpt lat="41.0260367" lon="14.4656717"><ele>76.2</ele><time>2026-04-25T13:22:49.159Z</time></trkpt><trkpt lat="41.0260467" lon="14.4655467"><ele>75.8</ele><time>2026-04-25T13:22:50.16Z</time></trkpt><trkpt lat="41.0260483" lon="14.46542"><ele>75.4</ele><time>2026-04-25T13:22:51.16Z</time></trkpt><trkpt lat="41.02604" lon="14.4653"><ele>75.0</ele><time>2026-04-25T13:22:52.159Z</time></trkpt><trkpt lat="41.0260317" lon="14.4651867"><ele>75.0</ele><time>2026-04-25T13:22:53.16Z</time></trkpt><trkpt lat="41.0260233" lon="14.4650733"><ele>75.0</ele><time>2026-04-25T13:22:54.16Z</time></trkpt><trkpt lat="41.0260167" lon="14.4649633"><ele>75.0</ele><time>2026-04-25T13:22:55.159Z</time></trkpt><trkpt lat="41.0260067" lon="14.4648533"><ele>75.0</ele><time>2026-04-25T13:22:56.16Z</time></trkpt><trkpt lat="41.0260033" lon="14.4647467"><ele>75.0</ele><time>2026-04-25T13:22:57.158Z</time></trkpt><trkpt lat="41.026005" lon="14.4646417"><ele>75.0</ele><time>2026-04-25T13:22:58.157Z</time></trkpt><trkpt lat="41.0260083" lon="14.4645333"><ele>75.0</ele><time>2026-04-25T13:22:59.159Z</time></trkpt><trkpt lat="41.0260117" lon="14.464425"><ele>75.0</ele><time>2026-04-25T13:23:00.161Z</time></trkpt><trkpt lat="41.0260183" lon="14.46432"><ele>75.0</ele><time>2026-04-25T13:23:01.16Z</time></trkpt><trkpt lat="41.0260233" lon="14.4642167"><ele>75.0</ele><time>2026-04-25T13:23:02.159Z</time></trkpt><trkpt lat="41.0260183" lon="14.4641183"><ele>75.0</ele><time>2026-04-25T13:23:03.157Z</time></trkpt><trkpt lat="41.0260217" lon="14.46402"><ele>75.0</ele><time>2026-04-25T13:23:04.158Z</time></trkpt><trkpt lat="41.02602" lon="14.463915"><ele>75.0</ele><time>2026-04-25T13:23:05.161Z</time></trkpt><trkpt lat="41.026015" lon="14.4638083"><ele>75.0</ele><time>2026-04-25T13:23:06.159Z</time></trkpt><trkpt lat="41.0260083" lon="14.4637017"><ele>75.0</ele><time>2026-04-25T13:23:07.159Z</time></trkpt><trkpt lat="41.0260033" lon="14.4635933"><ele>75.0</ele><time>2026-04-25T13:23:08.158Z</time></trkpt><trkpt lat="41.026" lon="14.4634817"><ele>75.0</ele><time>2026-04-25T13:23:09.159Z</time></trkpt><trkpt lat="41.0259967" lon="14.46337"><ele>75.0</ele><time>2026-04-25T13:23:10.159Z</time></trkpt><trkpt lat="41.025995" lon="14.4632583"><ele>75.0</ele><time>2026-04-25T13:23:11.159Z</time></trkpt><trkpt lat="41.0259917" lon="14.4631467"><ele>75.0</ele><time>2026-04-25T13:23:12.159Z</time></trkpt><trkpt lat="41.02599" lon="14.4630333"><ele>75.0</ele><time>2026-04-25T13:23:13.16Z</time></trkpt><trkpt lat="41.0259867" lon="14.4629233"><ele>75.0</ele><time>2026-04-25T13:23:14.161Z</time></trkpt><trkpt lat="41.025985" lon="14.4628183"><ele>75.0</ele><time>2026-04-25T13:23:15.159Z</time></trkpt><trkpt lat="41.0259867" lon="14.4627167"><ele>75.0</ele><time>2026-04-25T13:23:16.158Z</time></trkpt><trkpt lat="41.0259867" lon="14.4626117"><ele>74.83333333333333</ele><time>2026-04-25T13:23:17.159Z</time></trkpt><trkpt lat="41.0259833" lon="14.462505"><ele>74.66666666666667</ele><time>2026-04-25T13:23:18.158Z</time></trkpt><trkpt lat="41.0259783" lon="14.4624017"><ele>74.5</ele><time>2026-04-25T13:23:19.16Z</time></trkpt><trkpt lat="41.025975" lon="14.4623"><ele>74.33333333333334</ele><time>2026-04-25T13:23:20.16Z</time></trkpt><trkpt lat="41.0259733" lon="14.4621983"><ele>74.16666666666667</ele><time>2026-04-25T13:23:21.16Z</time></trkpt><trkpt lat="41.025975" lon="14.4621"><ele>74.0</ele><time>2026-04-25T13:23:22.157Z</time></trkpt><trkpt lat="41.0259733" lon="14.4620017"><ele>73.85714285714286</ele><time>2026-04-25T13:23:23.159Z</time></trkpt><trkpt lat="41.0259717" lon="14.461905"><ele>73.71428571428571</ele><time>2026-04-25T13:23:24.159Z</time></trkpt><trkpt lat="41.0259683" lon="14.461805"><ele>73.57142857142857</ele><time>2026-04-25T13:23:25.158Z</time></trkpt><trkpt lat="41.0259667" lon="14.4617033"><ele>73.42857142857143</ele><time>2026-04-25T13:23:26.16Z</time></trkpt><trkpt lat="41.0259667" lon="14.4616067"><ele>73.28571428571429</ele><time>2026-04-25T13:23:27.159Z</time></trkpt><trkpt lat="41.0259667" lon="14.4615083"><ele>73.14285714285714</ele><time>2026-04-25T13:23:28.158Z</time></trkpt><trkpt lat="41.025965" lon="14.46141"><ele>73.0</ele><time>2026-04-25T13:23:29.159Z</time></trkpt><trkpt lat="41.0259633" lon="14.4613117"><ele>73.28571428571428</ele><time>2026-04-25T13:23:30.159Z</time></trkpt><trkpt lat="41.02596" lon="14.461215"><ele>73.57142857142857</ele><time>2026-04-25T13:23:31.158Z</time></trkpt><trkpt lat="41.025955" lon="14.4611183"><ele>73.85714285714286</ele><time>2026-04-25T13:23:32.157Z</time></trkpt><trkpt lat="41.025955" lon="14.46102"><ele>74.14285714285714</ele><time>2026-04-25T13:23:33.159Z</time></trkpt><trkpt lat="41.0259533" lon="14.4609233"><ele>74.42857142857143</ele><time>2026-04-25T13:23:34.158Z</time></trkpt><trkpt lat="41.02595" lon="14.4608233"><ele>74.71428571428571</ele><time>2026-04-25T13:23:35.159Z</time></trkpt><trkpt lat="41.0259517" lon="14.46072"><ele>75.0</ele><time>2026-04-25T13:23:36.159Z</time></trkpt><trkpt lat="41.02595" lon="14.4606167"><ele>75.0</ele><time>2026-04-25T13:23:37.159Z</time></trkpt><trkpt lat="41.02595" lon="14.4605133"><ele>75.0</ele><time>2026-04-25T13:23:38.159Z</time></trkpt><trkpt lat="41.0259483" lon="14.4604117"><ele>75.0</ele><time>2026-04-25T13:23:39.159Z</time></trkpt><trkpt lat="41.0259467" lon="14.4603033"><ele>75.0</ele><time>2026-04-25T13:23:40.159Z</time></trkpt><trkpt lat="41.025945" lon="14.4601983"><ele>75.0</ele><time>2026-04-25T13:23:41.158Z</time></trkpt><trkpt lat="41.0259433" lon="14.46009"><ele>75.0</ele><time>2026-04-25T13:23:42.158Z</time></trkpt><trkpt lat="41.0259417" lon="14.4599817"><ele>74.83333333333333</ele><time>2026-04-25T13:23:43.159Z</time></trkpt><trkpt lat="41.0259417" lon="14.4598717"><ele>74.66666666666667</ele><time>2026-04-25T13:23:44.158Z</time></trkpt><trkpt lat="41.0259417" lon="14.4597617"><ele>74.5</ele><time>2026-04-25T13:23:45.157Z</time></trkpt><trkpt lat="41.02594" lon="14.45965"><ele>74.33333333333334</ele><time>2026-04-25T13:23:46.158Z</time></trkpt><trkpt lat="41.0259317" lon="14.4595417"><ele>74.16666666666667</ele><time>2026-04-25T13:23:47.158Z</time></trkpt><trkpt lat="41.0259233" lon="14.4594317"><ele>74.0</ele><time>2026-04-25T13:23:48.159Z</time></trkpt><trkpt lat="41.0259183" lon="14.4593183"><ele>74.0</ele><time>2026-04-25T13:23:49.158Z</time></trkpt><trkpt lat="41.0259133" lon="14.4592033"><ele>74.0</ele><time>2026-04-25T13:23:50.158Z</time></trkpt><trkpt lat="41.0259117" lon="14.459085"><ele>74.0</ele><time>2026-04-25T13:23:51.159Z</time></trkpt><trkpt lat="41.0259083" lon="14.4589683"><ele>74.0</ele><time>2026-04-25T13:23:52.157Z</time></trkpt><trkpt lat="41.0259033" lon="14.45885"><ele>74.0</ele><time>2026-04-25T13:23:53.159Z</time></trkpt><trkpt lat="41.0259" lon="14.458735"><ele>74.0</ele><time>2026-04-25T13:23:54.159Z</time></trkpt><trkpt lat="41.0258967" lon="14.4586217"><ele>73.33333333333334</ele><time>2026-04-25T13:23:55.159Z</time></trkpt><trkpt lat="41.02589" lon="14.4585083"><ele>72.66666666666667</ele><time>2026-04-25T13:23:56.16Z</time></trkpt><trkpt lat="41.025885" lon="14.458395"><ele>72.0</ele><time>2026-04-25T13:23:57.16Z</time></trkpt><trkpt lat="41.0258783" lon="14.45828"><ele>71.33333333333333</ele><time>2026-04-25T13:23:58.157Z</time></trkpt><trkpt lat="41.02587" lon="14.4581667"><ele>70.66666666666666</ele><time>2026-04-25T13:23:59.159Z</time></trkpt><trkpt lat="41.0258617" lon="14.458055"><ele>70.0</ele><time>2026-04-25T13:24:00.16Z</time></trkpt><trkpt lat="41.0258533" lon="14.4579433"><ele>69.83333333333333</ele><time>2026-04-25T13:24:01.159Z</time></trkpt><trkpt lat="41.0258433" lon="14.4578317"><ele>69.66666666666666</ele><time>2026-04-25T13:24:02.16Z</time></trkpt><trkpt lat="41.0258333" lon="14.4577233"><ele>69.5</ele><time>2026-04-25T13:24:03.16Z</time></trkpt><trkpt lat="41.02583" lon="14.4576133"><ele>69.33333333333333</ele><time>2026-04-25T13:24:04.157Z</time></trkpt><trkpt lat="41.0258233" lon="14.4575033"><ele>69.16666666666667</ele><time>2026-04-25T13:24:05.159Z</time></trkpt><trkpt lat="41.0258183" lon="14.4573917"><ele>69.0</ele><time>2026-04-25T13:24:06.158Z</time></trkpt><trkpt lat="41.0258117" lon="14.4572817"><ele>69.0</ele><time>2026-04-25T13:24:07.158Z</time></trkpt><trkpt lat="41.025805" lon="14.4571717"><ele>69.0</ele><time>2026-04-25T13:24:08.159Z</time></trkpt><trkpt lat="41.0258" lon="14.457065"><ele>69.0</ele><time>2026-04-25T13:24:09.159Z</time></trkpt><trkpt lat="41.0257967" lon="14.4569583"><ele>69.0</ele><time>2026-04-25T13:24:10.157Z</time></trkpt><trkpt lat="41.0257917" lon="14.4568483"><ele>69.0</ele><time>2026-04-25T13:24:11.16Z</time></trkpt><trkpt lat="41.0257867" lon="14.4567383"><ele>69.0</ele><time>2026-04-25T13:24:12.161Z</time></trkpt><trkpt lat="41.02578" lon="14.4566317"><ele>68.66666666666667</ele><time>2026-04-25T13:24:13.159Z</time></trkpt><trkpt lat="41.025775" lon="14.4565283"><ele>68.33333333333333</ele><time>2026-04-25T13:24:14.16Z</time></trkpt><trkpt lat="41.0257683" lon="14.4564217"><ele>68.0</ele><time>2026-04-25T13:24:15.16Z</time></trkpt><trkpt lat="41.0257633" lon="14.45632"><ele>67.66666666666666</ele><time>2026-04-25T13:24:16.159Z</time></trkpt><trkpt lat="41.02576" lon="14.4562183"><ele>67.33333333333333</ele><time>2026-04-25T13:24:17.159Z</time></trkpt><trkpt lat="41.0257567" lon="14.4561167"><ele>67.0</ele><time>2026-04-25T13:24:18.159Z</time></trkpt><trkpt lat="41.025755" lon="14.4560167"><ele>67.0</ele><time>2026-04-25T13:24:19.158Z</time></trkpt><trkpt lat="41.02575" lon="14.455915"><ele>67.0</ele><time>2026-04-25T13:24:20.158Z</time></trkpt><trkpt lat="41.0257483" lon="14.4558167"><ele>67.0</ele><time>2026-04-25T13:24:21.157Z</time></trkpt><trkpt lat="41.0257467" lon="14.4557167"><ele>67.0</ele><time>2026-04-25T13:24:22.158Z</time></trkpt><trkpt lat="41.02574" lon="14.4556167"><ele>67.0</ele><time>2026-04-25T13:24:23.159Z</time></trkpt><trkpt lat="41.0257333" lon="14.455515"><ele>67.0</ele><time>2026-04-25T13:24:24.159Z</time></trkpt><trkpt lat="41.0257267" lon="14.4554133"><ele>67.0</ele><time>2026-04-25T13:24:25.158Z</time></trkpt><trkpt lat="41.0257183" lon="14.4553133"><ele>67.0</ele><time>2026-04-25T13:24:26.161Z</time></trkpt><trkpt lat="41.02571" lon="14.4552183"><ele>67.0</ele><time>2026-04-25T13:24:27.16Z</time></trkpt><trkpt lat="41.0257017" lon="14.4551217"><ele>67.0</ele><time>2026-04-25T13:24:28.16Z</time></trkpt><trkpt lat="41.0256967" lon="14.4550267"><ele>67.0</ele><time>2026-04-25T13:24:29.158Z</time></trkpt><trkpt lat="41.0256967" lon="14.45493"><ele>67.0</ele><time>2026-04-25T13:24:30.16Z</time></trkpt><trkpt lat="41.025695" lon="14.45483"><ele>67.0</ele><time>2026-04-25T13:24:31.158Z</time></trkpt><trkpt lat="41.0256883" lon="14.45473"><ele>67.0</ele><time>2026-04-25T13:24:32.16Z</time></trkpt><trkpt lat="41.0256833" lon="14.4546317"><ele>67.0</ele><time>2026-04-25T13:24:33.157Z</time></trkpt><trkpt lat="41.0256783" lon="14.4545333"><ele>67.0</ele><time>2026-04-25T13:24:34.158Z</time></trkpt><trkpt lat="41.025675" lon="14.4544333"><ele>67.0</ele><time>2026-04-25T13:24:35.16Z</time></trkpt><trkpt lat="41.0256683" lon="14.4543317"><ele>67.0</ele><time>2026-04-25T13:24:36.16Z</time></trkpt><trkpt lat="41.0256633" lon="14.45423"><ele>67.0</ele><time>2026-04-25T13:24:37.159Z</time></trkpt><trkpt lat="41.0256617" lon="14.45413"><ele>67.0</ele><time>2026-04-25T13:24:38.159Z</time></trkpt><trkpt lat="41.0256583" lon="14.4540283"><ele>67.0</ele><time>2026-04-25T13:24:39.157Z</time></trkpt><trkpt lat="41.0256567" lon="14.453925"><ele>67.0</ele><time>2026-04-25T13:24:40.159Z</time></trkpt><trkpt lat="41.02565" lon="14.4538183"><ele>67.0</ele><time>2026-04-25T13:24:41.158Z</time></trkpt><trkpt lat="41.0256433" lon="14.4537117"><ele>67.0</ele><time>2026-04-25T13:24:42.159Z</time></trkpt><trkpt lat="41.0256367" lon="14.453605"><ele>67.0</ele><time>2026-04-25T13:24:43.159Z</time></trkpt><trkpt lat="41.0256367" lon="14.4534967"><ele>66.83333333333333</ele><time>2026-04-25T13:24:44.159Z</time></trkpt><trkpt lat="41.0256317" lon="14.4533917"><ele>66.66666666666666</ele><time>2026-04-25T13:24:45.158Z</time></trkpt><trkpt lat="41.0256233" lon="14.4532833"><ele>66.5</ele><time>2026-04-25T13:24:46.158Z</time></trkpt><trkpt lat="41.02562" lon="14.4531733"><ele>66.33333333333333</ele><time>2026-04-25T13:24:47.161Z</time></trkpt><trkpt lat="41.0256183" lon="14.45306"><ele>66.16666666666667</ele><time>2026-04-25T13:24:48.159Z</time></trkpt><trkpt lat="41.025615" lon="14.4529517"><ele>66.0</ele><time>2026-04-25T13:24:49.161Z</time></trkpt><trkpt lat="41.02561" lon="14.452845"><ele>66.0</ele><time>2026-04-25T13:24:50.159Z</time></trkpt><trkpt lat="41.0256067" lon="14.45274"><ele>66.0</ele><time>2026-04-25T13:24:51.16Z</time></trkpt><trkpt lat="41.0256017" lon="14.4526333"><ele>66.0</ele><time>2026-04-25T13:24:52.157Z</time></trkpt><trkpt lat="41.0255967" lon="14.4525267"><ele>66.0</ele><time>2026-04-25T13:24:53.159Z</time></trkpt><trkpt lat="41.025585" lon="14.452415"><ele>66.0</ele><time>2026-04-25T13:24:54.157Z</time></trkpt><trkpt lat="41.0255767" lon="14.452305"><ele>66.0</ele><time>2026-04-25T13:24:55.159Z</time></trkpt><trkpt lat="41.0255717" lon="14.45219"><ele>66.0</ele><time>2026-04-25T13:24:56.161Z</time></trkpt><trkpt lat="41.0255667" lon="14.4520783"><ele>66.0</ele><time>2026-04-25T13:24:57.158Z</time></trkpt><trkpt lat="41.0255633" lon="14.45197"><ele>66.0</ele><time>2026-04-25T13:24:58.158Z</time></trkpt><trkpt lat="41.0255633" lon="14.4518617"><ele>66.0</ele><time>2026-04-25T13:24:59.159Z</time></trkpt><trkpt lat="41.0255567" lon="14.4517567"><ele>66.0</ele><time>2026-04-25T13:25:00.159Z</time></trkpt><trkpt lat="41.02555" lon="14.451655"><ele>66.0</ele><time>2026-04-25T13:25:01.159Z</time></trkpt><trkpt lat="41.0255433" lon="14.4515533"><ele>66.0</ele><time>2026-04-25T13:25:02.157Z</time></trkpt><trkpt lat="41.0255367" lon="14.4514533"><ele>66.0</ele><time>2026-04-25T13:25:03.16Z</time></trkpt><trkpt lat="41.02553" lon="14.4513567"><ele>66.0</ele><time>2026-04-25T13:25:04.159Z</time></trkpt><trkpt lat="41.0255267" lon="14.4512583"><ele>66.0</ele><time>2026-04-25T13:25:05.159Z</time></trkpt><trkpt lat="41.0255233" lon="14.45116"><ele>66.0</ele><time>2026-04-25T13:25:06.16Z</time></trkpt><trkpt lat="41.0255183" lon="14.4510617"><ele>66.0</ele><time>2026-04-25T13:25:07.158Z</time></trkpt><trkpt lat="41.0255117" lon="14.4509633"><ele>66.0</ele><time>2026-04-25T13:25:08.16Z</time></trkpt><trkpt lat="41.025505" lon="14.450865"><ele>66.0</ele><time>2026-04-25T13:25:09.159Z</time></trkpt><trkpt lat="41.0255017" lon="14.450765"><ele>66.0</ele><time>2026-04-25T13:25:10.159Z</time></trkpt><trkpt lat="41.0255" lon="14.4506633"><ele>66.0</ele><time>2026-04-25T13:25:11.158Z</time></trkpt><trkpt lat="41.0254983" lon="14.45056"><ele>66.0</ele><time>2026-04-25T13:25:12.16Z</time></trkpt><trkpt lat="41.0254933" lon="14.45046"><ele>66.0</ele><time>2026-04-25T13:25:13.158Z</time></trkpt><trkpt lat="41.0254883" lon="14.4503617"><ele>66.0</ele><time>2026-04-25T13:25:14.16Z</time></trkpt><trkpt lat="41.02548" lon="14.4502617"><ele>65.83333333333333</ele><time>2026-04-25T13:25:15.157Z</time></trkpt><trkpt lat="41.0254717" lon="14.4501617"><ele>65.66666666666667</ele><time>2026-04-25T13:25:16.16Z</time></trkpt><trkpt lat="41.0254633" lon="14.4500583"><ele>65.5</ele><time>2026-04-25T13:25:17.16Z</time></trkpt><trkpt lat="41.0254617" lon="14.4499567"><ele>65.33333333333334</ele><time>2026-04-25T13:25:18.16Z</time></trkpt><trkpt lat="41.0254583" lon="14.4498517"><ele>65.16666666666667</ele><time>2026-04-25T13:25:19.158Z</time></trkpt><trkpt lat="41.0254517" lon="14.4497483"><ele>65.0</ele><time>2026-04-25T13:25:20.158Z</time></trkpt><trkpt lat="41.0254467" lon="14.4496433"><ele>65.0</ele><time>2026-04-25T13:25:21.157Z</time></trkpt><trkpt lat="41.0254417" lon="14.4495383"><ele>65.0</ele><time>2026-04-25T13:25:22.158Z</time></trkpt><trkpt lat="41.0254367" lon="14.4494283"><ele>65.0</ele><time>2026-04-25T13:25:23.159Z</time></trkpt><trkpt lat="41.02543" lon="14.4493183"><ele>65.0</ele><time>2026-04-25T13:25:24.161Z</time></trkpt><trkpt lat="41.025425" lon="14.44921"><ele>65.0</ele><time>2026-04-25T13:25:25.161Z</time></trkpt><trkpt lat="41.0254217" lon="14.4491"><ele>65.0</ele><time>2026-04-25T13:25:26.163Z</time></trkpt><trkpt lat="41.025415" lon="14.4489933"><ele>65.0</ele><time>2026-04-25T13:25:27.161Z</time></trkpt><trkpt lat="41.0254117" lon="14.4488883"><ele>65.0</ele><time>2026-04-25T13:25:28.161Z</time></trkpt><trkpt lat="41.0254083" lon="14.4487817"><ele>65.0</ele><time>2026-04-25T13:25:29.159Z</time></trkpt><trkpt lat="41.0254033" lon="14.4486767"><ele>65.0</ele><time>2026-04-25T13:25:30.159Z</time></trkpt><trkpt lat="41.0253983" lon="14.44857"><ele>65.0</ele><time>2026-04-25T13:25:31.16Z</time></trkpt><trkpt lat="41.0253917" lon="14.448465"><ele>65.0</ele><time>2026-04-25T13:25:32.159Z</time></trkpt><trkpt lat="41.025385" lon="14.4483667"><ele>64.66666666666667</ele><time>2026-04-25T13:25:33.159Z</time></trkpt><trkpt lat="41.0253783" lon="14.4482667"><ele>64.33333333333334</ele><time>2026-04-25T13:25:34.16Z</time></trkpt><trkpt lat="41.0253717" lon="14.4481633"><ele>64.0</ele><time>2026-04-25T13:25:35.162Z</time></trkpt><trkpt lat="41.0253633" lon="14.4480567"><ele>63.66666666666667</ele><time>2026-04-25T13:25:36.159Z</time></trkpt><trkpt lat="41.02536" lon="14.4479517"><ele>63.333333333333336</ele><time>2026-04-25T13:25:37.161Z</time></trkpt><trkpt lat="41.0253567" lon="14.4478467"><ele>63.0</ele><time>2026-04-25T13:25:38.161Z</time></trkpt><trkpt lat="41.0253517" lon="14.44774"><ele>63.0</ele><time>2026-04-25T13:25:39.161Z</time></trkpt><trkpt lat="41.025345" lon="14.4476367"><ele>63.0</ele><time>2026-04-25T13:25:40.161Z</time></trkpt><trkpt lat="41.0253383" lon="14.4475317"><ele>63.0</ele><time>2026-04-25T13:25:41.16Z</time></trkpt><trkpt lat="41.025335" lon="14.44743"><ele>63.0</ele><time>2026-04-25T13:25:42.161Z</time></trkpt><trkpt lat="41.0253317" lon="14.4473267"><ele>63.0</ele><time>2026-04-25T13:25:43.157Z</time></trkpt><trkpt lat="41.0253283" lon="14.4472233"><ele>63.0</ele><time>2026-04-25T13:25:44.161Z</time></trkpt><trkpt lat="41.025325" lon="14.4471167"><ele>63.166666666666664</ele><time>2026-04-25T13:25:45.159Z</time></trkpt><trkpt lat="41.02532" lon="14.4470117"><ele>63.33333333333333</ele><time>2026-04-25T13:25:46.16Z</time></trkpt><trkpt lat="41.0253133" lon="14.4469067"><ele>63.5</ele><time>2026-04-25T13:25:47.157Z</time></trkpt><trkpt lat="41.0253083" lon="14.4468017"><ele>63.666666666666664</ele><time>2026-04-25T13:25:48.159Z</time></trkpt><trkpt lat="41.0253033" lon="14.446695"><ele>63.83333333333333</ele><time>2026-04-25T13:25:49.161Z</time></trkpt><trkpt lat="41.0252967" lon="14.4465933"><ele>64.0</ele><time>2026-04-25T13:25:50.161Z</time></trkpt><trkpt lat="41.0252917" lon="14.4464917"><ele>63.99999999999999</ele><time>2026-04-25T13:25:51.157Z</time></trkpt><trkpt lat="41.0252883" lon="14.44639"><ele>64.0</ele><time>2026-04-25T13:25:52.163Z</time></trkpt><trkpt lat="41.025285" lon="14.4462883"><ele>64.0</ele><time>2026-04-25T13:25:53.161Z</time></trkpt><trkpt lat="41.02528" lon="14.4461867"><ele>64.0</ele><time>2026-04-25T13:25:54.161Z</time></trkpt><trkpt lat="41.0252767" lon="14.4460817"><ele>63.99999999999999</ele><time>2026-04-25T13:25:55.162Z</time></trkpt><trkpt lat="41.0252717" lon="14.445975"><ele>64.0</ele><time>2026-04-25T13:25:56.161Z</time></trkpt><trkpt lat="41.02527" lon="14.4458667"><ele>64.16666666666666</ele><time>2026-04-25T13:25:57.161Z</time></trkpt><trkpt lat="41.0252667" lon="14.445765"><ele>64.33333333333333</ele><time>2026-04-25T13:25:58.16Z</time></trkpt><trkpt lat="41.0252617" lon="14.4456567"><ele>64.5</ele><time>2026-04-25T13:25:59.162Z</time></trkpt><trkpt lat="41.0252583" lon="14.4455533"><ele>64.66666666666667</ele><time>2026-04-25T13:26:00.161Z</time></trkpt><trkpt lat="41.025255" lon="14.4454483"><ele>64.83333333333334</ele><time>2026-04-25T13:26:01.161Z</time></trkpt><trkpt lat="41.02525" lon="14.4453467"><ele>65.0</ele><time>2026-04-25T13:26:02.161Z</time></trkpt><trkpt lat="41.025245" lon="14.4452417"><ele>65.0</ele><time>2026-04-25T13:26:03.16Z</time></trkpt><trkpt lat="41.0252367" lon="14.4451417"><ele>65.0</ele><time>2026-04-25T13:26:04.16Z</time></trkpt><trkpt lat="41.0252233" lon="14.4450433"><ele>65.0</ele><time>2026-04-25T13:26:05.161Z</time></trkpt><trkpt lat="41.02521" lon="14.44495"><ele>65.0</ele><time>2026-04-25T13:26:06.159Z</time></trkpt><trkpt lat="41.0252033" lon="14.4448517"><ele>65.0</ele><time>2026-04-25T13:26:07.16Z</time></trkpt><trkpt lat="41.0252017" lon="14.4447533"><ele>65.0</ele><time>2026-04-25T13:26:08.159Z</time></trkpt><trkpt lat="41.0252017" lon="14.44465"><ele>65.14285714285715</ele><time>2026-04-25T13:26:09.159Z</time></trkpt><trkpt lat="41.0251967" lon="14.44455"><ele>65.28571428571429</ele><time>2026-04-25T13:26:10.159Z</time></trkpt><trkpt lat="41.025195" lon="14.44445"><ele>65.42857142857143</ele><time>2026-04-25T13:26:11.159Z</time></trkpt><trkpt lat="41.0251933" lon="14.4443483"><ele>65.57142857142858</ele><time>2026-04-25T13:26:12.158Z</time></trkpt><trkpt lat="41.02519" lon="14.4442467"><ele>65.71428571428572</ele><time>2026-04-25T13:26:13.163Z</time></trkpt><trkpt lat="41.0251833" lon="14.4441533"><ele>65.85714285714286</ele><time>2026-04-25T13:26:14.16Z</time></trkpt><trkpt lat="41.025175" lon="14.4440633"><ele>66.0</ele><time>2026-04-25T13:26:15.157Z</time></trkpt><trkpt lat="41.0251633" lon="14.4439783"><ele>66.0</ele><time>2026-04-25T13:26:16.158Z</time></trkpt><trkpt lat="41.0251583" lon="14.4438933"><ele>66.0</ele><time>2026-04-25T13:26:17.159Z</time></trkpt><trkpt lat="41.0251533" lon="14.4438083"><ele>66.0</ele><time>2026-04-25T13:26:18.158Z</time></trkpt><trkpt lat="41.0251467" lon="14.4437217"><ele>66.0</ele><time>2026-04-25T13:26:19.156Z</time></trkpt><trkpt lat="41.02514" lon="14.4436333"><ele>66.0</ele><time>2026-04-25T13:26:20.159Z</time></trkpt><trkpt lat="41.02513" lon="14.4435417"><ele>66.0</ele><time>2026-04-25T13:26:21.159Z</time></trkpt><trkpt lat="41.02512" lon="14.4434467"><ele>66.0</ele><time>2026-04-25T13:26:22.158Z</time></trkpt><trkpt lat="41.0251133" lon="14.44335"><ele>65.71428571428571</ele><time>2026-04-25T13:26:23.158Z</time></trkpt><trkpt lat="41.0251083" lon="14.4432567"><ele>65.42857142857143</ele><time>2026-04-25T13:26:24.161Z</time></trkpt><trkpt lat="41.0251017" lon="14.4431617"><ele>65.14285714285714</ele><time>2026-04-25T13:26:25.161Z</time></trkpt><trkpt lat="41.0250967" lon="14.4430617"><ele>64.85714285714286</ele><time>2026-04-25T13:26:26.16Z</time></trkpt><trkpt lat="41.025095" lon="14.4429583"><ele>64.57142857142857</ele><time>2026-04-25T13:26:27.162Z</time></trkpt><trkpt lat="41.0250917" lon="14.4428633"><ele>64.28571428571428</ele><time>2026-04-25T13:26:28.161Z</time></trkpt><trkpt lat="41.0250917" lon="14.4427583"><ele>64.0</ele><time>2026-04-25T13:26:29.158Z</time></trkpt><trkpt lat="41.0250933" lon="14.4426567"><ele>63.83333333333333</ele><time>2026-04-25T13:26:30.159Z</time></trkpt><trkpt lat="41.0250917" lon="14.4425517"><ele>63.666666666666664</ele><time>2026-04-25T13:26:31.159Z</time></trkpt><trkpt lat="41.0250883" lon="14.4424467"><ele>63.5</ele><time>2026-04-25T13:26:32.161Z</time></trkpt><trkpt lat="41.0250833" lon="14.4423417"><ele>63.33333333333333</ele><time>2026-04-25T13:26:33.158Z</time></trkpt><trkpt lat="41.025075" lon="14.442235"><ele>63.166666666666664</ele><time>2026-04-25T13:26:34.162Z</time></trkpt><trkpt lat="41.0250667" lon="14.4421333"><ele>63.0</ele><time>2026-04-25T13:26:35.161Z</time></trkpt><trkpt lat="41.02506" lon="14.44203"><ele>63.0</ele><time>2026-04-25T13:26:36.161Z</time></trkpt><trkpt lat="41.0250533" lon="14.4419267"><ele>63.0</ele><time>2026-04-25T13:26:37.16Z</time></trkpt><trkpt lat="41.02505" lon="14.441825"><ele>63.0</ele><time>2026-04-25T13:26:38.161Z</time></trkpt><trkpt lat="41.025045" lon="14.441725"><ele>63.0</ele><time>2026-04-25T13:26:39.16Z</time></trkpt><trkpt lat="41.0250433" lon="14.4416217"><ele>63.0</ele><time>2026-04-25T13:26:40.162Z</time></trkpt><trkpt lat="41.0250383" lon="14.44152"><ele>63.0</ele><time>2026-04-25T13:26:41.157Z</time></trkpt><trkpt lat="41.025035" lon="14.4414167"><ele>63.0</ele><time>2026-04-25T13:26:42.161Z</time></trkpt><trkpt lat="41.0250317" lon="14.44131"><ele>63.0</ele><time>2026-04-25T13:26:43.16Z</time></trkpt><trkpt lat="41.0250267" lon="14.44121"><ele>63.0</ele><time>2026-04-25T13:26:44.161Z</time></trkpt><trkpt lat="41.0250217" lon="14.4411083"><ele>63.0</ele><time>2026-04-25T13:26:45.16Z</time></trkpt><trkpt lat="41.0250183" lon="14.4410083"><ele>63.0</ele><time>2026-04-25T13:26:46.162Z</time></trkpt><trkpt lat="41.025015" lon="14.44091"><ele>63.0</ele><time>2026-04-25T13:26:47.162Z</time></trkpt><trkpt lat="41.0250117" lon="14.440805"><ele>63.0</ele><time>2026-04-25T13:26:48.162Z</time></trkpt><trkpt lat="41.0250017" lon="14.4407067"><ele>63.0</ele><time>2026-04-25T13:26:49.159Z</time></trkpt><trkpt lat="41.024995" lon="14.4406083"><ele>63.0</ele><time>2026-04-25T13:26:50.161Z</time></trkpt><trkpt lat="41.0249933" lon="14.4405133"><ele>63.0</ele><time>2026-04-25T13:26:51.16Z</time></trkpt><trkpt lat="41.02499" lon="14.4404183"><ele>63.0</ele><time>2026-04-25T13:26:52.16Z</time></trkpt><trkpt lat="41.0249867" lon="14.4403217"><ele>63.0</ele><time>2026-04-25T13:26:53.16Z</time></trkpt><trkpt lat="41.0249833" lon="14.4402267"><ele>63.0</ele><time>2026-04-25T13:26:54.16Z</time></trkpt><trkpt lat="41.0249783" lon="14.4401283"><ele>62.714285714285715</ele><time>2026-04-25T13:26:55.161Z</time></trkpt><trkpt lat="41.0249733" lon="14.4400333"><ele>62.42857142857143</ele><time>2026-04-25T13:26:56.162Z</time></trkpt><trkpt lat="41.0249683" lon="14.4399367"><ele>62.14285714285714</ele><time>2026-04-25T13:26:57.16Z</time></trkpt><trkpt lat="41.0249633" lon="14.4398383"><ele>61.857142857142854</ele><time>2026-04-25T13:26:58.162Z</time></trkpt><trkpt lat="41.0249583" lon="14.4397383"><ele>61.57142857142857</ele><time>2026-04-25T13:26:59.161Z</time></trkpt><trkpt lat="41.0249533" lon="14.4396417"><ele>61.28571428571428</ele><time>2026-04-25T13:27:00.161Z</time></trkpt><trkpt lat="41.024945" lon="14.439545"><ele>60.99999999999999</ele><time>2026-04-25T13:27:01.158Z</time></trkpt><trkpt lat="41.02494" lon="14.4394467"><ele>60.99999999999999</ele><time>2026-04-25T13:27:02.159Z</time></trkpt><trkpt lat="41.0249367" lon="14.43935"><ele>61.0</ele><time>2026-04-25T13:27:03.159Z</time></trkpt><trkpt lat="41.024935" lon="14.4392567"><ele>60.99999999999999</ele><time>2026-04-25T13:27:04.157Z</time></trkpt><trkpt lat="41.0249333" lon="14.4391633"><ele>60.99999999999999</ele><time>2026-04-25T13:27:05.16Z</time></trkpt><trkpt lat="41.02493" lon="14.4390633"><ele>61.0</ele><time>2026-04-25T13:27:06.158Z</time></trkpt><trkpt lat="41.0249283" lon="14.438965"><ele>60.99999999999999</ele><time>2026-04-25T13:27:07.159Z</time></trkpt><trkpt lat="41.024925" lon="14.4388667"><ele>60.99999999999999</ele><time>2026-04-25T13:27:08.161Z</time></trkpt><trkpt lat="41.0249233" lon="14.4387667"><ele>60.71428571428571</ele><time>2026-04-25T13:27:09.158Z</time></trkpt><trkpt lat="41.0249183" lon="14.4386683"><ele>60.42857142857143</ele><time>2026-04-25T13:27:10.16Z</time></trkpt><trkpt lat="41.0249117" lon="14.4385667"><ele>60.14285714285714</ele><time>2026-04-25T13:27:11.158Z</time></trkpt><trkpt lat="41.024905" lon="14.4384633"><ele>59.857142857142854</ele><time>2026-04-25T13:27:12.159Z</time></trkpt><trkpt lat="41.0249" lon="14.438365"><ele>59.57142857142857</ele><time>2026-04-25T13:27:13.158Z</time></trkpt><trkpt lat="41.024895" lon="14.43827"><ele>59.285714285714285</ele><time>2026-04-25T13:27:14.16Z</time></trkpt><trkpt lat="41.02489" lon="14.4381767"><ele>59.0</ele><time>2026-04-25T13:27:15.158Z</time></trkpt><trkpt lat="41.024885" lon="14.43808"><ele>59.0</ele><time>2026-04-25T13:27:16.158Z</time></trkpt><trkpt lat="41.02488" lon="14.43798"><ele>59.0</ele><time>2026-04-25T13:27:17.16Z</time></trkpt><trkpt lat="41.024875" lon="14.4378833"><ele>59.0</ele><time>2026-04-25T13:27:18.158Z</time></trkpt><trkpt lat="41.02487" lon="14.4377867"><ele>59.0</ele><time>2026-04-25T13:27:19.16Z</time></trkpt><trkpt lat="41.024865" lon="14.4376917"><ele>59.0</ele><time>2026-04-25T13:27:20.16Z</time></trkpt><trkpt lat="41.02486" lon="14.437595"><ele>59.0</ele><time>2026-04-25T13:27:21.157Z</time></trkpt><trkpt lat="41.0248567" lon="14.437495"><ele>59.0</ele><time>2026-04-25T13:27:22.158Z</time></trkpt><trkpt lat="41.0248517" lon="14.4373933"><ele>59.00000000000001</ele><time>2026-04-25T13:27:23.158Z</time></trkpt><trkpt lat="41.0248467" lon="14.4372917"><ele>59.0</ele><time>2026-04-25T13:27:24.159Z</time></trkpt><trkpt lat="41.0248417" lon="14.4371917"><ele>59.0</ele><time>2026-04-25T13:27:25.159Z</time></trkpt><trkpt lat="41.024835" lon="14.43709"><ele>59.0</ele><time>2026-04-25T13:27:26.16Z</time></trkpt><trkpt lat="41.02483" lon="14.4369867"><ele>59.00000000000001</ele><time>2026-04-25T13:27:27.158Z</time></trkpt><trkpt lat="41.0248267" lon="14.436885"><ele>59.0</ele><time>2026-04-25T13:27:28.158Z</time></trkpt><trkpt lat="41.0248167" lon="14.4367817"><ele>59.285714285714285</ele><time>2026-04-25T13:27:29.161Z</time></trkpt><trkpt lat="41.0248083" lon="14.4366817"><ele>59.57142857142857</ele><time>2026-04-25T13:27:30.16Z</time></trkpt><trkpt lat="41.0248017" lon="14.436585"><ele>59.857142857142854</ele><time>2026-04-25T13:27:31.162Z</time></trkpt><trkpt lat="41.0247967" lon="14.43649"><ele>60.14285714285714</ele><time>2026-04-25T13:27:32.161Z</time></trkpt><trkpt lat="41.0247917" lon="14.43639"><ele>60.42857142857143</ele><time>2026-04-25T13:27:33.162Z</time></trkpt><trkpt lat="41.0247867" lon="14.4362933"><ele>60.71428571428571</ele><time>2026-04-25T13:27:34.161Z</time></trkpt><trkpt lat="41.0247817" lon="14.4361983"><ele>60.99999999999999</ele><time>2026-04-25T13:27:35.161Z</time></trkpt><trkpt lat="41.0247767" lon="14.4361067"><ele>60.99999999999999</ele><time>2026-04-25T13:27:36.161Z</time></trkpt><trkpt lat="41.0247733" lon="14.43602"><ele>61.0</ele><time>2026-04-25T13:27:37.162Z</time></trkpt><trkpt lat="41.02477" lon="14.435935"><ele>60.99999999999999</ele><time>2026-04-25T13:27:38.161Z</time></trkpt><trkpt lat="41.024765" lon="14.4358517"><ele>60.99999999999999</ele><time>2026-04-25T13:27:39.161Z</time></trkpt><trkpt lat="41.0247583" lon="14.4356917"><ele>61.0</ele><time>2026-04-25T13:27:41.161Z</time></trkpt><trkpt lat="41.0247533" lon="14.4356083"><ele>60.99999999999999</ele><time>2026-04-25T13:27:42.161Z</time></trkpt><trkpt lat="41.0247483" lon="14.4355217"><ele>60.99999999999999</ele><time>2026-04-25T13:27:43.16Z</time></trkpt><trkpt lat="41.0247417" lon="14.4354333"><ele>60.85714285714285</ele><time>2026-04-25T13:27:44.16Z</time></trkpt><trkpt lat="41.0247367" lon="14.435345"><ele>60.71428571428571</ele><time>2026-04-25T13:27:45.161Z</time></trkpt><trkpt lat="41.0247317" lon="14.4352533"><ele>60.57142857142857</ele><time>2026-04-25T13:27:46.162Z</time></trkpt><trkpt lat="41.0247267" lon="14.4351617"><ele>60.42857142857142</ele><time>2026-04-25T13:27:47.161Z</time></trkpt><trkpt lat="41.0247217" lon="14.4350667"><ele>60.28571428571428</ele><time>2026-04-25T13:27:48.158Z</time></trkpt><trkpt lat="41.0247183" lon="14.43497"><ele>60.142857142857146</ele><time>2026-04-25T13:27:49.158Z</time></trkpt><trkpt lat="41.024715" lon="14.4348733"><ele>60.0</ele><time>2026-04-25T13:27:50.159Z</time></trkpt><trkpt lat="41.02471" lon="14.434775"><ele>60.0</ele><time>2026-04-25T13:27:51.159Z</time></trkpt><trkpt lat="41.0247067" lon="14.434675"><ele>60.0</ele><time>2026-04-25T13:27:52.158Z</time></trkpt><trkpt lat="41.0247017" lon="14.434575"><ele>60.0</ele><time>2026-04-25T13:27:53.159Z</time></trkpt><trkpt lat="41.024695" lon="14.4344817"><ele>60.0</ele><time>2026-04-25T13:27:54.16Z</time></trkpt><trkpt lat="41.02469" lon="14.4343867"><ele>60.0</ele><time>2026-04-25T13:27:55.158Z</time></trkpt><trkpt lat="41.024685" lon="14.4342933"><ele>60.0</ele><time>2026-04-25T13:27:56.161Z</time></trkpt><trkpt lat="41.02468" lon="14.434195"><ele>60.0</ele><time>2026-04-25T13:27:57.157Z</time></trkpt><trkpt lat="41.0246733" lon="14.434095"><ele>59.833333333333336</ele><time>2026-04-25T13:27:58.16Z</time></trkpt><trkpt lat="41.0246667" lon="14.4339933"><ele>59.66666666666667</ele><time>2026-04-25T13:27:59.158Z</time></trkpt><trkpt lat="41.024665" lon="14.4338917"><ele>59.5</ele><time>2026-04-25T13:28:00.16Z</time></trkpt><trkpt lat="41.0246633" lon="14.43379"><ele>59.333333333333336</ele><time>2026-04-25T13:28:01.159Z</time></trkpt><trkpt lat="41.0246583" lon="14.4336883"><ele>59.16666666666667</ele><time>2026-04-25T13:28:02.162Z</time></trkpt><trkpt lat="41.0246517" lon="14.433585"><ele>59.0</ele><time>2026-04-25T13:28:03.16Z</time></trkpt><trkpt lat="41.024645" lon="14.4334833"><ele>58.833333333333336</ele><time>2026-04-25T13:28:04.157Z</time></trkpt><trkpt lat="41.0246383" lon="14.43338"><ele>58.66666666666667</ele><time>2026-04-25T13:28:05.157Z</time></trkpt><trkpt lat="41.0246317" lon="14.4332767"><ele>58.5</ele><time>2026-04-25T13:28:06.159Z</time></trkpt><trkpt lat="41.024625" lon="14.4331767"><ele>58.33333333333333</ele><time>2026-04-25T13:28:07.158Z</time></trkpt><trkpt lat="41.0246217" lon="14.433075"><ele>58.166666666666664</ele><time>2026-04-25T13:28:08.16Z</time></trkpt><trkpt lat="41.0246183" lon="14.4329717"><ele>58.0</ele><time>2026-04-25T13:28:09.16Z</time></trkpt><trkpt lat="41.0246133" lon="14.43287"><ele>58.33333333333333</ele><time>2026-04-25T13:28:10.159Z</time></trkpt><trkpt lat="41.02461" lon="14.432765"><ele>58.666666666666664</ele><time>2026-04-25T13:28:11.157Z</time></trkpt><trkpt lat="41.024605" lon="14.4326633"><ele>59.0</ele><time>2026-04-25T13:28:12.16Z</time></trkpt><trkpt lat="41.0246" lon="14.43256"><ele>59.33333333333333</ele><time>2026-04-25T13:28:13.158Z</time></trkpt><trkpt lat="41.0245933" lon="14.4324617"><ele>59.666666666666664</ele><time>2026-04-25T13:28:14.159Z</time></trkpt><trkpt lat="41.0245917" lon="14.432365"><ele>60.0</ele><time>2026-04-25T13:28:15.16Z</time></trkpt><trkpt lat="41.0245883" lon="14.432265"><ele>60.0</ele><time>2026-04-25T13:28:16.16Z</time></trkpt><trkpt lat="41.024585" lon="14.4321667"><ele>60.0</ele><time>2026-04-25T13:28:17.159Z</time></trkpt><trkpt lat="41.02458" lon="14.4320683"><ele>60.0</ele><time>2026-04-25T13:28:18.159Z</time></trkpt><trkpt lat="41.0245733" lon="14.43197"><ele>60.0</ele><time>2026-04-25T13:28:19.16Z</time></trkpt><trkpt lat="41.0245683" lon="14.4318733"><ele>60.0</ele><time>2026-04-25T13:28:20.161Z</time></trkpt><trkpt lat="41.0245633" lon="14.4317733"><ele>60.0</ele><time>2026-04-25T13:28:21.159Z</time></trkpt><trkpt lat="41.02456" lon="14.4316733"><ele>60.0</ele><time>2026-04-25T13:28:22.16Z</time></trkpt><trkpt lat="41.0245567" lon="14.4315733"><ele>60.0</ele><time>2026-04-25T13:28:23.159Z</time></trkpt><trkpt lat="41.0245517" lon="14.4314717"><ele>60.0</ele><time>2026-04-25T13:28:24.158Z</time></trkpt><trkpt lat="41.0245433" lon="14.4313717"><ele>60.0</ele><time>2026-04-25T13:28:25.158Z</time></trkpt><trkpt lat="41.0245367" lon="14.4312733"><ele>60.0</ele><time>2026-04-25T13:28:26.159Z</time></trkpt><trkpt lat="41.0245333" lon="14.4311733"><ele>60.0</ele><time>2026-04-25T13:28:27.157Z</time></trkpt><trkpt lat="41.0245367" lon="14.431075"><ele>60.0</ele><time>2026-04-25T13:28:28.16Z</time></trkpt><trkpt lat="41.0245383" lon="14.4309717"><ele>59.833333333333336</ele><time>2026-04-25T13:28:29.159Z</time></trkpt><trkpt lat="41.0245433" lon="14.43087"><ele>59.66666666666667</ele><time>2026-04-25T13:28:30.16Z</time></trkpt><trkpt lat="41.0245533" lon="14.4307683"><ele>59.5</ele><time>2026-04-25T13:28:31.16Z</time></trkpt><trkpt lat="41.0245633" lon="14.4306633"><ele>59.333333333333336</ele><time>2026-04-25T13:28:32.161Z</time></trkpt><trkpt lat="41.0245767" lon="14.43056"><ele>59.16666666666667</ele><time>2026-04-25T13:28:33.16Z</time></trkpt><trkpt lat="41.0245917" lon="14.43046"><ele>59.0</ele><time>2026-04-25T13:28:34.157Z</time></trkpt><trkpt lat="41.0246017" lon="14.4303583"><ele>58.71428571428571</ele><time>2026-04-25T13:28:35.159Z</time></trkpt><trkpt lat="41.0246117" lon="14.4302533"><ele>58.42857142857143</ele><time>2026-04-25T13:28:36.16Z</time></trkpt><trkpt lat="41.0246233" lon="14.4301533"><ele>58.14285714285714</ele><time>2026-04-25T13:28:37.16Z</time></trkpt><trkpt lat="41.0246333" lon="14.4300567"><ele>57.857142857142854</ele><time>2026-04-25T13:28:38.159Z</time></trkpt><trkpt lat="41.0246433" lon="14.42996"><ele>57.57142857142857</ele><time>2026-04-25T13:28:39.158Z</time></trkpt><trkpt lat="41.024655" lon="14.42987"><ele>57.285714285714285</ele><time>2026-04-25T13:28:40.159Z</time></trkpt><trkpt lat="41.0246717" lon="14.429785"><ele>57.0</ele><time>2026-04-25T13:28:41.158Z</time></trkpt><trkpt lat="41.02469" lon="14.4297033"><ele>57.8</ele><time>2026-04-25T13:28:42.158Z</time></trkpt><trkpt lat="41.0247033" lon="14.4296217"><ele>58.6</ele><time>2026-04-25T13:28:43.159Z</time></trkpt><trkpt lat="41.0247283" lon="14.42947"><ele>59.39999999999999</ele><time>2026-04-25T13:28:45.157Z</time></trkpt><trkpt lat="41.0247483" lon="14.4293183"><ele>60.199999999999996</ele><time>2026-04-25T13:28:47.16Z</time></trkpt><trkpt lat="41.0247617" lon="14.42918"><ele>61.0</ele><time>2026-04-25T13:28:49.158Z</time></trkpt><trkpt lat="41.0247767" lon="14.4290483"><ele>60.99999999999999</ele><time>2026-04-25T13:28:51.161Z</time></trkpt><trkpt lat="41.0247917" lon="14.4289033"><ele>61.0</ele><time>2026-04-25T13:28:53.158Z</time></trkpt><trkpt lat="41.0248233" lon="14.4287467"><ele>61.0</ele><time>2026-04-25T13:28:55.158Z</time></trkpt><trkpt lat="41.0248383" lon="14.4286633"><ele>61.0</ele><time>2026-04-25T13:28:56.159Z</time></trkpt><trkpt lat="41.024855" lon="14.4285733"><ele>60.99999999999999</ele><time>2026-04-25T13:28:57.159Z</time></trkpt><trkpt lat="41.024875" lon="14.4284783"><ele>61.0</ele><time>2026-04-25T13:28:58.158Z</time></trkpt><trkpt lat="41.0248967" lon="14.42838"><ele>60.85714285714285</ele><time>2026-04-25T13:28:59.16Z</time></trkpt><trkpt lat="41.0249133" lon="14.4282817"><ele>60.71428571428571</ele><time>2026-04-25T13:29:00.161Z</time></trkpt><trkpt lat="41.02493" lon="14.4281833"><ele>60.57142857142857</ele><time>2026-04-25T13:29:01.16Z</time></trkpt><trkpt lat="41.024945" lon="14.4280883"><ele>60.42857142857142</ele><time>2026-04-25T13:29:02.162Z</time></trkpt><trkpt lat="41.02496" lon="14.4279933"><ele>60.28571428571428</ele><time>2026-04-25T13:29:03.158Z</time></trkpt><trkpt lat="41.024975" lon="14.4278983"><ele>60.142857142857146</ele><time>2026-04-25T13:29:04.158Z</time></trkpt><trkpt lat="41.02499" lon="14.4278067"><ele>60.0</ele><time>2026-04-25T13:29:05.157Z</time></trkpt><trkpt lat="41.0250017" lon="14.427715"><ele>59.714285714285715</ele><time>2026-04-25T13:29:06.16Z</time></trkpt><trkpt lat="41.025015" lon="14.427625"><ele>59.42857142857143</ele><time>2026-04-25T13:29:07.158Z</time></trkpt><trkpt lat="41.0250283" lon="14.4275367"><ele>59.142857142857146</ele><time>2026-04-25T13:29:08.158Z</time></trkpt><trkpt lat="41.0250417" lon="14.4274483"><ele>58.85714285714286</ele><time>2026-04-25T13:29:09.159Z</time></trkpt><trkpt lat="41.025055" lon="14.42736"><ele>58.57142857142857</ele><time>2026-04-25T13:29:10.159Z</time></trkpt><trkpt lat="41.0250667" lon="14.4272717"><ele>58.28571428571429</ele><time>2026-04-25T13:29:11.159Z</time></trkpt><trkpt lat="41.0250817" lon="14.4271767"><ele>58.00000000000001</ele><time>2026-04-25T13:29:12.161Z</time></trkpt><trkpt lat="41.0250933" lon="14.4270817"><ele>57.666666666666664</ele><time>2026-04-25T13:29:13.16Z</time></trkpt><trkpt lat="41.0251067" lon="14.4269817"><ele>57.33333333333333</ele><time>2026-04-25T13:29:14.162Z</time></trkpt><trkpt lat="41.0251217" lon="14.42688"><ele>57.0</ele><time>2026-04-25T13:29:15.161Z</time></trkpt><trkpt lat="41.025135" lon="14.4267783"><ele>56.66666666666667</ele><time>2026-04-25T13:29:16.159Z</time></trkpt><trkpt lat="41.0251483" lon="14.426675"><ele>56.333333333333336</ele><time>2026-04-25T13:29:17.159Z</time></trkpt><trkpt lat="41.02516" lon="14.4265733"><ele>56.0</ele><time>2026-04-25T13:29:18.158Z</time></trkpt><trkpt lat="41.0251717" lon="14.42647"><ele>56.00000000000001</ele><time>2026-04-25T13:29:19.157Z</time></trkpt><trkpt lat="41.0251867" lon="14.42637"><ele>56.0</ele><time>2026-04-25T13:29:20.159Z</time></trkpt><trkpt lat="41.0252033" lon="14.4262683"><ele>56.0</ele><time>2026-04-25T13:29:21.158Z</time></trkpt><trkpt lat="41.025215" lon="14.4261667"><ele>56.0</ele><time>2026-04-25T13:29:22.16Z</time></trkpt><trkpt lat="41.025225" lon="14.4260617"><ele>56.00000000000001</ele><time>2026-04-25T13:29:23.16Z</time></trkpt><trkpt lat="41.025235" lon="14.4259517"><ele>56.0</ele><time>2026-04-25T13:29:24.163Z</time></trkpt><trkpt lat="41.0252517" lon="14.425845"><ele>55.833333333333336</ele><time>2026-04-25T13:29:25.158Z</time></trkpt><trkpt lat="41.025275" lon="14.4257417"><ele>55.66666666666667</ele><time>2026-04-25T13:29:26.159Z</time></trkpt><trkpt lat="41.025295" lon="14.425635"><ele>55.5</ele><time>2026-04-25T13:29:27.159Z</time></trkpt><trkpt lat="41.02531" lon="14.4255267"><ele>55.33333333333333</ele><time>2026-04-25T13:29:28.16Z</time></trkpt><trkpt lat="41.025325" lon="14.42542"><ele>55.166666666666664</ele><time>2026-04-25T13:29:29.157Z</time></trkpt><trkpt lat="41.02534" lon="14.425315"><ele>55.0</ele><time>2026-04-25T13:29:30.158Z</time></trkpt><trkpt lat="41.0253567" lon="14.4252083"><ele>54.99999999999999</ele><time>2026-04-25T13:29:31.159Z</time></trkpt><trkpt lat="41.02537" lon="14.4251"><ele>55.0</ele><time>2026-04-25T13:29:32.16Z</time></trkpt><trkpt lat="41.0253867" lon="14.4249883"><ele>55.0</ele><time>2026-04-25T13:29:33.158Z</time></trkpt><trkpt lat="41.0254033" lon="14.4248817"><ele>55.0</ele><time>2026-04-25T13:29:34.158Z</time></trkpt><trkpt lat="41.02542" lon="14.4247733"><ele>54.99999999999999</ele><time>2026-04-25T13:29:35.159Z</time></trkpt><trkpt lat="41.025435" lon="14.424665"><ele>55.0</ele><time>2026-04-25T13:29:36.159Z</time></trkpt><trkpt lat="41.02545" lon="14.424555"><ele>54.83333333333333</ele><time>2026-04-25T13:29:37.158Z</time></trkpt><trkpt lat="41.0254667" lon="14.4244483"><ele>54.666666666666664</ele><time>2026-04-25T13:29:38.161Z</time></trkpt><trkpt lat="41.0254833" lon="14.42434"><ele>54.5</ele><time>2026-04-25T13:29:39.159Z</time></trkpt><trkpt lat="41.0255" lon="14.4242317"><ele>54.33333333333333</ele><time>2026-04-25T13:29:40.158Z</time></trkpt><trkpt lat="41.0255167" lon="14.42412"><ele>54.166666666666664</ele><time>2026-04-25T13:29:41.159Z</time></trkpt><trkpt lat="41.02553" lon="14.4240067"><ele>54.0</ele><time>2026-04-25T13:29:42.16Z</time></trkpt><trkpt lat="41.0255483" lon="14.4238967"><ele>53.833333333333336</ele><time>2026-04-25T13:29:43.159Z</time></trkpt><trkpt lat="41.0255683" lon="14.4237867"><ele>53.66666666666667</ele><time>2026-04-25T13:29:44.158Z</time></trkpt><trkpt lat="41.025585" lon="14.4236783"><ele>53.5</ele><time>2026-04-25T13:29:45.158Z</time></trkpt><trkpt lat="41.0256017" lon="14.4235683"><ele>53.333333333333336</ele><time>2026-04-25T13:29:46.159Z</time></trkpt><trkpt lat="41.0256183" lon="14.4234617"><ele>53.16666666666667</ele><time>2026-04-25T13:29:47.16Z</time></trkpt><trkpt lat="41.0256367" lon="14.4233517"><ele>53.0</ele><time>2026-04-25T13:29:48.158Z</time></trkpt><trkpt lat="41.0256533" lon="14.42324"><ele>53.00000000000001</ele><time>2026-04-25T13:29:49.159Z</time></trkpt><trkpt lat="41.02567" lon="14.4231283"><ele>53.0</ele><time>2026-04-25T13:29:50.159Z</time></trkpt><trkpt lat="41.0256867" lon="14.4230167"><ele>53.0</ele><time>2026-04-25T13:29:51.157Z</time></trkpt><trkpt lat="41.0257017" lon="14.422905"><ele>53.0</ele><time>2026-04-25T13:29:52.159Z</time></trkpt><trkpt lat="41.0257167" lon="14.4227933"><ele>53.00000000000001</ele><time>2026-04-25T13:29:53.158Z</time></trkpt><trkpt lat="41.0257333" lon="14.4226833"><ele>53.0</ele><time>2026-04-25T13:29:54.159Z</time></trkpt><trkpt lat="41.0257467" lon="14.4225733"><ele>53.00000000000001</ele><time>2026-04-25T13:29:55.158Z</time></trkpt><trkpt lat="41.0257633" lon="14.422465"><ele>53.0</ele><time>2026-04-25T13:29:56.159Z</time></trkpt><trkpt lat="41.0257783" lon="14.422355"><ele>53.0</ele><time>2026-04-25T13:29:57.159Z</time></trkpt><trkpt lat="41.025795" lon="14.4222483"><ele>53.0</ele><time>2026-04-25T13:29:58.158Z</time></trkpt><trkpt lat="41.0258133" lon="14.422135"><ele>53.00000000000001</ele><time>2026-04-25T13:29:59.158Z</time></trkpt><trkpt lat="41.02583" lon="14.4220217"><ele>53.0</ele><time>2026-04-25T13:30:00.16Z</time></trkpt><trkpt lat="41.0258433" lon="14.4219117"><ele>53.00000000000001</ele><time>2026-04-25T13:30:01.159Z</time></trkpt><trkpt lat="41.02586" lon="14.4217983"><ele>53.0</ele><time>2026-04-25T13:30:02.159Z</time></trkpt><trkpt lat="41.02588" lon="14.4216833"><ele>53.0</ele><time>2026-04-25T13:30:03.158Z</time></trkpt><trkpt lat="41.0258933" lon="14.4215667"><ele>53.0</ele><time>2026-04-25T13:30:04.158Z</time></trkpt><trkpt lat="41.0259067" lon="14.4214533"><ele>53.00000000000001</ele><time>2026-04-25T13:30:05.159Z</time></trkpt><trkpt lat="41.0259233" lon="14.4213433"><ele>53.0</ele><time>2026-04-25T13:30:06.161Z</time></trkpt><trkpt lat="41.02594" lon="14.421235"><ele>53.00000000000001</ele><time>2026-04-25T13:30:07.158Z</time></trkpt><trkpt lat="41.0259533" lon="14.4211283"><ele>53.0</ele><time>2026-04-25T13:30:08.158Z</time></trkpt><trkpt lat="41.0259683" lon="14.4210183"><ele>53.0</ele><time>2026-04-25T13:30:09.159Z</time></trkpt><trkpt lat="41.0259867" lon="14.4209083"><ele>53.0</ele><time>2026-04-25T13:30:10.159Z</time></trkpt><trkpt lat="41.026005" lon="14.4207967"><ele>53.00000000000001</ele><time>2026-04-25T13:30:11.159Z</time></trkpt><trkpt lat="41.02602" lon="14.420685"><ele>53.0</ele><time>2026-04-25T13:30:12.158Z</time></trkpt><trkpt lat="41.0260333" lon="14.42058"><ele>52.50000000000001</ele><time>2026-04-25T13:30:13.158Z</time></trkpt><trkpt lat="41.02605" lon="14.4204717"><ele>52.0</ele><time>2026-04-25T13:30:14.159Z</time></trkpt><trkpt lat="41.0260667" lon="14.4203617"><ele>51.5</ele><time>2026-04-25T13:30:15.159Z</time></trkpt><trkpt lat="41.0260833" lon="14.420255"><ele>51.0</ele><time>2026-04-25T13:30:16.159Z</time></trkpt><trkpt lat="41.0261" lon="14.4201433"><ele>50.50000000000001</ele><time>2026-04-25T13:30:17.16Z</time></trkpt><trkpt lat="41.0261167" lon="14.4200317"><ele>50.0</ele><time>2026-04-25T13:30:18.157Z</time></trkpt><trkpt lat="41.0261317" lon="14.4199217"><ele>50.00000000000001</ele><time>2026-04-25T13:30:19.158Z</time></trkpt><trkpt lat="41.02615" lon="14.4198133"><ele>50.0</ele><time>2026-04-25T13:30:20.159Z</time></trkpt><trkpt lat="41.0261667" lon="14.4197067"><ele>50.0</ele><time>2026-04-25T13:30:21.159Z</time></trkpt><trkpt lat="41.0261833" lon="14.419595"><ele>50.0</ele><time>2026-04-25T13:30:22.158Z</time></trkpt><trkpt lat="41.0262" lon="14.4194817"><ele>50.00000000000001</ele><time>2026-04-25T13:30:23.159Z</time></trkpt><trkpt lat="41.02622" lon="14.4193667"><ele>50.0</ele><time>2026-04-25T13:30:24.159Z</time></trkpt><trkpt lat="41.02624" lon="14.419255"><ele>50.16666666666667</ele><time>2026-04-25T13:30:25.158Z</time></trkpt><trkpt lat="41.0262583" lon="14.41914"><ele>50.333333333333336</ele><time>2026-04-25T13:30:26.158Z</time></trkpt><trkpt lat="41.026275" lon="14.4190283"><ele>50.5</ele><time>2026-04-25T13:30:27.158Z</time></trkpt><trkpt lat="41.0262917" lon="14.418915"><ele>50.66666666666667</ele><time>2026-04-25T13:30:28.158Z</time></trkpt><trkpt lat="41.0263067" lon="14.4188033"><ele>50.833333333333336</ele><time>2026-04-25T13:30:29.16Z</time></trkpt><trkpt lat="41.0263217" lon="14.4186917"><ele>51.0</ele><time>2026-04-25T13:30:30.16Z</time></trkpt><trkpt lat="41.026335" lon="14.4185833"><ele>50.5</ele><time>2026-04-25T13:30:31.159Z</time></trkpt><trkpt lat="41.02635" lon="14.4184733"><ele>50.0</ele><time>2026-04-25T13:30:32.159Z</time></trkpt><trkpt lat="41.0263683" lon="14.418365"><ele>49.5</ele><time>2026-04-25T13:30:33.16Z</time></trkpt><trkpt lat="41.0263833" lon="14.4182533"><ele>49.0</ele><time>2026-04-25T13:30:34.158Z</time></trkpt><trkpt lat="41.0264" lon="14.4181433"><ele>48.5</ele><time>2026-04-25T13:30:35.159Z</time></trkpt><trkpt lat="41.026415" lon="14.4180367"><ele>48.0</ele><time>2026-04-25T13:30:36.159Z</time></trkpt><trkpt lat="41.0264317" lon="14.4179267"><ele>47.833333333333336</ele><time>2026-04-25T13:30:37.158Z</time></trkpt><trkpt lat="41.0264483" lon="14.417815"><ele>47.666666666666664</ele><time>2026-04-25T13:30:38.159Z</time></trkpt><trkpt lat="41.0264633" lon="14.4177033"><ele>47.5</ele><time>2026-04-25T13:30:39.159Z</time></trkpt><trkpt lat="41.0264783" lon="14.41759"><ele>47.33333333333333</ele><time>2026-04-25T13:30:40.158Z</time></trkpt><trkpt lat="41.026495" lon="14.41748"><ele>47.166666666666664</ele><time>2026-04-25T13:30:41.16Z</time></trkpt><trkpt lat="41.0265117" lon="14.41737"><ele>47.0</ele><time>2026-04-25T13:30:42.158Z</time></trkpt><trkpt lat="41.0265283" lon="14.41726"><ele>47.166666666666664</ele><time>2026-04-25T13:30:43.159Z</time></trkpt><trkpt lat="41.026545" lon="14.4171517"><ele>47.33333333333333</ele><time>2026-04-25T13:30:44.16Z</time></trkpt><trkpt lat="41.02656" lon="14.4170433"><ele>47.5</ele><time>2026-04-25T13:30:45.159Z</time></trkpt><trkpt lat="41.026575" lon="14.4169367"><ele>47.666666666666664</ele><time>2026-04-25T13:30:46.161Z</time></trkpt><trkpt lat="41.0265917" lon="14.416825"><ele>47.833333333333336</ele><time>2026-04-25T13:30:47.161Z</time></trkpt><trkpt lat="41.0266067" lon="14.4167133"><ele>48.0</ele><time>2026-04-25T13:30:48.157Z</time></trkpt><trkpt lat="41.0266233" lon="14.4166067"><ele>48.0</ele><time>2026-04-25T13:30:49.159Z</time></trkpt><trkpt lat="41.0266383" lon="14.4164983"><ele>48.0</ele><time>2026-04-25T13:30:50.16Z</time></trkpt><trkpt lat="41.026655" lon="14.4163883"><ele>48.0</ele><time>2026-04-25T13:30:51.159Z</time></trkpt><trkpt lat="41.0266733" lon="14.41628"><ele>48.0</ele><time>2026-04-25T13:30:52.161Z</time></trkpt><trkpt lat="41.0266917" lon="14.4161733"><ele>48.0</ele><time>2026-04-25T13:30:53.161Z</time></trkpt><trkpt lat="41.0267083" lon="14.4160717"><ele>48.0</ele><time>2026-04-25T13:30:54.16Z</time></trkpt><trkpt lat="41.026725" lon="14.4159717"><ele>48.0</ele><time>2026-04-25T13:30:55.161Z</time></trkpt><trkpt lat="41.02674" lon="14.4158733"><ele>48.0</ele><time>2026-04-25T13:30:56.161Z</time></trkpt><trkpt lat="41.026755" lon="14.415775"><ele>48.0</ele><time>2026-04-25T13:30:57.161Z</time></trkpt><trkpt lat="41.02677" lon="14.41568"><ele>48.0</ele><time>2026-04-25T13:30:58.157Z</time></trkpt><trkpt lat="41.0267833" lon="14.41558"><ele>48.0</ele><time>2026-04-25T13:30:59.157Z</time></trkpt><trkpt lat="41.0267967" lon="14.4154783"><ele>48.0</ele><time>2026-04-25T13:31:00.158Z</time></trkpt><trkpt lat="41.0268133" lon="14.415375"><ele>48.166666666666664</ele><time>2026-04-25T13:31:01.158Z</time></trkpt><trkpt lat="41.0268283" lon="14.4152683"><ele>48.33333333333333</ele><time>2026-04-25T13:31:02.158Z</time></trkpt><trkpt lat="41.0268433" lon="14.41516"><ele>48.5</ele><time>2026-04-25T13:31:03.157Z</time></trkpt><trkpt lat="41.0268583" lon="14.4150517"><ele>48.666666666666664</ele><time>2026-04-25T13:31:04.159Z</time></trkpt><trkpt lat="41.0268717" lon="14.414945"><ele>48.83333333333333</ele><time>2026-04-25T13:31:05.159Z</time></trkpt><trkpt lat="41.0268867" lon="14.4148383"><ele>49.0</ele><time>2026-04-25T13:31:06.158Z</time></trkpt><trkpt lat="41.0269017" lon="14.4147333"><ele>48.99999999999999</ele><time>2026-04-25T13:31:07.158Z</time></trkpt><trkpt lat="41.0269167" lon="14.4146267"><ele>49.0</ele><time>2026-04-25T13:31:08.159Z</time></trkpt><trkpt lat="41.0269317" lon="14.41452"><ele>49.0</ele><time>2026-04-25T13:31:09.161Z</time></trkpt><trkpt lat="41.0269483" lon="14.414415"><ele>49.0</ele><time>2026-04-25T13:31:10.159Z</time></trkpt><trkpt lat="41.02696" lon="14.41431"><ele>48.99999999999999</ele><time>2026-04-25T13:31:11.157Z</time></trkpt><trkpt lat="41.0269733" lon="14.4142033"><ele>49.0</ele><time>2026-04-25T13:31:12.158Z</time></trkpt><trkpt lat="41.02699" lon="14.4141"><ele>48.99999999999999</ele><time>2026-04-25T13:31:13.16Z</time></trkpt><trkpt lat="41.027005" lon="14.4139983"><ele>49.0</ele><time>2026-04-25T13:31:14.158Z</time></trkpt><trkpt lat="41.0270183" lon="14.4138967"><ele>49.0</ele><time>2026-04-25T13:31:15.159Z</time></trkpt><trkpt lat="41.0270333" lon="14.41379"><ele>49.0</ele><time>2026-04-25T13:31:16.161Z</time></trkpt><trkpt lat="41.0270517" lon="14.4136883"><ele>48.99999999999999</ele><time>2026-04-25T13:31:17.161Z</time></trkpt><trkpt lat="41.0270683" lon="14.413585"><ele>49.0</ele><time>2026-04-25T13:31:18.16Z</time></trkpt><trkpt lat="41.0270833" lon="14.4134817"><ele>48.666666666666664</ele><time>2026-04-25T13:31:19.161Z</time></trkpt><trkpt lat="41.0270983" lon="14.4133783"><ele>48.33333333333333</ele><time>2026-04-25T13:31:20.162Z</time></trkpt><trkpt lat="41.0271117" lon="14.4132733"><ele>48.0</ele><time>2026-04-25T13:31:21.161Z</time></trkpt><trkpt lat="41.0271233" lon="14.4131667"><ele>47.666666666666664</ele><time>2026-04-25T13:31:22.157Z</time></trkpt><trkpt lat="41.0271333" lon="14.41306"><ele>47.33333333333333</ele><time>2026-04-25T13:31:23.157Z</time></trkpt><trkpt lat="41.02715" lon="14.412955"><ele>47.0</ele><time>2026-04-25T13:31:24.159Z</time></trkpt><trkpt lat="41.0271667" lon="14.4128517"><ele>47.0</ele><time>2026-04-25T13:31:25.158Z</time></trkpt><trkpt lat="41.027185" lon="14.4127483"><ele>47.0</ele><time>2026-04-25T13:31:26.159Z</time></trkpt><trkpt lat="41.0272" lon="14.41264"><ele>47.0</ele><time>2026-04-25T13:31:27.159Z</time></trkpt><trkpt lat="41.0272167" lon="14.412535"><ele>47.0</ele><time>2026-04-25T13:31:28.159Z</time></trkpt><trkpt lat="41.02723" lon="14.4124317"><ele>47.0</ele><time>2026-04-25T13:31:29.16Z</time></trkpt><trkpt lat="41.0272433" lon="14.4123317"><ele>47.0</ele><time>2026-04-25T13:31:30.16Z</time></trkpt><trkpt lat="41.0272583" lon="14.41223"><ele>47.0</ele><time>2026-04-25T13:31:31.159Z</time></trkpt><trkpt lat="41.0272733" lon="14.4121267"><ele>47.0</ele><time>2026-04-25T13:31:32.16Z</time></trkpt><trkpt lat="41.02729" lon="14.4120267"><ele>47.0</ele><time>2026-04-25T13:31:33.158Z</time></trkpt><trkpt lat="41.0273067" lon="14.4119267"><ele>47.0</ele><time>2026-04-25T13:31:34.159Z</time></trkpt><trkpt lat="41.0273233" lon="14.4118317"><ele>47.0</ele><time>2026-04-25T13:31:35.16Z</time></trkpt><trkpt lat="41.0273383" lon="14.411735"><ele>47.0</ele><time>2026-04-25T13:31:36.159Z</time></trkpt><trkpt lat="41.0273517" lon="14.4116383"><ele>47.0</ele><time>2026-04-25T13:31:37.158Z</time></trkpt><trkpt lat="41.0273667" lon="14.4115417"><ele>47.0</ele><time>2026-04-25T13:31:38.158Z</time></trkpt><trkpt lat="41.0273817" lon="14.411445"><ele>47.0</ele><time>2026-04-25T13:31:39.16Z</time></trkpt><trkpt lat="41.0273967" lon="14.4113483"><ele>47.0</ele><time>2026-04-25T13:31:40.157Z</time></trkpt><trkpt lat="41.0274117" lon="14.4112533"><ele>47.0</ele><time>2026-04-25T13:31:41.157Z</time></trkpt><trkpt lat="41.027425" lon="14.4111583"><ele>47.0</ele><time>2026-04-25T13:31:42.163Z</time></trkpt><trkpt lat="41.02744" lon="14.4110667"><ele>47.0</ele><time>2026-04-25T13:31:43.158Z</time></trkpt><trkpt lat="41.0274533" lon="14.4109733"><ele>47.0</ele><time>2026-04-25T13:31:44.16Z</time></trkpt><trkpt lat="41.0274667" lon="14.4108817"><ele>47.0</ele><time>2026-04-25T13:31:45.158Z</time></trkpt><trkpt lat="41.0274817" lon="14.4107883"><ele>47.0</ele><time>2026-04-25T13:31:46.161Z</time></trkpt><trkpt lat="41.0274967" lon="14.4106983"><ele>47.0</ele><time>2026-04-25T13:31:47.162Z</time></trkpt><trkpt lat="41.0275133" lon="14.4106083"><ele>47.0</ele><time>2026-04-25T13:31:48.159Z</time></trkpt><trkpt lat="41.027525" lon="14.4105183"><ele>47.0</ele><time>2026-04-25T13:31:49.162Z</time></trkpt><trkpt lat="41.0275333" lon="14.4104283"><ele>47.0</ele><time>2026-04-25T13:31:50.161Z</time></trkpt><trkpt lat="41.0275433" lon="14.4103367"><ele>47.14285714285714</ele><time>2026-04-25T13:31:51.159Z</time></trkpt><trkpt lat="41.027555" lon="14.4102483"><ele>47.285714285714285</ele><time>2026-04-25T13:31:52.158Z</time></trkpt><trkpt lat="41.0275683" lon="14.4101633"><ele>47.42857142857143</ele><time>2026-04-25T13:31:53.157Z</time></trkpt><trkpt lat="41.0275817" lon="14.4100717"><ele>47.57142857142857</ele><time>2026-04-25T13:31:54.158Z</time></trkpt><trkpt lat="41.027595" lon="14.409985"><ele>47.714285714285715</ele><time>2026-04-25T13:31:55.159Z</time></trkpt><trkpt lat="41.02761" lon="14.4098967"><ele>47.857142857142854</ele><time>2026-04-25T13:31:56.16Z</time></trkpt><trkpt lat="41.0276233" lon="14.4098083"><ele>48.0</ele><time>2026-04-25T13:31:57.158Z</time></trkpt><trkpt lat="41.0276367" lon="14.4097183"><ele>48.42857142857142</ele><time>2026-04-25T13:31:58.159Z</time></trkpt><trkpt lat="41.0276483" lon="14.4096267"><ele>48.857142857142854</ele><time>2026-04-25T13:31:59.16Z</time></trkpt><trkpt lat="41.0276617" lon="14.4095333"><ele>49.285714285714285</ele><time>2026-04-25T13:32:00.161Z</time></trkpt><trkpt lat="41.027675" lon="14.4094417"><ele>49.71428571428571</ele><time>2026-04-25T13:32:01.159Z</time></trkpt><trkpt lat="41.0276883" lon="14.4093483"><ele>50.142857142857146</ele><time>2026-04-25T13:32:02.16Z</time></trkpt><trkpt lat="41.0277033" lon="14.4092567"><ele>50.57142857142857</ele><time>2026-04-25T13:32:03.157Z</time></trkpt><trkpt lat="41.0277183" lon="14.4091617"><ele>51.0</ele><time>2026-04-25T13:32:04.159Z</time></trkpt><trkpt lat="41.027735" lon="14.4090667"><ele>51.0</ele><time>2026-04-25T13:32:05.159Z</time></trkpt><trkpt lat="41.0277483" lon="14.4089683"><ele>51.0</ele><time>2026-04-25T13:32:06.161Z</time></trkpt><trkpt lat="41.027765" lon="14.408875"><ele>51.0</ele><time>2026-04-25T13:32:07.161Z</time></trkpt><trkpt lat="41.0277833" lon="14.408785"><ele>51.0</ele><time>2026-04-25T13:32:08.159Z</time></trkpt><trkpt lat="41.0278033" lon="14.408695"><ele>51.0</ele><time>2026-04-25T13:32:09.158Z</time></trkpt><trkpt lat="41.0278217" lon="14.4086067"><ele>51.0</ele><time>2026-04-25T13:32:10.159Z</time></trkpt><trkpt lat="41.0278417" lon="14.40852"><ele>51.0</ele><time>2026-04-25T13:32:11.158Z</time></trkpt><trkpt lat="41.0278633" lon="14.40844"><ele>51.0</ele><time>2026-04-25T13:32:12.161Z</time></trkpt><trkpt lat="41.027885" lon="14.4083583"><ele>51.0</ele><time>2026-04-25T13:32:13.159Z</time></trkpt><trkpt lat="41.02793" lon="14.4081983"><ele>51.0</ele><time>2026-04-25T13:32:15.161Z</time></trkpt><trkpt lat="41.0279533" lon="14.4081183"><ele>51.0</ele><time>2026-04-25T13:32:16.158Z</time></trkpt><trkpt lat="41.0279767" lon="14.4080383"><ele>51.0</ele><time>2026-04-25T13:32:17.161Z</time></trkpt><trkpt lat="41.0280033" lon="14.4079617"><ele>51.0</ele><time>2026-04-25T13:32:18.161Z</time></trkpt><trkpt lat="41.0280283" lon="14.4078833"><ele>51.0</ele><time>2026-04-25T13:32:19.16Z</time></trkpt><trkpt lat="41.028055" lon="14.407805"><ele>51.0</ele><time>2026-04-25T13:32:20.159Z</time></trkpt><trkpt lat="41.0281033" lon="14.4076533"><ele>51.0</ele><time>2026-04-25T13:32:22.162Z</time></trkpt><trkpt lat="41.028155" lon="14.4075083"><ele>51.0</ele><time>2026-04-25T13:32:24.162Z</time></trkpt><trkpt lat="41.0282067" lon="14.4073633"><ele>51.0</ele><time>2026-04-25T13:32:26.16Z</time></trkpt><trkpt lat="41.028255" lon="14.4072217"><ele>51.25</ele><time>2026-04-25T13:32:28.158Z</time></trkpt><trkpt lat="41.0283033" lon="14.4070817"><ele>51.5</ele><time>2026-04-25T13:32:30.16Z</time></trkpt><trkpt lat="41.028355" lon="14.4069467"><ele>51.75</ele><time>2026-04-25T13:32:32.159Z</time></trkpt><trkpt lat="41.0284" lon="14.4068133"><ele>52.0</ele><time>2026-04-25T13:32:34.16Z</time></trkpt><trkpt lat="41.0284433" lon="14.40668"><ele>52.6</ele><time>2026-04-25T13:32:36.159Z</time></trkpt><trkpt lat="41.02849" lon="14.4065467"><ele>53.2</ele><time>2026-04-25T13:32:38.16Z</time></trkpt><trkpt lat="41.0285433" lon="14.4064183"><ele>53.8</ele><time>2026-04-25T13:32:40.159Z</time></trkpt><trkpt lat="41.0285933" lon="14.40629"><ele>54.4</ele><time>2026-04-25T13:32:42.16Z</time></trkpt><trkpt lat="41.028635" lon="14.40616"><ele>55.0</ele><time>2026-04-25T13:32:44.159Z</time></trkpt><trkpt lat="41.0286767" lon="14.4060367"><ele>54.99999999999999</ele><time>2026-04-25T13:32:46.157Z</time></trkpt><trkpt lat="41.02872" lon="14.4059283"><ele>55.0</ele><time>2026-04-25T13:32:48.161Z</time></trkpt><trkpt lat="41.028755" lon="14.405825"><ele>55.0</ele><time>2026-04-25T13:32:50.162Z</time></trkpt><trkpt lat="41.0287917" lon="14.4057167"><ele>55.0</ele><time>2026-04-25T13:32:52.158Z</time></trkpt><trkpt lat="41.02883" lon="14.4056183"><ele>54.99999999999999</ele><time>2026-04-25T13:32:54.159Z</time></trkpt><trkpt lat="41.0288667" lon="14.405515"><ele>55.0</ele><time>2026-04-25T13:32:56.163Z</time></trkpt><trkpt lat="41.0289" lon="14.405415"><ele>55.166666666666664</ele><time>2026-04-25T13:32:58.161Z</time></trkpt><trkpt lat="41.02894" lon="14.40531"><ele>55.33333333333333</ele><time>2026-04-25T13:33:00.162Z</time></trkpt><trkpt lat="41.02898" lon="14.405205"><ele>55.5</ele><time>2026-04-25T13:33:02.161Z</time></trkpt><trkpt lat="41.0290167" lon="14.4050983"><ele>55.66666666666667</ele><time>2026-04-25T13:33:04.161Z</time></trkpt><trkpt lat="41.0290517" lon="14.40499"><ele>55.833333333333336</ele><time>2026-04-25T13:33:06.157Z</time></trkpt><trkpt lat="41.0290867" lon="14.4048783"><ele>56.0</ele><time>2026-04-25T13:33:08.16Z</time></trkpt><trkpt lat="41.0291267" lon="14.4047683"><ele>56.199999999999996</ele><time>2026-04-25T13:33:10.157Z</time></trkpt><trkpt lat="41.0291733" lon="14.40465"><ele>56.39999999999999</ele><time>2026-04-25T13:33:12.159Z</time></trkpt><trkpt lat="41.02922" lon="14.4045367"><ele>56.6</ele><time>2026-04-25T13:33:14.16Z</time></trkpt><trkpt lat="41.02926" lon="14.4044083"><ele>56.8</ele><time>2026-04-25T13:33:16.161Z</time></trkpt><trkpt lat="41.0293067" lon="14.40428"><ele>57.0</ele><time>2026-04-25T13:33:18.16Z</time></trkpt><trkpt lat="41.02936" lon="14.40413"><ele>57.0</ele><time>2026-04-25T13:33:20.16Z</time></trkpt><trkpt lat="41.0294083" lon="14.403985"><ele>57.0</ele><time>2026-04-25T13:33:22.16Z</time></trkpt><trkpt lat="41.029435" lon="14.4039067"><ele>57.0</ele><time>2026-04-25T13:33:23.161Z</time></trkpt><trkpt lat="41.0294833" lon="14.4037583"><ele>57.0</ele><time>2026-04-25T13:33:25.157Z</time></trkpt><trkpt lat="41.029535" lon="14.4036167"><ele>57.0</ele><time>2026-04-25T13:33:27.157Z</time></trkpt><trkpt lat="41.0295883" lon="14.4034633"><ele>57.400000000000006</ele><time>2026-04-25T13:33:29.16Z</time></trkpt><trkpt lat="41.0296433" lon="14.4033167"><ele>57.800000000000004</ele><time>2026-04-25T13:33:31.16Z</time></trkpt><trkpt lat="41.029695" lon="14.40317"><ele>58.2</ele><time>2026-04-25T13:33:33.16Z</time></trkpt><trkpt lat="41.0297417" lon="14.4030183"><ele>58.6</ele><time>2026-04-25T13:33:35.16Z</time></trkpt><trkpt lat="41.02977" lon="14.40294"><ele>59.0</ele><time>2026-04-25T13:33:36.161Z</time></trkpt><trkpt lat="41.0298017" lon="14.40286"><ele>59.0</ele><time>2026-04-25T13:33:37.161Z</time></trkpt><trkpt lat="41.0298333" lon="14.402775"><ele>59.0</ele><time>2026-04-25T13:33:38.161Z</time></trkpt><trkpt lat="41.029865" lon="14.4026933"><ele>59.0</ele><time>2026-04-25T13:33:39.162Z</time></trkpt><trkpt lat="41.0298967" lon="14.4026067"><ele>59.0</ele><time>2026-04-25T13:33:40.161Z</time></trkpt><trkpt lat="41.0299283" lon="14.40252"><ele>59.0</ele><time>2026-04-25T13:33:41.16Z</time></trkpt><trkpt lat="41.02996" lon="14.4024317"><ele>59.0</ele><time>2026-04-25T13:33:42.161Z</time></trkpt><trkpt lat="41.0299917" lon="14.40234"><ele>59.0</ele><time>2026-04-25T13:33:43.158Z</time></trkpt><trkpt lat="41.0300233" lon="14.4022483"><ele>59.16666666666667</ele><time>2026-04-25T13:33:44.164Z</time></trkpt><trkpt lat="41.0300567" lon="14.402155"><ele>59.333333333333336</ele><time>2026-04-25T13:33:45.157Z</time></trkpt><trkpt lat="41.03009" lon="14.4020617"><ele>59.5</ele><time>2026-04-25T13:33:46.161Z</time></trkpt><trkpt lat="41.0301217" lon="14.4019683"><ele>59.66666666666667</ele><time>2026-04-25T13:33:47.158Z</time></trkpt><trkpt lat="41.0301517" lon="14.4018733"><ele>59.833333333333336</ele><time>2026-04-25T13:33:48.158Z</time></trkpt><trkpt lat="41.0301817" lon="14.40178"><ele>60.0</ele><time>2026-04-25T13:33:49.158Z</time></trkpt><trkpt lat="41.03021" lon="14.4016883"><ele>60.0</ele><time>2026-04-25T13:33:50.161Z</time></trkpt><trkpt lat="41.03024" lon="14.4016"><ele>60.0</ele><time>2026-04-25T13:33:51.16Z</time></trkpt><trkpt lat="41.0302717" lon="14.4015133"><ele>60.0</ele><time>2026-04-25T13:33:52.162Z</time></trkpt><trkpt lat="41.0303017" lon="14.401425"><ele>60.0</ele><time>2026-04-25T13:33:53.158Z</time></trkpt><trkpt lat="41.0303283" lon="14.4013383"><ele>60.0</ele><time>2026-04-25T13:33:54.163Z</time></trkpt><trkpt lat="41.0303533" lon="14.4012533"><ele>60.0</ele><time>2026-04-25T13:33:55.161Z</time></trkpt><trkpt lat="41.0303767" lon="14.4011683"><ele>60.0</ele><time>2026-04-25T13:33:56.161Z</time></trkpt><trkpt lat="41.0303967" lon="14.4010833"><ele>60.0</ele><time>2026-04-25T13:33:57.16Z</time></trkpt><trkpt lat="41.0304183" lon="14.4010017"><ele>60.0</ele><time>2026-04-25T13:33:58.16Z</time></trkpt><trkpt lat="41.0304383" lon="14.4009183"><ele>60.0</ele><time>2026-04-25T13:33:59.159Z</time></trkpt><trkpt lat="41.0304583" lon="14.4008333"><ele>60.0</ele><time>2026-04-25T13:34:00.158Z</time></trkpt><trkpt lat="41.030475" lon="14.4007517"><ele>60.0</ele><time>2026-04-25T13:34:01.16Z</time></trkpt><trkpt lat="41.030485" lon="14.400665"><ele>60.0</ele><time>2026-04-25T13:34:02.16Z</time></trkpt><trkpt lat="41.0304933" lon="14.40058"><ele>60.0</ele><time>2026-04-25T13:34:03.161Z</time></trkpt><trkpt lat="41.030495" lon="14.400495"><ele>59.85714285714286</ele><time>2026-04-25T13:34:04.16Z</time></trkpt><trkpt lat="41.0304967" lon="14.40041"><ele>59.71428571428571</ele><time>2026-04-25T13:34:05.161Z</time></trkpt><trkpt lat="41.0305017" lon="14.4003233"><ele>59.57142857142857</ele><time>2026-04-25T13:34:06.16Z</time></trkpt><trkpt lat="41.0305067" lon="14.40024"><ele>59.42857142857143</ele><time>2026-04-25T13:34:07.158Z</time></trkpt><trkpt lat="41.0305117" lon="14.4001567"><ele>59.28571428571429</ele><time>2026-04-25T13:34:08.159Z</time></trkpt><trkpt lat="41.0305133" lon="14.4000717"><ele>59.14285714285714</ele><time>2026-04-25T13:34:09.159Z</time></trkpt><trkpt lat="41.0305117" lon="14.3999867"><ele>59.0</ele><time>2026-04-25T13:34:10.161Z</time></trkpt><trkpt lat="41.0305067" lon="14.3999"><ele>59.0</ele><time>2026-04-25T13:34:11.16Z</time></trkpt><trkpt lat="41.0305" lon="14.3998167"><ele>59.0</ele><time>2026-04-25T13:34:12.16Z</time></trkpt><trkpt lat="41.030495" lon="14.39973"><ele>59.0</ele><time>2026-04-25T13:34:13.157Z</time></trkpt><trkpt lat="41.030485" lon="14.3996417"><ele>59.0</ele><time>2026-04-25T13:34:14.159Z</time></trkpt><trkpt lat="41.0304733" lon="14.3995567"><ele>59.0</ele><time>2026-04-25T13:34:15.16Z</time></trkpt><trkpt lat="41.03046" lon="14.3994717"><ele>59.0</ele><time>2026-04-25T13:34:16.158Z</time></trkpt><trkpt lat="41.0304467" lon="14.3993867"><ele>59.0</ele><time>2026-04-25T13:34:17.159Z</time></trkpt><trkpt lat="41.0304333" lon="14.3993033"><ele>59.0</ele><time>2026-04-25T13:34:18.159Z</time></trkpt><trkpt lat="41.0304017" lon="14.3991517"><ele>59.0</ele><time>2026-04-25T13:34:20.158Z</time></trkpt><trkpt lat="41.03038" lon="14.3990717"><ele>59.0</ele><time>2026-04-25T13:34:21.158Z</time></trkpt><trkpt lat="41.0303617" lon="14.39899"><ele>59.0</ele><time>2026-04-25T13:34:22.159Z</time></trkpt><trkpt lat="41.0303433" lon="14.39891"><ele>59.0</ele><time>2026-04-25T13:34:23.162Z</time></trkpt><trkpt lat="41.030325" lon="14.398825"><ele>59.0</ele><time>2026-04-25T13:34:24.17Z</time></trkpt><trkpt lat="41.030305" lon="14.3987367"><ele>59.0</ele><time>2026-04-25T13:34:25.157Z</time></trkpt><trkpt lat="41.0302783" lon="14.3986533"><ele>59.0</ele><time>2026-04-25T13:34:26.159Z</time></trkpt><trkpt lat="41.0302517" lon="14.3985717"><ele>59.0</ele><time>2026-04-25T13:34:27.157Z</time></trkpt><trkpt lat="41.03022" lon="14.39849"><ele>59.0</ele><time>2026-04-25T13:34:28.159Z</time></trkpt><trkpt lat="41.0301883" lon="14.39841"><ele>59.0</ele><time>2026-04-25T13:34:29.156Z</time></trkpt><trkpt lat="41.0301617" lon="14.3983267"><ele>59.0</ele><time>2026-04-25T13:34:30.169Z</time></trkpt><trkpt lat="41.0301383" lon="14.398235"><ele>59.0</ele><time>2026-04-25T13:34:31.16Z</time></trkpt><trkpt lat="41.0301117" lon="14.3981433"><ele>59.0</ele><time>2026-04-25T13:34:32.17Z</time></trkpt><trkpt lat="41.0300867" lon="14.398055"><ele>58.857142857142854</ele><time>2026-04-25T13:34:33.161Z</time></trkpt><trkpt lat="41.030055" lon="14.3979717"><ele>58.71428571428572</ele><time>2026-04-25T13:34:34.157Z</time></trkpt><trkpt lat="41.0300333" lon="14.3978883"><ele>58.57142857142858</ele><time>2026-04-25T13:34:35.157Z</time></trkpt><trkpt lat="41.0300083" lon="14.3977983"><ele>58.42857142857143</ele><time>2026-04-25T13:34:36.157Z</time></trkpt><trkpt lat="41.029985" lon="14.39771"><ele>58.28571428571429</ele><time>2026-04-25T13:34:37.156Z</time></trkpt><trkpt lat="41.0299617" lon="14.3976217"><ele>58.14285714285715</ele><time>2026-04-25T13:34:38.157Z</time></trkpt><trkpt lat="41.02994" lon="14.3975383"><ele>58.00000000000001</ele><time>2026-04-25T13:34:39.156Z</time></trkpt><trkpt lat="41.0299167" lon="14.3974567"><ele>57.83333333333333</ele><time>2026-04-25T13:34:40.156Z</time></trkpt><trkpt lat="41.0298883" lon="14.397375"><ele>57.666666666666664</ele><time>2026-04-25T13:34:41.156Z</time></trkpt><trkpt lat="41.029865" lon="14.397285"><ele>57.5</ele><time>2026-04-25T13:34:42.157Z</time></trkpt><trkpt lat="41.0298417" lon="14.3971933"><ele>57.33333333333333</ele><time>2026-04-25T13:34:43.157Z</time></trkpt><trkpt lat="41.0298117" lon="14.3970933"><ele>57.166666666666664</ele><time>2026-04-25T13:34:44.158Z</time></trkpt><trkpt lat="41.029795" lon="14.396985"><ele>57.0</ele><time>2026-04-25T13:34:45.156Z</time></trkpt><trkpt lat="41.0297583" lon="14.3968267"><ele>57.0</ele><time>2026-04-25T13:34:47.158Z</time></trkpt><trkpt lat="41.0297383" lon="14.3967367"><ele>56.99999999999999</ele><time>2026-04-25T13:34:48.156Z</time></trkpt><trkpt lat="41.0297183" lon="14.3966467"><ele>57.0</ele><time>2026-04-25T13:34:49.159Z</time></trkpt><trkpt lat="41.0296967" lon="14.3965517"><ele>57.0</ele><time>2026-04-25T13:34:50.157Z</time></trkpt><trkpt lat="41.0296733" lon="14.39646"><ele>56.99999999999999</ele><time>2026-04-25T13:34:51.156Z</time></trkpt><trkpt lat="41.029655" lon="14.3963667"><ele>57.0</ele><time>2026-04-25T13:34:52.157Z</time></trkpt><trkpt lat="41.029635" lon="14.39627"><ele>57.0</ele><time>2026-04-25T13:34:53.158Z</time></trkpt><trkpt lat="41.0296133" lon="14.3961733"><ele>57.166666666666664</ele><time>2026-04-25T13:34:54.156Z</time></trkpt><trkpt lat="41.029595" lon="14.3960767"><ele>57.33333333333333</ele><time>2026-04-25T13:34:55.157Z</time></trkpt><trkpt lat="41.029575" lon="14.3959833"><ele>57.5</ele><time>2026-04-25T13:34:56.156Z</time></trkpt><trkpt lat="41.0295567" lon="14.3958867"><ele>57.666666666666664</ele><time>2026-04-25T13:34:57.157Z</time></trkpt><trkpt lat="41.02954" lon="14.3957867"><ele>57.83333333333333</ele><time>2026-04-25T13:34:58.156Z</time></trkpt><trkpt lat="41.0295217" lon="14.3956867"><ele>58.0</ele><time>2026-04-25T13:34:59.156Z</time></trkpt><trkpt lat="41.0295" lon="14.3955883"><ele>58.00000000000001</ele><time>2026-04-25T13:35:00.156Z</time></trkpt><trkpt lat="41.02948" lon="14.3954933"><ele>58.0</ele><time>2026-04-25T13:35:01.157Z</time></trkpt><trkpt lat="41.0294633" lon="14.3953967"><ele>58.00000000000001</ele><time>2026-04-25T13:35:02.157Z</time></trkpt><trkpt lat="41.0294467" lon="14.3953"><ele>58.00000000000001</ele><time>2026-04-25T13:35:03.156Z</time></trkpt><trkpt lat="41.0294333" lon="14.39521"><ele>58.0</ele><time>2026-04-25T13:35:04.157Z</time></trkpt><trkpt lat="41.0294183" lon="14.39512"><ele>58.00000000000001</ele><time>2026-04-25T13:35:05.158Z</time></trkpt><trkpt lat="41.0294033" lon="14.3950317"><ele>58.00000000000001</ele><time>2026-04-25T13:35:06.157Z</time></trkpt><trkpt lat="41.0293833" lon="14.394945"><ele>58.00000000000001</ele><time>2026-04-25T13:35:07.156Z</time></trkpt><trkpt lat="41.0293633" lon="14.394855"><ele>58.0</ele><time>2026-04-25T13:35:08.158Z</time></trkpt><trkpt lat="41.0293433" lon="14.394765"><ele>58.00000000000001</ele><time>2026-04-25T13:35:09.157Z</time></trkpt><trkpt lat="41.029325" lon="14.3946733"><ele>58.00000000000001</ele><time>2026-04-25T13:35:10.158Z</time></trkpt><trkpt lat="41.0293017" lon="14.3945883"><ele>58.0</ele><time>2026-04-25T13:35:11.159Z</time></trkpt><trkpt lat="41.0292817" lon="14.3945083"><ele>58.00000000000001</ele><time>2026-04-25T13:35:12.157Z</time></trkpt><trkpt lat="41.0292617" lon="14.39442"><ele>58.00000000000001</ele><time>2026-04-25T13:35:13.157Z</time></trkpt><trkpt lat="41.0292433" lon="14.3943233"><ele>57.83333333333333</ele><time>2026-04-25T13:35:14.156Z</time></trkpt><trkpt lat="41.0292233" lon="14.3942267"><ele>57.666666666666664</ele><time>2026-04-25T13:35:15.157Z</time></trkpt><trkpt lat="41.0292" lon="14.3941333"><ele>57.5</ele><time>2026-04-25T13:35:16.157Z</time></trkpt><trkpt lat="41.0291783" lon="14.394035"><ele>57.33333333333333</ele><time>2026-04-25T13:35:17.156Z</time></trkpt><trkpt lat="41.0291617" lon="14.3939383"><ele>57.166666666666664</ele><time>2026-04-25T13:35:18.157Z</time></trkpt><trkpt lat="41.0291467" lon="14.3938383"><ele>57.0</ele><time>2026-04-25T13:35:19.156Z</time></trkpt><trkpt lat="41.029135" lon="14.393735"><ele>56.666666666666664</ele><time>2026-04-25T13:35:20.159Z</time></trkpt><trkpt lat="41.0291233" lon="14.3936367"><ele>56.33333333333333</ele><time>2026-04-25T13:35:21.157Z</time></trkpt><trkpt lat="41.02911" lon="14.3935367"><ele>56.0</ele><time>2026-04-25T13:35:22.158Z</time></trkpt><trkpt lat="41.0290917" lon="14.393435"><ele>55.666666666666664</ele><time>2026-04-25T13:35:23.156Z</time></trkpt><trkpt lat="41.0290733" lon="14.39334"><ele>55.33333333333333</ele><time>2026-04-25T13:35:24.157Z</time></trkpt><trkpt lat="41.0290567" lon="14.3932483"><ele>55.0</ele><time>2026-04-25T13:35:25.158Z</time></trkpt><trkpt lat="41.0290383" lon="14.3931517"><ele>54.99999999999999</ele><time>2026-04-25T13:35:26.158Z</time></trkpt><trkpt lat="41.0290183" lon="14.3930633"><ele>55.0</ele><time>2026-04-25T13:35:27.157Z</time></trkpt><trkpt lat="41.029005" lon="14.39297"><ele>55.0</ele><time>2026-04-25T13:35:28.156Z</time></trkpt><trkpt lat="41.0289933" lon="14.392875"><ele>55.0</ele><time>2026-04-25T13:35:29.158Z</time></trkpt><trkpt lat="41.0289783" lon="14.3927817"><ele>55.0</ele><time>2026-04-25T13:35:30.157Z</time></trkpt><trkpt lat="41.028965" lon="14.3926817"><ele>54.99999999999999</ele><time>2026-04-25T13:35:31.157Z</time></trkpt><trkpt lat="41.0289567" lon="14.3925783"><ele>55.0</ele><time>2026-04-25T13:35:32.157Z</time></trkpt><trkpt lat="41.0289517" lon="14.39248"><ele>55.0</ele><time>2026-04-25T13:35:33.157Z</time></trkpt><trkpt lat="41.0289433" lon="14.39238"><ele>55.0</ele><time>2026-04-25T13:35:34.158Z</time></trkpt><trkpt lat="41.0289233" lon="14.3922833"><ele>55.0</ele><time>2026-04-25T13:35:35.158Z</time></trkpt><trkpt lat="41.0288933" lon="14.3922"><ele>55.0</ele><time>2026-04-25T13:35:36.157Z</time></trkpt><trkpt lat="41.0287917" lon="14.3921167"><ele>55.0</ele><time>2026-04-25T13:35:38.158Z</time></trkpt><trkpt lat="41.028655" lon="14.39211"><ele>54.49999999999999</ele><time>2026-04-25T13:35:40.156Z</time></trkpt><trkpt lat="41.0285767" lon="14.3921"><ele>54.0</ele><time>2026-04-25T13:35:41.158Z</time></trkpt><trkpt lat="41.0284933" lon="14.3920867"><ele>53.5</ele><time>2026-04-25T13:35:42.158Z</time></trkpt><trkpt lat="41.0284167" lon="14.3920633"><ele>53.0</ele><time>2026-04-25T13:35:43.158Z</time></trkpt><trkpt lat="41.0283383" lon="14.392045"><ele>52.49999999999999</ele><time>2026-04-25T13:35:44.157Z</time></trkpt><trkpt lat="41.028255" lon="14.3920267"><ele>52.0</ele><time>2026-04-25T13:35:45.157Z</time></trkpt><trkpt lat="41.0281817" lon="14.3920167"><ele>51.99999999999999</ele><time>2026-04-25T13:35:46.157Z</time></trkpt><trkpt lat="41.02811" lon="14.3920017"><ele>52.0</ele><time>2026-04-25T13:35:47.157Z</time></trkpt><trkpt lat="41.028045" lon="14.3919883"><ele>52.0</ele><time>2026-04-25T13:35:48.158Z</time></trkpt><trkpt lat="41.027935" lon="14.3919367"><ele>52.0</ele><time>2026-04-25T13:35:50.158Z</time></trkpt><trkpt lat="41.027885" lon="14.39187"><ele>51.99999999999999</ele><time>2026-04-25T13:35:51.157Z</time></trkpt><trkpt lat="41.0278433" lon="14.3917983"><ele>52.0</ele><time>2026-04-25T13:35:52.158Z</time></trkpt><trkpt lat="41.0277967" lon="14.3917267"><ele>51.99999999999999</ele><time>2026-04-25T13:35:53.158Z</time></trkpt><trkpt lat="41.02775" lon="14.3916533"><ele>52.0</ele><time>2026-04-25T13:35:54.159Z</time></trkpt><trkpt lat="41.027695" lon="14.3915783"><ele>52.0</ele><time>2026-04-25T13:35:55.158Z</time></trkpt><trkpt lat="41.02764" lon="14.3915"><ele>52.0</ele><time>2026-04-25T13:35:56.158Z</time></trkpt><trkpt lat="41.027585" lon="14.39142"><ele>51.99999999999999</ele><time>2026-04-25T13:35:57.157Z</time></trkpt><trkpt lat="41.027525" lon="14.39134"><ele>52.0</ele><time>2026-04-25T13:35:58.157Z</time></trkpt><trkpt lat="41.0274633" lon="14.3912583"><ele>51.6</ele><time>2026-04-25T13:35:59.157Z</time></trkpt><trkpt lat="41.0274017" lon="14.3911767"><ele>51.2</ele><time>2026-04-25T13:36:00.159Z</time></trkpt><trkpt lat="41.0273333" lon="14.3910883"><ele>50.8</ele><time>2026-04-25T13:36:01.157Z</time></trkpt><trkpt lat="41.02727" lon="14.3910017"><ele>50.4</ele><time>2026-04-25T13:36:02.158Z</time></trkpt><trkpt lat="41.027205" lon="14.3909133"><ele>50.0</ele><time>2026-04-25T13:36:03.157Z</time></trkpt><trkpt lat="41.02714" lon="14.3908233"><ele>50.0</ele><time>2026-04-25T13:36:04.157Z</time></trkpt><trkpt lat="41.0270733" lon="14.390735"><ele>50.0</ele><time>2026-04-25T13:36:05.158Z</time></trkpt><trkpt lat="41.0270117" lon="14.390645"><ele>50.0</ele><time>2026-04-25T13:36:06.157Z</time></trkpt><trkpt lat="41.026945" lon="14.3905517"><ele>50.0</ele><time>2026-04-25T13:36:07.163Z</time></trkpt><trkpt lat="41.0268767" lon="14.3904633"><ele>50.0</ele><time>2026-04-25T13:36:08.158Z</time></trkpt><trkpt lat="41.0268083" lon="14.3903783"><ele>50.0</ele><time>2026-04-25T13:36:09.156Z</time></trkpt><trkpt lat="41.026745" lon="14.39029"><ele>50.0</ele><time>2026-04-25T13:36:10.157Z</time></trkpt><trkpt lat="41.02668" lon="14.3902033"><ele>50.0</ele><time>2026-04-25T13:36:11.157Z</time></trkpt><trkpt lat="41.026615" lon="14.3901133"><ele>50.0</ele><time>2026-04-25T13:36:12.159Z</time></trkpt><trkpt lat="41.0265517" lon="14.3900233"><ele>50.0</ele><time>2026-04-25T13:36:13.156Z</time></trkpt><trkpt lat="41.0264867" lon="14.3899367"><ele>50.0</ele><time>2026-04-25T13:36:14.157Z</time></trkpt><trkpt lat="41.02642" lon="14.3898483"><ele>50.0</ele><time>2026-04-25T13:36:15.157Z</time></trkpt><trkpt lat="41.0263567" lon="14.3897633"><ele>50.0</ele><time>2026-04-25T13:36:16.156Z</time></trkpt><trkpt lat="41.02629" lon="14.389685"><ele>50.0</ele><time>2026-04-25T13:36:17.156Z</time></trkpt><trkpt lat="41.02622" lon="14.3896033"><ele>50.0</ele><time>2026-04-25T13:36:18.156Z</time></trkpt><trkpt lat="41.026155" lon="14.3895217"><ele>50.0</ele><time>2026-04-25T13:36:19.156Z</time></trkpt><trkpt lat="41.02609" lon="14.38944"><ele>50.0</ele><time>2026-04-25T13:36:20.157Z</time></trkpt><trkpt lat="41.0260283" lon="14.3893517"><ele>50.0</ele><time>2026-04-25T13:36:21.157Z</time></trkpt><trkpt lat="41.025965" lon="14.3892633"><ele>50.0</ele><time>2026-04-25T13:36:22.158Z</time></trkpt><trkpt lat="41.0259033" lon="14.3891733"><ele>50.0</ele><time>2026-04-25T13:36:23.158Z</time></trkpt><trkpt lat="41.02584" lon="14.3890833"><ele>50.0</ele><time>2026-04-25T13:36:24.157Z</time></trkpt><trkpt lat="41.0257783" lon="14.3889967"><ele>50.0</ele><time>2026-04-25T13:36:25.157Z</time></trkpt><trkpt lat="41.0257183" lon="14.3889067"><ele>50.0</ele><time>2026-04-25T13:36:26.158Z</time></trkpt><trkpt lat="41.0256583" lon="14.3888217"><ele>50.0</ele><time>2026-04-25T13:36:27.157Z</time></trkpt><trkpt lat="41.025595" lon="14.3887367"><ele>50.0</ele><time>2026-04-25T13:36:28.158Z</time></trkpt><trkpt lat="41.0255267" lon="14.3886517"><ele>50.0</ele><time>2026-04-25T13:36:29.157Z</time></trkpt><trkpt lat="41.0254633" lon="14.3885683"><ele>50.0</ele><time>2026-04-25T13:36:30.158Z</time></trkpt><trkpt lat="41.0253983" lon="14.3884833"><ele>50.0</ele><time>2026-04-25T13:36:31.157Z</time></trkpt><trkpt lat="41.02533" lon="14.3883967"><ele>50.0</ele><time>2026-04-25T13:36:32.158Z</time></trkpt><trkpt lat="41.025265" lon="14.38831"><ele>50.0</ele><time>2026-04-25T13:36:33.157Z</time></trkpt><trkpt lat="41.0251967" lon="14.3882183"><ele>50.0</ele><time>2026-04-25T13:36:34.157Z</time></trkpt><trkpt lat="41.0251317" lon="14.38812"><ele>50.0</ele><time>2026-04-25T13:36:35.157Z</time></trkpt><trkpt lat="41.02507" lon="14.388025"><ele>50.0</ele><time>2026-04-25T13:36:36.159Z</time></trkpt><trkpt lat="41.02501" lon="14.387935"><ele>50.0</ele><time>2026-04-25T13:36:37.157Z</time></trkpt><trkpt lat="41.02495" lon="14.38784"><ele>50.0</ele><time>2026-04-25T13:36:38.158Z</time></trkpt><trkpt lat="41.02489" lon="14.387745"><ele>50.2</ele><time>2026-04-25T13:36:39.157Z</time></trkpt><trkpt lat="41.0248283" lon="14.387645"><ele>50.4</ele><time>2026-04-25T13:36:40.157Z</time></trkpt><trkpt lat="41.0247717" lon="14.38754"><ele>50.599999999999994</ele><time>2026-04-25T13:36:41.156Z</time></trkpt><trkpt lat="41.02472" lon="14.38743"><ele>50.8</ele><time>2026-04-25T13:36:42.158Z</time></trkpt><trkpt lat="41.0246733" lon="14.3873217"><ele>51.0</ele><time>2026-04-25T13:36:43.157Z</time></trkpt><trkpt lat="41.024625" lon="14.387215"><ele>51.0</ele><time>2026-04-25T13:36:44.159Z</time></trkpt><trkpt lat="41.0245817" lon="14.3871067"><ele>51.0</ele><time>2026-04-25T13:36:45.157Z</time></trkpt><trkpt lat="41.024545" lon="14.3869933"><ele>51.0</ele><time>2026-04-25T13:36:46.158Z</time></trkpt><trkpt lat="41.02451" lon="14.3868783"><ele>51.0</ele><time>2026-04-25T13:36:47.157Z</time></trkpt><trkpt lat="41.0244783" lon="14.386765"><ele>51.0</ele><time>2026-04-25T13:36:48.157Z</time></trkpt><trkpt lat="41.02445" lon="14.3866533"><ele>51.0</ele><time>2026-04-25T13:36:49.157Z</time></trkpt><trkpt lat="41.0244233" lon="14.3865367"><ele>51.0</ele><time>2026-04-25T13:36:50.157Z</time></trkpt><trkpt lat="41.0243983" lon="14.3864167"><ele>51.0</ele><time>2026-04-25T13:36:51.157Z</time></trkpt><trkpt lat="41.024375" lon="14.3863"><ele>51.0</ele><time>2026-04-25T13:36:52.158Z</time></trkpt><trkpt lat="41.0243567" lon="14.386185"><ele>51.0</ele><time>2026-04-25T13:36:53.157Z</time></trkpt><trkpt lat="41.0243383" lon="14.3860683"><ele>50.199999999999996</ele><time>2026-04-25T13:36:54.157Z</time></trkpt><trkpt lat="41.02432" lon="14.38595"><ele>49.4</ele><time>2026-04-25T13:36:55.157Z</time></trkpt><trkpt lat="41.0243033" lon="14.3858333"><ele>48.6</ele><time>2026-04-25T13:36:56.157Z</time></trkpt><trkpt lat="41.0242867" lon="14.385715"><ele>47.8</ele><time>2026-04-25T13:36:57.156Z</time></trkpt><trkpt lat="41.02427" lon="14.3855967"><ele>47.0</ele><time>2026-04-25T13:36:58.157Z</time></trkpt><trkpt lat="41.0242533" lon="14.3854767"><ele>46.8</ele><time>2026-04-25T13:36:59.157Z</time></trkpt><trkpt lat="41.02423" lon="14.3853517"><ele>46.6</ele><time>2026-04-25T13:37:00.157Z</time></trkpt><trkpt lat="41.02421" lon="14.385235"><ele>46.4</ele><time>2026-04-25T13:37:01.157Z</time></trkpt><trkpt lat="41.0241867" lon="14.38512"><ele>46.199999999999996</ele><time>2026-04-25T13:37:02.157Z</time></trkpt><trkpt lat="41.0241633" lon="14.385005"><ele>46.0</ele><time>2026-04-25T13:37:03.158Z</time></trkpt><trkpt lat="41.0241383" lon="14.384885"><ele>46.0</ele><time>2026-04-25T13:37:04.157Z</time></trkpt><trkpt lat="41.0241183" lon="14.3847683"><ele>46.0</ele><time>2026-04-25T13:37:05.157Z</time></trkpt><trkpt lat="41.0240967" lon="14.3846533"><ele>46.0</ele><time>2026-04-25T13:37:06.158Z</time></trkpt><trkpt lat="41.0240767" lon="14.3845383"><ele>46.0</ele><time>2026-04-25T13:37:07.158Z</time></trkpt><trkpt lat="41.024055" lon="14.3844233"><ele>46.0</ele><time>2026-04-25T13:37:08.159Z</time></trkpt><trkpt lat="41.0240367" lon="14.3843083"><ele>46.0</ele><time>2026-04-25T13:37:09.157Z</time></trkpt><trkpt lat="41.0240217" lon="14.3841967"><ele>45.833333333333336</ele><time>2026-04-25T13:37:10.157Z</time></trkpt><trkpt lat="41.0240033" lon="14.38408"><ele>45.66666666666667</ele><time>2026-04-25T13:37:11.158Z</time></trkpt><trkpt lat="41.0239817" lon="14.3839683"><ele>45.5</ele><time>2026-04-25T13:37:12.157Z</time></trkpt><trkpt lat="41.0239617" lon="14.383855"><ele>45.333333333333336</ele><time>2026-04-25T13:37:13.157Z</time></trkpt><trkpt lat="41.0239467" lon="14.38374"><ele>45.166666666666664</ele><time>2026-04-25T13:37:14.159Z</time></trkpt><trkpt lat="41.0239267" lon="14.38363"><ele>45.0</ele><time>2026-04-25T13:37:15.156Z</time></trkpt><trkpt lat="41.02391" lon="14.3835167"><ele>45.0</ele><time>2026-04-25T13:37:16.156Z</time></trkpt><trkpt lat="41.0238967" lon="14.3834017"><ele>45.0</ele><time>2026-04-25T13:37:17.156Z</time></trkpt><trkpt lat="41.02388" lon="14.383285"><ele>45.0</ele><time>2026-04-25T13:37:18.156Z</time></trkpt><trkpt lat="41.0238633" lon="14.38317"><ele>45.0</ele><time>2026-04-25T13:37:19.156Z</time></trkpt><trkpt lat="41.023845" lon="14.38306"><ele>45.0</ele><time>2026-04-25T13:37:20.156Z</time></trkpt><trkpt lat="41.02383" lon="14.3829517"><ele>45.0</ele><time>2026-04-25T13:37:21.156Z</time></trkpt><trkpt lat="41.023815" lon="14.382845"><ele>45.0</ele><time>2026-04-25T13:37:22.157Z</time></trkpt><trkpt lat="41.0237967" lon="14.38274"><ele>45.0</ele><time>2026-04-25T13:37:23.156Z</time></trkpt><trkpt lat="41.0237783" lon="14.382635"><ele>45.0</ele><time>2026-04-25T13:37:24.156Z</time></trkpt><trkpt lat="41.0237617" lon="14.38253"><ele>45.0</ele><time>2026-04-25T13:37:25.156Z</time></trkpt><trkpt lat="41.0237433" lon="14.382425"><ele>45.0</ele><time>2026-04-25T13:37:26.156Z</time></trkpt><trkpt lat="41.0237267" lon="14.38232"><ele>45.0</ele><time>2026-04-25T13:37:27.157Z</time></trkpt><trkpt lat="41.0237083" lon="14.382215"><ele>45.0</ele><time>2026-04-25T13:37:28.157Z</time></trkpt><trkpt lat="41.0236933" lon="14.3821083"><ele>45.0</ele><time>2026-04-25T13:37:29.157Z</time></trkpt><trkpt lat="41.0236783" lon="14.382005"><ele>45.0</ele><time>2026-04-25T13:37:30.156Z</time></trkpt><trkpt lat="41.02366" lon="14.3819017"><ele>45.0</ele><time>2026-04-25T13:37:31.156Z</time></trkpt><trkpt lat="41.0236467" lon="14.3817967"><ele>45.0</ele><time>2026-04-25T13:37:32.157Z</time></trkpt><trkpt lat="41.0236333" lon="14.38169"><ele>45.0</ele><time>2026-04-25T13:37:33.156Z</time></trkpt><trkpt lat="41.0236233" lon="14.381585"><ele>45.0</ele><time>2026-04-25T13:37:34.156Z</time></trkpt><trkpt lat="41.02361" lon="14.3814817"><ele>45.0</ele><time>2026-04-25T13:37:35.156Z</time></trkpt><trkpt lat="41.0236" lon="14.3813783"><ele>45.0</ele><time>2026-04-25T13:37:36.156Z</time></trkpt><trkpt lat="41.0235933" lon="14.3812683"><ele>45.0</ele><time>2026-04-25T13:37:37.157Z</time></trkpt><trkpt lat="41.0235883" lon="14.3811583"><ele>45.0</ele><time>2026-04-25T13:37:38.157Z</time></trkpt><trkpt lat="41.023585" lon="14.3810533"><ele>45.0</ele><time>2026-04-25T13:37:39.157Z</time></trkpt><trkpt lat="41.02358" lon="14.38095"><ele>44.666666666666664</ele><time>2026-04-25T13:37:40.157Z</time></trkpt><trkpt lat="41.0235683" lon="14.3808383"><ele>44.333333333333336</ele><time>2026-04-25T13:37:41.157Z</time></trkpt><trkpt lat="41.0235683" lon="14.3807317"><ele>44.0</ele><time>2026-04-25T13:37:42.156Z</time></trkpt><trkpt lat="41.0235733" lon="14.380625"><ele>43.66666666666667</ele><time>2026-04-25T13:37:43.156Z</time></trkpt><trkpt lat="41.0235817" lon="14.3805183"><ele>43.333333333333336</ele><time>2026-04-25T13:37:44.156Z</time></trkpt><trkpt lat="41.0235933" lon="14.3804083"><ele>43.0</ele><time>2026-04-25T13:37:45.156Z</time></trkpt><trkpt lat="41.023605" lon="14.3802983"><ele>43.0</ele><time>2026-04-25T13:37:46.157Z</time></trkpt><trkpt lat="41.023615" lon="14.3801883"><ele>43.0</ele><time>2026-04-25T13:37:47.156Z</time></trkpt><trkpt lat="41.023625" lon="14.380075"><ele>43.0</ele><time>2026-04-25T13:37:48.156Z</time></trkpt><trkpt lat="41.02364" lon="14.3799667"><ele>43.0</ele><time>2026-04-25T13:37:49.157Z</time></trkpt><trkpt lat="41.0236583" lon="14.37986"><ele>43.0</ele><time>2026-04-25T13:37:50.156Z</time></trkpt><trkpt lat="41.0236817" lon="14.3797533"><ele>43.0</ele><time>2026-04-25T13:37:51.156Z</time></trkpt><trkpt lat="41.023705" lon="14.379655"><ele>43.0</ele><time>2026-04-25T13:37:52.157Z</time></trkpt><trkpt lat="41.0237283" lon="14.3795583"><ele>43.0</ele><time>2026-04-25T13:37:53.157Z</time></trkpt><trkpt lat="41.023755" lon="14.37946"><ele>43.0</ele><time>2026-04-25T13:37:54.156Z</time></trkpt><trkpt lat="41.0237817" lon="14.3793633"><ele>43.0</ele><time>2026-04-25T13:37:55.158Z</time></trkpt><trkpt lat="41.0238033" lon="14.3792683"><ele>43.0</ele><time>2026-04-25T13:37:56.158Z</time></trkpt><trkpt lat="41.0238217" lon="14.3791733"><ele>43.0</ele><time>2026-04-25T13:37:57.157Z</time></trkpt><trkpt lat="41.0238383" lon="14.379075"><ele>43.00000000000001</ele><time>2026-04-25T13:37:58.157Z</time></trkpt><trkpt lat="41.0238533" lon="14.3789783"><ele>43.0</ele><time>2026-04-25T13:37:59.156Z</time></trkpt><trkpt lat="41.0238667" lon="14.3788817"><ele>43.0</ele><time>2026-04-25T13:38:00.157Z</time></trkpt><trkpt lat="41.023885" lon="14.3787867"><ele>43.0</ele><time>2026-04-25T13:38:01.157Z</time></trkpt><trkpt lat="41.0239017" lon="14.37869"><ele>43.0</ele><time>2026-04-25T13:38:02.157Z</time></trkpt><trkpt lat="41.0239183" lon="14.3785967"><ele>43.00000000000001</ele><time>2026-04-25T13:38:03.157Z</time></trkpt><trkpt lat="41.0239383" lon="14.3785083"><ele>43.0</ele><time>2026-04-25T13:38:04.156Z</time></trkpt><trkpt lat="41.0239567" lon="14.3784183"><ele>42.85714285714286</ele><time>2026-04-25T13:38:05.157Z</time></trkpt><trkpt lat="41.0239767" lon="14.378325"><ele>42.714285714285715</ele><time>2026-04-25T13:38:06.156Z</time></trkpt><trkpt lat="41.0239933" lon="14.3782317"><ele>42.57142857142857</ele><time>2026-04-25T13:38:07.157Z</time></trkpt><trkpt lat="41.0240117" lon="14.37814"><ele>42.42857142857143</ele><time>2026-04-25T13:38:08.156Z</time></trkpt><trkpt lat="41.024035" lon="14.3780517"><ele>42.285714285714285</ele><time>2026-04-25T13:38:09.156Z</time></trkpt><trkpt lat="41.0240567" lon="14.377965"><ele>42.142857142857146</ele><time>2026-04-25T13:38:10.157Z</time></trkpt><trkpt lat="41.0240817" lon="14.377875"><ele>42.0</ele><time>2026-04-25T13:38:11.157Z</time></trkpt><trkpt lat="41.0241017" lon="14.377785"><ele>41.857142857142854</ele><time>2026-04-25T13:38:12.158Z</time></trkpt><trkpt lat="41.0241217" lon="14.3776967"><ele>41.714285714285715</ele><time>2026-04-25T13:38:13.157Z</time></trkpt><trkpt lat="41.02414" lon="14.37761"><ele>41.57142857142857</ele><time>2026-04-25T13:38:14.158Z</time></trkpt><trkpt lat="41.0241583" lon="14.3775283"><ele>41.42857142857143</ele><time>2026-04-25T13:38:15.158Z</time></trkpt><trkpt lat="41.0241767" lon="14.3774467"><ele>41.285714285714285</ele><time>2026-04-25T13:38:16.157Z</time></trkpt><trkpt lat="41.0241917" lon="14.3773617"><ele>41.14285714285714</ele><time>2026-04-25T13:38:17.157Z</time></trkpt><trkpt lat="41.02421" lon="14.3772783"><ele>41.0</ele><time>2026-04-25T13:38:18.157Z</time></trkpt><trkpt lat="41.0242333" lon="14.3771983"><ele>41.285714285714285</ele><time>2026-04-25T13:38:19.157Z</time></trkpt><trkpt lat="41.0242533" lon="14.3771167"><ele>41.57142857142857</ele><time>2026-04-25T13:38:20.157Z</time></trkpt><trkpt lat="41.024275" lon="14.3770367"><ele>41.85714285714286</ele><time>2026-04-25T13:38:21.157Z</time></trkpt><trkpt lat="41.024295" lon="14.3769533"><ele>42.14285714285714</ele><time>2026-04-25T13:38:22.156Z</time></trkpt><trkpt lat="41.0243117" lon="14.37687"><ele>42.42857142857143</ele><time>2026-04-25T13:38:23.157Z</time></trkpt><trkpt lat="41.02433" lon="14.3767867"><ele>42.714285714285715</ele><time>2026-04-25T13:38:24.157Z</time></trkpt><trkpt lat="41.024345" lon="14.3767017"><ele>43.0</ele><time>2026-04-25T13:38:25.156Z</time></trkpt><trkpt lat="41.0243633" lon="14.37662"><ele>43.0</ele><time>2026-04-25T13:38:26.157Z</time></trkpt><trkpt lat="41.02438" lon="14.3765367"><ele>43.0</ele><time>2026-04-25T13:38:27.156Z</time></trkpt><trkpt lat="41.02439" lon="14.3764533"><ele>43.0</ele><time>2026-04-25T13:38:28.156Z</time></trkpt><trkpt lat="41.0244233" lon="14.3762883"><ele>43.0</ele><time>2026-04-25T13:38:30.157Z</time></trkpt><trkpt lat="41.024455" lon="14.3761317"><ele>43.0</ele><time>2026-04-25T13:38:32.157Z</time></trkpt><trkpt lat="41.0244867" lon="14.3759817"><ele>43.0</ele><time>2026-04-25T13:38:34.157Z</time></trkpt><trkpt lat="41.02452" lon="14.375825"><ele>43.0</ele><time>2026-04-25T13:38:36.157Z</time></trkpt><trkpt lat="41.0245417" lon="14.3757433"><ele>43.0</ele><time>2026-04-25T13:38:37.158Z</time></trkpt><trkpt lat="41.0245617" lon="14.37566"><ele>43.0</ele><time>2026-04-25T13:38:38.156Z</time></trkpt><trkpt lat="41.0245817" lon="14.37558"><ele>43.0</ele><time>2026-04-25T13:38:39.157Z</time></trkpt><trkpt lat="41.02462" lon="14.3754233"><ele>43.0</ele><time>2026-04-25T13:38:41.157Z</time></trkpt><trkpt lat="41.024635" lon="14.3753417"><ele>43.0</ele><time>2026-04-25T13:38:42.157Z</time></trkpt><trkpt lat="41.024665" lon="14.3751833"><ele>43.0</ele><time>2026-04-25T13:38:44.157Z</time></trkpt><trkpt lat="41.0246833" lon="14.3750967"><ele>43.0</ele><time>2026-04-25T13:38:45.156Z</time></trkpt><trkpt lat="41.024705" lon="14.375015"><ele>43.0</ele><time>2026-04-25T13:38:46.157Z</time></trkpt><trkpt lat="41.0247267" lon="14.374935"><ele>43.0</ele><time>2026-04-25T13:38:47.157Z</time></trkpt><trkpt lat="41.0247917" lon="14.374805"><ele>43.0</ele><time>2026-04-25T13:38:49.156Z</time></trkpt><trkpt lat="41.02487" lon="14.3747117"><ele>43.0</ele><time>2026-04-25T13:38:51.157Z</time></trkpt><trkpt lat="41.0249017" lon="14.3745933"><ele>43.0</ele><time>2026-04-25T13:38:53.157Z</time></trkpt><trkpt lat="41.0248933" lon="14.3744617"><ele>43.0</ele><time>2026-04-25T13:38:55.156Z</time></trkpt><trkpt lat="41.0248933" lon="14.3743217"><ele>43.0</ele><time>2026-04-25T13:38:57.157Z</time></trkpt><trkpt lat="41.0249117" lon="14.37418"><ele>43.0</ele><time>2026-04-25T13:38:59.158Z</time></trkpt><trkpt lat="41.0249267" lon="14.3740483"><ele>43.0</ele><time>2026-04-25T13:39:01.157Z</time></trkpt><trkpt lat="41.0249517" lon="14.3739217"><ele>43.0</ele><time>2026-04-25T13:39:03.156Z</time></trkpt><trkpt lat="41.0249733" lon="14.373805"><ele>43.0</ele><time>2026-04-25T13:39:05.157Z</time></trkpt><trkpt lat="41.025" lon="14.373675"><ele>43.0</ele><time>2026-04-25T13:39:07.157Z</time></trkpt><trkpt lat="41.0250333" lon="14.373525"><ele>43.0</ele><time>2026-04-25T13:39:09.156Z</time></trkpt><trkpt lat="41.0250717" lon="14.373365"><ele>43.0</ele><time>2026-04-25T13:39:11.156Z</time></trkpt><trkpt lat="41.0251133" lon="14.373205"><ele>43.0</ele><time>2026-04-25T13:39:13.156Z</time></trkpt><trkpt lat="41.0251333" lon="14.3731217"><ele>43.0</ele><time>2026-04-25T13:39:14.156Z</time></trkpt><trkpt lat="41.0251517" lon="14.3730367"><ele>43.0</ele><time>2026-04-25T13:39:15.156Z</time></trkpt><trkpt lat="41.0251733" lon="14.37295"><ele>43.0</ele><time>2026-04-25T13:39:16.158Z</time></trkpt><trkpt lat="41.0251883" lon="14.3728633"><ele>43.0</ele><time>2026-04-25T13:39:17.156Z</time></trkpt><trkpt lat="41.025205" lon="14.3727733"><ele>43.00000000000001</ele><time>2026-04-25T13:39:18.159Z</time></trkpt><trkpt lat="41.0252217" lon="14.3726867"><ele>43.0</ele><time>2026-04-25T13:39:19.156Z</time></trkpt><trkpt lat="41.02524" lon="14.3725967"><ele>43.0</ele><time>2026-04-25T13:39:20.156Z</time></trkpt><trkpt lat="41.0252583" lon="14.3725083"><ele>43.0</ele><time>2026-04-25T13:39:21.157Z</time></trkpt><trkpt lat="41.0252767" lon="14.3724183"><ele>43.0</ele><time>2026-04-25T13:39:22.156Z</time></trkpt><trkpt lat="41.0252967" lon="14.3723317"><ele>43.00000000000001</ele><time>2026-04-25T13:39:23.156Z</time></trkpt><trkpt lat="41.025315" lon="14.3722467"><ele>43.0</ele><time>2026-04-25T13:39:24.156Z</time></trkpt><trkpt lat="41.0253333" lon="14.3721617"><ele>43.16666666666667</ele><time>2026-04-25T13:39:25.158Z</time></trkpt><trkpt lat="41.0253517" lon="14.3720783"><ele>43.333333333333336</ele><time>2026-04-25T13:39:26.157Z</time></trkpt><trkpt lat="41.02537" lon="14.3719967"><ele>43.5</ele><time>2026-04-25T13:39:27.16Z</time></trkpt><trkpt lat="41.02539" lon="14.371915"><ele>43.666666666666664</ele><time>2026-04-25T13:39:28.156Z</time></trkpt><trkpt lat="41.025425" lon="14.3717533"><ele>43.83333333333333</ele><time>2026-04-25T13:39:30.158Z</time></trkpt><trkpt lat="41.0254433" lon="14.37167"><ele>44.0</ele><time>2026-04-25T13:39:31.158Z</time></trkpt><trkpt lat="41.02546" lon="14.371585"><ele>44.0</ele><time>2026-04-25T13:39:32.157Z</time></trkpt><trkpt lat="41.0254817" lon="14.3715017"><ele>44.0</ele><time>2026-04-25T13:39:33.157Z</time></trkpt><trkpt lat="41.0255033" lon="14.37142"><ele>44.0</ele><time>2026-04-25T13:39:34.156Z</time></trkpt><trkpt lat="41.025525" lon="14.3713383"><ele>44.0</ele><time>2026-04-25T13:39:35.156Z</time></trkpt><trkpt lat="41.0255467" lon="14.3712583"><ele>44.0</ele><time>2026-04-25T13:39:36.158Z</time></trkpt><trkpt lat="41.0255683" lon="14.371175"><ele>44.0</ele><time>2026-04-25T13:39:37.156Z</time></trkpt><trkpt lat="41.0255967" lon="14.37102"><ele>44.0</ele><time>2026-04-25T13:39:39.156Z</time></trkpt><trkpt lat="41.0256267" lon="14.37086"><ele>43.666666666666664</ele><time>2026-04-25T13:39:41.157Z</time></trkpt><trkpt lat="41.0256433" lon="14.3707783"><ele>43.33333333333333</ele><time>2026-04-25T13:39:42.157Z</time></trkpt><trkpt lat="41.0256833" lon="14.3706133"><ele>43.0</ele><time>2026-04-25T13:39:44.157Z</time></trkpt><trkpt lat="41.0257017" lon="14.3705233"><ele>42.666666666666664</ele><time>2026-04-25T13:39:45.157Z</time></trkpt><trkpt lat="41.0257267" lon="14.3704283"><ele>42.333333333333336</ele><time>2026-04-25T13:39:46.156Z</time></trkpt><trkpt lat="41.0257467" lon="14.3703367"><ele>42.0</ele><time>2026-04-25T13:39:47.156Z</time></trkpt><trkpt lat="41.0257683" lon="14.3702417"><ele>42.0</ele><time>2026-04-25T13:39:48.156Z</time></trkpt><trkpt lat="41.0257883" lon="14.3701417"><ele>42.0</ele><time>2026-04-25T13:39:49.156Z</time></trkpt><trkpt lat="41.0258083" lon="14.37004"><ele>42.0</ele><time>2026-04-25T13:39:50.157Z</time></trkpt><trkpt lat="41.0258317" lon="14.3699467"><ele>42.0</ele><time>2026-04-25T13:39:51.156Z</time></trkpt><trkpt lat="41.0258533" lon="14.3698567"><ele>42.0</ele><time>2026-04-25T13:39:52.156Z</time></trkpt><trkpt lat="41.025875" lon="14.3697617"><ele>42.0</ele><time>2026-04-25T13:39:53.157Z</time></trkpt><trkpt lat="41.0258917" lon="14.3696633"><ele>42.142857142857146</ele><time>2026-04-25T13:39:54.158Z</time></trkpt><trkpt lat="41.025905" lon="14.3695683"><ele>42.285714285714285</ele><time>2026-04-25T13:39:55.157Z</time></trkpt><trkpt lat="41.0259217" lon="14.3694783"><ele>42.42857142857143</ele><time>2026-04-25T13:39:56.156Z</time></trkpt><trkpt lat="41.02594" lon="14.36939"><ele>42.57142857142857</ele><time>2026-04-25T13:39:57.157Z</time></trkpt><trkpt lat="41.02596" lon="14.3693067"><ele>42.714285714285715</ele><time>2026-04-25T13:39:58.157Z</time></trkpt><trkpt lat="41.0259833" lon="14.369225"><ele>42.85714285714286</ele><time>2026-04-25T13:39:59.157Z</time></trkpt><trkpt lat="41.0260067" lon="14.3691433"><ele>43.0</ele><time>2026-04-25T13:40:00.157Z</time></trkpt><trkpt lat="41.0260283" lon="14.3690633"><ele>43.0</ele><time>2026-04-25T13:40:01.157Z</time></trkpt><trkpt lat="41.0260467" lon="14.3689833"><ele>43.0</ele><time>2026-04-25T13:40:02.156Z</time></trkpt><trkpt lat="41.0260667" lon="14.3689017"><ele>43.0</ele><time>2026-04-25T13:40:03.157Z</time></trkpt><trkpt lat="41.0260883" lon="14.3688167"><ele>43.0</ele><time>2026-04-25T13:40:04.156Z</time></trkpt><trkpt lat="41.0261233" lon="14.36866"><ele>43.0</ele><time>2026-04-25T13:40:06.156Z</time></trkpt><trkpt lat="41.02616" lon="14.3685117"><ele>43.0</ele><time>2026-04-25T13:40:08.157Z</time></trkpt><trkpt lat="41.0261933" lon="14.3683683"><ele>42.8</ele><time>2026-04-25T13:40:10.157Z</time></trkpt><trkpt lat="41.0262233" lon="14.368235"><ele>42.599999999999994</ele><time>2026-04-25T13:40:12.157Z</time></trkpt><trkpt lat="41.026255" lon="14.3680933"><ele>42.400000000000006</ele><time>2026-04-25T13:40:14.158Z</time></trkpt><trkpt lat="41.0262883" lon="14.36796"><ele>42.2</ele><time>2026-04-25T13:40:16.157Z</time></trkpt><trkpt lat="41.0263233" lon="14.3678267"><ele>42.0</ele><time>2026-04-25T13:40:18.156Z</time></trkpt><trkpt lat="41.0263617" lon="14.3677017"><ele>42.0</ele><time>2026-04-25T13:40:20.156Z</time></trkpt><trkpt lat="41.026435" lon="14.3676117"><ele>42.0</ele><time>2026-04-25T13:40:22.157Z</time></trkpt><trkpt lat="41.0265433" lon="14.3675683"><ele>42.0</ele><time>2026-04-25T13:40:24.156Z</time></trkpt><trkpt lat="41.0266083" lon="14.3675783"><ele>42.0</ele><time>2026-04-25T13:40:25.159Z</time></trkpt><trkpt lat="41.0266683" lon="14.3676117"><ele>42.0</ele><time>2026-04-25T13:40:26.156Z</time></trkpt><trkpt lat="41.026725" lon="14.3676683"><ele>42.0</ele><time>2026-04-25T13:40:27.157Z</time></trkpt><trkpt lat="41.0267633" lon="14.367755"><ele>42.0</ele><time>2026-04-25T13:40:28.156Z</time></trkpt><trkpt lat="41.0267867" lon="14.367855"><ele>42.0</ele><time>2026-04-25T13:40:29.156Z</time></trkpt><trkpt lat="41.0267967" lon="14.36797"><ele>42.0</ele><time>2026-04-25T13:40:30.157Z</time></trkpt><trkpt lat="41.0267933" lon="14.368085"><ele>42.0</ele><time>2026-04-25T13:40:31.156Z</time></trkpt><trkpt lat="41.0267817" lon="14.3682"><ele>42.0</ele><time>2026-04-25T13:40:32.156Z</time></trkpt><trkpt lat="41.0267467" lon="14.3683167"><ele>42.0</ele><time>2026-04-25T13:40:33.159Z</time></trkpt><trkpt lat="41.0266917" lon="14.3684"><ele>42.0</ele><time>2026-04-25T13:40:34.156Z</time></trkpt><trkpt lat="41.0266167" lon="14.3684417"><ele>42.0</ele><time>2026-04-25T13:40:35.156Z</time></trkpt><trkpt lat="41.026535" lon="14.36846"><ele>42.0</ele><time>2026-04-25T13:40:36.157Z</time></trkpt><trkpt lat="41.0264683" lon="14.3684833"><ele>42.0</ele><time>2026-04-25T13:40:37.156Z</time></trkpt><trkpt lat="41.02639" lon="14.3684317"><ele>42.0</ele><time>2026-04-25T13:40:38.157Z</time></trkpt><trkpt lat="41.0263283" lon="14.3682917"><ele>42.0</ele><time>2026-04-25T13:40:40.156Z</time></trkpt><trkpt lat="41.0263033" lon="14.368215"><ele>42.0</ele><time>2026-04-25T13:40:41.157Z</time></trkpt><trkpt lat="41.0262783" lon="14.3681367"><ele>42.0</ele><time>2026-04-25T13:40:42.156Z</time></trkpt><trkpt lat="41.0262333" lon="14.368"><ele>42.0</ele><time>2026-04-25T13:40:44.159Z</time></trkpt><trkpt lat="41.0261783" lon="14.367845"><ele>42.0</ele><time>2026-04-25T13:40:46.156Z</time></trkpt><trkpt lat="41.0261583" lon="14.36775"><ele>42.0</ele><time>2026-04-25T13:40:47.158Z</time></trkpt><trkpt lat="41.0261317" lon="14.3676467"><ele>42.0</ele><time>2026-04-25T13:40:48.157Z</time></trkpt><trkpt lat="41.0261033" lon="14.3675433"><ele>42.0</ele><time>2026-04-25T13:40:49.158Z</time></trkpt><trkpt lat="41.0260733" lon="14.3674283"><ele>42.0</ele><time>2026-04-25T13:40:50.158Z</time></trkpt><trkpt lat="41.0260433" lon="14.3673217"><ele>42.0</ele><time>2026-04-25T13:40:51.158Z</time></trkpt><trkpt lat="41.026015" lon="14.36722"><ele>42.0</ele><time>2026-04-25T13:40:52.158Z</time></trkpt><trkpt lat="41.0259883" lon="14.36712"><ele>42.0</ele><time>2026-04-25T13:40:53.156Z</time></trkpt><trkpt lat="41.0259617" lon="14.367025"><ele>42.0</ele><time>2026-04-25T13:40:54.156Z</time></trkpt><trkpt lat="41.02593" lon="14.366935"><ele>42.0</ele><time>2026-04-25T13:40:55.157Z</time></trkpt><trkpt lat="41.0259" lon="14.3668417"><ele>42.0</ele><time>2026-04-25T13:40:56.157Z</time></trkpt><trkpt lat="41.0258683" lon="14.3667467"><ele>42.0</ele><time>2026-04-25T13:40:57.158Z</time></trkpt><trkpt lat="41.0258333" lon="14.3666567"><ele>42.0</ele><time>2026-04-25T13:40:58.156Z</time></trkpt><trkpt lat="41.0258" lon="14.366565"><ele>42.0</ele><time>2026-04-25T13:40:59.156Z</time></trkpt><trkpt lat="41.0257667" lon="14.3664733"><ele>41.857142857142854</ele><time>2026-04-25T13:41:00.157Z</time></trkpt><trkpt lat="41.025735" lon="14.3663833"><ele>41.714285714285715</ele><time>2026-04-25T13:41:01.157Z</time></trkpt><trkpt lat="41.0257033" lon="14.3662967"><ele>41.57142857142857</ele><time>2026-04-25T13:41:02.157Z</time></trkpt><trkpt lat="41.025675" lon="14.3662117"><ele>41.42857142857143</ele><time>2026-04-25T13:41:03.156Z</time></trkpt><trkpt lat="41.0256467" lon="14.3661233"><ele>41.285714285714285</ele><time>2026-04-25T13:41:04.156Z</time></trkpt><trkpt lat="41.0256133" lon="14.366045"><ele>41.14285714285714</ele><time>2026-04-25T13:41:05.16Z</time></trkpt><trkpt lat="41.025585" lon="14.36596"><ele>41.0</ele><time>2026-04-25T13:41:06.157Z</time></trkpt><trkpt lat="41.02556" lon="14.3658683"><ele>40.99999999999999</ele><time>2026-04-25T13:41:07.157Z</time></trkpt><trkpt lat="41.025535" lon="14.3657783"><ele>41.0</ele><time>2026-04-25T13:41:08.158Z</time></trkpt><trkpt lat="41.0255083" lon="14.3656883"><ele>41.0</ele><time>2026-04-25T13:41:09.156Z</time></trkpt><trkpt lat="41.025485" lon="14.3656"><ele>41.0</ele><time>2026-04-25T13:41:10.156Z</time></trkpt><trkpt lat="41.0254617" lon="14.36551"><ele>41.0</ele><time>2026-04-25T13:41:11.157Z</time></trkpt><trkpt lat="41.0254333" lon="14.3654217"><ele>40.99999999999999</ele><time>2026-04-25T13:41:12.156Z</time></trkpt><trkpt lat="41.0254017" lon="14.365335"><ele>41.0</ele><time>2026-04-25T13:41:13.157Z</time></trkpt><trkpt lat="41.02537" lon="14.3652517"><ele>40.99999999999999</ele><time>2026-04-25T13:41:14.158Z</time></trkpt><trkpt lat="41.0253383" lon="14.3651667"><ele>41.0</ele><time>2026-04-25T13:41:15.157Z</time></trkpt><trkpt lat="41.0253033" lon="14.36508"><ele>41.0</ele><time>2026-04-25T13:41:16.155Z</time></trkpt><trkpt lat="41.02527" lon="14.364995"><ele>41.0</ele><time>2026-04-25T13:41:17.159Z</time></trkpt><trkpt lat="41.0252433" lon="14.364905"><ele>41.0</ele><time>2026-04-25T13:41:18.157Z</time></trkpt><trkpt lat="41.0252183" lon="14.3648133"><ele>40.99999999999999</ele><time>2026-04-25T13:41:19.156Z</time></trkpt><trkpt lat="41.0251983" lon="14.364715"><ele>41.0</ele><time>2026-04-25T13:41:20.156Z</time></trkpt><trkpt lat="41.0251717" lon="14.364625"><ele>41.0</ele><time>2026-04-25T13:41:21.156Z</time></trkpt><trkpt lat="41.0251467" lon="14.3645367"><ele>41.0</ele><time>2026-04-25T13:41:22.156Z</time></trkpt><trkpt lat="41.0251183" lon="14.3644417"><ele>41.0</ele><time>2026-04-25T13:41:23.157Z</time></trkpt><trkpt lat="41.0250867" lon="14.3643483"><ele>41.0</ele><time>2026-04-25T13:41:24.158Z</time></trkpt><trkpt lat="41.0250583" lon="14.36425"><ele>41.0</ele><time>2026-04-25T13:41:25.157Z</time></trkpt><trkpt lat="41.0250317" lon="14.3641533"><ele>41.0</ele><time>2026-04-25T13:41:26.158Z</time></trkpt><trkpt lat="41.0250033" lon="14.364055"><ele>40.83333333333333</ele><time>2026-04-25T13:41:27.157Z</time></trkpt><trkpt lat="41.024975" lon="14.3639533"><ele>40.666666666666664</ele><time>2026-04-25T13:41:28.157Z</time></trkpt><trkpt lat="41.024945" lon="14.3638533"><ele>40.5</ele><time>2026-04-25T13:41:29.156Z</time></trkpt><trkpt lat="41.024915" lon="14.363755"><ele>40.333333333333336</ele><time>2026-04-25T13:41:30.157Z</time></trkpt><trkpt lat="41.0248867" lon="14.3636583"><ele>40.16666666666667</ele><time>2026-04-25T13:41:31.156Z</time></trkpt><trkpt lat="41.0248617" lon="14.3635617"><ele>40.0</ele><time>2026-04-25T13:41:32.162Z</time></trkpt><trkpt lat="41.0248333" lon="14.363465"><ele>40.0</ele><time>2026-04-25T13:41:33.157Z</time></trkpt><trkpt lat="41.0248033" lon="14.3633717"><ele>40.0</ele><time>2026-04-25T13:41:34.157Z</time></trkpt><trkpt lat="41.024775" lon="14.3632767"><ele>40.0</ele><time>2026-04-25T13:41:35.156Z</time></trkpt><trkpt lat="41.0247467" lon="14.3631833"><ele>40.0</ele><time>2026-04-25T13:41:36.158Z</time></trkpt><trkpt lat="41.0247167" lon="14.36309"><ele>40.0</ele><time>2026-04-25T13:41:37.156Z</time></trkpt><trkpt lat="41.0246867" lon="14.3629933"><ele>40.0</ele><time>2026-04-25T13:41:38.156Z</time></trkpt><trkpt lat="41.0246567" lon="14.3628967"><ele>39.833333333333336</ele><time>2026-04-25T13:41:39.158Z</time></trkpt><trkpt lat="41.0246267" lon="14.3628"><ele>39.66666666666667</ele><time>2026-04-25T13:41:40.156Z</time></trkpt><trkpt lat="41.0246" lon="14.3627033"><ele>39.5</ele><time>2026-04-25T13:41:41.157Z</time></trkpt><trkpt lat="41.0245717" lon="14.3626067"><ele>39.333333333333336</ele><time>2026-04-25T13:41:42.156Z</time></trkpt><trkpt lat="41.0245417" lon="14.36251"><ele>39.166666666666664</ele><time>2026-04-25T13:41:43.166Z</time></trkpt><trkpt lat="41.0245133" lon="14.3624133"><ele>39.0</ele><time>2026-04-25T13:41:44.159Z</time></trkpt><trkpt lat="41.0244817" lon="14.36231"><ele>39.0</ele><time>2026-04-25T13:41:45.157Z</time></trkpt><trkpt lat="41.0244517" lon="14.3622083"><ele>39.0</ele><time>2026-04-25T13:41:46.157Z</time></trkpt><trkpt lat="41.0244217" lon="14.36211"><ele>39.0</ele><time>2026-04-25T13:41:47.156Z</time></trkpt><trkpt lat="41.0243917" lon="14.36201"><ele>39.0</ele><time>2026-04-25T13:41:48.157Z</time></trkpt><trkpt lat="41.0243633" lon="14.3619083"><ele>39.0</ele><time>2026-04-25T13:41:49.156Z</time></trkpt><trkpt lat="41.024335" lon="14.3618067"><ele>39.0</ele><time>2026-04-25T13:41:50.156Z</time></trkpt><trkpt lat="41.024305" lon="14.3617033"><ele>39.0</ele><time>2026-04-25T13:41:51.158Z</time></trkpt><trkpt lat="41.024275" lon="14.3616017"><ele>39.0</ele><time>2026-04-25T13:41:52.156Z</time></trkpt><trkpt lat="41.024245" lon="14.3615067"><ele>39.0</ele><time>2026-04-25T13:41:53.156Z</time></trkpt><trkpt lat="41.024215" lon="14.3614067"><ele>39.0</ele><time>2026-04-25T13:41:54.156Z</time></trkpt><trkpt lat="41.024185" lon="14.3613067"><ele>39.0</ele><time>2026-04-25T13:41:55.157Z</time></trkpt><trkpt lat="41.0241583" lon="14.3612083"><ele>39.0</ele><time>2026-04-25T13:41:56.159Z</time></trkpt><trkpt lat="41.02413" lon="14.3611083"><ele>39.166666666666664</ele><time>2026-04-25T13:41:57.156Z</time></trkpt><trkpt lat="41.0240983" lon="14.361005"><ele>39.333333333333336</ele><time>2026-04-25T13:41:58.157Z</time></trkpt><trkpt lat="41.02407" lon="14.3609033"><ele>39.5</ele><time>2026-04-25T13:41:59.157Z</time></trkpt><trkpt lat="41.0240367" lon="14.3607933"><ele>39.66666666666667</ele><time>2026-04-25T13:42:00.156Z</time></trkpt><trkpt lat="41.0240033" lon="14.3606833"><ele>39.833333333333336</ele><time>2026-04-25T13:42:01.156Z</time></trkpt><trkpt lat="41.0239717" lon="14.3605733"><ele>40.0</ele><time>2026-04-25T13:42:02.156Z</time></trkpt><trkpt lat="41.02394" lon="14.3604617"><ele>40.0</ele><time>2026-04-25T13:42:03.156Z</time></trkpt><trkpt lat="41.0239083" lon="14.3603517"><ele>40.0</ele><time>2026-04-25T13:42:04.158Z</time></trkpt><trkpt lat="41.0238733" lon="14.360245"><ele>40.0</ele><time>2026-04-25T13:42:05.157Z</time></trkpt><trkpt lat="41.02384" lon="14.36014"><ele>40.0</ele><time>2026-04-25T13:42:06.159Z</time></trkpt><trkpt lat="41.0238083" lon="14.3600333"><ele>40.0</ele><time>2026-04-25T13:42:07.156Z</time></trkpt><trkpt lat="41.023775" lon="14.3599233"><ele>40.0</ele><time>2026-04-25T13:42:08.159Z</time></trkpt><trkpt lat="41.0237467" lon="14.3598167"><ele>40.0</ele><time>2026-04-25T13:42:09.156Z</time></trkpt><trkpt lat="41.0237183" lon="14.3597117"><ele>40.0</ele><time>2026-04-25T13:42:10.158Z</time></trkpt><trkpt lat="41.0236917" lon="14.359605"><ele>40.0</ele><time>2026-04-25T13:42:11.156Z</time></trkpt><trkpt lat="41.023655" lon="14.3594917"><ele>40.0</ele><time>2026-04-25T13:42:12.158Z</time></trkpt><trkpt lat="41.0236383" lon="14.3593033"><ele>40.0</ele><time>2026-04-25T13:42:13.157Z</time></trkpt><trkpt lat="41.023605" lon="14.3592167"><ele>39.857142857142854</ele><time>2026-04-25T13:42:14.156Z</time></trkpt><trkpt lat="41.0235733" lon="14.359115"><ele>39.714285714285715</ele><time>2026-04-25T13:42:15.157Z</time></trkpt><trkpt lat="41.0235383" lon="14.3590167"><ele>39.57142857142857</ele><time>2026-04-25T13:42:16.157Z</time></trkpt><trkpt lat="41.0235083" lon="14.3589283"><ele>39.42857142857143</ele><time>2026-04-25T13:42:17.156Z</time></trkpt><trkpt lat="41.0234917" lon="14.3588433"><ele>39.285714285714285</ele><time>2026-04-25T13:42:18.156Z</time></trkpt><trkpt lat="41.0234983" lon="14.35876"><ele>39.142857142857146</ele><time>2026-04-25T13:42:19.156Z</time></trkpt><trkpt lat="41.0235217" lon="14.3586817"><ele>39.0</ele><time>2026-04-25T13:42:20.157Z</time></trkpt><trkpt lat="41.0235467" lon="14.358595"><ele>38.833333333333336</ele><time>2026-04-25T13:42:21.156Z</time></trkpt><trkpt lat="41.0235633" lon="14.3585"><ele>38.666666666666664</ele><time>2026-04-25T13:42:22.157Z</time></trkpt><trkpt lat="41.0235617" lon="14.3584033"><ele>38.5</ele><time>2026-04-25T13:42:23.157Z</time></trkpt><trkpt lat="41.02354" lon="14.358305"><ele>38.33333333333333</ele><time>2026-04-25T13:42:24.157Z</time></trkpt><trkpt lat="41.0235" lon="14.3582167"><ele>38.166666666666664</ele><time>2026-04-25T13:42:25.157Z</time></trkpt><trkpt lat="41.023435" lon="14.35816"><ele>38.0</ele><time>2026-04-25T13:42:26.157Z</time></trkpt><trkpt lat="41.023365" lon="14.3581233"><ele>37.4</ele><time>2026-04-25T13:42:27.156Z</time></trkpt><trkpt lat="41.0233083" lon="14.3580867"><ele>36.8</ele><time>2026-04-25T13:42:28.157Z</time></trkpt><trkpt lat="41.0232183" lon="14.35799"><ele>36.2</ele><time>2026-04-25T13:42:30.158Z</time></trkpt><trkpt lat="41.0231567" lon="14.3578717"><ele>35.6</ele><time>2026-04-25T13:42:32.157Z</time></trkpt><trkpt lat="41.0231183" lon="14.35775"><ele>35.0</ele><time>2026-04-25T13:42:34.157Z</time></trkpt><trkpt lat="41.0230867" lon="14.35765"><ele>35.0</ele><time>2026-04-25T13:42:36.156Z</time></trkpt><trkpt lat="41.02306" lon="14.35755"><ele>35.0</ele><time>2026-04-25T13:42:38.157Z</time></trkpt><trkpt lat="41.02303" lon="14.35744"><ele>35.0</ele><time>2026-04-25T13:42:40.156Z</time></trkpt><trkpt lat="41.0229933" lon="14.35731"><ele>35.0</ele><time>2026-04-25T13:42:42.157Z</time></trkpt><trkpt lat="41.0229467" lon="14.35716"><ele>35.0</ele><time>2026-04-25T13:42:44.156Z</time></trkpt><trkpt lat="41.0229217" lon="14.35708"><ele>35.142857142857146</ele><time>2026-04-25T13:42:45.156Z</time></trkpt><trkpt lat="41.0228967" lon="14.357"><ele>35.285714285714285</ele><time>2026-04-25T13:42:46.157Z</time></trkpt><trkpt lat="41.0228683" lon="14.3569133"><ele>35.42857142857143</ele><time>2026-04-25T13:42:47.156Z</time></trkpt><trkpt lat="41.02284" lon="14.3568283"><ele>35.57142857142857</ele><time>2026-04-25T13:42:48.156Z</time></trkpt><trkpt lat="41.0228117" lon="14.3567417"><ele>35.714285714285715</ele><time>2026-04-25T13:42:49.156Z</time></trkpt><trkpt lat="41.0227833" lon="14.356655"><ele>35.85714285714286</ele><time>2026-04-25T13:42:50.156Z</time></trkpt><trkpt lat="41.0227533" lon="14.3565617"><ele>36.0</ele><time>2026-04-25T13:42:51.157Z</time></trkpt><trkpt lat="41.022725" lon="14.3564717"><ele>36.00000000000001</ele><time>2026-04-25T13:42:52.158Z</time></trkpt><trkpt lat="41.0227" lon="14.35638"><ele>36.0</ele><time>2026-04-25T13:42:53.157Z</time></trkpt><trkpt lat="41.022675" lon="14.35629"><ele>36.0</ele><time>2026-04-25T13:42:54.156Z</time></trkpt><trkpt lat="41.0226467" lon="14.3562"><ele>36.0</ele><time>2026-04-25T13:42:55.157Z</time></trkpt><trkpt lat="41.0226183" lon="14.35611"><ele>36.0</ele><time>2026-04-25T13:42:56.157Z</time></trkpt><trkpt lat="41.022595" lon="14.3560217"><ele>36.00000000000001</ele><time>2026-04-25T13:42:57.158Z</time></trkpt><trkpt lat="41.02257" lon="14.355935"><ele>36.0</ele><time>2026-04-25T13:42:58.159Z</time></trkpt><trkpt lat="41.022545" lon="14.3558467"><ele>36.00000000000001</ele><time>2026-04-25T13:42:59.158Z</time></trkpt><trkpt lat="41.022515" lon="14.3557617"><ele>36.0</ele><time>2026-04-25T13:43:00.156Z</time></trkpt><trkpt lat="41.0224867" lon="14.3556733"><ele>36.0</ele><time>2026-04-25T13:43:01.156Z</time></trkpt><trkpt lat="41.0224583" lon="14.355585"><ele>36.0</ele><time>2026-04-25T13:43:02.16Z</time></trkpt><trkpt lat="41.0224283" lon="14.3554967"><ele>36.0</ele><time>2026-04-25T13:43:03.157Z</time></trkpt><trkpt lat="41.0223983" lon="14.3554017"><ele>36.00000000000001</ele><time>2026-04-25T13:43:04.156Z</time></trkpt><trkpt lat="41.0223717" lon="14.3553067"><ele>36.0</ele><time>2026-04-25T13:43:05.156Z</time></trkpt><trkpt lat="41.0223467" lon="14.355215"><ele>36.142857142857146</ele><time>2026-04-25T13:43:06.157Z</time></trkpt><trkpt lat="41.0223217" lon="14.3551183"><ele>36.285714285714285</ele><time>2026-04-25T13:43:07.157Z</time></trkpt><trkpt lat="41.0222967" lon="14.355025"><ele>36.42857142857143</ele><time>2026-04-25T13:43:08.156Z</time></trkpt><trkpt lat="41.02227" lon="14.3549333"><ele>36.57142857142857</ele><time>2026-04-25T13:43:09.156Z</time></trkpt><trkpt lat="41.022245" lon="14.3548433"><ele>36.714285714285715</ele><time>2026-04-25T13:43:10.159Z</time></trkpt><trkpt lat="41.0222233" lon="14.3547567"><ele>36.85714285714286</ele><time>2026-04-25T13:43:11.156Z</time></trkpt><trkpt lat="41.0221983" lon="14.35467"><ele>37.0</ele><time>2026-04-25T13:43:12.156Z</time></trkpt><trkpt lat="41.02217" lon="14.3545817"><ele>36.714285714285715</ele><time>2026-04-25T13:43:13.158Z</time></trkpt><trkpt lat="41.0221417" lon="14.3544933"><ele>36.42857142857143</ele><time>2026-04-25T13:43:14.157Z</time></trkpt><trkpt lat="41.0221133" lon="14.354405"><ele>36.14285714285714</ele><time>2026-04-25T13:43:15.157Z</time></trkpt><trkpt lat="41.0220833" lon="14.3543167"><ele>35.85714285714286</ele><time>2026-04-25T13:43:16.158Z</time></trkpt><trkpt lat="41.022055" lon="14.3542217"><ele>35.57142857142857</ele><time>2026-04-25T13:43:17.158Z</time></trkpt><trkpt lat="41.0220283" lon="14.3541317"><ele>35.285714285714285</ele><time>2026-04-25T13:43:18.157Z</time></trkpt><trkpt lat="41.0220033" lon="14.3540417"><ele>35.0</ele><time>2026-04-25T13:43:19.157Z</time></trkpt><trkpt lat="41.0219767" lon="14.3539517"><ele>34.83333333333333</ele><time>2026-04-25T13:43:20.159Z</time></trkpt><trkpt lat="41.0219467" lon="14.3538617"><ele>34.666666666666664</ele><time>2026-04-25T13:43:21.159Z</time></trkpt><trkpt lat="41.0219183" lon="14.35377"><ele>34.5</ele><time>2026-04-25T13:43:22.156Z</time></trkpt><trkpt lat="41.0218933" lon="14.3536767"><ele>34.333333333333336</ele><time>2026-04-25T13:43:23.157Z</time></trkpt><trkpt lat="41.021865" lon="14.3535767"><ele>34.16666666666667</ele><time>2026-04-25T13:43:24.157Z</time></trkpt><trkpt lat="41.0218383" lon="14.353485"><ele>34.0</ele><time>2026-04-25T13:43:25.156Z</time></trkpt><trkpt lat="41.021815" lon="14.3533933"><ele>34.0</ele><time>2026-04-25T13:43:26.156Z</time></trkpt><trkpt lat="41.0217867" lon="14.3533"><ele>34.0</ele><time>2026-04-25T13:43:27.157Z</time></trkpt><trkpt lat="41.0217583" lon="14.3532083"><ele>34.0</ele><time>2026-04-25T13:43:28.156Z</time></trkpt><trkpt lat="41.0217317" lon="14.353115"><ele>34.0</ele><time>2026-04-25T13:43:29.156Z</time></trkpt><trkpt lat="41.0217017" lon="14.35302"><ele>34.0</ele><time>2026-04-25T13:43:30.158Z</time></trkpt><trkpt lat="41.021675" lon="14.3529217"><ele>34.0</ele><time>2026-04-25T13:43:31.156Z</time></trkpt><trkpt lat="41.0216467" lon="14.3528233"><ele>34.0</ele><time>2026-04-25T13:43:32.157Z</time></trkpt><trkpt lat="41.021615" lon="14.3527233"><ele>34.0</ele><time>2026-04-25T13:43:33.157Z</time></trkpt><trkpt lat="41.0215867" lon="14.3526267"><ele>34.0</ele><time>2026-04-25T13:43:34.156Z</time></trkpt><trkpt lat="41.0215583" lon="14.35253"><ele>34.0</ele><time>2026-04-25T13:43:35.158Z</time></trkpt><trkpt lat="41.02153" lon="14.352435"><ele>34.0</ele><time>2026-04-25T13:43:36.156Z</time></trkpt><trkpt lat="41.0215017" lon="14.35234"><ele>34.0</ele><time>2026-04-25T13:43:37.158Z</time></trkpt><trkpt lat="41.02147" lon="14.352245"><ele>34.0</ele><time>2026-04-25T13:43:38.157Z</time></trkpt><trkpt lat="41.02144" lon="14.3521483"><ele>34.0</ele><time>2026-04-25T13:43:39.158Z</time></trkpt><trkpt lat="41.0214067" lon="14.352055"><ele>34.0</ele><time>2026-04-25T13:43:40.157Z</time></trkpt><trkpt lat="41.021375" lon="14.3519633"><ele>34.0</ele><time>2026-04-25T13:43:41.157Z</time></trkpt><trkpt lat="41.0213467" lon="14.351865"><ele>34.0</ele><time>2026-04-25T13:43:42.157Z</time></trkpt><trkpt lat="41.0213217" lon="14.3517683"><ele>34.0</ele><time>2026-04-25T13:43:43.157Z</time></trkpt><trkpt lat="41.021295" lon="14.351665"><ele>34.0</ele><time>2026-04-25T13:43:44.157Z</time></trkpt><trkpt lat="41.0212667" lon="14.3515667"><ele>34.0</ele><time>2026-04-25T13:43:45.157Z</time></trkpt><trkpt lat="41.0212333" lon="14.3514683"><ele>34.0</ele><time>2026-04-25T13:43:46.157Z</time></trkpt><trkpt lat="41.0212017" lon="14.3513683"><ele>34.0</ele><time>2026-04-25T13:43:47.156Z</time></trkpt><trkpt lat="41.02117" lon="14.35127"><ele>34.0</ele><time>2026-04-25T13:43:48.158Z</time></trkpt><trkpt lat="41.02114" lon="14.351175"><ele>34.0</ele><time>2026-04-25T13:43:49.16Z</time></trkpt><trkpt lat="41.02111" lon="14.351075"><ele>34.0</ele><time>2026-04-25T13:43:50.156Z</time></trkpt><trkpt lat="41.0210817" lon="14.350975"><ele>34.0</ele><time>2026-04-25T13:43:51.157Z</time></trkpt><trkpt lat="41.0210483" lon="14.35087"><ele>34.0</ele><time>2026-04-25T13:43:52.156Z</time></trkpt><trkpt lat="41.021015" lon="14.350765"><ele>34.0</ele><time>2026-04-25T13:43:53.158Z</time></trkpt><trkpt lat="41.0209833" lon="14.35066"><ele>34.0</ele><time>2026-04-25T13:43:54.157Z</time></trkpt><trkpt lat="41.0209517" lon="14.350555"><ele>34.0</ele><time>2026-04-25T13:43:55.156Z</time></trkpt><trkpt lat="41.0209233" lon="14.3504517"><ele>34.0</ele><time>2026-04-25T13:43:56.157Z</time></trkpt><trkpt lat="41.0208983" lon="14.35035"><ele>34.0</ele><time>2026-04-25T13:43:57.157Z</time></trkpt><trkpt lat="41.0208733" lon="14.3502467"><ele>34.0</ele><time>2026-04-25T13:43:58.156Z</time></trkpt><trkpt lat="41.0208433" lon="14.3501433"><ele>34.0</ele><time>2026-04-25T13:43:59.156Z</time></trkpt><trkpt lat="41.0208117" lon="14.35004"><ele>34.0</ele><time>2026-04-25T13:44:00.157Z</time></trkpt><trkpt lat="41.02078" lon="14.3499417"><ele>34.0</ele><time>2026-04-25T13:44:01.157Z</time></trkpt><trkpt lat="41.0207467" lon="14.3498417"><ele>33.833333333333336</ele><time>2026-04-25T13:44:02.156Z</time></trkpt><trkpt lat="41.020715" lon="14.3497383"><ele>33.66666666666667</ele><time>2026-04-25T13:44:03.157Z</time></trkpt><trkpt lat="41.020685" lon="14.349635"><ele>33.5</ele><time>2026-04-25T13:44:04.156Z</time></trkpt><trkpt lat="41.0206533" lon="14.3495333"><ele>33.333333333333336</ele><time>2026-04-25T13:44:05.156Z</time></trkpt><trkpt lat="41.0206233" lon="14.349435"><ele>33.166666666666664</ele><time>2026-04-25T13:44:06.158Z</time></trkpt><trkpt lat="41.0205917" lon="14.349335"><ele>33.0</ele><time>2026-04-25T13:44:07.156Z</time></trkpt><trkpt lat="41.02056" lon="14.3492317"><ele>33.0</ele><time>2026-04-25T13:44:08.158Z</time></trkpt><trkpt lat="41.0205267" lon="14.349135"><ele>33.0</ele><time>2026-04-25T13:44:09.157Z</time></trkpt><trkpt lat="41.0204983" lon="14.349035"><ele>33.0</ele><time>2026-04-25T13:44:10.158Z</time></trkpt><trkpt lat="41.0204683" lon="14.3489317"><ele>33.0</ele><time>2026-04-25T13:44:11.156Z</time></trkpt><trkpt lat="41.0204367" lon="14.3488333"><ele>33.0</ele><time>2026-04-25T13:44:12.157Z</time></trkpt><trkpt lat="41.020405" lon="14.3487333"><ele>33.0</ele><time>2026-04-25T13:44:13.156Z</time></trkpt><trkpt lat="41.0203733" lon="14.3486317"><ele>33.0</ele><time>2026-04-25T13:44:14.157Z</time></trkpt><trkpt lat="41.0203383" lon="14.3485333"><ele>33.0</ele><time>2026-04-25T13:44:15.157Z</time></trkpt><trkpt lat="41.0203067" lon="14.3484333"><ele>33.0</ele><time>2026-04-25T13:44:16.157Z</time></trkpt><trkpt lat="41.0202767" lon="14.3483333"><ele>33.0</ele><time>2026-04-25T13:44:17.157Z</time></trkpt><trkpt lat="41.0202467" lon="14.348235"><ele>33.0</ele><time>2026-04-25T13:44:18.156Z</time></trkpt><trkpt lat="41.0202167" lon="14.3481367"><ele>33.0</ele><time>2026-04-25T13:44:19.157Z</time></trkpt><trkpt lat="41.0201883" lon="14.3480433"><ele>32.857142857142854</ele><time>2026-04-25T13:44:20.157Z</time></trkpt><trkpt lat="41.0201583" lon="14.347955"><ele>32.714285714285715</ele><time>2026-04-25T13:44:21.157Z</time></trkpt><trkpt lat="41.0201317" lon="14.34787"><ele>32.57142857142857</ele><time>2026-04-25T13:44:22.158Z</time></trkpt><trkpt lat="41.0201067" lon="14.3477817"><ele>32.42857142857143</ele><time>2026-04-25T13:44:23.157Z</time></trkpt><trkpt lat="41.02008" lon="14.3476933"><ele>32.285714285714285</ele><time>2026-04-25T13:44:24.158Z</time></trkpt><trkpt lat="41.0200533" lon="14.3476067"><ele>32.14285714285714</ele><time>2026-04-25T13:44:25.157Z</time></trkpt><trkpt lat="41.020025" lon="14.3475167"><ele>32.0</ele><time>2026-04-25T13:44:26.158Z</time></trkpt><trkpt lat="41.02" lon="14.3474267"><ele>32.0</ele><time>2026-04-25T13:44:27.158Z</time></trkpt><trkpt lat="41.0199733" lon="14.3473383"><ele>31.999999999999996</ele><time>2026-04-25T13:44:28.158Z</time></trkpt><trkpt lat="41.019945" lon="14.3472483"><ele>32.0</ele><time>2026-04-25T13:44:29.157Z</time></trkpt><trkpt lat="41.0199167" lon="14.3471567"><ele>32.0</ele><time>2026-04-25T13:44:30.158Z</time></trkpt><trkpt lat="41.019885" lon="14.3470667"><ele>31.999999999999996</ele><time>2026-04-25T13:44:31.156Z</time></trkpt><trkpt lat="41.019855" lon="14.3469767"><ele>32.0</ele><time>2026-04-25T13:44:32.157Z</time></trkpt><trkpt lat="41.0198267" lon="14.346885"><ele>32.0</ele><time>2026-04-25T13:44:33.157Z</time></trkpt><trkpt lat="41.0197983" lon="14.3467967"><ele>31.999999999999996</ele><time>2026-04-25T13:44:34.157Z</time></trkpt><trkpt lat="41.01977" lon="14.3467067"><ele>32.0</ele><time>2026-04-25T13:44:35.156Z</time></trkpt><trkpt lat="41.01974" lon="14.3466117"><ele>32.0</ele><time>2026-04-25T13:44:36.158Z</time></trkpt><trkpt lat="41.01971" lon="14.346515"><ele>32.0</ele><time>2026-04-25T13:44:37.158Z</time></trkpt><trkpt lat="41.0196817" lon="14.34642"><ele>31.999999999999996</ele><time>2026-04-25T13:44:38.157Z</time></trkpt><trkpt lat="41.0196533" lon="14.34632"><ele>32.0</ele><time>2026-04-25T13:44:39.156Z</time></trkpt><trkpt lat="41.0196233" lon="14.346215"><ele>31.999999999999996</ele><time>2026-04-25T13:44:40.156Z</time></trkpt><trkpt lat="41.0195917" lon="14.34611"><ele>32.0</ele><time>2026-04-25T13:44:41.157Z</time></trkpt><trkpt lat="41.0195583" lon="14.3460017"><ele>32.0</ele><time>2026-04-25T13:44:42.157Z</time></trkpt><trkpt lat="41.0195267" lon="14.34589"><ele>32.0</ele><time>2026-04-25T13:44:43.157Z</time></trkpt><trkpt lat="41.019495" lon="14.3457783"><ele>31.999999999999996</ele><time>2026-04-25T13:44:44.161Z</time></trkpt><trkpt lat="41.019465" lon="14.3456633"><ele>32.0</ele><time>2026-04-25T13:44:45.158Z</time></trkpt><trkpt lat="41.0194333" lon="14.3455433"><ele>32.0</ele><time>2026-04-25T13:44:46.157Z</time></trkpt><trkpt lat="41.0194" lon="14.34543"><ele>32.0</ele><time>2026-04-25T13:44:47.158Z</time></trkpt><trkpt lat="41.019365" lon="14.34532"><ele>32.0</ele><time>2026-04-25T13:44:48.158Z</time></trkpt><trkpt lat="41.0193317" lon="14.3452083"><ele>32.0</ele><time>2026-04-25T13:44:49.159Z</time></trkpt><trkpt lat="41.0192967" lon="14.3450983"><ele>32.0</ele><time>2026-04-25T13:44:50.157Z</time></trkpt><trkpt lat="41.0192583" lon="14.3449917"><ele>31.999999999999996</ele><time>2026-04-25T13:44:51.157Z</time></trkpt><trkpt lat="41.01922" lon="14.3448867"><ele>32.0</ele><time>2026-04-25T13:44:52.158Z</time></trkpt><trkpt lat="41.019185" lon="14.3447783"><ele>32.0</ele><time>2026-04-25T13:44:53.157Z</time></trkpt><trkpt lat="41.0191533" lon="14.3446667"><ele>32.0</ele><time>2026-04-25T13:44:54.158Z</time></trkpt><trkpt lat="41.01912" lon="14.344555"><ele>31.999999999999996</ele><time>2026-04-25T13:44:55.158Z</time></trkpt><trkpt lat="41.0190867" lon="14.344445"><ele>32.0</ele><time>2026-04-25T13:44:56.157Z</time></trkpt><trkpt lat="41.0190533" lon="14.3443333"><ele>31.499999999999996</ele><time>2026-04-25T13:44:57.156Z</time></trkpt><trkpt lat="41.0190167" lon="14.3442233"><ele>31.0</ele><time>2026-04-25T13:44:58.157Z</time></trkpt><trkpt lat="41.0189867" lon="14.3441133"><ele>30.5</ele><time>2026-04-25T13:44:59.156Z</time></trkpt><trkpt lat="41.0189517" lon="14.3440017"><ele>30.0</ele><time>2026-04-25T13:45:00.157Z</time></trkpt><trkpt lat="41.01892" lon="14.3438917"><ele>29.499999999999996</ele><time>2026-04-25T13:45:01.157Z</time></trkpt><trkpt lat="41.01889" lon="14.3437833"><ele>29.0</ele><time>2026-04-25T13:45:02.156Z</time></trkpt><trkpt lat="41.0188567" lon="14.3436733"><ele>29.0</ele><time>2026-04-25T13:45:03.157Z</time></trkpt><trkpt lat="41.0188233" lon="14.3435567"><ele>29.0</ele><time>2026-04-25T13:45:04.156Z</time></trkpt><trkpt lat="41.0187883" lon="14.3434433"><ele>29.0</ele><time>2026-04-25T13:45:05.158Z</time></trkpt><trkpt lat="41.01875" lon="14.3433317"><ele>29.0</ele><time>2026-04-25T13:45:06.158Z</time></trkpt><trkpt lat="41.0187117" lon="14.3432233"><ele>29.0</ele><time>2026-04-25T13:45:07.157Z</time></trkpt><trkpt lat="41.0186767" lon="14.3431167"><ele>28.999999999999996</ele><time>2026-04-25T13:45:08.157Z</time></trkpt><trkpt lat="41.01864" lon="14.34301"><ele>29.0</ele><time>2026-04-25T13:45:09.157Z</time></trkpt><trkpt lat="41.0186083" lon="14.342905"><ele>29.0</ele><time>2026-04-25T13:45:10.157Z</time></trkpt><trkpt lat="41.0185733" lon="14.342805"><ele>29.0</ele><time>2026-04-25T13:45:11.157Z</time></trkpt><trkpt lat="41.0185433" lon="14.3427067"><ele>28.999999999999996</ele><time>2026-04-25T13:45:12.159Z</time></trkpt><trkpt lat="41.0185167" lon="14.34261"><ele>29.0</ele><time>2026-04-25T13:45:13.157Z</time></trkpt><trkpt lat="41.0184933" lon="14.342515"><ele>29.000000000000004</ele><time>2026-04-25T13:45:14.158Z</time></trkpt><trkpt lat="41.0184667" lon="14.3424167"><ele>29.0</ele><time>2026-04-25T13:45:15.158Z</time></trkpt><trkpt lat="41.01844" lon="14.342325"><ele>29.000000000000004</ele><time>2026-04-25T13:45:16.157Z</time></trkpt><trkpt lat="41.0184167" lon="14.3422267"><ele>29.000000000000004</ele><time>2026-04-25T13:45:17.157Z</time></trkpt><trkpt lat="41.0183983" lon="14.34213"><ele>29.0</ele><time>2026-04-25T13:45:18.157Z</time></trkpt><trkpt lat="41.0183917" lon="14.3420367"><ele>29.000000000000004</ele><time>2026-04-25T13:45:19.157Z</time></trkpt><trkpt lat="41.0183917" lon="14.3419467"><ele>29.000000000000004</ele><time>2026-04-25T13:45:20.157Z</time></trkpt><trkpt lat="41.0183917" lon="14.3418533"><ele>29.285714285714292</ele><time>2026-04-25T13:45:21.157Z</time></trkpt><trkpt lat="41.0183817" lon="14.3417617"><ele>29.571428571428573</ele><time>2026-04-25T13:45:22.158Z</time></trkpt><trkpt lat="41.01836" lon="14.3416667"><ele>29.85714285714286</ele><time>2026-04-25T13:45:23.158Z</time></trkpt><trkpt lat="41.0183283" lon="14.341585"><ele>30.142857142857146</ele><time>2026-04-25T13:45:24.158Z</time></trkpt><trkpt lat="41.01829" lon="14.3415133"><ele>30.42857142857143</ele><time>2026-04-25T13:45:25.157Z</time></trkpt><trkpt lat="41.018245" lon="14.341445"><ele>30.714285714285715</ele><time>2026-04-25T13:45:26.157Z</time></trkpt><trkpt lat="41.0182" lon="14.3413733"><ele>31.0</ele><time>2026-04-25T13:45:27.157Z</time></trkpt><trkpt lat="41.01816" lon="14.341305"><ele>30.42857142857143</ele><time>2026-04-25T13:45:28.157Z</time></trkpt><trkpt lat="41.0181233" lon="14.3412333"><ele>29.85714285714286</ele><time>2026-04-25T13:45:29.158Z</time></trkpt><trkpt lat="41.0180833" lon="14.34116"><ele>29.285714285714285</ele><time>2026-04-25T13:45:30.159Z</time></trkpt><trkpt lat="41.0180483" lon="14.3410833"><ele>28.714285714285715</ele><time>2026-04-25T13:45:31.157Z</time></trkpt><trkpt lat="41.0180133" lon="14.341005"><ele>28.142857142857142</ele><time>2026-04-25T13:45:32.157Z</time></trkpt><trkpt lat="41.0179833" lon="14.34092"><ele>27.57142857142857</ele><time>2026-04-25T13:45:33.157Z</time></trkpt><trkpt lat="41.01795" lon="14.340835"><ele>27.0</ele><time>2026-04-25T13:45:34.159Z</time></trkpt><trkpt lat="41.0179167" lon="14.3407483"><ele>27.0</ele><time>2026-04-25T13:45:35.158Z</time></trkpt><trkpt lat="41.0178867" lon="14.34066"><ele>27.0</ele><time>2026-04-25T13:45:36.158Z</time></trkpt><trkpt lat="41.01786" lon="14.3405667"><ele>27.0</ele><time>2026-04-25T13:45:37.16Z</time></trkpt><trkpt lat="41.0178317" lon="14.3404717"><ele>27.0</ele><time>2026-04-25T13:45:38.158Z</time></trkpt><trkpt lat="41.017805" lon="14.340375"><ele>27.0</ele><time>2026-04-25T13:45:39.159Z</time></trkpt><trkpt lat="41.0177783" lon="14.3402767"><ele>27.0</ele><time>2026-04-25T13:45:40.157Z</time></trkpt><trkpt lat="41.0177517" lon="14.3401767"><ele>27.166666666666668</ele><time>2026-04-25T13:45:41.158Z</time></trkpt><trkpt lat="41.0177233" lon="14.3400717"><ele>27.333333333333336</ele><time>2026-04-25T13:45:42.158Z</time></trkpt><trkpt lat="41.0176933" lon="14.33997"><ele>27.5</ele><time>2026-04-25T13:45:43.155Z</time></trkpt><trkpt lat="41.0176617" lon="14.3398683"><ele>27.666666666666668</ele><time>2026-04-25T13:45:44.156Z</time></trkpt><trkpt lat="41.01763" lon="14.339765"><ele>27.833333333333336</ele><time>2026-04-25T13:45:45.155Z</time></trkpt><trkpt lat="41.0175983" lon="14.3396633"><ele>28.0</ele><time>2026-04-25T13:45:46.155Z</time></trkpt><trkpt lat="41.017565" lon="14.3395617"><ele>28.000000000000004</ele><time>2026-04-25T13:45:47.155Z</time></trkpt><trkpt lat="41.017535" lon="14.3394633"><ele>28.0</ele><time>2026-04-25T13:45:48.155Z</time></trkpt><trkpt lat="41.017505" lon="14.3393617"><ele>28.0</ele><time>2026-04-25T13:45:49.155Z</time></trkpt><trkpt lat="41.017475" lon="14.3392567"><ele>28.0</ele><time>2026-04-25T13:45:50.158Z</time></trkpt><trkpt lat="41.0174433" lon="14.3391567"><ele>28.000000000000004</ele><time>2026-04-25T13:45:51.155Z</time></trkpt><trkpt lat="41.0174133" lon="14.3390567"><ele>28.0</ele><time>2026-04-25T13:45:52.155Z</time></trkpt><trkpt lat="41.017385" lon="14.33896"><ele>27.714285714285715</ele><time>2026-04-25T13:45:53.158Z</time></trkpt><trkpt lat="41.0173567" lon="14.3388667"><ele>27.42857142857143</ele><time>2026-04-25T13:45:54.156Z</time></trkpt><trkpt lat="41.0173283" lon="14.3387733"><ele>27.142857142857142</ele><time>2026-04-25T13:45:55.156Z</time></trkpt><trkpt lat="41.0172983" lon="14.3386783"><ele>26.857142857142858</ele><time>2026-04-25T13:45:56.158Z</time></trkpt><trkpt lat="41.01727" lon="14.33859"><ele>26.571428571428573</ele><time>2026-04-25T13:45:57.156Z</time></trkpt><trkpt lat="41.017245" lon="14.3384967"><ele>26.285714285714285</ele><time>2026-04-25T13:45:58.158Z</time></trkpt><trkpt lat="41.0172233" lon="14.3384083"><ele>26.0</ele><time>2026-04-25T13:45:59.155Z</time></trkpt><trkpt lat="41.0171983" lon="14.3383267"><ele>26.0</ele><time>2026-04-25T13:46:00.157Z</time></trkpt><trkpt lat="41.0171733" lon="14.3382483"><ele>26.0</ele><time>2026-04-25T13:46:01.155Z</time></trkpt><trkpt lat="41.017125" lon="14.338095"><ele>26.0</ele><time>2026-04-25T13:46:03.156Z</time></trkpt><trkpt lat="41.0170983" lon="14.3380133"><ele>26.0</ele><time>2026-04-25T13:46:04.155Z</time></trkpt><trkpt lat="41.0170533" lon="14.3378633"><ele>26.0</ele><time>2026-04-25T13:46:06.156Z</time></trkpt><trkpt lat="41.0170283" lon="14.337705"><ele>25.6</ele><time>2026-04-25T13:46:08.157Z</time></trkpt><trkpt lat="41.0170117" lon="14.33755"><ele>25.200000000000003</ele><time>2026-04-25T13:46:10.155Z</time></trkpt><trkpt lat="41.016955" lon="14.33741"><ele>24.799999999999997</ele><time>2026-04-25T13:46:12.155Z</time></trkpt><trkpt lat="41.0169117" lon="14.3373467"><ele>24.4</ele><time>2026-04-25T13:46:13.157Z</time></trkpt><trkpt lat="41.0168317" lon="14.337225"><ele>24.0</ele><time>2026-04-25T13:46:15.155Z</time></trkpt><trkpt lat="41.01679" lon="14.3371617"><ele>24.0</ele><time>2026-04-25T13:46:16.156Z</time></trkpt><trkpt lat="41.0167317" lon="14.337025"><ele>24.0</ele><time>2026-04-25T13:46:18.156Z</time></trkpt><trkpt lat="41.0166817" lon="14.33689"><ele>24.0</ele><time>2026-04-25T13:46:20.156Z</time></trkpt><trkpt lat="41.0166333" lon="14.3367583"><ele>24.0</ele><time>2026-04-25T13:46:22.155Z</time></trkpt><trkpt lat="41.016585" lon="14.3366267"><ele>24.0</ele><time>2026-04-25T13:46:24.157Z</time></trkpt><trkpt lat="41.0165433" lon="14.3364967"><ele>24.0</ele><time>2026-04-25T13:46:26.155Z</time></trkpt><trkpt lat="41.0165" lon="14.33635"><ele>24.0</ele><time>2026-04-25T13:46:28.155Z</time></trkpt><trkpt lat="41.016475" lon="14.3362733"><ele>24.0</ele><time>2026-04-25T13:46:29.156Z</time></trkpt><trkpt lat="41.016445" lon="14.3361933"><ele>24.0</ele><time>2026-04-25T13:46:30.156Z</time></trkpt><trkpt lat="41.0164233" lon="14.33611"><ele>24.0</ele><time>2026-04-25T13:46:31.157Z</time></trkpt><trkpt lat="41.0163783" lon="14.3359567"><ele>23.857142857142854</ele><time>2026-04-25T13:46:33.156Z</time></trkpt><trkpt lat="41.0163533" lon="14.3358767"><ele>23.714285714285715</ele><time>2026-04-25T13:46:34.156Z</time></trkpt><trkpt lat="41.0163217" lon="14.3358"><ele>23.57142857142857</ele><time>2026-04-25T13:46:35.157Z</time></trkpt><trkpt lat="41.0162933" lon="14.33572"><ele>23.428571428571427</ele><time>2026-04-25T13:46:36.157Z</time></trkpt><trkpt lat="41.0162667" lon="14.33564"><ele>23.285714285714285</ele><time>2026-04-25T13:46:37.157Z</time></trkpt><trkpt lat="41.016245" lon="14.3355533"><ele>23.142857142857142</ele><time>2026-04-25T13:46:38.158Z</time></trkpt><trkpt lat="41.0162233" lon="14.3354683"><ele>23.0</ele><time>2026-04-25T13:46:39.157Z</time></trkpt><trkpt lat="41.016195" lon="14.335385"><ele>23.142857142857142</ele><time>2026-04-25T13:46:40.157Z</time></trkpt><trkpt lat="41.0161717" lon="14.3353"><ele>23.285714285714285</ele><time>2026-04-25T13:46:41.156Z</time></trkpt><trkpt lat="41.016145" lon="14.3352133"><ele>23.428571428571427</ele><time>2026-04-25T13:46:42.158Z</time></trkpt><trkpt lat="41.0161183" lon="14.33512"><ele>23.57142857142857</ele><time>2026-04-25T13:46:43.158Z</time></trkpt><trkpt lat="41.0160933" lon="14.3350333"><ele>23.714285714285715</ele><time>2026-04-25T13:46:44.156Z</time></trkpt><trkpt lat="41.016065" lon="14.3349467"><ele>23.857142857142854</ele><time>2026-04-25T13:46:45.156Z</time></trkpt><trkpt lat="41.0160483" lon="14.3348617"><ele>24.0</ele><time>2026-04-25T13:46:46.157Z</time></trkpt><trkpt lat="41.016025" lon="14.3347"><ele>24.0</ele><time>2026-04-25T13:46:48.156Z</time></trkpt><trkpt lat="41.0159967" lon="14.3345317"><ele>24.0</ele><time>2026-04-25T13:46:50.157Z</time></trkpt><trkpt lat="41.0159817" lon="14.3344467"><ele>24.0</ele><time>2026-04-25T13:46:51.156Z</time></trkpt><trkpt lat="41.0159683" lon="14.3343583"><ele>24.0</ele><time>2026-04-25T13:46:52.155Z</time></trkpt><trkpt lat="41.015955" lon="14.3342683"><ele>24.0</ele><time>2026-04-25T13:46:53.156Z</time></trkpt><trkpt lat="41.0159417" lon="14.3341817"><ele>24.0</ele><time>2026-04-25T13:46:54.156Z</time></trkpt><trkpt lat="41.01593" lon="14.3340933"><ele>23.999999999999996</ele><time>2026-04-25T13:46:55.156Z</time></trkpt><trkpt lat="41.015915" lon="14.3340017"><ele>24.0</ele><time>2026-04-25T13:46:56.156Z</time></trkpt><trkpt lat="41.0159" lon="14.33391"><ele>24.0</ele><time>2026-04-25T13:46:57.157Z</time></trkpt><trkpt lat="41.015885" lon="14.3338167"><ele>24.0</ele><time>2026-04-25T13:46:58.155Z</time></trkpt><trkpt lat="41.0158717" lon="14.3337233"><ele>24.0</ele><time>2026-04-25T13:46:59.155Z</time></trkpt><trkpt lat="41.01586" lon="14.33363"><ele>23.999999999999996</ele><time>2026-04-25T13:47:00.156Z</time></trkpt><trkpt lat="41.0158517" lon="14.333535"><ele>24.0</ele><time>2026-04-25T13:47:01.157Z</time></trkpt><trkpt lat="41.0158417" lon="14.3334433"><ele>23.857142857142854</ele><time>2026-04-25T13:47:02.158Z</time></trkpt><trkpt lat="41.01583" lon="14.3333533"><ele>23.714285714285715</ele><time>2026-04-25T13:47:03.156Z</time></trkpt><trkpt lat="41.0158183" lon="14.3332617"><ele>23.57142857142857</ele><time>2026-04-25T13:47:04.157Z</time></trkpt><trkpt lat="41.0158033" lon="14.333165"><ele>23.428571428571427</ele><time>2026-04-25T13:47:05.156Z</time></trkpt><trkpt lat="41.0157933" lon="14.3330717"><ele>23.285714285714285</ele><time>2026-04-25T13:47:06.156Z</time></trkpt><trkpt lat="41.0157883" lon="14.3329817"><ele>23.142857142857142</ele><time>2026-04-25T13:47:07.157Z</time></trkpt><trkpt lat="41.0157817" lon="14.332895"><ele>23.0</ele><time>2026-04-25T13:47:08.157Z</time></trkpt><trkpt lat="41.01577" lon="14.3328117"><ele>23.142857142857142</ele><time>2026-04-25T13:47:09.156Z</time></trkpt><trkpt lat="41.0157633" lon="14.3327267"><ele>23.285714285714285</ele><time>2026-04-25T13:47:10.156Z</time></trkpt><trkpt lat="41.015755" lon="14.33264"><ele>23.428571428571427</ele><time>2026-04-25T13:47:11.156Z</time></trkpt><trkpt lat="41.0157417" lon="14.3325583"><ele>23.57142857142857</ele><time>2026-04-25T13:47:12.156Z</time></trkpt><trkpt lat="41.0157283" lon="14.3324717"><ele>23.714285714285715</ele><time>2026-04-25T13:47:13.158Z</time></trkpt><trkpt lat="41.0157133" lon="14.332385"><ele>23.857142857142854</ele><time>2026-04-25T13:47:14.156Z</time></trkpt><trkpt lat="41.0157017" lon="14.332295"><ele>24.0</ele><time>2026-04-25T13:47:15.156Z</time></trkpt><trkpt lat="41.0156883" lon="14.3322017"><ele>23.999999999999996</ele><time>2026-04-25T13:47:16.157Z</time></trkpt><trkpt lat="41.0156767" lon="14.3321083"><ele>24.0</ele><time>2026-04-25T13:47:17.156Z</time></trkpt><trkpt lat="41.01567" lon="14.3320133"><ele>24.0</ele><time>2026-04-25T13:47:18.156Z</time></trkpt><trkpt lat="41.0156617" lon="14.33192"><ele>24.0</ele><time>2026-04-25T13:47:19.156Z</time></trkpt><trkpt lat="41.01565" lon="14.3318267"><ele>24.0</ele><time>2026-04-25T13:47:20.157Z</time></trkpt><trkpt lat="41.0156433" lon="14.33173"><ele>23.999999999999996</ele><time>2026-04-25T13:47:21.155Z</time></trkpt><trkpt lat="41.0156367" lon="14.33164"><ele>24.0</ele><time>2026-04-25T13:47:22.157Z</time></trkpt><trkpt lat="41.01563" lon="14.3315517"><ele>23.999999999999996</ele><time>2026-04-25T13:47:23.156Z</time></trkpt><trkpt lat="41.0156217" lon="14.3314667"><ele>24.0</ele><time>2026-04-25T13:47:24.157Z</time></trkpt><trkpt lat="41.0156117" lon="14.33138"><ele>24.0</ele><time>2026-04-25T13:47:25.156Z</time></trkpt><trkpt lat="41.0156017" lon="14.3312917"><ele>24.0</ele><time>2026-04-25T13:47:26.158Z</time></trkpt><trkpt lat="41.0156" lon="14.3312033"><ele>24.0</ele><time>2026-04-25T13:47:27.156Z</time></trkpt><trkpt lat="41.015595" lon="14.3311167"><ele>23.999999999999996</ele><time>2026-04-25T13:47:28.156Z</time></trkpt><trkpt lat="41.0155883" lon="14.3310333"><ele>24.0</ele><time>2026-04-25T13:47:29.156Z</time></trkpt><trkpt lat="41.01558" lon="14.330945"><ele>24.0</ele><time>2026-04-25T13:47:30.156Z</time></trkpt><trkpt lat="41.0155733" lon="14.33086"><ele>24.0</ele><time>2026-04-25T13:47:31.157Z</time></trkpt><trkpt lat="41.0155683" lon="14.3306933"><ele>24.0</ele><time>2026-04-25T13:47:33.156Z</time></trkpt><trkpt lat="41.015565" lon="14.3306067"><ele>24.0</ele><time>2026-04-25T13:47:34.157Z</time></trkpt><trkpt lat="41.01556" lon="14.3305217"><ele>24.0</ele><time>2026-04-25T13:47:35.157Z</time></trkpt><trkpt lat="41.0155583" lon="14.3304333"><ele>24.0</ele><time>2026-04-25T13:47:36.156Z</time></trkpt><trkpt lat="41.0155617" lon="14.33027"><ele>23.6</ele><time>2026-04-25T13:47:38.156Z</time></trkpt><trkpt lat="41.0155667" lon="14.33011"><ele>23.2</ele><time>2026-04-25T13:47:40.156Z</time></trkpt><trkpt lat="41.015575" lon="14.32995"><ele>22.8</ele><time>2026-04-25T13:47:42.156Z</time></trkpt><trkpt lat="41.0155783" lon="14.3297883"><ele>22.400000000000002</ele><time>2026-04-25T13:47:44.156Z</time></trkpt><trkpt lat="41.0155783" lon="14.3297033"><ele>22.0</ele><time>2026-04-25T13:47:45.156Z</time></trkpt><trkpt lat="41.0155833" lon="14.3295417"><ele>22.0</ele><time>2026-04-25T13:47:47.156Z</time></trkpt><trkpt lat="41.0155883" lon="14.32938"><ele>22.0</ele><time>2026-04-25T13:47:49.156Z</time></trkpt><trkpt lat="41.0155967" lon="14.3292233"><ele>22.0</ele><time>2026-04-25T13:47:51.156Z</time></trkpt><trkpt lat="41.015605" lon="14.32907"><ele>22.0</ele><time>2026-04-25T13:47:53.157Z</time></trkpt><trkpt lat="41.0156117" lon="14.3289067"><ele>22.400000000000002</ele><time>2026-04-25T13:47:55.157Z</time></trkpt><trkpt lat="41.0156133" lon="14.3288217"><ele>22.8</ele><time>2026-04-25T13:47:56.156Z</time></trkpt><trkpt lat="41.015625" lon="14.3286633"><ele>23.2</ele><time>2026-04-25T13:47:58.157Z</time></trkpt><trkpt lat="41.0156383" lon="14.3285033"><ele>23.6</ele><time>2026-04-25T13:48:00.157Z</time></trkpt><trkpt lat="41.015645" lon="14.328345"><ele>24.0</ele><time>2026-04-25T13:48:02.156Z</time></trkpt><trkpt lat="41.0156617" lon="14.3281917"><ele>23.799999999999997</ele><time>2026-04-25T13:48:04.156Z</time></trkpt><trkpt lat="41.01568" lon="14.3280533"><ele>23.599999999999998</ele><time>2026-04-25T13:48:06.156Z</time></trkpt><trkpt lat="41.0157083" lon="14.32792"><ele>23.4</ele><time>2026-04-25T13:48:08.157Z</time></trkpt><trkpt lat="41.0157683" lon="14.3277967"><ele>23.2</ele><time>2026-04-25T13:48:10.155Z</time></trkpt><trkpt lat="41.0158433" lon="14.3276833"><ele>23.0</ele><time>2026-04-25T13:48:12.157Z</time></trkpt><trkpt lat="41.0159317" lon="14.3275833"><ele>23.0</ele><time>2026-04-25T13:48:14.156Z</time></trkpt><trkpt lat="41.0160333" lon="14.3275067"><ele>23.0</ele><time>2026-04-25T13:48:16.156Z</time></trkpt><trkpt lat="41.0161483" lon="14.3274667"><ele>23.0</ele><time>2026-04-25T13:48:18.156Z</time></trkpt><trkpt lat="41.0162517" lon="14.3274333"><ele>23.0</ele><time>2026-04-25T13:48:20.157Z</time></trkpt><trkpt lat="41.0163533" lon="14.3273917"><ele>23.0</ele><time>2026-04-25T13:48:22.156Z</time></trkpt><trkpt lat="41.0164167" lon="14.3273767"><ele>23.0</ele><time>2026-04-25T13:48:23.156Z</time></trkpt><trkpt lat="41.0164833" lon="14.327375"><ele>23.0</ele><time>2026-04-25T13:48:24.157Z</time></trkpt><trkpt lat="41.0166017" lon="14.3273583"><ele>23.0</ele><time>2026-04-25T13:48:26.156Z</time></trkpt><trkpt lat="41.01672" lon="14.3273633"><ele>23.0</ele><time>2026-04-25T13:48:28.156Z</time></trkpt><trkpt lat="41.01683" lon="14.3273517"><ele>23.0</ele><time>2026-04-25T13:48:30.158Z</time></trkpt><trkpt lat="41.016925" lon="14.327335"><ele>23.0</ele><time>2026-04-25T13:48:32.157Z</time></trkpt><trkpt lat="41.0170167" lon="14.327315"><ele>23.0</ele><time>2026-04-25T13:48:34.156Z</time></trkpt><trkpt lat="41.01711" lon="14.327285"><ele>23.0</ele><time>2026-04-25T13:48:36.157Z</time></trkpt><trkpt lat="41.0172017" lon="14.3272167"><ele>23.0</ele><time>2026-04-25T13:48:38.156Z</time></trkpt><trkpt lat="41.017305" lon="14.3271417"><ele>23.0</ele><time>2026-04-25T13:48:40.156Z</time></trkpt><trkpt lat="41.0174217" lon="14.327105"><ele>23.0</ele><time>2026-04-25T13:48:42.156Z</time></trkpt><trkpt lat="41.0175383" lon="14.3270783"><ele>23.0</ele><time>2026-04-25T13:48:44.157Z</time></trkpt><trkpt lat="41.0176533" lon="14.327035"><ele>23.0</ele><time>2026-04-25T13:48:46.156Z</time></trkpt><trkpt lat="41.01777" lon="14.3270117"><ele>23.0</ele><time>2026-04-25T13:48:48.156Z</time></trkpt><trkpt lat="41.0178867" lon="14.3270133"><ele>23.0</ele><time>2026-04-25T13:48:50.157Z</time></trkpt><trkpt lat="41.0180017" lon="14.3270167"><ele>23.0</ele><time>2026-04-25T13:48:52.157Z</time></trkpt><trkpt lat="41.01812" lon="14.3270067"><ele>23.0</ele><time>2026-04-25T13:48:54.156Z</time></trkpt><trkpt lat="41.0182417" lon="14.326995"><ele>23.0</ele><time>2026-04-25T13:48:56.157Z</time></trkpt><trkpt lat="41.018305" lon="14.326985"><ele>23.0</ele><time>2026-04-25T13:48:57.157Z</time></trkpt><trkpt lat="41.01837" lon="14.3269783"><ele>23.2</ele><time>2026-04-25T13:48:58.161Z</time></trkpt><trkpt lat="41.0184367" lon="14.3269767"><ele>23.4</ele><time>2026-04-25T13:48:59.156Z</time></trkpt><trkpt lat="41.0185017" lon="14.3269683"><ele>23.599999999999998</ele><time>2026-04-25T13:49:00.158Z</time></trkpt><trkpt lat="41.0186183" lon="14.326935"><ele>23.799999999999997</ele><time>2026-04-25T13:49:02.157Z</time></trkpt><trkpt lat="41.0187417" lon="14.3269133"><ele>24.0</ele><time>2026-04-25T13:49:04.157Z</time></trkpt><trkpt lat="41.018865" lon="14.3268933"><ele>24.0</ele><time>2026-04-25T13:49:06.156Z</time></trkpt><trkpt lat="41.0189867" lon="14.3268717"><ele>24.0</ele><time>2026-04-25T13:49:08.158Z</time></trkpt><trkpt lat="41.0191083" lon="14.32684"><ele>24.0</ele><time>2026-04-25T13:49:10.156Z</time></trkpt><trkpt lat="41.0192283" lon="14.32681"><ele>24.0</ele><time>2026-04-25T13:49:12.157Z</time></trkpt><trkpt lat="41.019345" lon="14.3267717"><ele>24.4</ele><time>2026-04-25T13:49:14.156Z</time></trkpt><trkpt lat="41.0194567" lon="14.3267183"><ele>24.799999999999997</ele><time>2026-04-25T13:49:16.156Z</time></trkpt><trkpt lat="41.0195717" lon="14.3266567"><ele>25.200000000000003</ele><time>2026-04-25T13:49:18.156Z</time></trkpt><trkpt lat="41.0196283" lon="14.3266167"><ele>25.6</ele><time>2026-04-25T13:49:19.156Z</time></trkpt><trkpt lat="41.0197333" lon="14.3265267"><ele>26.0</ele><time>2026-04-25T13:49:21.158Z</time></trkpt><trkpt lat="41.0198333" lon="14.3264383"><ele>25.75</ele><time>2026-04-25T13:49:23.156Z</time></trkpt><trkpt lat="41.0199267" lon="14.32634"><ele>25.5</ele><time>2026-04-25T13:49:25.156Z</time></trkpt><trkpt lat="41.0200183" lon="14.32623"><ele>25.25</ele><time>2026-04-25T13:49:27.156Z</time></trkpt><trkpt lat="41.02011" lon="14.3261217"><ele>25.0</ele><time>2026-04-25T13:49:29.156Z</time></trkpt><trkpt lat="41.020195" lon="14.32601"><ele>25.0</ele><time>2026-04-25T13:49:31.156Z</time></trkpt><trkpt lat="41.0202767" lon="14.325895"><ele>25.0</ele><time>2026-04-25T13:49:33.156Z</time></trkpt><trkpt lat="41.020345" lon="14.325765"><ele>25.0</ele><time>2026-04-25T13:49:35.156Z</time></trkpt><trkpt lat="41.02037" lon="14.3256867"><ele>25.0</ele><time>2026-04-25T13:49:36.156Z</time></trkpt><trkpt lat="41.0204017" lon="14.3255317"><ele>25.0</ele><time>2026-04-25T13:49:38.156Z</time></trkpt><trkpt lat="41.020405" lon="14.3254483"><ele>25.000000000000004</ele><time>2026-04-25T13:49:39.156Z</time></trkpt><trkpt lat="41.0203833" lon="14.3252933"><ele>25.0</ele><time>2026-04-25T13:49:41.156Z</time></trkpt><trkpt lat="41.0203517" lon="14.32522"><ele>25.0</ele><time>2026-04-25T13:49:42.156Z</time></trkpt><trkpt lat="41.0203117" lon="14.3251533"><ele>25.0</ele><time>2026-04-25T13:49:43.157Z</time></trkpt><trkpt lat="41.0202583" lon="14.3250933"><ele>25.000000000000004</ele><time>2026-04-25T13:49:44.158Z</time></trkpt><trkpt lat="41.0201983" lon="14.3250517"><ele>25.0</ele><time>2026-04-25T13:49:45.157Z</time></trkpt><trkpt lat="41.02013" lon="14.3250183"><ele>25.000000000000004</ele><time>2026-04-25T13:49:46.157Z</time></trkpt><trkpt lat="41.0200567" lon="14.3249983"><ele>25.0</ele><time>2026-04-25T13:49:47.157Z</time></trkpt><trkpt lat="41.0199833" lon="14.3249867"><ele>25.0</ele><time>2026-04-25T13:49:48.157Z</time></trkpt><trkpt lat="41.0199117" lon="14.32498"><ele>25.0</ele><time>2026-04-25T13:49:49.156Z</time></trkpt><trkpt lat="41.0198383" lon="14.3249817"><ele>25.0</ele><time>2026-04-25T13:49:50.158Z</time></trkpt><trkpt lat="41.0197633" lon="14.3249817"><ele>25.000000000000004</ele><time>2026-04-25T13:49:51.156Z</time></trkpt><trkpt lat="41.0196917" lon="14.3249833"><ele>25.0</ele><time>2026-04-25T13:49:52.156Z</time></trkpt><trkpt lat="41.01962" lon="14.3249867"><ele>24.833333333333336</ele><time>2026-04-25T13:49:53.156Z</time></trkpt><trkpt lat="41.01955" lon="14.3249867"><ele>24.666666666666668</ele><time>2026-04-25T13:49:54.157Z</time></trkpt><trkpt lat="41.0194783" lon="14.324985"><ele>24.5</ele><time>2026-04-25T13:49:55.156Z</time></trkpt><trkpt lat="41.0194033" lon="14.3249867"><ele>24.333333333333336</ele><time>2026-04-25T13:49:56.156Z</time></trkpt><trkpt lat="41.0193267" lon="14.3249883"><ele>24.166666666666668</ele><time>2026-04-25T13:49:57.156Z</time></trkpt><trkpt lat="41.01925" lon="14.32499"><ele>24.0</ele><time>2026-04-25T13:49:58.157Z</time></trkpt><trkpt lat="41.0190933" lon="14.324995"><ele>24.0</ele><time>2026-04-25T13:50:00.166Z</time></trkpt><trkpt lat="41.01901" lon="14.3249917"><ele>24.0</ele><time>2026-04-25T13:50:01.164Z</time></trkpt><trkpt lat="41.0189317" lon="14.32499"><ele>24.0</ele><time>2026-04-25T13:50:02.157Z</time></trkpt><trkpt lat="41.0188567" lon="14.32499"><ele>24.0</ele><time>2026-04-25T13:50:03.158Z</time></trkpt><trkpt lat="41.0187783" lon="14.3249833"><ele>24.0</ele><time>2026-04-25T13:50:04.156Z</time></trkpt><trkpt lat="41.0187017" lon="14.324985"><ele>24.0</ele><time>2026-04-25T13:50:05.157Z</time></trkpt><trkpt lat="41.0186183" lon="14.3249867"><ele>24.0</ele><time>2026-04-25T13:50:06.157Z</time></trkpt><trkpt lat="41.0185333" lon="14.3249867"><ele>24.0</ele><time>2026-04-25T13:50:07.157Z</time></trkpt><trkpt lat="41.0184517" lon="14.3249867"><ele>24.0</ele><time>2026-04-25T13:50:08.156Z</time></trkpt><trkpt lat="41.0183733" lon="14.32499"><ele>24.0</ele><time>2026-04-25T13:50:09.157Z</time></trkpt><trkpt lat="41.018295" lon="14.3249917"><ele>24.0</ele><time>2026-04-25T13:50:10.158Z</time></trkpt><trkpt lat="41.018215" lon="14.3249867"><ele>24.0</ele><time>2026-04-25T13:50:11.157Z</time></trkpt><trkpt lat="41.0181367" lon="14.3249933"><ele>23.833333333333332</ele><time>2026-04-25T13:50:12.157Z</time></trkpt><trkpt lat="41.01806" lon="14.3250017"><ele>23.666666666666668</ele><time>2026-04-25T13:50:13.159Z</time></trkpt><trkpt lat="41.0179783" lon="14.3250083"><ele>23.5</ele><time>2026-04-25T13:50:14.158Z</time></trkpt><trkpt lat="41.017895" lon="14.325015"><ele>23.333333333333336</ele><time>2026-04-25T13:50:15.156Z</time></trkpt><trkpt lat="41.0178117" lon="14.3250217"><ele>23.166666666666668</ele><time>2026-04-25T13:50:16.157Z</time></trkpt><trkpt lat="41.01773" lon="14.3250267"><ele>23.0</ele><time>2026-04-25T13:50:17.156Z</time></trkpt><trkpt lat="41.017645" lon="14.325025"><ele>23.0</ele><time>2026-04-25T13:50:18.156Z</time></trkpt><trkpt lat="41.01756" lon="14.3250183"><ele>23.0</ele><time>2026-04-25T13:50:19.157Z</time></trkpt><trkpt lat="41.0174767" lon="14.3250117"><ele>23.0</ele><time>2026-04-25T13:50:20.158Z</time></trkpt><trkpt lat="41.017395" lon="14.32501"><ele>23.0</ele><time>2026-04-25T13:50:21.156Z</time></trkpt><trkpt lat="41.01731" lon="14.3250117"><ele>23.0</ele><time>2026-04-25T13:50:22.156Z</time></trkpt><trkpt lat="41.0172217" lon="14.3250133"><ele>23.0</ele><time>2026-04-25T13:50:23.156Z</time></trkpt><trkpt lat="41.017135" lon="14.3250167"><ele>23.166666666666668</ele><time>2026-04-25T13:50:24.157Z</time></trkpt><trkpt lat="41.01705" lon="14.3250167"><ele>23.333333333333336</ele><time>2026-04-25T13:50:25.156Z</time></trkpt><trkpt lat="41.0169667" lon="14.325015"><ele>23.5</ele><time>2026-04-25T13:50:26.157Z</time></trkpt><trkpt lat="41.0168833" lon="14.3250133"><ele>23.666666666666668</ele><time>2026-04-25T13:50:27.155Z</time></trkpt><trkpt lat="41.0167983" lon="14.3250133"><ele>23.833333333333332</ele><time>2026-04-25T13:50:28.159Z</time></trkpt><trkpt lat="41.0167117" lon="14.3250117"><ele>24.0</ele><time>2026-04-25T13:50:29.157Z</time></trkpt><trkpt lat="41.0166233" lon="14.3250133"><ele>24.0</ele><time>2026-04-25T13:50:30.157Z</time></trkpt><trkpt lat="41.0165367" lon="14.3250133"><ele>24.0</ele><time>2026-04-25T13:50:31.157Z</time></trkpt><trkpt lat="41.0164467" lon="14.3250067"><ele>24.0</ele><time>2026-04-25T13:50:32.157Z</time></trkpt><trkpt lat="41.0163533" lon="14.3249983"><ele>24.0</ele><time>2026-04-25T13:50:33.156Z</time></trkpt><trkpt lat="41.0162583" lon="14.32498"><ele>24.0</ele><time>2026-04-25T13:50:34.157Z</time></trkpt><trkpt lat="41.0161667" lon="14.3249617"><ele>24.0</ele><time>2026-04-25T13:50:35.156Z</time></trkpt><trkpt lat="41.0160767" lon="14.32494"><ele>24.0</ele><time>2026-04-25T13:50:36.158Z</time></trkpt><trkpt lat="41.0159833" lon="14.324925"><ele>24.0</ele><time>2026-04-25T13:50:37.157Z</time></trkpt><trkpt lat="41.0158933" lon="14.3249183"><ele>24.0</ele><time>2026-04-25T13:50:38.157Z</time></trkpt><trkpt lat="41.0157983" lon="14.324915"><ele>24.0</ele><time>2026-04-25T13:50:39.158Z</time></trkpt><trkpt lat="41.0157033" lon="14.32491"><ele>24.0</ele><time>2026-04-25T13:50:40.156Z</time></trkpt><trkpt lat="41.0156067" lon="14.3249017"><ele>24.0</ele><time>2026-04-25T13:50:41.157Z</time></trkpt><trkpt lat="41.0155117" lon="14.3248983"><ele>24.0</ele><time>2026-04-25T13:50:42.156Z</time></trkpt><trkpt lat="41.0154167" lon="14.3248917"><ele>24.0</ele><time>2026-04-25T13:50:43.157Z</time></trkpt><trkpt lat="41.0153167" lon="14.3248767"><ele>24.0</ele><time>2026-04-25T13:50:44.157Z</time></trkpt><trkpt lat="41.0152167" lon="14.3248617"><ele>24.0</ele><time>2026-04-25T13:50:45.157Z</time></trkpt><trkpt lat="41.0151117" lon="14.324845"><ele>24.0</ele><time>2026-04-25T13:50:46.157Z</time></trkpt><trkpt lat="41.0150067" lon="14.3248283"><ele>24.0</ele><time>2026-04-25T13:50:47.156Z</time></trkpt><trkpt lat="41.0149017" lon="14.3248033"><ele>24.0</ele><time>2026-04-25T13:50:48.158Z</time></trkpt><trkpt lat="41.0147967" lon="14.3247683"><ele>24.0</ele><time>2026-04-25T13:50:49.158Z</time></trkpt><trkpt lat="41.0146933" lon="14.324725"><ele>24.2</ele><time>2026-04-25T13:50:50.157Z</time></trkpt><trkpt lat="41.0145917" lon="14.3246733"><ele>24.4</ele><time>2026-04-25T13:50:51.158Z</time></trkpt><trkpt lat="41.0144917" lon="14.32462"><ele>24.6</ele><time>2026-04-25T13:50:52.16Z</time></trkpt><trkpt lat="41.0143983" lon="14.3245783"><ele>24.8</ele><time>2026-04-25T13:50:53.157Z</time></trkpt><trkpt lat="41.014315" lon="14.324535"><ele>25.0</ele><time>2026-04-25T13:50:54.157Z</time></trkpt><trkpt lat="41.0142417" lon="14.3244817"><ele>25.000000000000004</ele><time>2026-04-25T13:50:55.158Z</time></trkpt><trkpt lat="41.014165" lon="14.3244267"><ele>25.0</ele><time>2026-04-25T13:50:56.157Z</time></trkpt><trkpt lat="41.0140883" lon="14.3243717"><ele>25.0</ele><time>2026-04-25T13:50:57.156Z</time></trkpt><trkpt lat="41.0140167" lon="14.3243233"><ele>25.0</ele><time>2026-04-25T13:50:58.157Z</time></trkpt><trkpt lat="41.0139433" lon="14.3242733"><ele>25.000000000000004</ele><time>2026-04-25T13:50:59.157Z</time></trkpt><trkpt lat="41.0138683" lon="14.324225"><ele>25.0</ele><time>2026-04-25T13:51:00.157Z</time></trkpt><trkpt lat="41.01379" lon="14.3241717"><ele>25.000000000000004</ele><time>2026-04-25T13:51:01.158Z</time></trkpt><trkpt lat="41.0137183" lon="14.3241183"><ele>25.0</ele><time>2026-04-25T13:51:02.158Z</time></trkpt><trkpt lat="41.0136483" lon="14.3240633"><ele>25.0</ele><time>2026-04-25T13:51:03.159Z</time></trkpt><trkpt lat="41.0135733" lon="14.3240117"><ele>25.0</ele><time>2026-04-25T13:51:04.161Z</time></trkpt><trkpt lat="41.0134983" lon="14.3239617"><ele>25.000000000000004</ele><time>2026-04-25T13:51:05.159Z</time></trkpt><trkpt lat="41.0134283" lon="14.3239067"><ele>25.0</ele><time>2026-04-25T13:51:06.156Z</time></trkpt><trkpt lat="41.0133617" lon="14.3238567"><ele>25.142857142857146</ele><time>2026-04-25T13:51:07.158Z</time></trkpt><trkpt lat="41.0133017" lon="14.3238017"><ele>25.285714285714285</ele><time>2026-04-25T13:51:08.16Z</time></trkpt><trkpt lat="41.0132433" lon="14.323745"><ele>25.42857142857143</ele><time>2026-04-25T13:51:09.156Z</time></trkpt><trkpt lat="41.013185" lon="14.3236933"><ele>25.571428571428573</ele><time>2026-04-25T13:51:10.157Z</time></trkpt><trkpt lat="41.0131283" lon="14.3236417"><ele>25.714285714285715</ele><time>2026-04-25T13:51:11.156Z</time></trkpt><trkpt lat="41.0130667" lon="14.323585"><ele>25.857142857142858</ele><time>2026-04-25T13:51:12.156Z</time></trkpt><trkpt lat="41.0130083" lon="14.3235333"><ele>26.0</ele><time>2026-04-25T13:51:13.157Z</time></trkpt><trkpt lat="41.0129533" lon="14.323485"><ele>25.999999999999996</ele><time>2026-04-25T13:51:14.158Z</time></trkpt><trkpt lat="41.0128567" lon="14.3233883"><ele>26.0</ele><time>2026-04-25T13:51:16.158Z</time></trkpt><trkpt lat="41.0127667" lon="14.3232983"><ele>26.0</ele><time>2026-04-25T13:51:18.158Z</time></trkpt><trkpt lat="41.0127167" lon="14.3232433"><ele>26.0</ele><time>2026-04-25T13:51:19.159Z</time></trkpt><trkpt lat="41.0126633" lon="14.32319"><ele>25.999999999999996</ele><time>2026-04-25T13:51:20.157Z</time></trkpt><trkpt lat="41.0126117" lon="14.323135"><ele>26.0</ele><time>2026-04-25T13:51:21.158Z</time></trkpt><trkpt lat="41.0125633" lon="14.32308"><ele>25.857142857142858</ele><time>2026-04-25T13:51:22.159Z</time></trkpt><trkpt lat="41.012515" lon="14.323025"><ele>25.714285714285715</ele><time>2026-04-25T13:51:23.158Z</time></trkpt><trkpt lat="41.0124667" lon="14.3229683"><ele>25.571428571428573</ele><time>2026-04-25T13:51:24.158Z</time></trkpt><trkpt lat="41.01242" lon="14.32291"><ele>25.42857142857143</ele><time>2026-04-25T13:51:25.157Z</time></trkpt><trkpt lat="41.0123267" lon="14.3227983"><ele>25.285714285714285</ele><time>2026-04-25T13:51:27.157Z</time></trkpt><trkpt lat="41.0122817" lon="14.3227367"><ele>25.142857142857146</ele><time>2026-04-25T13:51:28.158Z</time></trkpt><trkpt lat="41.0122367" lon="14.3226767"><ele>25.0</ele><time>2026-04-25T13:51:29.159Z</time></trkpt><trkpt lat="41.0121433" lon="14.32256"><ele>25.000000000000004</ele><time>2026-04-25T13:51:31.158Z</time></trkpt><trkpt lat="41.0120517" lon="14.3224417"><ele>25.0</ele><time>2026-04-25T13:51:33.158Z</time></trkpt><trkpt lat="41.0120033" lon="14.3223817"><ele>25.0</ele><time>2026-04-25T13:51:34.157Z</time></trkpt><trkpt lat="41.011955" lon="14.3223217"><ele>25.0</ele><time>2026-04-25T13:51:35.159Z</time></trkpt><trkpt lat="41.0119067" lon="14.3222617"><ele>25.000000000000004</ele><time>2026-04-25T13:51:36.158Z</time></trkpt><trkpt lat="41.01186" lon="14.3222017"><ele>25.0</ele><time>2026-04-25T13:51:37.158Z</time></trkpt><trkpt lat="41.0118067" lon="14.3221417"><ele>24.666666666666668</ele><time>2026-04-25T13:51:38.157Z</time></trkpt><trkpt lat="41.01175" lon="14.322075"><ele>24.333333333333336</ele><time>2026-04-25T13:51:39.158Z</time></trkpt><trkpt lat="41.011695" lon="14.3220083"><ele>24.0</ele><time>2026-04-25T13:51:40.158Z</time></trkpt><trkpt lat="41.0116417" lon="14.3219417"><ele>23.666666666666668</ele><time>2026-04-25T13:51:41.16Z</time></trkpt><trkpt lat="41.0115867" lon="14.3218733"><ele>23.333333333333336</ele><time>2026-04-25T13:51:42.159Z</time></trkpt><trkpt lat="41.01153" lon="14.3218067"><ele>23.0</ele><time>2026-04-25T13:51:43.158Z</time></trkpt><trkpt lat="41.0114717" lon="14.321735"><ele>23.0</ele><time>2026-04-25T13:51:44.158Z</time></trkpt><trkpt lat="41.011415" lon="14.3216583"><ele>23.0</ele><time>2026-04-25T13:51:45.158Z</time></trkpt><trkpt lat="41.011355" lon="14.3215833"><ele>23.0</ele><time>2026-04-25T13:51:46.158Z</time></trkpt><trkpt lat="41.011295" lon="14.3215067"><ele>23.0</ele><time>2026-04-25T13:51:47.157Z</time></trkpt><trkpt lat="41.0112367" lon="14.3214267"><ele>23.0</ele><time>2026-04-25T13:51:48.158Z</time></trkpt><trkpt lat="41.0111767" lon="14.3213483"><ele>23.0</ele><time>2026-04-25T13:51:49.158Z</time></trkpt><trkpt lat="41.0111167" lon="14.3212733"><ele>22.833333333333336</ele><time>2026-04-25T13:51:50.158Z</time></trkpt><trkpt lat="41.011055" lon="14.3212"><ele>22.666666666666668</ele><time>2026-04-25T13:51:51.157Z</time></trkpt><trkpt lat="41.0109933" lon="14.32113"><ele>22.5</ele><time>2026-04-25T13:51:52.157Z</time></trkpt><trkpt lat="41.0109317" lon="14.321055"><ele>22.333333333333332</ele><time>2026-04-25T13:51:53.158Z</time></trkpt><trkpt lat="41.0108717" lon="14.3209733"><ele>22.166666666666664</ele><time>2026-04-25T13:51:54.158Z</time></trkpt><trkpt lat="41.01081" lon="14.3208933"><ele>22.0</ele><time>2026-04-25T13:51:55.158Z</time></trkpt><trkpt lat="41.0107483" lon="14.3208183"><ele>22.0</ele><time>2026-04-25T13:51:56.158Z</time></trkpt><trkpt lat="41.0106783" lon="14.3207383"><ele>22.0</ele><time>2026-04-25T13:51:57.157Z</time></trkpt><trkpt lat="41.0106117" lon="14.32067"><ele>22.0</ele><time>2026-04-25T13:51:58.158Z</time></trkpt><trkpt lat="41.0105417" lon="14.3206083"><ele>22.0</ele><time>2026-04-25T13:51:59.16Z</time></trkpt><trkpt lat="41.01047" lon="14.3205517"><ele>22.0</ele><time>2026-04-25T13:52:00.158Z</time></trkpt><trkpt lat="41.0103967" lon="14.320495"><ele>22.0</ele><time>2026-04-25T13:52:01.158Z</time></trkpt><trkpt lat="41.0103233" lon="14.32044"><ele>22.166666666666664</ele><time>2026-04-25T13:52:02.159Z</time></trkpt><trkpt lat="41.0102483" lon="14.3203917"><ele>22.333333333333332</ele><time>2026-04-25T13:52:03.158Z</time></trkpt><trkpt lat="41.0101733" lon="14.3203567"><ele>22.5</ele><time>2026-04-25T13:52:04.158Z</time></trkpt><trkpt lat="41.0100967" lon="14.32033"><ele>22.666666666666668</ele><time>2026-04-25T13:52:05.159Z</time></trkpt><trkpt lat="41.01002" lon="14.320305"><ele>22.833333333333336</ele><time>2026-04-25T13:52:06.157Z</time></trkpt><trkpt lat="41.0099433" lon="14.32028"><ele>23.0</ele><time>2026-04-25T13:52:07.159Z</time></trkpt><trkpt lat="41.0098683" lon="14.320255"><ele>22.571428571428573</ele><time>2026-04-25T13:52:08.159Z</time></trkpt><trkpt lat="41.0098" lon="14.3202283"><ele>22.142857142857142</ele><time>2026-04-25T13:52:09.159Z</time></trkpt><trkpt lat="41.00973" lon="14.3202033"><ele>21.714285714285715</ele><time>2026-04-25T13:52:10.158Z</time></trkpt><trkpt lat="41.0096667" lon="14.3201817"><ele>21.285714285714285</ele><time>2026-04-25T13:52:11.158Z</time></trkpt><trkpt lat="41.0096033" lon="14.3201467"><ele>20.857142857142858</ele><time>2026-04-25T13:52:12.159Z</time></trkpt><trkpt lat="41.0095417" lon="14.320125"><ele>20.428571428571427</ele><time>2026-04-25T13:52:13.162Z</time></trkpt><trkpt lat="41.00948" lon="14.3201017"><ele>20.0</ele><time>2026-04-25T13:52:14.159Z</time></trkpt><trkpt lat="41.0093683" lon="14.3200567"><ele>20.0</ele><time>2026-04-25T13:52:16.157Z</time></trkpt><trkpt lat="41.0093033" lon="14.3200367"><ele>20.0</ele><time>2026-04-25T13:52:17.158Z</time></trkpt><trkpt lat="41.009185" lon="14.3200083"><ele>20.0</ele><time>2026-04-25T13:52:19.158Z</time></trkpt><trkpt lat="41.00907" lon="14.31998"><ele>20.0</ele><time>2026-04-25T13:52:21.157Z</time></trkpt><trkpt lat="41.00896" lon="14.3199433"><ele>20.0</ele><time>2026-04-25T13:52:23.158Z</time></trkpt><trkpt lat="41.00884" lon="14.31989"><ele>20.0</ele><time>2026-04-25T13:52:25.157Z</time></trkpt><trkpt lat="41.00872" lon="14.3198417"><ele>20.0</ele><time>2026-04-25T13:52:27.158Z</time></trkpt><trkpt lat="41.008595" lon="14.3198067"><ele>20.0</ele><time>2026-04-25T13:52:29.158Z</time></trkpt><trkpt lat="41.0085283" lon="14.3197833"><ele>20.0</ele><time>2026-04-25T13:52:30.158Z</time></trkpt><trkpt lat="41.0084617" lon="14.3197583"><ele>20.0</ele><time>2026-04-25T13:52:31.156Z</time></trkpt><trkpt lat="41.0083967" lon="14.3197267"><ele>20.0</ele><time>2026-04-25T13:52:32.165Z</time></trkpt><trkpt lat="41.0083283" lon="14.3197"><ele>20.0</ele><time>2026-04-25T13:52:33.156Z</time></trkpt><trkpt lat="41.008265" lon="14.319675"><ele>20.0</ele><time>2026-04-25T13:52:34.158Z</time></trkpt><trkpt lat="41.0081967" lon="14.319655"><ele>20.0</ele><time>2026-04-25T13:52:35.157Z</time></trkpt><trkpt lat="41.0081317" lon="14.319635"><ele>20.0</ele><time>2026-04-25T13:52:36.158Z</time></trkpt><trkpt lat="41.0080083" lon="14.3196"><ele>20.0</ele><time>2026-04-25T13:52:38.156Z</time></trkpt><trkpt lat="41.0079433" lon="14.3195817"><ele>20.0</ele><time>2026-04-25T13:52:39.156Z</time></trkpt><trkpt lat="41.0078367" lon="14.3195517"><ele>20.0</ele><time>2026-04-25T13:52:41.157Z</time></trkpt><trkpt lat="41.0077733" lon="14.3195383"><ele>20.0</ele><time>2026-04-25T13:52:42.158Z</time></trkpt><trkpt lat="41.0077067" lon="14.3195183"><ele>20.0</ele><time>2026-04-25T13:52:43.157Z</time></trkpt><trkpt lat="41.00763" lon="14.3194983"><ele>20.0</ele><time>2026-04-25T13:52:44.157Z</time></trkpt><trkpt lat="41.0075533" lon="14.31947"><ele>20.0</ele><time>2026-04-25T13:52:45.158Z</time></trkpt><trkpt lat="41.0074883" lon="14.3194467"><ele>20.333333333333336</ele><time>2026-04-25T13:52:46.157Z</time></trkpt><trkpt lat="41.00742" lon="14.31943"><ele>20.666666666666668</ele><time>2026-04-25T13:52:47.156Z</time></trkpt><trkpt lat="41.0073067" lon="14.3193683"><ele>21.0</ele><time>2026-04-25T13:52:49.157Z</time></trkpt><trkpt lat="41.0072417" lon="14.3193467"><ele>21.333333333333332</ele><time>2026-04-25T13:52:50.158Z</time></trkpt><trkpt lat="41.0071733" lon="14.3193233"><ele>21.666666666666664</ele><time>2026-04-25T13:52:51.156Z</time></trkpt><trkpt lat="41.0071033" lon="14.3193"><ele>22.0</ele><time>2026-04-25T13:52:52.157Z</time></trkpt><trkpt lat="41.0070367" lon="14.3192767"><ele>22.0</ele><time>2026-04-25T13:52:53.156Z</time></trkpt><trkpt lat="41.006965" lon="14.3192533"><ele>22.0</ele><time>2026-04-25T13:52:54.157Z</time></trkpt><trkpt lat="41.006895" lon="14.3192317"><ele>22.0</ele><time>2026-04-25T13:52:55.156Z</time></trkpt><trkpt lat="41.00683" lon="14.3192083"><ele>22.0</ele><time>2026-04-25T13:52:56.157Z</time></trkpt><trkpt lat="41.00676" lon="14.319185"><ele>22.0</ele><time>2026-04-25T13:52:57.157Z</time></trkpt><trkpt lat="41.00669" lon="14.319155"><ele>22.0</ele><time>2026-04-25T13:52:58.158Z</time></trkpt><trkpt lat="41.00662" lon="14.3191283"><ele>22.0</ele><time>2026-04-25T13:52:59.157Z</time></trkpt><trkpt lat="41.0065483" lon="14.3191033"><ele>21.833333333333332</ele><time>2026-04-25T13:53:00.156Z</time></trkpt><trkpt lat="41.006475" lon="14.3190767"><ele>21.666666666666664</ele><time>2026-04-25T13:53:01.157Z</time></trkpt><trkpt lat="41.0063983" lon="14.3190333"><ele>21.5</ele><time>2026-04-25T13:53:02.156Z</time></trkpt><trkpt lat="41.0063283" lon="14.3189933"><ele>21.333333333333332</ele><time>2026-04-25T13:53:03.158Z</time></trkpt><trkpt lat="41.0062583" lon="14.318945"><ele>21.166666666666668</ele><time>2026-04-25T13:53:04.158Z</time></trkpt><trkpt lat="41.00619" lon="14.318885"><ele>21.0</ele><time>2026-04-25T13:53:05.158Z</time></trkpt><trkpt lat="41.0061367" lon="14.318805"><ele>21.0</ele><time>2026-04-25T13:53:06.158Z</time></trkpt><trkpt lat="41.0060783" lon="14.3187283"><ele>21.0</ele><time>2026-04-25T13:53:07.156Z</time></trkpt><trkpt lat="41.0060233" lon="14.318645"><ele>21.0</ele><time>2026-04-25T13:53:08.157Z</time></trkpt><trkpt lat="41.0059567" lon="14.318575"><ele>21.0</ele><time>2026-04-25T13:53:09.158Z</time></trkpt><trkpt lat="41.005885" lon="14.318515"><ele>21.0</ele><time>2026-04-25T13:53:10.157Z</time></trkpt><trkpt lat="41.0058083" lon="14.318485"><ele>21.0</ele><time>2026-04-25T13:53:11.156Z</time></trkpt><trkpt lat="41.0057267" lon="14.3184783"><ele>20.833333333333332</ele><time>2026-04-25T13:53:12.158Z</time></trkpt><trkpt lat="41.0056467" lon="14.3185067"><ele>20.666666666666668</ele><time>2026-04-25T13:53:13.156Z</time></trkpt><trkpt lat="41.0055783" lon="14.31857"><ele>20.5</ele><time>2026-04-25T13:53:14.157Z</time></trkpt><trkpt lat="41.0055167" lon="14.3186383"><ele>20.333333333333336</ele><time>2026-04-25T13:53:15.157Z</time></trkpt><trkpt lat="41.00546" lon="14.318705"><ele>20.166666666666668</ele><time>2026-04-25T13:53:16.158Z</time></trkpt><trkpt lat="41.0054033" lon="14.3187717"><ele>20.0</ele><time>2026-04-25T13:53:17.156Z</time></trkpt><trkpt lat="41.0053483" lon="14.318845"><ele>20.333333333333336</ele><time>2026-04-25T13:53:18.156Z</time></trkpt><trkpt lat="41.00529" lon="14.3189183"><ele>20.666666666666668</ele><time>2026-04-25T13:53:19.155Z</time></trkpt><trkpt lat="41.0052283" lon="14.3189883"><ele>21.0</ele><time>2026-04-25T13:53:20.156Z</time></trkpt><trkpt lat="41.0051533" lon="14.3190517"><ele>21.333333333333332</ele><time>2026-04-25T13:53:21.157Z</time></trkpt><trkpt lat="41.0050717" lon="14.3191017"><ele>21.666666666666664</ele><time>2026-04-25T13:53:22.156Z</time></trkpt><trkpt lat="41.0049883" lon="14.3191283"><ele>22.0</ele><time>2026-04-25T13:53:23.157Z</time></trkpt><trkpt lat="41.004905" lon="14.319125"><ele>22.166666666666664</ele><time>2026-04-25T13:53:24.157Z</time></trkpt><trkpt lat="41.004825" lon="14.3191083"><ele>22.333333333333332</ele><time>2026-04-25T13:53:25.156Z</time></trkpt><trkpt lat="41.0047433" lon="14.3190883"><ele>22.5</ele><time>2026-04-25T13:53:26.155Z</time></trkpt><trkpt lat="41.004665" lon="14.31906"><ele>22.666666666666668</ele><time>2026-04-25T13:53:27.157Z</time></trkpt><trkpt lat="41.004585" lon="14.3190317"><ele>22.833333333333336</ele><time>2026-04-25T13:53:28.157Z</time></trkpt><trkpt lat="41.0045067" lon="14.3190033"><ele>23.0</ele><time>2026-04-25T13:53:29.156Z</time></trkpt><trkpt lat="41.004425" lon="14.31898"><ele>23.0</ele><time>2026-04-25T13:53:30.156Z</time></trkpt><trkpt lat="41.0043433" lon="14.318955"><ele>23.0</ele><time>2026-04-25T13:53:31.156Z</time></trkpt><trkpt lat="41.0042583" lon="14.3189283"><ele>23.0</ele><time>2026-04-25T13:53:32.157Z</time></trkpt><trkpt lat="41.0041867" lon="14.3189"><ele>23.0</ele><time>2026-04-25T13:53:33.156Z</time></trkpt><trkpt lat="41.0041067" lon="14.31888"><ele>23.0</ele><time>2026-04-25T13:53:34.156Z</time></trkpt><trkpt lat="41.004025" lon="14.3188667"><ele>23.0</ele><time>2026-04-25T13:53:35.156Z</time></trkpt><trkpt lat="41.0039417" lon="14.3188533"><ele>22.333333333333336</ele><time>2026-04-25T13:53:36.156Z</time></trkpt><trkpt lat="41.0038617" lon="14.31884"><ele>21.666666666666668</ele><time>2026-04-25T13:53:37.157Z</time></trkpt><trkpt lat="41.0037833" lon="14.318825"><ele>21.0</ele><time>2026-04-25T13:53:38.157Z</time></trkpt><trkpt lat="41.003705" lon="14.3188067"><ele>20.333333333333332</ele><time>2026-04-25T13:53:39.156Z</time></trkpt><trkpt lat="41.003625" lon="14.3187933"><ele>19.666666666666664</ele><time>2026-04-25T13:53:40.156Z</time></trkpt><trkpt lat="41.0035483" lon="14.3187817"><ele>19.0</ele><time>2026-04-25T13:53:41.157Z</time></trkpt><trkpt lat="41.003475" lon="14.3187717"><ele>19.0</ele><time>2026-04-25T13:53:42.157Z</time></trkpt><trkpt lat="41.0034033" lon="14.31876"><ele>19.0</ele><time>2026-04-25T13:53:43.156Z</time></trkpt><trkpt lat="41.0033333" lon="14.3187483"><ele>19.0</ele><time>2026-04-25T13:53:44.156Z</time></trkpt><trkpt lat="41.0032617" lon="14.3187367"><ele>19.0</ele><time>2026-04-25T13:53:45.156Z</time></trkpt><trkpt lat="41.0031917" lon="14.3187283"><ele>19.0</ele><time>2026-04-25T13:53:46.157Z</time></trkpt><trkpt lat="41.0031183" lon="14.3187183"><ele>19.0</ele><time>2026-04-25T13:53:47.158Z</time></trkpt><trkpt lat="41.003045" lon="14.3187083"><ele>19.0</ele><time>2026-04-25T13:53:48.156Z</time></trkpt><trkpt lat="41.00297" lon="14.3186983"><ele>19.285714285714285</ele><time>2026-04-25T13:53:49.157Z</time></trkpt><trkpt lat="41.0028967" lon="14.3186917"><ele>19.571428571428573</ele><time>2026-04-25T13:53:50.158Z</time></trkpt><trkpt lat="41.0028217" lon="14.3186867"><ele>19.857142857142858</ele><time>2026-04-25T13:53:51.157Z</time></trkpt><trkpt lat="41.0027433" lon="14.3186783"><ele>20.142857142857142</ele><time>2026-04-25T13:53:52.157Z</time></trkpt><trkpt lat="41.0026683" lon="14.3186717"><ele>20.42857142857143</ele><time>2026-04-25T13:53:53.157Z</time></trkpt><trkpt lat="41.0026" lon="14.318665"><ele>20.714285714285715</ele><time>2026-04-25T13:53:54.157Z</time></trkpt><trkpt lat="41.00253" lon="14.3186633"><ele>21.0</ele><time>2026-04-25T13:53:55.155Z</time></trkpt><trkpt lat="41.0024617" lon="14.3186633"><ele>21.0</ele><time>2026-04-25T13:53:56.161Z</time></trkpt><trkpt lat="41.0023917" lon="14.318665"><ele>21.0</ele><time>2026-04-25T13:53:57.158Z</time></trkpt><trkpt lat="41.0023167" lon="14.3186717"><ele>21.0</ele><time>2026-04-25T13:53:58.156Z</time></trkpt><trkpt lat="41.002245" lon="14.3186867"><ele>21.0</ele><time>2026-04-25T13:53:59.158Z</time></trkpt><trkpt lat="41.0021717" lon="14.3187117"><ele>21.0</ele><time>2026-04-25T13:54:00.157Z</time></trkpt><trkpt lat="41.0020983" lon="14.3187417"><ele>21.0</ele><time>2026-04-25T13:54:01.155Z</time></trkpt><trkpt lat="41.002025" lon="14.3187633"><ele>21.0</ele><time>2026-04-25T13:54:02.156Z</time></trkpt><trkpt lat="41.0019467" lon="14.3187717"><ele>21.0</ele><time>2026-04-25T13:54:03.155Z</time></trkpt><trkpt lat="41.0018617" lon="14.3187633"><ele>21.0</ele><time>2026-04-25T13:54:04.155Z</time></trkpt><trkpt lat="41.00179" lon="14.31872"><ele>21.0</ele><time>2026-04-25T13:54:05.155Z</time></trkpt><trkpt lat="41.0017133" lon="14.3186917"><ele>21.0</ele><time>2026-04-25T13:54:06.155Z</time></trkpt><trkpt lat="41.00164" lon="14.3186833"><ele>21.0</ele><time>2026-04-25T13:54:07.157Z</time></trkpt><trkpt lat="41.0015583" lon="14.3186883"><ele>21.0</ele><time>2026-04-25T13:54:08.158Z</time></trkpt><trkpt lat="41.0014817" lon="14.3186833"><ele>21.0</ele><time>2026-04-25T13:54:09.157Z</time></trkpt><trkpt lat="41.0014067" lon="14.318665"><ele>21.0</ele><time>2026-04-25T13:54:10.155Z</time></trkpt><trkpt lat="41.001335" lon="14.3186283"><ele>21.0</ele><time>2026-04-25T13:54:11.157Z</time></trkpt><trkpt lat="41.001265" lon="14.3185867"><ele>21.0</ele><time>2026-04-25T13:54:12.158Z</time></trkpt><trkpt lat="41.0011983" lon="14.3185483"><ele>21.0</ele><time>2026-04-25T13:54:13.158Z</time></trkpt><trkpt lat="41.0011283" lon="14.3185183"><ele>21.0</ele><time>2026-04-25T13:54:14.157Z</time></trkpt><trkpt lat="41.0010533" lon="14.3184983"><ele>21.0</ele><time>2026-04-25T13:54:15.156Z</time></trkpt><trkpt lat="41.000985" lon="14.318485"><ele>21.0</ele><time>2026-04-25T13:54:16.155Z</time></trkpt><trkpt lat="41.0009167" lon="14.3184767"><ele>21.0</ele><time>2026-04-25T13:54:17.155Z</time></trkpt><trkpt lat="41.0008467" lon="14.3184667"><ele>21.0</ele><time>2026-04-25T13:54:18.157Z</time></trkpt><trkpt lat="41.0007783" lon="14.3184583"><ele>21.0</ele><time>2026-04-25T13:54:19.155Z</time></trkpt><trkpt lat="41.0007083" lon="14.3184483"><ele>21.0</ele><time>2026-04-25T13:54:20.155Z</time></trkpt><trkpt lat="41.0006367" lon="14.3184333"><ele>21.0</ele><time>2026-04-25T13:54:21.155Z</time></trkpt><trkpt lat="41.000565" lon="14.3184183"><ele>21.0</ele><time>2026-04-25T13:54:22.156Z</time></trkpt><trkpt lat="41.000495" lon="14.3184083"><ele>21.0</ele><time>2026-04-25T13:54:23.157Z</time></trkpt><trkpt lat="41.0004217" lon="14.3184"><ele>21.0</ele><time>2026-04-25T13:54:24.156Z</time></trkpt><trkpt lat="41.0003467" lon="14.318395"><ele>21.0</ele><time>2026-04-25T13:54:25.155Z</time></trkpt><trkpt lat="41.0002717" lon="14.3183867"><ele>21.0</ele><time>2026-04-25T13:54:26.156Z</time></trkpt><trkpt lat="41.0001933" lon="14.3183783"><ele>21.0</ele><time>2026-04-25T13:54:27.155Z</time></trkpt><trkpt lat="41.000115" lon="14.3183733"><ele>21.0</ele><time>2026-04-25T13:54:28.155Z</time></trkpt><trkpt lat="41.0000333" lon="14.3183633"><ele>21.0</ele><time>2026-04-25T13:54:29.157Z</time></trkpt><trkpt lat="40.999955" lon="14.3183517"><ele>21.0</ele><time>2026-04-25T13:54:30.155Z</time></trkpt><trkpt lat="40.9998767" lon="14.3183417"><ele>21.0</ele><time>2026-04-25T13:54:31.155Z</time></trkpt><trkpt lat="40.9997967" lon="14.3183317"><ele>21.0</ele><time>2026-04-25T13:54:32.155Z</time></trkpt><trkpt lat="40.9997183" lon="14.31832"><ele>21.0</ele><time>2026-04-25T13:54:33.156Z</time></trkpt><trkpt lat="40.9996383" lon="14.3183083"><ele>21.0</ele><time>2026-04-25T13:54:34.155Z</time></trkpt><trkpt lat="40.9995567" lon="14.3182983"><ele>21.0</ele><time>2026-04-25T13:54:35.155Z</time></trkpt><trkpt lat="40.999475" lon="14.3182917"><ele>21.0</ele><time>2026-04-25T13:54:36.155Z</time></trkpt><trkpt lat="40.999395" lon="14.3182883"><ele>21.0</ele><time>2026-04-25T13:54:37.155Z</time></trkpt><trkpt lat="40.9993117" lon="14.3182833"><ele>21.0</ele><time>2026-04-25T13:54:38.156Z</time></trkpt><trkpt lat="40.99923" lon="14.31828"><ele>21.0</ele><time>2026-04-25T13:54:39.156Z</time></trkpt><trkpt lat="40.999145" lon="14.3182717"><ele>21.0</ele><time>2026-04-25T13:54:40.155Z</time></trkpt><trkpt lat="40.99906" lon="14.3182617"><ele>21.0</ele><time>2026-04-25T13:54:41.155Z</time></trkpt><trkpt lat="40.9989767" lon="14.3182583"><ele>21.0</ele><time>2026-04-25T13:54:42.156Z</time></trkpt><trkpt lat="40.99889" lon="14.3182567"><ele>21.0</ele><time>2026-04-25T13:54:43.157Z</time></trkpt><trkpt lat="40.9988017" lon="14.3182483"><ele>21.0</ele><time>2026-04-25T13:54:44.157Z</time></trkpt><trkpt lat="40.9987167" lon="14.3182417"><ele>21.0</ele><time>2026-04-25T13:54:45.156Z</time></trkpt><trkpt lat="40.9986317" lon="14.31822"><ele>21.0</ele><time>2026-04-25T13:54:46.155Z</time></trkpt><trkpt lat="40.9985467" lon="14.3182117"><ele>21.0</ele><time>2026-04-25T13:54:47.157Z</time></trkpt><trkpt lat="40.9984617" lon="14.3182033"><ele>21.0</ele><time>2026-04-25T13:54:48.156Z</time></trkpt><trkpt lat="40.99838" lon="14.318195"><ele>21.0</ele><time>2026-04-25T13:54:49.156Z</time></trkpt><trkpt lat="40.998295" lon="14.318185"><ele>21.0</ele><time>2026-04-25T13:54:50.16Z</time></trkpt><trkpt lat="40.99821" lon="14.3181733"><ele>21.0</ele><time>2026-04-25T13:54:51.157Z</time></trkpt><trkpt lat="40.9981233" lon="14.3181667"><ele>20.833333333333332</ele><time>2026-04-25T13:54:52.155Z</time></trkpt><trkpt lat="40.9980367" lon="14.3181583"><ele>20.666666666666668</ele><time>2026-04-25T13:54:53.158Z</time></trkpt><trkpt lat="40.99795" lon="14.3181467"><ele>20.5</ele><time>2026-04-25T13:54:54.156Z</time></trkpt><trkpt lat="40.997865" lon="14.3181383"><ele>20.333333333333336</ele><time>2026-04-25T13:54:55.155Z</time></trkpt><trkpt lat="40.9977783" lon="14.3181317"><ele>20.166666666666668</ele><time>2026-04-25T13:54:56.156Z</time></trkpt><trkpt lat="40.9976967" lon="14.3181233"><ele>20.0</ele><time>2026-04-25T13:54:57.156Z</time></trkpt><trkpt lat="40.9976117" lon="14.3181133"><ele>20.0</ele><time>2026-04-25T13:54:58.155Z</time></trkpt><trkpt lat="40.9975267" lon="14.318105"><ele>20.0</ele><time>2026-04-25T13:54:59.156Z</time></trkpt><trkpt lat="40.99744" lon="14.318095"><ele>20.0</ele><time>2026-04-25T13:55:00.157Z</time></trkpt><trkpt lat="40.9973533" lon="14.318085"><ele>20.0</ele><time>2026-04-25T13:55:01.155Z</time></trkpt><trkpt lat="40.997265" lon="14.3180767"><ele>20.0</ele><time>2026-04-25T13:55:02.155Z</time></trkpt><trkpt lat="40.9971767" lon="14.3180717"><ele>20.0</ele><time>2026-04-25T13:55:03.157Z</time></trkpt><trkpt lat="40.9970883" lon="14.318065"><ele>20.0</ele><time>2026-04-25T13:55:04.155Z</time></trkpt><trkpt lat="40.9969983" lon="14.3180567"><ele>20.0</ele><time>2026-04-25T13:55:05.156Z</time></trkpt><trkpt lat="40.99691" lon="14.31805"><ele>20.0</ele><time>2026-04-25T13:55:06.155Z</time></trkpt><trkpt lat="40.9968233" lon="14.3180433"><ele>20.0</ele><time>2026-04-25T13:55:07.156Z</time></trkpt><trkpt lat="40.996735" lon="14.3180367"><ele>20.0</ele><time>2026-04-25T13:55:08.158Z</time></trkpt><trkpt lat="40.9966467" lon="14.31803"><ele>20.0</ele><time>2026-04-25T13:55:09.155Z</time></trkpt><trkpt lat="40.9965583" lon="14.318025"><ele>20.0</ele><time>2026-04-25T13:55:10.155Z</time></trkpt><trkpt lat="40.9964717" lon="14.318015"><ele>20.0</ele><time>2026-04-25T13:55:11.156Z</time></trkpt><trkpt lat="40.996385" lon="14.3180067"><ele>20.0</ele><time>2026-04-25T13:55:12.156Z</time></trkpt><trkpt lat="40.9962983" lon="14.317995"><ele>20.0</ele><time>2026-04-25T13:55:13.156Z</time></trkpt><trkpt lat="40.9962133" lon="14.317985"><ele>20.0</ele><time>2026-04-25T13:55:14.157Z</time></trkpt><trkpt lat="40.9961267" lon="14.317975"><ele>20.0</ele><time>2026-04-25T13:55:15.156Z</time></trkpt><trkpt lat="40.9960433" lon="14.3179617"><ele>20.0</ele><time>2026-04-25T13:55:16.155Z</time></trkpt><trkpt lat="40.9959633" lon="14.31795"><ele>20.0</ele><time>2026-04-25T13:55:17.157Z</time></trkpt><trkpt lat="40.99588" lon="14.3179383"><ele>20.0</ele><time>2026-04-25T13:55:18.155Z</time></trkpt><trkpt lat="40.9957933" lon="14.3179283"><ele>20.0</ele><time>2026-04-25T13:55:19.155Z</time></trkpt><trkpt lat="40.9957083" lon="14.31792"><ele>20.0</ele><time>2026-04-25T13:55:20.157Z</time></trkpt><trkpt lat="40.995625" lon="14.3179117"><ele>20.0</ele><time>2026-04-25T13:55:21.156Z</time></trkpt><trkpt lat="40.99554" lon="14.317905"><ele>19.833333333333336</ele><time>2026-04-25T13:55:22.156Z</time></trkpt><trkpt lat="40.9954567" lon="14.317895"><ele>19.666666666666668</ele><time>2026-04-25T13:55:23.155Z</time></trkpt><trkpt lat="40.9953733" lon="14.317885"><ele>19.5</ele><time>2026-04-25T13:55:24.156Z</time></trkpt><trkpt lat="40.9952917" lon="14.3178767"><ele>19.333333333333332</ele><time>2026-04-25T13:55:25.155Z</time></trkpt><trkpt lat="40.99521" lon="14.31787"><ele>19.166666666666664</ele><time>2026-04-25T13:55:26.157Z</time></trkpt><trkpt lat="40.9951267" lon="14.31786"><ele>19.0</ele><time>2026-04-25T13:55:27.155Z</time></trkpt><trkpt lat="40.995045" lon="14.31785"><ele>19.0</ele><time>2026-04-25T13:55:28.156Z</time></trkpt><trkpt lat="40.99496" lon="14.3178433"><ele>19.0</ele><time>2026-04-25T13:55:29.155Z</time></trkpt><trkpt lat="40.994875" lon="14.317835"><ele>19.0</ele><time>2026-04-25T13:55:30.156Z</time></trkpt><trkpt lat="40.9947867" lon="14.3178267"><ele>19.0</ele><time>2026-04-25T13:55:31.156Z</time></trkpt><trkpt lat="40.9947017" lon="14.3178183"><ele>19.0</ele><time>2026-04-25T13:55:32.156Z</time></trkpt><trkpt lat="40.9946167" lon="14.3178117"><ele>19.0</ele><time>2026-04-25T13:55:33.156Z</time></trkpt><trkpt lat="40.9945333" lon="14.3178033"><ele>19.0</ele><time>2026-04-25T13:55:34.155Z</time></trkpt><trkpt lat="40.99445" lon="14.3177933"><ele>19.0</ele><time>2026-04-25T13:55:35.155Z</time></trkpt><trkpt lat="40.9943667" lon="14.3177883"><ele>19.0</ele><time>2026-04-25T13:55:36.157Z</time></trkpt><trkpt lat="40.9942817" lon="14.31778"><ele>19.0</ele><time>2026-04-25T13:55:37.156Z</time></trkpt><trkpt lat="40.9942" lon="14.3177733"><ele>19.0</ele><time>2026-04-25T13:55:38.157Z</time></trkpt><trkpt lat="40.994115" lon="14.3177617"><ele>19.0</ele><time>2026-04-25T13:55:39.155Z</time></trkpt><trkpt lat="40.9940267" lon="14.3177533"><ele>19.0</ele><time>2026-04-25T13:55:40.156Z</time></trkpt><trkpt lat="40.99394" lon="14.3177433"><ele>19.0</ele><time>2026-04-25T13:55:41.156Z</time></trkpt><trkpt lat="40.9938533" lon="14.3177333"><ele>19.0</ele><time>2026-04-25T13:55:42.157Z</time></trkpt><trkpt lat="40.9937667" lon="14.3177217"><ele>19.0</ele><time>2026-04-25T13:55:43.156Z</time></trkpt><trkpt lat="40.9936783" lon="14.3177083"><ele>19.0</ele><time>2026-04-25T13:55:44.156Z</time></trkpt><trkpt lat="40.9935983" lon="14.3176983"><ele>19.0</ele><time>2026-04-25T13:55:45.157Z</time></trkpt><trkpt lat="40.9935183" lon="14.3176883"><ele>19.0</ele><time>2026-04-25T13:55:46.155Z</time></trkpt><trkpt lat="40.99344" lon="14.31768"><ele>19.0</ele><time>2026-04-25T13:55:47.157Z</time></trkpt><trkpt lat="40.99336" lon="14.3176733"><ele>19.0</ele><time>2026-04-25T13:55:48.156Z</time></trkpt><trkpt lat="40.99328" lon="14.31766"><ele>19.0</ele><time>2026-04-25T13:55:49.156Z</time></trkpt><trkpt lat="40.9931967" lon="14.3176467"><ele>19.0</ele><time>2026-04-25T13:55:50.155Z</time></trkpt><trkpt lat="40.99312" lon="14.3176283"><ele>19.0</ele><time>2026-04-25T13:55:51.155Z</time></trkpt><trkpt lat="40.993035" lon="14.31761"><ele>19.0</ele><time>2026-04-25T13:55:52.158Z</time></trkpt><trkpt lat="40.9929533" lon="14.3175833"><ele>19.0</ele><time>2026-04-25T13:55:53.159Z</time></trkpt><trkpt lat="40.9928733" lon="14.31755"><ele>19.0</ele><time>2026-04-25T13:55:54.156Z</time></trkpt><trkpt lat="40.9927933" lon="14.31751"><ele>19.0</ele><time>2026-04-25T13:55:55.156Z</time></trkpt><trkpt lat="40.992715" lon="14.317465"><ele>19.0</ele><time>2026-04-25T13:55:56.157Z</time></trkpt><trkpt lat="40.99264" lon="14.3174133"><ele>19.0</ele><time>2026-04-25T13:55:57.156Z</time></trkpt><trkpt lat="40.9925633" lon="14.3173617"><ele>19.0</ele><time>2026-04-25T13:55:58.157Z</time></trkpt><trkpt lat="40.9924883" lon="14.3173083"><ele>19.0</ele><time>2026-04-25T13:55:59.156Z</time></trkpt><trkpt lat="40.9924183" lon="14.3172467"><ele>19.0</ele><time>2026-04-25T13:56:00.156Z</time></trkpt><trkpt lat="40.9923483" lon="14.3171817"><ele>19.0</ele><time>2026-04-25T13:56:01.156Z</time></trkpt><trkpt lat="40.9922767" lon="14.3171133"><ele>19.0</ele><time>2026-04-25T13:56:02.157Z</time></trkpt><trkpt lat="40.992205" lon="14.317045"><ele>19.0</ele><time>2026-04-25T13:56:03.157Z</time></trkpt><trkpt lat="40.9921333" lon="14.3169783"><ele>19.166666666666664</ele><time>2026-04-25T13:56:04.157Z</time></trkpt><trkpt lat="40.9920617" lon="14.3169117"><ele>19.333333333333332</ele><time>2026-04-25T13:56:05.157Z</time></trkpt><trkpt lat="40.9919917" lon="14.316845"><ele>19.5</ele><time>2026-04-25T13:56:06.159Z</time></trkpt><trkpt lat="40.99192" lon="14.316775"><ele>19.666666666666668</ele><time>2026-04-25T13:56:07.157Z</time></trkpt><trkpt lat="40.9918533" lon="14.3167067"><ele>19.833333333333336</ele><time>2026-04-25T13:56:08.156Z</time></trkpt><trkpt lat="40.9917817" lon="14.316645"><ele>20.0</ele><time>2026-04-25T13:56:09.156Z</time></trkpt><trkpt lat="40.9917117" lon="14.3165817"><ele>20.0</ele><time>2026-04-25T13:56:10.156Z</time></trkpt><trkpt lat="40.991645" lon="14.3165083"><ele>20.0</ele><time>2026-04-25T13:56:11.156Z</time></trkpt><trkpt lat="40.9915817" lon="14.31644"><ele>20.0</ele><time>2026-04-25T13:56:12.156Z</time></trkpt><trkpt lat="40.9915217" lon="14.3163733"><ele>20.0</ele><time>2026-04-25T13:56:13.155Z</time></trkpt><trkpt lat="40.99146" lon="14.31631"><ele>20.0</ele><time>2026-04-25T13:56:14.157Z</time></trkpt><trkpt lat="40.9913967" lon="14.31625"><ele>20.0</ele><time>2026-04-25T13:56:15.155Z</time></trkpt><trkpt lat="40.9913367" lon="14.3161883"><ele>19.857142857142858</ele><time>2026-04-25T13:56:16.157Z</time></trkpt><trkpt lat="40.9912783" lon="14.3161233"><ele>19.714285714285715</ele><time>2026-04-25T13:56:17.157Z</time></trkpt><trkpt lat="40.99122" lon="14.3160667"><ele>19.57142857142857</ele><time>2026-04-25T13:56:18.156Z</time></trkpt><trkpt lat="40.99116" lon="14.3160117"><ele>19.42857142857143</ele><time>2026-04-25T13:56:19.157Z</time></trkpt><trkpt lat="40.9911017" lon="14.3159483"><ele>19.28571428571429</ele><time>2026-04-25T13:56:20.156Z</time></trkpt><trkpt lat="40.991045" lon="14.3158817"><ele>19.142857142857142</ele><time>2026-04-25T13:56:21.156Z</time></trkpt><trkpt lat="40.9909933" lon="14.3158167"><ele>19.0</ele><time>2026-04-25T13:56:22.157Z</time></trkpt><trkpt lat="40.99094" lon="14.3157517"><ele>19.0</ele><time>2026-04-25T13:56:23.156Z</time></trkpt><trkpt lat="40.990885" lon="14.3156867"><ele>19.0</ele><time>2026-04-25T13:56:24.158Z</time></trkpt><trkpt lat="40.9908283" lon="14.31562"><ele>19.0</ele><time>2026-04-25T13:56:25.157Z</time></trkpt><trkpt lat="40.9907767" lon="14.3155417"><ele>19.0</ele><time>2026-04-25T13:56:26.157Z</time></trkpt><trkpt lat="40.990725" lon="14.3154683"><ele>19.0</ele><time>2026-04-25T13:56:27.157Z</time></trkpt><trkpt lat="40.9906667" lon="14.315395"><ele>19.0</ele><time>2026-04-25T13:56:28.155Z</time></trkpt><trkpt lat="40.9906083" lon="14.31532"><ele>19.166666666666664</ele><time>2026-04-25T13:56:29.157Z</time></trkpt><trkpt lat="40.9905467" lon="14.3152467"><ele>19.333333333333332</ele><time>2026-04-25T13:56:30.156Z</time></trkpt><trkpt lat="40.9904817" lon="14.3151767"><ele>19.5</ele><time>2026-04-25T13:56:31.157Z</time></trkpt><trkpt lat="40.9904217" lon="14.3151117"><ele>19.666666666666668</ele><time>2026-04-25T13:56:32.157Z</time></trkpt><trkpt lat="40.990355" lon="14.3150333"><ele>19.833333333333336</ele><time>2026-04-25T13:56:33.156Z</time></trkpt><trkpt lat="40.99029" lon="14.3149517"><ele>20.0</ele><time>2026-04-25T13:56:34.157Z</time></trkpt><trkpt lat="40.990225" lon="14.3148767"><ele>20.0</ele><time>2026-04-25T13:56:35.156Z</time></trkpt><trkpt lat="40.9901617" lon="14.3148117"><ele>20.0</ele><time>2026-04-25T13:56:36.156Z</time></trkpt><trkpt lat="40.9900983" lon="14.3147417"><ele>20.0</ele><time>2026-04-25T13:56:37.157Z</time></trkpt><trkpt lat="40.9900417" lon="14.31468"><ele>20.0</ele><time>2026-04-25T13:56:38.157Z</time></trkpt><trkpt lat="40.9899833" lon="14.3146333"><ele>20.0</ele><time>2026-04-25T13:56:39.156Z</time></trkpt><trkpt lat="40.9899233" lon="14.3145833"><ele>20.0</ele><time>2026-04-25T13:56:40.156Z</time></trkpt><trkpt lat="40.98987" lon="14.314535"><ele>20.0</ele><time>2026-04-25T13:56:41.157Z</time></trkpt><trkpt lat="40.989815" lon="14.3144867"><ele>20.142857142857142</ele><time>2026-04-25T13:56:42.156Z</time></trkpt><trkpt lat="40.9897617" lon="14.3144383"><ele>20.285714285714285</ele><time>2026-04-25T13:56:43.156Z</time></trkpt><trkpt lat="40.9897083" lon="14.3143867"><ele>20.42857142857143</ele><time>2026-04-25T13:56:44.156Z</time></trkpt><trkpt lat="40.989655" lon="14.3143317"><ele>20.57142857142857</ele><time>2026-04-25T13:56:45.157Z</time></trkpt><trkpt lat="40.9896017" lon="14.3142767"><ele>20.714285714285715</ele><time>2026-04-25T13:56:46.155Z</time></trkpt><trkpt lat="40.9895483" lon="14.3142217"><ele>20.857142857142858</ele><time>2026-04-25T13:56:47.156Z</time></trkpt><trkpt lat="40.9894917" lon="14.3141667"><ele>21.0</ele><time>2026-04-25T13:56:48.157Z</time></trkpt><trkpt lat="40.9894333" lon="14.31411"><ele>21.0</ele><time>2026-04-25T13:56:49.156Z</time></trkpt><trkpt lat="40.98938" lon="14.3140567"><ele>21.0</ele><time>2026-04-25T13:56:50.157Z</time></trkpt><trkpt lat="40.9893233" lon="14.3140033"><ele>21.0</ele><time>2026-04-25T13:56:51.156Z</time></trkpt><trkpt lat="40.9892683" lon="14.3139467"><ele>21.0</ele><time>2026-04-25T13:56:52.156Z</time></trkpt><trkpt lat="40.98921" lon="14.3138883"><ele>21.0</ele><time>2026-04-25T13:56:53.156Z</time></trkpt><trkpt lat="40.989155" lon="14.3138317"><ele>21.0</ele><time>2026-04-25T13:56:54.156Z</time></trkpt><trkpt lat="40.9890967" lon="14.3137733"><ele>21.0</ele><time>2026-04-25T13:56:55.157Z</time></trkpt><trkpt lat="40.9890383" lon="14.3137117"><ele>21.0</ele><time>2026-04-25T13:56:56.156Z</time></trkpt><trkpt lat="40.9889817" lon="14.31365"><ele>21.0</ele><time>2026-04-25T13:56:57.158Z</time></trkpt><trkpt lat="40.988925" lon="14.3135933"><ele>21.0</ele><time>2026-04-25T13:56:58.156Z</time></trkpt><trkpt lat="40.98887" lon="14.313535"><ele>21.0</ele><time>2026-04-25T13:56:59.157Z</time></trkpt><trkpt lat="40.988815" lon="14.3134783"><ele>21.0</ele><time>2026-04-25T13:57:00.157Z</time></trkpt><trkpt lat="40.98876" lon="14.31342"><ele>21.0</ele><time>2026-04-25T13:57:01.156Z</time></trkpt><trkpt lat="40.9887067" lon="14.3133633"><ele>21.0</ele><time>2026-04-25T13:57:02.156Z</time></trkpt><trkpt lat="40.9886533" lon="14.3133083"><ele>21.0</ele><time>2026-04-25T13:57:03.156Z</time></trkpt><trkpt lat="40.9885983" lon="14.313255"><ele>21.0</ele><time>2026-04-25T13:57:04.156Z</time></trkpt><trkpt lat="40.9885417" lon="14.3132083"><ele>21.0</ele><time>2026-04-25T13:57:05.156Z</time></trkpt><trkpt lat="40.9884417" lon="14.3131267"><ele>21.0</ele><time>2026-04-25T13:57:07.158Z</time></trkpt><trkpt lat="40.98835" lon="14.3130283"><ele>21.0</ele><time>2026-04-25T13:57:09.156Z</time></trkpt><trkpt lat="40.9882733" lon="14.31293"><ele>20.6</ele><time>2026-04-25T13:57:11.157Z</time></trkpt><trkpt lat="40.9881917" lon="14.3128467"><ele>20.200000000000003</ele><time>2026-04-25T13:57:13.158Z</time></trkpt><trkpt lat="40.9880967" lon="14.3127683"><ele>19.799999999999997</ele><time>2026-04-25T13:57:15.157Z</time></trkpt><trkpt lat="40.9880067" lon="14.3126833"><ele>19.4</ele><time>2026-04-25T13:57:17.156Z</time></trkpt><trkpt lat="40.9879133" lon="14.31259"><ele>19.0</ele><time>2026-04-25T13:57:19.156Z</time></trkpt><trkpt lat="40.9878133" lon="14.3124967"><ele>19.0</ele><time>2026-04-25T13:57:21.157Z</time></trkpt><trkpt lat="40.98776" lon="14.31245"><ele>19.0</ele><time>2026-04-25T13:57:22.156Z</time></trkpt><trkpt lat="40.9877" lon="14.3124017"><ele>19.0</ele><time>2026-04-25T13:57:23.156Z</time></trkpt><trkpt lat="40.987645" lon="14.3123517"><ele>19.0</ele><time>2026-04-25T13:57:24.158Z</time></trkpt><trkpt lat="40.9875883" lon="14.312305"><ele>19.0</ele><time>2026-04-25T13:57:25.156Z</time></trkpt><trkpt lat="40.9875333" lon="14.3122533"><ele>19.0</ele><time>2026-04-25T13:57:26.157Z</time></trkpt><trkpt lat="40.9874783" lon="14.3122"><ele>19.0</ele><time>2026-04-25T13:57:27.157Z</time></trkpt><trkpt lat="40.9874267" lon="14.312145"><ele>19.142857142857142</ele><time>2026-04-25T13:57:28.156Z</time></trkpt><trkpt lat="40.987375" lon="14.3120917"><ele>19.28571428571429</ele><time>2026-04-25T13:57:29.157Z</time></trkpt><trkpt lat="40.9873233" lon="14.31203"><ele>19.42857142857143</ele><time>2026-04-25T13:57:30.156Z</time></trkpt><trkpt lat="40.98727" lon="14.3119683"><ele>19.57142857142857</ele><time>2026-04-25T13:57:31.157Z</time></trkpt><trkpt lat="40.987215" lon="14.3119133"><ele>19.714285714285715</ele><time>2026-04-25T13:57:32.156Z</time></trkpt><trkpt lat="40.9871633" lon="14.3118583"><ele>19.857142857142858</ele><time>2026-04-25T13:57:33.156Z</time></trkpt><trkpt lat="40.9871033" lon="14.3118083"><ele>20.0</ele><time>2026-04-25T13:57:34.157Z</time></trkpt><trkpt lat="40.9870433" lon="14.3117667"><ele>20.0</ele><time>2026-04-25T13:57:35.156Z</time></trkpt><trkpt lat="40.9869817" lon="14.311735"><ele>20.0</ele><time>2026-04-25T13:57:36.156Z</time></trkpt><trkpt lat="40.9869183" lon="14.3117117"><ele>20.0</ele><time>2026-04-25T13:57:37.156Z</time></trkpt><trkpt lat="40.9868533" lon="14.3116967"><ele>20.0</ele><time>2026-04-25T13:57:38.157Z</time></trkpt><trkpt lat="40.9867867" lon="14.311685"><ele>20.0</ele><time>2026-04-25T13:57:39.156Z</time></trkpt><trkpt lat="40.9867217" lon="14.311675"><ele>20.0</ele><time>2026-04-25T13:57:40.157Z</time></trkpt><trkpt lat="40.986655" lon="14.3116683"><ele>20.0</ele><time>2026-04-25T13:57:41.157Z</time></trkpt><trkpt lat="40.9865833" lon="14.31166"><ele>20.0</ele><time>2026-04-25T13:57:42.157Z</time></trkpt><trkpt lat="40.9865133" lon="14.3116467"><ele>20.0</ele><time>2026-04-25T13:57:43.157Z</time></trkpt><trkpt lat="40.9864417" lon="14.3116317"><ele>20.0</ele><time>2026-04-25T13:57:44.156Z</time></trkpt><trkpt lat="40.9863717" lon="14.3116217"><ele>20.0</ele><time>2026-04-25T13:57:45.156Z</time></trkpt><trkpt lat="40.9863017" lon="14.31161"><ele>20.0</ele><time>2026-04-25T13:57:46.155Z</time></trkpt><trkpt lat="40.98623" lon="14.3115967"><ele>20.0</ele><time>2026-04-25T13:57:47.157Z</time></trkpt><trkpt lat="40.9861583" lon="14.311585"><ele>20.0</ele><time>2026-04-25T13:57:48.156Z</time></trkpt><trkpt lat="40.9860883" lon="14.311575"><ele>20.0</ele><time>2026-04-25T13:57:49.156Z</time></trkpt><trkpt lat="40.98602" lon="14.3115617"><ele>20.0</ele><time>2026-04-25T13:57:50.156Z</time></trkpt><trkpt lat="40.9859467" lon="14.31155"><ele>20.0</ele><time>2026-04-25T13:57:51.156Z</time></trkpt><trkpt lat="40.9858733" lon="14.31154"><ele>20.0</ele><time>2026-04-25T13:57:52.156Z</time></trkpt><trkpt lat="40.9857983" lon="14.3115283"><ele>20.0</ele><time>2026-04-25T13:57:53.157Z</time></trkpt><trkpt lat="40.9857267" lon="14.311515"><ele>20.0</ele><time>2026-04-25T13:57:54.157Z</time></trkpt><trkpt lat="40.985655" lon="14.3115"><ele>20.0</ele><time>2026-04-25T13:57:55.157Z</time></trkpt><trkpt lat="40.9855817" lon="14.311485"><ele>20.0</ele><time>2026-04-25T13:57:56.158Z</time></trkpt><trkpt lat="40.9855083" lon="14.3114717"><ele>20.0</ele><time>2026-04-25T13:57:57.157Z</time></trkpt><trkpt lat="40.9854367" lon="14.3114617"><ele>20.0</ele><time>2026-04-25T13:57:58.156Z</time></trkpt><trkpt lat="40.9853683" lon="14.3114583"><ele>20.0</ele><time>2026-04-25T13:57:59.158Z</time></trkpt><trkpt lat="40.9853017" lon="14.3114567"><ele>20.0</ele><time>2026-04-25T13:58:00.157Z</time></trkpt><trkpt lat="40.98523" lon="14.3114583"><ele>20.0</ele><time>2026-04-25T13:58:01.157Z</time></trkpt><trkpt lat="40.9851617" lon="14.3114633"><ele>20.0</ele><time>2026-04-25T13:58:02.156Z</time></trkpt><trkpt lat="40.9850917" lon="14.3114767"><ele>20.0</ele><time>2026-04-25T13:58:03.158Z</time></trkpt><trkpt lat="40.9850183" lon="14.3115"><ele>20.0</ele><time>2026-04-25T13:58:04.157Z</time></trkpt><trkpt lat="40.9849467" lon="14.31153"><ele>20.0</ele><time>2026-04-25T13:58:05.156Z</time></trkpt><trkpt lat="40.9848783" lon="14.3115633"><ele>20.0</ele><time>2026-04-25T13:58:06.157Z</time></trkpt><trkpt lat="40.9848083" lon="14.3115933"><ele>20.0</ele><time>2026-04-25T13:58:07.157Z</time></trkpt><trkpt lat="40.9847383" lon="14.3116233"><ele>20.0</ele><time>2026-04-25T13:58:08.158Z</time></trkpt><trkpt lat="40.9846717" lon="14.311655"><ele>20.0</ele><time>2026-04-25T13:58:09.157Z</time></trkpt><trkpt lat="40.9846017" lon="14.3116917"><ele>20.0</ele><time>2026-04-25T13:58:10.156Z</time></trkpt><trkpt lat="40.984535" lon="14.311725"><ele>20.0</ele><time>2026-04-25T13:58:11.156Z</time></trkpt><trkpt lat="40.9844667" lon="14.31176"><ele>20.0</ele><time>2026-04-25T13:58:12.156Z</time></trkpt><trkpt lat="40.9843967" lon="14.311795"><ele>20.0</ele><time>2026-04-25T13:58:13.156Z</time></trkpt><trkpt lat="40.9843267" lon="14.3118283"><ele>20.0</ele><time>2026-04-25T13:58:14.156Z</time></trkpt><trkpt lat="40.984255" lon="14.3118617"><ele>20.0</ele><time>2026-04-25T13:58:15.156Z</time></trkpt><trkpt lat="40.9841883" lon="14.3118983"><ele>20.0</ele><time>2026-04-25T13:58:16.156Z</time></trkpt><trkpt lat="40.98412" lon="14.311935"><ele>20.0</ele><time>2026-04-25T13:58:17.156Z</time></trkpt><trkpt lat="40.98405" lon="14.31197"><ele>20.0</ele><time>2026-04-25T13:58:18.157Z</time></trkpt><trkpt lat="40.9839833" lon="14.3120033"><ele>20.0</ele><time>2026-04-25T13:58:19.157Z</time></trkpt><trkpt lat="40.9839133" lon="14.3120367"><ele>20.0</ele><time>2026-04-25T13:58:20.158Z</time></trkpt><trkpt lat="40.983845" lon="14.31207"><ele>20.0</ele><time>2026-04-25T13:58:21.157Z</time></trkpt><trkpt lat="40.9837767" lon="14.3121033"><ele>20.0</ele><time>2026-04-25T13:58:22.156Z</time></trkpt><trkpt lat="40.983705" lon="14.3121367"><ele>20.0</ele><time>2026-04-25T13:58:23.157Z</time></trkpt><trkpt lat="40.9836383" lon="14.3121733"><ele>20.0</ele><time>2026-04-25T13:58:24.158Z</time></trkpt><trkpt lat="40.9835717" lon="14.31221"><ele>20.0</ele><time>2026-04-25T13:58:25.157Z</time></trkpt><trkpt lat="40.9835017" lon="14.31224"><ele>20.0</ele><time>2026-04-25T13:58:26.157Z</time></trkpt><trkpt lat="40.9834283" lon="14.3122717"><ele>20.0</ele><time>2026-04-25T13:58:27.156Z</time></trkpt><trkpt lat="40.983355" lon="14.3123033"><ele>20.0</ele><time>2026-04-25T13:58:28.156Z</time></trkpt><trkpt lat="40.983285" lon="14.3123333"><ele>20.0</ele><time>2026-04-25T13:58:29.157Z</time></trkpt><trkpt lat="40.9832167" lon="14.3123583"><ele>20.0</ele><time>2026-04-25T13:58:30.157Z</time></trkpt><trkpt lat="40.9831467" lon="14.3123817"><ele>20.0</ele><time>2026-04-25T13:58:31.156Z</time></trkpt><trkpt lat="40.9830733" lon="14.3124017"><ele>20.0</ele><time>2026-04-25T13:58:32.157Z</time></trkpt><trkpt lat="40.983005" lon="14.3124033"><ele>20.0</ele><time>2026-04-25T13:58:33.156Z</time></trkpt><trkpt lat="40.9829333" lon="14.3124117"><ele>20.0</ele><time>2026-04-25T13:58:34.157Z</time></trkpt><trkpt lat="40.9828633" lon="14.312415"><ele>20.0</ele><time>2026-04-25T13:58:35.157Z</time></trkpt><trkpt lat="40.9827917" lon="14.3124167"><ele>20.0</ele><time>2026-04-25T13:58:36.157Z</time></trkpt><trkpt lat="40.9827217" lon="14.3124167"><ele>20.0</ele><time>2026-04-25T13:58:37.16Z</time></trkpt><trkpt lat="40.9826467" lon="14.3124167"><ele>20.0</ele><time>2026-04-25T13:58:38.158Z</time></trkpt><trkpt lat="40.9825717" lon="14.312415"><ele>20.0</ele><time>2026-04-25T13:58:39.156Z</time></trkpt><trkpt lat="40.9824933" lon="14.3124167"><ele>20.0</ele><time>2026-04-25T13:58:40.156Z</time></trkpt><trkpt lat="40.9824233" lon="14.3124167"><ele>20.0</ele><time>2026-04-25T13:58:41.157Z</time></trkpt><trkpt lat="40.982355" lon="14.3124167"><ele>20.0</ele><time>2026-04-25T13:58:42.156Z</time></trkpt><trkpt lat="40.9822867" lon="14.31242"><ele>20.0</ele><time>2026-04-25T13:58:43.156Z</time></trkpt><trkpt lat="40.9822183" lon="14.3124217"><ele>20.0</ele><time>2026-04-25T13:58:44.157Z</time></trkpt><trkpt lat="40.9821483" lon="14.3124233"><ele>20.0</ele><time>2026-04-25T13:58:45.156Z</time></trkpt><trkpt lat="40.9820767" lon="14.3124233"><ele>20.0</ele><time>2026-04-25T13:58:46.156Z</time></trkpt><trkpt lat="40.982005" lon="14.3124217"><ele>20.0</ele><time>2026-04-25T13:58:47.158Z</time></trkpt><trkpt lat="40.9819317" lon="14.3124217"><ele>20.0</ele><time>2026-04-25T13:58:48.156Z</time></trkpt><trkpt lat="40.9818567" lon="14.3124217"><ele>20.0</ele><time>2026-04-25T13:58:49.158Z</time></trkpt><trkpt lat="40.981785" lon="14.3124217"><ele>20.0</ele><time>2026-04-25T13:58:50.158Z</time></trkpt><trkpt lat="40.9817183" lon="14.3124217"><ele>20.0</ele><time>2026-04-25T13:58:51.158Z</time></trkpt><trkpt lat="40.9816467" lon="14.3124183"><ele>20.142857142857142</ele><time>2026-04-25T13:58:52.156Z</time></trkpt><trkpt lat="40.9815767" lon="14.3124133"><ele>20.285714285714285</ele><time>2026-04-25T13:58:53.157Z</time></trkpt><trkpt lat="40.981505" lon="14.3124"><ele>20.42857142857143</ele><time>2026-04-25T13:58:54.157Z</time></trkpt><trkpt lat="40.9814317" lon="14.3123783"><ele>20.57142857142857</ele><time>2026-04-25T13:58:55.157Z</time></trkpt><trkpt lat="40.9813617" lon="14.3123517"><ele>20.714285714285715</ele><time>2026-04-25T13:58:56.157Z</time></trkpt><trkpt lat="40.9812917" lon="14.3123233"><ele>20.857142857142858</ele><time>2026-04-25T13:58:57.157Z</time></trkpt><trkpt lat="40.9812217" lon="14.312295"><ele>21.0</ele><time>2026-04-25T13:58:58.157Z</time></trkpt><trkpt lat="40.981155" lon="14.312265"><ele>21.0</ele><time>2026-04-25T13:58:59.156Z</time></trkpt><trkpt lat="40.9810883" lon="14.312235"><ele>21.0</ele><time>2026-04-25T13:59:00.157Z</time></trkpt><trkpt lat="40.98102" lon="14.3122017"><ele>21.0</ele><time>2026-04-25T13:59:01.156Z</time></trkpt><trkpt lat="40.9809533" lon="14.3121717"><ele>21.0</ele><time>2026-04-25T13:59:02.156Z</time></trkpt><trkpt lat="40.9808917" lon="14.312135"><ele>21.0</ele><time>2026-04-25T13:59:03.157Z</time></trkpt><trkpt lat="40.980825" lon="14.3121"><ele>21.0</ele><time>2026-04-25T13:59:04.156Z</time></trkpt><trkpt lat="40.9807583" lon="14.3120567"><ele>21.0</ele><time>2026-04-25T13:59:05.156Z</time></trkpt><trkpt lat="40.9806917" lon="14.312025"><ele>21.285714285714285</ele><time>2026-04-25T13:59:06.157Z</time></trkpt><trkpt lat="40.9806283" lon="14.3119883"><ele>21.57142857142857</ele><time>2026-04-25T13:59:07.159Z</time></trkpt><trkpt lat="40.9805617" lon="14.3119467"><ele>21.857142857142858</ele><time>2026-04-25T13:59:08.158Z</time></trkpt><trkpt lat="40.980495" lon="14.3119117"><ele>22.142857142857142</ele><time>2026-04-25T13:59:09.157Z</time></trkpt><trkpt lat="40.9804333" lon="14.3118867"><ele>22.428571428571427</ele><time>2026-04-25T13:59:10.157Z</time></trkpt><trkpt lat="40.9803717" lon="14.3118567"><ele>22.714285714285715</ele><time>2026-04-25T13:59:11.158Z</time></trkpt><trkpt lat="40.98031" lon="14.3118133"><ele>23.0</ele><time>2026-04-25T13:59:12.158Z</time></trkpt><trkpt lat="40.980245" lon="14.31177"><ele>23.0</ele><time>2026-04-25T13:59:13.156Z</time></trkpt><trkpt lat="40.9801833" lon="14.3117183"><ele>23.0</ele><time>2026-04-25T13:59:14.157Z</time></trkpt><trkpt lat="40.9801217" lon="14.3116633"><ele>23.0</ele><time>2026-04-25T13:59:15.156Z</time></trkpt><trkpt lat="40.9800583" lon="14.311615"><ele>23.0</ele><time>2026-04-25T13:59:16.158Z</time></trkpt><trkpt lat="40.9799933" lon="14.3115667"><ele>23.0</ele><time>2026-04-25T13:59:17.157Z</time></trkpt><trkpt lat="40.9799283" lon="14.31152"><ele>23.0</ele><time>2026-04-25T13:59:18.156Z</time></trkpt><trkpt lat="40.9798667" lon="14.3114783"><ele>23.0</ele><time>2026-04-25T13:59:19.157Z</time></trkpt><trkpt lat="40.9798033" lon="14.3114433"><ele>22.714285714285715</ele><time>2026-04-25T13:59:20.156Z</time></trkpt><trkpt lat="40.97974" lon="14.3114033"><ele>22.428571428571427</ele><time>2026-04-25T13:59:21.156Z</time></trkpt><trkpt lat="40.97968" lon="14.3113633"><ele>22.142857142857142</ele><time>2026-04-25T13:59:22.156Z</time></trkpt><trkpt lat="40.9796167" lon="14.311325"><ele>21.857142857142858</ele><time>2026-04-25T13:59:23.156Z</time></trkpt><trkpt lat="40.97955" lon="14.3112883"><ele>21.57142857142857</ele><time>2026-04-25T13:59:24.156Z</time></trkpt><trkpt lat="40.97949" lon="14.311245"><ele>21.285714285714285</ele><time>2026-04-25T13:59:25.156Z</time></trkpt><trkpt lat="40.9794317" lon="14.311195"><ele>21.0</ele><time>2026-04-25T13:59:26.156Z</time></trkpt><trkpt lat="40.9793767" lon="14.3111317"><ele>21.0</ele><time>2026-04-25T13:59:27.157Z</time></trkpt><trkpt lat="40.979315" lon="14.3110867"><ele>21.0</ele><time>2026-04-25T13:59:28.156Z</time></trkpt><trkpt lat="40.9792567" lon="14.31104"><ele>21.0</ele><time>2026-04-25T13:59:29.156Z</time></trkpt><trkpt lat="40.9792017" lon="14.3109883"><ele>21.0</ele><time>2026-04-25T13:59:30.157Z</time></trkpt><trkpt lat="40.9791483" lon="14.3109317"><ele>21.0</ele><time>2026-04-25T13:59:31.157Z</time></trkpt><trkpt lat="40.97909" lon="14.3108667"><ele>21.0</ele><time>2026-04-25T13:59:32.157Z</time></trkpt><trkpt lat="40.9790283" lon="14.3107983"><ele>21.0</ele><time>2026-04-25T13:59:33.157Z</time></trkpt><trkpt lat="40.97897" lon="14.3107433"><ele>21.0</ele><time>2026-04-25T13:59:34.157Z</time></trkpt><trkpt lat="40.9789183" lon="14.3106783"><ele>21.0</ele><time>2026-04-25T13:59:35.158Z</time></trkpt><trkpt lat="40.978865" lon="14.3106133"><ele>21.0</ele><time>2026-04-25T13:59:36.159Z</time></trkpt><trkpt lat="40.978805" lon="14.310555"><ele>21.0</ele><time>2026-04-25T13:59:37.159Z</time></trkpt><trkpt lat="40.978745" lon="14.310495"><ele>21.0</ele><time>2026-04-25T13:59:38.158Z</time></trkpt><trkpt lat="40.9786867" lon="14.3104433"><ele>21.0</ele><time>2026-04-25T13:59:39.157Z</time></trkpt><trkpt lat="40.9786333" lon="14.3103433"><ele>20.857142857142858</ele><time>2026-04-25T13:59:40.156Z</time></trkpt><trkpt lat="40.97857" lon="14.3102917"><ele>20.714285714285715</ele><time>2026-04-25T13:59:41.159Z</time></trkpt><trkpt lat="40.97852" lon="14.31022"><ele>20.57142857142857</ele><time>2026-04-25T13:59:42.158Z</time></trkpt><trkpt lat="40.9784633" lon="14.3101583"><ele>20.42857142857143</ele><time>2026-04-25T13:59:43.158Z</time></trkpt><trkpt lat="40.97841" lon="14.3100983"><ele>20.285714285714285</ele><time>2026-04-25T13:59:44.158Z</time></trkpt><trkpt lat="40.9783567" lon="14.3100383"><ele>20.142857142857142</ele><time>2026-04-25T13:59:45.156Z</time></trkpt><trkpt lat="40.9783" lon="14.309985"><ele>20.0</ele><time>2026-04-25T13:59:46.157Z</time></trkpt><trkpt lat="40.9782433" lon="14.30993"><ele>20.0</ele><time>2026-04-25T13:59:47.157Z</time></trkpt><trkpt lat="40.9781883" lon="14.3098667"><ele>20.0</ele><time>2026-04-25T13:59:48.156Z</time></trkpt><trkpt lat="40.97813" lon="14.3098067"><ele>20.0</ele><time>2026-04-25T13:59:49.158Z</time></trkpt><trkpt lat="40.9780683" lon="14.309735"><ele>20.0</ele><time>2026-04-25T13:59:50.158Z</time></trkpt><trkpt lat="40.978005" lon="14.309665"><ele>20.0</ele><time>2026-04-25T13:59:51.157Z</time></trkpt><trkpt lat="40.9779417" lon="14.3095883"><ele>20.0</ele><time>2026-04-25T13:59:52.157Z</time></trkpt><trkpt lat="40.9778783" lon="14.30951"><ele>20.0</ele><time>2026-04-25T13:59:53.157Z</time></trkpt><trkpt lat="40.9778167" lon="14.30943"><ele>20.0</ele><time>2026-04-25T13:59:54.158Z</time></trkpt><trkpt lat="40.977755" lon="14.3093433"><ele>20.0</ele><time>2026-04-25T13:59:55.157Z</time></trkpt><trkpt lat="40.977695" lon="14.3092617"><ele>20.0</ele><time>2026-04-25T13:59:56.159Z</time></trkpt><trkpt lat="40.97763" lon="14.3091883"><ele>20.0</ele><time>2026-04-25T13:59:57.156Z</time></trkpt><trkpt lat="40.9775617" lon="14.3091233"><ele>20.0</ele><time>2026-04-25T13:59:58.156Z</time></trkpt><trkpt lat="40.9774917" lon="14.3090633"><ele>20.0</ele><time>2026-04-25T13:59:59.157Z</time></trkpt><trkpt lat="40.9774217" lon="14.309015"><ele>20.0</ele><time>2026-04-25T14:00:00.162Z</time></trkpt><trkpt lat="40.9773533" lon="14.30897"><ele>20.0</ele><time>2026-04-25T14:00:01.159Z</time></trkpt><trkpt lat="40.97729" lon="14.3089083"><ele>20.0</ele><time>2026-04-25T14:00:02.156Z</time></trkpt><trkpt lat="40.9772133" lon="14.3088967"><ele>20.0</ele><time>2026-04-25T14:00:03.156Z</time></trkpt><trkpt lat="40.9771367" lon="14.3088967"><ele>20.0</ele><time>2026-04-25T14:00:04.157Z</time></trkpt><trkpt lat="40.9770583" lon="14.3089067"><ele>20.0</ele><time>2026-04-25T14:00:05.156Z</time></trkpt><trkpt lat="40.9769833" lon="14.308925"><ele>20.0</ele><time>2026-04-25T14:00:06.157Z</time></trkpt><trkpt lat="40.9769083" lon="14.3089533"><ele>20.0</ele><time>2026-04-25T14:00:07.158Z</time></trkpt><trkpt lat="40.9768367" lon="14.3089817"><ele>20.0</ele><time>2026-04-25T14:00:08.156Z</time></trkpt><trkpt lat="40.976765" lon="14.3090167"><ele>20.0</ele><time>2026-04-25T14:00:09.157Z</time></trkpt><trkpt lat="40.9766917" lon="14.309055"><ele>20.0</ele><time>2026-04-25T14:00:10.156Z</time></trkpt><trkpt lat="40.976615" lon="14.309095"><ele>20.333333333333336</ele><time>2026-04-25T14:00:11.157Z</time></trkpt><trkpt lat="40.9765433" lon="14.309135"><ele>20.666666666666668</ele><time>2026-04-25T14:00:12.156Z</time></trkpt><trkpt lat="40.976475" lon="14.309175"><ele>21.0</ele><time>2026-04-25T14:00:13.157Z</time></trkpt><trkpt lat="40.9764067" lon="14.3092167"><ele>21.333333333333332</ele><time>2026-04-25T14:00:14.158Z</time></trkpt><trkpt lat="40.9763383" lon="14.309255"><ele>21.666666666666664</ele><time>2026-04-25T14:00:15.156Z</time></trkpt><trkpt lat="40.9762667" lon="14.3092917"><ele>22.0</ele><time>2026-04-25T14:00:16.157Z</time></trkpt><trkpt lat="40.9761983" lon="14.30933"><ele>22.0</ele><time>2026-04-25T14:00:17.156Z</time></trkpt><trkpt lat="40.9761317" lon="14.3093733"><ele>22.0</ele><time>2026-04-25T14:00:18.156Z</time></trkpt><trkpt lat="40.97607" lon="14.3094233"><ele>22.0</ele><time>2026-04-25T14:00:19.158Z</time></trkpt><trkpt lat="40.9760017" lon="14.3094667"><ele>22.0</ele><time>2026-04-25T14:00:20.159Z</time></trkpt><trkpt lat="40.97593" lon="14.3095083"><ele>22.0</ele><time>2026-04-25T14:00:21.157Z</time></trkpt><trkpt lat="40.9758533" lon="14.3095483"><ele>22.0</ele><time>2026-04-25T14:00:22.156Z</time></trkpt><trkpt lat="40.975775" lon="14.30959"><ele>22.0</ele><time>2026-04-25T14:00:23.157Z</time></trkpt><trkpt lat="40.9756967" lon="14.3096267"><ele>22.0</ele><time>2026-04-25T14:00:24.156Z</time></trkpt><trkpt lat="40.9756167" lon="14.30966"><ele>22.0</ele><time>2026-04-25T14:00:25.157Z</time></trkpt><trkpt lat="40.9755383" lon="14.30969"><ele>22.0</ele><time>2026-04-25T14:00:26.158Z</time></trkpt><trkpt lat="40.97546" lon="14.3097117"><ele>22.0</ele><time>2026-04-25T14:00:27.158Z</time></trkpt><trkpt lat="40.975385" lon="14.3097317"><ele>22.0</ele><time>2026-04-25T14:00:28.156Z</time></trkpt><trkpt lat="40.9753033" lon="14.3097433"><ele>22.0</ele><time>2026-04-25T14:00:29.156Z</time></trkpt><trkpt lat="40.9752167" lon="14.3097483"><ele>22.0</ele><time>2026-04-25T14:00:30.159Z</time></trkpt><trkpt lat="40.975135" lon="14.3097517"><ele>22.0</ele><time>2026-04-25T14:00:31.157Z</time></trkpt><trkpt lat="40.9750533" lon="14.309755"><ele>22.0</ele><time>2026-04-25T14:00:32.158Z</time></trkpt><trkpt lat="40.9749717" lon="14.30976"><ele>22.0</ele><time>2026-04-25T14:00:33.156Z</time></trkpt><trkpt lat="40.97489" lon="14.3097617"><ele>22.0</ele><time>2026-04-25T14:00:34.156Z</time></trkpt><trkpt lat="40.97481" lon="14.3097667"><ele>22.0</ele><time>2026-04-25T14:00:35.155Z</time></trkpt><trkpt lat="40.9747317" lon="14.309775"><ele>22.0</ele><time>2026-04-25T14:00:36.156Z</time></trkpt><trkpt lat="40.9746517" lon="14.30978"><ele>22.0</ele><time>2026-04-25T14:00:37.157Z</time></trkpt><trkpt lat="40.97457" lon="14.3097817"><ele>22.0</ele><time>2026-04-25T14:00:38.156Z</time></trkpt><trkpt lat="40.9744883" lon="14.3097867"><ele>22.0</ele><time>2026-04-25T14:00:39.157Z</time></trkpt><trkpt lat="40.974405" lon="14.30979"><ele>22.0</ele><time>2026-04-25T14:00:40.155Z</time></trkpt><trkpt lat="40.97432" lon="14.3097933"><ele>22.0</ele><time>2026-04-25T14:00:41.157Z</time></trkpt><trkpt lat="40.9742383" lon="14.309795"><ele>22.0</ele><time>2026-04-25T14:00:42.157Z</time></trkpt><trkpt lat="40.97416" lon="14.3097933"><ele>22.0</ele><time>2026-04-25T14:00:43.156Z</time></trkpt><trkpt lat="40.974085" lon="14.309795"><ele>22.0</ele><time>2026-04-25T14:00:44.156Z</time></trkpt><trkpt lat="40.9740067" lon="14.3097967"><ele>22.0</ele><time>2026-04-25T14:00:45.157Z</time></trkpt><trkpt lat="40.9739233" lon="14.3097967"><ele>22.0</ele><time>2026-04-25T14:00:46.155Z</time></trkpt><trkpt lat="40.9738367" lon="14.3097917"><ele>22.0</ele><time>2026-04-25T14:00:47.156Z</time></trkpt><trkpt lat="40.973755" lon="14.30979"><ele>22.0</ele><time>2026-04-25T14:00:48.156Z</time></trkpt><trkpt lat="40.9736767" lon="14.30979"><ele>22.0</ele><time>2026-04-25T14:00:49.157Z</time></trkpt><trkpt lat="40.9736017" lon="14.3097817"><ele>22.0</ele><time>2026-04-25T14:00:50.156Z</time></trkpt><trkpt lat="40.9735233" lon="14.309765"><ele>22.0</ele><time>2026-04-25T14:00:51.156Z</time></trkpt><trkpt lat="40.973435" lon="14.30974"><ele>22.0</ele><time>2026-04-25T14:00:52.157Z</time></trkpt><trkpt lat="40.9733467" lon="14.309715"><ele>22.0</ele><time>2026-04-25T14:00:53.157Z</time></trkpt><trkpt lat="40.9732683" lon="14.3096933"><ele>22.0</ele><time>2026-04-25T14:00:54.156Z</time></trkpt><trkpt lat="40.9731867" lon="14.309665"><ele>22.0</ele><time>2026-04-25T14:00:55.156Z</time></trkpt><trkpt lat="40.973115" lon="14.309645"><ele>22.0</ele><time>2026-04-25T14:00:56.155Z</time></trkpt><trkpt lat="40.9730467" lon="14.3096067"><ele>22.0</ele><time>2026-04-25T14:00:57.156Z</time></trkpt><trkpt lat="40.9729767" lon="14.309575"><ele>22.0</ele><time>2026-04-25T14:00:58.157Z</time></trkpt><trkpt lat="40.9729067" lon="14.3095383"><ele>22.0</ele><time>2026-04-25T14:00:59.157Z</time></trkpt><trkpt lat="40.972835" lon="14.3095117"><ele>22.0</ele><time>2026-04-25T14:01:00.156Z</time></trkpt><trkpt lat="40.9727567" lon="14.3094817"><ele>22.0</ele><time>2026-04-25T14:01:01.157Z</time></trkpt><trkpt lat="40.972685" lon="14.3094483"><ele>22.0</ele><time>2026-04-25T14:01:02.155Z</time></trkpt><trkpt lat="40.97262" lon="14.3094167"><ele>22.0</ele><time>2026-04-25T14:01:03.155Z</time></trkpt><trkpt lat="40.9725467" lon="14.3093883"><ele>22.0</ele><time>2026-04-25T14:01:04.155Z</time></trkpt><trkpt lat="40.9724683" lon="14.3093583"><ele>22.166666666666664</ele><time>2026-04-25T14:01:05.156Z</time></trkpt><trkpt lat="40.97239" lon="14.3093267"><ele>22.333333333333332</ele><time>2026-04-25T14:01:06.156Z</time></trkpt><trkpt lat="40.9723133" lon="14.3092983"><ele>22.5</ele><time>2026-04-25T14:01:07.157Z</time></trkpt><trkpt lat="40.9722383" lon="14.3092683"><ele>22.666666666666668</ele><time>2026-04-25T14:01:08.156Z</time></trkpt><trkpt lat="40.9721583" lon="14.3092367"><ele>22.833333333333336</ele><time>2026-04-25T14:01:09.155Z</time></trkpt><trkpt lat="40.97208" lon="14.3092067"><ele>23.0</ele><time>2026-04-25T14:01:10.155Z</time></trkpt><trkpt lat="40.9719983" lon="14.3091783"><ele>23.0</ele><time>2026-04-25T14:01:11.156Z</time></trkpt><trkpt lat="40.9719167" lon="14.30915"><ele>23.0</ele><time>2026-04-25T14:01:12.157Z</time></trkpt><trkpt lat="40.9718367" lon="14.3091117"><ele>23.0</ele><time>2026-04-25T14:01:13.157Z</time></trkpt><trkpt lat="40.9717567" lon="14.3090783"><ele>23.0</ele><time>2026-04-25T14:01:14.156Z</time></trkpt><trkpt lat="40.97168" lon="14.3090317"><ele>23.0</ele><time>2026-04-25T14:01:15.156Z</time></trkpt><trkpt lat="40.9716" lon="14.30899"><ele>23.0</ele><time>2026-04-25T14:01:16.156Z</time></trkpt><trkpt lat="40.9715217" lon="14.308945"><ele>23.166666666666668</ele><time>2026-04-25T14:01:17.156Z</time></trkpt><trkpt lat="40.9714483" lon="14.3088917"><ele>23.333333333333336</ele><time>2026-04-25T14:01:18.157Z</time></trkpt><trkpt lat="40.9713817" lon="14.3088533"><ele>23.5</ele><time>2026-04-25T14:01:19.156Z</time></trkpt><trkpt lat="40.9713167" lon="14.3088067"><ele>23.666666666666668</ele><time>2026-04-25T14:01:20.156Z</time></trkpt><trkpt lat="40.97125" lon="14.3087583"><ele>23.833333333333332</ele><time>2026-04-25T14:01:21.155Z</time></trkpt><trkpt lat="40.9711833" lon="14.308715"><ele>24.0</ele><time>2026-04-25T14:01:22.156Z</time></trkpt><trkpt lat="40.9711133" lon="14.3086733"><ele>24.0</ele><time>2026-04-25T14:01:23.155Z</time></trkpt><trkpt lat="40.9710417" lon="14.30862"><ele>24.0</ele><time>2026-04-25T14:01:24.156Z</time></trkpt><trkpt lat="40.9709733" lon="14.3085783"><ele>24.0</ele><time>2026-04-25T14:01:25.156Z</time></trkpt><trkpt lat="40.970905" lon="14.308535"><ele>24.0</ele><time>2026-04-25T14:01:26.157Z</time></trkpt><trkpt lat="40.970835" lon="14.308495"><ele>24.0</ele><time>2026-04-25T14:01:27.156Z</time></trkpt><trkpt lat="40.970765" lon="14.3084633"><ele>24.0</ele><time>2026-04-25T14:01:28.156Z</time></trkpt><trkpt lat="40.9706867" lon="14.308425"><ele>23.833333333333332</ele><time>2026-04-25T14:01:29.155Z</time></trkpt><trkpt lat="40.9706117" lon="14.30839"><ele>23.666666666666668</ele><time>2026-04-25T14:01:30.156Z</time></trkpt><trkpt lat="40.9705367" lon="14.308355"><ele>23.5</ele><time>2026-04-25T14:01:31.156Z</time></trkpt><trkpt lat="40.97046" lon="14.3083433"><ele>23.333333333333336</ele><time>2026-04-25T14:01:32.156Z</time></trkpt><trkpt lat="40.9703833" lon="14.3083383"><ele>23.166666666666668</ele><time>2026-04-25T14:01:33.157Z</time></trkpt><trkpt lat="40.97031" lon="14.3083267"><ele>23.0</ele><time>2026-04-25T14:01:34.156Z</time></trkpt><trkpt lat="40.9702317" lon="14.3083117"><ele>23.0</ele><time>2026-04-25T14:01:35.155Z</time></trkpt><trkpt lat="40.9701583" lon="14.3083067"><ele>23.0</ele><time>2026-04-25T14:01:36.157Z</time></trkpt><trkpt lat="40.970085" lon="14.308305"><ele>23.0</ele><time>2026-04-25T14:01:37.156Z</time></trkpt><trkpt lat="40.9700067" lon="14.3082983"><ele>23.0</ele><time>2026-04-25T14:01:38.156Z</time></trkpt><trkpt lat="40.969935" lon="14.30829"><ele>23.0</ele><time>2026-04-25T14:01:39.155Z</time></trkpt><trkpt lat="40.96986" lon="14.3082783"><ele>23.0</ele><time>2026-04-25T14:01:40.155Z</time></trkpt><trkpt lat="40.9697833" lon="14.3082633"><ele>23.166666666666668</ele><time>2026-04-25T14:01:41.157Z</time></trkpt><trkpt lat="40.9697033" lon="14.3082567"><ele>23.333333333333336</ele><time>2026-04-25T14:01:42.156Z</time></trkpt><trkpt lat="40.9696217" lon="14.3082533"><ele>23.5</ele><time>2026-04-25T14:01:43.156Z</time></trkpt><trkpt lat="40.96954" lon="14.3082483"><ele>23.666666666666668</ele><time>2026-04-25T14:01:44.156Z</time></trkpt><trkpt lat="40.9694567" lon="14.3082433"><ele>23.833333333333332</ele><time>2026-04-25T14:01:45.156Z</time></trkpt><trkpt lat="40.9693667" lon="14.3082333"><ele>24.0</ele><time>2026-04-25T14:01:46.155Z</time></trkpt><trkpt lat="40.9692767" lon="14.3082233"><ele>24.166666666666668</ele><time>2026-04-25T14:01:47.156Z</time></trkpt><trkpt lat="40.96919" lon="14.3082167"><ele>24.333333333333336</ele><time>2026-04-25T14:01:48.156Z</time></trkpt><trkpt lat="40.9691033" lon="14.3082117"><ele>24.5</ele><time>2026-04-25T14:01:49.156Z</time></trkpt><trkpt lat="40.9690183" lon="14.3082067"><ele>24.666666666666668</ele><time>2026-04-25T14:01:50.157Z</time></trkpt><trkpt lat="40.9689317" lon="14.3081983"><ele>24.833333333333336</ele><time>2026-04-25T14:01:51.159Z</time></trkpt><trkpt lat="40.9688433" lon="14.308185"><ele>25.0</ele><time>2026-04-25T14:01:52.157Z</time></trkpt><trkpt lat="40.9687567" lon="14.30817"><ele>25.000000000000004</ele><time>2026-04-25T14:01:53.156Z</time></trkpt><trkpt lat="40.96867" lon="14.3081483"><ele>25.0</ele><time>2026-04-25T14:01:54.156Z</time></trkpt><trkpt lat="40.9685917" lon="14.308125"><ele>25.0</ele><time>2026-04-25T14:01:55.156Z</time></trkpt><trkpt lat="40.968515" lon="14.3081017"><ele>25.0</ele><time>2026-04-25T14:01:56.157Z</time></trkpt><trkpt lat="40.9684467" lon="14.308075"><ele>25.000000000000004</ele><time>2026-04-25T14:01:57.156Z</time></trkpt><trkpt lat="40.9683717" lon="14.30805"><ele>25.0</ele><time>2026-04-25T14:01:58.156Z</time></trkpt><trkpt lat="40.9683017" lon="14.3080217"><ele>25.166666666666668</ele><time>2026-04-25T14:01:59.157Z</time></trkpt><trkpt lat="40.9682283" lon="14.307995"><ele>25.333333333333336</ele><time>2026-04-25T14:02:00.156Z</time></trkpt><trkpt lat="40.9681567" lon="14.3079633"><ele>25.5</ele><time>2026-04-25T14:02:01.157Z</time></trkpt><trkpt lat="40.9680833" lon="14.3079333"><ele>25.666666666666664</ele><time>2026-04-25T14:02:02.156Z</time></trkpt><trkpt lat="40.9680033" lon="14.3078967"><ele>25.833333333333332</ele><time>2026-04-25T14:02:03.156Z</time></trkpt><trkpt lat="40.9679233" lon="14.30786"><ele>26.0</ele><time>2026-04-25T14:02:04.155Z</time></trkpt><trkpt lat="40.9678417" lon="14.3078183"><ele>25.999999999999996</ele><time>2026-04-25T14:02:05.156Z</time></trkpt><trkpt lat="40.9677617" lon="14.3077683"><ele>26.0</ele><time>2026-04-25T14:02:06.156Z</time></trkpt><trkpt lat="40.967675" lon="14.3077217"><ele>26.0</ele><time>2026-04-25T14:02:07.157Z</time></trkpt><trkpt lat="40.967595" lon="14.307675"><ele>26.0</ele><time>2026-04-25T14:02:08.157Z</time></trkpt><trkpt lat="40.967515" lon="14.3076317"><ele>25.999999999999996</ele><time>2026-04-25T14:02:09.155Z</time></trkpt><trkpt lat="40.96743" lon="14.307595"><ele>26.0</ele><time>2026-04-25T14:02:10.155Z</time></trkpt><trkpt lat="40.96734" lon="14.3075583"><ele>25.6</ele><time>2026-04-25T14:02:11.155Z</time></trkpt><trkpt lat="40.9672467" lon="14.3075183"><ele>25.200000000000003</ele><time>2026-04-25T14:02:12.156Z</time></trkpt><trkpt lat="40.9671567" lon="14.3074767"><ele>24.799999999999997</ele><time>2026-04-25T14:02:13.155Z</time></trkpt><trkpt lat="40.967065" lon="14.307435"><ele>24.4</ele><time>2026-04-25T14:02:14.156Z</time></trkpt><trkpt lat="40.96697" lon="14.3073967"><ele>24.0</ele><time>2026-04-25T14:02:15.155Z</time></trkpt><trkpt lat="40.9668733" lon="14.307355"><ele>24.0</ele><time>2026-04-25T14:02:16.155Z</time></trkpt><trkpt lat="40.9667783" lon="14.3073117"><ele>24.0</ele><time>2026-04-25T14:02:17.156Z</time></trkpt><trkpt lat="40.96669" lon="14.3072683"><ele>24.0</ele><time>2026-04-25T14:02:18.156Z</time></trkpt><trkpt lat="40.966605" lon="14.3072267"><ele>24.0</ele><time>2026-04-25T14:02:19.155Z</time></trkpt><trkpt lat="40.9665183" lon="14.3071833"><ele>24.0</ele><time>2026-04-25T14:02:20.156Z</time></trkpt><trkpt lat="40.9664333" lon="14.3071417"><ele>24.166666666666668</ele><time>2026-04-25T14:02:21.157Z</time></trkpt><trkpt lat="40.9663517" lon="14.3070967"><ele>24.333333333333336</ele><time>2026-04-25T14:02:22.156Z</time></trkpt><trkpt lat="40.9662717" lon="14.3070533"><ele>24.5</ele><time>2026-04-25T14:02:23.156Z</time></trkpt><trkpt lat="40.9661933" lon="14.3070117"><ele>24.666666666666668</ele><time>2026-04-25T14:02:24.157Z</time></trkpt><trkpt lat="40.9661167" lon="14.3069733"><ele>24.833333333333336</ele><time>2026-04-25T14:02:25.155Z</time></trkpt><trkpt lat="40.9660383" lon="14.30693"><ele>25.0</ele><time>2026-04-25T14:02:26.157Z</time></trkpt><trkpt lat="40.9659533" lon="14.3068983"><ele>25.000000000000004</ele><time>2026-04-25T14:02:27.155Z</time></trkpt><trkpt lat="40.9658733" lon="14.3068717"><ele>25.0</ele><time>2026-04-25T14:02:28.155Z</time></trkpt><trkpt lat="40.96579" lon="14.3068517"><ele>25.0</ele><time>2026-04-25T14:02:29.157Z</time></trkpt><trkpt lat="40.9657083" lon="14.3068367"><ele>25.0</ele><time>2026-04-25T14:02:30.156Z</time></trkpt><trkpt lat="40.96563" lon="14.306825"><ele>25.000000000000004</ele><time>2026-04-25T14:02:31.155Z</time></trkpt><trkpt lat="40.9655517" lon="14.3068333"><ele>25.0</ele><time>2026-04-25T14:02:32.157Z</time></trkpt><trkpt lat="40.965475" lon="14.3068433"><ele>25.000000000000004</ele><time>2026-04-25T14:02:33.155Z</time></trkpt><trkpt lat="40.9654" lon="14.30686"><ele>25.0</ele><time>2026-04-25T14:02:34.156Z</time></trkpt><trkpt lat="40.965325" lon="14.3068817"><ele>25.0</ele><time>2026-04-25T14:02:35.156Z</time></trkpt><trkpt lat="40.9652467" lon="14.3069"><ele>25.0</ele><time>2026-04-25T14:02:36.156Z</time></trkpt><trkpt lat="40.9651767" lon="14.3069167"><ele>25.000000000000004</ele><time>2026-04-25T14:02:37.156Z</time></trkpt><trkpt lat="40.965105" lon="14.3069333"><ele>25.0</ele><time>2026-04-25T14:02:38.157Z</time></trkpt><trkpt lat="40.9650283" lon="14.3069467"><ele>25.000000000000004</ele><time>2026-04-25T14:02:39.156Z</time></trkpt><trkpt lat="40.9649533" lon="14.3069683"><ele>25.0</ele><time>2026-04-25T14:02:40.156Z</time></trkpt><trkpt lat="40.9648767" lon="14.3069883"><ele>25.0</ele><time>2026-04-25T14:02:41.155Z</time></trkpt><trkpt lat="40.9648017" lon="14.3070067"><ele>25.0</ele><time>2026-04-25T14:02:42.156Z</time></trkpt><trkpt lat="40.96473" lon="14.3070317"><ele>25.000000000000004</ele><time>2026-04-25T14:02:43.156Z</time></trkpt><trkpt lat="40.9646617" lon="14.3070467"><ele>25.0</ele><time>2026-04-25T14:02:44.156Z</time></trkpt><trkpt lat="40.96458" lon="14.3070567"><ele>25.000000000000004</ele><time>2026-04-25T14:02:46.156Z</time></trkpt><trkpt lat="40.964515" lon="14.3070417"><ele>25.0</ele><time>2026-04-25T14:02:49.158Z</time></trkpt><trkpt lat="40.9644283" lon="14.30706"><ele>25.0</ele><time>2026-04-25T14:02:52.157Z</time></trkpt><trkpt lat="40.96436" lon="14.3070683"><ele>25.0</ele><time>2026-04-25T14:02:54.157Z</time></trkpt><trkpt lat="40.9642767" lon="14.3070767"><ele>25.000000000000004</ele><time>2026-04-25T14:02:56.156Z</time></trkpt><trkpt lat="40.9641733" lon="14.3070817"><ele>25.0</ele><time>2026-04-25T14:02:58.157Z</time></trkpt><trkpt lat="40.9640567" lon="14.3070917"><ele>24.666666666666668</ele><time>2026-04-25T14:03:00.157Z</time></trkpt><trkpt lat="40.9639317" lon="14.3071083"><ele>24.333333333333336</ele><time>2026-04-25T14:03:02.157Z</time></trkpt><trkpt lat="40.9638633" lon="14.3071167"><ele>24.0</ele><time>2026-04-25T14:03:03.157Z</time></trkpt><trkpt lat="40.9637933" lon="14.3071283"><ele>23.666666666666668</ele><time>2026-04-25T14:03:04.156Z</time></trkpt><trkpt lat="40.9637233" lon="14.3071383"><ele>23.333333333333336</ele><time>2026-04-25T14:03:05.156Z</time></trkpt><trkpt lat="40.963655" lon="14.3071467"><ele>23.0</ele><time>2026-04-25T14:03:06.157Z</time></trkpt><trkpt lat="40.9635833" lon="14.3071533"><ele>23.0</ele><time>2026-04-25T14:03:07.156Z</time></trkpt><trkpt lat="40.9635083" lon="14.3071633"><ele>23.0</ele><time>2026-04-25T14:03:08.157Z</time></trkpt><trkpt lat="40.9634283" lon="14.3071717"><ele>23.0</ele><time>2026-04-25T14:03:09.156Z</time></trkpt><trkpt lat="40.9633467" lon="14.3071833"><ele>23.0</ele><time>2026-04-25T14:03:10.156Z</time></trkpt><trkpt lat="40.963265" lon="14.3071883"><ele>23.0</ele><time>2026-04-25T14:03:11.155Z</time></trkpt><trkpt lat="40.96318" lon="14.3071917"><ele>23.0</ele><time>2026-04-25T14:03:12.157Z</time></trkpt><trkpt lat="40.9630917" lon="14.307195"><ele>23.333333333333336</ele><time>2026-04-25T14:03:13.157Z</time></trkpt><trkpt lat="40.963005" lon="14.3072033"><ele>23.666666666666668</ele><time>2026-04-25T14:03:14.157Z</time></trkpt><trkpt lat="40.96292" lon="14.307215"><ele>24.0</ele><time>2026-04-25T14:03:15.157Z</time></trkpt><trkpt lat="40.9628367" lon="14.3072267"><ele>24.333333333333336</ele><time>2026-04-25T14:03:16.155Z</time></trkpt><trkpt lat="40.9627533" lon="14.3072317"><ele>24.666666666666668</ele><time>2026-04-25T14:03:17.156Z</time></trkpt><trkpt lat="40.9626783" lon="14.3072383"><ele>25.0</ele><time>2026-04-25T14:03:18.157Z</time></trkpt><trkpt lat="40.9626017" lon="14.307245"><ele>25.333333333333336</ele><time>2026-04-25T14:03:19.157Z</time></trkpt><trkpt lat="40.9625233" lon="14.3072517"><ele>25.666666666666668</ele><time>2026-04-25T14:03:20.156Z</time></trkpt><trkpt lat="40.9624483" lon="14.3072633"><ele>26.0</ele><time>2026-04-25T14:03:21.155Z</time></trkpt><trkpt lat="40.96237" lon="14.3072683"><ele>26.333333333333336</ele><time>2026-04-25T14:03:22.156Z</time></trkpt><trkpt lat="40.96229" lon="14.307275"><ele>26.666666666666668</ele><time>2026-04-25T14:03:23.156Z</time></trkpt><trkpt lat="40.96221" lon="14.3072767"><ele>27.0</ele><time>2026-04-25T14:03:24.156Z</time></trkpt><trkpt lat="40.96213" lon="14.3072833"><ele>27.0</ele><time>2026-04-25T14:03:25.157Z</time></trkpt><trkpt lat="40.9620483" lon="14.3072917"><ele>27.0</ele><time>2026-04-25T14:03:26.157Z</time></trkpt><trkpt lat="40.9619617" lon="14.3072983"><ele>27.0</ele><time>2026-04-25T14:03:27.157Z</time></trkpt><trkpt lat="40.961875" lon="14.3073017"><ele>27.0</ele><time>2026-04-25T14:03:28.155Z</time></trkpt><trkpt lat="40.9617933" lon="14.3073017"><ele>27.0</ele><time>2026-04-25T14:03:29.159Z</time></trkpt><trkpt lat="40.9617117" lon="14.3073017"><ele>27.0</ele><time>2026-04-25T14:03:30.156Z</time></trkpt><trkpt lat="40.9616267" lon="14.3072983"><ele>27.0</ele><time>2026-04-25T14:03:31.156Z</time></trkpt><trkpt lat="40.9615467" lon="14.3072967"><ele>27.0</ele><time>2026-04-25T14:03:32.156Z</time></trkpt><trkpt lat="40.9614667" lon="14.3072983"><ele>27.0</ele><time>2026-04-25T14:03:33.156Z</time></trkpt><trkpt lat="40.9613867" lon="14.30729"><ele>27.0</ele><time>2026-04-25T14:03:34.157Z</time></trkpt><trkpt lat="40.9613017" lon="14.3072817"><ele>27.0</ele><time>2026-04-25T14:03:35.157Z</time></trkpt><trkpt lat="40.96122" lon="14.3072717"><ele>27.0</ele><time>2026-04-25T14:03:36.157Z</time></trkpt><trkpt lat="40.96114" lon="14.30726"><ele>27.0</ele><time>2026-04-25T14:03:37.157Z</time></trkpt><trkpt lat="40.9610633" lon="14.3072517"><ele>27.0</ele><time>2026-04-25T14:03:38.156Z</time></trkpt><trkpt lat="40.9609917" lon="14.30724"><ele>27.0</ele><time>2026-04-25T14:03:39.157Z</time></trkpt><trkpt lat="40.9609217" lon="14.3072233"><ele>27.0</ele><time>2026-04-25T14:03:40.155Z</time></trkpt><trkpt lat="40.9608567" lon="14.3072"><ele>27.0</ele><time>2026-04-25T14:03:41.156Z</time></trkpt><trkpt lat="40.9607917" lon="14.3071683"><ele>27.0</ele><time>2026-04-25T14:03:42.157Z</time></trkpt><trkpt lat="40.9607283" lon="14.307135"><ele>27.0</ele><time>2026-04-25T14:03:43.156Z</time></trkpt><trkpt lat="40.9606617" lon="14.3071117"><ele>26.833333333333332</ele><time>2026-04-25T14:03:44.158Z</time></trkpt><trkpt lat="40.9605983" lon="14.3071033"><ele>26.666666666666664</ele><time>2026-04-25T14:03:45.155Z</time></trkpt><trkpt lat="40.960465" lon="14.3070767"><ele>26.5</ele><time>2026-04-25T14:03:47.156Z</time></trkpt><trkpt lat="40.9603983" lon="14.3070567"><ele>26.333333333333332</ele><time>2026-04-25T14:03:48.156Z</time></trkpt><trkpt lat="40.9603233" lon="14.307035"><ele>26.166666666666664</ele><time>2026-04-25T14:03:49.156Z</time></trkpt><trkpt lat="40.9602467" lon="14.3070167"><ele>26.0</ele><time>2026-04-25T14:03:50.157Z</time></trkpt><trkpt lat="40.9601733" lon="14.307"><ele>25.999999999999996</ele><time>2026-04-25T14:03:51.157Z</time></trkpt><trkpt lat="40.960095" lon="14.3069867"><ele>26.0</ele><time>2026-04-25T14:03:52.155Z</time></trkpt><trkpt lat="40.9600167" lon="14.306975"><ele>26.0</ele><time>2026-04-25T14:03:53.156Z</time></trkpt><trkpt lat="40.9599433" lon="14.3069633"><ele>26.0</ele><time>2026-04-25T14:03:54.157Z</time></trkpt><trkpt lat="40.9598717" lon="14.3069517"><ele>25.999999999999996</ele><time>2026-04-25T14:03:55.156Z</time></trkpt><trkpt lat="40.9597967" lon="14.3069383"><ele>26.0</ele><time>2026-04-25T14:03:56.156Z</time></trkpt><trkpt lat="40.95972" lon="14.3069167"><ele>25.71428571428571</ele><time>2026-04-25T14:03:57.157Z</time></trkpt><trkpt lat="40.959645" lon="14.3068983"><ele>25.42857142857143</ele><time>2026-04-25T14:03:58.158Z</time></trkpt><trkpt lat="40.9595717" lon="14.3068783"><ele>25.142857142857142</ele><time>2026-04-25T14:03:59.156Z</time></trkpt><trkpt lat="40.9594983" lon="14.306855"><ele>24.857142857142854</ele><time>2026-04-25T14:04:00.156Z</time></trkpt><trkpt lat="40.9594317" lon="14.3068183"><ele>24.57142857142857</ele><time>2026-04-25T14:04:01.157Z</time></trkpt><trkpt lat="40.9593633" lon="14.3068"><ele>24.285714285714285</ele><time>2026-04-25T14:04:02.157Z</time></trkpt><trkpt lat="40.959295" lon="14.3067833"><ele>24.0</ele><time>2026-04-25T14:04:03.156Z</time></trkpt><trkpt lat="40.959225" lon="14.30677"><ele>24.666666666666668</ele><time>2026-04-25T14:04:04.156Z</time></trkpt><trkpt lat="40.9591533" lon="14.30675"><ele>25.333333333333336</ele><time>2026-04-25T14:04:05.157Z</time></trkpt><trkpt lat="40.9590867" lon="14.3067283"><ele>26.0</ele><time>2026-04-25T14:04:06.157Z</time></trkpt><trkpt lat="40.95902" lon="14.30671"><ele>26.666666666666668</ele><time>2026-04-25T14:04:07.156Z</time></trkpt><trkpt lat="40.958895" lon="14.30669"><ele>27.333333333333336</ele><time>2026-04-25T14:04:09.157Z</time></trkpt><trkpt lat="40.95883" lon="14.3066667"><ele>28.0</ele><time>2026-04-25T14:04:10.157Z</time></trkpt><trkpt lat="40.9587667" lon="14.3066383"><ele>28.0</ele><time>2026-04-25T14:04:11.156Z</time></trkpt><trkpt lat="40.9587033" lon="14.3066067"><ele>28.0</ele><time>2026-04-25T14:04:12.156Z</time></trkpt><trkpt lat="40.9586417" lon="14.3065733"><ele>28.0</ele><time>2026-04-25T14:04:13.157Z</time></trkpt><trkpt lat="40.9585783" lon="14.3065383"><ele>28.0</ele><time>2026-04-25T14:04:14.156Z</time></trkpt><trkpt lat="40.95852" lon="14.3065067"><ele>28.0</ele><time>2026-04-25T14:04:15.157Z</time></trkpt><trkpt lat="40.9584583" lon="14.3064683"><ele>28.0</ele><time>2026-04-25T14:04:16.156Z</time></trkpt><trkpt lat="40.958395" lon="14.306425"><ele>28.0</ele><time>2026-04-25T14:04:17.156Z</time></trkpt><trkpt lat="40.9583367" lon="14.3063767"><ele>28.166666666666668</ele><time>2026-04-25T14:04:18.156Z</time></trkpt><trkpt lat="40.9582517" lon="14.3062967"><ele>28.333333333333336</ele><time>2026-04-25T14:04:20.157Z</time></trkpt><trkpt lat="40.9582133" lon="14.3062167"><ele>28.5</ele><time>2026-04-25T14:04:24.158Z</time></trkpt><trkpt lat="40.9582867" lon="14.3062033"><ele>28.666666666666664</ele><time>2026-04-25T14:04:31.156Z</time></trkpt><trkpt lat="40.95834" lon="14.3061567"><ele>28.833333333333332</ele><time>2026-04-25T14:04:35.156Z</time></trkpt><trkpt lat="40.958235" lon="14.3061983"><ele>29.0</ele><time>2026-04-25T14:05:20.158Z</time></trkpt><trkpt lat="40.9581567" lon="14.30618"><ele>28.999999999999996</ele><time>2026-04-25T14:05:23.157Z</time></trkpt><trkpt lat="40.9580867" lon="14.3061167"><ele>29.0</ele><time>2026-04-25T14:05:25.157Z</time></trkpt><trkpt lat="40.957995" lon="14.3060333"><ele>29.0</ele><time>2026-04-25T14:05:27.156Z</time></trkpt><trkpt lat="40.95794" lon="14.3059833"><ele>29.0</ele><time>2026-04-25T14:05:28.158Z</time></trkpt><trkpt lat="40.9578867" lon="14.3059333"><ele>28.999999999999996</ele><time>2026-04-25T14:05:29.156Z</time></trkpt><trkpt lat="40.9578317" lon="14.305885"><ele>29.0</ele><time>2026-04-25T14:05:30.156Z</time></trkpt><trkpt lat="40.95778" lon="14.3058267"><ele>29.000000000000004</ele><time>2026-04-25T14:05:31.158Z</time></trkpt><trkpt lat="40.957725" lon="14.30577"><ele>29.0</ele><time>2026-04-25T14:05:32.157Z</time></trkpt><trkpt lat="40.95767" lon="14.305715"><ele>29.000000000000004</ele><time>2026-04-25T14:05:33.156Z</time></trkpt><trkpt lat="40.9576117" lon="14.305665"><ele>29.000000000000004</ele><time>2026-04-25T14:05:34.157Z</time></trkpt><trkpt lat="40.95755" lon="14.3056117"><ele>29.0</ele><time>2026-04-25T14:05:35.157Z</time></trkpt><trkpt lat="40.9574933" lon="14.30556"><ele>29.000000000000004</ele><time>2026-04-25T14:05:36.157Z</time></trkpt><trkpt lat="40.9574383" lon="14.3055033"><ele>29.000000000000004</ele><time>2026-04-25T14:05:37.156Z</time></trkpt><trkpt lat="40.9573783" lon="14.30545"><ele>29.000000000000004</ele><time>2026-04-25T14:05:38.157Z</time></trkpt><trkpt lat="40.95732" lon="14.3053967"><ele>29.0</ele><time>2026-04-25T14:05:39.157Z</time></trkpt><trkpt lat="40.9572633" lon="14.3053433"><ele>29.000000000000004</ele><time>2026-04-25T14:05:40.157Z</time></trkpt><trkpt lat="40.95721" lon="14.3052833"><ele>29.000000000000004</ele><time>2026-04-25T14:05:41.157Z</time></trkpt><trkpt lat="40.9571517" lon="14.3052333"><ele>29.0</ele><time>2026-04-25T14:05:42.156Z</time></trkpt><trkpt lat="40.9570967" lon="14.3051767"><ele>29.000000000000004</ele><time>2026-04-25T14:05:43.156Z</time></trkpt><trkpt lat="40.9570433" lon="14.3051233"><ele>29.000000000000004</ele><time>2026-04-25T14:05:44.157Z</time></trkpt><trkpt lat="40.956985" lon="14.3050717"><ele>29.000000000000004</ele><time>2026-04-25T14:05:45.156Z</time></trkpt><trkpt lat="40.9569267" lon="14.3050217"><ele>29.0</ele><time>2026-04-25T14:05:46.157Z</time></trkpt><trkpt lat="40.956865" lon="14.3049767"><ele>29.000000000000004</ele><time>2026-04-25T14:05:47.155Z</time></trkpt><trkpt lat="40.9568067" lon="14.30492"><ele>29.000000000000004</ele><time>2026-04-25T14:05:48.156Z</time></trkpt><trkpt lat="40.9567483" lon="14.3048717"><ele>29.0</ele><time>2026-04-25T14:05:49.156Z</time></trkpt><trkpt lat="40.9566883" lon="14.3048317"><ele>29.000000000000004</ele><time>2026-04-25T14:05:50.158Z</time></trkpt><trkpt lat="40.956625" lon="14.304795"><ele>29.000000000000004</ele><time>2026-04-25T14:05:51.158Z</time></trkpt><trkpt lat="40.9565633" lon="14.3047533"><ele>29.000000000000004</ele><time>2026-04-25T14:05:52.157Z</time></trkpt><trkpt lat="40.9564983" lon="14.3047233"><ele>29.0</ele><time>2026-04-25T14:05:53.157Z</time></trkpt><trkpt lat="40.95643" lon="14.304695"><ele>29.000000000000004</ele><time>2026-04-25T14:05:54.156Z</time></trkpt><trkpt lat="40.9563633" lon="14.3046633"><ele>29.000000000000004</ele><time>2026-04-25T14:05:55.156Z</time></trkpt><trkpt lat="40.956295" lon="14.3046367"><ele>29.0</ele><time>2026-04-25T14:05:56.157Z</time></trkpt><trkpt lat="40.9562317" lon="14.3046167"><ele>29.000000000000004</ele><time>2026-04-25T14:05:57.156Z</time></trkpt><trkpt lat="40.9561683" lon="14.3045933"><ele>29.000000000000004</ele><time>2026-04-25T14:05:58.156Z</time></trkpt><trkpt lat="40.9561067" lon="14.3045717"><ele>29.000000000000004</ele><time>2026-04-25T14:05:59.156Z</time></trkpt><trkpt lat="40.95604" lon="14.3045567"><ele>29.0</ele><time>2026-04-25T14:06:00.157Z</time></trkpt><trkpt lat="40.95597" lon="14.3045417"><ele>29.000000000000004</ele><time>2026-04-25T14:06:01.157Z</time></trkpt><trkpt lat="40.9559" lon="14.3045317"><ele>29.000000000000004</ele><time>2026-04-25T14:06:02.157Z</time></trkpt><trkpt lat="40.9558317" lon="14.304515"><ele>29.0</ele><time>2026-04-25T14:06:03.158Z</time></trkpt><trkpt lat="40.95577" lon="14.3044967"><ele>29.000000000000004</ele><time>2026-04-25T14:06:04.157Z</time></trkpt><trkpt lat="40.9557083" lon="14.3044783"><ele>29.000000000000004</ele><time>2026-04-25T14:06:05.156Z</time></trkpt><trkpt lat="40.9555883" lon="14.3044233"><ele>28.85714285714286</ele><time>2026-04-25T14:06:07.156Z</time></trkpt><trkpt lat="40.95552" lon="14.3044233"><ele>28.714285714285715</ele><time>2026-04-25T14:06:08.16Z</time></trkpt><trkpt lat="40.955455" lon="14.304405"><ele>28.571428571428573</ele><time>2026-04-25T14:06:09.156Z</time></trkpt><trkpt lat="40.9553883" lon="14.3043867"><ele>28.42857142857143</ele><time>2026-04-25T14:06:10.158Z</time></trkpt><trkpt lat="40.9553283" lon="14.30436"><ele>28.285714285714285</ele><time>2026-04-25T14:06:11.157Z</time></trkpt><trkpt lat="40.9552683" lon="14.3043333"><ele>28.142857142857142</ele><time>2026-04-25T14:06:12.158Z</time></trkpt><trkpt lat="40.9552033" lon="14.3043117"><ele>28.0</ele><time>2026-04-25T14:06:13.156Z</time></trkpt><trkpt lat="40.9550833" lon="14.3042717"><ele>28.0</ele><time>2026-04-25T14:06:15.156Z</time></trkpt><trkpt lat="40.95502" lon="14.3042667"><ele>28.0</ele><time>2026-04-25T14:06:16.158Z</time></trkpt><trkpt lat="40.9549533" lon="14.3042533"><ele>28.0</ele><time>2026-04-25T14:06:17.158Z</time></trkpt><trkpt lat="40.95489" lon="14.3042333"><ele>28.0</ele><time>2026-04-25T14:06:18.158Z</time></trkpt><trkpt lat="40.9548267" lon="14.3042133"><ele>28.0</ele><time>2026-04-25T14:06:19.158Z</time></trkpt><trkpt lat="40.9547617" lon="14.3041883"><ele>28.0</ele><time>2026-04-25T14:06:20.156Z</time></trkpt><trkpt lat="40.9546933" lon="14.30417"><ele>28.0</ele><time>2026-04-25T14:06:21.158Z</time></trkpt><trkpt lat="40.9546317" lon="14.3041467"><ele>28.000000000000004</ele><time>2026-04-25T14:06:22.157Z</time></trkpt><trkpt lat="40.9545667" lon="14.3041217"><ele>28.0</ele><time>2026-04-25T14:06:23.156Z</time></trkpt><trkpt lat="40.9544433" lon="14.304075"><ele>28.0</ele><time>2026-04-25T14:06:25.157Z</time></trkpt><trkpt lat="40.9543767" lon="14.3040567"><ele>28.0</ele><time>2026-04-25T14:06:26.156Z</time></trkpt><trkpt lat="40.954305" lon="14.304045"><ele>28.000000000000004</ele><time>2026-04-25T14:06:27.156Z</time></trkpt><trkpt lat="40.9542367" lon="14.3040317"><ele>28.0</ele><time>2026-04-25T14:06:28.156Z</time></trkpt><trkpt lat="40.9541667" lon="14.304025"><ele>28.0</ele><time>2026-04-25T14:06:29.157Z</time></trkpt><trkpt lat="40.954105" lon="14.3040017"><ele>28.0</ele><time>2026-04-25T14:06:30.158Z</time></trkpt><trkpt lat="40.9540433" lon="14.3039717"><ele>28.0</ele><time>2026-04-25T14:06:31.157Z</time></trkpt><trkpt lat="40.9539833" lon="14.3039433"><ele>28.0</ele><time>2026-04-25T14:06:32.157Z</time></trkpt><trkpt lat="40.9539183" lon="14.30391"><ele>28.0</ele><time>2026-04-25T14:06:33.156Z</time></trkpt><trkpt lat="40.9538517" lon="14.3038767"><ele>28.0</ele><time>2026-04-25T14:06:34.156Z</time></trkpt><trkpt lat="40.953785" lon="14.3038383"><ele>28.0</ele><time>2026-04-25T14:06:35.157Z</time></trkpt><trkpt lat="40.9537183" lon="14.3038017"><ele>28.0</ele><time>2026-04-25T14:06:36.156Z</time></trkpt><trkpt lat="40.9536567" lon="14.30376"><ele>28.0</ele><time>2026-04-25T14:06:37.157Z</time></trkpt><trkpt lat="40.9535917" lon="14.3037283"><ele>28.0</ele><time>2026-04-25T14:06:38.157Z</time></trkpt><trkpt lat="40.95352" lon="14.3037117"><ele>28.0</ele><time>2026-04-25T14:06:39.156Z</time></trkpt><trkpt lat="40.9534483" lon="14.3036883"><ele>28.0</ele><time>2026-04-25T14:06:40.157Z</time></trkpt><trkpt lat="40.9533733" lon="14.3036633"><ele>28.0</ele><time>2026-04-25T14:06:41.156Z</time></trkpt><trkpt lat="40.9533017" lon="14.3036383"><ele>28.0</ele><time>2026-04-25T14:06:42.157Z</time></trkpt><trkpt lat="40.953235" lon="14.303615"><ele>28.0</ele><time>2026-04-25T14:06:43.155Z</time></trkpt><trkpt lat="40.953165" lon="14.3036"><ele>28.0</ele><time>2026-04-25T14:06:44.156Z</time></trkpt><trkpt lat="40.9530967" lon="14.30358"><ele>28.0</ele><time>2026-04-25T14:06:45.156Z</time></trkpt><trkpt lat="40.9530317" lon="14.303555"><ele>28.0</ele><time>2026-04-25T14:06:46.156Z</time></trkpt><trkpt lat="40.952965" lon="14.3035333"><ele>28.0</ele><time>2026-04-25T14:06:47.156Z</time></trkpt><trkpt lat="40.9528917" lon="14.30352"><ele>28.0</ele><time>2026-04-25T14:06:48.157Z</time></trkpt><trkpt lat="40.9528167" lon="14.303505"><ele>28.0</ele><time>2026-04-25T14:06:49.157Z</time></trkpt><trkpt lat="40.9527483" lon="14.3034883"><ele>28.000000000000004</ele><time>2026-04-25T14:06:50.157Z</time></trkpt><trkpt lat="40.9526833" lon="14.3034683"><ele>28.0</ele><time>2026-04-25T14:06:51.155Z</time></trkpt><trkpt lat="40.95256" lon="14.3034317"><ele>28.0</ele><time>2026-04-25T14:06:53.156Z</time></trkpt><trkpt lat="40.9524983" lon="14.303415"><ele>28.0</ele><time>2026-04-25T14:06:54.155Z</time></trkpt><trkpt lat="40.952435" lon="14.3033983"><ele>28.000000000000004</ele><time>2026-04-25T14:06:55.155Z</time></trkpt><trkpt lat="40.9523733" lon="14.3033767"><ele>28.0</ele><time>2026-04-25T14:06:56.156Z</time></trkpt><trkpt lat="40.9522517" lon="14.3033367"><ele>28.4</ele><time>2026-04-25T14:06:58.159Z</time></trkpt><trkpt lat="40.9521317" lon="14.30328"><ele>28.799999999999997</ele><time>2026-04-25T14:07:00.156Z</time></trkpt><trkpt lat="40.95201" lon="14.3032483"><ele>29.2</ele><time>2026-04-25T14:07:02.157Z</time></trkpt><trkpt lat="40.95189" lon="14.3032217"><ele>29.6</ele><time>2026-04-25T14:07:04.156Z</time></trkpt><trkpt lat="40.9518183" lon="14.3032167"><ele>30.0</ele><time>2026-04-25T14:07:05.156Z</time></trkpt><trkpt lat="40.9517533" lon="14.303205"><ele>30.0</ele><time>2026-04-25T14:07:06.156Z</time></trkpt><trkpt lat="40.9516817" lon="14.303195"><ele>30.0</ele><time>2026-04-25T14:07:07.156Z</time></trkpt><trkpt lat="40.951615" lon="14.3031817"><ele>30.0</ele><time>2026-04-25T14:07:08.155Z</time></trkpt><trkpt lat="40.9515483" lon="14.3031667"><ele>30.0</ele><time>2026-04-25T14:07:09.156Z</time></trkpt><trkpt lat="40.95148" lon="14.303145"><ele>30.0</ele><time>2026-04-25T14:07:10.157Z</time></trkpt><trkpt lat="40.9514167" lon="14.3031017"><ele>30.0</ele><time>2026-04-25T14:07:11.157Z</time></trkpt><trkpt lat="40.95134" lon="14.30308"><ele>30.0</ele><time>2026-04-25T14:07:12.156Z</time></trkpt><trkpt lat="40.9512567" lon="14.30306"><ele>29.833333333333332</ele><time>2026-04-25T14:07:13.159Z</time></trkpt><trkpt lat="40.95118" lon="14.3030417"><ele>29.666666666666664</ele><time>2026-04-25T14:07:14.156Z</time></trkpt><trkpt lat="40.951105" lon="14.3030183"><ele>29.5</ele><time>2026-04-25T14:07:15.156Z</time></trkpt><trkpt lat="40.95103" lon="14.3029967"><ele>29.333333333333332</ele><time>2026-04-25T14:07:16.156Z</time></trkpt><trkpt lat="40.9509517" lon="14.30298"><ele>29.166666666666664</ele><time>2026-04-25T14:07:17.158Z</time></trkpt><trkpt lat="40.95087" lon="14.3029667"><ele>29.0</ele><time>2026-04-25T14:07:18.156Z</time></trkpt><trkpt lat="40.950785" lon="14.3029567"><ele>29.499999999999996</ele><time>2026-04-25T14:07:19.156Z</time></trkpt><trkpt lat="40.9507017" lon="14.302945"><ele>30.0</ele><time>2026-04-25T14:07:20.156Z</time></trkpt><trkpt lat="40.9506217" lon="14.3029333"><ele>30.5</ele><time>2026-04-25T14:07:21.156Z</time></trkpt><trkpt lat="40.9505417" lon="14.3029183"><ele>31.0</ele><time>2026-04-25T14:07:22.156Z</time></trkpt><trkpt lat="40.9504633" lon="14.3028983"><ele>31.499999999999996</ele><time>2026-04-25T14:07:23.157Z</time></trkpt><trkpt lat="40.9503867" lon="14.3028783"><ele>32.0</ele><time>2026-04-25T14:07:24.157Z</time></trkpt><trkpt lat="40.9503117" lon="14.3028567"><ele>32.0</ele><time>2026-04-25T14:07:25.156Z</time></trkpt><trkpt lat="40.9502367" lon="14.3028367"><ele>31.999999999999996</ele><time>2026-04-25T14:07:26.158Z</time></trkpt><trkpt lat="40.9501683" lon="14.302805"><ele>32.0</ele><time>2026-04-25T14:07:27.157Z</time></trkpt><trkpt lat="40.950105" lon="14.302775"><ele>32.0</ele><time>2026-04-25T14:07:28.156Z</time></trkpt><trkpt lat="40.9500317" lon="14.302755"><ele>31.999999999999996</ele><time>2026-04-25T14:07:29.156Z</time></trkpt><trkpt lat="40.9499567" lon="14.302745"><ele>32.0</ele><time>2026-04-25T14:07:30.156Z</time></trkpt><trkpt lat="40.9498817" lon="14.3027317"><ele>32.0</ele><time>2026-04-25T14:07:31.157Z</time></trkpt><trkpt lat="40.9498" lon="14.3027217"><ele>32.166666666666664</ele><time>2026-04-25T14:07:32.156Z</time></trkpt><trkpt lat="40.9497133" lon="14.302715"><ele>32.33333333333333</ele><time>2026-04-25T14:07:33.156Z</time></trkpt><trkpt lat="40.94963" lon="14.302695"><ele>32.5</ele><time>2026-04-25T14:07:34.157Z</time></trkpt><trkpt lat="40.9495483" lon="14.302685"><ele>32.666666666666664</ele><time>2026-04-25T14:07:35.157Z</time></trkpt><trkpt lat="40.9494733" lon="14.302635"><ele>32.833333333333336</ele><time>2026-04-25T14:07:36.157Z</time></trkpt><trkpt lat="40.949405" lon="14.3025817"><ele>33.0</ele><time>2026-04-25T14:07:37.156Z</time></trkpt><trkpt lat="40.9493367" lon="14.3025467"><ele>33.0</ele><time>2026-04-25T14:07:38.156Z</time></trkpt><trkpt lat="40.9492633" lon="14.30252"><ele>33.0</ele><time>2026-04-25T14:07:39.156Z</time></trkpt><trkpt lat="40.9491883" lon="14.302505"><ele>33.0</ele><time>2026-04-25T14:07:40.157Z</time></trkpt><trkpt lat="40.9491167" lon="14.3024883"><ele>33.0</ele><time>2026-04-25T14:07:41.157Z</time></trkpt><trkpt lat="40.9490467" lon="14.3024667"><ele>33.0</ele><time>2026-04-25T14:07:42.16Z</time></trkpt><trkpt lat="40.948975" lon="14.3024467"><ele>33.0</ele><time>2026-04-25T14:07:43.157Z</time></trkpt><trkpt lat="40.9489067" lon="14.3024267"><ele>33.0</ele><time>2026-04-25T14:07:44.156Z</time></trkpt><trkpt lat="40.9488367" lon="14.3024033"><ele>32.857142857142854</ele><time>2026-04-25T14:07:45.157Z</time></trkpt><trkpt lat="40.9487617" lon="14.3023883"><ele>32.714285714285715</ele><time>2026-04-25T14:07:46.156Z</time></trkpt><trkpt lat="40.9486883" lon="14.3023667"><ele>32.57142857142857</ele><time>2026-04-25T14:07:47.156Z</time></trkpt><trkpt lat="40.948615" lon="14.30235"><ele>32.42857142857143</ele><time>2026-04-25T14:07:48.156Z</time></trkpt><trkpt lat="40.9485483" lon="14.3023267"><ele>32.285714285714285</ele><time>2026-04-25T14:07:49.158Z</time></trkpt><trkpt lat="40.94848" lon="14.3022983"><ele>32.14285714285714</ele><time>2026-04-25T14:07:50.156Z</time></trkpt><trkpt lat="40.9484133" lon="14.302275"><ele>32.0</ele><time>2026-04-25T14:07:51.156Z</time></trkpt><trkpt lat="40.94835" lon="14.302245"><ele>31.999999999999996</ele><time>2026-04-25T14:07:52.157Z</time></trkpt><trkpt lat="40.9482883" lon="14.30222"><ele>32.0</ele><time>2026-04-25T14:07:53.156Z</time></trkpt><trkpt lat="40.948165" lon="14.30218"><ele>32.0</ele><time>2026-04-25T14:07:55.158Z</time></trkpt><trkpt lat="40.9480417" lon="14.302145"><ele>32.0</ele><time>2026-04-25T14:07:57.157Z</time></trkpt><trkpt lat="40.9479767" lon="14.3021383"><ele>31.999999999999996</ele><time>2026-04-25T14:07:58.156Z</time></trkpt><trkpt lat="40.9479133" lon="14.3021333"><ele>32.0</ele><time>2026-04-25T14:07:59.157Z</time></trkpt><trkpt lat="40.9477917" lon="14.3021217"><ele>32.0</ele><time>2026-04-25T14:08:01.156Z</time></trkpt><trkpt lat="40.9477267" lon="14.3021133"><ele>32.0</ele><time>2026-04-25T14:08:02.157Z</time></trkpt><trkpt lat="40.9476583" lon="14.3021"><ele>32.0</ele><time>2026-04-25T14:08:03.156Z</time></trkpt><trkpt lat="40.94754" lon="14.3020483"><ele>32.0</ele><time>2026-04-25T14:08:05.156Z</time></trkpt><trkpt lat="40.94744" lon="14.301985"><ele>32.0</ele><time>2026-04-25T14:08:07.157Z</time></trkpt><trkpt lat="40.9473533" lon="14.30189"><ele>32.166666666666664</ele><time>2026-04-25T14:08:09.157Z</time></trkpt><trkpt lat="40.947285" lon="14.3017583"><ele>32.33333333333333</ele><time>2026-04-25T14:08:11.157Z</time></trkpt><trkpt lat="40.9472533" lon="14.3016833"><ele>32.5</ele><time>2026-04-25T14:08:12.156Z</time></trkpt><trkpt lat="40.947225" lon="14.3016033"><ele>32.666666666666664</ele><time>2026-04-25T14:08:13.156Z</time></trkpt><trkpt lat="40.947195" lon="14.3015267"><ele>32.833333333333336</ele><time>2026-04-25T14:08:14.156Z</time></trkpt><trkpt lat="40.947135" lon="14.3013817"><ele>33.0</ele><time>2026-04-25T14:08:16.157Z</time></trkpt><trkpt lat="40.9471067" lon="14.3013033"><ele>32.714285714285715</ele><time>2026-04-25T14:08:17.156Z</time></trkpt><trkpt lat="40.9470767" lon="14.3012167"><ele>32.42857142857143</ele><time>2026-04-25T14:08:18.158Z</time></trkpt><trkpt lat="40.94705" lon="14.3011317"><ele>32.142857142857146</ele><time>2026-04-25T14:08:19.156Z</time></trkpt><trkpt lat="40.9470217" lon="14.301045"><ele>31.857142857142858</ele><time>2026-04-25T14:08:20.157Z</time></trkpt><trkpt lat="40.94699" lon="14.300955"><ele>31.571428571428577</ele><time>2026-04-25T14:08:21.156Z</time></trkpt><trkpt lat="40.94696" lon="14.3008717"><ele>31.28571428571429</ele><time>2026-04-25T14:08:22.157Z</time></trkpt><trkpt lat="40.946925" lon="14.3007883"><ele>31.0</ele><time>2026-04-25T14:08:23.156Z</time></trkpt><trkpt lat="40.9468883" lon="14.3007017"><ele>31.000000000000004</ele><time>2026-04-25T14:08:24.156Z</time></trkpt><trkpt lat="40.9468533" lon="14.300615"><ele>31.0</ele><time>2026-04-25T14:08:25.156Z</time></trkpt><trkpt lat="40.9468233" lon="14.3005283"><ele>31.0</ele><time>2026-04-25T14:08:26.156Z</time></trkpt><trkpt lat="40.9467933" lon="14.3004467"><ele>31.0</ele><time>2026-04-25T14:08:27.157Z</time></trkpt><trkpt lat="40.9467633" lon="14.30037"><ele>31.000000000000004</ele><time>2026-04-25T14:08:28.156Z</time></trkpt><trkpt lat="40.9467367" lon="14.3002933"><ele>31.0</ele><time>2026-04-25T14:08:29.159Z</time></trkpt><trkpt lat="40.9466817" lon="14.3001433"><ele>31.200000000000003</ele><time>2026-04-25T14:08:31.156Z</time></trkpt><trkpt lat="40.94663" lon="14.3"><ele>31.400000000000002</ele><time>2026-04-25T14:08:33.158Z</time></trkpt><trkpt lat="40.9465783" lon="14.2998567"><ele>31.6</ele><time>2026-04-25T14:08:35.157Z</time></trkpt><trkpt lat="40.9465233" lon="14.2997117"><ele>31.8</ele><time>2026-04-25T14:08:37.156Z</time></trkpt><trkpt lat="40.9464883" lon="14.2996417"><ele>32.0</ele><time>2026-04-25T14:08:38.158Z</time></trkpt><trkpt lat="40.94646" lon="14.2995667"><ele>32.0</ele><time>2026-04-25T14:08:39.156Z</time></trkpt><trkpt lat="40.946425" lon="14.299495"><ele>32.0</ele><time>2026-04-25T14:08:40.156Z</time></trkpt><trkpt lat="40.9463267" lon="14.2994117"><ele>32.0</ele><time>2026-04-25T14:08:42.156Z</time></trkpt><trkpt lat="40.9462133" lon="14.2994183"><ele>32.0</ele><time>2026-04-25T14:08:44.157Z</time></trkpt><trkpt lat="40.94608" lon="14.29944"><ele>32.0</ele><time>2026-04-25T14:08:46.157Z</time></trkpt><trkpt lat="40.9459533" lon="14.29944"><ele>32.2</ele><time>2026-04-25T14:08:48.158Z</time></trkpt><trkpt lat="40.94583" lon="14.2994117"><ele>32.400000000000006</ele><time>2026-04-25T14:08:50.156Z</time></trkpt><trkpt lat="40.94571" lon="14.2993833"><ele>32.599999999999994</ele><time>2026-04-25T14:08:52.156Z</time></trkpt><trkpt lat="40.9455817" lon="14.2993567"><ele>32.8</ele><time>2026-04-25T14:08:54.156Z</time></trkpt><trkpt lat="40.9455183" lon="14.2993467"><ele>33.0</ele><time>2026-04-25T14:08:55.156Z</time></trkpt><trkpt lat="40.94539" lon="14.2993267"><ele>33.0</ele><time>2026-04-25T14:08:57.156Z</time></trkpt><trkpt lat="40.9453267" lon="14.2993167"><ele>33.0</ele><time>2026-04-25T14:08:58.157Z</time></trkpt><trkpt lat="40.9452" lon="14.299285"><ele>33.0</ele><time>2026-04-25T14:09:00.157Z</time></trkpt><trkpt lat="40.9450833" lon="14.2992567"><ele>33.0</ele><time>2026-04-25T14:09:02.157Z</time></trkpt><trkpt lat="40.94496" lon="14.2992383"><ele>33.0</ele><time>2026-04-25T14:09:04.157Z</time></trkpt><trkpt lat="40.9448433" lon="14.2992167"><ele>33.0</ele><time>2026-04-25T14:09:06.157Z</time></trkpt><trkpt lat="40.94472" lon="14.2991867"><ele>33.0</ele><time>2026-04-25T14:09:08.158Z</time></trkpt><trkpt lat="40.94465" lon="14.2991767"><ele>33.0</ele><time>2026-04-25T14:09:09.158Z</time></trkpt><trkpt lat="40.944585" lon="14.2991667"><ele>33.0</ele><time>2026-04-25T14:09:10.157Z</time></trkpt><trkpt lat="40.94451" lon="14.2991567"><ele>33.0</ele><time>2026-04-25T14:09:11.157Z</time></trkpt><trkpt lat="40.9444417" lon="14.299145"><ele>33.0</ele><time>2026-04-25T14:09:12.157Z</time></trkpt><trkpt lat="40.944375" lon="14.2991283"><ele>33.0</ele><time>2026-04-25T14:09:13.156Z</time></trkpt><trkpt lat="40.9443067" lon="14.2991083"><ele>33.0</ele><time>2026-04-25T14:09:14.159Z</time></trkpt><trkpt lat="40.9442383" lon="14.2991"><ele>33.0</ele><time>2026-04-25T14:09:15.159Z</time></trkpt><trkpt lat="40.9441667" lon="14.2990983"><ele>33.0</ele><time>2026-04-25T14:09:16.157Z</time></trkpt><trkpt lat="40.9440967" lon="14.29909"><ele>33.0</ele><time>2026-04-25T14:09:17.16Z</time></trkpt><trkpt lat="40.9440267" lon="14.29908"><ele>33.0</ele><time>2026-04-25T14:09:18.161Z</time></trkpt><trkpt lat="40.94396" lon="14.2990683"><ele>33.0</ele><time>2026-04-25T14:09:19.16Z</time></trkpt><trkpt lat="40.9438367" lon="14.2990533"><ele>32.857142857142854</ele><time>2026-04-25T14:09:21.157Z</time></trkpt><trkpt lat="40.9437733" lon="14.2990333"><ele>32.714285714285715</ele><time>2026-04-25T14:09:22.158Z</time></trkpt><trkpt lat="40.94371" lon="14.2990217"><ele>32.57142857142857</ele><time>2026-04-25T14:09:23.157Z</time></trkpt><trkpt lat="40.943645" lon="14.29902"><ele>32.42857142857143</ele><time>2026-04-25T14:09:24.158Z</time></trkpt><trkpt lat="40.9435783" lon="14.299015"><ele>32.285714285714285</ele><time>2026-04-25T14:09:25.157Z</time></trkpt><trkpt lat="40.94351" lon="14.29901"><ele>32.14285714285714</ele><time>2026-04-25T14:09:26.156Z</time></trkpt><trkpt lat="40.9434383" lon="14.2990017"><ele>32.0</ele><time>2026-04-25T14:09:27.157Z</time></trkpt><trkpt lat="40.9433717" lon="14.298995"><ele>32.285714285714285</ele><time>2026-04-25T14:09:28.156Z</time></trkpt><trkpt lat="40.9433033" lon="14.2989883"><ele>32.57142857142857</ele><time>2026-04-25T14:09:29.157Z</time></trkpt><trkpt lat="40.9432333" lon="14.2989833"><ele>32.857142857142854</ele><time>2026-04-25T14:09:30.157Z</time></trkpt><trkpt lat="40.9431633" lon="14.2989817"><ele>33.14285714285714</ele><time>2026-04-25T14:09:31.157Z</time></trkpt><trkpt lat="40.9430933" lon="14.2989833"><ele>33.42857142857143</ele><time>2026-04-25T14:09:32.157Z</time></trkpt><trkpt lat="40.9430217" lon="14.298985"><ele>33.71428571428571</ele><time>2026-04-25T14:09:33.158Z</time></trkpt><trkpt lat="40.9429483" lon="14.2989817"><ele>34.0</ele><time>2026-04-25T14:09:34.157Z</time></trkpt><trkpt lat="40.9428767" lon="14.2989833"><ele>34.0</ele><time>2026-04-25T14:09:35.157Z</time></trkpt><trkpt lat="40.9428083" lon="14.2989817"><ele>34.0</ele><time>2026-04-25T14:09:36.157Z</time></trkpt><trkpt lat="40.9427417" lon="14.298985"><ele>34.0</ele><time>2026-04-25T14:09:37.157Z</time></trkpt><trkpt lat="40.94267" lon="14.2989867"><ele>34.0</ele><time>2026-04-25T14:09:38.156Z</time></trkpt><trkpt lat="40.9425933" lon="14.2989833"><ele>34.0</ele><time>2026-04-25T14:09:39.156Z</time></trkpt><trkpt lat="40.9425283" lon="14.29899"><ele>34.0</ele><time>2026-04-25T14:09:40.156Z</time></trkpt><trkpt lat="40.9424017" lon="14.29901"><ele>34.333333333333336</ele><time>2026-04-25T14:09:42.157Z</time></trkpt><trkpt lat="40.9423383" lon="14.2990183"><ele>34.66666666666667</ele><time>2026-04-25T14:09:43.158Z</time></trkpt><trkpt lat="40.9422733" lon="14.29902"><ele>35.0</ele><time>2026-04-25T14:09:44.158Z</time></trkpt><trkpt lat="40.94216" lon="14.2990367"><ele>35.333333333333336</ele><time>2026-04-25T14:09:46.156Z</time></trkpt><trkpt lat="40.942055" lon="14.2990233"><ele>35.666666666666664</ele><time>2026-04-25T14:09:48.156Z</time></trkpt><trkpt lat="40.9419717" lon="14.2990017"><ele>36.0</ele><time>2026-04-25T14:09:50.159Z</time></trkpt><trkpt lat="40.9418983" lon="14.29899"><ele>36.0</ele><time>2026-04-25T14:09:52.157Z</time></trkpt><trkpt lat="40.9418183" lon="14.2989867"><ele>36.0</ele><time>2026-04-25T14:13:58.156Z</time></trkpt><trkpt lat="40.94173" lon="14.2989917"><ele>36.0</ele><time>2026-04-25T14:14:01.157Z</time></trkpt><trkpt lat="40.9416417" lon="14.2990217"><ele>36.0</ele><time>2026-04-25T14:14:03.156Z</time></trkpt><trkpt lat="40.9415417" lon="14.2990517"><ele>36.0</ele><time>2026-04-25T14:14:05.158Z</time></trkpt><trkpt lat="40.9414283" lon="14.2990917"><ele>36.166666666666664</ele><time>2026-04-25T14:14:07.157Z</time></trkpt><trkpt lat="40.9413033" lon="14.2991267"><ele>36.333333333333336</ele><time>2026-04-25T14:14:09.156Z</time></trkpt><trkpt lat="40.94124" lon="14.299155"><ele>36.5</ele><time>2026-04-25T14:14:10.156Z</time></trkpt><trkpt lat="40.9411733" lon="14.29918"><ele>36.66666666666667</ele><time>2026-04-25T14:14:11.156Z</time></trkpt><trkpt lat="40.9411017" lon="14.2992083"><ele>36.833333333333336</ele><time>2026-04-25T14:14:12.156Z</time></trkpt><trkpt lat="40.941035" lon="14.2992317"><ele>37.0</ele><time>2026-04-25T14:14:13.159Z</time></trkpt><trkpt lat="40.94097" lon="14.2992567"><ele>37.0</ele><time>2026-04-25T14:14:14.157Z</time></trkpt><trkpt lat="40.9409017" lon="14.2992867"><ele>37.0</ele><time>2026-04-25T14:14:15.157Z</time></trkpt><trkpt lat="40.9408367" lon="14.299315"><ele>37.0</ele><time>2026-04-25T14:14:16.158Z</time></trkpt><trkpt lat="40.94077" lon="14.29935"><ele>37.0</ele><time>2026-04-25T14:14:17.157Z</time></trkpt><trkpt lat="40.9407067" lon="14.2993833"><ele>37.0</ele><time>2026-04-25T14:14:18.156Z</time></trkpt><trkpt lat="40.9406417" lon="14.2994183"><ele>37.0</ele><time>2026-04-25T14:14:19.156Z</time></trkpt><trkpt lat="40.9405733" lon="14.2994483"><ele>37.0</ele><time>2026-04-25T14:14:20.157Z</time></trkpt><trkpt lat="40.9405067" lon="14.2994667"><ele>37.0</ele><time>2026-04-25T14:14:21.157Z</time></trkpt><trkpt lat="40.9404333" lon="14.2994833"><ele>37.0</ele><time>2026-04-25T14:14:22.157Z</time></trkpt><trkpt lat="40.9403667" lon="14.29951"><ele>37.0</ele><time>2026-04-25T14:14:23.157Z</time></trkpt><trkpt lat="40.9402983" lon="14.299535"><ele>37.0</ele><time>2026-04-25T14:14:24.156Z</time></trkpt><trkpt lat="40.9402267" lon="14.2995533"><ele>37.0</ele><time>2026-04-25T14:14:25.156Z</time></trkpt><trkpt lat="40.9401533" lon="14.2995717"><ele>37.0</ele><time>2026-04-25T14:14:26.156Z</time></trkpt><trkpt lat="40.9400833" lon="14.29959"><ele>37.0</ele><time>2026-04-25T14:14:27.157Z</time></trkpt><trkpt lat="40.94001" lon="14.299595"><ele>36.85714285714286</ele><time>2026-04-25T14:14:28.156Z</time></trkpt><trkpt lat="40.9399367" lon="14.2996133"><ele>36.714285714285715</ele><time>2026-04-25T14:14:29.156Z</time></trkpt><trkpt lat="40.9398617" lon="14.2996367"><ele>36.57142857142857</ele><time>2026-04-25T14:14:30.158Z</time></trkpt><trkpt lat="40.9397917" lon="14.29967"><ele>36.42857142857143</ele><time>2026-04-25T14:14:31.157Z</time></trkpt><trkpt lat="40.939725" lon="14.2997083"><ele>36.285714285714285</ele><time>2026-04-25T14:14:32.156Z</time></trkpt><trkpt lat="40.9396583" lon="14.2997433"><ele>36.142857142857146</ele><time>2026-04-25T14:14:33.157Z</time></trkpt><trkpt lat="40.9395967" lon="14.2997767"><ele>36.0</ele><time>2026-04-25T14:14:34.156Z</time></trkpt><trkpt lat="40.9395317" lon="14.299815"><ele>36.00000000000001</ele><time>2026-04-25T14:14:35.156Z</time></trkpt><trkpt lat="40.9394667" lon="14.2998483"><ele>36.0</ele><time>2026-04-25T14:14:36.157Z</time></trkpt><trkpt lat="40.939405" lon="14.2998883"><ele>36.0</ele><time>2026-04-25T14:14:37.156Z</time></trkpt><trkpt lat="40.93934" lon="14.2999267"><ele>36.0</ele><time>2026-04-25T14:14:38.156Z</time></trkpt><trkpt lat="40.9392767" lon="14.2999667"><ele>36.0</ele><time>2026-04-25T14:14:39.157Z</time></trkpt><trkpt lat="40.9392167" lon="14.3000067"><ele>36.00000000000001</ele><time>2026-04-25T14:14:40.156Z</time></trkpt><trkpt lat="40.9391517" lon="14.3000483"><ele>36.0</ele><time>2026-04-25T14:14:41.158Z</time></trkpt><trkpt lat="40.93909" lon="14.30009"><ele>36.142857142857146</ele><time>2026-04-25T14:14:42.157Z</time></trkpt><trkpt lat="40.9390317" lon="14.30013"><ele>36.285714285714285</ele><time>2026-04-25T14:14:43.158Z</time></trkpt><trkpt lat="40.9389717" lon="14.3001733"><ele>36.42857142857143</ele><time>2026-04-25T14:14:44.156Z</time></trkpt><trkpt lat="40.9389117" lon="14.300215"><ele>36.57142857142857</ele><time>2026-04-25T14:14:45.157Z</time></trkpt><trkpt lat="40.93885" lon="14.30025"><ele>36.714285714285715</ele><time>2026-04-25T14:14:46.156Z</time></trkpt><trkpt lat="40.9387883" lon="14.3002867"><ele>36.85714285714286</ele><time>2026-04-25T14:14:47.156Z</time></trkpt><trkpt lat="40.9387317" lon="14.3003233"><ele>37.0</ele><time>2026-04-25T14:14:48.156Z</time></trkpt><trkpt lat="40.9386683" lon="14.3003533"><ele>37.0</ele><time>2026-04-25T14:14:49.157Z</time></trkpt><trkpt lat="40.938605" lon="14.3003783"><ele>37.0</ele><time>2026-04-25T14:14:50.157Z</time></trkpt><trkpt lat="40.9385417" lon="14.300395"><ele>37.0</ele><time>2026-04-25T14:14:51.158Z</time></trkpt><trkpt lat="40.9384433" lon="14.3004483"><ele>37.0</ele><time>2026-04-25T14:14:53.156Z</time></trkpt><trkpt lat="40.9383483" lon="14.3004983"><ele>37.0</ele><time>2026-04-25T14:14:55.157Z</time></trkpt><trkpt lat="40.9382583" lon="14.300575"><ele>37.0</ele><time>2026-04-25T14:14:57.157Z</time></trkpt><trkpt lat="40.9381667" lon="14.3006383"><ele>37.2</ele><time>2026-04-25T14:14:59.156Z</time></trkpt><trkpt lat="40.938055" lon="14.3006833"><ele>37.400000000000006</ele><time>2026-04-25T14:15:01.156Z</time></trkpt><trkpt lat="40.9379333" lon="14.3007217"><ele>37.599999999999994</ele><time>2026-04-25T14:15:03.156Z</time></trkpt><trkpt lat="40.9378067" lon="14.3007583"><ele>37.8</ele><time>2026-04-25T14:15:05.157Z</time></trkpt><trkpt lat="40.9377383" lon="14.3007783"><ele>38.0</ele><time>2026-04-25T14:15:06.158Z</time></trkpt><trkpt lat="40.937675" lon="14.3007917"><ele>38.0</ele><time>2026-04-25T14:15:07.156Z</time></trkpt><trkpt lat="40.9376083" lon="14.3008017"><ele>38.0</ele><time>2026-04-25T14:15:08.157Z</time></trkpt><trkpt lat="40.9375383" lon="14.3008167"><ele>38.0</ele><time>2026-04-25T14:15:09.156Z</time></trkpt><trkpt lat="40.93747" lon="14.3008317"><ele>38.0</ele><time>2026-04-25T14:15:10.157Z</time></trkpt><trkpt lat="40.9373967" lon="14.3008533"><ele>38.0</ele><time>2026-04-25T14:15:11.157Z</time></trkpt><trkpt lat="40.93732" lon="14.300875"><ele>38.0</ele><time>2026-04-25T14:15:12.157Z</time></trkpt><trkpt lat="40.9372483" lon="14.3008917"><ele>38.0</ele><time>2026-04-25T14:15:13.156Z</time></trkpt><trkpt lat="40.9371767" lon="14.3009017"><ele>37.857142857142854</ele><time>2026-04-25T14:15:14.156Z</time></trkpt><trkpt lat="40.937105" lon="14.3009067"><ele>37.714285714285715</ele><time>2026-04-25T14:15:15.156Z</time></trkpt><trkpt lat="40.9370367" lon="14.3009183"><ele>37.57142857142857</ele><time>2026-04-25T14:15:16.156Z</time></trkpt><trkpt lat="40.9369667" lon="14.300935"><ele>37.42857142857143</ele><time>2026-04-25T14:15:17.156Z</time></trkpt><trkpt lat="40.9368967" lon="14.3009583"><ele>37.285714285714285</ele><time>2026-04-25T14:15:18.156Z</time></trkpt><trkpt lat="40.93683" lon="14.3009733"><ele>37.142857142857146</ele><time>2026-04-25T14:15:19.157Z</time></trkpt><trkpt lat="40.936765" lon="14.30098"><ele>37.0</ele><time>2026-04-25T14:15:20.157Z</time></trkpt><trkpt lat="40.9367017" lon="14.300995"><ele>37.0</ele><time>2026-04-25T14:15:21.158Z</time></trkpt><trkpt lat="40.9365733" lon="14.3010233"><ele>37.0</ele><time>2026-04-25T14:15:23.156Z</time></trkpt><trkpt lat="40.9365067" lon="14.3010367"><ele>37.0</ele><time>2026-04-25T14:15:24.156Z</time></trkpt><trkpt lat="40.93644" lon="14.3010517"><ele>37.0</ele><time>2026-04-25T14:15:25.157Z</time></trkpt><trkpt lat="40.93637" lon="14.3010633"><ele>37.0</ele><time>2026-04-25T14:15:26.157Z</time></trkpt><trkpt lat="40.9363033" lon="14.3010783"><ele>37.0</ele><time>2026-04-25T14:15:27.157Z</time></trkpt><trkpt lat="40.936235" lon="14.3010917"><ele>37.0</ele><time>2026-04-25T14:15:28.156Z</time></trkpt><trkpt lat="40.9361667" lon="14.301105"><ele>37.0</ele><time>2026-04-25T14:15:29.157Z</time></trkpt><trkpt lat="40.9361033" lon="14.3011117"><ele>37.0</ele><time>2026-04-25T14:15:30.157Z</time></trkpt><trkpt lat="40.9360383" lon="14.3011233"><ele>37.0</ele><time>2026-04-25T14:15:31.158Z</time></trkpt><trkpt lat="40.9359733" lon="14.3011367"><ele>37.0</ele><time>2026-04-25T14:15:32.156Z</time></trkpt><trkpt lat="40.935905" lon="14.3011483"><ele>37.0</ele><time>2026-04-25T14:15:33.156Z</time></trkpt><trkpt lat="40.9357833" lon="14.30117"><ele>37.0</ele><time>2026-04-25T14:15:35.156Z</time></trkpt><trkpt lat="40.9356633" lon="14.3011867"><ele>37.0</ele><time>2026-04-25T14:15:37.157Z</time></trkpt><trkpt lat="40.9355317" lon="14.3011967"><ele>37.0</ele><time>2026-04-25T14:15:39.158Z</time></trkpt><trkpt lat="40.9354633" lon="14.3011933"><ele>37.0</ele><time>2026-04-25T14:15:40.156Z</time></trkpt><trkpt lat="40.9354" lon="14.30119"><ele>37.0</ele><time>2026-04-25T14:15:41.157Z</time></trkpt><trkpt lat="40.9353333" lon="14.3011867"><ele>37.0</ele><time>2026-04-25T14:15:42.156Z</time></trkpt><trkpt lat="40.93527" lon="14.3011833"><ele>37.0</ele><time>2026-04-25T14:15:43.157Z</time></trkpt><trkpt lat="40.93514" lon="14.301175"><ele>37.0</ele><time>2026-04-25T14:15:45.157Z</time></trkpt><trkpt lat="40.9350733" lon="14.3011783"><ele>37.0</ele><time>2026-04-25T14:15:46.156Z</time></trkpt><trkpt lat="40.935005" lon="14.3011767"><ele>37.0</ele><time>2026-04-25T14:15:47.156Z</time></trkpt><trkpt lat="40.93494" lon="14.3011767"><ele>37.0</ele><time>2026-04-25T14:15:48.156Z</time></trkpt><trkpt lat="40.9348733" lon="14.3011767"><ele>37.285714285714285</ele><time>2026-04-25T14:15:49.156Z</time></trkpt><trkpt lat="40.9348083" lon="14.3011733"><ele>37.57142857142857</ele><time>2026-04-25T14:15:50.157Z</time></trkpt><trkpt lat="40.934745" lon="14.3011683"><ele>37.85714285714286</ele><time>2026-04-25T14:15:51.157Z</time></trkpt><trkpt lat="40.9346783" lon="14.3011733"><ele>38.14285714285714</ele><time>2026-04-25T14:15:52.157Z</time></trkpt><trkpt lat="40.93461" lon="14.301175"><ele>38.42857142857142</ele><time>2026-04-25T14:15:53.157Z</time></trkpt><trkpt lat="40.9345433" lon="14.301175"><ele>38.714285714285715</ele><time>2026-04-25T14:15:54.158Z</time></trkpt><trkpt lat="40.9344767" lon="14.301175"><ele>39.0</ele><time>2026-04-25T14:15:55.157Z</time></trkpt><trkpt lat="40.9344083" lon="14.301175"><ele>39.0</ele><time>2026-04-25T14:15:56.156Z</time></trkpt><trkpt lat="40.9343367" lon="14.3011817"><ele>39.0</ele><time>2026-04-25T14:15:57.156Z</time></trkpt><trkpt lat="40.9342633" lon="14.3011867"><ele>39.0</ele><time>2026-04-25T14:15:58.157Z</time></trkpt><trkpt lat="40.9341933" lon="14.3011883"><ele>39.0</ele><time>2026-04-25T14:15:59.156Z</time></trkpt><trkpt lat="40.9341267" lon="14.3011883"><ele>39.0</ele><time>2026-04-25T14:16:00.157Z</time></trkpt><trkpt lat="40.93401" lon="14.3011933"><ele>39.0</ele><time>2026-04-25T14:16:02.158Z</time></trkpt><trkpt lat="40.9339033" lon="14.301165"><ele>39.0</ele><time>2026-04-25T14:16:04.157Z</time></trkpt><trkpt lat="40.93378" lon="14.30115"><ele>39.0</ele><time>2026-04-25T14:16:06.157Z</time></trkpt><trkpt lat="40.9337167" lon="14.3011467"><ele>39.0</ele><time>2026-04-25T14:16:07.157Z</time></trkpt><trkpt lat="40.9335983" lon="14.301135"><ele>39.0</ele><time>2026-04-25T14:16:09.157Z</time></trkpt><trkpt lat="40.9334717" lon="14.3011267"><ele>39.0</ele><time>2026-04-25T14:16:11.156Z</time></trkpt><trkpt lat="40.9333483" lon="14.30112"><ele>39.0</ele><time>2026-04-25T14:16:13.158Z</time></trkpt><trkpt lat="40.933285" lon="14.30112"><ele>39.0</ele><time>2026-04-25T14:16:14.157Z</time></trkpt><trkpt lat="40.9332217" lon="14.30112"><ele>39.0</ele><time>2026-04-25T14:16:15.156Z</time></trkpt><trkpt lat="40.9331583" lon="14.30112"><ele>39.0</ele><time>2026-04-25T14:16:16.156Z</time></trkpt><trkpt lat="40.9330917" lon="14.3011183"><ele>39.0</ele><time>2026-04-25T14:16:17.157Z</time></trkpt><trkpt lat="40.9330233" lon="14.3011167"><ele>39.0</ele><time>2026-04-25T14:16:18.157Z</time></trkpt><trkpt lat="40.9329533" lon="14.3011133"><ele>39.0</ele><time>2026-04-25T14:16:19.156Z</time></trkpt><trkpt lat="40.932885" lon="14.3011133"><ele>39.0</ele><time>2026-04-25T14:16:20.156Z</time></trkpt><trkpt lat="40.93282" lon="14.3011133"><ele>39.0</ele><time>2026-04-25T14:16:21.157Z</time></trkpt><trkpt lat="40.9327533" lon="14.301115"><ele>39.0</ele><time>2026-04-25T14:16:22.157Z</time></trkpt><trkpt lat="40.9326867" lon="14.301115"><ele>39.0</ele><time>2026-04-25T14:16:23.157Z</time></trkpt><trkpt lat="40.9326233" lon="14.30111"><ele>39.0</ele><time>2026-04-25T14:16:24.156Z</time></trkpt><trkpt lat="40.9325567" lon="14.3011017"><ele>39.0</ele><time>2026-04-25T14:16:25.157Z</time></trkpt><trkpt lat="40.9324883" lon="14.3010967"><ele>39.0</ele><time>2026-04-25T14:16:26.157Z</time></trkpt><trkpt lat="40.9324217" lon="14.301095"><ele>39.2</ele><time>2026-04-25T14:16:27.158Z</time></trkpt><trkpt lat="40.932355" lon="14.3010933"><ele>39.4</ele><time>2026-04-25T14:16:28.157Z</time></trkpt><trkpt lat="40.9322317" lon="14.3010883"><ele>39.6</ele><time>2026-04-25T14:16:30.158Z</time></trkpt><trkpt lat="40.9320983" lon="14.301065"><ele>39.8</ele><time>2026-04-25T14:16:32.157Z</time></trkpt><trkpt lat="40.9320333" lon="14.3010417"><ele>40.0</ele><time>2026-04-25T14:16:33.157Z</time></trkpt><trkpt lat="40.9319717" lon="14.301005"><ele>40.0</ele><time>2026-04-25T14:16:34.157Z</time></trkpt><trkpt lat="40.9319117" lon="14.300965"><ele>40.0</ele><time>2026-04-25T14:16:35.156Z</time></trkpt><trkpt lat="40.9318583" lon="14.3009167"><ele>40.0</ele><time>2026-04-25T14:16:36.158Z</time></trkpt><trkpt lat="40.9318083" lon="14.300865"><ele>40.0</ele><time>2026-04-25T14:16:37.156Z</time></trkpt><trkpt lat="40.93176" lon="14.3008083"><ele>40.0</ele><time>2026-04-25T14:16:38.157Z</time></trkpt><trkpt lat="40.9317167" lon="14.3007433"><ele>40.0</ele><time>2026-04-25T14:16:39.156Z</time></trkpt><trkpt lat="40.9316717" lon="14.3006817"><ele>40.0</ele><time>2026-04-25T14:16:40.156Z</time></trkpt><trkpt lat="40.93159" lon="14.300555"><ele>40.0</ele><time>2026-04-25T14:16:42.157Z</time></trkpt><trkpt lat="40.9315467" lon="14.30049"><ele>40.0</ele><time>2026-04-25T14:16:43.156Z</time></trkpt><trkpt lat="40.9315017" lon="14.30042"><ele>40.0</ele><time>2026-04-25T14:16:44.158Z</time></trkpt><trkpt lat="40.9314583" lon="14.300345"><ele>40.0</ele><time>2026-04-25T14:16:45.157Z</time></trkpt><trkpt lat="40.9314117" lon="14.30027"><ele>40.0</ele><time>2026-04-25T14:16:46.156Z</time></trkpt><trkpt lat="40.9313683" lon="14.3002017"><ele>40.0</ele><time>2026-04-25T14:16:47.157Z</time></trkpt><trkpt lat="40.9313233" lon="14.3001333"><ele>40.0</ele><time>2026-04-25T14:16:48.157Z</time></trkpt><trkpt lat="40.9312767" lon="14.3000633"><ele>40.0</ele><time>2026-04-25T14:16:49.156Z</time></trkpt><trkpt lat="40.93123" lon="14.3"><ele>40.0</ele><time>2026-04-25T14:16:50.157Z</time></trkpt><trkpt lat="40.9311817" lon="14.2999367"><ele>40.0</ele><time>2026-04-25T14:16:51.157Z</time></trkpt><trkpt lat="40.9311367" lon="14.2998717"><ele>40.0</ele><time>2026-04-25T14:16:52.157Z</time></trkpt><trkpt lat="40.9310917" lon="14.29981"><ele>40.0</ele><time>2026-04-25T14:16:53.156Z</time></trkpt><trkpt lat="40.9310417" lon="14.2997467"><ele>40.0</ele><time>2026-04-25T14:16:54.159Z</time></trkpt><trkpt lat="40.9309967" lon="14.29968"><ele>40.0</ele><time>2026-04-25T14:16:55.157Z</time></trkpt><trkpt lat="40.9309517" lon="14.299615"><ele>40.0</ele><time>2026-04-25T14:16:56.156Z</time></trkpt><trkpt lat="40.9309" lon="14.2995483"><ele>40.0</ele><time>2026-04-25T14:16:57.156Z</time></trkpt><trkpt lat="40.930855" lon="14.29948"><ele>40.0</ele><time>2026-04-25T14:16:58.157Z</time></trkpt><trkpt lat="40.93081" lon="14.2994117"><ele>40.0</ele><time>2026-04-25T14:16:59.156Z</time></trkpt><trkpt lat="40.9307667" lon="14.2993483"><ele>40.0</ele><time>2026-04-25T14:17:00.158Z</time></trkpt><trkpt lat="40.9306817" lon="14.29923"><ele>40.0</ele><time>2026-04-25T14:17:02.158Z</time></trkpt><trkpt lat="40.9306367" lon="14.2991683"><ele>40.0</ele><time>2026-04-25T14:17:03.156Z</time></trkpt><trkpt lat="40.9305917" lon="14.2991067"><ele>40.0</ele><time>2026-04-25T14:17:04.158Z</time></trkpt><trkpt lat="40.9305483" lon="14.2990433"><ele>40.0</ele><time>2026-04-25T14:17:05.156Z</time></trkpt><trkpt lat="40.9305067" lon="14.2989767"><ele>40.0</ele><time>2026-04-25T14:17:06.158Z</time></trkpt><trkpt lat="40.9304617" lon="14.2989133"><ele>40.0</ele><time>2026-04-25T14:17:07.157Z</time></trkpt><trkpt lat="40.9304183" lon="14.29885"><ele>40.0</ele><time>2026-04-25T14:17:08.157Z</time></trkpt><trkpt lat="40.930345" lon="14.2987233"><ele>40.0</ele><time>2026-04-25T14:17:10.158Z</time></trkpt><trkpt lat="40.9302917" lon="14.2985883"><ele>40.5</ele><time>2026-04-25T14:17:12.158Z</time></trkpt><trkpt lat="40.9302433" lon="14.298445"><ele>41.0</ele><time>2026-04-25T14:17:14.158Z</time></trkpt><trkpt lat="40.9302067" lon="14.2983"><ele>41.5</ele><time>2026-04-25T14:17:16.156Z</time></trkpt><trkpt lat="40.9301383" lon="14.2981817"><ele>42.0</ele><time>2026-04-25T14:17:18.157Z</time></trkpt><trkpt lat="40.93004" lon="14.29813"><ele>42.0</ele><time>2026-04-25T14:17:20.157Z</time></trkpt><trkpt lat="40.9299367" lon="14.2981717"><ele>42.0</ele><time>2026-04-25T14:17:22.156Z</time></trkpt><trkpt lat="40.9298267" lon="14.2981883"><ele>42.0</ele><time>2026-04-25T14:17:24.158Z</time></trkpt><trkpt lat="40.9296967" lon="14.298205"><ele>42.0</ele><time>2026-04-25T14:17:26.157Z</time></trkpt><trkpt lat="40.9296333" lon="14.2982133"><ele>42.0</ele><time>2026-04-25T14:17:27.157Z</time></trkpt><trkpt lat="40.9295667" lon="14.29822"><ele>42.0</ele><time>2026-04-25T14:17:28.158Z</time></trkpt><trkpt lat="40.9295" lon="14.298225"><ele>42.0</ele><time>2026-04-25T14:17:29.157Z</time></trkpt><trkpt lat="40.929375" lon="14.298245"><ele>42.0</ele><time>2026-04-25T14:17:31.158Z</time></trkpt><trkpt lat="40.9292533" lon="14.2982717"><ele>42.0</ele><time>2026-04-25T14:17:33.157Z</time></trkpt><trkpt lat="40.9291883" lon="14.2982833"><ele>42.0</ele><time>2026-04-25T14:17:34.157Z</time></trkpt><trkpt lat="40.92912" lon="14.298295"><ele>42.0</ele><time>2026-04-25T14:17:35.157Z</time></trkpt><trkpt lat="40.9290533" lon="14.2983033"><ele>42.0</ele><time>2026-04-25T14:17:36.158Z</time></trkpt><trkpt lat="40.9289867" lon="14.298315"><ele>42.0</ele><time>2026-04-25T14:17:37.157Z</time></trkpt><trkpt lat="40.9289183" lon="14.2983267"><ele>42.0</ele><time>2026-04-25T14:17:38.158Z</time></trkpt><trkpt lat="40.92885" lon="14.2983433"><ele>42.0</ele><time>2026-04-25T14:17:39.159Z</time></trkpt><trkpt lat="40.9287817" lon="14.29836"><ele>42.0</ele><time>2026-04-25T14:17:40.159Z</time></trkpt><trkpt lat="40.9287083" lon="14.2983783"><ele>42.0</ele><time>2026-04-25T14:17:41.158Z</time></trkpt><trkpt lat="40.9286367" lon="14.29839"><ele>42.0</ele><time>2026-04-25T14:17:42.158Z</time></trkpt><trkpt lat="40.928565" lon="14.298405"><ele>42.0</ele><time>2026-04-25T14:17:43.158Z</time></trkpt><trkpt lat="40.9284933" lon="14.2984117"><ele>42.0</ele><time>2026-04-25T14:17:44.157Z</time></trkpt><trkpt lat="40.92842" lon="14.29842"><ele>42.0</ele><time>2026-04-25T14:17:45.157Z</time></trkpt><trkpt lat="40.9283467" lon="14.2984267"><ele>42.0</ele><time>2026-04-25T14:17:46.157Z</time></trkpt><trkpt lat="40.9282717" lon="14.2984333"><ele>42.0</ele><time>2026-04-25T14:17:47.157Z</time></trkpt><trkpt lat="40.9282" lon="14.2984383"><ele>42.0</ele><time>2026-04-25T14:17:48.158Z</time></trkpt><trkpt lat="40.928125" lon="14.2984433"><ele>42.166666666666664</ele><time>2026-04-25T14:17:49.157Z</time></trkpt><trkpt lat="40.92805" lon="14.298445"><ele>42.333333333333336</ele><time>2026-04-25T14:17:50.158Z</time></trkpt><trkpt lat="40.9279733" lon="14.2984517"><ele>42.5</ele><time>2026-04-25T14:17:51.157Z</time></trkpt><trkpt lat="40.9278933" lon="14.29846"><ele>42.66666666666667</ele><time>2026-04-25T14:17:52.157Z</time></trkpt><trkpt lat="40.92781" lon="14.2984733"><ele>42.833333333333336</ele><time>2026-04-25T14:17:53.156Z</time></trkpt><trkpt lat="40.9277267" lon="14.29849"><ele>43.0</ele><time>2026-04-25T14:17:54.157Z</time></trkpt><trkpt lat="40.9276517" lon="14.2985067"><ele>43.0</ele><time>2026-04-25T14:17:55.157Z</time></trkpt><trkpt lat="40.9275783" lon="14.29852"><ele>43.0</ele><time>2026-04-25T14:17:56.158Z</time></trkpt><trkpt lat="40.9275017" lon="14.2985267"><ele>43.0</ele><time>2026-04-25T14:17:57.159Z</time></trkpt><trkpt lat="40.927435" lon="14.29853"><ele>43.0</ele><time>2026-04-25T14:17:58.158Z</time></trkpt><trkpt lat="40.9273717" lon="14.2985267"><ele>43.0</ele><time>2026-04-25T14:17:59.158Z</time></trkpt><trkpt lat="40.9273083" lon="14.2985133"><ele>43.0</ele><time>2026-04-25T14:18:00.157Z</time></trkpt><trkpt lat="40.92719" lon="14.2984967"><ele>43.0</ele><time>2026-04-25T14:18:02.157Z</time></trkpt><trkpt lat="40.9270733" lon="14.2985133"><ele>43.0</ele><time>2026-04-25T14:18:04.158Z</time></trkpt><trkpt lat="40.9269583" lon="14.298525"><ele>43.0</ele><time>2026-04-25T14:18:06.157Z</time></trkpt><trkpt lat="40.92685" lon="14.298525"><ele>43.0</ele><time>2026-04-25T14:18:08.157Z</time></trkpt><trkpt lat="40.92675" lon="14.29852"><ele>43.0</ele><time>2026-04-25T14:18:10.159Z</time></trkpt><trkpt lat="40.9266367" lon="14.2985217"><ele>43.4</ele><time>2026-04-25T14:18:12.157Z</time></trkpt><trkpt lat="40.9265283" lon="14.29853"><ele>43.8</ele><time>2026-04-25T14:18:14.157Z</time></trkpt><trkpt lat="40.9264067" lon="14.2985433"><ele>44.2</ele><time>2026-04-25T14:18:16.158Z</time></trkpt><trkpt lat="40.9262867" lon="14.2985533"><ele>44.6</ele><time>2026-04-25T14:18:18.157Z</time></trkpt><trkpt lat="40.926215" lon="14.298565"><ele>45.0</ele><time>2026-04-25T14:18:19.156Z</time></trkpt><trkpt lat="40.9261483" lon="14.298575"><ele>45.0</ele><time>2026-04-25T14:18:20.156Z</time></trkpt><trkpt lat="40.9260833" lon="14.29858"><ele>45.0</ele><time>2026-04-25T14:18:21.156Z</time></trkpt><trkpt lat="40.9260167" lon="14.298585"><ele>45.0</ele><time>2026-04-25T14:18:22.156Z</time></trkpt><trkpt lat="40.9259533" lon="14.2985883"><ele>45.0</ele><time>2026-04-25T14:18:23.156Z</time></trkpt><trkpt lat="40.9258867" lon="14.29859"><ele>45.0</ele><time>2026-04-25T14:18:24.157Z</time></trkpt><trkpt lat="40.9258217" lon="14.2985933"><ele>45.0</ele><time>2026-04-25T14:18:25.156Z</time></trkpt><trkpt lat="40.9257017" lon="14.2985533"><ele>45.4</ele><time>2026-04-25T14:18:27.157Z</time></trkpt><trkpt lat="40.9256" lon="14.2985283"><ele>45.8</ele><time>2026-04-25T14:18:29.155Z</time></trkpt><trkpt lat="40.9254933" lon="14.2985183"><ele>46.2</ele><time>2026-04-25T14:18:31.156Z</time></trkpt><trkpt lat="40.9253817" lon="14.29849"><ele>46.6</ele><time>2026-04-25T14:18:33.156Z</time></trkpt><trkpt lat="40.9252667" lon="14.2984533"><ele>47.0</ele><time>2026-04-25T14:18:35.158Z</time></trkpt><trkpt lat="40.925165" lon="14.2983933"><ele>47.0</ele><time>2026-04-25T14:18:37.159Z</time></trkpt><trkpt lat="40.9250667" lon="14.2983233"><ele>47.0</ele><time>2026-04-25T14:18:39.159Z</time></trkpt><trkpt lat="40.9249817" lon="14.2982333"><ele>47.0</ele><time>2026-04-25T14:18:41.157Z</time></trkpt><trkpt lat="40.9248817" lon="14.2981433"><ele>47.0</ele><time>2026-04-25T14:18:43.158Z</time></trkpt><trkpt lat="40.9247883" lon="14.2980383"><ele>46.75</ele><time>2026-04-25T14:18:45.156Z</time></trkpt><trkpt lat="40.9247017" lon="14.297925"><ele>46.5</ele><time>2026-04-25T14:18:47.157Z</time></trkpt><trkpt lat="40.9246233" lon="14.2978033"><ele>46.25</ele><time>2026-04-25T14:18:49.158Z</time></trkpt><trkpt lat="40.9245483" lon="14.297685"><ele>46.0</ele><time>2026-04-25T14:18:51.158Z</time></trkpt><trkpt lat="40.9244783" lon="14.2975583"><ele>46.0</ele><time>2026-04-25T14:18:53.157Z</time></trkpt><trkpt lat="40.9244067" lon="14.29743"><ele>46.0</ele><time>2026-04-25T14:18:55.156Z</time></trkpt><trkpt lat="40.92433" lon="14.297295"><ele>46.0</ele><time>2026-04-25T14:18:57.159Z</time></trkpt><trkpt lat="40.9242583" lon="14.2971633"><ele>46.0</ele><time>2026-04-25T14:18:59.157Z</time></trkpt><trkpt lat="40.9242183" lon="14.2970933"><ele>46.0</ele><time>2026-04-25T14:19:00.157Z</time></trkpt><trkpt lat="40.9241767" lon="14.2970267"><ele>46.199999999999996</ele><time>2026-04-25T14:19:01.157Z</time></trkpt><trkpt lat="40.9241067" lon="14.2968933"><ele>46.4</ele><time>2026-04-25T14:19:03.158Z</time></trkpt><trkpt lat="40.92405" lon="14.29677"><ele>46.6</ele><time>2026-04-25T14:19:05.158Z</time></trkpt><trkpt lat="40.9239867" lon="14.2966583"><ele>46.8</ele><time>2026-04-25T14:19:07.156Z</time></trkpt><trkpt lat="40.9239383" lon="14.29655"><ele>47.0</ele><time>2026-04-25T14:19:09.157Z</time></trkpt><trkpt lat="40.9238783" lon="14.2964417"><ele>47.0</ele><time>2026-04-25T14:19:11.157Z</time></trkpt><trkpt lat="40.9238067" lon="14.2963267"><ele>47.0</ele><time>2026-04-25T14:19:13.158Z</time></trkpt><trkpt lat="40.923745" lon="14.2962067"><ele>47.0</ele><time>2026-04-25T14:19:15.157Z</time></trkpt><trkpt lat="40.92368" lon="14.2960833"><ele>47.0</ele><time>2026-04-25T14:19:17.156Z</time></trkpt><trkpt lat="40.9236167" lon="14.2959617"><ele>47.0</ele><time>2026-04-25T14:19:19.157Z</time></trkpt><trkpt lat="40.9235467" lon="14.2958417"><ele>47.0</ele><time>2026-04-25T14:19:21.157Z</time></trkpt><trkpt lat="40.9234717" lon="14.2957183"><ele>47.0</ele><time>2026-04-25T14:19:23.156Z</time></trkpt><trkpt lat="40.9234017" lon="14.29559"><ele>47.0</ele><time>2026-04-25T14:19:25.156Z</time></trkpt><trkpt lat="40.923365" lon="14.2955217"><ele>47.0</ele><time>2026-04-25T14:19:26.157Z</time></trkpt><trkpt lat="40.9232983" lon="14.2953867"><ele>47.0</ele><time>2026-04-25T14:19:28.156Z</time></trkpt><trkpt lat="40.92323" lon="14.2952633"><ele>47.75</ele><time>2026-04-25T14:19:30.157Z</time></trkpt><trkpt lat="40.9231633" lon="14.295135"><ele>48.5</ele><time>2026-04-25T14:19:32.157Z</time></trkpt><trkpt lat="40.9230933" lon="14.2950133"><ele>49.25</ele><time>2026-04-25T14:19:34.156Z</time></trkpt><trkpt lat="40.9230217" lon="14.2949033"><ele>50.0</ele><time>2026-04-25T14:19:36.156Z</time></trkpt><trkpt lat="40.9229533" lon="14.294795"><ele>50.25</ele><time>2026-04-25T14:19:38.156Z</time></trkpt><trkpt lat="40.9228717" lon="14.29468"><ele>50.5</ele><time>2026-04-25T14:19:40.157Z</time></trkpt><trkpt lat="40.92279" lon="14.2945783"><ele>50.75</ele><time>2026-04-25T14:19:42.157Z</time></trkpt><trkpt lat="40.9226883" lon="14.2944883"><ele>51.0</ele><time>2026-04-25T14:19:44.157Z</time></trkpt><trkpt lat="40.9225917" lon="14.2944267"><ele>51.0</ele><time>2026-04-25T14:19:46.157Z</time></trkpt><trkpt lat="40.9224933" lon="14.29436"><ele>51.0</ele><time>2026-04-25T14:19:48.156Z</time></trkpt><trkpt lat="40.92239" lon="14.29431"><ele>51.0</ele><time>2026-04-25T14:19:50.157Z</time></trkpt><trkpt lat="40.92228" lon="14.2942633"><ele>51.0</ele><time>2026-04-25T14:19:52.158Z</time></trkpt><trkpt lat="40.9221683" lon="14.2942133"><ele>51.0</ele><time>2026-04-25T14:19:54.157Z</time></trkpt><trkpt lat="40.92206" lon="14.2941717"><ele>51.0</ele><time>2026-04-25T14:19:56.157Z</time></trkpt><trkpt lat="40.92195" lon="14.2941217"><ele>51.0</ele><time>2026-04-25T14:19:58.156Z</time></trkpt><trkpt lat="40.9218383" lon="14.29408"><ele>51.0</ele><time>2026-04-25T14:20:00.156Z</time></trkpt><trkpt lat="40.9217767" lon="14.2940583"><ele>51.0</ele><time>2026-04-25T14:20:01.157Z</time></trkpt><trkpt lat="40.921655" lon="14.2940083"><ele>51.25</ele><time>2026-04-25T14:20:03.156Z</time></trkpt><trkpt lat="40.9215433" lon="14.2939517"><ele>51.5</ele><time>2026-04-25T14:20:05.156Z</time></trkpt><trkpt lat="40.9214317" lon="14.29391"><ele>51.75</ele><time>2026-04-25T14:20:07.157Z</time></trkpt><trkpt lat="40.921325" lon="14.2938717"><ele>52.0</ele><time>2026-04-25T14:20:09.156Z</time></trkpt><trkpt lat="40.9212217" lon="14.293825"><ele>52.0</ele><time>2026-04-25T14:20:11.156Z</time></trkpt><trkpt lat="40.92112" lon="14.2937833"><ele>52.0</ele><time>2026-04-25T14:20:13.156Z</time></trkpt><trkpt lat="40.9210217" lon="14.2937333"><ele>52.0</ele><time>2026-04-25T14:20:15.157Z</time></trkpt><trkpt lat="40.920925" lon="14.293675"><ele>52.0</ele><time>2026-04-25T14:20:17.157Z</time></trkpt><trkpt lat="40.92084" lon="14.2936033"><ele>52.0</ele><time>2026-04-25T14:20:19.156Z</time></trkpt><trkpt lat="40.9207667" lon="14.2935317"><ele>52.2</ele><time>2026-04-25T14:20:21.157Z</time></trkpt><trkpt lat="40.9206817" lon="14.2934533"><ele>52.400000000000006</ele><time>2026-04-25T14:20:23.156Z</time></trkpt><trkpt lat="40.92061" lon="14.29337"><ele>52.599999999999994</ele><time>2026-04-25T14:20:25.156Z</time></trkpt><trkpt lat="40.920535" lon="14.2932933"><ele>52.8</ele><time>2026-04-25T14:20:27.157Z</time></trkpt><trkpt lat="40.92045" lon="14.29323"><ele>53.0</ele><time>2026-04-25T14:20:29.157Z</time></trkpt><trkpt lat="40.9203767" lon="14.2931583"><ele>53.0</ele><time>2026-04-25T14:20:31.157Z</time></trkpt><trkpt lat="40.9203" lon="14.2930617"><ele>53.0</ele><time>2026-04-25T14:20:33.156Z</time></trkpt><trkpt lat="40.9202117" lon="14.2929717"><ele>53.0</ele><time>2026-04-25T14:20:35.157Z</time></trkpt><trkpt lat="40.92013" lon="14.2928917"><ele>53.0</ele><time>2026-04-25T14:20:37.156Z</time></trkpt><trkpt lat="40.920055" lon="14.2927983"><ele>53.0</ele><time>2026-04-25T14:20:39.156Z</time></trkpt><trkpt lat="40.9199733" lon="14.2927033"><ele>53.0</ele><time>2026-04-25T14:20:41.157Z</time></trkpt><trkpt lat="40.9198817" lon="14.29261"><ele>53.0</ele><time>2026-04-25T14:20:43.156Z</time></trkpt><trkpt lat="40.9197767" lon="14.29252"><ele>53.0</ele><time>2026-04-25T14:20:45.156Z</time></trkpt><trkpt lat="40.9196783" lon="14.29244"><ele>53.0</ele><time>2026-04-25T14:20:47.157Z</time></trkpt><trkpt lat="40.9195767" lon="14.2923867"><ele>53.0</ele><time>2026-04-25T14:20:49.158Z</time></trkpt><trkpt lat="40.9194733" lon="14.2923367"><ele>53.0</ele><time>2026-04-25T14:20:51.156Z</time></trkpt><trkpt lat="40.9193683" lon="14.292295"><ele>53.0</ele><time>2026-04-25T14:20:53.156Z</time></trkpt><trkpt lat="40.9192683" lon="14.2922533"><ele>53.0</ele><time>2026-04-25T14:20:55.156Z</time></trkpt><trkpt lat="40.9191533" lon="14.2922017"><ele>53.0</ele><time>2026-04-25T14:20:57.156Z</time></trkpt><trkpt lat="40.9190917" lon="14.29218"><ele>53.4</ele><time>2026-04-25T14:20:58.156Z</time></trkpt><trkpt lat="40.91903" lon="14.29216"><ele>53.8</ele><time>2026-04-25T14:20:59.157Z</time></trkpt><trkpt lat="40.918935" lon="14.2921183"><ele>54.2</ele><time>2026-04-25T14:21:01.158Z</time></trkpt><trkpt lat="40.9188417" lon="14.292075"><ele>54.6</ele><time>2026-04-25T14:21:03.157Z</time></trkpt><trkpt lat="40.91875" lon="14.2920367"><ele>55.0</ele><time>2026-04-25T14:21:05.157Z</time></trkpt><trkpt lat="40.918655" lon="14.291995"><ele>55.0</ele><time>2026-04-25T14:21:07.159Z</time></trkpt><trkpt lat="40.9185583" lon="14.2919533"><ele>55.0</ele><time>2026-04-25T14:21:09.156Z</time></trkpt><trkpt lat="40.9184567" lon="14.29191"><ele>55.0</ele><time>2026-04-25T14:21:11.156Z</time></trkpt><trkpt lat="40.9183483" lon="14.2918667"><ele>55.0</ele><time>2026-04-25T14:21:13.156Z</time></trkpt><trkpt lat="40.9182433" lon="14.2918183"><ele>55.0</ele><time>2026-04-25T14:21:15.158Z</time></trkpt><trkpt lat="40.9181433" lon="14.2917683"><ele>55.0</ele><time>2026-04-25T14:21:17.156Z</time></trkpt><trkpt lat="40.9180433" lon="14.2917133"><ele>55.0</ele><time>2026-04-25T14:21:19.156Z</time></trkpt><trkpt lat="40.917945" lon="14.29165"><ele>55.0</ele><time>2026-04-25T14:21:21.158Z</time></trkpt><trkpt lat="40.9178533" lon="14.291585"><ele>55.0</ele><time>2026-04-25T14:21:23.156Z</time></trkpt><trkpt lat="40.9177583" lon="14.2915217"><ele>55.0</ele><time>2026-04-25T14:21:25.157Z</time></trkpt><trkpt lat="40.9176617" lon="14.2914517"><ele>55.4</ele><time>2026-04-25T14:21:27.156Z</time></trkpt><trkpt lat="40.9175667" lon="14.2913867"><ele>55.8</ele><time>2026-04-25T14:21:29.157Z</time></trkpt><trkpt lat="40.9174683" lon="14.2913233"><ele>56.2</ele><time>2026-04-25T14:21:31.156Z</time></trkpt><trkpt lat="40.9173817" lon="14.29126"><ele>56.6</ele><time>2026-04-25T14:21:33.156Z</time></trkpt><trkpt lat="40.91729" lon="14.2912083"><ele>57.0</ele><time>2026-04-25T14:21:35.158Z</time></trkpt><trkpt lat="40.9172" lon="14.2911517"><ele>57.0</ele><time>2026-04-25T14:21:37.158Z</time></trkpt><trkpt lat="40.9170967" lon="14.2910983"><ele>57.0</ele><time>2026-04-25T14:21:39.158Z</time></trkpt><trkpt lat="40.9169883" lon="14.2910433"><ele>57.0</ele><time>2026-04-25T14:21:41.156Z</time></trkpt><trkpt lat="40.9168833" lon="14.2909867"><ele>57.0</ele><time>2026-04-25T14:21:43.156Z</time></trkpt><trkpt lat="40.9167783" lon="14.290925"><ele>57.0</ele><time>2026-04-25T14:21:45.156Z</time></trkpt><trkpt lat="40.9166667" lon="14.2908633"><ele>57.0</ele><time>2026-04-25T14:21:47.155Z</time></trkpt><trkpt lat="40.916555" lon="14.29081"><ele>57.0</ele><time>2026-04-25T14:21:49.158Z</time></trkpt><trkpt lat="40.9164517" lon="14.2907467"><ele>57.0</ele><time>2026-04-25T14:21:51.156Z</time></trkpt><trkpt lat="40.91634" lon="14.2906817"><ele>57.0</ele><time>2026-04-25T14:21:53.158Z</time></trkpt><trkpt lat="40.9162317" lon="14.2906183"><ele>57.0</ele><time>2026-04-25T14:21:55.156Z</time></trkpt><trkpt lat="40.9161267" lon="14.2905567"><ele>57.0</ele><time>2026-04-25T14:21:57.157Z</time></trkpt><trkpt lat="40.9160217" lon="14.2905167"><ele>57.0</ele><time>2026-04-25T14:21:59.159Z</time></trkpt><trkpt lat="40.9159067" lon="14.2904983"><ele>57.400000000000006</ele><time>2026-04-25T14:22:01.156Z</time></trkpt><trkpt lat="40.9158" lon="14.2904783"><ele>57.800000000000004</ele><time>2026-04-25T14:22:03.156Z</time></trkpt><trkpt lat="40.9156933" lon="14.2904617"><ele>58.2</ele><time>2026-04-25T14:22:05.156Z</time></trkpt><trkpt lat="40.9155817" lon="14.2904533"><ele>58.6</ele><time>2026-04-25T14:22:07.156Z</time></trkpt><trkpt lat="40.915465" lon="14.290465"><ele>59.0</ele><time>2026-04-25T14:22:09.156Z</time></trkpt><trkpt lat="40.9153567" lon="14.2904717"><ele>59.00000000000001</ele><time>2026-04-25T14:22:11.157Z</time></trkpt><trkpt lat="40.91525" lon="14.29047"><ele>59.0</ele><time>2026-04-25T14:22:13.156Z</time></trkpt><trkpt lat="40.9151267" lon="14.2904833"><ele>59.0</ele><time>2026-04-25T14:22:15.157Z</time></trkpt><trkpt lat="40.9150633" lon="14.290485"><ele>59.0</ele><time>2026-04-25T14:22:16.156Z</time></trkpt><trkpt lat="40.9149967" lon="14.2904917"><ele>59.00000000000001</ele><time>2026-04-25T14:22:17.157Z</time></trkpt><trkpt lat="40.91493" lon="14.2904967"><ele>59.0</ele><time>2026-04-25T14:22:18.157Z</time></trkpt><trkpt lat="40.9148033" lon="14.2905083"><ele>59.2</ele><time>2026-04-25T14:22:20.157Z</time></trkpt><trkpt lat="40.9146883" lon="14.2905083"><ele>59.400000000000006</ele><time>2026-04-25T14:22:22.157Z</time></trkpt><trkpt lat="40.9145717" lon="14.2905067"><ele>59.6</ele><time>2026-04-25T14:22:24.156Z</time></trkpt><trkpt lat="40.9145067" lon="14.2905083"><ele>59.8</ele><time>2026-04-25T14:22:25.157Z</time></trkpt><trkpt lat="40.9143833" lon="14.29052"><ele>60.0</ele><time>2026-04-25T14:22:27.157Z</time></trkpt><trkpt lat="40.91432" lon="14.29052"><ele>60.5</ele><time>2026-04-25T14:22:28.156Z</time></trkpt><trkpt lat="40.9142083" lon="14.2905067"><ele>61.0</ele><time>2026-04-25T14:22:30.157Z</time></trkpt><trkpt lat="40.914095" lon="14.2904883"><ele>61.5</ele><time>2026-04-25T14:22:32.156Z</time></trkpt><trkpt lat="40.9139817" lon="14.29047"><ele>62.0</ele><time>2026-04-25T14:22:34.156Z</time></trkpt><trkpt lat="40.9138717" lon="14.2904383"><ele>62.0</ele><time>2026-04-25T14:22:36.159Z</time></trkpt><trkpt lat="40.9137567" lon="14.2904067"><ele>62.0</ele><time>2026-04-25T14:22:38.158Z</time></trkpt><trkpt lat="40.913695" lon="14.2903867"><ele>62.0</ele><time>2026-04-25T14:22:39.157Z</time></trkpt><trkpt lat="40.9135717" lon="14.290355"><ele>62.0</ele><time>2026-04-25T14:22:41.156Z</time></trkpt><trkpt lat="40.9134567" lon="14.290315"><ele>62.0</ele><time>2026-04-25T14:22:43.158Z</time></trkpt><trkpt lat="40.913345" lon="14.2902683"><ele>62.25</ele><time>2026-04-25T14:22:45.158Z</time></trkpt><trkpt lat="40.9132367" lon="14.2901983"><ele>62.5</ele><time>2026-04-25T14:22:47.158Z</time></trkpt><trkpt lat="40.91312" lon="14.2901333"><ele>62.75</ele><time>2026-04-25T14:22:49.158Z</time></trkpt><trkpt lat="40.91301" lon="14.29007"><ele>63.0</ele><time>2026-04-25T14:22:51.158Z</time></trkpt><trkpt lat="40.9129" lon="14.2900183"><ele>63.0</ele><time>2026-04-25T14:22:53.156Z</time></trkpt><trkpt lat="40.9127967" lon="14.2899417"><ele>63.0</ele><time>2026-04-25T14:22:55.157Z</time></trkpt><trkpt lat="40.9126933" lon="14.2898567"><ele>63.0</ele><time>2026-04-25T14:22:57.157Z</time></trkpt><trkpt lat="40.9125917" lon="14.28976"><ele>63.0</ele><time>2026-04-25T14:22:59.158Z</time></trkpt><trkpt lat="40.9125367" lon="14.2897183"><ele>63.0</ele><time>2026-04-25T14:23:00.157Z</time></trkpt><trkpt lat="40.91243" lon="14.2896283"><ele>63.0</ele><time>2026-04-25T14:23:02.157Z</time></trkpt><trkpt lat="40.9123767" lon="14.2895817"><ele>63.0</ele><time>2026-04-25T14:23:03.157Z</time></trkpt><trkpt lat="40.9123217" lon="14.289535"><ele>63.0</ele><time>2026-04-25T14:23:04.157Z</time></trkpt><trkpt lat="40.9122667" lon="14.2894917"><ele>63.0</ele><time>2026-04-25T14:23:05.156Z</time></trkpt><trkpt lat="40.9122117" lon="14.289445"><ele>63.0</ele><time>2026-04-25T14:23:06.157Z</time></trkpt><trkpt lat="40.912105" lon="14.2893633"><ele>63.0</ele><time>2026-04-25T14:23:08.157Z</time></trkpt><trkpt lat="40.911995" lon="14.28929"><ele>63.0</ele><time>2026-04-25T14:23:10.157Z</time></trkpt><trkpt lat="40.9118917" lon="14.28922"><ele>63.0</ele><time>2026-04-25T14:23:12.158Z</time></trkpt><trkpt lat="40.9117983" lon="14.2891467"><ele>63.0</ele><time>2026-04-25T14:23:14.158Z</time></trkpt><trkpt lat="40.9117217" lon="14.2890583"><ele>63.0</ele><time>2026-04-25T14:23:16.156Z</time></trkpt><trkpt lat="40.9116367" lon="14.2889717"><ele>63.0</ele><time>2026-04-25T14:23:18.157Z</time></trkpt><trkpt lat="40.9115517" lon="14.28889"><ele>63.0</ele><time>2026-04-25T14:23:20.157Z</time></trkpt><trkpt lat="40.9114567" lon="14.28881"><ele>63.0</ele><time>2026-04-25T14:23:22.157Z</time></trkpt><trkpt lat="40.911365" lon="14.2887367"><ele>63.0</ele><time>2026-04-25T14:23:24.157Z</time></trkpt><trkpt lat="40.911265" lon="14.2886567"><ele>63.0</ele><time>2026-04-25T14:23:26.158Z</time></trkpt><trkpt lat="40.9111617" lon="14.2885767"><ele>63.0</ele><time>2026-04-25T14:23:28.157Z</time></trkpt><trkpt lat="40.9110717" lon="14.2884933"><ele>63.0</ele><time>2026-04-25T14:23:30.158Z</time></trkpt><trkpt lat="40.9109767" lon="14.2884083"><ele>63.0</ele><time>2026-04-25T14:23:32.157Z</time></trkpt><trkpt lat="40.9108883" lon="14.28832"><ele>63.0</ele><time>2026-04-25T14:23:34.157Z</time></trkpt><trkpt lat="40.9107933" lon="14.2882417"><ele>63.0</ele><time>2026-04-25T14:23:36.159Z</time></trkpt><trkpt lat="40.9106983" lon="14.2881583"><ele>63.0</ele><time>2026-04-25T14:23:38.157Z</time></trkpt><trkpt lat="40.9105967" lon="14.2880767"><ele>63.0</ele><time>2026-04-25T14:23:40.158Z</time></trkpt><trkpt lat="40.91051" lon="14.2879967"><ele>63.0</ele><time>2026-04-25T14:23:42.159Z</time></trkpt><trkpt lat="40.9104183" lon="14.2879317"><ele>63.0</ele><time>2026-04-25T14:23:44.159Z</time></trkpt><trkpt lat="40.9103417" lon="14.287865"><ele>63.0</ele><time>2026-04-25T14:23:46.158Z</time></trkpt><trkpt lat="40.9102667" lon="14.2877967"><ele>63.0</ele><time>2026-04-25T14:23:48.158Z</time></trkpt><trkpt lat="40.910185" lon="14.2877417"><ele>63.0</ele><time>2026-04-25T14:23:50.157Z</time></trkpt><trkpt lat="40.91011" lon="14.28768"><ele>63.0</ele><time>2026-04-25T14:23:52.157Z</time></trkpt><trkpt lat="40.9100217" lon="14.2876183"><ele>63.0</ele><time>2026-04-25T14:23:54.157Z</time></trkpt><trkpt lat="40.9099367" lon="14.28755"><ele>63.0</ele><time>2026-04-25T14:23:56.158Z</time></trkpt><trkpt lat="40.9098567" lon="14.287475"><ele>64.0</ele><time>2026-04-25T14:23:58.157Z</time></trkpt><trkpt lat="40.9097783" lon="14.287395"><ele>65.0</ele><time>2026-04-25T14:24:00.159Z</time></trkpt><trkpt lat="40.909695" lon="14.2873233"><ele>66.0</ele><time>2026-04-25T14:24:02.158Z</time></trkpt><trkpt lat="40.9096183" lon="14.2872617"><ele>67.0</ele><time>2026-04-25T14:24:04.157Z</time></trkpt><trkpt lat="40.909535" lon="14.2872067"><ele>68.0</ele><time>2026-04-25T14:24:06.158Z</time></trkpt><trkpt lat="40.9094583" lon="14.2871483"><ele>68.16666666666667</ele><time>2026-04-25T14:24:08.158Z</time></trkpt><trkpt lat="40.9093833" lon="14.2870833"><ele>68.33333333333334</ele><time>2026-04-25T14:24:10.158Z</time></trkpt><trkpt lat="40.909315" lon="14.28702"><ele>68.5</ele><time>2026-04-25T14:24:12.157Z</time></trkpt><trkpt lat="40.9092483" lon="14.2869617"><ele>68.66666666666667</ele><time>2026-04-25T14:24:14.157Z</time></trkpt><trkpt lat="40.90918" lon="14.2869017"><ele>68.83333333333333</ele><time>2026-04-25T14:24:16.158Z</time></trkpt><trkpt lat="40.9091033" lon="14.2868317"><ele>69.0</ele><time>2026-04-25T14:24:18.157Z</time></trkpt><trkpt lat="40.9090383" lon="14.2867633"><ele>69.0</ele><time>2026-04-25T14:24:20.157Z</time></trkpt><trkpt lat="40.908955" lon="14.2866967"><ele>69.0</ele><time>2026-04-25T14:24:22.156Z</time></trkpt><trkpt lat="40.9088833" lon="14.28663"><ele>69.0</ele><time>2026-04-25T14:24:24.158Z</time></trkpt><trkpt lat="40.9088133" lon="14.2865617"><ele>69.0</ele><time>2026-04-25T14:24:26.157Z</time></trkpt><trkpt lat="40.9087367" lon="14.2865"><ele>69.0</ele><time>2026-04-25T14:24:28.158Z</time></trkpt><trkpt lat="40.90867" lon="14.286445"><ele>69.0</ele><time>2026-04-25T14:24:30.156Z</time></trkpt><trkpt lat="40.9086083" lon="14.2863867"><ele>69.0</ele><time>2026-04-25T14:24:32.157Z</time></trkpt><trkpt lat="40.908535" lon="14.2863267"><ele>69.0</ele><time>2026-04-25T14:24:34.158Z</time></trkpt><trkpt lat="40.9084683" lon="14.2862717"><ele>69.0</ele><time>2026-04-25T14:24:36.157Z</time></trkpt><trkpt lat="40.9084" lon="14.2862167"><ele>69.0</ele><time>2026-04-25T14:24:38.156Z</time></trkpt><trkpt lat="40.908335" lon="14.2861633"><ele>69.0</ele><time>2026-04-25T14:24:40.156Z</time></trkpt><trkpt lat="40.9082683" lon="14.286105"><ele>69.0</ele><time>2026-04-25T14:24:42.156Z</time></trkpt><trkpt lat="40.908205" lon="14.2860517"><ele>69.0</ele><time>2026-04-25T14:24:44.156Z</time></trkpt><trkpt lat="40.9081417" lon="14.2859933"><ele>69.0</ele><time>2026-04-25T14:24:46.157Z</time></trkpt><trkpt lat="40.9080667" lon="14.28593"><ele>69.0</ele><time>2026-04-25T14:24:48.156Z</time></trkpt><trkpt lat="40.907985" lon="14.2858667"><ele>69.0</ele><time>2026-04-25T14:24:50.156Z</time></trkpt><trkpt lat="40.9079033" lon="14.2858017"><ele>69.0</ele><time>2026-04-25T14:24:52.157Z</time></trkpt><trkpt lat="40.9078267" lon="14.2857417"><ele>69.0</ele><time>2026-04-25T14:24:54.157Z</time></trkpt><trkpt lat="40.9077467" lon="14.2856817"><ele>69.0</ele><time>2026-04-25T14:24:56.156Z</time></trkpt><trkpt lat="40.9076717" lon="14.2856233"><ele>69.0</ele><time>2026-04-25T14:24:58.156Z</time></trkpt><trkpt lat="40.907585" lon="14.285555"><ele>69.0</ele><time>2026-04-25T14:25:00.156Z</time></trkpt><trkpt lat="40.9075017" lon="14.28549"><ele>69.0</ele><time>2026-04-25T14:25:02.157Z</time></trkpt><trkpt lat="40.907415" lon="14.2854333"><ele>69.0</ele><time>2026-04-25T14:25:04.158Z</time></trkpt><trkpt lat="40.9073467" lon="14.285365"><ele>69.83333333333333</ele><time>2026-04-25T14:25:06.156Z</time></trkpt><trkpt lat="40.9072817" lon="14.2853017"><ele>70.66666666666667</ele><time>2026-04-25T14:25:08.157Z</time></trkpt><trkpt lat="40.9072267" lon="14.28523"><ele>71.5</ele><time>2026-04-25T14:25:10.157Z</time></trkpt><trkpt lat="40.9071583" lon="14.2851617"><ele>72.33333333333334</ele><time>2026-04-25T14:25:12.156Z</time></trkpt><trkpt lat="40.90709" lon="14.285095"><ele>73.16666666666667</ele><time>2026-04-25T14:25:14.156Z</time></trkpt><trkpt lat="40.9070217" lon="14.2850267"><ele>74.0</ele><time>2026-04-25T14:25:16.157Z</time></trkpt><trkpt lat="40.906935" lon="14.2849567"><ele>74.0</ele><time>2026-04-25T14:25:18.156Z</time></trkpt><trkpt lat="40.9068367" lon="14.284925"><ele>74.0</ele><time>2026-04-25T14:25:20.157Z</time></trkpt><trkpt lat="40.9067383" lon="14.2848783"><ele>74.0</ele><time>2026-04-25T14:25:22.158Z</time></trkpt><trkpt lat="40.9066317" lon="14.28485"><ele>74.0</ele><time>2026-04-25T14:25:24.157Z</time></trkpt><trkpt lat="40.9065417" lon="14.2848317"><ele>74.0</ele><time>2026-04-25T14:25:26.156Z</time></trkpt><trkpt lat="40.9064483" lon="14.2848"><ele>75.4</ele><time>2026-04-25T14:25:28.156Z</time></trkpt><trkpt lat="40.906345" lon="14.2847617"><ele>76.80000000000001</ele><time>2026-04-25T14:25:30.156Z</time></trkpt><trkpt lat="40.90624" lon="14.28474"><ele>78.19999999999999</ele><time>2026-04-25T14:25:32.157Z</time></trkpt><trkpt lat="40.9061433" lon="14.2847317"><ele>79.6</ele><time>2026-04-25T14:25:34.156Z</time></trkpt><trkpt lat="40.906035" lon="14.2847333"><ele>81.0</ele><time>2026-04-25T14:25:36.156Z</time></trkpt><trkpt lat="40.9059283" lon="14.2847417"><ele>80.5</ele><time>2026-04-25T14:25:38.158Z</time></trkpt><trkpt lat="40.9058183" lon="14.2847483"><ele>80.0</ele><time>2026-04-25T14:25:40.157Z</time></trkpt><trkpt lat="40.9057067" lon="14.284765"><ele>79.5</ele><time>2026-04-25T14:25:42.157Z</time></trkpt><trkpt lat="40.9055833" lon="14.2847833"><ele>79.0</ele><time>2026-04-25T14:25:44.157Z</time></trkpt><trkpt lat="40.9054667" lon="14.2848017"><ele>79.0</ele><time>2026-04-25T14:25:46.155Z</time></trkpt><trkpt lat="40.905345" lon="14.28483"><ele>79.0</ele><time>2026-04-25T14:25:48.155Z</time></trkpt><trkpt lat="40.9052767" lon="14.2848467"><ele>79.0</ele><time>2026-04-25T14:25:49.156Z</time></trkpt><trkpt lat="40.9052083" lon="14.2848583"><ele>79.0</ele><time>2026-04-25T14:25:50.157Z</time></trkpt><trkpt lat="40.9050817" lon="14.284885"><ele>79.0</ele><time>2026-04-25T14:25:52.156Z</time></trkpt><trkpt lat="40.90501" lon="14.2849"><ele>79.0</ele><time>2026-04-25T14:25:53.156Z</time></trkpt><trkpt lat="40.9049433" lon="14.28491"><ele>79.0</ele><time>2026-04-25T14:25:54.156Z</time></trkpt><trkpt lat="40.9048117" lon="14.2849133"><ele>79.0</ele><time>2026-04-25T14:25:56.157Z</time></trkpt><trkpt lat="40.9047483" lon="14.284925"><ele>79.0</ele><time>2026-04-25T14:25:57.157Z</time></trkpt><trkpt lat="40.9046817" lon="14.2849317"><ele>79.0</ele><time>2026-04-25T14:25:58.158Z</time></trkpt><trkpt lat="40.9046167" lon="14.2849433"><ele>79.0</ele><time>2026-04-25T14:25:59.156Z</time></trkpt><trkpt lat="40.9045517" lon="14.284955"><ele>79.00000000000001</ele><time>2026-04-25T14:26:00.158Z</time></trkpt><trkpt lat="40.90448" lon="14.2849667"><ele>79.0</ele><time>2026-04-25T14:26:01.157Z</time></trkpt><trkpt lat="40.9044117" lon="14.2849833"><ele>79.0</ele><time>2026-04-25T14:26:02.157Z</time></trkpt><trkpt lat="40.904345" lon="14.2850033"><ele>79.0</ele><time>2026-04-25T14:26:03.158Z</time></trkpt><trkpt lat="40.9042767" lon="14.2850183"><ele>79.0</ele><time>2026-04-25T14:26:04.156Z</time></trkpt><trkpt lat="40.90421" lon="14.2850367"><ele>79.00000000000001</ele><time>2026-04-25T14:26:05.157Z</time></trkpt><trkpt lat="40.90414" lon="14.2850567"><ele>79.0</ele><time>2026-04-25T14:26:06.156Z</time></trkpt><trkpt lat="40.9040717" lon="14.2850783"><ele>79.14285714285715</ele><time>2026-04-25T14:26:07.157Z</time></trkpt><trkpt lat="40.9040017" lon="14.2850983"><ele>79.28571428571429</ele><time>2026-04-25T14:26:08.156Z</time></trkpt><trkpt lat="40.9039317" lon="14.285115"><ele>79.42857142857143</ele><time>2026-04-25T14:26:09.158Z</time></trkpt><trkpt lat="40.9038633" lon="14.2851383"><ele>79.57142857142858</ele><time>2026-04-25T14:26:10.157Z</time></trkpt><trkpt lat="40.9037967" lon="14.2851567"><ele>79.71428571428572</ele><time>2026-04-25T14:26:11.157Z</time></trkpt><trkpt lat="40.9037283" lon="14.2851767"><ele>79.85714285714286</ele><time>2026-04-25T14:26:12.157Z</time></trkpt><trkpt lat="40.90366" lon="14.285185"><ele>80.0</ele><time>2026-04-25T14:26:13.157Z</time></trkpt><trkpt lat="40.9035917" lon="14.2852"><ele>80.0</ele><time>2026-04-25T14:26:14.157Z</time></trkpt><trkpt lat="40.903525" lon="14.2852133"><ele>80.0</ele><time>2026-04-25T14:26:15.156Z</time></trkpt><trkpt lat="40.9034617" lon="14.2852233"><ele>80.0</ele><time>2026-04-25T14:26:16.157Z</time></trkpt><trkpt lat="40.9033317" lon="14.285245"><ele>80.0</ele><time>2026-04-25T14:26:18.158Z</time></trkpt><trkpt lat="40.9032483" lon="14.2852467"><ele>80.0</ele><time>2026-04-25T14:26:19.156Z</time></trkpt><trkpt lat="40.90318" lon="14.2852467"><ele>80.0</ele><time>2026-04-25T14:26:20.157Z</time></trkpt><trkpt lat="40.90311" lon="14.2852567"><ele>80.57142857142857</ele><time>2026-04-25T14:26:21.157Z</time></trkpt><trkpt lat="40.9030383" lon="14.2852717"><ele>81.14285714285714</ele><time>2026-04-25T14:26:22.157Z</time></trkpt><trkpt lat="40.9029767" lon="14.2852917"><ele>81.71428571428572</ele><time>2026-04-25T14:26:23.158Z</time></trkpt><trkpt lat="40.9029083" lon="14.2853133"><ele>82.28571428571428</ele><time>2026-04-25T14:26:24.158Z</time></trkpt><trkpt lat="40.9028383" lon="14.2853267"><ele>82.85714285714286</ele><time>2026-04-25T14:26:25.156Z</time></trkpt><trkpt lat="40.90277" lon="14.2853467"><ele>83.42857142857143</ele><time>2026-04-25T14:26:26.157Z</time></trkpt><trkpt lat="40.9027083" lon="14.285365"><ele>84.0</ele><time>2026-04-25T14:26:27.157Z</time></trkpt><trkpt lat="40.9025983" lon="14.2854117"><ele>85.0</ele><time>2026-04-25T14:26:29.157Z</time></trkpt><trkpt lat="40.9025367" lon="14.2854317"><ele>86.0</ele><time>2026-04-25T14:26:30.156Z</time></trkpt><trkpt lat="40.9024133" lon="14.2854533"><ele>87.0</ele><time>2026-04-25T14:26:32.157Z</time></trkpt><trkpt lat="40.9023467" lon="14.285485"><ele>88.0</ele><time>2026-04-25T14:26:33.156Z</time></trkpt><trkpt lat="40.90228" lon="14.2855083"><ele>89.0</ele><time>2026-04-25T14:26:34.158Z</time></trkpt><trkpt lat="40.9022133" lon="14.2855333"><ele>90.0</ele><time>2026-04-25T14:26:35.157Z</time></trkpt><trkpt lat="40.9021433" lon="14.285555"><ele>90.0</ele><time>2026-04-25T14:26:36.157Z</time></trkpt><trkpt lat="40.902075" lon="14.2855817"><ele>90.0</ele><time>2026-04-25T14:26:37.156Z</time></trkpt><trkpt lat="40.9020133" lon="14.2856"><ele>90.0</ele><time>2026-04-25T14:26:38.158Z</time></trkpt><trkpt lat="40.901945" lon="14.2856317"><ele>90.0</ele><time>2026-04-25T14:26:39.156Z</time></trkpt><trkpt lat="40.9018783" lon="14.2856483"><ele>90.0</ele><time>2026-04-25T14:26:40.157Z</time></trkpt><trkpt lat="40.9018083" lon="14.28566"><ele>90.0</ele><time>2026-04-25T14:26:41.156Z</time></trkpt><trkpt lat="40.90174" lon="14.28567"><ele>90.0</ele><time>2026-04-25T14:26:42.156Z</time></trkpt><trkpt lat="40.9016717" lon="14.2856817"><ele>89.16666666666667</ele><time>2026-04-25T14:26:43.157Z</time></trkpt><trkpt lat="40.9015483" lon="14.2857083"><ele>88.33333333333333</ele><time>2026-04-25T14:26:45.157Z</time></trkpt><trkpt lat="40.901485" lon="14.2857267"><ele>87.5</ele><time>2026-04-25T14:26:46.157Z</time></trkpt><trkpt lat="40.9014217" lon="14.2857417"><ele>86.66666666666666</ele><time>2026-04-25T14:26:47.157Z</time></trkpt><trkpt lat="40.9012983" lon="14.2857833"><ele>85.83333333333333</ele><time>2026-04-25T14:26:49.156Z</time></trkpt><trkpt lat="40.9012317" lon="14.2858"><ele>85.0</ele><time>2026-04-25T14:26:50.157Z</time></trkpt><trkpt lat="40.9011683" lon="14.2858167"><ele>85.0</ele><time>2026-04-25T14:26:51.157Z</time></trkpt><trkpt lat="40.9011033" lon="14.28583"><ele>85.0</ele><time>2026-04-25T14:26:52.156Z</time></trkpt><trkpt lat="40.9010383" lon="14.2858483"><ele>85.0</ele><time>2026-04-25T14:26:53.157Z</time></trkpt><trkpt lat="40.9009733" lon="14.2858633"><ele>85.0</ele><time>2026-04-25T14:26:54.157Z</time></trkpt><trkpt lat="40.90091" lon="14.2858833"><ele>85.0</ele><time>2026-04-25T14:26:55.156Z</time></trkpt><trkpt lat="40.9008433" lon="14.2859017"><ele>85.0</ele><time>2026-04-25T14:26:56.157Z</time></trkpt><trkpt lat="40.9007783" lon="14.285925"><ele>85.0</ele><time>2026-04-25T14:26:57.157Z</time></trkpt><trkpt lat="40.900705" lon="14.28595"><ele>85.14285714285715</ele><time>2026-04-25T14:26:58.158Z</time></trkpt><trkpt lat="40.900635" lon="14.2859633"><ele>85.28571428571428</ele><time>2026-04-25T14:26:59.156Z</time></trkpt><trkpt lat="40.9005633" lon="14.2859783"><ele>85.42857142857143</ele><time>2026-04-25T14:27:00.156Z</time></trkpt><trkpt lat="40.900495" lon="14.2859783"><ele>85.57142857142858</ele><time>2026-04-25T14:27:01.158Z</time></trkpt><trkpt lat="40.9004283" lon="14.2859733"><ele>85.71428571428572</ele><time>2026-04-25T14:27:02.158Z</time></trkpt><trkpt lat="40.9003617" lon="14.2859717"><ele>85.85714285714286</ele><time>2026-04-25T14:27:03.158Z</time></trkpt><trkpt lat="40.9002933" lon="14.2859667"><ele>86.0</ele><time>2026-04-25T14:27:04.156Z</time></trkpt><trkpt lat="40.900225" lon="14.2859667"><ele>86.0</ele><time>2026-04-25T14:27:05.156Z</time></trkpt><trkpt lat="40.90016" lon="14.2859467"><ele>86.0</ele><time>2026-04-25T14:27:06.156Z</time></trkpt><trkpt lat="40.9000917" lon="14.2859183"><ele>86.0</ele><time>2026-04-25T14:27:07.156Z</time></trkpt><trkpt lat="40.9000167" lon="14.2858867"><ele>86.0</ele><time>2026-04-25T14:27:08.156Z</time></trkpt><trkpt lat="40.89994" lon="14.2858433"><ele>86.0</ele><time>2026-04-25T14:27:09.158Z</time></trkpt><trkpt lat="40.8998717" lon="14.2858083"><ele>86.0</ele><time>2026-04-25T14:27:10.157Z</time></trkpt><trkpt lat="40.8998017" lon="14.2857667"><ele>86.0</ele><time>2026-04-25T14:27:11.157Z</time></trkpt><trkpt lat="40.8997267" lon="14.2857217"><ele>86.0</ele><time>2026-04-25T14:27:12.156Z</time></trkpt><trkpt lat="40.8996517" lon="14.2856867"><ele>86.0</ele><time>2026-04-25T14:27:13.157Z</time></trkpt><trkpt lat="40.8995883" lon="14.2856283"><ele>86.0</ele><time>2026-04-25T14:27:14.162Z</time></trkpt><trkpt lat="40.899535" lon="14.2855583"><ele>86.0</ele><time>2026-04-25T14:27:15.157Z</time></trkpt><trkpt lat="40.8994717" lon="14.2855"><ele>86.0</ele><time>2026-04-25T14:27:16.156Z</time></trkpt><trkpt lat="40.8994033" lon="14.28545"><ele>86.0</ele><time>2026-04-25T14:27:17.157Z</time></trkpt><trkpt lat="40.8993333" lon="14.2854133"><ele>86.0</ele><time>2026-04-25T14:27:18.156Z</time></trkpt><trkpt lat="40.89927" lon="14.2853517"><ele>86.0</ele><time>2026-04-25T14:27:19.156Z</time></trkpt><trkpt lat="40.899205" lon="14.2853167"><ele>86.0</ele><time>2026-04-25T14:27:20.16Z</time></trkpt><trkpt lat="40.89914" lon="14.2852783"><ele>86.0</ele><time>2026-04-25T14:27:21.156Z</time></trkpt><trkpt lat="40.8990767" lon="14.2852317"><ele>86.0</ele><time>2026-04-25T14:27:22.156Z</time></trkpt><trkpt lat="40.8989917" lon="14.2852283"><ele>85.5</ele><time>2026-04-25T14:27:23.156Z</time></trkpt><trkpt lat="40.8989133" lon="14.2852083"><ele>85.0</ele><time>2026-04-25T14:27:24.157Z</time></trkpt><trkpt lat="40.8988533" lon="14.28517"><ele>84.5</ele><time>2026-04-25T14:27:25.156Z</time></trkpt><trkpt lat="40.8987983" lon="14.285115"><ele>84.0</ele><time>2026-04-25T14:27:26.157Z</time></trkpt><trkpt lat="40.89874" lon="14.2850583"><ele>83.5</ele><time>2026-04-25T14:27:27.157Z</time></trkpt><trkpt lat="40.898685" lon="14.28501"><ele>83.0</ele><time>2026-04-25T14:27:28.156Z</time></trkpt><trkpt lat="40.89858" lon="14.2849233"><ele>83.0</ele><time>2026-04-25T14:27:30.157Z</time></trkpt><trkpt lat="40.8985267" lon="14.2848767"><ele>83.0</ele><time>2026-04-25T14:27:31.157Z</time></trkpt><trkpt lat="40.8984667" lon="14.2848417"><ele>83.0</ele><time>2026-04-25T14:27:32.158Z</time></trkpt><trkpt lat="40.8984133" lon="14.2847783"><ele>83.0</ele><time>2026-04-25T14:27:33.157Z</time></trkpt><trkpt lat="40.898365" lon="14.2846983"><ele>83.0</ele><time>2026-04-25T14:27:34.157Z</time></trkpt><trkpt lat="40.8983167" lon="14.2846317"><ele>83.0</ele><time>2026-04-25T14:27:35.157Z</time></trkpt><trkpt lat="40.8982683" lon="14.2845717"><ele>83.0</ele><time>2026-04-25T14:27:36.158Z</time></trkpt><trkpt lat="40.8982217" lon="14.2845067"><ele>81.75</ele><time>2026-04-25T14:27:37.156Z</time></trkpt><trkpt lat="40.89809" lon="14.2844333"><ele>80.5</ele><time>2026-04-25T14:27:39.156Z</time></trkpt><trkpt lat="40.8979867" lon="14.28443"><ele>79.25</ele><time>2026-04-25T14:27:41.156Z</time></trkpt><trkpt lat="40.89788" lon="14.2844817"><ele>78.0</ele><time>2026-04-25T14:27:43.157Z</time></trkpt><trkpt lat="40.8977933" lon="14.2845533"><ele>78.0</ele><time>2026-04-25T14:27:45.156Z</time></trkpt><trkpt lat="40.8977383" lon="14.2846533"><ele>78.0</ele><time>2026-04-25T14:27:47.156Z</time></trkpt><trkpt lat="40.8976683" lon="14.2847583"><ele>78.0</ele><time>2026-04-25T14:27:49.157Z</time></trkpt><trkpt lat="40.8976" lon="14.2848717"><ele>78.0</ele><time>2026-04-25T14:27:51.157Z</time></trkpt><trkpt lat="40.8975383" lon="14.2849967"><ele>78.0</ele><time>2026-04-25T14:27:53.156Z</time></trkpt><trkpt lat="40.8974717" lon="14.2851183"><ele>78.6</ele><time>2026-04-25T14:27:55.157Z</time></trkpt><trkpt lat="40.8974033" lon="14.285225"><ele>79.19999999999999</ele><time>2026-04-25T14:27:57.158Z</time></trkpt><trkpt lat="40.8973333" lon="14.2853317"><ele>79.8</ele><time>2026-04-25T14:27:59.157Z</time></trkpt><trkpt lat="40.897255" lon="14.28542"><ele>80.39999999999999</ele><time>2026-04-25T14:28:01.157Z</time></trkpt><trkpt lat="40.89718" lon="14.2855017"><ele>81.0</ele><time>2026-04-25T14:28:03.156Z</time></trkpt><trkpt lat="40.8971133" lon="14.285605"><ele>81.19999999999999</ele><time>2026-04-25T14:28:05.156Z</time></trkpt><trkpt lat="40.8970517" lon="14.2857167"><ele>81.39999999999999</ele><time>2026-04-25T14:28:07.156Z</time></trkpt><trkpt lat="40.8969767" lon="14.285815"><ele>81.6</ele><time>2026-04-25T14:28:09.157Z</time></trkpt><trkpt lat="40.8969" lon="14.2859317"><ele>81.8</ele><time>2026-04-25T14:28:11.156Z</time></trkpt><trkpt lat="40.896835" lon="14.2860367"><ele>82.0</ele><time>2026-04-25T14:28:13.157Z</time></trkpt><trkpt lat="40.896775" lon="14.2861417"><ele>81.6</ele><time>2026-04-25T14:28:15.157Z</time></trkpt><trkpt lat="40.8967367" lon="14.2862783"><ele>81.19999999999999</ele><time>2026-04-25T14:28:17.157Z</time></trkpt><trkpt lat="40.8967167" lon="14.2863617"><ele>80.8</ele><time>2026-04-25T14:28:18.157Z</time></trkpt><trkpt lat="40.89663" lon="14.28642"><ele>80.4</ele><time>2026-04-25T14:28:20.157Z</time></trkpt><trkpt lat="40.8965367" lon="14.2864217"><ele>80.0</ele><time>2026-04-25T14:28:22.157Z</time></trkpt><trkpt lat="40.8964517" lon="14.2864167"><ele>80.0</ele><time>2026-04-25T14:28:24.157Z</time></trkpt><trkpt lat="40.8963483" lon="14.2863733"><ele>80.0</ele><time>2026-04-25T14:28:26.157Z</time></trkpt><trkpt lat="40.89624" lon="14.286325"><ele>80.0</ele><time>2026-04-25T14:28:28.159Z</time></trkpt><trkpt lat="40.89613" lon="14.2862917"><ele>80.0</ele><time>2026-04-25T14:28:30.158Z</time></trkpt><trkpt lat="40.8960167" lon="14.2862667"><ele>79.6</ele><time>2026-04-25T14:28:32.157Z</time></trkpt><trkpt lat="40.8959067" lon="14.2862533"><ele>79.2</ele><time>2026-04-25T14:28:34.156Z</time></trkpt><trkpt lat="40.8957917" lon="14.2862383"><ele>78.8</ele><time>2026-04-25T14:28:36.157Z</time></trkpt><trkpt lat="40.89568" lon="14.286225"><ele>78.4</ele><time>2026-04-25T14:28:38.157Z</time></trkpt><trkpt lat="40.8955733" lon="14.28622"><ele>78.0</ele><time>2026-04-25T14:28:40.157Z</time></trkpt><trkpt lat="40.895475" lon="14.286215"><ele>78.0</ele><time>2026-04-25T14:28:42.158Z</time></trkpt><trkpt lat="40.8953567" lon="14.28621"><ele>78.0</ele><time>2026-04-25T14:28:44.156Z</time></trkpt><trkpt lat="40.8952333" lon="14.2862167"><ele>78.0</ele><time>2026-04-25T14:28:46.156Z</time></trkpt><trkpt lat="40.89513" lon="14.2862183"><ele>78.0</ele><time>2026-04-25T14:28:48.158Z</time></trkpt><trkpt lat="40.89503" lon="14.2862133"><ele>78.0</ele><time>2026-04-25T14:28:50.157Z</time></trkpt><trkpt lat="40.894945" lon="14.2862017"><ele>78.4</ele><time>2026-04-25T14:28:52.159Z</time></trkpt><trkpt lat="40.8948767" lon="14.2861967"><ele>78.8</ele><time>2026-04-25T14:28:54.156Z</time></trkpt><trkpt lat="40.894785" lon="14.286175"><ele>79.2</ele><time>2026-04-25T14:28:57.157Z</time></trkpt><trkpt lat="40.8946717" lon="14.2861567"><ele>79.6</ele><time>2026-04-25T14:28:59.158Z</time></trkpt><trkpt lat="40.894605" lon="14.2861417"><ele>80.0</ele><time>2026-04-25T14:29:00.158Z</time></trkpt><trkpt lat="40.8944883" lon="14.286125"><ele>80.0</ele><time>2026-04-25T14:29:02.159Z</time></trkpt><trkpt lat="40.894425" lon="14.2861183"><ele>80.0</ele><time>2026-04-25T14:29:03.156Z</time></trkpt><trkpt lat="40.8943183" lon="14.2861117"><ele>80.0</ele><time>2026-04-25T14:29:05.158Z</time></trkpt><trkpt lat="40.8941817" lon="14.2861067"><ele>80.0</ele><time>2026-04-25T14:29:07.158Z</time></trkpt><trkpt lat="40.8940817" lon="14.2860967"><ele>80.0</ele><time>2026-04-25T14:29:09.157Z</time></trkpt><trkpt lat="40.89398" lon="14.2860883"><ele>80.2</ele><time>2026-04-25T14:29:11.157Z</time></trkpt><trkpt lat="40.8938817" lon="14.2860733"><ele>80.4</ele><time>2026-04-25T14:29:13.159Z</time></trkpt><trkpt lat="40.8937783" lon="14.2860433"><ele>80.6</ele><time>2026-04-25T14:29:15.157Z</time></trkpt><trkpt lat="40.893675" lon="14.2860233"><ele>80.8</ele><time>2026-04-25T14:29:17.162Z</time></trkpt><trkpt lat="40.89358" lon="14.2860067"><ele>81.0</ele><time>2026-04-25T14:29:19.159Z</time></trkpt><trkpt lat="40.893495" lon="14.2860083"><ele>81.0</ele><time>2026-04-25T14:29:21.158Z</time></trkpt><trkpt lat="40.8934783" lon="14.2861217"><ele>81.0</ele><time>2026-04-25T14:29:24.158Z</time></trkpt><trkpt lat="40.8935" lon="14.2862083"><ele>81.0</ele><time>2026-04-25T14:29:26.159Z</time></trkpt><trkpt lat="40.893535" lon="14.2863017"><ele>81.0</ele><time>2026-04-25T14:29:29.158Z</time></trkpt><trkpt lat="40.8935567" lon="14.2863933"><ele>81.0</ele><time>2026-04-25T14:29:32.159Z</time></trkpt><trkpt lat="40.893575" lon="14.2865017"><ele>81.0</ele><time>2026-04-25T14:29:35.158Z</time></trkpt><trkpt lat="40.89359" lon="14.2866033"><ele>80.8</ele><time>2026-04-25T14:29:37.159Z</time></trkpt><trkpt lat="40.8936083" lon="14.28675"><ele>80.6</ele><time>2026-04-25T14:29:39.159Z</time></trkpt><trkpt lat="40.89363" lon="14.2868833"><ele>80.4</ele><time>2026-04-25T14:29:41.16Z</time></trkpt><trkpt lat="40.8936583" lon="14.287025"><ele>80.2</ele><time>2026-04-25T14:29:43.158Z</time></trkpt><trkpt lat="40.8936817" lon="14.2871517"><ele>80.0</ele><time>2026-04-25T14:29:45.158Z</time></trkpt><trkpt lat="40.893705" lon="14.287275"><ele>80.0</ele><time>2026-04-25T14:29:47.158Z</time></trkpt><trkpt lat="40.8937367" lon="14.2873767"><ele>80.0</ele><time>2026-04-25T14:29:49.162Z</time></trkpt><trkpt lat="40.8937733" lon="14.28748"><ele>80.0</ele><time>2026-04-25T14:29:51.157Z</time></trkpt><trkpt lat="40.89381" lon="14.287565"><ele>80.0</ele><time>2026-04-25T14:29:53.159Z</time></trkpt><trkpt lat="40.893825" lon="14.2876517"><ele>80.0</ele><time>2026-04-25T14:29:55.159Z</time></trkpt><trkpt lat="40.8938622" lon="14.2878427"><ele>80.0</ele><time>2026-04-25T14:31:13.075Z</time></trkpt><trkpt lat="40.893762" lon="14.2878534"><ele>80.0</ele><time>2026-04-25T14:31:18.116Z</time></trkpt></trkseg></trk></gpx>